<?xml version="1.0" encoding="UTF-8" standalone="no" ?>
<gpx xmlns="http://www.topografix.com/GPX/1/1" xmlns:xsi="http://www.w3.org/2001/XMLSchema-instance" xsi:schemaLocation="http://www.topografix.com/GPX/1/1 http://www.topografix.com/GPX/1/1/gpx.xsd" version="1.1" creator="VisuGPX - https://www.visugpx.com">
  <metadata>
    <name>Trail Mont Rachais Tours et Detours</name>
    <desc><![CDATA[Tours et Detours au mont Rachais]]></desc>
  </metadata>
  <trk>
    <name><![CDATA[Grenoble Trail]]></name>
    <trkseg>
      <trkpt lat="45.19654" lon="5.7398">
        <ele>214.39999389648</ele>
        <time>2021-09-11T03:14:45.000Z</time>
      </trkpt>
      <trkpt lat="45.19654" lon="5.73981">
        <ele>214.39999389648</ele>
        <time>2021-09-11T03:14:46.000Z</time>
      </trkpt>
      <trkpt lat="45.19651" lon="5.73982">
        <ele>214.39999389648</ele>
        <time>2021-09-11T03:14:50.000Z</time>
      </trkpt>
      <trkpt lat="45.1965" lon="5.73982">
        <ele>214.39999389648</ele>
        <time>2021-09-11T03:14:51.000Z</time>
      </trkpt>
      <trkpt lat="45.19638" lon="5.73979">
        <ele>214.60000610352</ele>
        <time>2021-09-11T03:14:59.000Z</time>
      </trkpt>
      <trkpt lat="45.19637" lon="5.73978">
        <ele>214.60000610352</ele>
        <time>2021-09-11T03:15:00.000Z</time>
      </trkpt>
      <trkpt lat="45.19633" lon="5.73977">
        <ele>214.39999389648</ele>
        <time>2021-09-11T03:15:04.000Z</time>
      </trkpt>
      <trkpt lat="45.19632" lon="5.73976">
        <ele>214.39999389648</ele>
        <time>2021-09-11T03:15:06.000Z</time>
      </trkpt>
      <trkpt lat="45.19633" lon="5.73976">
        <ele>214.39999389648</ele>
        <time>2021-09-11T03:15:09.000Z</time>
      </trkpt>
      <trkpt lat="45.19634" lon="5.73978">
        <ele>214</ele>
        <time>2021-09-11T03:15:11.000Z</time>
      </trkpt>
      <trkpt lat="45.19634" lon="5.73978">
        <ele>213.39999389648</ele>
        <time>2021-09-11T03:15:13.000Z</time>
      </trkpt>
      <trkpt lat="45.19634" lon="5.73978">
        <ele>213.19999694824</ele>
        <time>2021-09-11T03:15:14.000Z</time>
      </trkpt>
      <trkpt lat="45.19636" lon="5.73976">
        <ele>212</ele>
        <time>2021-09-11T03:15:17.000Z</time>
      </trkpt>
      <trkpt lat="45.19639" lon="5.73975">
        <ele>212</ele>
        <time>2021-09-11T03:15:18.000Z</time>
      </trkpt>
      <trkpt lat="45.1964" lon="5.73975">
        <ele>211.80000305176</ele>
        <time>2021-09-11T03:15:20.000Z</time>
      </trkpt>
      <trkpt lat="45.1964" lon="5.73975">
        <ele>211.80000305176</ele>
        <time>2021-09-11T03:15:21.000Z</time>
      </trkpt>
      <trkpt lat="45.19639" lon="5.73976">
        <ele>211.39999389648</ele>
        <time>2021-09-11T03:15:22.000Z</time>
      </trkpt>
      <trkpt lat="45.19638" lon="5.73977">
        <ele>210.80000305176</ele>
        <time>2021-09-11T03:15:24.000Z</time>
      </trkpt>
      <trkpt lat="45.19638" lon="5.7398">
        <ele>210.19999694824</ele>
        <time>2021-09-11T03:15:26.000Z</time>
      </trkpt>
      <trkpt lat="45.19639" lon="5.73982">
        <ele>209.60000610352</ele>
        <time>2021-09-11T03:15:30.000Z</time>
      </trkpt>
      <trkpt lat="45.19638" lon="5.73982">
        <ele>209.19999694824</ele>
        <time>2021-09-11T03:15:33.000Z</time>
      </trkpt>
      <trkpt lat="45.19637" lon="5.73983">
        <ele>208.39999389648</ele>
        <time>2021-09-11T03:15:36.000Z</time>
      </trkpt>
      <trkpt lat="45.19635" lon="5.73981">
        <ele>207.80000305176</ele>
        <time>2021-09-11T03:15:38.000Z</time>
      </trkpt>
      <trkpt lat="45.19635" lon="5.7398">
        <ele>207.39999389648</ele>
        <time>2021-09-11T03:15:39.000Z</time>
      </trkpt>
      <trkpt lat="45.19635" lon="5.73976">
        <ele>206.39999389648</ele>
        <time>2021-09-11T03:15:43.000Z</time>
      </trkpt>
      <trkpt lat="45.19636" lon="5.73975">
        <ele>206.39999389648</ele>
        <time>2021-09-11T03:15:44.000Z</time>
      </trkpt>
      <trkpt lat="45.19637" lon="5.73973">
        <ele>206.19999694824</ele>
        <time>2021-09-11T03:15:46.000Z</time>
      </trkpt>
      <trkpt lat="45.19638" lon="5.73975">
        <ele>206.19999694824</ele>
        <time>2021-09-11T03:15:49.000Z</time>
      </trkpt>
      <trkpt lat="45.19639" lon="5.73977">
        <ele>206.19999694824</ele>
        <time>2021-09-11T03:15:50.000Z</time>
      </trkpt>
      <trkpt lat="45.19643" lon="5.7398">
        <ele>206.19999694824</ele>
        <time>2021-09-11T03:15:53.000Z</time>
      </trkpt>
      <trkpt lat="45.19655" lon="5.73977">
        <ele>206</ele>
        <time>2021-09-11T03:16:00.000Z</time>
      </trkpt>
      <trkpt lat="45.19659" lon="5.73968">
        <ele>206</ele>
        <time>2021-09-11T03:16:02.000Z</time>
      </trkpt>
      <trkpt lat="45.19661" lon="5.73963">
        <ele>206.19999694824</ele>
        <time>2021-09-11T03:16:04.000Z</time>
      </trkpt>
      <trkpt lat="45.19662" lon="5.73962">
        <ele>206.19999694824</ele>
        <time>2021-09-11T03:16:05.000Z</time>
      </trkpt>
      <trkpt lat="45.19663" lon="5.73961">
        <ele>206.19999694824</ele>
        <time>2021-09-11T03:16:06.000Z</time>
      </trkpt>
      <trkpt lat="45.19663" lon="5.7396">
        <ele>206.19999694824</ele>
        <time>2021-09-11T03:16:07.000Z</time>
      </trkpt>
      <trkpt lat="45.19666" lon="5.73959">
        <ele>206.19999694824</ele>
        <time>2021-09-11T03:16:09.000Z</time>
      </trkpt>
      <trkpt lat="45.19674" lon="5.73957">
        <ele>206</ele>
        <time>2021-09-11T03:16:12.000Z</time>
      </trkpt>
      <trkpt lat="45.19681" lon="5.7396">
        <ele>206</ele>
        <time>2021-09-11T03:16:15.000Z</time>
      </trkpt>
      <trkpt lat="45.19681" lon="5.73963">
        <ele>206</ele>
        <time>2021-09-11T03:16:16.000Z</time>
      </trkpt>
      <trkpt lat="45.19683" lon="5.73971">
        <ele>206.39999389648</ele>
        <time>2021-09-11T03:16:19.000Z</time>
      </trkpt>
      <trkpt lat="45.19684" lon="5.73978">
        <ele>206.60000610352</ele>
        <time>2021-09-11T03:16:22.000Z</time>
      </trkpt>
      <trkpt lat="45.19687" lon="5.73993">
        <ele>206.80000305176</ele>
        <time>2021-09-11T03:16:27.000Z</time>
      </trkpt>
      <trkpt lat="45.19687" lon="5.73994">
        <ele>206.80000305176</ele>
        <time>2021-09-11T03:16:28.000Z</time>
      </trkpt>
      <trkpt lat="45.19685" lon="5.73999">
        <ele>206.80000305176</ele>
        <time>2021-09-11T03:16:31.000Z</time>
      </trkpt>
      <trkpt lat="45.19685" lon="5.74004">
        <ele>206.80000305176</ele>
        <time>2021-09-11T03:16:33.000Z</time>
      </trkpt>
      <trkpt lat="45.19687" lon="5.74005">
        <ele>206.80000305176</ele>
        <time>2021-09-11T03:16:34.000Z</time>
      </trkpt>
      <trkpt lat="45.1969" lon="5.74011">
        <ele>206.60000610352</ele>
        <time>2021-09-11T03:16:36.000Z</time>
      </trkpt>
      <trkpt lat="45.19691" lon="5.74015">
        <ele>206.60000610352</ele>
        <time>2021-09-11T03:16:37.000Z</time>
      </trkpt>
      <trkpt lat="45.19691" lon="5.74018">
        <ele>206.60000610352</ele>
        <time>2021-09-11T03:16:38.000Z</time>
      </trkpt>
      <trkpt lat="45.19698" lon="5.74035">
        <ele>206.60000610352</ele>
        <time>2021-09-11T03:16:44.000Z</time>
      </trkpt>
      <trkpt lat="45.19703" lon="5.74043">
        <ele>206.80000305176</ele>
        <time>2021-09-11T03:16:48.000Z</time>
      </trkpt>
      <trkpt lat="45.19704" lon="5.74046">
        <ele>206.80000305176</ele>
        <time>2021-09-11T03:16:49.000Z</time>
      </trkpt>
      <trkpt lat="45.19701" lon="5.74067">
        <ele>206.39999389648</ele>
        <time>2021-09-11T03:16:54.000Z</time>
      </trkpt>
      <trkpt lat="45.19701" lon="5.74071">
        <ele>206.39999389648</ele>
        <time>2021-09-11T03:16:55.000Z</time>
      </trkpt>
      <trkpt lat="45.19708" lon="5.74091">
        <ele>206.80000305176</ele>
        <time>2021-09-11T03:17:01.000Z</time>
      </trkpt>
      <trkpt lat="45.1971" lon="5.74097">
        <ele>206.80000305176</ele>
        <time>2021-09-11T03:17:03.000Z</time>
      </trkpt>
      <trkpt lat="45.19712" lon="5.74103">
        <ele>206.80000305176</ele>
        <time>2021-09-11T03:17:05.000Z</time>
      </trkpt>
      <trkpt lat="45.19715" lon="5.74109">
        <ele>207</ele>
        <time>2021-09-11T03:17:07.000Z</time>
      </trkpt>
      <trkpt lat="45.1972" lon="5.74118">
        <ele>206.80000305176</ele>
        <time>2021-09-11T03:17:10.000Z</time>
      </trkpt>
      <trkpt lat="45.19721" lon="5.74122">
        <ele>206.80000305176</ele>
        <time>2021-09-11T03:17:11.000Z</time>
      </trkpt>
      <trkpt lat="45.19721" lon="5.74125">
        <ele>206.80000305176</ele>
        <time>2021-09-11T03:17:12.000Z</time>
      </trkpt>
      <trkpt lat="45.19726" lon="5.7415">
        <ele>206.60000610352</ele>
        <time>2021-09-11T03:17:19.000Z</time>
      </trkpt>
      <trkpt lat="45.1973" lon="5.74168">
        <ele>206.80000305176</ele>
        <time>2021-09-11T03:17:24.000Z</time>
      </trkpt>
      <trkpt lat="45.19731" lon="5.74175">
        <ele>206.80000305176</ele>
        <time>2021-09-11T03:17:26.000Z</time>
      </trkpt>
      <trkpt lat="45.19733" lon="5.74184">
        <ele>206.60000610352</ele>
        <time>2021-09-11T03:17:29.000Z</time>
      </trkpt>
      <trkpt lat="45.19736" lon="5.74204">
        <ele>206.60000610352</ele>
        <time>2021-09-11T03:17:35.000Z</time>
      </trkpt>
      <trkpt lat="45.19737" lon="5.74224">
        <ele>207</ele>
        <time>2021-09-11T03:17:41.000Z</time>
      </trkpt>
      <trkpt lat="45.19737" lon="5.74227">
        <ele>207</ele>
        <time>2021-09-11T03:17:42.000Z</time>
      </trkpt>
      <trkpt lat="45.19729" lon="5.74233">
        <ele>207</ele>
        <time>2021-09-11T03:17:44.000Z</time>
      </trkpt>
      <trkpt lat="45.19709" lon="5.74239">
        <ele>207.39999389648</ele>
        <time>2021-09-11T03:17:50.000Z</time>
      </trkpt>
      <trkpt lat="45.19692" lon="5.74242">
        <ele>207.39999389648</ele>
        <time>2021-09-11T03:17:56.000Z</time>
      </trkpt>
      <trkpt lat="45.19678" lon="5.74247">
        <ele>207</ele>
        <time>2021-09-11T03:18:01.000Z</time>
      </trkpt>
      <trkpt lat="45.19676" lon="5.74247">
        <ele>207</ele>
        <time>2021-09-11T03:18:02.000Z</time>
      </trkpt>
      <trkpt lat="45.1966" lon="5.74244">
        <ele>207.19999694824</ele>
        <time>2021-09-11T03:18:08.000Z</time>
      </trkpt>
      <trkpt lat="45.19642" lon="5.74242">
        <ele>207.39999389648</ele>
        <time>2021-09-11T03:18:14.000Z</time>
      </trkpt>
      <trkpt lat="45.19634" lon="5.7424">
        <ele>207.39999389648</ele>
        <time>2021-09-11T03:18:17.000Z</time>
      </trkpt>
      <trkpt lat="45.1962" lon="5.74241">
        <ele>207.39999389648</ele>
        <time>2021-09-11T03:18:22.000Z</time>
      </trkpt>
      <trkpt lat="45.1961" lon="5.74242">
        <ele>207.39999389648</ele>
        <time>2021-09-11T03:18:26.000Z</time>
      </trkpt>
      <trkpt lat="45.19596" lon="5.74243">
        <ele>207.60000610352</ele>
        <time>2021-09-11T03:18:31.000Z</time>
      </trkpt>
      <trkpt lat="45.19579" lon="5.7424">
        <ele>207.60000610352</ele>
        <time>2021-09-11T03:18:37.000Z</time>
      </trkpt>
      <trkpt lat="45.19565" lon="5.74237">
        <ele>207.39999389648</ele>
        <time>2021-09-11T03:18:42.000Z</time>
      </trkpt>
      <trkpt lat="45.1956" lon="5.74235">
        <ele>207.39999389648</ele>
        <time>2021-09-11T03:18:44.000Z</time>
      </trkpt>
      <trkpt lat="45.19542" lon="5.74231">
        <ele>207.60000610352</ele>
        <time>2021-09-11T03:18:50.000Z</time>
      </trkpt>
      <trkpt lat="45.1954" lon="5.7423">
        <ele>207.80000305176</ele>
        <time>2021-09-11T03:18:51.000Z</time>
      </trkpt>
      <trkpt lat="45.19526" lon="5.74221">
        <ele>208</ele>
        <time>2021-09-11T03:18:56.000Z</time>
      </trkpt>
      <trkpt lat="45.1951" lon="5.74213">
        <ele>208.39999389648</ele>
        <time>2021-09-11T03:19:02.000Z</time>
      </trkpt>
      <trkpt lat="45.19507" lon="5.74212">
        <ele>208.60000610352</ele>
        <time>2021-09-11T03:19:03.000Z</time>
      </trkpt>
      <trkpt lat="45.19499" lon="5.7421">
        <ele>209</ele>
        <time>2021-09-11T03:19:06.000Z</time>
      </trkpt>
      <trkpt lat="45.19494" lon="5.74213">
        <ele>209.19999694824</ele>
        <time>2021-09-11T03:19:09.000Z</time>
      </trkpt>
      <trkpt lat="45.19494" lon="5.74213">
        <ele>209.39999389648</ele>
        <time>2021-09-11T03:19:12.000Z</time>
      </trkpt>
      <trkpt lat="45.19495" lon="5.74213">
        <ele>209.39999389648</ele>
        <time>2021-09-11T03:19:13.000Z</time>
      </trkpt>
      <trkpt lat="45.19509" lon="5.74215">
        <ele>209.19999694824</ele>
        <time>2021-09-11T03:19:18.000Z</time>
      </trkpt>
      <trkpt lat="45.1953" lon="5.74218">
        <ele>208.80000305176</ele>
        <time>2021-09-11T03:19:24.000Z</time>
      </trkpt>
      <trkpt lat="45.19532" lon="5.74219">
        <ele>208.19999694824</ele>
        <time>2021-09-11T03:19:25.000Z</time>
      </trkpt>
      <trkpt lat="45.19546" lon="5.7422">
        <ele>208.39999389648</ele>
        <time>2021-09-11T03:19:30.000Z</time>
      </trkpt>
      <trkpt lat="45.19563" lon="5.74223">
        <ele>208.39999389648</ele>
        <time>2021-09-11T03:19:36.000Z</time>
      </trkpt>
      <trkpt lat="45.19574" lon="5.74223">
        <ele>208.60000610352</ele>
        <time>2021-09-11T03:19:40.000Z</time>
      </trkpt>
      <trkpt lat="45.19579" lon="5.74222">
        <ele>208.60000610352</ele>
        <time>2021-09-11T03:19:42.000Z</time>
      </trkpt>
      <trkpt lat="45.19588" lon="5.74223">
        <ele>209.80000305176</ele>
        <time>2021-09-11T03:19:45.000Z</time>
      </trkpt>
      <trkpt lat="45.19601" lon="5.74222">
        <ele>208</ele>
        <time>2021-09-11T03:19:50.000Z</time>
      </trkpt>
      <trkpt lat="45.19618" lon="5.74221">
        <ele>208.19999694824</ele>
        <time>2021-09-11T03:19:57.000Z</time>
      </trkpt>
      <trkpt lat="45.19636" lon="5.74219">
        <ele>207.19999694824</ele>
        <time>2021-09-11T03:20:04.000Z</time>
      </trkpt>
      <trkpt lat="45.19642" lon="5.7422">
        <ele>207</ele>
        <time>2021-09-11T03:20:06.000Z</time>
      </trkpt>
      <trkpt lat="45.19653" lon="5.74223">
        <ele>207.60000610352</ele>
        <time>2021-09-11T03:20:11.000Z</time>
      </trkpt>
      <trkpt lat="45.19666" lon="5.74224">
        <ele>207.19999694824</ele>
        <time>2021-09-11T03:20:16.000Z</time>
      </trkpt>
      <trkpt lat="45.19682" lon="5.74225">
        <ele>207.39999389648</ele>
        <time>2021-09-11T03:20:22.000Z</time>
      </trkpt>
      <trkpt lat="45.19685" lon="5.74226">
        <ele>207.19999694824</ele>
        <time>2021-09-11T03:20:23.000Z</time>
      </trkpt>
      <trkpt lat="45.19704" lon="5.74225">
        <ele>207.39999389648</ele>
        <time>2021-09-11T03:20:30.000Z</time>
      </trkpt>
      <trkpt lat="45.19717" lon="5.7422">
        <ele>207</ele>
        <time>2021-09-11T03:20:35.000Z</time>
      </trkpt>
      <trkpt lat="45.19724" lon="5.74218">
        <ele>207</ele>
        <time>2021-09-11T03:20:38.000Z</time>
      </trkpt>
      <trkpt lat="45.19727" lon="5.74218">
        <ele>206.80000305176</ele>
        <time>2021-09-11T03:20:39.000Z</time>
      </trkpt>
      <trkpt lat="45.19743" lon="5.74215">
        <ele>207</ele>
        <time>2021-09-11T03:20:46.000Z</time>
      </trkpt>
      <trkpt lat="45.19758" lon="5.74213">
        <ele>207.19999694824</ele>
        <time>2021-09-11T03:20:52.000Z</time>
      </trkpt>
      <trkpt lat="45.19781" lon="5.74211">
        <ele>207.19999694824</ele>
        <time>2021-09-11T03:21:00.000Z</time>
      </trkpt>
      <trkpt lat="45.19801" lon="5.74208">
        <ele>207.19999694824</ele>
        <time>2021-09-11T03:21:06.000Z</time>
      </trkpt>
      <trkpt lat="45.19803" lon="5.74207">
        <ele>207</ele>
        <time>2021-09-11T03:21:07.000Z</time>
      </trkpt>
      <trkpt lat="45.19811" lon="5.74204">
        <ele>207</ele>
        <time>2021-09-11T03:21:10.000Z</time>
      </trkpt>
      <trkpt lat="45.19817" lon="5.74204">
        <ele>207</ele>
        <time>2021-09-11T03:21:12.000Z</time>
      </trkpt>
      <trkpt lat="45.19836" lon="5.74204">
        <ele>207.19999694824</ele>
        <time>2021-09-11T03:21:18.000Z</time>
      </trkpt>
      <trkpt lat="45.1984" lon="5.74203">
        <ele>207.19999694824</ele>
        <time>2021-09-11T03:21:19.000Z</time>
      </trkpt>
      <trkpt lat="45.19842" lon="5.74203">
        <ele>207.19999694824</ele>
        <time>2021-09-11T03:21:20.000Z</time>
      </trkpt>
      <trkpt lat="45.19848" lon="5.74199">
        <ele>207.19999694824</ele>
        <time>2021-09-11T03:21:24.000Z</time>
      </trkpt>
      <trkpt lat="45.19858" lon="5.74196">
        <ele>207</ele>
        <time>2021-09-11T03:21:28.000Z</time>
      </trkpt>
      <trkpt lat="45.19862" lon="5.74189">
        <ele>207.19999694824</ele>
        <time>2021-09-11T03:21:31.000Z</time>
      </trkpt>
      <trkpt lat="45.19878" lon="5.74178">
        <ele>207.19999694824</ele>
        <time>2021-09-11T03:21:38.000Z</time>
      </trkpt>
      <trkpt lat="45.1988" lon="5.74176">
        <ele>207.19999694824</ele>
        <time>2021-09-11T03:21:39.000Z</time>
      </trkpt>
      <trkpt lat="45.19898" lon="5.74169">
        <ele>207.39999389648</ele>
        <time>2021-09-11T03:21:46.000Z</time>
      </trkpt>
      <trkpt lat="45.19915" lon="5.74159">
        <ele>207.39999389648</ele>
        <time>2021-09-11T03:21:55.000Z</time>
      </trkpt>
      <trkpt lat="45.19932" lon="5.74149">
        <ele>207.60000610352</ele>
        <time>2021-09-11T03:22:02.000Z</time>
      </trkpt>
      <trkpt lat="45.1994" lon="5.74141">
        <ele>207.39999389648</ele>
        <time>2021-09-11T03:22:06.000Z</time>
      </trkpt>
      <trkpt lat="45.19949" lon="5.74135">
        <ele>207.39999389648</ele>
        <time>2021-09-11T03:22:10.000Z</time>
      </trkpt>
      <trkpt lat="45.1996" lon="5.74122">
        <ele>207.60000610352</ele>
        <time>2021-09-11T03:22:15.000Z</time>
      </trkpt>
      <trkpt lat="45.19971" lon="5.74113">
        <ele>207.80000305176</ele>
        <time>2021-09-11T03:22:20.000Z</time>
      </trkpt>
      <trkpt lat="45.19989" lon="5.741">
        <ele>206.19999694824</ele>
        <time>2021-09-11T03:22:27.000Z</time>
      </trkpt>
      <trkpt lat="45.19991" lon="5.74098">
        <ele>205.80000305176</ele>
        <time>2021-09-11T03:22:28.000Z</time>
      </trkpt>
      <trkpt lat="45.19993" lon="5.74096">
        <ele>205.60000610352</ele>
        <time>2021-09-11T03:22:29.000Z</time>
      </trkpt>
      <trkpt lat="45.20004" lon="5.74082">
        <ele>205.19999694824</ele>
        <time>2021-09-11T03:22:34.000Z</time>
      </trkpt>
      <trkpt lat="45.20015" lon="5.74075">
        <ele>205.19999694824</ele>
        <time>2021-09-11T03:22:41.000Z</time>
      </trkpt>
      <trkpt lat="45.20019" lon="5.7407">
        <ele>205.19999694824</ele>
        <time>2021-09-11T03:22:43.000Z</time>
      </trkpt>
      <trkpt lat="45.20022" lon="5.74065">
        <ele>205.19999694824</ele>
        <time>2021-09-11T03:22:44.000Z</time>
      </trkpt>
      <trkpt lat="45.20022" lon="5.74062">
        <ele>205.19999694824</ele>
        <time>2021-09-11T03:22:45.000Z</time>
      </trkpt>
      <trkpt lat="45.20023" lon="5.74056">
        <ele>205.39999389648</ele>
        <time>2021-09-11T03:22:47.000Z</time>
      </trkpt>
      <trkpt lat="45.20024" lon="5.74053">
        <ele>205.39999389648</ele>
        <time>2021-09-11T03:22:48.000Z</time>
      </trkpt>
      <trkpt lat="45.20025" lon="5.74049">
        <ele>205.60000610352</ele>
        <time>2021-09-11T03:22:49.000Z</time>
      </trkpt>
      <trkpt lat="45.20028" lon="5.74043">
        <ele>205.60000610352</ele>
        <time>2021-09-11T03:22:51.000Z</time>
      </trkpt>
      <trkpt lat="45.20031" lon="5.7404">
        <ele>205.80000305176</ele>
        <time>2021-09-11T03:22:52.000Z</time>
      </trkpt>
      <trkpt lat="45.20042" lon="5.74026">
        <ele>207</ele>
        <time>2021-09-11T03:22:57.000Z</time>
      </trkpt>
      <trkpt lat="45.20043" lon="5.74023">
        <ele>207.19999694824</ele>
        <time>2021-09-11T03:22:58.000Z</time>
      </trkpt>
      <trkpt lat="45.20051" lon="5.74016">
        <ele>207.80000305176</ele>
        <time>2021-09-11T03:23:04.000Z</time>
      </trkpt>
      <trkpt lat="45.2005" lon="5.74017">
        <ele>208</ele>
        <time>2021-09-11T03:23:05.000Z</time>
      </trkpt>
      <trkpt lat="45.20049" lon="5.74019">
        <ele>208.39999389648</ele>
        <time>2021-09-11T03:23:07.000Z</time>
      </trkpt>
      <trkpt lat="45.20038" lon="5.74034">
        <ele>207.60000610352</ele>
        <time>2021-09-11T03:23:16.000Z</time>
      </trkpt>
      <trkpt lat="45.20032" lon="5.74047">
        <ele>209</ele>
        <time>2021-09-11T03:23:22.000Z</time>
      </trkpt>
      <trkpt lat="45.20032" lon="5.74049">
        <ele>209</ele>
        <time>2021-09-11T03:23:23.000Z</time>
      </trkpt>
      <trkpt lat="45.20034" lon="5.74055">
        <ele>209.39999389648</ele>
        <time>2021-09-11T03:23:26.000Z</time>
      </trkpt>
      <trkpt lat="45.20045" lon="5.7407">
        <ele>209.60000610352</ele>
        <time>2021-09-11T03:23:32.000Z</time>
      </trkpt>
      <trkpt lat="45.2006" lon="5.74085">
        <ele>210</ele>
        <time>2021-09-11T03:23:38.000Z</time>
      </trkpt>
      <trkpt lat="45.20063" lon="5.74088">
        <ele>210</ele>
        <time>2021-09-11T03:23:39.000Z</time>
      </trkpt>
      <trkpt lat="45.20076" lon="5.74109">
        <ele>209.80000305176</ele>
        <time>2021-09-11T03:23:46.000Z</time>
      </trkpt>
      <trkpt lat="45.20078" lon="5.74112">
        <ele>209.80000305176</ele>
        <time>2021-09-11T03:23:47.000Z</time>
      </trkpt>
      <trkpt lat="45.2009" lon="5.74129">
        <ele>210</ele>
        <time>2021-09-11T03:23:53.000Z</time>
      </trkpt>
      <trkpt lat="45.20106" lon="5.74144">
        <ele>209.80000305176</ele>
        <time>2021-09-11T03:24:00.000Z</time>
      </trkpt>
      <trkpt lat="45.20108" lon="5.74147">
        <ele>209.80000305176</ele>
        <time>2021-09-11T03:24:01.000Z</time>
      </trkpt>
      <trkpt lat="45.2012" lon="5.74156">
        <ele>209.60000610352</ele>
        <time>2021-09-11T03:24:07.000Z</time>
      </trkpt>
      <trkpt lat="45.20122" lon="5.74154">
        <ele>209.60000610352</ele>
        <time>2021-09-11T03:24:08.000Z</time>
      </trkpt>
      <trkpt lat="45.20128" lon="5.74133">
        <ele>208.39999389648</ele>
        <time>2021-09-11T03:24:14.000Z</time>
      </trkpt>
      <trkpt lat="45.20131" lon="5.74127">
        <ele>208</ele>
        <time>2021-09-11T03:24:16.000Z</time>
      </trkpt>
      <trkpt lat="45.20136" lon="5.74115">
        <ele>207.39999389648</ele>
        <time>2021-09-11T03:24:20.000Z</time>
      </trkpt>
      <trkpt lat="45.20137" lon="5.74112">
        <ele>207</ele>
        <time>2021-09-11T03:24:21.000Z</time>
      </trkpt>
      <trkpt lat="45.20139" lon="5.74108">
        <ele>206.80000305176</ele>
        <time>2021-09-11T03:24:22.000Z</time>
      </trkpt>
      <trkpt lat="45.20144" lon="5.74102">
        <ele>206.39999389648</ele>
        <time>2021-09-11T03:24:25.000Z</time>
      </trkpt>
      <trkpt lat="45.20148" lon="5.74094">
        <ele>206</ele>
        <time>2021-09-11T03:24:28.000Z</time>
      </trkpt>
      <trkpt lat="45.20151" lon="5.74086">
        <ele>205.80000305176</ele>
        <time>2021-09-11T03:24:30.000Z</time>
      </trkpt>
      <trkpt lat="45.20156" lon="5.74062">
        <ele>205</ele>
        <time>2021-09-11T03:24:36.000Z</time>
      </trkpt>
      <trkpt lat="45.20168" lon="5.7404">
        <ele>204.80000305176</ele>
        <time>2021-09-11T03:24:43.000Z</time>
      </trkpt>
      <trkpt lat="45.2018" lon="5.74023">
        <ele>204.80000305176</ele>
        <time>2021-09-11T03:24:49.000Z</time>
      </trkpt>
      <trkpt lat="45.20187" lon="5.74006">
        <ele>204.39999389648</ele>
        <time>2021-09-11T03:24:54.000Z</time>
      </trkpt>
      <trkpt lat="45.20191" lon="5.73999">
        <ele>204.39999389648</ele>
        <time>2021-09-11T03:24:56.000Z</time>
      </trkpt>
      <trkpt lat="45.20202" lon="5.73978">
        <ele>204.80000305176</ele>
        <time>2021-09-11T03:25:02.000Z</time>
      </trkpt>
      <trkpt lat="45.20206" lon="5.73967">
        <ele>204.80000305176</ele>
        <time>2021-09-11T03:25:05.000Z</time>
      </trkpt>
      <trkpt lat="45.20209" lon="5.73959">
        <ele>204.80000305176</ele>
        <time>2021-09-11T03:25:07.000Z</time>
      </trkpt>
      <trkpt lat="45.20218" lon="5.73935">
        <ele>205</ele>
        <time>2021-09-11T03:25:13.000Z</time>
      </trkpt>
      <trkpt lat="45.2022" lon="5.73923">
        <ele>205</ele>
        <time>2021-09-11T03:25:16.000Z</time>
      </trkpt>
      <trkpt lat="45.20221" lon="5.73919">
        <ele>204.80000305176</ele>
        <time>2021-09-11T03:25:17.000Z</time>
      </trkpt>
      <trkpt lat="45.20231" lon="5.73895">
        <ele>204.80000305176</ele>
        <time>2021-09-11T03:25:23.000Z</time>
      </trkpt>
      <trkpt lat="45.20235" lon="5.73876">
        <ele>204.80000305176</ele>
        <time>2021-09-11T03:25:27.000Z</time>
      </trkpt>
      <trkpt lat="45.20236" lon="5.73872">
        <ele>204.80000305176</ele>
        <time>2021-09-11T03:25:28.000Z</time>
      </trkpt>
      <trkpt lat="45.20244" lon="5.73844">
        <ele>204.80000305176</ele>
        <time>2021-09-11T03:25:35.000Z</time>
      </trkpt>
      <trkpt lat="45.20245" lon="5.73839">
        <ele>204.80000305176</ele>
        <time>2021-09-11T03:25:36.000Z</time>
      </trkpt>
      <trkpt lat="45.20245" lon="5.73812">
        <ele>204.80000305176</ele>
        <time>2021-09-11T03:25:42.000Z</time>
      </trkpt>
      <trkpt lat="45.2025" lon="5.73791">
        <ele>204.80000305176</ele>
        <time>2021-09-11T03:25:47.000Z</time>
      </trkpt>
      <trkpt lat="45.20252" lon="5.73762">
        <ele>204.60000610352</ele>
        <time>2021-09-11T03:25:54.000Z</time>
      </trkpt>
      <trkpt lat="45.20253" lon="5.73759">
        <ele>204.60000610352</ele>
        <time>2021-09-11T03:25:55.000Z</time>
      </trkpt>
      <trkpt lat="45.20253" lon="5.73747">
        <ele>204.39999389648</ele>
        <time>2021-09-11T03:25:58.000Z</time>
      </trkpt>
      <trkpt lat="45.20252" lon="5.73736">
        <ele>204.19999694824</ele>
        <time>2021-09-11T03:26:01.000Z</time>
      </trkpt>
      <trkpt lat="45.20251" lon="5.73719">
        <ele>204.19999694824</ele>
        <time>2021-09-11T03:26:06.000Z</time>
      </trkpt>
      <trkpt lat="45.20249" lon="5.73698">
        <ele>204.39999389648</ele>
        <time>2021-09-11T03:26:12.000Z</time>
      </trkpt>
      <trkpt lat="45.20244" lon="5.73671">
        <ele>204.60000610352</ele>
        <time>2021-09-11T03:26:19.000Z</time>
      </trkpt>
      <trkpt lat="45.20242" lon="5.73663">
        <ele>204.80000305176</ele>
        <time>2021-09-11T03:26:21.000Z</time>
      </trkpt>
      <trkpt lat="45.20237" lon="5.73634">
        <ele>204.60000610352</ele>
        <time>2021-09-11T03:26:28.000Z</time>
      </trkpt>
      <trkpt lat="45.20233" lon="5.73624">
        <ele>204.60000610352</ele>
        <time>2021-09-11T03:26:31.000Z</time>
      </trkpt>
      <trkpt lat="45.20223" lon="5.73598">
        <ele>204.60000610352</ele>
        <time>2021-09-11T03:26:38.000Z</time>
      </trkpt>
      <trkpt lat="45.20217" lon="5.73586">
        <ele>204.80000305176</ele>
        <time>2021-09-11T03:26:41.000Z</time>
      </trkpt>
      <trkpt lat="45.20206" lon="5.73568">
        <ele>204.60000610352</ele>
        <time>2021-09-11T03:26:47.000Z</time>
      </trkpt>
      <trkpt lat="45.20195" lon="5.73544">
        <ele>204.39999389648</ele>
        <time>2021-09-11T03:26:53.000Z</time>
      </trkpt>
      <trkpt lat="45.20195" lon="5.7354">
        <ele>204.39999389648</ele>
        <time>2021-09-11T03:26:54.000Z</time>
      </trkpt>
      <trkpt lat="45.20188" lon="5.73524">
        <ele>204</ele>
        <time>2021-09-11T03:26:59.000Z</time>
      </trkpt>
      <trkpt lat="45.20184" lon="5.73517">
        <ele>204</ele>
        <time>2021-09-11T03:27:01.000Z</time>
      </trkpt>
      <trkpt lat="45.20174" lon="5.73503">
        <ele>204</ele>
        <time>2021-09-11T03:27:06.000Z</time>
      </trkpt>
      <trkpt lat="45.2017" lon="5.73498">
        <ele>204</ele>
        <time>2021-09-11T03:27:08.000Z</time>
      </trkpt>
      <trkpt lat="45.2016" lon="5.73488">
        <ele>203.80000305176</ele>
        <time>2021-09-11T03:27:12.000Z</time>
      </trkpt>
      <trkpt lat="45.20158" lon="5.73484">
        <ele>203.80000305176</ele>
        <time>2021-09-11T03:27:13.000Z</time>
      </trkpt>
      <trkpt lat="45.20143" lon="5.73466">
        <ele>203.80000305176</ele>
        <time>2021-09-11T03:27:19.000Z</time>
      </trkpt>
      <trkpt lat="45.20137" lon="5.73458">
        <ele>203.80000305176</ele>
        <time>2021-09-11T03:27:22.000Z</time>
      </trkpt>
      <trkpt lat="45.20134" lon="5.73451">
        <ele>204</ele>
        <time>2021-09-11T03:27:25.000Z</time>
      </trkpt>
      <trkpt lat="45.20122" lon="5.73435">
        <ele>204.60000610352</ele>
        <time>2021-09-11T03:27:31.000Z</time>
      </trkpt>
      <trkpt lat="45.20119" lon="5.73432">
        <ele>204.80000305176</ele>
        <time>2021-09-11T03:27:32.000Z</time>
      </trkpt>
      <trkpt lat="45.20111" lon="5.73424">
        <ele>205.19999694824</ele>
        <time>2021-09-11T03:27:36.000Z</time>
      </trkpt>
      <trkpt lat="45.20097" lon="5.73403">
        <ele>205.60000610352</ele>
        <time>2021-09-11T03:27:43.000Z</time>
      </trkpt>
      <trkpt lat="45.20096" lon="5.73399">
        <ele>205.80000305176</ele>
        <time>2021-09-11T03:27:44.000Z</time>
      </trkpt>
      <trkpt lat="45.20095" lon="5.73395">
        <ele>205.80000305176</ele>
        <time>2021-09-11T03:27:45.000Z</time>
      </trkpt>
      <trkpt lat="45.20098" lon="5.73388">
        <ele>205.80000305176</ele>
        <time>2021-09-11T03:27:47.000Z</time>
      </trkpt>
      <trkpt lat="45.201" lon="5.73386">
        <ele>205.80000305176</ele>
        <time>2021-09-11T03:27:48.000Z</time>
      </trkpt>
      <trkpt lat="45.20107" lon="5.73382">
        <ele>205.80000305176</ele>
        <time>2021-09-11T03:27:50.000Z</time>
      </trkpt>
      <trkpt lat="45.20113" lon="5.73384">
        <ele>205.80000305176</ele>
        <time>2021-09-11T03:27:52.000Z</time>
      </trkpt>
      <trkpt lat="45.20116" lon="5.73387">
        <ele>206</ele>
        <time>2021-09-11T03:27:53.000Z</time>
      </trkpt>
      <trkpt lat="45.20122" lon="5.73391">
        <ele>206</ele>
        <time>2021-09-11T03:27:55.000Z</time>
      </trkpt>
      <trkpt lat="45.20127" lon="5.73395">
        <ele>206</ele>
        <time>2021-09-11T03:27:57.000Z</time>
      </trkpt>
      <trkpt lat="45.20137" lon="5.734">
        <ele>206.19999694824</ele>
        <time>2021-09-11T03:28:01.000Z</time>
      </trkpt>
      <trkpt lat="45.20149" lon="5.73402">
        <ele>206.60000610352</ele>
        <time>2021-09-11T03:28:06.000Z</time>
      </trkpt>
      <trkpt lat="45.20164" lon="5.73408">
        <ele>206.80000305176</ele>
        <time>2021-09-11T03:28:12.000Z</time>
      </trkpt>
      <trkpt lat="45.20166" lon="5.7341">
        <ele>207</ele>
        <time>2021-09-11T03:28:13.000Z</time>
      </trkpt>
      <trkpt lat="45.20181" lon="5.73411">
        <ele>207.39999389648</ele>
        <time>2021-09-11T03:28:18.000Z</time>
      </trkpt>
      <trkpt lat="45.20183" lon="5.7341">
        <ele>207.60000610352</ele>
        <time>2021-09-11T03:28:19.000Z</time>
      </trkpt>
      <trkpt lat="45.20202" lon="5.73418">
        <ele>207.60000610352</ele>
        <time>2021-09-11T03:28:26.000Z</time>
      </trkpt>
      <trkpt lat="45.20204" lon="5.73421">
        <ele>207.60000610352</ele>
        <time>2021-09-11T03:28:27.000Z</time>
      </trkpt>
      <trkpt lat="45.20209" lon="5.73424">
        <ele>207.80000305176</ele>
        <time>2021-09-11T03:28:29.000Z</time>
      </trkpt>
      <trkpt lat="45.20216" lon="5.73426">
        <ele>207.80000305176</ele>
        <time>2021-09-11T03:28:31.000Z</time>
      </trkpt>
      <trkpt lat="45.20218" lon="5.73431">
        <ele>207.80000305176</ele>
        <time>2021-09-11T03:28:33.000Z</time>
      </trkpt>
      <trkpt lat="45.20219" lon="5.73436">
        <ele>208</ele>
        <time>2021-09-11T03:28:34.000Z</time>
      </trkpt>
      <trkpt lat="45.20223" lon="5.73445">
        <ele>208</ele>
        <time>2021-09-11T03:28:36.000Z</time>
      </trkpt>
      <trkpt lat="45.20225" lon="5.7345">
        <ele>208.19999694824</ele>
        <time>2021-09-11T03:28:37.000Z</time>
      </trkpt>
      <trkpt lat="45.20231" lon="5.73468">
        <ele>208.19999694824</ele>
        <time>2021-09-11T03:28:41.000Z</time>
      </trkpt>
      <trkpt lat="45.20233" lon="5.73472">
        <ele>208.19999694824</ele>
        <time>2021-09-11T03:28:42.000Z</time>
      </trkpt>
      <trkpt lat="45.20243" lon="5.73494">
        <ele>208.39999389648</ele>
        <time>2021-09-11T03:28:48.000Z</time>
      </trkpt>
      <trkpt lat="45.20245" lon="5.73499">
        <ele>208.60000610352</ele>
        <time>2021-09-11T03:28:49.000Z</time>
      </trkpt>
      <trkpt lat="45.20248" lon="5.73507">
        <ele>208.80000305176</ele>
        <time>2021-09-11T03:28:51.000Z</time>
      </trkpt>
      <trkpt lat="45.20253" lon="5.73521">
        <ele>208.80000305176</ele>
        <time>2021-09-11T03:28:55.000Z</time>
      </trkpt>
      <trkpt lat="45.20257" lon="5.73533">
        <ele>209.19999694824</ele>
        <time>2021-09-11T03:28:58.000Z</time>
      </trkpt>
      <trkpt lat="45.2026" lon="5.7354">
        <ele>209.39999389648</ele>
        <time>2021-09-11T03:29:00.000Z</time>
      </trkpt>
      <trkpt lat="45.20267" lon="5.73555">
        <ele>209.60000610352</ele>
        <time>2021-09-11T03:29:04.000Z</time>
      </trkpt>
      <trkpt lat="45.20268" lon="5.73558">
        <ele>209.80000305176</ele>
        <time>2021-09-11T03:29:05.000Z</time>
      </trkpt>
      <trkpt lat="45.20273" lon="5.73563">
        <ele>210.19999694824</ele>
        <time>2021-09-11T03:29:07.000Z</time>
      </trkpt>
      <trkpt lat="45.20277" lon="5.73567">
        <ele>210.60000610352</ele>
        <time>2021-09-11T03:29:09.000Z</time>
      </trkpt>
      <trkpt lat="45.20279" lon="5.7357">
        <ele>210.80000305176</ele>
        <time>2021-09-11T03:29:10.000Z</time>
      </trkpt>
      <trkpt lat="45.20282" lon="5.73576">
        <ele>211</ele>
        <time>2021-09-11T03:29:12.000Z</time>
      </trkpt>
      <trkpt lat="45.20285" lon="5.73583">
        <ele>211.39999389648</ele>
        <time>2021-09-11T03:29:14.000Z</time>
      </trkpt>
      <trkpt lat="45.20287" lon="5.73585">
        <ele>211.60000610352</ele>
        <time>2021-09-11T03:29:15.000Z</time>
      </trkpt>
      <trkpt lat="45.20293" lon="5.73589">
        <ele>212.19999694824</ele>
        <time>2021-09-11T03:29:17.000Z</time>
      </trkpt>
      <trkpt lat="45.20297" lon="5.73588">
        <ele>212.39999389648</ele>
        <time>2021-09-11T03:29:18.000Z</time>
      </trkpt>
      <trkpt lat="45.20304" lon="5.73588">
        <ele>212.60000610352</ele>
        <time>2021-09-11T03:29:20.000Z</time>
      </trkpt>
      <trkpt lat="45.20312" lon="5.73599">
        <ele>213.39999389648</ele>
        <time>2021-09-11T03:29:25.000Z</time>
      </trkpt>
      <trkpt lat="45.20314" lon="5.73601">
        <ele>213.60000610352</ele>
        <time>2021-09-11T03:29:26.000Z</time>
      </trkpt>
      <trkpt lat="45.20318" lon="5.73604">
        <ele>213.80000305176</ele>
        <time>2021-09-11T03:29:28.000Z</time>
      </trkpt>
      <trkpt lat="45.20321" lon="5.73605">
        <ele>214</ele>
        <time>2021-09-11T03:29:29.000Z</time>
      </trkpt>
      <trkpt lat="45.20323" lon="5.73607">
        <ele>214</ele>
        <time>2021-09-11T03:29:30.000Z</time>
      </trkpt>
      <trkpt lat="45.20329" lon="5.73616">
        <ele>214.39999389648</ele>
        <time>2021-09-11T03:29:33.000Z</time>
      </trkpt>
      <trkpt lat="45.20339" lon="5.73636">
        <ele>214.60000610352</ele>
        <time>2021-09-11T03:29:39.000Z</time>
      </trkpt>
      <trkpt lat="45.20345" lon="5.73648">
        <ele>215</ele>
        <time>2021-09-11T03:29:42.000Z</time>
      </trkpt>
      <trkpt lat="45.20347" lon="5.7365">
        <ele>215</ele>
        <time>2021-09-11T03:29:43.000Z</time>
      </trkpt>
      <trkpt lat="45.20349" lon="5.73652">
        <ele>215.19999694824</ele>
        <time>2021-09-11T03:29:44.000Z</time>
      </trkpt>
      <trkpt lat="45.20356" lon="5.73655">
        <ele>215.19999694824</ele>
        <time>2021-09-11T03:29:47.000Z</time>
      </trkpt>
      <trkpt lat="45.20358" lon="5.73657">
        <ele>215.19999694824</ele>
        <time>2021-09-11T03:29:48.000Z</time>
      </trkpt>
      <trkpt lat="45.20364" lon="5.73664">
        <ele>215.39999389648</ele>
        <time>2021-09-11T03:29:51.000Z</time>
      </trkpt>
      <trkpt lat="45.20376" lon="5.73676">
        <ele>216</ele>
        <time>2021-09-11T03:29:57.000Z</time>
      </trkpt>
      <trkpt lat="45.20377" lon="5.73679">
        <ele>216</ele>
        <time>2021-09-11T03:29:58.000Z</time>
      </trkpt>
      <trkpt lat="45.20383" lon="5.73687">
        <ele>216.19999694824</ele>
        <time>2021-09-11T03:30:02.000Z</time>
      </trkpt>
      <trkpt lat="45.20389" lon="5.73699">
        <ele>216.39999389648</ele>
        <time>2021-09-11T03:30:06.000Z</time>
      </trkpt>
      <trkpt lat="45.20402" lon="5.73712">
        <ele>216.80000305176</ele>
        <time>2021-09-11T03:30:12.000Z</time>
      </trkpt>
      <trkpt lat="45.20404" lon="5.73714">
        <ele>217</ele>
        <time>2021-09-11T03:30:13.000Z</time>
      </trkpt>
      <trkpt lat="45.20411" lon="5.73728">
        <ele>217.19999694824</ele>
        <time>2021-09-11T03:30:18.000Z</time>
      </trkpt>
      <trkpt lat="45.20422" lon="5.73739">
        <ele>217.60000610352</ele>
        <time>2021-09-11T03:30:23.000Z</time>
      </trkpt>
      <trkpt lat="45.20424" lon="5.73742">
        <ele>217.60000610352</ele>
        <time>2021-09-11T03:30:24.000Z</time>
      </trkpt>
      <trkpt lat="45.20428" lon="5.73751">
        <ele>218</ele>
        <time>2021-09-11T03:30:27.000Z</time>
      </trkpt>
      <trkpt lat="45.20431" lon="5.73753">
        <ele>218</ele>
        <time>2021-09-11T03:30:28.000Z</time>
      </trkpt>
      <trkpt lat="45.20435" lon="5.73761">
        <ele>218.19999694824</ele>
        <time>2021-09-11T03:30:31.000Z</time>
      </trkpt>
      <trkpt lat="45.20439" lon="5.73767">
        <ele>218.80000305176</ele>
        <time>2021-09-11T03:30:33.000Z</time>
      </trkpt>
      <trkpt lat="45.20442" lon="5.7377">
        <ele>219</ele>
        <time>2021-09-11T03:30:35.000Z</time>
      </trkpt>
      <trkpt lat="45.20444" lon="5.73772">
        <ele>219</ele>
        <time>2021-09-11T03:30:36.000Z</time>
      </trkpt>
      <trkpt lat="45.20447" lon="5.73773">
        <ele>219.19999694824</ele>
        <time>2021-09-11T03:30:37.000Z</time>
      </trkpt>
      <trkpt lat="45.20458" lon="5.73785">
        <ele>219.60000610352</ele>
        <time>2021-09-11T03:30:42.000Z</time>
      </trkpt>
      <trkpt lat="45.20465" lon="5.73791">
        <ele>220.19999694824</ele>
        <time>2021-09-11T03:30:45.000Z</time>
      </trkpt>
      <trkpt lat="45.20468" lon="5.73793">
        <ele>220.39999389648</ele>
        <time>2021-09-11T03:30:46.000Z</time>
      </trkpt>
      <trkpt lat="45.2048" lon="5.73805">
        <ele>221</ele>
        <time>2021-09-11T03:30:51.000Z</time>
      </trkpt>
      <trkpt lat="45.20482" lon="5.73808">
        <ele>221.19999694824</ele>
        <time>2021-09-11T03:30:52.000Z</time>
      </trkpt>
      <trkpt lat="45.20488" lon="5.73816">
        <ele>221.80000305176</ele>
        <time>2021-09-11T03:30:56.000Z</time>
      </trkpt>
      <trkpt lat="45.20493" lon="5.73818">
        <ele>222.39999389648</ele>
        <time>2021-09-11T03:30:59.000Z</time>
      </trkpt>
      <trkpt lat="45.20497" lon="5.73824">
        <ele>223</ele>
        <time>2021-09-11T03:31:02.000Z</time>
      </trkpt>
      <trkpt lat="45.205" lon="5.73826">
        <ele>223</ele>
        <time>2021-09-11T03:31:03.000Z</time>
      </trkpt>
      <trkpt lat="45.20506" lon="5.73828">
        <ele>223.39999389648</ele>
        <time>2021-09-11T03:31:05.000Z</time>
      </trkpt>
      <trkpt lat="45.20508" lon="5.73831">
        <ele>223.39999389648</ele>
        <time>2021-09-11T03:31:06.000Z</time>
      </trkpt>
      <trkpt lat="45.20511" lon="5.73833">
        <ele>223.60000610352</ele>
        <time>2021-09-11T03:31:07.000Z</time>
      </trkpt>
      <trkpt lat="45.20514" lon="5.73835">
        <ele>224</ele>
        <time>2021-09-11T03:31:08.000Z</time>
      </trkpt>
      <trkpt lat="45.20521" lon="5.73838">
        <ele>224.60000610352</ele>
        <time>2021-09-11T03:31:11.000Z</time>
      </trkpt>
      <trkpt lat="45.20528" lon="5.73836">
        <ele>225.19999694824</ele>
        <time>2021-09-11T03:31:14.000Z</time>
      </trkpt>
      <trkpt lat="45.2053" lon="5.73836">
        <ele>225.60000610352</ele>
        <time>2021-09-11T03:31:15.000Z</time>
      </trkpt>
      <trkpt lat="45.20532" lon="5.73838">
        <ele>225.80000305176</ele>
        <time>2021-09-11T03:31:16.000Z</time>
      </trkpt>
      <trkpt lat="45.20535" lon="5.73842">
        <ele>226.19999694824</ele>
        <time>2021-09-11T03:31:18.000Z</time>
      </trkpt>
      <trkpt lat="45.20539" lon="5.73852">
        <ele>227.19999694824</ele>
        <time>2021-09-11T03:31:21.000Z</time>
      </trkpt>
      <trkpt lat="45.20541" lon="5.73859">
        <ele>228</ele>
        <time>2021-09-11T03:31:23.000Z</time>
      </trkpt>
      <trkpt lat="45.20542" lon="5.73862">
        <ele>228.39999389648</ele>
        <time>2021-09-11T03:31:24.000Z</time>
      </trkpt>
      <trkpt lat="45.20547" lon="5.73871">
        <ele>229.80000305176</ele>
        <time>2021-09-11T03:31:28.000Z</time>
      </trkpt>
      <trkpt lat="45.20548" lon="5.73871">
        <ele>230.19999694824</ele>
        <time>2021-09-11T03:31:29.000Z</time>
      </trkpt>
      <trkpt lat="45.20549" lon="5.73871">
        <ele>230.39999389648</ele>
        <time>2021-09-11T03:31:30.000Z</time>
      </trkpt>
      <trkpt lat="45.20551" lon="5.73871">
        <ele>230.80000305176</ele>
        <time>2021-09-11T03:31:31.000Z</time>
      </trkpt>
      <trkpt lat="45.20557" lon="5.73869">
        <ele>231.80000305176</ele>
        <time>2021-09-11T03:31:34.000Z</time>
      </trkpt>
      <trkpt lat="45.2056" lon="5.73868">
        <ele>232.80000305176</ele>
        <time>2021-09-11T03:31:36.000Z</time>
      </trkpt>
      <trkpt lat="45.20562" lon="5.73866">
        <ele>233</ele>
        <time>2021-09-11T03:31:37.000Z</time>
      </trkpt>
      <trkpt lat="45.20567" lon="5.73861">
        <ele>234</ele>
        <time>2021-09-11T03:31:40.000Z</time>
      </trkpt>
      <trkpt lat="45.20572" lon="5.73855">
        <ele>235</ele>
        <time>2021-09-11T03:31:44.000Z</time>
      </trkpt>
      <trkpt lat="45.20573" lon="5.73854">
        <ele>235.19999694824</ele>
        <time>2021-09-11T03:31:45.000Z</time>
      </trkpt>
      <trkpt lat="45.20579" lon="5.73852">
        <ele>236.19999694824</ele>
        <time>2021-09-11T03:31:49.000Z</time>
      </trkpt>
      <trkpt lat="45.20583" lon="5.73851">
        <ele>237</ele>
        <time>2021-09-11T03:31:51.000Z</time>
      </trkpt>
      <trkpt lat="45.20585" lon="5.73848">
        <ele>237.39999389648</ele>
        <time>2021-09-11T03:31:53.000Z</time>
      </trkpt>
      <trkpt lat="45.20586" lon="5.73849">
        <ele>237.60000610352</ele>
        <time>2021-09-11T03:31:54.000Z</time>
      </trkpt>
      <trkpt lat="45.2059" lon="5.73846">
        <ele>238.80000305176</ele>
        <time>2021-09-11T03:31:57.000Z</time>
      </trkpt>
      <trkpt lat="45.20597" lon="5.73844">
        <ele>240</ele>
        <time>2021-09-11T03:32:01.000Z</time>
      </trkpt>
      <trkpt lat="45.20601" lon="5.73841">
        <ele>241</ele>
        <time>2021-09-11T03:32:04.000Z</time>
      </trkpt>
      <trkpt lat="45.20602" lon="5.7384">
        <ele>241.19999694824</ele>
        <time>2021-09-11T03:32:05.000Z</time>
      </trkpt>
      <trkpt lat="45.20607" lon="5.73838">
        <ele>242.39999389648</ele>
        <time>2021-09-11T03:32:08.000Z</time>
      </trkpt>
      <trkpt lat="45.20612" lon="5.73837">
        <ele>243.39999389648</ele>
        <time>2021-09-11T03:32:12.000Z</time>
      </trkpt>
      <trkpt lat="45.20613" lon="5.73836">
        <ele>243.80000305176</ele>
        <time>2021-09-11T03:32:13.000Z</time>
      </trkpt>
      <trkpt lat="45.20619" lon="5.73834">
        <ele>244.39999389648</ele>
        <time>2021-09-11T03:32:16.000Z</time>
      </trkpt>
      <trkpt lat="45.20625" lon="5.73833">
        <ele>245.60000610352</ele>
        <time>2021-09-11T03:32:20.000Z</time>
      </trkpt>
      <trkpt lat="45.20629" lon="5.73831">
        <ele>246.39999389648</ele>
        <time>2021-09-11T03:32:22.000Z</time>
      </trkpt>
      <trkpt lat="45.2063" lon="5.7383">
        <ele>246.60000610352</ele>
        <time>2021-09-11T03:32:23.000Z</time>
      </trkpt>
      <trkpt lat="45.20638" lon="5.73829">
        <ele>248</ele>
        <time>2021-09-11T03:32:27.000Z</time>
      </trkpt>
      <trkpt lat="45.20641" lon="5.73828">
        <ele>248.39999389648</ele>
        <time>2021-09-11T03:32:29.000Z</time>
      </trkpt>
      <trkpt lat="45.20643" lon="5.73827">
        <ele>249</ele>
        <time>2021-09-11T03:32:30.000Z</time>
      </trkpt>
      <trkpt lat="45.20646" lon="5.73827">
        <ele>250</ele>
        <time>2021-09-11T03:32:33.000Z</time>
      </trkpt>
      <trkpt lat="45.20648" lon="5.73826">
        <ele>250.19999694824</ele>
        <time>2021-09-11T03:32:34.000Z</time>
      </trkpt>
      <trkpt lat="45.20649" lon="5.73826">
        <ele>250.80000305176</ele>
        <time>2021-09-11T03:32:35.000Z</time>
      </trkpt>
      <trkpt lat="45.20651" lon="5.73824">
        <ele>251.39999389648</ele>
        <time>2021-09-11T03:32:37.000Z</time>
      </trkpt>
      <trkpt lat="45.20654" lon="5.73824">
        <ele>252.60000610352</ele>
        <time>2021-09-11T03:32:40.000Z</time>
      </trkpt>
      <trkpt lat="45.20655" lon="5.73823">
        <ele>252.80000305176</ele>
        <time>2021-09-11T03:32:41.000Z</time>
      </trkpt>
      <trkpt lat="45.20659" lon="5.73818">
        <ele>253.80000305176</ele>
        <time>2021-09-11T03:32:44.000Z</time>
      </trkpt>
      <trkpt lat="45.20662" lon="5.73817">
        <ele>254.60000610352</ele>
        <time>2021-09-11T03:32:47.000Z</time>
      </trkpt>
      <trkpt lat="45.20663" lon="5.73816">
        <ele>255.19999694824</ele>
        <time>2021-09-11T03:32:48.000Z</time>
      </trkpt>
      <trkpt lat="45.20665" lon="5.73817">
        <ele>255.60000610352</ele>
        <time>2021-09-11T03:32:49.000Z</time>
      </trkpt>
      <trkpt lat="45.20668" lon="5.73819">
        <ele>256.39999389648</ele>
        <time>2021-09-11T03:32:51.000Z</time>
      </trkpt>
      <trkpt lat="45.20672" lon="5.73819">
        <ele>257</ele>
        <time>2021-09-11T03:32:53.000Z</time>
      </trkpt>
      <trkpt lat="45.20674" lon="5.73818">
        <ele>257.39999389648</ele>
        <time>2021-09-11T03:32:54.000Z</time>
      </trkpt>
      <trkpt lat="45.20675" lon="5.73816">
        <ele>257.60000610352</ele>
        <time>2021-09-11T03:32:55.000Z</time>
      </trkpt>
      <trkpt lat="45.20676" lon="5.73814">
        <ele>257.79998779297</ele>
        <time>2021-09-11T03:32:56.000Z</time>
      </trkpt>
      <trkpt lat="45.20679" lon="5.73811">
        <ele>258.60000610352</ele>
        <time>2021-09-11T03:33:00.000Z</time>
      </trkpt>
      <trkpt lat="45.2068" lon="5.73811">
        <ele>258.79998779297</ele>
        <time>2021-09-11T03:33:01.000Z</time>
      </trkpt>
      <trkpt lat="45.20682" lon="5.7381">
        <ele>259.60000610352</ele>
        <time>2021-09-11T03:33:03.000Z</time>
      </trkpt>
      <trkpt lat="45.20684" lon="5.73808">
        <ele>260</ele>
        <time>2021-09-11T03:33:06.000Z</time>
      </trkpt>
      <trkpt lat="45.20685" lon="5.73807">
        <ele>260.60000610352</ele>
        <time>2021-09-11T03:33:07.000Z</time>
      </trkpt>
      <trkpt lat="45.20691" lon="5.73804">
        <ele>261.60000610352</ele>
        <time>2021-09-11T03:33:11.000Z</time>
      </trkpt>
      <trkpt lat="45.20692" lon="5.73803">
        <ele>262</ele>
        <time>2021-09-11T03:33:12.000Z</time>
      </trkpt>
      <trkpt lat="45.20697" lon="5.738">
        <ele>263.20001220703</ele>
        <time>2021-09-11T03:33:16.000Z</time>
      </trkpt>
      <trkpt lat="45.20697" lon="5.73798">
        <ele>263.79998779297</ele>
        <time>2021-09-11T03:33:17.000Z</time>
      </trkpt>
      <trkpt lat="45.20698" lon="5.73796">
        <ele>264.20001220703</ele>
        <time>2021-09-11T03:33:19.000Z</time>
      </trkpt>
      <trkpt lat="45.20701" lon="5.73796">
        <ele>265</ele>
        <time>2021-09-11T03:33:22.000Z</time>
      </trkpt>
      <trkpt lat="45.20702" lon="5.73795">
        <ele>265.39999389648</ele>
        <time>2021-09-11T03:33:23.000Z</time>
      </trkpt>
      <trkpt lat="45.20704" lon="5.73794">
        <ele>265.79998779297</ele>
        <time>2021-09-11T03:33:25.000Z</time>
      </trkpt>
      <trkpt lat="45.20707" lon="5.7379">
        <ele>266.60000610352</ele>
        <time>2021-09-11T03:33:27.000Z</time>
      </trkpt>
      <trkpt lat="45.20709" lon="5.73787">
        <ele>267</ele>
        <time>2021-09-11T03:33:29.000Z</time>
      </trkpt>
      <trkpt lat="45.2071" lon="5.73784">
        <ele>267.79998779297</ele>
        <time>2021-09-11T03:33:31.000Z</time>
      </trkpt>
      <trkpt lat="45.20712" lon="5.73783">
        <ele>268.39999389648</ele>
        <time>2021-09-11T03:33:33.000Z</time>
      </trkpt>
      <trkpt lat="45.20714" lon="5.73782">
        <ele>269</ele>
        <time>2021-09-11T03:33:35.000Z</time>
      </trkpt>
      <trkpt lat="45.20718" lon="5.73778">
        <ele>270</ele>
        <time>2021-09-11T03:33:38.000Z</time>
      </trkpt>
      <trkpt lat="45.2072" lon="5.73775">
        <ele>271.39999389648</ele>
        <time>2021-09-11T03:33:41.000Z</time>
      </trkpt>
      <trkpt lat="45.20723" lon="5.73773">
        <ele>272.39999389648</ele>
        <time>2021-09-11T03:33:45.000Z</time>
      </trkpt>
      <trkpt lat="45.20726" lon="5.73768">
        <ele>273.39999389648</ele>
        <time>2021-09-11T03:33:48.000Z</time>
      </trkpt>
      <trkpt lat="45.20726" lon="5.73768">
        <ele>273.79998779297</ele>
        <time>2021-09-11T03:33:49.000Z</time>
      </trkpt>
      <trkpt lat="45.20726" lon="5.73767">
        <ele>274.20001220703</ele>
        <time>2021-09-11T03:33:50.000Z</time>
      </trkpt>
      <trkpt lat="45.20727" lon="5.73765">
        <ele>274.79998779297</ele>
        <time>2021-09-11T03:33:52.000Z</time>
      </trkpt>
      <trkpt lat="45.20729" lon="5.73763">
        <ele>275.20001220703</ele>
        <time>2021-09-11T03:33:54.000Z</time>
      </trkpt>
      <trkpt lat="45.2073" lon="5.73762">
        <ele>276</ele>
        <time>2021-09-11T03:33:55.000Z</time>
      </trkpt>
      <trkpt lat="45.20732" lon="5.73759">
        <ele>277</ele>
        <time>2021-09-11T03:33:58.000Z</time>
      </trkpt>
      <trkpt lat="45.20734" lon="5.73754">
        <ele>278.20001220703</ele>
        <time>2021-09-11T03:34:02.000Z</time>
      </trkpt>
      <trkpt lat="45.20739" lon="5.73751">
        <ele>279.60000610352</ele>
        <time>2021-09-11T03:34:06.000Z</time>
      </trkpt>
      <trkpt lat="45.20742" lon="5.73748">
        <ele>280.39999389648</ele>
        <time>2021-09-11T03:34:08.000Z</time>
      </trkpt>
      <trkpt lat="45.20743" lon="5.73746">
        <ele>280.79998779297</ele>
        <time>2021-09-11T03:34:09.000Z</time>
      </trkpt>
      <trkpt lat="45.20745" lon="5.73744">
        <ele>281.79998779297</ele>
        <time>2021-09-11T03:34:12.000Z</time>
      </trkpt>
      <trkpt lat="45.20746" lon="5.73744">
        <ele>282.20001220703</ele>
        <time>2021-09-11T03:34:13.000Z</time>
      </trkpt>
      <trkpt lat="45.20748" lon="5.73744">
        <ele>282.79998779297</ele>
        <time>2021-09-11T03:34:15.000Z</time>
      </trkpt>
      <trkpt lat="45.20749" lon="5.73743">
        <ele>283.20001220703</ele>
        <time>2021-09-11T03:34:16.000Z</time>
      </trkpt>
      <trkpt lat="45.20753" lon="5.73741">
        <ele>284</ele>
        <time>2021-09-11T03:34:18.000Z</time>
      </trkpt>
      <trkpt lat="45.20754" lon="5.73741">
        <ele>284.39999389648</ele>
        <time>2021-09-11T03:34:19.000Z</time>
      </trkpt>
      <trkpt lat="45.20757" lon="5.73738">
        <ele>285.79998779297</ele>
        <time>2021-09-11T03:34:23.000Z</time>
      </trkpt>
      <trkpt lat="45.20759" lon="5.73733">
        <ele>287</ele>
        <time>2021-09-11T03:34:26.000Z</time>
      </trkpt>
      <trkpt lat="45.20761" lon="5.73731">
        <ele>287.39999389648</ele>
        <time>2021-09-11T03:34:28.000Z</time>
      </trkpt>
      <trkpt lat="45.20761" lon="5.73731">
        <ele>287.79998779297</ele>
        <time>2021-09-11T03:34:29.000Z</time>
      </trkpt>
      <trkpt lat="45.20762" lon="5.7373">
        <ele>288</ele>
        <time>2021-09-11T03:34:30.000Z</time>
      </trkpt>
      <trkpt lat="45.20762" lon="5.7373">
        <ele>288.39999389648</ele>
        <time>2021-09-11T03:34:31.000Z</time>
      </trkpt>
      <trkpt lat="45.20764" lon="5.73729">
        <ele>289.20001220703</ele>
        <time>2021-09-11T03:34:33.000Z</time>
      </trkpt>
      <trkpt lat="45.20767" lon="5.73727">
        <ele>290</ele>
        <time>2021-09-11T03:34:35.000Z</time>
      </trkpt>
      <trkpt lat="45.20768" lon="5.73727">
        <ele>290.20001220703</ele>
        <time>2021-09-11T03:34:36.000Z</time>
      </trkpt>
      <trkpt lat="45.2077" lon="5.73727">
        <ele>290.79998779297</ele>
        <time>2021-09-11T03:34:38.000Z</time>
      </trkpt>
      <trkpt lat="45.20772" lon="5.73728">
        <ele>291.20001220703</ele>
        <time>2021-09-11T03:34:39.000Z</time>
      </trkpt>
      <trkpt lat="45.20774" lon="5.73728">
        <ele>291.39999389648</ele>
        <time>2021-09-11T03:34:41.000Z</time>
      </trkpt>
      <trkpt lat="45.20777" lon="5.73725">
        <ele>292.20001220703</ele>
        <time>2021-09-11T03:34:44.000Z</time>
      </trkpt>
      <trkpt lat="45.20778" lon="5.73724">
        <ele>292.39999389648</ele>
        <time>2021-09-11T03:34:45.000Z</time>
      </trkpt>
      <trkpt lat="45.20778" lon="5.73723">
        <ele>292.79998779297</ele>
        <time>2021-09-11T03:34:46.000Z</time>
      </trkpt>
      <trkpt lat="45.2078" lon="5.73722">
        <ele>293</ele>
        <time>2021-09-11T03:34:48.000Z</time>
      </trkpt>
      <trkpt lat="45.20781" lon="5.73722">
        <ele>293.39999389648</ele>
        <time>2021-09-11T03:34:49.000Z</time>
      </trkpt>
      <trkpt lat="45.20785" lon="5.7372">
        <ele>294.39999389648</ele>
        <time>2021-09-11T03:34:52.000Z</time>
      </trkpt>
      <trkpt lat="45.20786" lon="5.73718">
        <ele>294.60000610352</ele>
        <time>2021-09-11T03:34:53.000Z</time>
      </trkpt>
      <trkpt lat="45.20788" lon="5.73717">
        <ele>294.79998779297</ele>
        <time>2021-09-11T03:34:54.000Z</time>
      </trkpt>
      <trkpt lat="45.2079" lon="5.73717">
        <ele>295.20001220703</ele>
        <time>2021-09-11T03:34:55.000Z</time>
      </trkpt>
      <trkpt lat="45.20792" lon="5.73717">
        <ele>295.60000610352</ele>
        <time>2021-09-11T03:34:56.000Z</time>
      </trkpt>
      <trkpt lat="45.20797" lon="5.73716">
        <ele>296.39999389648</ele>
        <time>2021-09-11T03:34:59.000Z</time>
      </trkpt>
      <trkpt lat="45.20799" lon="5.73715">
        <ele>296.60000610352</ele>
        <time>2021-09-11T03:35:00.000Z</time>
      </trkpt>
      <trkpt lat="45.20799" lon="5.73715">
        <ele>297</ele>
        <time>2021-09-11T03:35:01.000Z</time>
      </trkpt>
      <trkpt lat="45.208" lon="5.73716">
        <ele>297.39999389648</ele>
        <time>2021-09-11T03:35:03.000Z</time>
      </trkpt>
      <trkpt lat="45.208" lon="5.73716">
        <ele>297.79998779297</ele>
        <time>2021-09-11T03:35:04.000Z</time>
      </trkpt>
      <trkpt lat="45.20802" lon="5.73715">
        <ele>299</ele>
        <time>2021-09-11T03:35:07.000Z</time>
      </trkpt>
      <trkpt lat="45.20803" lon="5.73715">
        <ele>299.20001220703</ele>
        <time>2021-09-11T03:35:08.000Z</time>
      </trkpt>
      <trkpt lat="45.20804" lon="5.73714">
        <ele>299.79998779297</ele>
        <time>2021-09-11T03:35:10.000Z</time>
      </trkpt>
      <trkpt lat="45.20806" lon="5.73716">
        <ele>300.20001220703</ele>
        <time>2021-09-11T03:35:12.000Z</time>
      </trkpt>
      <trkpt lat="45.20807" lon="5.73719">
        <ele>300.79998779297</ele>
        <time>2021-09-11T03:35:14.000Z</time>
      </trkpt>
      <trkpt lat="45.20808" lon="5.73724">
        <ele>301.20001220703</ele>
        <time>2021-09-11T03:35:16.000Z</time>
      </trkpt>
      <trkpt lat="45.2081" lon="5.73731">
        <ele>301.60000610352</ele>
        <time>2021-09-11T03:35:19.000Z</time>
      </trkpt>
      <trkpt lat="45.20811" lon="5.73733">
        <ele>301.79998779297</ele>
        <time>2021-09-11T03:35:20.000Z</time>
      </trkpt>
      <trkpt lat="45.20813" lon="5.73737">
        <ele>302.20001220703</ele>
        <time>2021-09-11T03:35:22.000Z</time>
      </trkpt>
      <trkpt lat="45.20815" lon="5.73736">
        <ele>302.39999389648</ele>
        <time>2021-09-11T03:35:23.000Z</time>
      </trkpt>
      <trkpt lat="45.20821" lon="5.73736">
        <ele>303.39999389648</ele>
        <time>2021-09-11T03:35:27.000Z</time>
      </trkpt>
      <trkpt lat="45.20822" lon="5.73737">
        <ele>303.60000610352</ele>
        <time>2021-09-11T03:35:28.000Z</time>
      </trkpt>
      <trkpt lat="45.20823" lon="5.73737">
        <ele>304.20001220703</ele>
        <time>2021-09-11T03:35:29.000Z</time>
      </trkpt>
      <trkpt lat="45.20824" lon="5.73736">
        <ele>304.60000610352</ele>
        <time>2021-09-11T03:35:30.000Z</time>
      </trkpt>
      <trkpt lat="45.20828" lon="5.73734">
        <ele>305</ele>
        <time>2021-09-11T03:35:32.000Z</time>
      </trkpt>
      <trkpt lat="45.20831" lon="5.73732">
        <ele>305.60000610352</ele>
        <time>2021-09-11T03:35:34.000Z</time>
      </trkpt>
      <trkpt lat="45.20834" lon="5.73729">
        <ele>306.39999389648</ele>
        <time>2021-09-11T03:35:36.000Z</time>
      </trkpt>
      <trkpt lat="45.20835" lon="5.73728">
        <ele>306.60000610352</ele>
        <time>2021-09-11T03:35:37.000Z</time>
      </trkpt>
      <trkpt lat="45.20836" lon="5.73725">
        <ele>307.20001220703</ele>
        <time>2021-09-11T03:35:39.000Z</time>
      </trkpt>
      <trkpt lat="45.20837" lon="5.73724">
        <ele>307.60000610352</ele>
        <time>2021-09-11T03:35:40.000Z</time>
      </trkpt>
      <trkpt lat="45.2084" lon="5.73721">
        <ele>308.79998779297</ele>
        <time>2021-09-11T03:35:44.000Z</time>
      </trkpt>
      <trkpt lat="45.20841" lon="5.73722">
        <ele>309.39999389648</ele>
        <time>2021-09-11T03:35:45.000Z</time>
      </trkpt>
      <trkpt lat="45.20843" lon="5.73727">
        <ele>309.79998779297</ele>
        <time>2021-09-11T03:35:47.000Z</time>
      </trkpt>
      <trkpt lat="45.20843" lon="5.73728">
        <ele>310</ele>
        <time>2021-09-11T03:35:48.000Z</time>
      </trkpt>
      <trkpt lat="45.20848" lon="5.73727">
        <ele>311</ele>
        <time>2021-09-11T03:35:51.000Z</time>
      </trkpt>
      <trkpt lat="45.20848" lon="5.73725">
        <ele>311.60000610352</ele>
        <time>2021-09-11T03:35:53.000Z</time>
      </trkpt>
      <trkpt lat="45.20847" lon="5.73722">
        <ele>312.20001220703</ele>
        <time>2021-09-11T03:35:55.000Z</time>
      </trkpt>
      <trkpt lat="45.20846" lon="5.73721">
        <ele>312.60000610352</ele>
        <time>2021-09-11T03:35:56.000Z</time>
      </trkpt>
      <trkpt lat="45.20846" lon="5.7372">
        <ele>313</ele>
        <time>2021-09-11T03:35:57.000Z</time>
      </trkpt>
      <trkpt lat="45.20847" lon="5.73718">
        <ele>313.39999389648</ele>
        <time>2021-09-11T03:35:59.000Z</time>
      </trkpt>
      <trkpt lat="45.20848" lon="5.73716">
        <ele>314</ele>
        <time>2021-09-11T03:36:01.000Z</time>
      </trkpt>
      <trkpt lat="45.20849" lon="5.73716">
        <ele>314</ele>
        <time>2021-09-11T03:36:02.000Z</time>
      </trkpt>
      <trkpt lat="45.20853" lon="5.73715">
        <ele>314.39999389648</ele>
        <time>2021-09-11T03:36:04.000Z</time>
      </trkpt>
      <trkpt lat="45.20856" lon="5.73715">
        <ele>315</ele>
        <time>2021-09-11T03:36:06.000Z</time>
      </trkpt>
      <trkpt lat="45.20857" lon="5.73716">
        <ele>315</ele>
        <time>2021-09-11T03:36:07.000Z</time>
      </trkpt>
      <trkpt lat="45.2086" lon="5.73718">
        <ele>315.79998779297</ele>
        <time>2021-09-11T03:36:09.000Z</time>
      </trkpt>
      <trkpt lat="45.20862" lon="5.7372">
        <ele>316.39999389648</ele>
        <time>2021-09-11T03:36:11.000Z</time>
      </trkpt>
      <trkpt lat="45.20865" lon="5.73721">
        <ele>317</ele>
        <time>2021-09-11T03:36:14.000Z</time>
      </trkpt>
      <trkpt lat="45.20866" lon="5.73722">
        <ele>317.39999389648</ele>
        <time>2021-09-11T03:36:15.000Z</time>
      </trkpt>
      <trkpt lat="45.20867" lon="5.73725">
        <ele>318</ele>
        <time>2021-09-11T03:36:17.000Z</time>
      </trkpt>
      <trkpt lat="45.20872" lon="5.73727">
        <ele>319.39999389648</ele>
        <time>2021-09-11T03:36:21.000Z</time>
      </trkpt>
      <trkpt lat="45.20874" lon="5.73729">
        <ele>320</ele>
        <time>2021-09-11T03:36:24.000Z</time>
      </trkpt>
      <trkpt lat="45.20877" lon="5.73727">
        <ele>320.60000610352</ele>
        <time>2021-09-11T03:36:26.000Z</time>
      </trkpt>
      <trkpt lat="45.20878" lon="5.73727">
        <ele>321.20001220703</ele>
        <time>2021-09-11T03:36:28.000Z</time>
      </trkpt>
      <trkpt lat="45.20879" lon="5.73726">
        <ele>321.39999389648</ele>
        <time>2021-09-11T03:36:29.000Z</time>
      </trkpt>
      <trkpt lat="45.20879" lon="5.73722">
        <ele>322</ele>
        <time>2021-09-11T03:36:31.000Z</time>
      </trkpt>
      <trkpt lat="45.20884" lon="5.73719">
        <ele>323</ele>
        <time>2021-09-11T03:36:35.000Z</time>
      </trkpt>
      <trkpt lat="45.20886" lon="5.73719">
        <ele>323.20001220703</ele>
        <time>2021-09-11T03:36:36.000Z</time>
      </trkpt>
      <trkpt lat="45.20888" lon="5.73718">
        <ele>324.39999389648</ele>
        <time>2021-09-11T03:36:39.000Z</time>
      </trkpt>
      <trkpt lat="45.20892" lon="5.73715">
        <ele>325.39999389648</ele>
        <time>2021-09-11T03:36:43.000Z</time>
      </trkpt>
      <trkpt lat="45.20893" lon="5.73713">
        <ele>326</ele>
        <time>2021-09-11T03:36:45.000Z</time>
      </trkpt>
      <trkpt lat="45.20894" lon="5.73712">
        <ele>326.60000610352</ele>
        <time>2021-09-11T03:36:46.000Z</time>
      </trkpt>
      <trkpt lat="45.20896" lon="5.73707">
        <ele>327.79998779297</ele>
        <time>2021-09-11T03:36:51.000Z</time>
      </trkpt>
      <trkpt lat="45.20898" lon="5.73706">
        <ele>328.39999389648</ele>
        <time>2021-09-11T03:36:52.000Z</time>
      </trkpt>
      <trkpt lat="45.209" lon="5.73704">
        <ele>329</ele>
        <time>2021-09-11T03:36:54.000Z</time>
      </trkpt>
      <trkpt lat="45.20904" lon="5.73702">
        <ele>330.60000610352</ele>
        <time>2021-09-11T03:36:59.000Z</time>
      </trkpt>
      <trkpt lat="45.20907" lon="5.73702">
        <ele>331.60000610352</ele>
        <time>2021-09-11T03:37:02.000Z</time>
      </trkpt>
      <trkpt lat="45.20911" lon="5.73702">
        <ele>332.79998779297</ele>
        <time>2021-09-11T03:37:06.000Z</time>
      </trkpt>
      <trkpt lat="45.20912" lon="5.73701">
        <ele>333.60000610352</ele>
        <time>2021-09-11T03:37:08.000Z</time>
      </trkpt>
      <trkpt lat="45.20913" lon="5.737">
        <ele>334</ele>
        <time>2021-09-11T03:37:09.000Z</time>
      </trkpt>
      <trkpt lat="45.20915" lon="5.73699">
        <ele>334.60000610352</ele>
        <time>2021-09-11T03:37:12.000Z</time>
      </trkpt>
      <trkpt lat="45.20916" lon="5.73699">
        <ele>335.39999389648</ele>
        <time>2021-09-11T03:37:13.000Z</time>
      </trkpt>
      <trkpt lat="45.20918" lon="5.737">
        <ele>335.79998779297</ele>
        <time>2021-09-11T03:37:14.000Z</time>
      </trkpt>
      <trkpt lat="45.20921" lon="5.73701">
        <ele>336.20001220703</ele>
        <time>2021-09-11T03:37:17.000Z</time>
      </trkpt>
      <trkpt lat="45.20922" lon="5.73701">
        <ele>336.39999389648</ele>
        <time>2021-09-11T03:37:18.000Z</time>
      </trkpt>
      <trkpt lat="45.20923" lon="5.73701">
        <ele>337</ele>
        <time>2021-09-11T03:37:19.000Z</time>
      </trkpt>
      <trkpt lat="45.20925" lon="5.737">
        <ele>337.79998779297</ele>
        <time>2021-09-11T03:37:21.000Z</time>
      </trkpt>
      <trkpt lat="45.20927" lon="5.737">
        <ele>338.20001220703</ele>
        <time>2021-09-11T03:37:24.000Z</time>
      </trkpt>
      <trkpt lat="45.20928" lon="5.737">
        <ele>339.20001220703</ele>
        <time>2021-09-11T03:37:26.000Z</time>
      </trkpt>
      <trkpt lat="45.20929" lon="5.737">
        <ele>339.60000610352</ele>
        <time>2021-09-11T03:37:27.000Z</time>
      </trkpt>
      <trkpt lat="45.20931" lon="5.73699">
        <ele>339.79998779297</ele>
        <time>2021-09-11T03:37:28.000Z</time>
      </trkpt>
      <trkpt lat="45.20932" lon="5.73698">
        <ele>340.20001220703</ele>
        <time>2021-09-11T03:37:29.000Z</time>
      </trkpt>
      <trkpt lat="45.20934" lon="5.73698">
        <ele>340.39999389648</ele>
        <time>2021-09-11T03:37:30.000Z</time>
      </trkpt>
      <trkpt lat="45.20935" lon="5.73698">
        <ele>340.60000610352</ele>
        <time>2021-09-11T03:37:31.000Z</time>
      </trkpt>
      <trkpt lat="45.20937" lon="5.73696">
        <ele>341.39999389648</ele>
        <time>2021-09-11T03:37:33.000Z</time>
      </trkpt>
      <trkpt lat="45.20938" lon="5.73695">
        <ele>341.79998779297</ele>
        <time>2021-09-11T03:37:34.000Z</time>
      </trkpt>
      <trkpt lat="45.20939" lon="5.73695">
        <ele>342</ele>
        <time>2021-09-11T03:37:35.000Z</time>
      </trkpt>
      <trkpt lat="45.20941" lon="5.73696">
        <ele>342.60000610352</ele>
        <time>2021-09-11T03:37:37.000Z</time>
      </trkpt>
      <trkpt lat="45.20942" lon="5.73697">
        <ele>342.79998779297</ele>
        <time>2021-09-11T03:37:38.000Z</time>
      </trkpt>
      <trkpt lat="45.20944" lon="5.73696">
        <ele>343.60000610352</ele>
        <time>2021-09-11T03:37:40.000Z</time>
      </trkpt>
      <trkpt lat="45.20944" lon="5.73695">
        <ele>343.79998779297</ele>
        <time>2021-09-11T03:37:41.000Z</time>
      </trkpt>
      <trkpt lat="45.20948" lon="5.73693">
        <ele>345</ele>
        <time>2021-09-11T03:37:45.000Z</time>
      </trkpt>
      <trkpt lat="45.20949" lon="5.73693">
        <ele>345.20001220703</ele>
        <time>2021-09-11T03:37:46.000Z</time>
      </trkpt>
      <trkpt lat="45.2095" lon="5.73692">
        <ele>345.79998779297</ele>
        <time>2021-09-11T03:37:48.000Z</time>
      </trkpt>
      <trkpt lat="45.20951" lon="5.73692">
        <ele>346</ele>
        <time>2021-09-11T03:37:49.000Z</time>
      </trkpt>
      <trkpt lat="45.20952" lon="5.73691">
        <ele>346.79998779297</ele>
        <time>2021-09-11T03:37:51.000Z</time>
      </trkpt>
      <trkpt lat="45.20953" lon="5.7369">
        <ele>347.20001220703</ele>
        <time>2021-09-11T03:37:52.000Z</time>
      </trkpt>
      <trkpt lat="45.20954" lon="5.7369">
        <ele>347.39999389648</ele>
        <time>2021-09-11T03:37:53.000Z</time>
      </trkpt>
      <trkpt lat="45.20956" lon="5.73687">
        <ele>348</ele>
        <time>2021-09-11T03:37:57.000Z</time>
      </trkpt>
      <trkpt lat="45.20955" lon="5.73685">
        <ele>348.39999389648</ele>
        <time>2021-09-11T03:37:58.000Z</time>
      </trkpt>
      <trkpt lat="45.20957" lon="5.73685">
        <ele>349.60000610352</ele>
        <time>2021-09-11T03:38:01.000Z</time>
      </trkpt>
      <trkpt lat="45.20957" lon="5.73685">
        <ele>350.39999389648</ele>
        <time>2021-09-11T03:38:02.000Z</time>
      </trkpt>
      <trkpt lat="45.20957" lon="5.73685">
        <ele>350.79998779297</ele>
        <time>2021-09-11T03:38:03.000Z</time>
      </trkpt>
      <trkpt lat="45.20959" lon="5.73683">
        <ele>351.39999389648</ele>
        <time>2021-09-11T03:38:05.000Z</time>
      </trkpt>
      <trkpt lat="45.20961" lon="5.73682">
        <ele>351.79998779297</ele>
        <time>2021-09-11T03:38:07.000Z</time>
      </trkpt>
      <trkpt lat="45.20961" lon="5.73681">
        <ele>352</ele>
        <time>2021-09-11T03:38:08.000Z</time>
      </trkpt>
      <trkpt lat="45.20961" lon="5.7368">
        <ele>352.20001220703</ele>
        <time>2021-09-11T03:38:09.000Z</time>
      </trkpt>
      <trkpt lat="45.20963" lon="5.73678">
        <ele>353.20001220703</ele>
        <time>2021-09-11T03:38:11.000Z</time>
      </trkpt>
      <trkpt lat="45.20964" lon="5.73671">
        <ele>354.20001220703</ele>
        <time>2021-09-11T03:38:16.000Z</time>
      </trkpt>
      <trkpt lat="45.20964" lon="5.7367">
        <ele>354.60000610352</ele>
        <time>2021-09-11T03:38:17.000Z</time>
      </trkpt>
      <trkpt lat="45.20966" lon="5.73667">
        <ele>355.39999389648</ele>
        <time>2021-09-11T03:38:20.000Z</time>
      </trkpt>
      <trkpt lat="45.20966" lon="5.73664">
        <ele>355.79998779297</ele>
        <time>2021-09-11T03:38:22.000Z</time>
      </trkpt>
      <trkpt lat="45.20968" lon="5.73659">
        <ele>356.79998779297</ele>
        <time>2021-09-11T03:38:25.000Z</time>
      </trkpt>
      <trkpt lat="45.20971" lon="5.73654">
        <ele>357.79998779297</ele>
        <time>2021-09-11T03:38:28.000Z</time>
      </trkpt>
      <trkpt lat="45.20973" lon="5.73652">
        <ele>358.60000610352</ele>
        <time>2021-09-11T03:38:31.000Z</time>
      </trkpt>
      <trkpt lat="45.20974" lon="5.7365">
        <ele>359.20001220703</ele>
        <time>2021-09-11T03:38:33.000Z</time>
      </trkpt>
      <trkpt lat="45.20975" lon="5.73649">
        <ele>359.39999389648</ele>
        <time>2021-09-11T03:38:34.000Z</time>
      </trkpt>
      <trkpt lat="45.20976" lon="5.73648">
        <ele>359.79998779297</ele>
        <time>2021-09-11T03:38:35.000Z</time>
      </trkpt>
      <trkpt lat="45.20976" lon="5.73648">
        <ele>360</ele>
        <time>2021-09-11T03:38:36.000Z</time>
      </trkpt>
      <trkpt lat="45.20977" lon="5.73646">
        <ele>360.39999389648</ele>
        <time>2021-09-11T03:38:38.000Z</time>
      </trkpt>
      <trkpt lat="45.20976" lon="5.73644">
        <ele>361</ele>
        <time>2021-09-11T03:38:40.000Z</time>
      </trkpt>
      <trkpt lat="45.20976" lon="5.73642">
        <ele>361.60000610352</ele>
        <time>2021-09-11T03:38:41.000Z</time>
      </trkpt>
      <trkpt lat="45.20976" lon="5.73641">
        <ele>361.79998779297</ele>
        <time>2021-09-11T03:38:42.000Z</time>
      </trkpt>
      <trkpt lat="45.20976" lon="5.73638">
        <ele>362.60000610352</ele>
        <time>2021-09-11T03:38:45.000Z</time>
      </trkpt>
      <trkpt lat="45.20976" lon="5.73635">
        <ele>363.39999389648</ele>
        <time>2021-09-11T03:38:48.000Z</time>
      </trkpt>
      <trkpt lat="45.20977" lon="5.73634">
        <ele>363.79998779297</ele>
        <time>2021-09-11T03:38:49.000Z</time>
      </trkpt>
      <trkpt lat="45.20978" lon="5.7363">
        <ele>365</ele>
        <time>2021-09-11T03:38:52.000Z</time>
      </trkpt>
      <trkpt lat="45.20977" lon="5.73629">
        <ele>365.60000610352</ele>
        <time>2021-09-11T03:38:55.000Z</time>
      </trkpt>
      <trkpt lat="45.20977" lon="5.73626">
        <ele>366.20001220703</ele>
        <time>2021-09-11T03:38:58.000Z</time>
      </trkpt>
      <trkpt lat="45.20978" lon="5.73623">
        <ele>367</ele>
        <time>2021-09-11T03:39:00.000Z</time>
      </trkpt>
      <trkpt lat="45.20978" lon="5.73622">
        <ele>367.20001220703</ele>
        <time>2021-09-11T03:39:01.000Z</time>
      </trkpt>
      <trkpt lat="45.20978" lon="5.7362">
        <ele>368</ele>
        <time>2021-09-11T03:39:04.000Z</time>
      </trkpt>
      <trkpt lat="45.20979" lon="5.73619">
        <ele>368.60000610352</ele>
        <time>2021-09-11T03:39:05.000Z</time>
      </trkpt>
      <trkpt lat="45.20979" lon="5.73615">
        <ele>369.39999389648</ele>
        <time>2021-09-11T03:39:08.000Z</time>
      </trkpt>
      <trkpt lat="45.20978" lon="5.73613">
        <ele>369.60000610352</ele>
        <time>2021-09-11T03:39:09.000Z</time>
      </trkpt>
      <trkpt lat="45.20979" lon="5.73611">
        <ele>369.79998779297</ele>
        <time>2021-09-11T03:39:10.000Z</time>
      </trkpt>
      <trkpt lat="45.20982" lon="5.73604">
        <ele>371</ele>
        <time>2021-09-11T03:39:14.000Z</time>
      </trkpt>
      <trkpt lat="45.20983" lon="5.73599">
        <ele>372.20001220703</ele>
        <time>2021-09-11T03:39:17.000Z</time>
      </trkpt>
      <trkpt lat="45.20984" lon="5.73596">
        <ele>373.60000610352</ele>
        <time>2021-09-11T03:39:21.000Z</time>
      </trkpt>
      <trkpt lat="45.20985" lon="5.73594">
        <ele>374</ele>
        <time>2021-09-11T03:39:22.000Z</time>
      </trkpt>
      <trkpt lat="45.20985" lon="5.73592">
        <ele>374.60000610352</ele>
        <time>2021-09-11T03:39:24.000Z</time>
      </trkpt>
      <trkpt lat="45.20985" lon="5.73593">
        <ele>374.79998779297</ele>
        <time>2021-09-11T03:39:25.000Z</time>
      </trkpt>
      <trkpt lat="45.20985" lon="5.73591">
        <ele>375.79998779297</ele>
        <time>2021-09-11T03:39:28.000Z</time>
      </trkpt>
      <trkpt lat="45.20987" lon="5.73586">
        <ele>376.79998779297</ele>
        <time>2021-09-11T03:39:32.000Z</time>
      </trkpt>
      <trkpt lat="45.20988" lon="5.73582">
        <ele>377.79998779297</ele>
        <time>2021-09-11T03:39:35.000Z</time>
      </trkpt>
      <trkpt lat="45.20988" lon="5.73581">
        <ele>378.20001220703</ele>
        <time>2021-09-11T03:39:36.000Z</time>
      </trkpt>
      <trkpt lat="45.20989" lon="5.73579">
        <ele>379.20001220703</ele>
        <time>2021-09-11T03:39:39.000Z</time>
      </trkpt>
      <trkpt lat="45.2099" lon="5.73574">
        <ele>380.39999389648</ele>
        <time>2021-09-11T03:39:43.000Z</time>
      </trkpt>
      <trkpt lat="45.20991" lon="5.73573">
        <ele>380.79998779297</ele>
        <time>2021-09-11T03:39:45.000Z</time>
      </trkpt>
      <trkpt lat="45.20991" lon="5.73571">
        <ele>381.39999389648</ele>
        <time>2021-09-11T03:39:47.000Z</time>
      </trkpt>
      <trkpt lat="45.20991" lon="5.7357">
        <ele>382</ele>
        <time>2021-09-11T03:39:48.000Z</time>
      </trkpt>
      <trkpt lat="45.20992" lon="5.73568">
        <ele>382.79998779297</ele>
        <time>2021-09-11T03:39:50.000Z</time>
      </trkpt>
      <trkpt lat="45.20994" lon="5.73565">
        <ele>383.39999389648</ele>
        <time>2021-09-11T03:39:53.000Z</time>
      </trkpt>
      <trkpt lat="45.20995" lon="5.73563">
        <ele>383.79998779297</ele>
        <time>2021-09-11T03:39:55.000Z</time>
      </trkpt>
      <trkpt lat="45.20995" lon="5.73561">
        <ele>384.60000610352</ele>
        <time>2021-09-11T03:39:58.000Z</time>
      </trkpt>
      <trkpt lat="45.20996" lon="5.7356">
        <ele>385.39999389648</ele>
        <time>2021-09-11T03:40:00.000Z</time>
      </trkpt>
      <trkpt lat="45.20996" lon="5.73557">
        <ele>386.39999389648</ele>
        <time>2021-09-11T03:40:03.000Z</time>
      </trkpt>
      <trkpt lat="45.20996" lon="5.73556">
        <ele>387</ele>
        <time>2021-09-11T03:40:05.000Z</time>
      </trkpt>
      <trkpt lat="45.20997" lon="5.73552">
        <ele>388</ele>
        <time>2021-09-11T03:40:09.000Z</time>
      </trkpt>
      <trkpt lat="45.20997" lon="5.73551">
        <ele>389</ele>
        <time>2021-09-11T03:40:11.000Z</time>
      </trkpt>
      <trkpt lat="45.20997" lon="5.73551">
        <ele>389.20001220703</ele>
        <time>2021-09-11T03:40:12.000Z</time>
      </trkpt>
      <trkpt lat="45.20997" lon="5.73546">
        <ele>390.60000610352</ele>
        <time>2021-09-11T03:40:17.000Z</time>
      </trkpt>
      <trkpt lat="45.20997" lon="5.73545">
        <ele>391.20001220703</ele>
        <time>2021-09-11T03:40:20.000Z</time>
      </trkpt>
      <trkpt lat="45.20998" lon="5.73543">
        <ele>391.79998779297</ele>
        <time>2021-09-11T03:40:22.000Z</time>
      </trkpt>
      <trkpt lat="45.21" lon="5.73537">
        <ele>393</ele>
        <time>2021-09-11T03:40:26.000Z</time>
      </trkpt>
      <trkpt lat="45.21001" lon="5.73533">
        <ele>394.20001220703</ele>
        <time>2021-09-11T03:40:29.000Z</time>
      </trkpt>
      <trkpt lat="45.21003" lon="5.73529">
        <ele>395.39999389648</ele>
        <time>2021-09-11T03:40:33.000Z</time>
      </trkpt>
      <trkpt lat="45.21003" lon="5.73528">
        <ele>396.39999389648</ele>
        <time>2021-09-11T03:40:36.000Z</time>
      </trkpt>
      <trkpt lat="45.21004" lon="5.73525">
        <ele>397.20001220703</ele>
        <time>2021-09-11T03:40:38.000Z</time>
      </trkpt>
      <trkpt lat="45.21004" lon="5.73525">
        <ele>397.60000610352</ele>
        <time>2021-09-11T03:40:39.000Z</time>
      </trkpt>
      <trkpt lat="45.21004" lon="5.73519">
        <ele>398.79998779297</ele>
        <time>2021-09-11T03:40:44.000Z</time>
      </trkpt>
      <trkpt lat="45.21006" lon="5.73516">
        <ele>400</ele>
        <time>2021-09-11T03:40:46.000Z</time>
      </trkpt>
      <trkpt lat="45.21007" lon="5.73512">
        <ele>400.60000610352</ele>
        <time>2021-09-11T03:40:48.000Z</time>
      </trkpt>
      <trkpt lat="45.21007" lon="5.73511">
        <ele>401</ele>
        <time>2021-09-11T03:40:49.000Z</time>
      </trkpt>
      <trkpt lat="45.21009" lon="5.73507">
        <ele>402.20001220703</ele>
        <time>2021-09-11T03:40:53.000Z</time>
      </trkpt>
      <trkpt lat="45.21009" lon="5.73505">
        <ele>403.39999389648</ele>
        <time>2021-09-11T03:40:55.000Z</time>
      </trkpt>
      <trkpt lat="45.2101" lon="5.73502">
        <ele>404.39999389648</ele>
        <time>2021-09-11T03:40:59.000Z</time>
      </trkpt>
      <trkpt lat="45.2101" lon="5.73501">
        <ele>404.60000610352</ele>
        <time>2021-09-11T03:41:00.000Z</time>
      </trkpt>
      <trkpt lat="45.21009" lon="5.735">
        <ele>405.79998779297</ele>
        <time>2021-09-11T03:41:03.000Z</time>
      </trkpt>
      <trkpt lat="45.2101" lon="5.73497">
        <ele>406.79998779297</ele>
        <time>2021-09-11T03:41:06.000Z</time>
      </trkpt>
      <trkpt lat="45.21011" lon="5.73496">
        <ele>407</ele>
        <time>2021-09-11T03:41:07.000Z</time>
      </trkpt>
      <trkpt lat="45.21013" lon="5.73491">
        <ele>408.20001220703</ele>
        <time>2021-09-11T03:41:10.000Z</time>
      </trkpt>
      <trkpt lat="45.21012" lon="5.73488">
        <ele>409</ele>
        <time>2021-09-11T03:41:13.000Z</time>
      </trkpt>
      <trkpt lat="45.21012" lon="5.73486">
        <ele>409.20001220703</ele>
        <time>2021-09-11T03:41:14.000Z</time>
      </trkpt>
      <trkpt lat="45.21013" lon="5.73483">
        <ele>410.60000610352</ele>
        <time>2021-09-11T03:41:18.000Z</time>
      </trkpt>
      <trkpt lat="45.21014" lon="5.73481">
        <ele>411.20001220703</ele>
        <time>2021-09-11T03:41:20.000Z</time>
      </trkpt>
      <trkpt lat="45.21014" lon="5.7348">
        <ele>411.79998779297</ele>
        <time>2021-09-11T03:41:22.000Z</time>
      </trkpt>
      <trkpt lat="45.21014" lon="5.73477">
        <ele>412.39999389648</ele>
        <time>2021-09-11T03:41:25.000Z</time>
      </trkpt>
      <trkpt lat="45.21015" lon="5.73476">
        <ele>413</ele>
        <time>2021-09-11T03:41:26.000Z</time>
      </trkpt>
      <trkpt lat="45.21014" lon="5.73475">
        <ele>413.60000610352</ele>
        <time>2021-09-11T03:41:28.000Z</time>
      </trkpt>
      <trkpt lat="45.21015" lon="5.73474">
        <ele>414.20001220703</ele>
        <time>2021-09-11T03:41:30.000Z</time>
      </trkpt>
      <trkpt lat="45.21014" lon="5.73474">
        <ele>414.79998779297</ele>
        <time>2021-09-11T03:41:32.000Z</time>
      </trkpt>
      <trkpt lat="45.21013" lon="5.73472">
        <ele>415.60000610352</ele>
        <time>2021-09-11T03:41:34.000Z</time>
      </trkpt>
      <trkpt lat="45.21012" lon="5.73471">
        <ele>416.20001220703</ele>
        <time>2021-09-11T03:41:36.000Z</time>
      </trkpt>
      <trkpt lat="45.21012" lon="5.73471">
        <ele>416.60000610352</ele>
        <time>2021-09-11T03:41:37.000Z</time>
      </trkpt>
      <trkpt lat="45.21011" lon="5.73471">
        <ele>417</ele>
        <time>2021-09-11T03:41:38.000Z</time>
      </trkpt>
      <trkpt lat="45.21011" lon="5.73469">
        <ele>417.79998779297</ele>
        <time>2021-09-11T03:41:41.000Z</time>
      </trkpt>
      <trkpt lat="45.21011" lon="5.73468">
        <ele>418</ele>
        <time>2021-09-11T03:41:42.000Z</time>
      </trkpt>
      <trkpt lat="45.21011" lon="5.73467">
        <ele>418.39999389648</ele>
        <time>2021-09-11T03:41:44.000Z</time>
      </trkpt>
      <trkpt lat="45.2101" lon="5.73467">
        <ele>419</ele>
        <time>2021-09-11T03:41:45.000Z</time>
      </trkpt>
      <trkpt lat="45.2101" lon="5.73466">
        <ele>419.39999389648</ele>
        <time>2021-09-11T03:41:46.000Z</time>
      </trkpt>
      <trkpt lat="45.2101" lon="5.73466">
        <ele>419.79998779297</ele>
        <time>2021-09-11T03:41:47.000Z</time>
      </trkpt>
      <trkpt lat="45.2101" lon="5.73465">
        <ele>420.20001220703</ele>
        <time>2021-09-11T03:41:48.000Z</time>
      </trkpt>
      <trkpt lat="45.21009" lon="5.73464">
        <ele>421</ele>
        <time>2021-09-11T03:41:50.000Z</time>
      </trkpt>
      <trkpt lat="45.21009" lon="5.73462">
        <ele>421.39999389648</ele>
        <time>2021-09-11T03:41:51.000Z</time>
      </trkpt>
      <trkpt lat="45.21008" lon="5.73461">
        <ele>421.60000610352</ele>
        <time>2021-09-11T03:41:52.000Z</time>
      </trkpt>
      <trkpt lat="45.21008" lon="5.7346">
        <ele>422</ele>
        <time>2021-09-11T03:41:54.000Z</time>
      </trkpt>
      <trkpt lat="45.21007" lon="5.73461">
        <ele>422.79998779297</ele>
        <time>2021-09-11T03:41:56.000Z</time>
      </trkpt>
      <trkpt lat="45.21006" lon="5.73462">
        <ele>423</ele>
        <time>2021-09-11T03:41:57.000Z</time>
      </trkpt>
      <trkpt lat="45.21005" lon="5.73463">
        <ele>423.60000610352</ele>
        <time>2021-09-11T03:41:59.000Z</time>
      </trkpt>
      <trkpt lat="45.21005" lon="5.73463">
        <ele>423.79998779297</ele>
        <time>2021-09-11T03:42:00.000Z</time>
      </trkpt>
      <trkpt lat="45.21004" lon="5.73464">
        <ele>424.60000610352</ele>
        <time>2021-09-11T03:42:01.000Z</time>
      </trkpt>
      <trkpt lat="45.21004" lon="5.73464">
        <ele>425</ele>
        <time>2021-09-11T03:42:02.000Z</time>
      </trkpt>
      <trkpt lat="45.21003" lon="5.73464">
        <ele>425.20001220703</ele>
        <time>2021-09-11T03:42:03.000Z</time>
      </trkpt>
      <trkpt lat="45.21002" lon="5.73462">
        <ele>425.60000610352</ele>
        <time>2021-09-11T03:42:04.000Z</time>
      </trkpt>
      <trkpt lat="45.21" lon="5.73459">
        <ele>426.20001220703</ele>
        <time>2021-09-11T03:42:06.000Z</time>
      </trkpt>
      <trkpt lat="45.21" lon="5.73459">
        <ele>426.60000610352</ele>
        <time>2021-09-11T03:42:07.000Z</time>
      </trkpt>
      <trkpt lat="45.20997" lon="5.73455">
        <ele>427.39999389648</ele>
        <time>2021-09-11T03:42:10.000Z</time>
      </trkpt>
      <trkpt lat="45.20996" lon="5.73454">
        <ele>427.79998779297</ele>
        <time>2021-09-11T03:42:11.000Z</time>
      </trkpt>
      <trkpt lat="45.20994" lon="5.73453">
        <ele>428.39999389648</ele>
        <time>2021-09-11T03:42:13.000Z</time>
      </trkpt>
      <trkpt lat="45.20988" lon="5.7345">
        <ele>429.39999389648</ele>
        <time>2021-09-11T03:42:17.000Z</time>
      </trkpt>
      <trkpt lat="45.20987" lon="5.73448">
        <ele>430</ele>
        <time>2021-09-11T03:42:19.000Z</time>
      </trkpt>
      <trkpt lat="45.20985" lon="5.73448">
        <ele>430.79998779297</ele>
        <time>2021-09-11T03:42:21.000Z</time>
      </trkpt>
      <trkpt lat="45.20982" lon="5.73447">
        <ele>431.79998779297</ele>
        <time>2021-09-11T03:42:24.000Z</time>
      </trkpt>
      <trkpt lat="45.20981" lon="5.73446">
        <ele>432</ele>
        <time>2021-09-11T03:42:25.000Z</time>
      </trkpt>
      <trkpt lat="45.20979" lon="5.73444">
        <ele>432.60000610352</ele>
        <time>2021-09-11T03:42:27.000Z</time>
      </trkpt>
      <trkpt lat="45.20978" lon="5.73444">
        <ele>432.79998779297</ele>
        <time>2021-09-11T03:42:28.000Z</time>
      </trkpt>
      <trkpt lat="45.20977" lon="5.73443">
        <ele>433</ele>
        <time>2021-09-11T03:42:29.000Z</time>
      </trkpt>
      <trkpt lat="45.20975" lon="5.73443">
        <ele>433.79998779297</ele>
        <time>2021-09-11T03:42:31.000Z</time>
      </trkpt>
      <trkpt lat="45.20975" lon="5.73443">
        <ele>434.20001220703</ele>
        <time>2021-09-11T03:42:32.000Z</time>
      </trkpt>
      <trkpt lat="45.20971" lon="5.7344">
        <ele>435.20001220703</ele>
        <time>2021-09-11T03:42:36.000Z</time>
      </trkpt>
      <trkpt lat="45.20971" lon="5.73438">
        <ele>435.60000610352</ele>
        <time>2021-09-11T03:42:37.000Z</time>
      </trkpt>
      <trkpt lat="45.2097" lon="5.73438">
        <ele>436.20001220703</ele>
        <time>2021-09-11T03:42:39.000Z</time>
      </trkpt>
      <trkpt lat="45.20969" lon="5.73438">
        <ele>436.39999389648</ele>
        <time>2021-09-11T03:42:40.000Z</time>
      </trkpt>
      <trkpt lat="45.20966" lon="5.73438">
        <ele>437.20001220703</ele>
        <time>2021-09-11T03:42:42.000Z</time>
      </trkpt>
      <trkpt lat="45.20965" lon="5.73437">
        <ele>437.60000610352</ele>
        <time>2021-09-11T03:42:43.000Z</time>
      </trkpt>
      <trkpt lat="45.20964" lon="5.73436">
        <ele>438</ele>
        <time>2021-09-11T03:42:44.000Z</time>
      </trkpt>
      <trkpt lat="45.20963" lon="5.73436">
        <ele>438.39999389648</ele>
        <time>2021-09-11T03:42:46.000Z</time>
      </trkpt>
      <trkpt lat="45.20962" lon="5.73435">
        <ele>438.60000610352</ele>
        <time>2021-09-11T03:42:47.000Z</time>
      </trkpt>
      <trkpt lat="45.20962" lon="5.73434">
        <ele>438.79998779297</ele>
        <time>2021-09-11T03:42:48.000Z</time>
      </trkpt>
      <trkpt lat="45.20961" lon="5.73433">
        <ele>439.20001220703</ele>
        <time>2021-09-11T03:42:49.000Z</time>
      </trkpt>
      <trkpt lat="45.2096" lon="5.73432">
        <ele>440</ele>
        <time>2021-09-11T03:42:51.000Z</time>
      </trkpt>
      <trkpt lat="45.20958" lon="5.73428">
        <ele>441.39999389648</ele>
        <time>2021-09-11T03:42:55.000Z</time>
      </trkpt>
      <trkpt lat="45.20957" lon="5.7342">
        <ele>442.79998779297</ele>
        <time>2021-09-11T03:43:00.000Z</time>
      </trkpt>
      <trkpt lat="45.20956" lon="5.7342">
        <ele>443</ele>
        <time>2021-09-11T03:43:01.000Z</time>
      </trkpt>
      <trkpt lat="45.20954" lon="5.73419">
        <ele>443.79998779297</ele>
        <time>2021-09-11T03:43:04.000Z</time>
      </trkpt>
      <trkpt lat="45.20953" lon="5.73418">
        <ele>444.20001220703</ele>
        <time>2021-09-11T03:43:05.000Z</time>
      </trkpt>
      <trkpt lat="45.20953" lon="5.73414">
        <ele>445.20001220703</ele>
        <time>2021-09-11T03:43:07.000Z</time>
      </trkpt>
      <trkpt lat="45.20952" lon="5.73413">
        <ele>445.39999389648</ele>
        <time>2021-09-11T03:43:08.000Z</time>
      </trkpt>
      <trkpt lat="45.20951" lon="5.73411">
        <ele>446.39999389648</ele>
        <time>2021-09-11T03:43:11.000Z</time>
      </trkpt>
      <trkpt lat="45.2095" lon="5.73409">
        <ele>446.79998779297</ele>
        <time>2021-09-11T03:43:13.000Z</time>
      </trkpt>
      <trkpt lat="45.20951" lon="5.73406">
        <ele>447.39999389648</ele>
        <time>2021-09-11T03:43:15.000Z</time>
      </trkpt>
      <trkpt lat="45.20951" lon="5.73405">
        <ele>447.79998779297</ele>
        <time>2021-09-11T03:43:16.000Z</time>
      </trkpt>
      <trkpt lat="45.2095" lon="5.73402">
        <ele>449</ele>
        <time>2021-09-11T03:43:19.000Z</time>
      </trkpt>
      <trkpt lat="45.20949" lon="5.73401">
        <ele>449.79998779297</ele>
        <time>2021-09-11T03:43:21.000Z</time>
      </trkpt>
      <trkpt lat="45.20949" lon="5.734">
        <ele>450</ele>
        <time>2021-09-11T03:43:22.000Z</time>
      </trkpt>
      <trkpt lat="45.20948" lon="5.73399">
        <ele>450.39999389648</ele>
        <time>2021-09-11T03:43:23.000Z</time>
      </trkpt>
      <trkpt lat="45.20945" lon="5.73397">
        <ele>451.20001220703</ele>
        <time>2021-09-11T03:43:26.000Z</time>
      </trkpt>
      <trkpt lat="45.20944" lon="5.73397">
        <ele>451.20001220703</ele>
        <time>2021-09-11T03:43:27.000Z</time>
      </trkpt>
      <trkpt lat="45.20941" lon="5.73397">
        <ele>451.20001220703</ele>
        <time>2021-09-11T03:43:29.000Z</time>
      </trkpt>
      <trkpt lat="45.20938" lon="5.73397">
        <ele>450.79998779297</ele>
        <time>2021-09-11T03:43:31.000Z</time>
      </trkpt>
      <trkpt lat="45.20934" lon="5.73395">
        <ele>450.39999389648</ele>
        <time>2021-09-11T03:43:33.000Z</time>
      </trkpt>
      <trkpt lat="45.2093" lon="5.73391">
        <ele>450.20001220703</ele>
        <time>2021-09-11T03:43:36.000Z</time>
      </trkpt>
      <trkpt lat="45.20929" lon="5.7339">
        <ele>450.20001220703</ele>
        <time>2021-09-11T03:43:37.000Z</time>
      </trkpt>
      <trkpt lat="45.20927" lon="5.7339">
        <ele>450.39999389648</ele>
        <time>2021-09-11T03:43:38.000Z</time>
      </trkpt>
      <trkpt lat="45.20921" lon="5.73388">
        <ele>451.79998779297</ele>
        <time>2021-09-11T03:43:43.000Z</time>
      </trkpt>
      <trkpt lat="45.20919" lon="5.73385">
        <ele>452.39999389648</ele>
        <time>2021-09-11T03:43:45.000Z</time>
      </trkpt>
      <trkpt lat="45.20916" lon="5.73382">
        <ele>453.60000610352</ele>
        <time>2021-09-11T03:43:48.000Z</time>
      </trkpt>
      <trkpt lat="45.20916" lon="5.73381">
        <ele>454</ele>
        <time>2021-09-11T03:43:49.000Z</time>
      </trkpt>
      <trkpt lat="45.20915" lon="5.73379">
        <ele>454.79998779297</ele>
        <time>2021-09-11T03:43:51.000Z</time>
      </trkpt>
      <trkpt lat="45.20913" lon="5.73378">
        <ele>455.60000610352</ele>
        <time>2021-09-11T03:43:53.000Z</time>
      </trkpt>
      <trkpt lat="45.20911" lon="5.73377">
        <ele>456</ele>
        <time>2021-09-11T03:43:55.000Z</time>
      </trkpt>
      <trkpt lat="45.20909" lon="5.73373">
        <ele>457.39999389648</ele>
        <time>2021-09-11T03:43:58.000Z</time>
      </trkpt>
      <trkpt lat="45.20908" lon="5.73368">
        <ele>458.60000610352</ele>
        <time>2021-09-11T03:44:02.000Z</time>
      </trkpt>
      <trkpt lat="45.20907" lon="5.73365">
        <ele>459.79998779297</ele>
        <time>2021-09-11T03:44:05.000Z</time>
      </trkpt>
      <trkpt lat="45.20905" lon="5.73362">
        <ele>460.79998779297</ele>
        <time>2021-09-11T03:44:08.000Z</time>
      </trkpt>
      <trkpt lat="45.20904" lon="5.7336">
        <ele>462</ele>
        <time>2021-09-11T03:44:11.000Z</time>
      </trkpt>
      <trkpt lat="45.20902" lon="5.73358">
        <ele>462.39999389648</ele>
        <time>2021-09-11T03:44:13.000Z</time>
      </trkpt>
      <trkpt lat="45.20902" lon="5.73358">
        <ele>462.39999389648</ele>
        <time>2021-09-11T03:44:14.000Z</time>
      </trkpt>
      <trkpt lat="45.20901" lon="5.73358">
        <ele>463.20001220703</ele>
        <time>2021-09-11T03:44:16.000Z</time>
      </trkpt>
      <trkpt lat="45.209" lon="5.73358">
        <ele>463.79998779297</ele>
        <time>2021-09-11T03:44:17.000Z</time>
      </trkpt>
      <trkpt lat="45.20898" lon="5.73358">
        <ele>464</ele>
        <time>2021-09-11T03:44:18.000Z</time>
      </trkpt>
      <trkpt lat="45.20897" lon="5.73358">
        <ele>464.39999389648</ele>
        <time>2021-09-11T03:44:19.000Z</time>
      </trkpt>
      <trkpt lat="45.20895" lon="5.73358">
        <ele>464.60000610352</ele>
        <time>2021-09-11T03:44:20.000Z</time>
      </trkpt>
      <trkpt lat="45.20891" lon="5.73355">
        <ele>465.60000610352</ele>
        <time>2021-09-11T03:44:24.000Z</time>
      </trkpt>
      <trkpt lat="45.2089" lon="5.73355">
        <ele>466.20001220703</ele>
        <time>2021-09-11T03:44:26.000Z</time>
      </trkpt>
      <trkpt lat="45.20889" lon="5.73354">
        <ele>466.60000610352</ele>
        <time>2021-09-11T03:44:27.000Z</time>
      </trkpt>
      <trkpt lat="45.20887" lon="5.73353">
        <ele>467.60000610352</ele>
        <time>2021-09-11T03:44:31.000Z</time>
      </trkpt>
      <trkpt lat="45.20886" lon="5.73352">
        <ele>467.79998779297</ele>
        <time>2021-09-11T03:44:32.000Z</time>
      </trkpt>
      <trkpt lat="45.20883" lon="5.73352">
        <ele>469</ele>
        <time>2021-09-11T03:44:35.000Z</time>
      </trkpt>
      <trkpt lat="45.20881" lon="5.73352">
        <ele>469.39999389648</ele>
        <time>2021-09-11T03:44:37.000Z</time>
      </trkpt>
      <trkpt lat="45.2088" lon="5.73351">
        <ele>470</ele>
        <time>2021-09-11T03:44:39.000Z</time>
      </trkpt>
      <trkpt lat="45.20878" lon="5.73348">
        <ele>471.20001220703</ele>
        <time>2021-09-11T03:44:42.000Z</time>
      </trkpt>
      <trkpt lat="45.20877" lon="5.73348">
        <ele>471.60000610352</ele>
        <time>2021-09-11T03:44:43.000Z</time>
      </trkpt>
      <trkpt lat="45.20876" lon="5.73348">
        <ele>472.20001220703</ele>
        <time>2021-09-11T03:44:45.000Z</time>
      </trkpt>
      <trkpt lat="45.20874" lon="5.73348">
        <ele>472.60000610352</ele>
        <time>2021-09-11T03:44:47.000Z</time>
      </trkpt>
      <trkpt lat="45.20873" lon="5.73348">
        <ele>472.79998779297</ele>
        <time>2021-09-11T03:44:48.000Z</time>
      </trkpt>
      <trkpt lat="45.20872" lon="5.73348">
        <ele>473.20001220703</ele>
        <time>2021-09-11T03:44:49.000Z</time>
      </trkpt>
      <trkpt lat="45.20869" lon="5.73349">
        <ele>474.20001220703</ele>
        <time>2021-09-11T03:44:52.000Z</time>
      </trkpt>
      <trkpt lat="45.20868" lon="5.73349">
        <ele>474.60000610352</ele>
        <time>2021-09-11T03:44:53.000Z</time>
      </trkpt>
      <trkpt lat="45.20867" lon="5.73348">
        <ele>475.20001220703</ele>
        <time>2021-09-11T03:44:54.000Z</time>
      </trkpt>
      <trkpt lat="45.20865" lon="5.73347">
        <ele>475.79998779297</ele>
        <time>2021-09-11T03:44:56.000Z</time>
      </trkpt>
      <trkpt lat="45.20863" lon="5.73346">
        <ele>476.79998779297</ele>
        <time>2021-09-11T03:44:59.000Z</time>
      </trkpt>
      <trkpt lat="45.20862" lon="5.73346">
        <ele>477</ele>
        <time>2021-09-11T03:45:00.000Z</time>
      </trkpt>
      <trkpt lat="45.2086" lon="5.73346">
        <ele>477.39999389648</ele>
        <time>2021-09-11T03:45:03.000Z</time>
      </trkpt>
      <trkpt lat="45.20859" lon="5.73344">
        <ele>478</ele>
        <time>2021-09-11T03:45:05.000Z</time>
      </trkpt>
      <trkpt lat="45.20858" lon="5.73344">
        <ele>478.39999389648</ele>
        <time>2021-09-11T03:45:06.000Z</time>
      </trkpt>
      <trkpt lat="45.20857" lon="5.73341">
        <ele>479.20001220703</ele>
        <time>2021-09-11T03:45:08.000Z</time>
      </trkpt>
      <trkpt lat="45.20857" lon="5.73339">
        <ele>479.60000610352</ele>
        <time>2021-09-11T03:45:09.000Z</time>
      </trkpt>
      <trkpt lat="45.20855" lon="5.73334">
        <ele>480.60000610352</ele>
        <time>2021-09-11T03:45:13.000Z</time>
      </trkpt>
      <trkpt lat="45.20854" lon="5.73331">
        <ele>481.20001220703</ele>
        <time>2021-09-11T03:45:14.000Z</time>
      </trkpt>
      <trkpt lat="45.20854" lon="5.73328">
        <ele>481.79998779297</ele>
        <time>2021-09-11T03:45:16.000Z</time>
      </trkpt>
      <trkpt lat="45.20854" lon="5.73327">
        <ele>482.20001220703</ele>
        <time>2021-09-11T03:45:17.000Z</time>
      </trkpt>
      <trkpt lat="45.20853" lon="5.73323">
        <ele>482.79998779297</ele>
        <time>2021-09-11T03:45:20.000Z</time>
      </trkpt>
      <trkpt lat="45.20852" lon="5.73323">
        <ele>483</ele>
        <time>2021-09-11T03:45:21.000Z</time>
      </trkpt>
      <trkpt lat="45.20849" lon="5.7332">
        <ele>483.60000610352</ele>
        <time>2021-09-11T03:45:23.000Z</time>
      </trkpt>
      <trkpt lat="45.20848" lon="5.73316">
        <ele>484</ele>
        <time>2021-09-11T03:45:25.000Z</time>
      </trkpt>
      <trkpt lat="45.20847" lon="5.7331">
        <ele>484.60000610352</ele>
        <time>2021-09-11T03:45:28.000Z</time>
      </trkpt>
      <trkpt lat="45.20849" lon="5.7331">
        <ele>484.79998779297</ele>
        <time>2021-09-11T03:45:30.000Z</time>
      </trkpt>
      <trkpt lat="45.20854" lon="5.73312">
        <ele>485.20001220703</ele>
        <time>2021-09-11T03:45:34.000Z</time>
      </trkpt>
      <trkpt lat="45.20855" lon="5.73312">
        <ele>485.60000610352</ele>
        <time>2021-09-11T03:45:35.000Z</time>
      </trkpt>
      <trkpt lat="45.20856" lon="5.73312">
        <ele>486</ele>
        <time>2021-09-11T03:45:36.000Z</time>
      </trkpt>
      <trkpt lat="45.20857" lon="5.73312">
        <ele>486.20001220703</ele>
        <time>2021-09-11T03:45:37.000Z</time>
      </trkpt>
      <trkpt lat="45.20861" lon="5.7331">
        <ele>487</ele>
        <time>2021-09-11T03:45:40.000Z</time>
      </trkpt>
      <trkpt lat="45.20862" lon="5.7331">
        <ele>487.20001220703</ele>
        <time>2021-09-11T03:45:41.000Z</time>
      </trkpt>
      <trkpt lat="45.20863" lon="5.73311">
        <ele>487.60000610352</ele>
        <time>2021-09-11T03:45:42.000Z</time>
      </trkpt>
      <trkpt lat="45.20866" lon="5.73311">
        <ele>488</ele>
        <time>2021-09-11T03:45:44.000Z</time>
      </trkpt>
      <trkpt lat="45.20868" lon="5.7331">
        <ele>488.39999389648</ele>
        <time>2021-09-11T03:45:46.000Z</time>
      </trkpt>
      <trkpt lat="45.20869" lon="5.73309">
        <ele>488.79998779297</ele>
        <time>2021-09-11T03:45:47.000Z</time>
      </trkpt>
      <trkpt lat="45.20876" lon="5.73307">
        <ele>489.39999389648</ele>
        <time>2021-09-11T03:45:51.000Z</time>
      </trkpt>
      <trkpt lat="45.2088" lon="5.73306">
        <ele>490</ele>
        <time>2021-09-11T03:45:54.000Z</time>
      </trkpt>
      <trkpt lat="45.20882" lon="5.73305">
        <ele>490.39999389648</ele>
        <time>2021-09-11T03:45:56.000Z</time>
      </trkpt>
      <trkpt lat="45.20884" lon="5.73303">
        <ele>491.20001220703</ele>
        <time>2021-09-11T03:45:59.000Z</time>
      </trkpt>
      <trkpt lat="45.20884" lon="5.73303">
        <ele>491.39999389648</ele>
        <time>2021-09-11T03:46:00.000Z</time>
      </trkpt>
      <trkpt lat="45.20886" lon="5.73302">
        <ele>491.60000610352</ele>
        <time>2021-09-11T03:46:01.000Z</time>
      </trkpt>
      <trkpt lat="45.2089" lon="5.73301">
        <ele>492.39999389648</ele>
        <time>2021-09-11T03:46:04.000Z</time>
      </trkpt>
      <trkpt lat="45.20891" lon="5.73302">
        <ele>492.39999389648</ele>
        <time>2021-09-11T03:46:05.000Z</time>
      </trkpt>
      <trkpt lat="45.20893" lon="5.73302">
        <ele>492.60000610352</ele>
        <time>2021-09-11T03:46:06.000Z</time>
      </trkpt>
      <trkpt lat="45.20895" lon="5.73301">
        <ele>492.79998779297</ele>
        <time>2021-09-11T03:46:07.000Z</time>
      </trkpt>
      <trkpt lat="45.20898" lon="5.73301">
        <ele>493.39999389648</ele>
        <time>2021-09-11T03:46:09.000Z</time>
      </trkpt>
      <trkpt lat="45.209" lon="5.733">
        <ele>493.60000610352</ele>
        <time>2021-09-11T03:46:11.000Z</time>
      </trkpt>
      <trkpt lat="45.20901" lon="5.73301">
        <ele>493.79998779297</ele>
        <time>2021-09-11T03:46:12.000Z</time>
      </trkpt>
      <trkpt lat="45.20906" lon="5.733">
        <ele>494.79998779297</ele>
        <time>2021-09-11T03:46:16.000Z</time>
      </trkpt>
      <trkpt lat="45.20908" lon="5.733">
        <ele>495</ele>
        <time>2021-09-11T03:46:17.000Z</time>
      </trkpt>
      <trkpt lat="45.20909" lon="5.733">
        <ele>495.39999389648</ele>
        <time>2021-09-11T03:46:18.000Z</time>
      </trkpt>
      <trkpt lat="45.20912" lon="5.733">
        <ele>495.79998779297</ele>
        <time>2021-09-11T03:46:20.000Z</time>
      </trkpt>
      <trkpt lat="45.20914" lon="5.73301">
        <ele>496</ele>
        <time>2021-09-11T03:46:21.000Z</time>
      </trkpt>
      <trkpt lat="45.20915" lon="5.73303">
        <ele>496.20001220703</ele>
        <time>2021-09-11T03:46:22.000Z</time>
      </trkpt>
      <trkpt lat="45.20918" lon="5.73305">
        <ele>496.79998779297</ele>
        <time>2021-09-11T03:46:24.000Z</time>
      </trkpt>
      <trkpt lat="45.2092" lon="5.73305">
        <ele>497.20001220703</ele>
        <time>2021-09-11T03:46:26.000Z</time>
      </trkpt>
      <trkpt lat="45.20925" lon="5.73304">
        <ele>497.79998779297</ele>
        <time>2021-09-11T03:46:29.000Z</time>
      </trkpt>
      <trkpt lat="45.20928" lon="5.73305">
        <ele>498.20001220703</ele>
        <time>2021-09-11T03:46:31.000Z</time>
      </trkpt>
      <trkpt lat="45.20934" lon="5.73309">
        <ele>499.39999389648</ele>
        <time>2021-09-11T03:46:36.000Z</time>
      </trkpt>
      <trkpt lat="45.20935" lon="5.73309">
        <ele>499.39999389648</ele>
        <time>2021-09-11T03:46:37.000Z</time>
      </trkpt>
      <trkpt lat="45.20943" lon="5.73305">
        <ele>500.60000610352</ele>
        <time>2021-09-11T03:46:41.000Z</time>
      </trkpt>
      <trkpt lat="45.20944" lon="5.73305">
        <ele>500.79998779297</ele>
        <time>2021-09-11T03:46:42.000Z</time>
      </trkpt>
      <trkpt lat="45.20945" lon="5.73304">
        <ele>501.39999389648</ele>
        <time>2021-09-11T03:46:43.000Z</time>
      </trkpt>
      <trkpt lat="45.20946" lon="5.73304">
        <ele>501.60000610352</ele>
        <time>2021-09-11T03:46:44.000Z</time>
      </trkpt>
      <trkpt lat="45.20951" lon="5.73301">
        <ele>502.60000610352</ele>
        <time>2021-09-11T03:46:48.000Z</time>
      </trkpt>
      <trkpt lat="45.20952" lon="5.73301">
        <ele>502.79998779297</ele>
        <time>2021-09-11T03:46:49.000Z</time>
      </trkpt>
      <trkpt lat="45.20958" lon="5.73299">
        <ele>504</ele>
        <time>2021-09-11T03:46:53.000Z</time>
      </trkpt>
      <trkpt lat="45.20964" lon="5.73298">
        <ele>505</ele>
        <time>2021-09-11T03:46:57.000Z</time>
      </trkpt>
      <trkpt lat="45.20965" lon="5.73298">
        <ele>505.20001220703</ele>
        <time>2021-09-11T03:46:58.000Z</time>
      </trkpt>
      <trkpt lat="45.20966" lon="5.73298">
        <ele>505.39999389648</ele>
        <time>2021-09-11T03:46:59.000Z</time>
      </trkpt>
      <trkpt lat="45.20971" lon="5.73298">
        <ele>506.39999389648</ele>
        <time>2021-09-11T03:47:02.000Z</time>
      </trkpt>
      <trkpt lat="45.20973" lon="5.73297">
        <ele>506.79998779297</ele>
        <time>2021-09-11T03:47:03.000Z</time>
      </trkpt>
      <trkpt lat="45.20979" lon="5.73295">
        <ele>507.60000610352</ele>
        <time>2021-09-11T03:47:07.000Z</time>
      </trkpt>
      <trkpt lat="45.20981" lon="5.73294">
        <ele>508</ele>
        <time>2021-09-11T03:47:09.000Z</time>
      </trkpt>
      <trkpt lat="45.20981" lon="5.73294">
        <ele>508.60000610352</ele>
        <time>2021-09-11T03:47:12.000Z</time>
      </trkpt>
      <trkpt lat="45.2098" lon="5.73295">
        <ele>509.20001220703</ele>
        <time>2021-09-11T03:47:13.000Z</time>
      </trkpt>
      <trkpt lat="45.20979" lon="5.73295">
        <ele>509.60000610352</ele>
        <time>2021-09-11T03:47:15.000Z</time>
      </trkpt>
      <trkpt lat="45.20978" lon="5.73296">
        <ele>509.79998779297</ele>
        <time>2021-09-11T03:47:16.000Z</time>
      </trkpt>
      <trkpt lat="45.20977" lon="5.73296">
        <ele>510</ele>
        <time>2021-09-11T03:47:17.000Z</time>
      </trkpt>
      <trkpt lat="45.20975" lon="5.73295">
        <ele>510.60000610352</ele>
        <time>2021-09-11T03:47:19.000Z</time>
      </trkpt>
      <trkpt lat="45.20974" lon="5.73296">
        <ele>511</ele>
        <time>2021-09-11T03:47:20.000Z</time>
      </trkpt>
      <trkpt lat="45.20967" lon="5.73298">
        <ele>512.20001220703</ele>
        <time>2021-09-11T03:47:25.000Z</time>
      </trkpt>
      <trkpt lat="45.20965" lon="5.73297">
        <ele>512.40002441406</ele>
        <time>2021-09-11T03:47:26.000Z</time>
      </trkpt>
      <trkpt lat="45.20963" lon="5.73296">
        <ele>512.79998779297</ele>
        <time>2021-09-11T03:47:28.000Z</time>
      </trkpt>
      <trkpt lat="45.20961" lon="5.73295">
        <ele>513.40002441406</ele>
        <time>2021-09-11T03:47:30.000Z</time>
      </trkpt>
      <trkpt lat="45.20957" lon="5.73295">
        <ele>514</ele>
        <time>2021-09-11T03:47:33.000Z</time>
      </trkpt>
      <trkpt lat="45.20955" lon="5.73297">
        <ele>514.59997558594</ele>
        <time>2021-09-11T03:47:35.000Z</time>
      </trkpt>
      <trkpt lat="45.20954" lon="5.73298">
        <ele>515</ele>
        <time>2021-09-11T03:47:36.000Z</time>
      </trkpt>
      <trkpt lat="45.20952" lon="5.73298">
        <ele>515.20001220703</ele>
        <time>2021-09-11T03:47:38.000Z</time>
      </trkpt>
      <trkpt lat="45.2095" lon="5.73298">
        <ele>515.79998779297</ele>
        <time>2021-09-11T03:47:40.000Z</time>
      </trkpt>
      <trkpt lat="45.20947" lon="5.73299">
        <ele>516.59997558594</ele>
        <time>2021-09-11T03:47:42.000Z</time>
      </trkpt>
      <trkpt lat="45.20945" lon="5.733">
        <ele>517</ele>
        <time>2021-09-11T03:47:44.000Z</time>
      </trkpt>
      <trkpt lat="45.20943" lon="5.73299">
        <ele>517.20001220703</ele>
        <time>2021-09-11T03:47:45.000Z</time>
      </trkpt>
      <trkpt lat="45.2094" lon="5.73295">
        <ele>518</ele>
        <time>2021-09-11T03:47:48.000Z</time>
      </trkpt>
      <trkpt lat="45.20938" lon="5.73292">
        <ele>518.20001220703</ele>
        <time>2021-09-11T03:47:50.000Z</time>
      </trkpt>
      <trkpt lat="45.20934" lon="5.73288">
        <ele>519</ele>
        <time>2021-09-11T03:47:53.000Z</time>
      </trkpt>
      <trkpt lat="45.20933" lon="5.73287">
        <ele>519.20001220703</ele>
        <time>2021-09-11T03:47:54.000Z</time>
      </trkpt>
      <trkpt lat="45.20931" lon="5.73287">
        <ele>519.40002441406</ele>
        <time>2021-09-11T03:47:55.000Z</time>
      </trkpt>
      <trkpt lat="45.20927" lon="5.73285">
        <ele>520.40002441406</ele>
        <time>2021-09-11T03:47:58.000Z</time>
      </trkpt>
      <trkpt lat="45.2092" lon="5.7328">
        <ele>521.40002441406</ele>
        <time>2021-09-11T03:48:03.000Z</time>
      </trkpt>
      <trkpt lat="45.20918" lon="5.73279">
        <ele>521.59997558594</ele>
        <time>2021-09-11T03:48:05.000Z</time>
      </trkpt>
      <trkpt lat="45.20917" lon="5.73277">
        <ele>522</ele>
        <time>2021-09-11T03:48:06.000Z</time>
      </trkpt>
      <trkpt lat="45.20914" lon="5.73275">
        <ele>522.59997558594</ele>
        <time>2021-09-11T03:48:08.000Z</time>
      </trkpt>
      <trkpt lat="45.20913" lon="5.73275">
        <ele>522.79998779297</ele>
        <time>2021-09-11T03:48:09.000Z</time>
      </trkpt>
      <trkpt lat="45.2091" lon="5.73275">
        <ele>523.59997558594</ele>
        <time>2021-09-11T03:48:12.000Z</time>
      </trkpt>
      <trkpt lat="45.20906" lon="5.73268">
        <ele>524.20001220703</ele>
        <time>2021-09-11T03:48:15.000Z</time>
      </trkpt>
      <trkpt lat="45.20907" lon="5.73265">
        <ele>525</ele>
        <time>2021-09-11T03:48:17.000Z</time>
      </trkpt>
      <trkpt lat="45.2091" lon="5.73263">
        <ele>526</ele>
        <time>2021-09-11T03:48:21.000Z</time>
      </trkpt>
      <trkpt lat="45.20911" lon="5.73263">
        <ele>526.20001220703</ele>
        <time>2021-09-11T03:48:22.000Z</time>
      </trkpt>
      <trkpt lat="45.20918" lon="5.73261">
        <ele>527.20001220703</ele>
        <time>2021-09-11T03:48:27.000Z</time>
      </trkpt>
      <trkpt lat="45.2092" lon="5.73261">
        <ele>528</ele>
        <time>2021-09-11T03:48:29.000Z</time>
      </trkpt>
      <trkpt lat="45.20921" lon="5.73261">
        <ele>528.20001220703</ele>
        <time>2021-09-11T03:48:30.000Z</time>
      </trkpt>
      <trkpt lat="45.20928" lon="5.7326">
        <ele>529.40002441406</ele>
        <time>2021-09-11T03:48:35.000Z</time>
      </trkpt>
      <trkpt lat="45.20935" lon="5.73259">
        <ele>530.20001220703</ele>
        <time>2021-09-11T03:48:40.000Z</time>
      </trkpt>
      <trkpt lat="45.20936" lon="5.73259">
        <ele>530.59997558594</ele>
        <time>2021-09-11T03:48:41.000Z</time>
      </trkpt>
      <trkpt lat="45.2094" lon="5.73256">
        <ele>532</ele>
        <time>2021-09-11T03:48:46.000Z</time>
      </trkpt>
      <trkpt lat="45.20942" lon="5.73255">
        <ele>532.20001220703</ele>
        <time>2021-09-11T03:48:47.000Z</time>
      </trkpt>
      <trkpt lat="45.20946" lon="5.73252">
        <ele>533</ele>
        <time>2021-09-11T03:48:50.000Z</time>
      </trkpt>
      <trkpt lat="45.20949" lon="5.73251">
        <ele>533.79998779297</ele>
        <time>2021-09-11T03:48:53.000Z</time>
      </trkpt>
      <trkpt lat="45.20951" lon="5.7325">
        <ele>534.20001220703</ele>
        <time>2021-09-11T03:48:54.000Z</time>
      </trkpt>
      <trkpt lat="45.20955" lon="5.73248">
        <ele>535.20001220703</ele>
        <time>2021-09-11T03:48:58.000Z</time>
      </trkpt>
      <trkpt lat="45.20961" lon="5.73245">
        <ele>536.40002441406</ele>
        <time>2021-09-11T03:49:03.000Z</time>
      </trkpt>
      <trkpt lat="45.20963" lon="5.73245">
        <ele>536.59997558594</ele>
        <time>2021-09-11T03:49:04.000Z</time>
      </trkpt>
      <trkpt lat="45.2097" lon="5.73246">
        <ele>537.40002441406</ele>
        <time>2021-09-11T03:49:08.000Z</time>
      </trkpt>
      <trkpt lat="45.20972" lon="5.73245">
        <ele>537.59997558594</ele>
        <time>2021-09-11T03:49:09.000Z</time>
      </trkpt>
      <trkpt lat="45.20978" lon="5.73242">
        <ele>538.79998779297</ele>
        <time>2021-09-11T03:49:13.000Z</time>
      </trkpt>
      <trkpt lat="45.20983" lon="5.73239">
        <ele>539.79998779297</ele>
        <time>2021-09-11T03:49:17.000Z</time>
      </trkpt>
      <trkpt lat="45.20983" lon="5.7324">
        <ele>540.20001220703</ele>
        <time>2021-09-11T03:49:18.000Z</time>
      </trkpt>
      <trkpt lat="45.20981" lon="5.73242">
        <ele>540.59997558594</ele>
        <time>2021-09-11T03:49:20.000Z</time>
      </trkpt>
      <trkpt lat="45.20979" lon="5.73243">
        <ele>541</ele>
        <time>2021-09-11T03:49:21.000Z</time>
      </trkpt>
      <trkpt lat="45.20971" lon="5.73245">
        <ele>542.20001220703</ele>
        <time>2021-09-11T03:49:27.000Z</time>
      </trkpt>
      <trkpt lat="45.20969" lon="5.73245">
        <ele>542.79998779297</ele>
        <time>2021-09-11T03:49:29.000Z</time>
      </trkpt>
      <trkpt lat="45.20966" lon="5.73245">
        <ele>543.40002441406</ele>
        <time>2021-09-11T03:49:32.000Z</time>
      </trkpt>
      <trkpt lat="45.20963" lon="5.73243">
        <ele>543.79998779297</ele>
        <time>2021-09-11T03:49:34.000Z</time>
      </trkpt>
      <trkpt lat="45.2096" lon="5.73241">
        <ele>544.20001220703</ele>
        <time>2021-09-11T03:49:37.000Z</time>
      </trkpt>
      <trkpt lat="45.20958" lon="5.73241">
        <ele>544.59997558594</ele>
        <time>2021-09-11T03:49:38.000Z</time>
      </trkpt>
      <trkpt lat="45.20956" lon="5.73242">
        <ele>545.40002441406</ele>
        <time>2021-09-11T03:49:40.000Z</time>
      </trkpt>
      <trkpt lat="45.20955" lon="5.73242">
        <ele>545.59997558594</ele>
        <time>2021-09-11T03:49:41.000Z</time>
      </trkpt>
      <trkpt lat="45.20954" lon="5.73242">
        <ele>545.79998779297</ele>
        <time>2021-09-11T03:49:42.000Z</time>
      </trkpt>
      <trkpt lat="45.2095" lon="5.73244">
        <ele>546.59997558594</ele>
        <time>2021-09-11T03:49:45.000Z</time>
      </trkpt>
      <trkpt lat="45.2095" lon="5.73243">
        <ele>546.59997558594</ele>
        <time>2021-09-11T03:49:46.000Z</time>
      </trkpt>
      <trkpt lat="45.20947" lon="5.73243">
        <ele>547</ele>
        <time>2021-09-11T03:49:48.000Z</time>
      </trkpt>
      <trkpt lat="45.20946" lon="5.73243">
        <ele>547.20001220703</ele>
        <time>2021-09-11T03:49:49.000Z</time>
      </trkpt>
      <trkpt lat="45.20943" lon="5.73241">
        <ele>547.79998779297</ele>
        <time>2021-09-11T03:49:51.000Z</time>
      </trkpt>
      <trkpt lat="45.20938" lon="5.73239">
        <ele>549</ele>
        <time>2021-09-11T03:49:55.000Z</time>
      </trkpt>
      <trkpt lat="45.20935" lon="5.73236">
        <ele>549.59997558594</ele>
        <time>2021-09-11T03:49:58.000Z</time>
      </trkpt>
      <trkpt lat="45.20932" lon="5.73234">
        <ele>550.20001220703</ele>
        <time>2021-09-11T03:50:00.000Z</time>
      </trkpt>
      <trkpt lat="45.2093" lon="5.73233">
        <ele>550.40002441406</ele>
        <time>2021-09-11T03:50:01.000Z</time>
      </trkpt>
      <trkpt lat="45.20928" lon="5.73229">
        <ele>551</ele>
        <time>2021-09-11T03:50:04.000Z</time>
      </trkpt>
      <trkpt lat="45.20928" lon="5.73228">
        <ele>551.59997558594</ele>
        <time>2021-09-11T03:50:06.000Z</time>
      </trkpt>
      <trkpt lat="45.2093" lon="5.73227">
        <ele>552.59997558594</ele>
        <time>2021-09-11T03:50:09.000Z</time>
      </trkpt>
      <trkpt lat="45.20933" lon="5.73227">
        <ele>553</ele>
        <time>2021-09-11T03:50:12.000Z</time>
      </trkpt>
      <trkpt lat="45.20937" lon="5.73227">
        <ele>553.79998779297</ele>
        <time>2021-09-11T03:50:15.000Z</time>
      </trkpt>
      <trkpt lat="45.20942" lon="5.73224">
        <ele>554.40002441406</ele>
        <time>2021-09-11T03:50:19.000Z</time>
      </trkpt>
      <trkpt lat="45.20945" lon="5.73223">
        <ele>555</ele>
        <time>2021-09-11T03:50:21.000Z</time>
      </trkpt>
      <trkpt lat="45.2095" lon="5.7322">
        <ele>556</ele>
        <time>2021-09-11T03:50:26.000Z</time>
      </trkpt>
      <trkpt lat="45.20958" lon="5.73213">
        <ele>557.20001220703</ele>
        <time>2021-09-11T03:50:32.000Z</time>
      </trkpt>
      <trkpt lat="45.2096" lon="5.73213">
        <ele>557.40002441406</ele>
        <time>2021-09-11T03:50:33.000Z</time>
      </trkpt>
      <trkpt lat="45.20966" lon="5.73212">
        <ele>558.40002441406</ele>
        <time>2021-09-11T03:50:37.000Z</time>
      </trkpt>
      <trkpt lat="45.20968" lon="5.73213">
        <ele>559</ele>
        <time>2021-09-11T03:50:39.000Z</time>
      </trkpt>
      <trkpt lat="45.20973" lon="5.73213">
        <ele>559.59997558594</ele>
        <time>2021-09-11T03:50:42.000Z</time>
      </trkpt>
      <trkpt lat="45.20977" lon="5.7321">
        <ele>560.20001220703</ele>
        <time>2021-09-11T03:50:44.000Z</time>
      </trkpt>
      <trkpt lat="45.20981" lon="5.73207">
        <ele>561</ele>
        <time>2021-09-11T03:50:47.000Z</time>
      </trkpt>
      <trkpt lat="45.20986" lon="5.73205">
        <ele>561.59997558594</ele>
        <time>2021-09-11T03:50:49.000Z</time>
      </trkpt>
      <trkpt lat="45.20986" lon="5.73207">
        <ele>562</ele>
        <time>2021-09-11T03:50:51.000Z</time>
      </trkpt>
      <trkpt lat="45.20986" lon="5.73208">
        <ele>562.20001220703</ele>
        <time>2021-09-11T03:50:52.000Z</time>
      </trkpt>
      <trkpt lat="45.20986" lon="5.73209">
        <ele>562.59997558594</ele>
        <time>2021-09-11T03:50:53.000Z</time>
      </trkpt>
      <trkpt lat="45.20984" lon="5.7321">
        <ele>563.40002441406</ele>
        <time>2021-09-11T03:50:55.000Z</time>
      </trkpt>
      <trkpt lat="45.20982" lon="5.73211">
        <ele>563.59997558594</ele>
        <time>2021-09-11T03:50:56.000Z</time>
      </trkpt>
      <trkpt lat="45.20976" lon="5.73213">
        <ele>564.40002441406</ele>
        <time>2021-09-11T03:51:00.000Z</time>
      </trkpt>
      <trkpt lat="45.20974" lon="5.73214">
        <ele>564.59997558594</ele>
        <time>2021-09-11T03:51:01.000Z</time>
      </trkpt>
      <trkpt lat="45.20972" lon="5.73214">
        <ele>564.59997558594</ele>
        <time>2021-09-11T03:51:02.000Z</time>
      </trkpt>
      <trkpt lat="45.20972" lon="5.73212">
        <ele>565</ele>
        <time>2021-09-11T03:51:04.000Z</time>
      </trkpt>
      <trkpt lat="45.20974" lon="5.73212">
        <ele>565.79998779297</ele>
        <time>2021-09-11T03:51:06.000Z</time>
      </trkpt>
      <trkpt lat="45.20979" lon="5.73208">
        <ele>566.59997558594</ele>
        <time>2021-09-11T03:51:09.000Z</time>
      </trkpt>
      <trkpt lat="45.20983" lon="5.73206">
        <ele>567.40002441406</ele>
        <time>2021-09-11T03:51:11.000Z</time>
      </trkpt>
      <trkpt lat="45.20989" lon="5.73203">
        <ele>568.40002441406</ele>
        <time>2021-09-11T03:51:16.000Z</time>
      </trkpt>
      <trkpt lat="45.20989" lon="5.73201">
        <ele>568.79998779297</ele>
        <time>2021-09-11T03:51:18.000Z</time>
      </trkpt>
      <trkpt lat="45.2099" lon="5.73198">
        <ele>569.40002441406</ele>
        <time>2021-09-11T03:51:20.000Z</time>
      </trkpt>
      <trkpt lat="45.20991" lon="5.73197">
        <ele>569.59997558594</ele>
        <time>2021-09-11T03:51:21.000Z</time>
      </trkpt>
      <trkpt lat="45.20998" lon="5.73193">
        <ele>570.59997558594</ele>
        <time>2021-09-11T03:51:26.000Z</time>
      </trkpt>
      <trkpt lat="45.20999" lon="5.73192">
        <ele>570.79998779297</ele>
        <time>2021-09-11T03:51:27.000Z</time>
      </trkpt>
      <trkpt lat="45.21002" lon="5.73187">
        <ele>571.79998779297</ele>
        <time>2021-09-11T03:51:31.000Z</time>
      </trkpt>
      <trkpt lat="45.21002" lon="5.73184">
        <ele>572.20001220703</ele>
        <time>2021-09-11T03:51:33.000Z</time>
      </trkpt>
      <trkpt lat="45.21004" lon="5.73182">
        <ele>573.20001220703</ele>
        <time>2021-09-11T03:51:35.000Z</time>
      </trkpt>
      <trkpt lat="45.21006" lon="5.73179">
        <ele>573.59997558594</ele>
        <time>2021-09-11T03:51:36.000Z</time>
      </trkpt>
      <trkpt lat="45.21007" lon="5.73176">
        <ele>574</ele>
        <time>2021-09-11T03:51:37.000Z</time>
      </trkpt>
      <trkpt lat="45.2101" lon="5.73173">
        <ele>574.20001220703</ele>
        <time>2021-09-11T03:51:39.000Z</time>
      </trkpt>
      <trkpt lat="45.21014" lon="5.7317">
        <ele>575</ele>
        <time>2021-09-11T03:51:42.000Z</time>
      </trkpt>
      <trkpt lat="45.21017" lon="5.7317">
        <ele>575.59997558594</ele>
        <time>2021-09-11T03:51:44.000Z</time>
      </trkpt>
      <trkpt lat="45.21018" lon="5.7317">
        <ele>575.79998779297</ele>
        <time>2021-09-11T03:51:46.000Z</time>
      </trkpt>
      <trkpt lat="45.21018" lon="5.73171">
        <ele>576</ele>
        <time>2021-09-11T03:51:47.000Z</time>
      </trkpt>
      <trkpt lat="45.21019" lon="5.73172">
        <ele>576.20001220703</ele>
        <time>2021-09-11T03:51:48.000Z</time>
      </trkpt>
      <trkpt lat="45.21022" lon="5.73174">
        <ele>576.79998779297</ele>
        <time>2021-09-11T03:51:51.000Z</time>
      </trkpt>
      <trkpt lat="45.21023" lon="5.73175">
        <ele>576.79998779297</ele>
        <time>2021-09-11T03:51:52.000Z</time>
      </trkpt>
      <trkpt lat="45.21023" lon="5.73177">
        <ele>577.20001220703</ele>
        <time>2021-09-11T03:51:53.000Z</time>
      </trkpt>
      <trkpt lat="45.21027" lon="5.7318">
        <ele>578</ele>
        <time>2021-09-11T03:51:56.000Z</time>
      </trkpt>
      <trkpt lat="45.21028" lon="5.7318">
        <ele>578.20001220703</ele>
        <time>2021-09-11T03:51:57.000Z</time>
      </trkpt>
      <trkpt lat="45.21032" lon="5.73185">
        <ele>579</ele>
        <time>2021-09-11T03:52:01.000Z</time>
      </trkpt>
      <trkpt lat="45.21033" lon="5.73186">
        <ele>579.40002441406</ele>
        <time>2021-09-11T03:52:02.000Z</time>
      </trkpt>
      <trkpt lat="45.21036" lon="5.73187">
        <ele>579.79998779297</ele>
        <time>2021-09-11T03:52:04.000Z</time>
      </trkpt>
      <trkpt lat="45.21036" lon="5.73188">
        <ele>580</ele>
        <time>2021-09-11T03:52:05.000Z</time>
      </trkpt>
      <trkpt lat="45.21041" lon="5.73187">
        <ele>581</ele>
        <time>2021-09-11T03:52:08.000Z</time>
      </trkpt>
      <trkpt lat="45.21043" lon="5.73186">
        <ele>581.20001220703</ele>
        <time>2021-09-11T03:52:09.000Z</time>
      </trkpt>
      <trkpt lat="45.21046" lon="5.73186">
        <ele>581.79998779297</ele>
        <time>2021-09-11T03:52:11.000Z</time>
      </trkpt>
      <trkpt lat="45.21049" lon="5.73187">
        <ele>582.40002441406</ele>
        <time>2021-09-11T03:52:13.000Z</time>
      </trkpt>
      <trkpt lat="45.2105" lon="5.73189">
        <ele>582.79998779297</ele>
        <time>2021-09-11T03:52:15.000Z</time>
      </trkpt>
      <trkpt lat="45.21051" lon="5.73192">
        <ele>583.59997558594</ele>
        <time>2021-09-11T03:52:17.000Z</time>
      </trkpt>
      <trkpt lat="45.21052" lon="5.73193">
        <ele>583.79998779297</ele>
        <time>2021-09-11T03:52:19.000Z</time>
      </trkpt>
      <trkpt lat="45.21057" lon="5.73197">
        <ele>584.79998779297</ele>
        <time>2021-09-11T03:52:22.000Z</time>
      </trkpt>
      <trkpt lat="45.21064" lon="5.73205">
        <ele>585.79998779297</ele>
        <time>2021-09-11T03:52:26.000Z</time>
      </trkpt>
      <trkpt lat="45.21071" lon="5.73207">
        <ele>586.79998779297</ele>
        <time>2021-09-11T03:52:31.000Z</time>
      </trkpt>
      <trkpt lat="45.21072" lon="5.73209">
        <ele>587.20001220703</ele>
        <time>2021-09-11T03:52:32.000Z</time>
      </trkpt>
      <trkpt lat="45.21075" lon="5.73212">
        <ele>588.20001220703</ele>
        <time>2021-09-11T03:52:36.000Z</time>
      </trkpt>
      <trkpt lat="45.21077" lon="5.73209">
        <ele>588.59997558594</ele>
        <time>2021-09-11T03:52:38.000Z</time>
      </trkpt>
      <trkpt lat="45.21077" lon="5.73207">
        <ele>589.59997558594</ele>
        <time>2021-09-11T03:52:40.000Z</time>
      </trkpt>
      <trkpt lat="45.21075" lon="5.73204">
        <ele>590.20001220703</ele>
        <time>2021-09-11T03:52:43.000Z</time>
      </trkpt>
      <trkpt lat="45.21073" lon="5.73202">
        <ele>590.79998779297</ele>
        <time>2021-09-11T03:52:45.000Z</time>
      </trkpt>
      <trkpt lat="45.21071" lon="5.73197">
        <ele>591.59997558594</ele>
        <time>2021-09-11T03:52:49.000Z</time>
      </trkpt>
      <trkpt lat="45.2107" lon="5.73196">
        <ele>591.79998779297</ele>
        <time>2021-09-11T03:52:50.000Z</time>
      </trkpt>
      <trkpt lat="45.21068" lon="5.73192">
        <ele>592.59997558594</ele>
        <time>2021-09-11T03:52:53.000Z</time>
      </trkpt>
      <trkpt lat="45.21067" lon="5.73191">
        <ele>593</ele>
        <time>2021-09-11T03:52:54.000Z</time>
      </trkpt>
      <trkpt lat="45.21065" lon="5.73189">
        <ele>593.40002441406</ele>
        <time>2021-09-11T03:52:56.000Z</time>
      </trkpt>
      <trkpt lat="45.21064" lon="5.73188">
        <ele>593.79998779297</ele>
        <time>2021-09-11T03:52:58.000Z</time>
      </trkpt>
      <trkpt lat="45.21061" lon="5.73186">
        <ele>594.20001220703</ele>
        <time>2021-09-11T03:53:00.000Z</time>
      </trkpt>
      <trkpt lat="45.21059" lon="5.73184">
        <ele>594.79998779297</ele>
        <time>2021-09-11T03:53:02.000Z</time>
      </trkpt>
      <trkpt lat="45.21056" lon="5.73183">
        <ele>595.20001220703</ele>
        <time>2021-09-11T03:53:04.000Z</time>
      </trkpt>
      <trkpt lat="45.21054" lon="5.73176">
        <ele>596.40002441406</ele>
        <time>2021-09-11T03:53:08.000Z</time>
      </trkpt>
      <trkpt lat="45.21054" lon="5.73172">
        <ele>597.40002441406</ele>
        <time>2021-09-11T03:53:11.000Z</time>
      </trkpt>
      <trkpt lat="45.21053" lon="5.73171">
        <ele>597.79998779297</ele>
        <time>2021-09-11T03:53:12.000Z</time>
      </trkpt>
      <trkpt lat="45.21051" lon="5.73171">
        <ele>598</ele>
        <time>2021-09-11T03:53:14.000Z</time>
      </trkpt>
      <trkpt lat="45.21048" lon="5.73174">
        <ele>598.40002441406</ele>
        <time>2021-09-11T03:53:16.000Z</time>
      </trkpt>
      <trkpt lat="45.21045" lon="5.73173">
        <ele>598.79998779297</ele>
        <time>2021-09-11T03:53:18.000Z</time>
      </trkpt>
      <trkpt lat="45.21044" lon="5.73172">
        <ele>598.79998779297</ele>
        <time>2021-09-11T03:53:19.000Z</time>
      </trkpt>
      <trkpt lat="45.21043" lon="5.73171">
        <ele>599</ele>
        <time>2021-09-11T03:53:20.000Z</time>
      </trkpt>
      <trkpt lat="45.21038" lon="5.73169">
        <ele>599.79998779297</ele>
        <time>2021-09-11T03:53:23.000Z</time>
      </trkpt>
      <trkpt lat="45.21037" lon="5.73167">
        <ele>600.20001220703</ele>
        <time>2021-09-11T03:53:25.000Z</time>
      </trkpt>
      <trkpt lat="45.21034" lon="5.73164">
        <ele>601</ele>
        <time>2021-09-11T03:53:28.000Z</time>
      </trkpt>
      <trkpt lat="45.21031" lon="5.73157">
        <ele>601.59997558594</ele>
        <time>2021-09-11T03:53:32.000Z</time>
      </trkpt>
      <trkpt lat="45.2103" lon="5.73156">
        <ele>602</ele>
        <time>2021-09-11T03:53:33.000Z</time>
      </trkpt>
      <trkpt lat="45.21028" lon="5.73154">
        <ele>602.59997558594</ele>
        <time>2021-09-11T03:53:35.000Z</time>
      </trkpt>
      <trkpt lat="45.21026" lon="5.73151">
        <ele>603.40002441406</ele>
        <time>2021-09-11T03:53:38.000Z</time>
      </trkpt>
      <trkpt lat="45.21023" lon="5.73148">
        <ele>604.40002441406</ele>
        <time>2021-09-11T03:53:43.000Z</time>
      </trkpt>
      <trkpt lat="45.21023" lon="5.73148">
        <ele>604.59997558594</ele>
        <time>2021-09-11T03:53:44.000Z</time>
      </trkpt>
      <trkpt lat="45.21022" lon="5.73147">
        <ele>604.79998779297</ele>
        <time>2021-09-11T03:53:45.000Z</time>
      </trkpt>
      <trkpt lat="45.21022" lon="5.73146">
        <ele>605.40002441406</ele>
        <time>2021-09-11T03:53:47.000Z</time>
      </trkpt>
      <trkpt lat="45.21022" lon="5.73146">
        <ele>605.59997558594</ele>
        <time>2021-09-11T03:53:48.000Z</time>
      </trkpt>
      <trkpt lat="45.21022" lon="5.73145">
        <ele>606</ele>
        <time>2021-09-11T03:53:49.000Z</time>
      </trkpt>
      <trkpt lat="45.21021" lon="5.73145">
        <ele>606.59997558594</ele>
        <time>2021-09-11T03:53:50.000Z</time>
      </trkpt>
      <trkpt lat="45.21021" lon="5.73146">
        <ele>607</ele>
        <time>2021-09-11T03:53:51.000Z</time>
      </trkpt>
      <trkpt lat="45.21018" lon="5.73148">
        <ele>607.59997558594</ele>
        <time>2021-09-11T03:53:54.000Z</time>
      </trkpt>
      <trkpt lat="45.21018" lon="5.73149">
        <ele>607.79998779297</ele>
        <time>2021-09-11T03:53:55.000Z</time>
      </trkpt>
      <trkpt lat="45.21015" lon="5.73145">
        <ele>608.20001220703</ele>
        <time>2021-09-11T03:53:58.000Z</time>
      </trkpt>
      <trkpt lat="45.21014" lon="5.73145">
        <ele>608.20001220703</ele>
        <time>2021-09-11T03:54:00.000Z</time>
      </trkpt>
      <trkpt lat="45.21013" lon="5.73146">
        <ele>608.40002441406</ele>
        <time>2021-09-11T03:54:01.000Z</time>
      </trkpt>
      <trkpt lat="45.21012" lon="5.73148">
        <ele>608.79998779297</ele>
        <time>2021-09-11T03:54:03.000Z</time>
      </trkpt>
      <trkpt lat="45.21012" lon="5.7315">
        <ele>609</ele>
        <time>2021-09-11T03:54:04.000Z</time>
      </trkpt>
      <trkpt lat="45.21011" lon="5.73152">
        <ele>609</ele>
        <time>2021-09-11T03:54:05.000Z</time>
      </trkpt>
      <trkpt lat="45.21009" lon="5.73152">
        <ele>609.20001220703</ele>
        <time>2021-09-11T03:54:07.000Z</time>
      </trkpt>
      <trkpt lat="45.21008" lon="5.73151">
        <ele>609.59997558594</ele>
        <time>2021-09-11T03:54:08.000Z</time>
      </trkpt>
      <trkpt lat="45.21006" lon="5.7315">
        <ele>610.59997558594</ele>
        <time>2021-09-11T03:54:11.000Z</time>
      </trkpt>
      <trkpt lat="45.21005" lon="5.73149">
        <ele>611</ele>
        <time>2021-09-11T03:54:12.000Z</time>
      </trkpt>
      <trkpt lat="45.21001" lon="5.73152">
        <ele>611.59997558594</ele>
        <time>2021-09-11T03:54:15.000Z</time>
      </trkpt>
      <trkpt lat="45.21" lon="5.73153">
        <ele>612</ele>
        <time>2021-09-11T03:54:16.000Z</time>
      </trkpt>
      <trkpt lat="45.20996" lon="5.73152">
        <ele>612.79998779297</ele>
        <time>2021-09-11T03:54:19.000Z</time>
      </trkpt>
      <trkpt lat="45.20995" lon="5.73153">
        <ele>613.20001220703</ele>
        <time>2021-09-11T03:54:20.000Z</time>
      </trkpt>
      <trkpt lat="45.20992" lon="5.73153">
        <ele>613.59997558594</ele>
        <time>2021-09-11T03:54:21.000Z</time>
      </trkpt>
      <trkpt lat="45.20988" lon="5.73151">
        <ele>614</ele>
        <time>2021-09-11T03:54:23.000Z</time>
      </trkpt>
      <trkpt lat="45.20988" lon="5.73147">
        <ele>614.79998779297</ele>
        <time>2021-09-11T03:54:25.000Z</time>
      </trkpt>
      <trkpt lat="45.20989" lon="5.73144">
        <ele>615</ele>
        <time>2021-09-11T03:54:26.000Z</time>
      </trkpt>
      <trkpt lat="45.20991" lon="5.73132">
        <ele>616.40002441406</ele>
        <time>2021-09-11T03:54:31.000Z</time>
      </trkpt>
      <trkpt lat="45.20992" lon="5.73129">
        <ele>616.59997558594</ele>
        <time>2021-09-11T03:54:33.000Z</time>
      </trkpt>
      <trkpt lat="45.20993" lon="5.73129">
        <ele>617</ele>
        <time>2021-09-11T03:54:35.000Z</time>
      </trkpt>
      <trkpt lat="45.20994" lon="5.73127">
        <ele>617.40002441406</ele>
        <time>2021-09-11T03:54:36.000Z</time>
      </trkpt>
      <trkpt lat="45.20994" lon="5.73125">
        <ele>617.79998779297</ele>
        <time>2021-09-11T03:54:38.000Z</time>
      </trkpt>
      <trkpt lat="45.20997" lon="5.73123">
        <ele>618.40002441406</ele>
        <time>2021-09-11T03:54:40.000Z</time>
      </trkpt>
      <trkpt lat="45.21" lon="5.73118">
        <ele>619.59997558594</ele>
        <time>2021-09-11T03:54:44.000Z</time>
      </trkpt>
      <trkpt lat="45.20999" lon="5.73118">
        <ele>619.79998779297</ele>
        <time>2021-09-11T03:54:45.000Z</time>
      </trkpt>
      <trkpt lat="45.20999" lon="5.73117">
        <ele>620.40002441406</ele>
        <time>2021-09-11T03:54:47.000Z</time>
      </trkpt>
      <trkpt lat="45.21" lon="5.73115">
        <ele>620.59997558594</ele>
        <time>2021-09-11T03:54:48.000Z</time>
      </trkpt>
      <trkpt lat="45.21001" lon="5.73115">
        <ele>620.79998779297</ele>
        <time>2021-09-11T03:54:49.000Z</time>
      </trkpt>
      <trkpt lat="45.21003" lon="5.73114">
        <ele>621</ele>
        <time>2021-09-11T03:54:50.000Z</time>
      </trkpt>
      <trkpt lat="45.21005" lon="5.73112">
        <ele>621.59997558594</ele>
        <time>2021-09-11T03:54:52.000Z</time>
      </trkpt>
      <trkpt lat="45.21008" lon="5.7311">
        <ele>621.79998779297</ele>
        <time>2021-09-11T03:54:54.000Z</time>
      </trkpt>
      <trkpt lat="45.21013" lon="5.7311">
        <ele>622.79998779297</ele>
        <time>2021-09-11T03:54:57.000Z</time>
      </trkpt>
      <trkpt lat="45.21015" lon="5.7311">
        <ele>623</ele>
        <time>2021-09-11T03:54:58.000Z</time>
      </trkpt>
      <trkpt lat="45.21015" lon="5.7311">
        <ele>623</ele>
        <time>2021-09-11T03:54:59.000Z</time>
      </trkpt>
      <trkpt lat="45.21015" lon="5.73106">
        <ele>623.40002441406</ele>
        <time>2021-09-11T03:55:02.000Z</time>
      </trkpt>
      <trkpt lat="45.21016" lon="5.73105">
        <ele>623.40002441406</ele>
        <time>2021-09-11T03:55:03.000Z</time>
      </trkpt>
      <trkpt lat="45.21019" lon="5.73104">
        <ele>623.79998779297</ele>
        <time>2021-09-11T03:55:06.000Z</time>
      </trkpt>
      <trkpt lat="45.21021" lon="5.73107">
        <ele>623.79998779297</ele>
        <time>2021-09-11T03:55:08.000Z</time>
      </trkpt>
      <trkpt lat="45.21023" lon="5.73109">
        <ele>623.79998779297</ele>
        <time>2021-09-11T03:55:09.000Z</time>
      </trkpt>
      <trkpt lat="45.21025" lon="5.7311">
        <ele>624.20001220703</ele>
        <time>2021-09-11T03:55:11.000Z</time>
      </trkpt>
      <trkpt lat="45.21027" lon="5.73109">
        <ele>624.40002441406</ele>
        <time>2021-09-11T03:55:12.000Z</time>
      </trkpt>
      <trkpt lat="45.21028" lon="5.73109">
        <ele>624.79998779297</ele>
        <time>2021-09-11T03:55:13.000Z</time>
      </trkpt>
      <trkpt lat="45.21031" lon="5.7311">
        <ele>625</ele>
        <time>2021-09-11T03:55:15.000Z</time>
      </trkpt>
      <trkpt lat="45.21032" lon="5.73111">
        <ele>625.40002441406</ele>
        <time>2021-09-11T03:55:16.000Z</time>
      </trkpt>
      <trkpt lat="45.21035" lon="5.73112">
        <ele>626</ele>
        <time>2021-09-11T03:55:18.000Z</time>
      </trkpt>
      <trkpt lat="45.21036" lon="5.73113">
        <ele>626</ele>
        <time>2021-09-11T03:55:19.000Z</time>
      </trkpt>
      <trkpt lat="45.21037" lon="5.73114">
        <ele>626.59997558594</ele>
        <time>2021-09-11T03:55:20.000Z</time>
      </trkpt>
      <trkpt lat="45.2104" lon="5.73117">
        <ele>627</ele>
        <time>2021-09-11T03:55:22.000Z</time>
      </trkpt>
      <trkpt lat="45.21044" lon="5.73118">
        <ele>627.40002441406</ele>
        <time>2021-09-11T03:55:24.000Z</time>
      </trkpt>
      <trkpt lat="45.21045" lon="5.73119">
        <ele>627.79998779297</ele>
        <time>2021-09-11T03:55:25.000Z</time>
      </trkpt>
      <trkpt lat="45.21048" lon="5.73122">
        <ele>628.40002441406</ele>
        <time>2021-09-11T03:55:27.000Z</time>
      </trkpt>
      <trkpt lat="45.2105" lon="5.73122">
        <ele>628.59997558594</ele>
        <time>2021-09-11T03:55:28.000Z</time>
      </trkpt>
      <trkpt lat="45.21052" lon="5.73122">
        <ele>628.79998779297</ele>
        <time>2021-09-11T03:55:29.000Z</time>
      </trkpt>
      <trkpt lat="45.21058" lon="5.73119">
        <ele>630</ele>
        <time>2021-09-11T03:55:32.000Z</time>
      </trkpt>
      <trkpt lat="45.21063" lon="5.73117">
        <ele>630.79998779297</ele>
        <time>2021-09-11T03:55:35.000Z</time>
      </trkpt>
      <trkpt lat="45.21065" lon="5.73117">
        <ele>631.20001220703</ele>
        <time>2021-09-11T03:55:36.000Z</time>
      </trkpt>
      <trkpt lat="45.21067" lon="5.73115">
        <ele>631.59997558594</ele>
        <time>2021-09-11T03:55:37.000Z</time>
      </trkpt>
      <trkpt lat="45.21071" lon="5.73111">
        <ele>632.40002441406</ele>
        <time>2021-09-11T03:55:40.000Z</time>
      </trkpt>
      <trkpt lat="45.21073" lon="5.73111">
        <ele>632.79998779297</ele>
        <time>2021-09-11T03:55:41.000Z</time>
      </trkpt>
      <trkpt lat="45.21075" lon="5.73112">
        <ele>632.79998779297</ele>
        <time>2021-09-11T03:55:42.000Z</time>
      </trkpt>
      <trkpt lat="45.21079" lon="5.73118">
        <ele>633.59997558594</ele>
        <time>2021-09-11T03:55:46.000Z</time>
      </trkpt>
      <trkpt lat="45.21081" lon="5.73119">
        <ele>633.79998779297</ele>
        <time>2021-09-11T03:55:48.000Z</time>
      </trkpt>
      <trkpt lat="45.21085" lon="5.7312">
        <ele>634.59997558594</ele>
        <time>2021-09-11T03:55:51.000Z</time>
      </trkpt>
      <trkpt lat="45.21086" lon="5.73122">
        <ele>634.59997558594</ele>
        <time>2021-09-11T03:55:52.000Z</time>
      </trkpt>
      <trkpt lat="45.21088" lon="5.73125">
        <ele>635.20001220703</ele>
        <time>2021-09-11T03:55:54.000Z</time>
      </trkpt>
      <trkpt lat="45.2109" lon="5.73128">
        <ele>635.59997558594</ele>
        <time>2021-09-11T03:55:56.000Z</time>
      </trkpt>
      <trkpt lat="45.21091" lon="5.7313">
        <ele>635.79998779297</ele>
        <time>2021-09-11T03:55:57.000Z</time>
      </trkpt>
      <trkpt lat="45.21093" lon="5.73136">
        <ele>636.79998779297</ele>
        <time>2021-09-11T03:56:00.000Z</time>
      </trkpt>
      <trkpt lat="45.21096" lon="5.73142">
        <ele>637.59997558594</ele>
        <time>2021-09-11T03:56:03.000Z</time>
      </trkpt>
      <trkpt lat="45.21098" lon="5.73145">
        <ele>637.79998779297</ele>
        <time>2021-09-11T03:56:05.000Z</time>
      </trkpt>
      <trkpt lat="45.211" lon="5.73147">
        <ele>638.79998779297</ele>
        <time>2021-09-11T03:56:07.000Z</time>
      </trkpt>
      <trkpt lat="45.21106" lon="5.73148">
        <ele>640</ele>
        <time>2021-09-11T03:56:11.000Z</time>
      </trkpt>
      <trkpt lat="45.21113" lon="5.73143">
        <ele>641.59997558594</ele>
        <time>2021-09-11T03:56:15.000Z</time>
      </trkpt>
      <trkpt lat="45.21118" lon="5.73139">
        <ele>642.59997558594</ele>
        <time>2021-09-11T03:56:20.000Z</time>
      </trkpt>
      <trkpt lat="45.21119" lon="5.73139">
        <ele>642.59997558594</ele>
        <time>2021-09-11T03:56:21.000Z</time>
      </trkpt>
      <trkpt lat="45.21121" lon="5.73139">
        <ele>643.40002441406</ele>
        <time>2021-09-11T03:56:24.000Z</time>
      </trkpt>
      <trkpt lat="45.21122" lon="5.73139">
        <ele>643.59997558594</ele>
        <time>2021-09-11T03:56:25.000Z</time>
      </trkpt>
      <trkpt lat="45.21126" lon="5.73137">
        <ele>644.79998779297</ele>
        <time>2021-09-11T03:56:29.000Z</time>
      </trkpt>
      <trkpt lat="45.21127" lon="5.73137">
        <ele>645.20001220703</ele>
        <time>2021-09-11T03:56:30.000Z</time>
      </trkpt>
      <trkpt lat="45.21127" lon="5.73138">
        <ele>645.59997558594</ele>
        <time>2021-09-11T03:56:32.000Z</time>
      </trkpt>
      <trkpt lat="45.21127" lon="5.73139">
        <ele>645.79998779297</ele>
        <time>2021-09-11T03:56:33.000Z</time>
      </trkpt>
      <trkpt lat="45.21127" lon="5.73138">
        <ele>646.40002441406</ele>
        <time>2021-09-11T03:56:34.000Z</time>
      </trkpt>
      <trkpt lat="45.21125" lon="5.73138">
        <ele>647</ele>
        <time>2021-09-11T03:56:36.000Z</time>
      </trkpt>
      <trkpt lat="45.21123" lon="5.73137">
        <ele>647.40002441406</ele>
        <time>2021-09-11T03:56:38.000Z</time>
      </trkpt>
      <trkpt lat="45.21122" lon="5.73137">
        <ele>648</ele>
        <time>2021-09-11T03:56:40.000Z</time>
      </trkpt>
      <trkpt lat="45.21119" lon="5.73137">
        <ele>648.59997558594</ele>
        <time>2021-09-11T03:56:42.000Z</time>
      </trkpt>
      <trkpt lat="45.21118" lon="5.73138">
        <ele>648.79998779297</ele>
        <time>2021-09-11T03:56:43.000Z</time>
      </trkpt>
      <trkpt lat="45.21115" lon="5.73139">
        <ele>649.59997558594</ele>
        <time>2021-09-11T03:56:46.000Z</time>
      </trkpt>
      <trkpt lat="45.21113" lon="5.73141">
        <ele>650</ele>
        <time>2021-09-11T03:56:48.000Z</time>
      </trkpt>
      <trkpt lat="45.21112" lon="5.73142">
        <ele>650.20001220703</ele>
        <time>2021-09-11T03:56:49.000Z</time>
      </trkpt>
      <trkpt lat="45.21109" lon="5.73142">
        <ele>650.79998779297</ele>
        <time>2021-09-11T03:56:52.000Z</time>
      </trkpt>
      <trkpt lat="45.21108" lon="5.73141">
        <ele>651.79998779297</ele>
        <time>2021-09-11T03:56:55.000Z</time>
      </trkpt>
      <trkpt lat="45.2111" lon="5.73139">
        <ele>652.20001220703</ele>
        <time>2021-09-11T03:56:56.000Z</time>
      </trkpt>
      <trkpt lat="45.21112" lon="5.73137">
        <ele>652.79998779297</ele>
        <time>2021-09-11T03:56:58.000Z</time>
      </trkpt>
      <trkpt lat="45.21112" lon="5.73135">
        <ele>653</ele>
        <time>2021-09-11T03:56:59.000Z</time>
      </trkpt>
      <trkpt lat="45.21116" lon="5.7313">
        <ele>653.79998779297</ele>
        <time>2021-09-11T03:57:02.000Z</time>
      </trkpt>
      <trkpt lat="45.21117" lon="5.73129">
        <ele>654</ele>
        <time>2021-09-11T03:57:03.000Z</time>
      </trkpt>
      <trkpt lat="45.21118" lon="5.73127">
        <ele>654.79998779297</ele>
        <time>2021-09-11T03:57:07.000Z</time>
      </trkpt>
      <trkpt lat="45.21118" lon="5.73125">
        <ele>655.20001220703</ele>
        <time>2021-09-11T03:57:08.000Z</time>
      </trkpt>
      <trkpt lat="45.2112" lon="5.73123">
        <ele>655.79998779297</ele>
        <time>2021-09-11T03:57:11.000Z</time>
      </trkpt>
      <trkpt lat="45.21121" lon="5.73123">
        <ele>656</ele>
        <time>2021-09-11T03:57:13.000Z</time>
      </trkpt>
      <trkpt lat="45.21122" lon="5.73122">
        <ele>656.40002441406</ele>
        <time>2021-09-11T03:57:14.000Z</time>
      </trkpt>
      <trkpt lat="45.21124" lon="5.73122">
        <ele>657</ele>
        <time>2021-09-11T03:57:16.000Z</time>
      </trkpt>
      <trkpt lat="45.21126" lon="5.73121">
        <ele>657.59997558594</ele>
        <time>2021-09-11T03:57:18.000Z</time>
      </trkpt>
      <trkpt lat="45.21127" lon="5.73122">
        <ele>657.79998779297</ele>
        <time>2021-09-11T03:57:19.000Z</time>
      </trkpt>
      <trkpt lat="45.21129" lon="5.73121">
        <ele>658.20001220703</ele>
        <time>2021-09-11T03:57:21.000Z</time>
      </trkpt>
      <trkpt lat="45.21129" lon="5.73121">
        <ele>658.59997558594</ele>
        <time>2021-09-11T03:57:22.000Z</time>
      </trkpt>
      <trkpt lat="45.21131" lon="5.73121">
        <ele>659.20001220703</ele>
        <time>2021-09-11T03:57:23.000Z</time>
      </trkpt>
      <trkpt lat="45.21135" lon="5.73119">
        <ele>659.79998779297</ele>
        <time>2021-09-11T03:57:25.000Z</time>
      </trkpt>
      <trkpt lat="45.21138" lon="5.73118">
        <ele>660</ele>
        <time>2021-09-11T03:57:26.000Z</time>
      </trkpt>
      <trkpt lat="45.21141" lon="5.7312">
        <ele>660.40002441406</ele>
        <time>2021-09-11T03:57:28.000Z</time>
      </trkpt>
      <trkpt lat="45.21144" lon="5.73121">
        <ele>660.79998779297</ele>
        <time>2021-09-11T03:57:30.000Z</time>
      </trkpt>
      <trkpt lat="45.21145" lon="5.73121">
        <ele>660.79998779297</ele>
        <time>2021-09-11T03:57:31.000Z</time>
      </trkpt>
      <trkpt lat="45.21146" lon="5.73125">
        <ele>661.20001220703</ele>
        <time>2021-09-11T03:57:34.000Z</time>
      </trkpt>
      <trkpt lat="45.21147" lon="5.73126">
        <ele>661.59997558594</ele>
        <time>2021-09-11T03:57:35.000Z</time>
      </trkpt>
      <trkpt lat="45.21148" lon="5.73128">
        <ele>661.79998779297</ele>
        <time>2021-09-11T03:57:36.000Z</time>
      </trkpt>
      <trkpt lat="45.21149" lon="5.73132">
        <ele>662.20001220703</ele>
        <time>2021-09-11T03:57:38.000Z</time>
      </trkpt>
      <trkpt lat="45.21151" lon="5.73135">
        <ele>662.79998779297</ele>
        <time>2021-09-11T03:57:40.000Z</time>
      </trkpt>
      <trkpt lat="45.21155" lon="5.73136">
        <ele>663.59997558594</ele>
        <time>2021-09-11T03:57:43.000Z</time>
      </trkpt>
      <trkpt lat="45.21156" lon="5.73138">
        <ele>664.20001220703</ele>
        <time>2021-09-11T03:57:45.000Z</time>
      </trkpt>
      <trkpt lat="45.21157" lon="5.7314">
        <ele>664.40002441406</ele>
        <time>2021-09-11T03:57:46.000Z</time>
      </trkpt>
      <trkpt lat="45.21159" lon="5.73144">
        <ele>665.20001220703</ele>
        <time>2021-09-11T03:57:48.000Z</time>
      </trkpt>
      <trkpt lat="45.21161" lon="5.73148">
        <ele>665.59997558594</ele>
        <time>2021-09-11T03:57:50.000Z</time>
      </trkpt>
      <trkpt lat="45.21163" lon="5.7315">
        <ele>666.40002441406</ele>
        <time>2021-09-11T03:57:52.000Z</time>
      </trkpt>
      <trkpt lat="45.21164" lon="5.73152">
        <ele>666.59997558594</ele>
        <time>2021-09-11T03:57:53.000Z</time>
      </trkpt>
      <trkpt lat="45.21169" lon="5.73156">
        <ele>667.79998779297</ele>
        <time>2021-09-11T03:57:57.000Z</time>
      </trkpt>
      <trkpt lat="45.2117" lon="5.73157">
        <ele>668</ele>
        <time>2021-09-11T03:57:58.000Z</time>
      </trkpt>
      <trkpt lat="45.21171" lon="5.73159">
        <ele>668.20001220703</ele>
        <time>2021-09-11T03:57:59.000Z</time>
      </trkpt>
      <trkpt lat="45.21173" lon="5.7316">
        <ele>668.79998779297</ele>
        <time>2021-09-11T03:58:01.000Z</time>
      </trkpt>
      <trkpt lat="45.21174" lon="5.73163">
        <ele>669.59997558594</ele>
        <time>2021-09-11T03:58:03.000Z</time>
      </trkpt>
      <trkpt lat="45.21177" lon="5.73166">
        <ele>670</ele>
        <time>2021-09-11T03:58:05.000Z</time>
      </trkpt>
      <trkpt lat="45.21178" lon="5.73166">
        <ele>670.20001220703</ele>
        <time>2021-09-11T03:58:06.000Z</time>
      </trkpt>
      <trkpt lat="45.21181" lon="5.73172">
        <ele>671</ele>
        <time>2021-09-11T03:58:09.000Z</time>
      </trkpt>
      <trkpt lat="45.21183" lon="5.73175">
        <ele>671.20001220703</ele>
        <time>2021-09-11T03:58:11.000Z</time>
      </trkpt>
      <trkpt lat="45.21186" lon="5.73179">
        <ele>672.20001220703</ele>
        <time>2021-09-11T03:58:14.000Z</time>
      </trkpt>
      <trkpt lat="45.21189" lon="5.73186">
        <ele>673.20001220703</ele>
        <time>2021-09-11T03:58:18.000Z</time>
      </trkpt>
      <trkpt lat="45.2119" lon="5.73187">
        <ele>673.40002441406</ele>
        <time>2021-09-11T03:58:19.000Z</time>
      </trkpt>
      <trkpt lat="45.2119" lon="5.7319">
        <ele>673.59997558594</ele>
        <time>2021-09-11T03:58:20.000Z</time>
      </trkpt>
      <trkpt lat="45.21192" lon="5.73195">
        <ele>674.40002441406</ele>
        <time>2021-09-11T03:58:23.000Z</time>
      </trkpt>
      <trkpt lat="45.21195" lon="5.73199">
        <ele>675.20001220703</ele>
        <time>2021-09-11T03:58:26.000Z</time>
      </trkpt>
      <trkpt lat="45.21197" lon="5.732">
        <ele>675.59997558594</ele>
        <time>2021-09-11T03:58:27.000Z</time>
      </trkpt>
      <trkpt lat="45.21198" lon="5.73202">
        <ele>676</ele>
        <time>2021-09-11T03:58:28.000Z</time>
      </trkpt>
      <trkpt lat="45.21201" lon="5.73204">
        <ele>676.59997558594</ele>
        <time>2021-09-11T03:58:30.000Z</time>
      </trkpt>
      <trkpt lat="45.21203" lon="5.73205">
        <ele>677</ele>
        <time>2021-09-11T03:58:32.000Z</time>
      </trkpt>
      <trkpt lat="45.21205" lon="5.73207">
        <ele>677.79998779297</ele>
        <time>2021-09-11T03:58:34.000Z</time>
      </trkpt>
      <trkpt lat="45.21208" lon="5.73212">
        <ele>679</ele>
        <time>2021-09-11T03:58:38.000Z</time>
      </trkpt>
      <trkpt lat="45.21211" lon="5.73217">
        <ele>679.79998779297</ele>
        <time>2021-09-11T03:58:41.000Z</time>
      </trkpt>
      <trkpt lat="45.21213" lon="5.73219">
        <ele>680.40002441406</ele>
        <time>2021-09-11T03:58:43.000Z</time>
      </trkpt>
      <trkpt lat="45.21216" lon="5.73221">
        <ele>681</ele>
        <time>2021-09-11T03:58:45.000Z</time>
      </trkpt>
      <trkpt lat="45.21218" lon="5.73222">
        <ele>681.20001220703</ele>
        <time>2021-09-11T03:58:47.000Z</time>
      </trkpt>
      <trkpt lat="45.2122" lon="5.73223">
        <ele>681.40002441406</ele>
        <time>2021-09-11T03:58:48.000Z</time>
      </trkpt>
      <trkpt lat="45.21222" lon="5.73224">
        <ele>682</ele>
        <time>2021-09-11T03:58:50.000Z</time>
      </trkpt>
      <trkpt lat="45.21224" lon="5.73224">
        <ele>682.59997558594</ele>
        <time>2021-09-11T03:58:52.000Z</time>
      </trkpt>
      <trkpt lat="45.21225" lon="5.73225">
        <ele>682.79998779297</ele>
        <time>2021-09-11T03:58:53.000Z</time>
      </trkpt>
      <trkpt lat="45.21226" lon="5.73226">
        <ele>683</ele>
        <time>2021-09-11T03:58:54.000Z</time>
      </trkpt>
      <trkpt lat="45.21229" lon="5.73227">
        <ele>683.79998779297</ele>
        <time>2021-09-11T03:58:56.000Z</time>
      </trkpt>
      <trkpt lat="45.21231" lon="5.73228">
        <ele>684.40002441406</ele>
        <time>2021-09-11T03:58:58.000Z</time>
      </trkpt>
      <trkpt lat="45.21232" lon="5.73229">
        <ele>684.79998779297</ele>
        <time>2021-09-11T03:58:59.000Z</time>
      </trkpt>
      <trkpt lat="45.21233" lon="5.7323">
        <ele>685.20001220703</ele>
        <time>2021-09-11T03:59:00.000Z</time>
      </trkpt>
      <trkpt lat="45.21236" lon="5.73232">
        <ele>686</ele>
        <time>2021-09-11T03:59:03.000Z</time>
      </trkpt>
      <trkpt lat="45.21238" lon="5.73234">
        <ele>686.59997558594</ele>
        <time>2021-09-11T03:59:05.000Z</time>
      </trkpt>
      <trkpt lat="45.2124" lon="5.73235">
        <ele>687.20001220703</ele>
        <time>2021-09-11T03:59:07.000Z</time>
      </trkpt>
      <trkpt lat="45.21242" lon="5.73241">
        <ele>688.40002441406</ele>
        <time>2021-09-11T03:59:11.000Z</time>
      </trkpt>
      <trkpt lat="45.21247" lon="5.73246">
        <ele>689.40002441406</ele>
        <time>2021-09-11T03:59:16.000Z</time>
      </trkpt>
      <trkpt lat="45.21248" lon="5.73247">
        <ele>689.59997558594</ele>
        <time>2021-09-11T03:59:17.000Z</time>
      </trkpt>
      <trkpt lat="45.21253" lon="5.73257">
        <ele>690.40002441406</ele>
        <time>2021-09-11T03:59:22.000Z</time>
      </trkpt>
      <trkpt lat="45.21255" lon="5.73257">
        <ele>690.79998779297</ele>
        <time>2021-09-11T03:59:23.000Z</time>
      </trkpt>
      <trkpt lat="45.21259" lon="5.73258">
        <ele>691.59997558594</ele>
        <time>2021-09-11T03:59:25.000Z</time>
      </trkpt>
      <trkpt lat="45.21267" lon="5.73261">
        <ele>692.59997558594</ele>
        <time>2021-09-11T03:59:30.000Z</time>
      </trkpt>
      <trkpt lat="45.21271" lon="5.73265">
        <ele>694</ele>
        <time>2021-09-11T03:59:34.000Z</time>
      </trkpt>
      <trkpt lat="45.21272" lon="5.73266">
        <ele>694.40002441406</ele>
        <time>2021-09-11T03:59:35.000Z</time>
      </trkpt>
      <trkpt lat="45.21274" lon="5.73268">
        <ele>695</ele>
        <time>2021-09-11T03:59:38.000Z</time>
      </trkpt>
      <trkpt lat="45.21276" lon="5.73271">
        <ele>695.40002441406</ele>
        <time>2021-09-11T03:59:40.000Z</time>
      </trkpt>
      <trkpt lat="45.21279" lon="5.73273">
        <ele>696.40002441406</ele>
        <time>2021-09-11T03:59:43.000Z</time>
      </trkpt>
      <trkpt lat="45.21281" lon="5.73274">
        <ele>696.79998779297</ele>
        <time>2021-09-11T03:59:44.000Z</time>
      </trkpt>
      <trkpt lat="45.21282" lon="5.73273">
        <ele>697.20001220703</ele>
        <time>2021-09-11T03:59:45.000Z</time>
      </trkpt>
      <trkpt lat="45.21285" lon="5.73273">
        <ele>697.59997558594</ele>
        <time>2021-09-11T03:59:46.000Z</time>
      </trkpt>
      <trkpt lat="45.21288" lon="5.73275">
        <ele>698.20001220703</ele>
        <time>2021-09-11T03:59:48.000Z</time>
      </trkpt>
      <trkpt lat="45.2129" lon="5.73283">
        <ele>698.59997558594</ele>
        <time>2021-09-11T03:59:51.000Z</time>
      </trkpt>
      <trkpt lat="45.21292" lon="5.73288">
        <ele>699.59997558594</ele>
        <time>2021-09-11T03:59:54.000Z</time>
      </trkpt>
      <trkpt lat="45.21293" lon="5.73289">
        <ele>699.79998779297</ele>
        <time>2021-09-11T03:59:55.000Z</time>
      </trkpt>
      <trkpt lat="45.21294" lon="5.7329">
        <ele>700</ele>
        <time>2021-09-11T03:59:56.000Z</time>
      </trkpt>
      <trkpt lat="45.21295" lon="5.73291">
        <ele>700</ele>
        <time>2021-09-11T03:59:57.000Z</time>
      </trkpt>
      <trkpt lat="45.21296" lon="5.73291">
        <ele>700.20001220703</ele>
        <time>2021-09-11T03:59:59.000Z</time>
      </trkpt>
      <trkpt lat="45.21299" lon="5.73292">
        <ele>701</ele>
        <time>2021-09-11T04:00:02.000Z</time>
      </trkpt>
      <trkpt lat="45.21299" lon="5.73293">
        <ele>701.20001220703</ele>
        <time>2021-09-11T04:00:03.000Z</time>
      </trkpt>
      <trkpt lat="45.21302" lon="5.7329">
        <ele>702.20001220703</ele>
        <time>2021-09-11T04:00:05.000Z</time>
      </trkpt>
      <trkpt lat="45.21303" lon="5.73288">
        <ele>702.40002441406</ele>
        <time>2021-09-11T04:00:06.000Z</time>
      </trkpt>
      <trkpt lat="45.21307" lon="5.73286">
        <ele>703.20001220703</ele>
        <time>2021-09-11T04:00:09.000Z</time>
      </trkpt>
      <trkpt lat="45.21308" lon="5.73285">
        <ele>703.59997558594</ele>
        <time>2021-09-11T04:00:10.000Z</time>
      </trkpt>
      <trkpt lat="45.21311" lon="5.73284">
        <ele>704</ele>
        <time>2021-09-11T04:00:12.000Z</time>
      </trkpt>
      <trkpt lat="45.21314" lon="5.73283">
        <ele>704.40002441406</ele>
        <time>2021-09-11T04:00:14.000Z</time>
      </trkpt>
      <trkpt lat="45.21321" lon="5.73279">
        <ele>705.59997558594</ele>
        <time>2021-09-11T04:00:18.000Z</time>
      </trkpt>
      <trkpt lat="45.21326" lon="5.73282">
        <ele>707</ele>
        <time>2021-09-11T04:00:22.000Z</time>
      </trkpt>
      <trkpt lat="45.21327" lon="5.73283">
        <ele>707.20001220703</ele>
        <time>2021-09-11T04:00:23.000Z</time>
      </trkpt>
      <trkpt lat="45.21327" lon="5.73286">
        <ele>707.59997558594</ele>
        <time>2021-09-11T04:00:25.000Z</time>
      </trkpt>
      <trkpt lat="45.21331" lon="5.73298">
        <ele>708.20001220703</ele>
        <time>2021-09-11T04:00:31.000Z</time>
      </trkpt>
      <trkpt lat="45.21332" lon="5.73302">
        <ele>708.59997558594</ele>
        <time>2021-09-11T04:00:33.000Z</time>
      </trkpt>
      <trkpt lat="45.21333" lon="5.73303">
        <ele>708.79998779297</ele>
        <time>2021-09-11T04:00:34.000Z</time>
      </trkpt>
      <trkpt lat="45.21334" lon="5.73306">
        <ele>709.20001220703</ele>
        <time>2021-09-11T04:00:36.000Z</time>
      </trkpt>
      <trkpt lat="45.21335" lon="5.73307">
        <ele>709.59997558594</ele>
        <time>2021-09-11T04:00:38.000Z</time>
      </trkpt>
      <trkpt lat="45.21336" lon="5.73309">
        <ele>710</ele>
        <time>2021-09-11T04:00:40.000Z</time>
      </trkpt>
      <trkpt lat="45.21337" lon="5.73311">
        <ele>710.40002441406</ele>
        <time>2021-09-11T04:00:41.000Z</time>
      </trkpt>
      <trkpt lat="45.21338" lon="5.73314">
        <ele>711</ele>
        <time>2021-09-11T04:00:43.000Z</time>
      </trkpt>
      <trkpt lat="45.2134" lon="5.73315">
        <ele>711.59997558594</ele>
        <time>2021-09-11T04:00:45.000Z</time>
      </trkpt>
      <trkpt lat="45.21342" lon="5.73317">
        <ele>712.20001220703</ele>
        <time>2021-09-11T04:00:47.000Z</time>
      </trkpt>
      <trkpt lat="45.21343" lon="5.73318">
        <ele>712.40002441406</ele>
        <time>2021-09-11T04:00:48.000Z</time>
      </trkpt>
      <trkpt lat="45.21345" lon="5.7332">
        <ele>712.59997558594</ele>
        <time>2021-09-11T04:00:49.000Z</time>
      </trkpt>
      <trkpt lat="45.21348" lon="5.73325">
        <ele>713.40002441406</ele>
        <time>2021-09-11T04:00:53.000Z</time>
      </trkpt>
      <trkpt lat="45.21349" lon="5.73327">
        <ele>713.59997558594</ele>
        <time>2021-09-11T04:00:54.000Z</time>
      </trkpt>
      <trkpt lat="45.21349" lon="5.73329">
        <ele>713.79998779297</ele>
        <time>2021-09-11T04:00:55.000Z</time>
      </trkpt>
      <trkpt lat="45.2135" lon="5.73331">
        <ele>714.20001220703</ele>
        <time>2021-09-11T04:00:56.000Z</time>
      </trkpt>
      <trkpt lat="45.21353" lon="5.73333">
        <ele>715</ele>
        <time>2021-09-11T04:00:58.000Z</time>
      </trkpt>
      <trkpt lat="45.21356" lon="5.73337">
        <ele>716</ele>
        <time>2021-09-11T04:01:01.000Z</time>
      </trkpt>
      <trkpt lat="45.21358" lon="5.73337">
        <ele>716.40002441406</ele>
        <time>2021-09-11T04:01:02.000Z</time>
      </trkpt>
      <trkpt lat="45.21359" lon="5.73337">
        <ele>716.79998779297</ele>
        <time>2021-09-11T04:01:03.000Z</time>
      </trkpt>
      <trkpt lat="45.2136" lon="5.73337">
        <ele>717</ele>
        <time>2021-09-11T04:01:04.000Z</time>
      </trkpt>
      <trkpt lat="45.21361" lon="5.73339">
        <ele>717.40002441406</ele>
        <time>2021-09-11T04:01:05.000Z</time>
      </trkpt>
      <trkpt lat="45.21364" lon="5.73348">
        <ele>718</ele>
        <time>2021-09-11T04:01:09.000Z</time>
      </trkpt>
      <trkpt lat="45.21366" lon="5.73354">
        <ele>718.59997558594</ele>
        <time>2021-09-11T04:01:14.000Z</time>
      </trkpt>
      <trkpt lat="45.21369" lon="5.73359">
        <ele>719.59997558594</ele>
        <time>2021-09-11T04:01:18.000Z</time>
      </trkpt>
      <trkpt lat="45.2137" lon="5.7336">
        <ele>719.79998779297</ele>
        <time>2021-09-11T04:01:19.000Z</time>
      </trkpt>
      <trkpt lat="45.21375" lon="5.73362">
        <ele>720.79998779297</ele>
        <time>2021-09-11T04:01:22.000Z</time>
      </trkpt>
      <trkpt lat="45.21376" lon="5.73364">
        <ele>721</ele>
        <time>2021-09-11T04:01:23.000Z</time>
      </trkpt>
      <trkpt lat="45.21378" lon="5.73368">
        <ele>722</ele>
        <time>2021-09-11T04:01:26.000Z</time>
      </trkpt>
      <trkpt lat="45.2138" lon="5.73373">
        <ele>722.20001220703</ele>
        <time>2021-09-11T04:01:29.000Z</time>
      </trkpt>
      <trkpt lat="45.21383" lon="5.73375">
        <ele>723</ele>
        <time>2021-09-11T04:01:31.000Z</time>
      </trkpt>
      <trkpt lat="45.21388" lon="5.73379">
        <ele>723.59997558594</ele>
        <time>2021-09-11T04:01:35.000Z</time>
      </trkpt>
      <trkpt lat="45.2139" lon="5.73379">
        <ele>724</ele>
        <time>2021-09-11T04:01:36.000Z</time>
      </trkpt>
      <trkpt lat="45.21392" lon="5.73379">
        <ele>724.40002441406</ele>
        <time>2021-09-11T04:01:37.000Z</time>
      </trkpt>
      <trkpt lat="45.21394" lon="5.7338">
        <ele>725</ele>
        <time>2021-09-11T04:01:39.000Z</time>
      </trkpt>
      <trkpt lat="45.21395" lon="5.73381">
        <ele>725.20001220703</ele>
        <time>2021-09-11T04:01:40.000Z</time>
      </trkpt>
      <trkpt lat="45.21395" lon="5.73382">
        <ele>725.40002441406</ele>
        <time>2021-09-11T04:01:41.000Z</time>
      </trkpt>
      <trkpt lat="45.21395" lon="5.73386">
        <ele>725.79998779297</ele>
        <time>2021-09-11T04:01:43.000Z</time>
      </trkpt>
      <trkpt lat="45.21396" lon="5.73391">
        <ele>726.20001220703</ele>
        <time>2021-09-11T04:01:46.000Z</time>
      </trkpt>
      <trkpt lat="45.21396" lon="5.73393">
        <ele>726.40002441406</ele>
        <time>2021-09-11T04:01:47.000Z</time>
      </trkpt>
      <trkpt lat="45.21399" lon="5.73402">
        <ele>727.79998779297</ele>
        <time>2021-09-11T04:01:52.000Z</time>
      </trkpt>
      <trkpt lat="45.214" lon="5.73403">
        <ele>728.20001220703</ele>
        <time>2021-09-11T04:01:53.000Z</time>
      </trkpt>
      <trkpt lat="45.21403" lon="5.73407">
        <ele>729</ele>
        <time>2021-09-11T04:01:56.000Z</time>
      </trkpt>
      <trkpt lat="45.21405" lon="5.73411">
        <ele>729.40002441406</ele>
        <time>2021-09-11T04:01:58.000Z</time>
      </trkpt>
      <trkpt lat="45.21405" lon="5.73412">
        <ele>729.59997558594</ele>
        <time>2021-09-11T04:01:59.000Z</time>
      </trkpt>
      <trkpt lat="45.21407" lon="5.73416">
        <ele>730.20001220703</ele>
        <time>2021-09-11T04:02:02.000Z</time>
      </trkpt>
      <trkpt lat="45.21411" lon="5.73422">
        <ele>730.79998779297</ele>
        <time>2021-09-11T04:02:05.000Z</time>
      </trkpt>
      <trkpt lat="45.21414" lon="5.73422">
        <ele>731.20001220703</ele>
        <time>2021-09-11T04:02:06.000Z</time>
      </trkpt>
      <trkpt lat="45.21416" lon="5.73423">
        <ele>731.40002441406</ele>
        <time>2021-09-11T04:02:07.000Z</time>
      </trkpt>
      <trkpt lat="45.21418" lon="5.7343">
        <ele>732.40002441406</ele>
        <time>2021-09-11T04:02:10.000Z</time>
      </trkpt>
      <trkpt lat="45.2142" lon="5.73437">
        <ele>733</ele>
        <time>2021-09-11T04:02:13.000Z</time>
      </trkpt>
      <trkpt lat="45.21421" lon="5.73438">
        <ele>733.40002441406</ele>
        <time>2021-09-11T04:02:14.000Z</time>
      </trkpt>
      <trkpt lat="45.21422" lon="5.73438">
        <ele>733.59997558594</ele>
        <time>2021-09-11T04:02:15.000Z</time>
      </trkpt>
      <trkpt lat="45.21424" lon="5.7344">
        <ele>733.79998779297</ele>
        <time>2021-09-11T04:02:16.000Z</time>
      </trkpt>
      <trkpt lat="45.21425" lon="5.73442">
        <ele>734.20001220703</ele>
        <time>2021-09-11T04:02:17.000Z</time>
      </trkpt>
      <trkpt lat="45.21426" lon="5.73444">
        <ele>734.79998779297</ele>
        <time>2021-09-11T04:02:18.000Z</time>
      </trkpt>
      <trkpt lat="45.21427" lon="5.73445">
        <ele>735</ele>
        <time>2021-09-11T04:02:19.000Z</time>
      </trkpt>
      <trkpt lat="45.21431" lon="5.73447">
        <ele>736</ele>
        <time>2021-09-11T04:02:22.000Z</time>
      </trkpt>
      <trkpt lat="45.21431" lon="5.73452">
        <ele>737</ele>
        <time>2021-09-11T04:02:25.000Z</time>
      </trkpt>
      <trkpt lat="45.21432" lon="5.73455">
        <ele>737.40002441406</ele>
        <time>2021-09-11T04:02:27.000Z</time>
      </trkpt>
      <trkpt lat="45.21433" lon="5.73458">
        <ele>737.79998779297</ele>
        <time>2021-09-11T04:02:29.000Z</time>
      </trkpt>
      <trkpt lat="45.21435" lon="5.73462">
        <ele>738.20001220703</ele>
        <time>2021-09-11T04:02:31.000Z</time>
      </trkpt>
      <trkpt lat="45.2144" lon="5.7347">
        <ele>739.40002441406</ele>
        <time>2021-09-11T04:02:36.000Z</time>
      </trkpt>
      <trkpt lat="45.21444" lon="5.73476">
        <ele>740.40002441406</ele>
        <time>2021-09-11T04:02:40.000Z</time>
      </trkpt>
      <trkpt lat="45.21446" lon="5.73478">
        <ele>741</ele>
        <time>2021-09-11T04:02:42.000Z</time>
      </trkpt>
      <trkpt lat="45.21446" lon="5.7348">
        <ele>741.40002441406</ele>
        <time>2021-09-11T04:02:43.000Z</time>
      </trkpt>
      <trkpt lat="45.21447" lon="5.7348">
        <ele>741.79998779297</ele>
        <time>2021-09-11T04:02:44.000Z</time>
      </trkpt>
      <trkpt lat="45.2145" lon="5.73482">
        <ele>742.59997558594</ele>
        <time>2021-09-11T04:02:47.000Z</time>
      </trkpt>
      <trkpt lat="45.21455" lon="5.73489">
        <ele>743.59997558594</ele>
        <time>2021-09-11T04:02:52.000Z</time>
      </trkpt>
      <trkpt lat="45.21458" lon="5.73492">
        <ele>744.20001220703</ele>
        <time>2021-09-11T04:02:54.000Z</time>
      </trkpt>
      <trkpt lat="45.21459" lon="5.73493">
        <ele>744.59997558594</ele>
        <time>2021-09-11T04:02:55.000Z</time>
      </trkpt>
      <trkpt lat="45.21461" lon="5.735">
        <ele>745.79998779297</ele>
        <time>2021-09-11T04:02:59.000Z</time>
      </trkpt>
      <trkpt lat="45.21461" lon="5.73504">
        <ele>746.40002441406</ele>
        <time>2021-09-11T04:03:01.000Z</time>
      </trkpt>
      <trkpt lat="45.21462" lon="5.73509">
        <ele>747</ele>
        <time>2021-09-11T04:03:04.000Z</time>
      </trkpt>
      <trkpt lat="45.21462" lon="5.73514">
        <ele>747.79998779297</ele>
        <time>2021-09-11T04:03:07.000Z</time>
      </trkpt>
      <trkpt lat="45.21462" lon="5.73516">
        <ele>748.20001220703</ele>
        <time>2021-09-11T04:03:08.000Z</time>
      </trkpt>
      <trkpt lat="45.21464" lon="5.73524">
        <ele>749.40002441406</ele>
        <time>2021-09-11T04:03:13.000Z</time>
      </trkpt>
      <trkpt lat="45.21464" lon="5.73525">
        <ele>749.59997558594</ele>
        <time>2021-09-11T04:03:14.000Z</time>
      </trkpt>
      <trkpt lat="45.21466" lon="5.73531">
        <ele>750.40002441406</ele>
        <time>2021-09-11T04:03:18.000Z</time>
      </trkpt>
      <trkpt lat="45.21469" lon="5.73536">
        <ele>751</ele>
        <time>2021-09-11T04:03:21.000Z</time>
      </trkpt>
      <trkpt lat="45.2147" lon="5.7354">
        <ele>751.59997558594</ele>
        <time>2021-09-11T04:03:23.000Z</time>
      </trkpt>
      <trkpt lat="45.21471" lon="5.73541">
        <ele>752.20001220703</ele>
        <time>2021-09-11T04:03:25.000Z</time>
      </trkpt>
      <trkpt lat="45.21472" lon="5.73543">
        <ele>752.59997558594</ele>
        <time>2021-09-11T04:03:27.000Z</time>
      </trkpt>
      <trkpt lat="45.21473" lon="5.73544">
        <ele>752.79998779297</ele>
        <time>2021-09-11T04:03:28.000Z</time>
      </trkpt>
      <trkpt lat="45.21475" lon="5.73548">
        <ele>753.59997558594</ele>
        <time>2021-09-11T04:03:31.000Z</time>
      </trkpt>
      <trkpt lat="45.21476" lon="5.73549">
        <ele>753.79998779297</ele>
        <time>2021-09-11T04:03:32.000Z</time>
      </trkpt>
      <trkpt lat="45.21479" lon="5.73551">
        <ele>754</ele>
        <time>2021-09-11T04:03:34.000Z</time>
      </trkpt>
      <trkpt lat="45.21483" lon="5.73553">
        <ele>754.79998779297</ele>
        <time>2021-09-11T04:03:38.000Z</time>
      </trkpt>
      <trkpt lat="45.21488" lon="5.73557">
        <ele>755.59997558594</ele>
        <time>2021-09-11T04:03:41.000Z</time>
      </trkpt>
      <trkpt lat="45.21489" lon="5.73557">
        <ele>755.79998779297</ele>
        <time>2021-09-11T04:03:42.000Z</time>
      </trkpt>
      <trkpt lat="45.21494" lon="5.7356">
        <ele>756.59997558594</ele>
        <time>2021-09-11T04:03:46.000Z</time>
      </trkpt>
      <trkpt lat="45.21495" lon="5.73561">
        <ele>757</ele>
        <time>2021-09-11T04:03:47.000Z</time>
      </trkpt>
      <trkpt lat="45.21497" lon="5.73562">
        <ele>757.59997558594</ele>
        <time>2021-09-11T04:03:49.000Z</time>
      </trkpt>
      <trkpt lat="45.21499" lon="5.73564">
        <ele>758</ele>
        <time>2021-09-11T04:03:52.000Z</time>
      </trkpt>
      <trkpt lat="45.21499" lon="5.73566">
        <ele>758.40002441406</ele>
        <time>2021-09-11T04:03:53.000Z</time>
      </trkpt>
      <trkpt lat="45.21499" lon="5.73568">
        <ele>758.59997558594</ele>
        <time>2021-09-11T04:03:54.000Z</time>
      </trkpt>
      <trkpt lat="45.215" lon="5.73571">
        <ele>759</ele>
        <time>2021-09-11T04:03:56.000Z</time>
      </trkpt>
      <trkpt lat="45.21501" lon="5.73574">
        <ele>759.40002441406</ele>
        <time>2021-09-11T04:03:58.000Z</time>
      </trkpt>
      <trkpt lat="45.21502" lon="5.73576">
        <ele>760</ele>
        <time>2021-09-11T04:04:00.000Z</time>
      </trkpt>
      <trkpt lat="45.21502" lon="5.73578">
        <ele>760.20001220703</ele>
        <time>2021-09-11T04:04:01.000Z</time>
      </trkpt>
      <trkpt lat="45.21502" lon="5.73581">
        <ele>760.40002441406</ele>
        <time>2021-09-11T04:04:03.000Z</time>
      </trkpt>
      <trkpt lat="45.21502" lon="5.73582">
        <ele>760.59997558594</ele>
        <time>2021-09-11T04:04:04.000Z</time>
      </trkpt>
      <trkpt lat="45.21502" lon="5.73586">
        <ele>761.40002441406</ele>
        <time>2021-09-11T04:04:06.000Z</time>
      </trkpt>
      <trkpt lat="45.21501" lon="5.73587">
        <ele>761.59997558594</ele>
        <time>2021-09-11T04:04:07.000Z</time>
      </trkpt>
      <trkpt lat="45.21502" lon="5.73589">
        <ele>762</ele>
        <time>2021-09-11T04:04:08.000Z</time>
      </trkpt>
      <trkpt lat="45.21502" lon="5.7359">
        <ele>762.40002441406</ele>
        <time>2021-09-11T04:04:09.000Z</time>
      </trkpt>
      <trkpt lat="45.21507" lon="5.73595">
        <ele>763</ele>
        <time>2021-09-11T04:04:13.000Z</time>
      </trkpt>
      <trkpt lat="45.21508" lon="5.73596">
        <ele>763.59997558594</ele>
        <time>2021-09-11T04:04:15.000Z</time>
      </trkpt>
      <trkpt lat="45.21508" lon="5.73595">
        <ele>764.20001220703</ele>
        <time>2021-09-11T04:04:17.000Z</time>
      </trkpt>
      <trkpt lat="45.21507" lon="5.73593">
        <ele>764.79998779297</ele>
        <time>2021-09-11T04:04:19.000Z</time>
      </trkpt>
      <trkpt lat="45.21506" lon="5.73588">
        <ele>765.40002441406</ele>
        <time>2021-09-11T04:04:22.000Z</time>
      </trkpt>
      <trkpt lat="45.21507" lon="5.73586">
        <ele>765.79998779297</ele>
        <time>2021-09-11T04:04:23.000Z</time>
      </trkpt>
      <trkpt lat="45.21507" lon="5.73584">
        <ele>766</ele>
        <time>2021-09-11T04:04:24.000Z</time>
      </trkpt>
      <trkpt lat="45.2151" lon="5.73577">
        <ele>767</ele>
        <time>2021-09-11T04:04:29.000Z</time>
      </trkpt>
      <trkpt lat="45.2151" lon="5.73577">
        <ele>767.20001220703</ele>
        <time>2021-09-11T04:04:30.000Z</time>
      </trkpt>
      <trkpt lat="45.21511" lon="5.73577">
        <ele>767.79998779297</ele>
        <time>2021-09-11T04:04:32.000Z</time>
      </trkpt>
      <trkpt lat="45.21511" lon="5.7358">
        <ele>768.40002441406</ele>
        <time>2021-09-11T04:04:35.000Z</time>
      </trkpt>
      <trkpt lat="45.21511" lon="5.7358">
        <ele>768.59997558594</ele>
        <time>2021-09-11T04:04:36.000Z</time>
      </trkpt>
      <trkpt lat="45.21511" lon="5.73581">
        <ele>768.79998779297</ele>
        <time>2021-09-11T04:04:37.000Z</time>
      </trkpt>
      <trkpt lat="45.21513" lon="5.73585">
        <ele>769.20001220703</ele>
        <time>2021-09-11T04:04:39.000Z</time>
      </trkpt>
      <trkpt lat="45.21513" lon="5.73586">
        <ele>769.40002441406</ele>
        <time>2021-09-11T04:04:40.000Z</time>
      </trkpt>
      <trkpt lat="45.21514" lon="5.73587">
        <ele>769.59997558594</ele>
        <time>2021-09-11T04:04:41.000Z</time>
      </trkpt>
      <trkpt lat="45.21517" lon="5.73592">
        <ele>770.59997558594</ele>
        <time>2021-09-11T04:04:45.000Z</time>
      </trkpt>
      <trkpt lat="45.21518" lon="5.73593">
        <ele>770.79998779297</ele>
        <time>2021-09-11T04:04:46.000Z</time>
      </trkpt>
      <trkpt lat="45.21519" lon="5.73594">
        <ele>771</ele>
        <time>2021-09-11T04:04:47.000Z</time>
      </trkpt>
      <trkpt lat="45.21521" lon="5.73597">
        <ele>771.59997558594</ele>
        <time>2021-09-11T04:04:50.000Z</time>
      </trkpt>
      <trkpt lat="45.21523" lon="5.73601">
        <ele>772.20001220703</ele>
        <time>2021-09-11T04:04:53.000Z</time>
      </trkpt>
      <trkpt lat="45.21523" lon="5.73604">
        <ele>772.40002441406</ele>
        <time>2021-09-11T04:04:55.000Z</time>
      </trkpt>
      <trkpt lat="45.21524" lon="5.73607">
        <ele>772.79998779297</ele>
        <time>2021-09-11T04:04:57.000Z</time>
      </trkpt>
      <trkpt lat="45.21526" lon="5.73611">
        <ele>773.20001220703</ele>
        <time>2021-09-11T04:04:59.000Z</time>
      </trkpt>
      <trkpt lat="45.21528" lon="5.73615">
        <ele>773.79998779297</ele>
        <time>2021-09-11T04:05:02.000Z</time>
      </trkpt>
      <trkpt lat="45.2153" lon="5.73619">
        <ele>774.40002441406</ele>
        <time>2021-09-11T04:05:04.000Z</time>
      </trkpt>
      <trkpt lat="45.2153" lon="5.73619">
        <ele>774.59997558594</ele>
        <time>2021-09-11T04:05:05.000Z</time>
      </trkpt>
      <trkpt lat="45.21531" lon="5.73619">
        <ele>775</ele>
        <time>2021-09-11T04:05:06.000Z</time>
      </trkpt>
      <trkpt lat="45.21531" lon="5.73617">
        <ele>775.59997558594</ele>
        <time>2021-09-11T04:05:09.000Z</time>
      </trkpt>
      <trkpt lat="45.21531" lon="5.73615">
        <ele>775.79998779297</ele>
        <time>2021-09-11T04:05:10.000Z</time>
      </trkpt>
      <trkpt lat="45.2153" lon="5.73613">
        <ele>776</ele>
        <time>2021-09-11T04:05:12.000Z</time>
      </trkpt>
      <trkpt lat="45.2153" lon="5.73611">
        <ele>776.40002441406</ele>
        <time>2021-09-11T04:05:14.000Z</time>
      </trkpt>
      <trkpt lat="45.21529" lon="5.73609">
        <ele>777.20001220703</ele>
        <time>2021-09-11T04:05:16.000Z</time>
      </trkpt>
      <trkpt lat="45.21529" lon="5.73607">
        <ele>777.40002441406</ele>
        <time>2021-09-11T04:05:17.000Z</time>
      </trkpt>
      <trkpt lat="45.21528" lon="5.73601">
        <ele>778</ele>
        <time>2021-09-11T04:05:20.000Z</time>
      </trkpt>
      <trkpt lat="45.21527" lon="5.73599">
        <ele>778</ele>
        <time>2021-09-11T04:05:21.000Z</time>
      </trkpt>
      <trkpt lat="45.21527" lon="5.73597">
        <ele>778.59997558594</ele>
        <time>2021-09-11T04:05:23.000Z</time>
      </trkpt>
      <trkpt lat="45.21527" lon="5.73595">
        <ele>779</ele>
        <time>2021-09-11T04:05:24.000Z</time>
      </trkpt>
      <trkpt lat="45.21528" lon="5.73594">
        <ele>779.20001220703</ele>
        <time>2021-09-11T04:05:25.000Z</time>
      </trkpt>
      <trkpt lat="45.2153" lon="5.73597">
        <ele>779.59997558594</ele>
        <time>2021-09-11T04:05:27.000Z</time>
      </trkpt>
      <trkpt lat="45.2153" lon="5.73598">
        <ele>779.79998779297</ele>
        <time>2021-09-11T04:05:28.000Z</time>
      </trkpt>
      <trkpt lat="45.21531" lon="5.73599">
        <ele>780</ele>
        <time>2021-09-11T04:05:29.000Z</time>
      </trkpt>
      <trkpt lat="45.21533" lon="5.73601">
        <ele>780.59997558594</ele>
        <time>2021-09-11T04:05:31.000Z</time>
      </trkpt>
      <trkpt lat="45.21534" lon="5.73602">
        <ele>780.79998779297</ele>
        <time>2021-09-11T04:05:32.000Z</time>
      </trkpt>
      <trkpt lat="45.21534" lon="5.73604">
        <ele>781</ele>
        <time>2021-09-11T04:05:33.000Z</time>
      </trkpt>
      <trkpt lat="45.21535" lon="5.73608">
        <ele>781.40002441406</ele>
        <time>2021-09-11T04:05:36.000Z</time>
      </trkpt>
      <trkpt lat="45.21535" lon="5.73608">
        <ele>782</ele>
        <time>2021-09-11T04:05:37.000Z</time>
      </trkpt>
      <trkpt lat="45.21535" lon="5.73608">
        <ele>782.40002441406</ele>
        <time>2021-09-11T04:05:38.000Z</time>
      </trkpt>
      <trkpt lat="45.21535" lon="5.73608">
        <ele>782.59997558594</ele>
        <time>2021-09-11T04:05:39.000Z</time>
      </trkpt>
      <trkpt lat="45.21535" lon="5.73605">
        <ele>783</ele>
        <time>2021-09-11T04:05:41.000Z</time>
      </trkpt>
      <trkpt lat="45.21534" lon="5.73603">
        <ele>783</ele>
        <time>2021-09-11T04:05:42.000Z</time>
      </trkpt>
      <trkpt lat="45.21535" lon="5.73599">
        <ele>783.40002441406</ele>
        <time>2021-09-11T04:05:45.000Z</time>
      </trkpt>
      <trkpt lat="45.21535" lon="5.73596">
        <ele>784</ele>
        <time>2021-09-11T04:05:48.000Z</time>
      </trkpt>
      <trkpt lat="45.21534" lon="5.73595">
        <ele>784.40002441406</ele>
        <time>2021-09-11T04:05:49.000Z</time>
      </trkpt>
      <trkpt lat="45.21533" lon="5.73591">
        <ele>785.20001220703</ele>
        <time>2021-09-11T04:05:52.000Z</time>
      </trkpt>
      <trkpt lat="45.21533" lon="5.73587">
        <ele>785.40002441406</ele>
        <time>2021-09-11T04:05:54.000Z</time>
      </trkpt>
      <trkpt lat="45.21532" lon="5.73584">
        <ele>786</ele>
        <time>2021-09-11T04:05:57.000Z</time>
      </trkpt>
      <trkpt lat="45.21531" lon="5.7358">
        <ele>786.59997558594</ele>
        <time>2021-09-11T04:05:59.000Z</time>
      </trkpt>
      <trkpt lat="45.21531" lon="5.7357">
        <ele>787.79998779297</ele>
        <time>2021-09-11T04:06:05.000Z</time>
      </trkpt>
      <trkpt lat="45.21531" lon="5.73567">
        <ele>788.59997558594</ele>
        <time>2021-09-11T04:06:07.000Z</time>
      </trkpt>
      <trkpt lat="45.21531" lon="5.73565">
        <ele>788.79998779297</ele>
        <time>2021-09-11T04:06:08.000Z</time>
      </trkpt>
      <trkpt lat="45.21533" lon="5.73553">
        <ele>790</ele>
        <time>2021-09-11T04:06:14.000Z</time>
      </trkpt>
      <trkpt lat="45.21534" lon="5.73552">
        <ele>790.40002441406</ele>
        <time>2021-09-11T04:06:15.000Z</time>
      </trkpt>
      <trkpt lat="45.21534" lon="5.73549">
        <ele>790.59997558594</ele>
        <time>2021-09-11T04:06:16.000Z</time>
      </trkpt>
      <trkpt lat="45.21534" lon="5.73543">
        <ele>791.20001220703</ele>
        <time>2021-09-11T04:06:19.000Z</time>
      </trkpt>
      <trkpt lat="45.21535" lon="5.73542">
        <ele>791.20001220703</ele>
        <time>2021-09-11T04:06:20.000Z</time>
      </trkpt>
      <trkpt lat="45.21535" lon="5.73542">
        <ele>791.59997558594</ele>
        <time>2021-09-11T04:06:21.000Z</time>
      </trkpt>
      <trkpt lat="45.21536" lon="5.73543">
        <ele>792.20001220703</ele>
        <time>2021-09-11T04:06:23.000Z</time>
      </trkpt>
      <trkpt lat="45.21536" lon="5.73544">
        <ele>792.40002441406</ele>
        <time>2021-09-11T04:06:24.000Z</time>
      </trkpt>
      <trkpt lat="45.21535" lon="5.73546">
        <ele>792.59997558594</ele>
        <time>2021-09-11T04:06:25.000Z</time>
      </trkpt>
      <trkpt lat="45.21536" lon="5.73551">
        <ele>793.20001220703</ele>
        <time>2021-09-11T04:06:28.000Z</time>
      </trkpt>
      <trkpt lat="45.21537" lon="5.73551">
        <ele>793.40002441406</ele>
        <time>2021-09-11T04:06:29.000Z</time>
      </trkpt>
      <trkpt lat="45.2154" lon="5.73556">
        <ele>794.40002441406</ele>
        <time>2021-09-11T04:06:32.000Z</time>
      </trkpt>
      <trkpt lat="45.21543" lon="5.73559">
        <ele>794.79998779297</ele>
        <time>2021-09-11T04:06:35.000Z</time>
      </trkpt>
      <trkpt lat="45.21544" lon="5.73563">
        <ele>795.59997558594</ele>
        <time>2021-09-11T04:06:37.000Z</time>
      </trkpt>
      <trkpt lat="45.21545" lon="5.73566">
        <ele>796</ele>
        <time>2021-09-11T04:06:39.000Z</time>
      </trkpt>
      <trkpt lat="45.21545" lon="5.73567">
        <ele>796.20001220703</ele>
        <time>2021-09-11T04:06:40.000Z</time>
      </trkpt>
      <trkpt lat="45.21547" lon="5.7357">
        <ele>796.59997558594</ele>
        <time>2021-09-11T04:06:43.000Z</time>
      </trkpt>
      <trkpt lat="45.21551" lon="5.73574">
        <ele>797.79998779297</ele>
        <time>2021-09-11T04:06:47.000Z</time>
      </trkpt>
      <trkpt lat="45.21552" lon="5.73575">
        <ele>798</ele>
        <time>2021-09-11T04:06:48.000Z</time>
      </trkpt>
      <trkpt lat="45.21553" lon="5.73581">
        <ele>798.79998779297</ele>
        <time>2021-09-11T04:06:51.000Z</time>
      </trkpt>
      <trkpt lat="45.21554" lon="5.73583">
        <ele>799</ele>
        <time>2021-09-11T04:06:52.000Z</time>
      </trkpt>
      <trkpt lat="45.21556" lon="5.73588">
        <ele>799.79998779297</ele>
        <time>2021-09-11T04:06:56.000Z</time>
      </trkpt>
      <trkpt lat="45.21557" lon="5.73589">
        <ele>800.40002441406</ele>
        <time>2021-09-11T04:06:58.000Z</time>
      </trkpt>
      <trkpt lat="45.21556" lon="5.73591">
        <ele>801</ele>
        <time>2021-09-11T04:07:01.000Z</time>
      </trkpt>
      <trkpt lat="45.21555" lon="5.73588">
        <ele>801.40002441406</ele>
        <time>2021-09-11T04:07:04.000Z</time>
      </trkpt>
      <trkpt lat="45.21555" lon="5.73585">
        <ele>802.40002441406</ele>
        <time>2021-09-11T04:07:06.000Z</time>
      </trkpt>
      <trkpt lat="45.21555" lon="5.73584">
        <ele>802.59997558594</ele>
        <time>2021-09-11T04:07:07.000Z</time>
      </trkpt>
      <trkpt lat="45.21557" lon="5.73577">
        <ele>803.20001220703</ele>
        <time>2021-09-11T04:07:11.000Z</time>
      </trkpt>
      <trkpt lat="45.21556" lon="5.73576">
        <ele>803.40002441406</ele>
        <time>2021-09-11T04:07:13.000Z</time>
      </trkpt>
      <trkpt lat="45.21553" lon="5.73573">
        <ele>804.40002441406</ele>
        <time>2021-09-11T04:07:16.000Z</time>
      </trkpt>
      <trkpt lat="45.21552" lon="5.73569">
        <ele>804.79998779297</ele>
        <time>2021-09-11T04:07:19.000Z</time>
      </trkpt>
      <trkpt lat="45.21552" lon="5.73563">
        <ele>805.59997558594</ele>
        <time>2021-09-11T04:07:22.000Z</time>
      </trkpt>
      <trkpt lat="45.21552" lon="5.73557">
        <ele>806.20001220703</ele>
        <time>2021-09-11T04:07:25.000Z</time>
      </trkpt>
      <trkpt lat="45.21553" lon="5.73551">
        <ele>807</ele>
        <time>2021-09-11T04:07:28.000Z</time>
      </trkpt>
      <trkpt lat="45.21551" lon="5.73542">
        <ele>808</ele>
        <time>2021-09-11T04:07:34.000Z</time>
      </trkpt>
      <trkpt lat="45.21551" lon="5.73535">
        <ele>809.20001220703</ele>
        <time>2021-09-11T04:07:37.000Z</time>
      </trkpt>
      <trkpt lat="45.2155" lon="5.73522">
        <ele>810.20001220703</ele>
        <time>2021-09-11T04:07:42.000Z</time>
      </trkpt>
      <trkpt lat="45.2155" lon="5.73522">
        <ele>810.40002441406</ele>
        <time>2021-09-11T04:07:43.000Z</time>
      </trkpt>
      <trkpt lat="45.21549" lon="5.73518">
        <ele>811.40002441406</ele>
        <time>2021-09-11T04:07:46.000Z</time>
      </trkpt>
      <trkpt lat="45.21548" lon="5.73518">
        <ele>811.79998779297</ele>
        <time>2021-09-11T04:07:47.000Z</time>
      </trkpt>
      <trkpt lat="45.21545" lon="5.73514">
        <ele>812</ele>
        <time>2021-09-11T04:07:49.000Z</time>
      </trkpt>
      <trkpt lat="45.21545" lon="5.73511">
        <ele>812.79998779297</ele>
        <time>2021-09-11T04:07:51.000Z</time>
      </trkpt>
      <trkpt lat="45.21545" lon="5.7351">
        <ele>813</ele>
        <time>2021-09-11T04:07:52.000Z</time>
      </trkpt>
      <trkpt lat="45.21544" lon="5.73508">
        <ele>813.40002441406</ele>
        <time>2021-09-11T04:07:54.000Z</time>
      </trkpt>
      <trkpt lat="45.21543" lon="5.73507">
        <ele>813.79998779297</ele>
        <time>2021-09-11T04:07:56.000Z</time>
      </trkpt>
      <trkpt lat="45.21542" lon="5.73506">
        <ele>814</ele>
        <time>2021-09-11T04:07:57.000Z</time>
      </trkpt>
      <trkpt lat="45.21542" lon="5.73506">
        <ele>814.20001220703</ele>
        <time>2021-09-11T04:07:58.000Z</time>
      </trkpt>
      <trkpt lat="45.2154" lon="5.73503">
        <ele>815</ele>
        <time>2021-09-11T04:08:01.000Z</time>
      </trkpt>
      <trkpt lat="45.21539" lon="5.73502">
        <ele>815</ele>
        <time>2021-09-11T04:08:02.000Z</time>
      </trkpt>
      <trkpt lat="45.21538" lon="5.73502">
        <ele>815.20001220703</ele>
        <time>2021-09-11T04:08:03.000Z</time>
      </trkpt>
      <trkpt lat="45.21533" lon="5.73502">
        <ele>815.79998779297</ele>
        <time>2021-09-11T04:08:06.000Z</time>
      </trkpt>
      <trkpt lat="45.21531" lon="5.73502">
        <ele>816</ele>
        <time>2021-09-11T04:08:08.000Z</time>
      </trkpt>
      <trkpt lat="45.21528" lon="5.73499">
        <ele>817.20001220703</ele>
        <time>2021-09-11T04:08:11.000Z</time>
      </trkpt>
      <trkpt lat="45.21526" lon="5.73497">
        <ele>817.40002441406</ele>
        <time>2021-09-11T04:08:13.000Z</time>
      </trkpt>
      <trkpt lat="45.21526" lon="5.73495">
        <ele>817.79998779297</ele>
        <time>2021-09-11T04:08:14.000Z</time>
      </trkpt>
      <trkpt lat="45.21529" lon="5.73489">
        <ele>818.40002441406</ele>
        <time>2021-09-11T04:08:16.000Z</time>
      </trkpt>
      <trkpt lat="45.21534" lon="5.73484">
        <ele>819.20001220703</ele>
        <time>2021-09-11T04:08:19.000Z</time>
      </trkpt>
      <trkpt lat="45.21536" lon="5.73483">
        <ele>819.59997558594</ele>
        <time>2021-09-11T04:08:21.000Z</time>
      </trkpt>
      <trkpt lat="45.21541" lon="5.73481">
        <ele>820.59997558594</ele>
        <time>2021-09-11T04:08:24.000Z</time>
      </trkpt>
      <trkpt lat="45.21542" lon="5.73481">
        <ele>820.79998779297</ele>
        <time>2021-09-11T04:08:25.000Z</time>
      </trkpt>
      <trkpt lat="45.21546" lon="5.7348">
        <ele>821.40002441406</ele>
        <time>2021-09-11T04:08:29.000Z</time>
      </trkpt>
      <trkpt lat="45.21546" lon="5.7348">
        <ele>821.79998779297</ele>
        <time>2021-09-11T04:08:30.000Z</time>
      </trkpt>
      <trkpt lat="45.21547" lon="5.7348">
        <ele>822</ele>
        <time>2021-09-11T04:08:31.000Z</time>
      </trkpt>
      <trkpt lat="45.21552" lon="5.73483">
        <ele>822.79998779297</ele>
        <time>2021-09-11T04:08:36.000Z</time>
      </trkpt>
      <trkpt lat="45.21553" lon="5.73484">
        <ele>823</ele>
        <time>2021-09-11T04:08:37.000Z</time>
      </trkpt>
      <trkpt lat="45.21555" lon="5.73486">
        <ele>823.79998779297</ele>
        <time>2021-09-11T04:08:39.000Z</time>
      </trkpt>
      <trkpt lat="45.21556" lon="5.73485">
        <ele>824</ele>
        <time>2021-09-11T04:08:40.000Z</time>
      </trkpt>
      <trkpt lat="45.21558" lon="5.73487">
        <ele>824.20001220703</ele>
        <time>2021-09-11T04:08:42.000Z</time>
      </trkpt>
      <trkpt lat="45.21558" lon="5.73487">
        <ele>824.20001220703</ele>
        <time>2021-09-11T04:08:43.000Z</time>
      </trkpt>
      <trkpt lat="45.21559" lon="5.73489">
        <ele>824.79998779297</ele>
        <time>2021-09-11T04:08:45.000Z</time>
      </trkpt>
      <trkpt lat="45.2156" lon="5.7349">
        <ele>825.20001220703</ele>
        <time>2021-09-11T04:08:46.000Z</time>
      </trkpt>
      <trkpt lat="45.21561" lon="5.73491">
        <ele>825.40002441406</ele>
        <time>2021-09-11T04:08:47.000Z</time>
      </trkpt>
      <trkpt lat="45.21563" lon="5.73493">
        <ele>825.59997558594</ele>
        <time>2021-09-11T04:08:49.000Z</time>
      </trkpt>
      <trkpt lat="45.21566" lon="5.73499">
        <ele>826.40002441406</ele>
        <time>2021-09-11T04:08:53.000Z</time>
      </trkpt>
      <trkpt lat="45.2157" lon="5.73506">
        <ele>827.40002441406</ele>
        <time>2021-09-11T04:08:57.000Z</time>
      </trkpt>
      <trkpt lat="45.21571" lon="5.73508">
        <ele>827.79998779297</ele>
        <time>2021-09-11T04:08:58.000Z</time>
      </trkpt>
      <trkpt lat="45.21574" lon="5.73511">
        <ele>828.59997558594</ele>
        <time>2021-09-11T04:09:01.000Z</time>
      </trkpt>
      <trkpt lat="45.21576" lon="5.73515">
        <ele>829.20001220703</ele>
        <time>2021-09-11T04:09:03.000Z</time>
      </trkpt>
      <trkpt lat="45.21576" lon="5.73516">
        <ele>829.59997558594</ele>
        <time>2021-09-11T04:09:04.000Z</time>
      </trkpt>
      <trkpt lat="45.21578" lon="5.73519">
        <ele>830</ele>
        <time>2021-09-11T04:09:06.000Z</time>
      </trkpt>
      <trkpt lat="45.21579" lon="5.73523">
        <ele>830.59997558594</ele>
        <time>2021-09-11T04:09:08.000Z</time>
      </trkpt>
      <trkpt lat="45.21581" lon="5.73526">
        <ele>831.40002441406</ele>
        <time>2021-09-11T04:09:10.000Z</time>
      </trkpt>
      <trkpt lat="45.21584" lon="5.73529">
        <ele>831.79998779297</ele>
        <time>2021-09-11T04:09:12.000Z</time>
      </trkpt>
      <trkpt lat="45.2159" lon="5.73537">
        <ele>833</ele>
        <time>2021-09-11T04:09:17.000Z</time>
      </trkpt>
      <trkpt lat="45.21592" lon="5.73541">
        <ele>834</ele>
        <time>2021-09-11T04:09:20.000Z</time>
      </trkpt>
      <trkpt lat="45.21593" lon="5.73543">
        <ele>834.20001220703</ele>
        <time>2021-09-11T04:09:21.000Z</time>
      </trkpt>
      <trkpt lat="45.21594" lon="5.73545">
        <ele>835</ele>
        <time>2021-09-11T04:09:23.000Z</time>
      </trkpt>
      <trkpt lat="45.21595" lon="5.73547">
        <ele>835.20001220703</ele>
        <time>2021-09-11T04:09:24.000Z</time>
      </trkpt>
      <trkpt lat="45.21596" lon="5.73552">
        <ele>835.79998779297</ele>
        <time>2021-09-11T04:09:26.000Z</time>
      </trkpt>
      <trkpt lat="45.21597" lon="5.73557">
        <ele>836.20001220703</ele>
        <time>2021-09-11T04:09:28.000Z</time>
      </trkpt>
      <trkpt lat="45.21601" lon="5.73563">
        <ele>837.20001220703</ele>
        <time>2021-09-11T04:09:32.000Z</time>
      </trkpt>
      <trkpt lat="45.21604" lon="5.73565">
        <ele>838.40002441406</ele>
        <time>2021-09-11T04:09:35.000Z</time>
      </trkpt>
      <trkpt lat="45.2161" lon="5.73568">
        <ele>839.59997558594</ele>
        <time>2021-09-11T04:09:40.000Z</time>
      </trkpt>
      <trkpt lat="45.21611" lon="5.73569">
        <ele>840</ele>
        <time>2021-09-11T04:09:42.000Z</time>
      </trkpt>
      <trkpt lat="45.21614" lon="5.73573">
        <ele>840.79998779297</ele>
        <time>2021-09-11T04:09:46.000Z</time>
      </trkpt>
      <trkpt lat="45.21615" lon="5.73574">
        <ele>841</ele>
        <time>2021-09-11T04:09:47.000Z</time>
      </trkpt>
      <trkpt lat="45.21616" lon="5.73575">
        <ele>841.20001220703</ele>
        <time>2021-09-11T04:09:48.000Z</time>
      </trkpt>
      <trkpt lat="45.21618" lon="5.73578">
        <ele>841.79998779297</ele>
        <time>2021-09-11T04:09:50.000Z</time>
      </trkpt>
      <trkpt lat="45.21619" lon="5.73578">
        <ele>842</ele>
        <time>2021-09-11T04:09:51.000Z</time>
      </trkpt>
      <trkpt lat="45.21619" lon="5.73579">
        <ele>842.59997558594</ele>
        <time>2021-09-11T04:09:53.000Z</time>
      </trkpt>
      <trkpt lat="45.21618" lon="5.73579">
        <ele>843.20001220703</ele>
        <time>2021-09-11T04:09:55.000Z</time>
      </trkpt>
      <trkpt lat="45.21616" lon="5.73578">
        <ele>844</ele>
        <time>2021-09-11T04:09:58.000Z</time>
      </trkpt>
      <trkpt lat="45.21615" lon="5.73577">
        <ele>844.20001220703</ele>
        <time>2021-09-11T04:09:59.000Z</time>
      </trkpt>
      <trkpt lat="45.21613" lon="5.7357">
        <ele>845.59997558594</ele>
        <time>2021-09-11T04:10:04.000Z</time>
      </trkpt>
      <trkpt lat="45.21612" lon="5.73568">
        <ele>845.79998779297</ele>
        <time>2021-09-11T04:10:05.000Z</time>
      </trkpt>
      <trkpt lat="45.21611" lon="5.73565">
        <ele>846</ele>
        <time>2021-09-11T04:10:07.000Z</time>
      </trkpt>
      <trkpt lat="45.2161" lon="5.73563">
        <ele>846.59997558594</ele>
        <time>2021-09-11T04:10:09.000Z</time>
      </trkpt>
      <trkpt lat="45.21609" lon="5.7356">
        <ele>847.20001220703</ele>
        <time>2021-09-11T04:10:11.000Z</time>
      </trkpt>
      <trkpt lat="45.21609" lon="5.73558">
        <ele>847.40002441406</ele>
        <time>2021-09-11T04:10:12.000Z</time>
      </trkpt>
      <trkpt lat="45.21609" lon="5.73554">
        <ele>847.79998779297</ele>
        <time>2021-09-11T04:10:14.000Z</time>
      </trkpt>
      <trkpt lat="45.21609" lon="5.7355">
        <ele>848</ele>
        <time>2021-09-11T04:10:16.000Z</time>
      </trkpt>
      <trkpt lat="45.2161" lon="5.73547">
        <ele>848.59997558594</ele>
        <time>2021-09-11T04:10:17.000Z</time>
      </trkpt>
      <trkpt lat="45.21611" lon="5.73545">
        <ele>848.79998779297</ele>
        <time>2021-09-11T04:10:18.000Z</time>
      </trkpt>
      <trkpt lat="45.21611" lon="5.7354">
        <ele>849.20001220703</ele>
        <time>2021-09-11T04:10:20.000Z</time>
      </trkpt>
      <trkpt lat="45.2161" lon="5.73538">
        <ele>849.40002441406</ele>
        <time>2021-09-11T04:10:21.000Z</time>
      </trkpt>
      <trkpt lat="45.21608" lon="5.73536">
        <ele>849.79998779297</ele>
        <time>2021-09-11T04:10:23.000Z</time>
      </trkpt>
      <trkpt lat="45.21607" lon="5.73535">
        <ele>850.20001220703</ele>
        <time>2021-09-11T04:10:24.000Z</time>
      </trkpt>
      <trkpt lat="45.21607" lon="5.73535">
        <ele>850.59997558594</ele>
        <time>2021-09-11T04:10:26.000Z</time>
      </trkpt>
      <trkpt lat="45.21609" lon="5.73537">
        <ele>851</ele>
        <time>2021-09-11T04:10:28.000Z</time>
      </trkpt>
      <trkpt lat="45.2161" lon="5.73539">
        <ele>851.20001220703</ele>
        <time>2021-09-11T04:10:29.000Z</time>
      </trkpt>
      <trkpt lat="45.21612" lon="5.73543">
        <ele>852.20001220703</ele>
        <time>2021-09-11T04:10:32.000Z</time>
      </trkpt>
      <trkpt lat="45.21614" lon="5.73546">
        <ele>852.59997558594</ele>
        <time>2021-09-11T04:10:34.000Z</time>
      </trkpt>
      <trkpt lat="45.21619" lon="5.73548">
        <ele>853</ele>
        <time>2021-09-11T04:10:37.000Z</time>
      </trkpt>
      <trkpt lat="45.2162" lon="5.73549">
        <ele>853.40002441406</ele>
        <time>2021-09-11T04:10:38.000Z</time>
      </trkpt>
      <trkpt lat="45.21621" lon="5.73549">
        <ele>853.59997558594</ele>
        <time>2021-09-11T04:10:39.000Z</time>
      </trkpt>
      <trkpt lat="45.21624" lon="5.73551">
        <ele>854.40002441406</ele>
        <time>2021-09-11T04:10:43.000Z</time>
      </trkpt>
      <trkpt lat="45.21624" lon="5.73554">
        <ele>855.20001220703</ele>
        <time>2021-09-11T04:10:45.000Z</time>
      </trkpt>
      <trkpt lat="45.21626" lon="5.73555">
        <ele>855.59997558594</ele>
        <time>2021-09-11T04:10:47.000Z</time>
      </trkpt>
      <trkpt lat="45.21628" lon="5.73556">
        <ele>856</ele>
        <time>2021-09-11T04:10:48.000Z</time>
      </trkpt>
      <trkpt lat="45.21632" lon="5.73559">
        <ele>856.79998779297</ele>
        <time>2021-09-11T04:10:51.000Z</time>
      </trkpt>
      <trkpt lat="45.21636" lon="5.73561">
        <ele>858</ele>
        <time>2021-09-11T04:10:55.000Z</time>
      </trkpt>
      <trkpt lat="45.21638" lon="5.73561">
        <ele>858.40002441406</ele>
        <time>2021-09-11T04:10:57.000Z</time>
      </trkpt>
      <trkpt lat="45.21641" lon="5.7356">
        <ele>858.79998779297</ele>
        <time>2021-09-11T04:10:59.000Z</time>
      </trkpt>
      <trkpt lat="45.21642" lon="5.7356">
        <ele>859</ele>
        <time>2021-09-11T04:11:00.000Z</time>
      </trkpt>
      <trkpt lat="45.21647" lon="5.73558">
        <ele>860.20001220703</ele>
        <time>2021-09-11T04:11:04.000Z</time>
      </trkpt>
      <trkpt lat="45.21648" lon="5.73557">
        <ele>860.59997558594</ele>
        <time>2021-09-11T04:11:06.000Z</time>
      </trkpt>
      <trkpt lat="45.21652" lon="5.73557">
        <ele>861.20001220703</ele>
        <time>2021-09-11T04:11:10.000Z</time>
      </trkpt>
      <trkpt lat="45.21655" lon="5.73554">
        <ele>862</ele>
        <time>2021-09-11T04:11:13.000Z</time>
      </trkpt>
      <trkpt lat="45.21657" lon="5.73554">
        <ele>862.20001220703</ele>
        <time>2021-09-11T04:11:15.000Z</time>
      </trkpt>
      <trkpt lat="45.21659" lon="5.73556">
        <ele>863.59997558594</ele>
        <time>2021-09-11T04:11:19.000Z</time>
      </trkpt>
      <trkpt lat="45.21663" lon="5.73554">
        <ele>864.59997558594</ele>
        <time>2021-09-11T04:11:24.000Z</time>
      </trkpt>
      <trkpt lat="45.21664" lon="5.73555">
        <ele>864.79998779297</ele>
        <time>2021-09-11T04:11:25.000Z</time>
      </trkpt>
      <trkpt lat="45.21666" lon="5.73556">
        <ele>865</ele>
        <time>2021-09-11T04:11:26.000Z</time>
      </trkpt>
      <trkpt lat="45.21673" lon="5.73559">
        <ele>865.59997558594</ele>
        <time>2021-09-11T04:11:30.000Z</time>
      </trkpt>
      <trkpt lat="45.21676" lon="5.7356">
        <ele>866</ele>
        <time>2021-09-11T04:11:32.000Z</time>
      </trkpt>
      <trkpt lat="45.2168" lon="5.73561">
        <ele>866.79998779297</ele>
        <time>2021-09-11T04:11:35.000Z</time>
      </trkpt>
      <trkpt lat="45.21681" lon="5.73562">
        <ele>867.20001220703</ele>
        <time>2021-09-11T04:11:36.000Z</time>
      </trkpt>
      <trkpt lat="45.21682" lon="5.73561">
        <ele>867.59997558594</ele>
        <time>2021-09-11T04:11:37.000Z</time>
      </trkpt>
      <trkpt lat="45.21684" lon="5.73562">
        <ele>868</ele>
        <time>2021-09-11T04:11:39.000Z</time>
      </trkpt>
      <trkpt lat="45.21685" lon="5.73563">
        <ele>868.20001220703</ele>
        <time>2021-09-11T04:11:40.000Z</time>
      </trkpt>
      <trkpt lat="45.21687" lon="5.73564">
        <ele>868.59997558594</ele>
        <time>2021-09-11T04:11:41.000Z</time>
      </trkpt>
      <trkpt lat="45.21694" lon="5.73563">
        <ele>869.40002441406</ele>
        <time>2021-09-11T04:11:45.000Z</time>
      </trkpt>
      <trkpt lat="45.21696" lon="5.73561">
        <ele>869.79998779297</ele>
        <time>2021-09-11T04:11:46.000Z</time>
      </trkpt>
      <trkpt lat="45.21696" lon="5.7356">
        <ele>870</ele>
        <time>2021-09-11T04:11:47.000Z</time>
      </trkpt>
      <trkpt lat="45.21692" lon="5.73562">
        <ele>871</ele>
        <time>2021-09-11T04:11:50.000Z</time>
      </trkpt>
      <trkpt lat="45.2169" lon="5.73562">
        <ele>871.79998779297</ele>
        <time>2021-09-11T04:11:53.000Z</time>
      </trkpt>
      <trkpt lat="45.21689" lon="5.73561">
        <ele>872</ele>
        <time>2021-09-11T04:11:54.000Z</time>
      </trkpt>
      <trkpt lat="45.21685" lon="5.7356">
        <ele>873</ele>
        <time>2021-09-11T04:11:59.000Z</time>
      </trkpt>
      <trkpt lat="45.21683" lon="5.7356">
        <ele>873.40002441406</ele>
        <time>2021-09-11T04:12:00.000Z</time>
      </trkpt>
      <trkpt lat="45.21682" lon="5.73559">
        <ele>873.59997558594</ele>
        <time>2021-09-11T04:12:01.000Z</time>
      </trkpt>
      <trkpt lat="45.2168" lon="5.73555">
        <ele>874.40002441406</ele>
        <time>2021-09-11T04:12:05.000Z</time>
      </trkpt>
      <trkpt lat="45.21679" lon="5.73554">
        <ele>874.79998779297</ele>
        <time>2021-09-11T04:12:06.000Z</time>
      </trkpt>
      <trkpt lat="45.21678" lon="5.73554">
        <ele>875</ele>
        <time>2021-09-11T04:12:07.000Z</time>
      </trkpt>
      <trkpt lat="45.21674" lon="5.73553">
        <ele>875.59997558594</ele>
        <time>2021-09-11T04:12:10.000Z</time>
      </trkpt>
      <trkpt lat="45.21672" lon="5.73551">
        <ele>876.20001220703</ele>
        <time>2021-09-11T04:12:12.000Z</time>
      </trkpt>
      <trkpt lat="45.21669" lon="5.73552">
        <ele>876.59997558594</ele>
        <time>2021-09-11T04:12:14.000Z</time>
      </trkpt>
      <trkpt lat="45.21668" lon="5.73552">
        <ele>877</ele>
        <time>2021-09-11T04:12:15.000Z</time>
      </trkpt>
      <trkpt lat="45.21666" lon="5.73553">
        <ele>877.59997558594</ele>
        <time>2021-09-11T04:12:17.000Z</time>
      </trkpt>
      <trkpt lat="45.21662" lon="5.73551">
        <ele>878.59997558594</ele>
        <time>2021-09-11T04:12:20.000Z</time>
      </trkpt>
      <trkpt lat="45.21662" lon="5.7355">
        <ele>878.79998779297</ele>
        <time>2021-09-11T04:12:21.000Z</time>
      </trkpt>
      <trkpt lat="45.21661" lon="5.73547">
        <ele>879.40002441406</ele>
        <time>2021-09-11T04:12:23.000Z</time>
      </trkpt>
      <trkpt lat="45.21661" lon="5.73546">
        <ele>879.59997558594</ele>
        <time>2021-09-11T04:12:24.000Z</time>
      </trkpt>
      <trkpt lat="45.21662" lon="5.73544">
        <ele>880.20001220703</ele>
        <time>2021-09-11T04:12:26.000Z</time>
      </trkpt>
      <trkpt lat="45.21662" lon="5.73543">
        <ele>880.79998779297</ele>
        <time>2021-09-11T04:12:27.000Z</time>
      </trkpt>
      <trkpt lat="45.21666" lon="5.73538">
        <ele>881.79998779297</ele>
        <time>2021-09-11T04:12:31.000Z</time>
      </trkpt>
      <trkpt lat="45.21668" lon="5.73535">
        <ele>882</ele>
        <time>2021-09-11T04:12:32.000Z</time>
      </trkpt>
      <trkpt lat="45.21673" lon="5.73531">
        <ele>883</ele>
        <time>2021-09-11T04:12:36.000Z</time>
      </trkpt>
      <trkpt lat="45.21674" lon="5.73531">
        <ele>883.20001220703</ele>
        <time>2021-09-11T04:12:37.000Z</time>
      </trkpt>
      <trkpt lat="45.21677" lon="5.73532">
        <ele>884</ele>
        <time>2021-09-11T04:12:40.000Z</time>
      </trkpt>
      <trkpt lat="45.21678" lon="5.7353">
        <ele>884.20001220703</ele>
        <time>2021-09-11T04:12:42.000Z</time>
      </trkpt>
      <trkpt lat="45.21683" lon="5.73531">
        <ele>884.79998779297</ele>
        <time>2021-09-11T04:12:46.000Z</time>
      </trkpt>
      <trkpt lat="45.21684" lon="5.7353">
        <ele>885</ele>
        <time>2021-09-11T04:12:47.000Z</time>
      </trkpt>
      <trkpt lat="45.21686" lon="5.7353">
        <ele>885</ele>
        <time>2021-09-11T04:12:48.000Z</time>
      </trkpt>
      <trkpt lat="45.2169" lon="5.73529">
        <ele>886.20001220703</ele>
        <time>2021-09-11T04:12:51.000Z</time>
      </trkpt>
      <trkpt lat="45.21695" lon="5.73528">
        <ele>887.40002441406</ele>
        <time>2021-09-11T04:12:55.000Z</time>
      </trkpt>
      <trkpt lat="45.21698" lon="5.73528">
        <ele>888</ele>
        <time>2021-09-11T04:12:57.000Z</time>
      </trkpt>
      <trkpt lat="45.217" lon="5.73529">
        <ele>888.40002441406</ele>
        <time>2021-09-11T04:12:58.000Z</time>
      </trkpt>
      <trkpt lat="45.21701" lon="5.7353">
        <ele>888.40002441406</ele>
        <time>2021-09-11T04:12:59.000Z</time>
      </trkpt>
      <trkpt lat="45.21703" lon="5.73531">
        <ele>888.79998779297</ele>
        <time>2021-09-11T04:13:00.000Z</time>
      </trkpt>
      <trkpt lat="45.21706" lon="5.73531">
        <ele>889.59997558594</ele>
        <time>2021-09-11T04:13:02.000Z</time>
      </trkpt>
      <trkpt lat="45.21707" lon="5.73531">
        <ele>889.59997558594</ele>
        <time>2021-09-11T04:13:03.000Z</time>
      </trkpt>
      <trkpt lat="45.21713" lon="5.73538">
        <ele>890.59997558594</ele>
        <time>2021-09-11T04:13:08.000Z</time>
      </trkpt>
      <trkpt lat="45.21715" lon="5.73538">
        <ele>890.79998779297</ele>
        <time>2021-09-11T04:13:09.000Z</time>
      </trkpt>
      <trkpt lat="45.21718" lon="5.7354">
        <ele>891.20001220703</ele>
        <time>2021-09-11T04:13:12.000Z</time>
      </trkpt>
      <trkpt lat="45.21722" lon="5.73541">
        <ele>891.40002441406</ele>
        <time>2021-09-11T04:13:16.000Z</time>
      </trkpt>
      <trkpt lat="45.21726" lon="5.73538">
        <ele>891.40002441406</ele>
        <time>2021-09-11T04:13:18.000Z</time>
      </trkpt>
      <trkpt lat="45.21735" lon="5.73533">
        <ele>891.40002441406</ele>
        <time>2021-09-11T04:13:24.000Z</time>
      </trkpt>
      <trkpt lat="45.21737" lon="5.73534">
        <ele>891.40002441406</ele>
        <time>2021-09-11T04:13:26.000Z</time>
      </trkpt>
      <trkpt lat="45.21739" lon="5.73535">
        <ele>891.20001220703</ele>
        <time>2021-09-11T04:13:28.000Z</time>
      </trkpt>
      <trkpt lat="45.2174" lon="5.73535">
        <ele>891</ele>
        <time>2021-09-11T04:13:29.000Z</time>
      </trkpt>
      <trkpt lat="45.21741" lon="5.73536">
        <ele>890.79998779297</ele>
        <time>2021-09-11T04:13:30.000Z</time>
      </trkpt>
      <trkpt lat="45.21744" lon="5.73539">
        <ele>890.40002441406</ele>
        <time>2021-09-11T04:13:32.000Z</time>
      </trkpt>
      <trkpt lat="45.21748" lon="5.73543">
        <ele>890</ele>
        <time>2021-09-11T04:13:34.000Z</time>
      </trkpt>
      <trkpt lat="45.2175" lon="5.73546">
        <ele>889.59997558594</ele>
        <time>2021-09-11T04:13:36.000Z</time>
      </trkpt>
      <trkpt lat="45.21751" lon="5.73548">
        <ele>889.40002441406</ele>
        <time>2021-09-11T04:13:37.000Z</time>
      </trkpt>
      <trkpt lat="45.21754" lon="5.73554">
        <ele>888.40002441406</ele>
        <time>2021-09-11T04:13:40.000Z</time>
      </trkpt>
      <trkpt lat="45.21756" lon="5.73558">
        <ele>888</ele>
        <time>2021-09-11T04:13:42.000Z</time>
      </trkpt>
      <trkpt lat="45.21761" lon="5.73562">
        <ele>887.79998779297</ele>
        <time>2021-09-11T04:13:45.000Z</time>
      </trkpt>
      <trkpt lat="45.21764" lon="5.73565">
        <ele>887.59997558594</ele>
        <time>2021-09-11T04:13:47.000Z</time>
      </trkpt>
      <trkpt lat="45.21765" lon="5.7357">
        <ele>887.20001220703</ele>
        <time>2021-09-11T04:13:49.000Z</time>
      </trkpt>
      <trkpt lat="45.21767" lon="5.73576">
        <ele>887</ele>
        <time>2021-09-11T04:13:51.000Z</time>
      </trkpt>
      <trkpt lat="45.21769" lon="5.73579">
        <ele>886.79998779297</ele>
        <time>2021-09-11T04:13:52.000Z</time>
      </trkpt>
      <trkpt lat="45.21771" lon="5.73583">
        <ele>886.79998779297</ele>
        <time>2021-09-11T04:13:54.000Z</time>
      </trkpt>
      <trkpt lat="45.21772" lon="5.73585">
        <ele>886.79998779297</ele>
        <time>2021-09-11T04:13:56.000Z</time>
      </trkpt>
      <trkpt lat="45.21783" lon="5.73591">
        <ele>887.40002441406</ele>
        <time>2021-09-11T04:14:01.000Z</time>
      </trkpt>
      <trkpt lat="45.21787" lon="5.73594">
        <ele>887.40002441406</ele>
        <time>2021-09-11T04:14:03.000Z</time>
      </trkpt>
      <trkpt lat="45.21791" lon="5.73598">
        <ele>887.79998779297</ele>
        <time>2021-09-11T04:14:05.000Z</time>
      </trkpt>
      <trkpt lat="45.21798" lon="5.73602">
        <ele>888.20001220703</ele>
        <time>2021-09-11T04:14:08.000Z</time>
      </trkpt>
      <trkpt lat="45.218" lon="5.73603">
        <ele>888.20001220703</ele>
        <time>2021-09-11T04:14:09.000Z</time>
      </trkpt>
      <trkpt lat="45.21803" lon="5.73605">
        <ele>888.59997558594</ele>
        <time>2021-09-11T04:14:12.000Z</time>
      </trkpt>
      <trkpt lat="45.21804" lon="5.73607">
        <ele>888.79998779297</ele>
        <time>2021-09-11T04:14:13.000Z</time>
      </trkpt>
      <trkpt lat="45.21809" lon="5.73612">
        <ele>889.40002441406</ele>
        <time>2021-09-11T04:14:16.000Z</time>
      </trkpt>
      <trkpt lat="45.21811" lon="5.73616">
        <ele>889.59997558594</ele>
        <time>2021-09-11T04:14:18.000Z</time>
      </trkpt>
      <trkpt lat="45.21812" lon="5.73618">
        <ele>889.79998779297</ele>
        <time>2021-09-11T04:14:19.000Z</time>
      </trkpt>
      <trkpt lat="45.21815" lon="5.73622">
        <ele>890.40002441406</ele>
        <time>2021-09-11T04:14:21.000Z</time>
      </trkpt>
      <trkpt lat="45.2182" lon="5.73632">
        <ele>890.59997558594</ele>
        <time>2021-09-11T04:14:25.000Z</time>
      </trkpt>
      <trkpt lat="45.21824" lon="5.73641">
        <ele>890.59997558594</ele>
        <time>2021-09-11T04:14:28.000Z</time>
      </trkpt>
      <trkpt lat="45.21826" lon="5.73643">
        <ele>890.40002441406</ele>
        <time>2021-09-11T04:14:29.000Z</time>
      </trkpt>
      <trkpt lat="45.21828" lon="5.73646">
        <ele>890.40002441406</ele>
        <time>2021-09-11T04:14:30.000Z</time>
      </trkpt>
      <trkpt lat="45.21835" lon="5.73653">
        <ele>889.59997558594</ele>
        <time>2021-09-11T04:14:33.000Z</time>
      </trkpt>
      <trkpt lat="45.21838" lon="5.73655">
        <ele>889.40002441406</ele>
        <time>2021-09-11T04:14:34.000Z</time>
      </trkpt>
      <trkpt lat="45.2184" lon="5.73657">
        <ele>889.40002441406</ele>
        <time>2021-09-11T04:14:35.000Z</time>
      </trkpt>
      <trkpt lat="45.2185" lon="5.73669">
        <ele>889.40002441406</ele>
        <time>2021-09-11T04:14:40.000Z</time>
      </trkpt>
      <trkpt lat="45.21863" lon="5.73672">
        <ele>889.59997558594</ele>
        <time>2021-09-11T04:14:45.000Z</time>
      </trkpt>
      <trkpt lat="45.21875" lon="5.73684">
        <ele>890.40002441406</ele>
        <time>2021-09-11T04:14:51.000Z</time>
      </trkpt>
      <trkpt lat="45.21882" lon="5.73695">
        <ele>890</ele>
        <time>2021-09-11T04:14:55.000Z</time>
      </trkpt>
      <trkpt lat="45.21882" lon="5.73698">
        <ele>889.79998779297</ele>
        <time>2021-09-11T04:14:56.000Z</time>
      </trkpt>
      <trkpt lat="45.21883" lon="5.73702">
        <ele>889.20001220703</ele>
        <time>2021-09-11T04:14:58.000Z</time>
      </trkpt>
      <trkpt lat="45.21889" lon="5.73704">
        <ele>888.59997558594</ele>
        <time>2021-09-11T04:15:01.000Z</time>
      </trkpt>
      <trkpt lat="45.21891" lon="5.73704">
        <ele>888.40002441406</ele>
        <time>2021-09-11T04:15:02.000Z</time>
      </trkpt>
      <trkpt lat="45.21894" lon="5.73705">
        <ele>887.79998779297</ele>
        <time>2021-09-11T04:15:04.000Z</time>
      </trkpt>
      <trkpt lat="45.21897" lon="5.73706">
        <ele>887</ele>
        <time>2021-09-11T04:15:06.000Z</time>
      </trkpt>
      <trkpt lat="45.21898" lon="5.73706">
        <ele>886.79998779297</ele>
        <time>2021-09-11T04:15:07.000Z</time>
      </trkpt>
      <trkpt lat="45.21901" lon="5.73708">
        <ele>885.59997558594</ele>
        <time>2021-09-11T04:15:09.000Z</time>
      </trkpt>
      <trkpt lat="45.21907" lon="5.73709">
        <ele>884.40002441406</ele>
        <time>2021-09-11T04:15:12.000Z</time>
      </trkpt>
      <trkpt lat="45.2191" lon="5.73709">
        <ele>884</ele>
        <time>2021-09-11T04:15:14.000Z</time>
      </trkpt>
      <trkpt lat="45.21915" lon="5.73711">
        <ele>883</ele>
        <time>2021-09-11T04:15:17.000Z</time>
      </trkpt>
      <trkpt lat="45.21916" lon="5.73712">
        <ele>882.79998779297</ele>
        <time>2021-09-11T04:15:18.000Z</time>
      </trkpt>
      <trkpt lat="45.21917" lon="5.73715">
        <ele>882.40002441406</ele>
        <time>2021-09-11T04:15:19.000Z</time>
      </trkpt>
      <trkpt lat="45.21918" lon="5.73718">
        <ele>882</ele>
        <time>2021-09-11T04:15:20.000Z</time>
      </trkpt>
      <trkpt lat="45.21924" lon="5.73726">
        <ele>880.79998779297</ele>
        <time>2021-09-11T04:15:24.000Z</time>
      </trkpt>
      <trkpt lat="45.21925" lon="5.73726">
        <ele>880.40002441406</ele>
        <time>2021-09-11T04:15:25.000Z</time>
      </trkpt>
      <trkpt lat="45.21929" lon="5.73729">
        <ele>879.79998779297</ele>
        <time>2021-09-11T04:15:27.000Z</time>
      </trkpt>
      <trkpt lat="45.21931" lon="5.7373">
        <ele>879.40002441406</ele>
        <time>2021-09-11T04:15:28.000Z</time>
      </trkpt>
      <trkpt lat="45.21936" lon="5.73732">
        <ele>878.79998779297</ele>
        <time>2021-09-11T04:15:30.000Z</time>
      </trkpt>
      <trkpt lat="45.21937" lon="5.73735">
        <ele>878.59997558594</ele>
        <time>2021-09-11T04:15:31.000Z</time>
      </trkpt>
      <trkpt lat="45.21938" lon="5.73738">
        <ele>878.20001220703</ele>
        <time>2021-09-11T04:15:32.000Z</time>
      </trkpt>
      <trkpt lat="45.21942" lon="5.73749">
        <ele>877.59997558594</ele>
        <time>2021-09-11T04:15:35.000Z</time>
      </trkpt>
      <trkpt lat="45.21945" lon="5.7376">
        <ele>877</ele>
        <time>2021-09-11T04:15:38.000Z</time>
      </trkpt>
      <trkpt lat="45.21946" lon="5.73763">
        <ele>876.79998779297</ele>
        <time>2021-09-11T04:15:39.000Z</time>
      </trkpt>
      <trkpt lat="45.21947" lon="5.73764">
        <ele>876.59997558594</ele>
        <time>2021-09-11T04:15:40.000Z</time>
      </trkpt>
      <trkpt lat="45.21952" lon="5.73777">
        <ele>875.79998779297</ele>
        <time>2021-09-11T04:15:44.000Z</time>
      </trkpt>
      <trkpt lat="45.21955" lon="5.73782">
        <ele>875.40002441406</ele>
        <time>2021-09-11T04:15:46.000Z</time>
      </trkpt>
      <trkpt lat="45.21964" lon="5.73791">
        <ele>874.79998779297</ele>
        <time>2021-09-11T04:15:51.000Z</time>
      </trkpt>
      <trkpt lat="45.21966" lon="5.73795">
        <ele>874.20001220703</ele>
        <time>2021-09-11T04:15:53.000Z</time>
      </trkpt>
      <trkpt lat="45.21969" lon="5.73799">
        <ele>873.79998779297</ele>
        <time>2021-09-11T04:15:55.000Z</time>
      </trkpt>
      <trkpt lat="45.2197" lon="5.73801">
        <ele>873.59997558594</ele>
        <time>2021-09-11T04:15:56.000Z</time>
      </trkpt>
      <trkpt lat="45.21972" lon="5.73804">
        <ele>873.20001220703</ele>
        <time>2021-09-11T04:15:58.000Z</time>
      </trkpt>
      <trkpt lat="45.21973" lon="5.73808">
        <ele>872.59997558594</ele>
        <time>2021-09-11T04:16:00.000Z</time>
      </trkpt>
      <trkpt lat="45.21974" lon="5.73811">
        <ele>872</ele>
        <time>2021-09-11T04:16:02.000Z</time>
      </trkpt>
      <trkpt lat="45.21975" lon="5.73814">
        <ele>871.59997558594</ele>
        <time>2021-09-11T04:16:04.000Z</time>
      </trkpt>
      <trkpt lat="45.21979" lon="5.73819">
        <ele>870.59997558594</ele>
        <time>2021-09-11T04:16:08.000Z</time>
      </trkpt>
      <trkpt lat="45.2198" lon="5.73821">
        <ele>870.40002441406</ele>
        <time>2021-09-11T04:16:09.000Z</time>
      </trkpt>
      <trkpt lat="45.21981" lon="5.73822">
        <ele>869.79998779297</ele>
        <time>2021-09-11T04:16:10.000Z</time>
      </trkpt>
      <trkpt lat="45.21983" lon="5.73824">
        <ele>869.20001220703</ele>
        <time>2021-09-11T04:16:11.000Z</time>
      </trkpt>
      <trkpt lat="45.21987" lon="5.73827">
        <ele>868.40002441406</ele>
        <time>2021-09-11T04:16:14.000Z</time>
      </trkpt>
      <trkpt lat="45.21989" lon="5.73828">
        <ele>867.79998779297</ele>
        <time>2021-09-11T04:16:15.000Z</time>
      </trkpt>
      <trkpt lat="45.21994" lon="5.73829">
        <ele>867.40002441406</ele>
        <time>2021-09-11T04:16:17.000Z</time>
      </trkpt>
      <trkpt lat="45.21995" lon="5.7383">
        <ele>867.20001220703</ele>
        <time>2021-09-11T04:16:18.000Z</time>
      </trkpt>
      <trkpt lat="45.21997" lon="5.73836">
        <ele>866.79998779297</ele>
        <time>2021-09-11T04:16:22.000Z</time>
      </trkpt>
      <trkpt lat="45.21999" lon="5.73837">
        <ele>866.59997558594</ele>
        <time>2021-09-11T04:16:23.000Z</time>
      </trkpt>
      <trkpt lat="45.22006" lon="5.73838">
        <ele>866</ele>
        <time>2021-09-11T04:16:26.000Z</time>
      </trkpt>
      <trkpt lat="45.22014" lon="5.7384">
        <ele>865.59997558594</ele>
        <time>2021-09-11T04:16:29.000Z</time>
      </trkpt>
      <trkpt lat="45.22022" lon="5.73844">
        <ele>864.59997558594</ele>
        <time>2021-09-11T04:16:33.000Z</time>
      </trkpt>
      <trkpt lat="45.22024" lon="5.73846">
        <ele>864.40002441406</ele>
        <time>2021-09-11T04:16:34.000Z</time>
      </trkpt>
      <trkpt lat="45.22034" lon="5.7385">
        <ele>863.79998779297</ele>
        <time>2021-09-11T04:16:39.000Z</time>
      </trkpt>
      <trkpt lat="45.22036" lon="5.73851">
        <ele>863.59997558594</ele>
        <time>2021-09-11T04:16:40.000Z</time>
      </trkpt>
      <trkpt lat="45.22037" lon="5.73851">
        <ele>863.40002441406</ele>
        <time>2021-09-11T04:16:41.000Z</time>
      </trkpt>
      <trkpt lat="45.22038" lon="5.73851">
        <ele>863.40002441406</ele>
        <time>2021-09-11T04:16:42.000Z</time>
      </trkpt>
      <trkpt lat="45.22042" lon="5.73855">
        <ele>863</ele>
        <time>2021-09-11T04:16:44.000Z</time>
      </trkpt>
      <trkpt lat="45.22044" lon="5.73857">
        <ele>863</ele>
        <time>2021-09-11T04:16:45.000Z</time>
      </trkpt>
      <trkpt lat="45.22058" lon="5.7387">
        <ele>862.79998779297</ele>
        <time>2021-09-11T04:16:51.000Z</time>
      </trkpt>
      <trkpt lat="45.22065" lon="5.73874">
        <ele>862.20001220703</ele>
        <time>2021-09-11T04:16:55.000Z</time>
      </trkpt>
      <trkpt lat="45.22066" lon="5.73875">
        <ele>861.79998779297</ele>
        <time>2021-09-11T04:16:56.000Z</time>
      </trkpt>
      <trkpt lat="45.22069" lon="5.73879">
        <ele>861</ele>
        <time>2021-09-11T04:16:58.000Z</time>
      </trkpt>
      <trkpt lat="45.22072" lon="5.73884">
        <ele>860.20001220703</ele>
        <time>2021-09-11T04:17:01.000Z</time>
      </trkpt>
      <trkpt lat="45.22073" lon="5.73885">
        <ele>860</ele>
        <time>2021-09-11T04:17:02.000Z</time>
      </trkpt>
      <trkpt lat="45.22081" lon="5.73893">
        <ele>859</ele>
        <time>2021-09-11T04:17:06.000Z</time>
      </trkpt>
      <trkpt lat="45.22083" lon="5.73895">
        <ele>858.59997558594</ele>
        <time>2021-09-11T04:17:07.000Z</time>
      </trkpt>
      <trkpt lat="45.2209" lon="5.739">
        <ele>858</ele>
        <time>2021-09-11T04:17:11.000Z</time>
      </trkpt>
      <trkpt lat="45.22092" lon="5.73901">
        <ele>857.79998779297</ele>
        <time>2021-09-11T04:17:12.000Z</time>
      </trkpt>
      <trkpt lat="45.22096" lon="5.73904">
        <ele>857.40002441406</ele>
        <time>2021-09-11T04:17:14.000Z</time>
      </trkpt>
      <trkpt lat="45.22098" lon="5.73907">
        <ele>857</ele>
        <time>2021-09-11T04:17:16.000Z</time>
      </trkpt>
      <trkpt lat="45.221" lon="5.73908">
        <ele>856.59997558594</ele>
        <time>2021-09-11T04:17:18.000Z</time>
      </trkpt>
      <trkpt lat="45.22101" lon="5.73909">
        <ele>856.40002441406</ele>
        <time>2021-09-11T04:17:19.000Z</time>
      </trkpt>
      <trkpt lat="45.22105" lon="5.73913">
        <ele>855.79998779297</ele>
        <time>2021-09-11T04:17:22.000Z</time>
      </trkpt>
      <trkpt lat="45.22108" lon="5.73915">
        <ele>855.40002441406</ele>
        <time>2021-09-11T04:17:24.000Z</time>
      </trkpt>
      <trkpt lat="45.22108" lon="5.73915">
        <ele>855.20001220703</ele>
        <time>2021-09-11T04:17:25.000Z</time>
      </trkpt>
      <trkpt lat="45.22111" lon="5.73918">
        <ele>854.20001220703</ele>
        <time>2021-09-11T04:17:28.000Z</time>
      </trkpt>
      <trkpt lat="45.22116" lon="5.73923">
        <ele>853</ele>
        <time>2021-09-11T04:17:31.000Z</time>
      </trkpt>
      <trkpt lat="45.22117" lon="5.73923">
        <ele>852.59997558594</ele>
        <time>2021-09-11T04:17:32.000Z</time>
      </trkpt>
      <trkpt lat="45.22119" lon="5.73923">
        <ele>852.20001220703</ele>
        <time>2021-09-11T04:17:33.000Z</time>
      </trkpt>
      <trkpt lat="45.22121" lon="5.73924">
        <ele>851.79998779297</ele>
        <time>2021-09-11T04:17:34.000Z</time>
      </trkpt>
      <trkpt lat="45.22125" lon="5.73928">
        <ele>851</ele>
        <time>2021-09-11T04:17:36.000Z</time>
      </trkpt>
      <trkpt lat="45.22126" lon="5.73931">
        <ele>850.59997558594</ele>
        <time>2021-09-11T04:17:37.000Z</time>
      </trkpt>
      <trkpt lat="45.22128" lon="5.73936">
        <ele>849.59997558594</ele>
        <time>2021-09-11T04:17:40.000Z</time>
      </trkpt>
      <trkpt lat="45.2213" lon="5.73939">
        <ele>849</ele>
        <time>2021-09-11T04:17:42.000Z</time>
      </trkpt>
      <trkpt lat="45.22132" lon="5.73943">
        <ele>848.59997558594</ele>
        <time>2021-09-11T04:17:44.000Z</time>
      </trkpt>
      <trkpt lat="45.22137" lon="5.73945">
        <ele>848</ele>
        <time>2021-09-11T04:17:46.000Z</time>
      </trkpt>
      <trkpt lat="45.22142" lon="5.73948">
        <ele>847.59997558594</ele>
        <time>2021-09-11T04:17:48.000Z</time>
      </trkpt>
      <trkpt lat="45.22143" lon="5.7395">
        <ele>847.40002441406</ele>
        <time>2021-09-11T04:17:49.000Z</time>
      </trkpt>
      <trkpt lat="45.22151" lon="5.73963">
        <ele>846.40002441406</ele>
        <time>2021-09-11T04:17:55.000Z</time>
      </trkpt>
      <trkpt lat="45.22155" lon="5.73966">
        <ele>845.40002441406</ele>
        <time>2021-09-11T04:17:58.000Z</time>
      </trkpt>
      <trkpt lat="45.22156" lon="5.73967">
        <ele>845.20001220703</ele>
        <time>2021-09-11T04:17:59.000Z</time>
      </trkpt>
      <trkpt lat="45.22158" lon="5.73971">
        <ele>844.40002441406</ele>
        <time>2021-09-11T04:18:01.000Z</time>
      </trkpt>
      <trkpt lat="45.22158" lon="5.73973">
        <ele>844.20001220703</ele>
        <time>2021-09-11T04:18:02.000Z</time>
      </trkpt>
      <trkpt lat="45.22163" lon="5.73982">
        <ele>843.40002441406</ele>
        <time>2021-09-11T04:18:06.000Z</time>
      </trkpt>
      <trkpt lat="45.22165" lon="5.73986">
        <ele>842.79998779297</ele>
        <time>2021-09-11T04:18:08.000Z</time>
      </trkpt>
      <trkpt lat="45.22169" lon="5.73996">
        <ele>841.59997558594</ele>
        <time>2021-09-11T04:18:12.000Z</time>
      </trkpt>
      <trkpt lat="45.22172" lon="5.74001">
        <ele>841.20001220703</ele>
        <time>2021-09-11T04:18:14.000Z</time>
      </trkpt>
      <trkpt lat="45.22174" lon="5.74002">
        <ele>840.79998779297</ele>
        <time>2021-09-11T04:18:15.000Z</time>
      </trkpt>
      <trkpt lat="45.22175" lon="5.74003">
        <ele>840.40002441406</ele>
        <time>2021-09-11T04:18:16.000Z</time>
      </trkpt>
      <trkpt lat="45.22177" lon="5.74006">
        <ele>839.40002441406</ele>
        <time>2021-09-11T04:18:18.000Z</time>
      </trkpt>
      <trkpt lat="45.22177" lon="5.74007">
        <ele>839</ele>
        <time>2021-09-11T04:18:19.000Z</time>
      </trkpt>
      <trkpt lat="45.22177" lon="5.74009">
        <ele>838</ele>
        <time>2021-09-11T04:18:21.000Z</time>
      </trkpt>
      <trkpt lat="45.22178" lon="5.74012">
        <ele>837.40002441406</ele>
        <time>2021-09-11T04:18:23.000Z</time>
      </trkpt>
      <trkpt lat="45.22179" lon="5.74014">
        <ele>836.79998779297</ele>
        <time>2021-09-11T04:18:24.000Z</time>
      </trkpt>
      <trkpt lat="45.2218" lon="5.74016">
        <ele>836.40002441406</ele>
        <time>2021-09-11T04:18:25.000Z</time>
      </trkpt>
      <trkpt lat="45.22182" lon="5.7402">
        <ele>835.59997558594</ele>
        <time>2021-09-11T04:18:27.000Z</time>
      </trkpt>
      <trkpt lat="45.22186" lon="5.74026">
        <ele>834.79998779297</ele>
        <time>2021-09-11T04:18:29.000Z</time>
      </trkpt>
      <trkpt lat="45.2219" lon="5.74032">
        <ele>834.20001220703</ele>
        <time>2021-09-11T04:18:31.000Z</time>
      </trkpt>
      <trkpt lat="45.22199" lon="5.74042">
        <ele>833</ele>
        <time>2021-09-11T04:18:35.000Z</time>
      </trkpt>
      <trkpt lat="45.222" lon="5.74043">
        <ele>832.79998779297</ele>
        <time>2021-09-11T04:18:36.000Z</time>
      </trkpt>
      <trkpt lat="45.22201" lon="5.74045">
        <ele>832.59997558594</ele>
        <time>2021-09-11T04:18:37.000Z</time>
      </trkpt>
      <trkpt lat="45.22202" lon="5.74048">
        <ele>832</ele>
        <time>2021-09-11T04:18:38.000Z</time>
      </trkpt>
      <trkpt lat="45.22204" lon="5.74051">
        <ele>831.40002441406</ele>
        <time>2021-09-11T04:18:40.000Z</time>
      </trkpt>
      <trkpt lat="45.22207" lon="5.74054">
        <ele>831</ele>
        <time>2021-09-11T04:18:42.000Z</time>
      </trkpt>
      <trkpt lat="45.22208" lon="5.74056">
        <ele>830.79998779297</ele>
        <time>2021-09-11T04:18:43.000Z</time>
      </trkpt>
      <trkpt lat="45.2221" lon="5.74058">
        <ele>830.59997558594</ele>
        <time>2021-09-11T04:18:45.000Z</time>
      </trkpt>
      <trkpt lat="45.22211" lon="5.7406">
        <ele>830.40002441406</ele>
        <time>2021-09-11T04:18:46.000Z</time>
      </trkpt>
      <trkpt lat="45.22211" lon="5.74062">
        <ele>830.20001220703</ele>
        <time>2021-09-11T04:18:47.000Z</time>
      </trkpt>
      <trkpt lat="45.22214" lon="5.74066">
        <ele>829.79998779297</ele>
        <time>2021-09-11T04:18:49.000Z</time>
      </trkpt>
      <trkpt lat="45.22219" lon="5.74071">
        <ele>829.40002441406</ele>
        <time>2021-09-11T04:18:51.000Z</time>
      </trkpt>
      <trkpt lat="45.22225" lon="5.74079">
        <ele>828.59997558594</ele>
        <time>2021-09-11T04:18:55.000Z</time>
      </trkpt>
      <trkpt lat="45.22228" lon="5.74082">
        <ele>828</ele>
        <time>2021-09-11T04:18:57.000Z</time>
      </trkpt>
      <trkpt lat="45.22231" lon="5.74085">
        <ele>827.40002441406</ele>
        <time>2021-09-11T04:18:59.000Z</time>
      </trkpt>
      <trkpt lat="45.22234" lon="5.74088">
        <ele>826.79998779297</ele>
        <time>2021-09-11T04:19:01.000Z</time>
      </trkpt>
      <trkpt lat="45.22235" lon="5.7409">
        <ele>826.20001220703</ele>
        <time>2021-09-11T04:19:02.000Z</time>
      </trkpt>
      <trkpt lat="45.22236" lon="5.74092">
        <ele>825.59997558594</ele>
        <time>2021-09-11T04:19:03.000Z</time>
      </trkpt>
      <trkpt lat="45.22237" lon="5.74094">
        <ele>825.20001220703</ele>
        <time>2021-09-11T04:19:04.000Z</time>
      </trkpt>
      <trkpt lat="45.22242" lon="5.74103">
        <ele>823.59997558594</ele>
        <time>2021-09-11T04:19:08.000Z</time>
      </trkpt>
      <trkpt lat="45.22243" lon="5.74105">
        <ele>823.20001220703</ele>
        <time>2021-09-11T04:19:09.000Z</time>
      </trkpt>
      <trkpt lat="45.22244" lon="5.74106">
        <ele>822.79998779297</ele>
        <time>2021-09-11T04:19:10.000Z</time>
      </trkpt>
      <trkpt lat="45.22245" lon="5.74107">
        <ele>822.40002441406</ele>
        <time>2021-09-11T04:19:11.000Z</time>
      </trkpt>
      <trkpt lat="45.22246" lon="5.74107">
        <ele>821.79998779297</ele>
        <time>2021-09-11T04:19:12.000Z</time>
      </trkpt>
      <trkpt lat="45.22247" lon="5.74108">
        <ele>821.59997558594</ele>
        <time>2021-09-11T04:19:13.000Z</time>
      </trkpt>
      <trkpt lat="45.2225" lon="5.7411">
        <ele>821</ele>
        <time>2021-09-11T04:19:15.000Z</time>
      </trkpt>
      <trkpt lat="45.22254" lon="5.74112">
        <ele>820.20001220703</ele>
        <time>2021-09-11T04:19:17.000Z</time>
      </trkpt>
      <trkpt lat="45.22255" lon="5.74114">
        <ele>819.79998779297</ele>
        <time>2021-09-11T04:19:18.000Z</time>
      </trkpt>
      <trkpt lat="45.22256" lon="5.74116">
        <ele>819.59997558594</ele>
        <time>2021-09-11T04:19:19.000Z</time>
      </trkpt>
      <trkpt lat="45.22257" lon="5.74119">
        <ele>819.20001220703</ele>
        <time>2021-09-11T04:19:20.000Z</time>
      </trkpt>
      <trkpt lat="45.22258" lon="5.74123">
        <ele>818.79998779297</ele>
        <time>2021-09-11T04:19:21.000Z</time>
      </trkpt>
      <trkpt lat="45.2226" lon="5.74129">
        <ele>818.20001220703</ele>
        <time>2021-09-11T04:19:23.000Z</time>
      </trkpt>
      <trkpt lat="45.22263" lon="5.74133">
        <ele>817.79998779297</ele>
        <time>2021-09-11T04:19:25.000Z</time>
      </trkpt>
      <trkpt lat="45.22265" lon="5.74138">
        <ele>817.20001220703</ele>
        <time>2021-09-11T04:19:27.000Z</time>
      </trkpt>
      <trkpt lat="45.22268" lon="5.74142">
        <ele>816.59997558594</ele>
        <time>2021-09-11T04:19:29.000Z</time>
      </trkpt>
      <trkpt lat="45.22272" lon="5.74148">
        <ele>815.59997558594</ele>
        <time>2021-09-11T04:19:34.000Z</time>
      </trkpt>
      <trkpt lat="45.22273" lon="5.74153">
        <ele>815.20001220703</ele>
        <time>2021-09-11T04:19:36.000Z</time>
      </trkpt>
      <trkpt lat="45.22273" lon="5.74154">
        <ele>815</ele>
        <time>2021-09-11T04:19:37.000Z</time>
      </trkpt>
      <trkpt lat="45.22277" lon="5.74163">
        <ele>814.40002441406</ele>
        <time>2021-09-11T04:19:41.000Z</time>
      </trkpt>
      <trkpt lat="45.22278" lon="5.74165">
        <ele>814.20001220703</ele>
        <time>2021-09-11T04:19:42.000Z</time>
      </trkpt>
      <trkpt lat="45.2228" lon="5.74166">
        <ele>814</ele>
        <time>2021-09-11T04:19:43.000Z</time>
      </trkpt>
      <trkpt lat="45.22288" lon="5.74179">
        <ele>813.20001220703</ele>
        <time>2021-09-11T04:19:48.000Z</time>
      </trkpt>
      <trkpt lat="45.22288" lon="5.74181">
        <ele>813</ele>
        <time>2021-09-11T04:19:49.000Z</time>
      </trkpt>
      <trkpt lat="45.22292" lon="5.74191">
        <ele>812.40002441406</ele>
        <time>2021-09-11T04:19:53.000Z</time>
      </trkpt>
      <trkpt lat="45.22293" lon="5.74193">
        <ele>812.20001220703</ele>
        <time>2021-09-11T04:19:54.000Z</time>
      </trkpt>
      <trkpt lat="45.22298" lon="5.74195">
        <ele>811.79998779297</ele>
        <time>2021-09-11T04:19:56.000Z</time>
      </trkpt>
      <trkpt lat="45.22301" lon="5.74195">
        <ele>811</ele>
        <time>2021-09-11T04:19:58.000Z</time>
      </trkpt>
      <trkpt lat="45.22302" lon="5.74197">
        <ele>810.59997558594</ele>
        <time>2021-09-11T04:19:59.000Z</time>
      </trkpt>
      <trkpt lat="45.22305" lon="5.74199">
        <ele>810.20001220703</ele>
        <time>2021-09-11T04:20:01.000Z</time>
      </trkpt>
      <trkpt lat="45.22309" lon="5.74202">
        <ele>809.40002441406</ele>
        <time>2021-09-11T04:20:03.000Z</time>
      </trkpt>
      <trkpt lat="45.22311" lon="5.74203">
        <ele>808.59997558594</ele>
        <time>2021-09-11T04:20:04.000Z</time>
      </trkpt>
      <trkpt lat="45.22312" lon="5.74204">
        <ele>808.20001220703</ele>
        <time>2021-09-11T04:20:05.000Z</time>
      </trkpt>
      <trkpt lat="45.22316" lon="5.74208">
        <ele>807.40002441406</ele>
        <time>2021-09-11T04:20:07.000Z</time>
      </trkpt>
      <trkpt lat="45.22318" lon="5.74211">
        <ele>807</ele>
        <time>2021-09-11T04:20:08.000Z</time>
      </trkpt>
      <trkpt lat="45.22322" lon="5.74217">
        <ele>805.59997558594</ele>
        <time>2021-09-11T04:20:10.000Z</time>
      </trkpt>
      <trkpt lat="45.22324" lon="5.74222">
        <ele>804.40002441406</ele>
        <time>2021-09-11T04:20:12.000Z</time>
      </trkpt>
      <trkpt lat="45.22327" lon="5.74231">
        <ele>803.20001220703</ele>
        <time>2021-09-11T04:20:15.000Z</time>
      </trkpt>
      <trkpt lat="45.22333" lon="5.7424">
        <ele>801.79998779297</ele>
        <time>2021-09-11T04:20:19.000Z</time>
      </trkpt>
      <trkpt lat="45.22334" lon="5.74244">
        <ele>801.20001220703</ele>
        <time>2021-09-11T04:20:21.000Z</time>
      </trkpt>
      <trkpt lat="45.22335" lon="5.74246">
        <ele>800.59997558594</ele>
        <time>2021-09-11T04:20:22.000Z</time>
      </trkpt>
      <trkpt lat="45.2234" lon="5.7425">
        <ele>799.59997558594</ele>
        <time>2021-09-11T04:20:25.000Z</time>
      </trkpt>
      <trkpt lat="45.22342" lon="5.74252">
        <ele>799.20001220703</ele>
        <time>2021-09-11T04:20:26.000Z</time>
      </trkpt>
      <trkpt lat="45.22347" lon="5.74255">
        <ele>798.40002441406</ele>
        <time>2021-09-11T04:20:28.000Z</time>
      </trkpt>
      <trkpt lat="45.22348" lon="5.74257">
        <ele>797.79998779297</ele>
        <time>2021-09-11T04:20:29.000Z</time>
      </trkpt>
      <trkpt lat="45.22351" lon="5.74261">
        <ele>797.40002441406</ele>
        <time>2021-09-11T04:20:31.000Z</time>
      </trkpt>
      <trkpt lat="45.22352" lon="5.74263">
        <ele>797</ele>
        <time>2021-09-11T04:20:32.000Z</time>
      </trkpt>
      <trkpt lat="45.22354" lon="5.74268">
        <ele>796.40002441406</ele>
        <time>2021-09-11T04:20:34.000Z</time>
      </trkpt>
      <trkpt lat="45.22355" lon="5.74273">
        <ele>795.79998779297</ele>
        <time>2021-09-11T04:20:36.000Z</time>
      </trkpt>
      <trkpt lat="45.22357" lon="5.74276">
        <ele>795.59997558594</ele>
        <time>2021-09-11T04:20:37.000Z</time>
      </trkpt>
      <trkpt lat="45.22358" lon="5.74278">
        <ele>795</ele>
        <time>2021-09-11T04:20:38.000Z</time>
      </trkpt>
      <trkpt lat="45.22358" lon="5.7428">
        <ele>794.59997558594</ele>
        <time>2021-09-11T04:20:39.000Z</time>
      </trkpt>
      <trkpt lat="45.2236" lon="5.74285">
        <ele>793.79998779297</ele>
        <time>2021-09-11T04:20:41.000Z</time>
      </trkpt>
      <trkpt lat="45.22361" lon="5.74287">
        <ele>793.20001220703</ele>
        <time>2021-09-11T04:20:42.000Z</time>
      </trkpt>
      <trkpt lat="45.22363" lon="5.74288">
        <ele>793</ele>
        <time>2021-09-11T04:20:43.000Z</time>
      </trkpt>
      <trkpt lat="45.22365" lon="5.7429">
        <ele>792</ele>
        <time>2021-09-11T04:20:45.000Z</time>
      </trkpt>
      <trkpt lat="45.22365" lon="5.74291">
        <ele>791.59997558594</ele>
        <time>2021-09-11T04:20:46.000Z</time>
      </trkpt>
      <trkpt lat="45.22367" lon="5.74295">
        <ele>791.20001220703</ele>
        <time>2021-09-11T04:20:48.000Z</time>
      </trkpt>
      <trkpt lat="45.22368" lon="5.74296">
        <ele>790.79998779297</ele>
        <time>2021-09-11T04:20:49.000Z</time>
      </trkpt>
      <trkpt lat="45.22371" lon="5.743">
        <ele>789.79998779297</ele>
        <time>2021-09-11T04:20:51.000Z</time>
      </trkpt>
      <trkpt lat="45.22373" lon="5.74304">
        <ele>789</ele>
        <time>2021-09-11T04:20:53.000Z</time>
      </trkpt>
      <trkpt lat="45.22374" lon="5.74306">
        <ele>788.59997558594</ele>
        <time>2021-09-11T04:20:54.000Z</time>
      </trkpt>
      <trkpt lat="45.22375" lon="5.7431">
        <ele>788.20001220703</ele>
        <time>2021-09-11T04:20:56.000Z</time>
      </trkpt>
      <trkpt lat="45.22376" lon="5.74312">
        <ele>787.59997558594</ele>
        <time>2021-09-11T04:20:57.000Z</time>
      </trkpt>
      <trkpt lat="45.22377" lon="5.74313">
        <ele>787</ele>
        <time>2021-09-11T04:20:58.000Z</time>
      </trkpt>
      <trkpt lat="45.22378" lon="5.74316">
        <ele>786.59997558594</ele>
        <time>2021-09-11T04:20:59.000Z</time>
      </trkpt>
      <trkpt lat="45.22381" lon="5.74324">
        <ele>785.20001220703</ele>
        <time>2021-09-11T04:21:02.000Z</time>
      </trkpt>
      <trkpt lat="45.22382" lon="5.74327">
        <ele>784.79998779297</ele>
        <time>2021-09-11T04:21:03.000Z</time>
      </trkpt>
      <trkpt lat="45.22384" lon="5.74332">
        <ele>784</ele>
        <time>2021-09-11T04:21:05.000Z</time>
      </trkpt>
      <trkpt lat="45.22387" lon="5.7434">
        <ele>783</ele>
        <time>2021-09-11T04:21:08.000Z</time>
      </trkpt>
      <trkpt lat="45.22389" lon="5.74342">
        <ele>782.59997558594</ele>
        <time>2021-09-11T04:21:09.000Z</time>
      </trkpt>
      <trkpt lat="45.22391" lon="5.74343">
        <ele>782</ele>
        <time>2021-09-11T04:21:10.000Z</time>
      </trkpt>
      <trkpt lat="45.22393" lon="5.74344">
        <ele>781.59997558594</ele>
        <time>2021-09-11T04:21:11.000Z</time>
      </trkpt>
      <trkpt lat="45.22395" lon="5.74347">
        <ele>781</ele>
        <time>2021-09-11T04:21:13.000Z</time>
      </trkpt>
      <trkpt lat="45.22397" lon="5.7435">
        <ele>780.59997558594</ele>
        <time>2021-09-11T04:21:15.000Z</time>
      </trkpt>
      <trkpt lat="45.22397" lon="5.74352">
        <ele>779.79998779297</ele>
        <time>2021-09-11T04:21:16.000Z</time>
      </trkpt>
      <trkpt lat="45.22399" lon="5.74358">
        <ele>779.20001220703</ele>
        <time>2021-09-11T04:21:18.000Z</time>
      </trkpt>
      <trkpt lat="45.22399" lon="5.74361">
        <ele>778.79998779297</ele>
        <time>2021-09-11T04:21:19.000Z</time>
      </trkpt>
      <trkpt lat="45.224" lon="5.74369">
        <ele>777.79998779297</ele>
        <time>2021-09-11T04:21:22.000Z</time>
      </trkpt>
      <trkpt lat="45.22401" lon="5.74372">
        <ele>777.40002441406</ele>
        <time>2021-09-11T04:21:23.000Z</time>
      </trkpt>
      <trkpt lat="45.22402" lon="5.74376">
        <ele>777</ele>
        <time>2021-09-11T04:21:25.000Z</time>
      </trkpt>
      <trkpt lat="45.22404" lon="5.74377">
        <ele>776.20001220703</ele>
        <time>2021-09-11T04:21:27.000Z</time>
      </trkpt>
      <trkpt lat="45.22405" lon="5.7438">
        <ele>775.40002441406</ele>
        <time>2021-09-11T04:21:29.000Z</time>
      </trkpt>
      <trkpt lat="45.22406" lon="5.74383">
        <ele>775</ele>
        <time>2021-09-11T04:21:30.000Z</time>
      </trkpt>
      <trkpt lat="45.22408" lon="5.74392">
        <ele>774</ele>
        <time>2021-09-11T04:21:33.000Z</time>
      </trkpt>
      <trkpt lat="45.22411" lon="5.74397">
        <ele>773.40002441406</ele>
        <time>2021-09-11T04:21:35.000Z</time>
      </trkpt>
      <trkpt lat="45.22413" lon="5.74399">
        <ele>772.79998779297</ele>
        <time>2021-09-11T04:21:36.000Z</time>
      </trkpt>
      <trkpt lat="45.22414" lon="5.74399">
        <ele>772.40002441406</ele>
        <time>2021-09-11T04:21:37.000Z</time>
      </trkpt>
      <trkpt lat="45.22415" lon="5.74402">
        <ele>771.79998779297</ele>
        <time>2021-09-11T04:21:39.000Z</time>
      </trkpt>
      <trkpt lat="45.22416" lon="5.74403">
        <ele>771.59997558594</ele>
        <time>2021-09-11T04:21:40.000Z</time>
      </trkpt>
      <trkpt lat="45.22418" lon="5.74404">
        <ele>771.40002441406</ele>
        <time>2021-09-11T04:21:41.000Z</time>
      </trkpt>
      <trkpt lat="45.22419" lon="5.74405">
        <ele>771.20001220703</ele>
        <time>2021-09-11T04:21:42.000Z</time>
      </trkpt>
      <trkpt lat="45.22421" lon="5.74408">
        <ele>770.40002441406</ele>
        <time>2021-09-11T04:21:44.000Z</time>
      </trkpt>
      <trkpt lat="45.22422" lon="5.7441">
        <ele>770</ele>
        <time>2021-09-11T04:21:45.000Z</time>
      </trkpt>
      <trkpt lat="45.22427" lon="5.74417">
        <ele>769.20001220703</ele>
        <time>2021-09-11T04:21:48.000Z</time>
      </trkpt>
      <trkpt lat="45.2243" lon="5.74422">
        <ele>768.20001220703</ele>
        <time>2021-09-11T04:21:51.000Z</time>
      </trkpt>
      <trkpt lat="45.22432" lon="5.74424">
        <ele>768</ele>
        <time>2021-09-11T04:21:52.000Z</time>
      </trkpt>
      <trkpt lat="45.22436" lon="5.74429">
        <ele>767</ele>
        <time>2021-09-11T04:21:54.000Z</time>
      </trkpt>
      <trkpt lat="45.22437" lon="5.74431">
        <ele>766.59997558594</ele>
        <time>2021-09-11T04:21:55.000Z</time>
      </trkpt>
      <trkpt lat="45.22438" lon="5.74436">
        <ele>766</ele>
        <time>2021-09-11T04:21:57.000Z</time>
      </trkpt>
      <trkpt lat="45.22441" lon="5.74444">
        <ele>764.59997558594</ele>
        <time>2021-09-11T04:22:01.000Z</time>
      </trkpt>
      <trkpt lat="45.22443" lon="5.74448">
        <ele>763.59997558594</ele>
        <time>2021-09-11T04:22:03.000Z</time>
      </trkpt>
      <trkpt lat="45.22444" lon="5.74454">
        <ele>762.79998779297</ele>
        <time>2021-09-11T04:22:06.000Z</time>
      </trkpt>
      <trkpt lat="45.22445" lon="5.74456">
        <ele>762.20001220703</ele>
        <time>2021-09-11T04:22:07.000Z</time>
      </trkpt>
      <trkpt lat="45.22447" lon="5.7446">
        <ele>761.40002441406</ele>
        <time>2021-09-11T04:22:09.000Z</time>
      </trkpt>
      <trkpt lat="45.22448" lon="5.74463">
        <ele>760.79998779297</ele>
        <time>2021-09-11T04:22:10.000Z</time>
      </trkpt>
      <trkpt lat="45.22449" lon="5.74465">
        <ele>760.20001220703</ele>
        <time>2021-09-11T04:22:11.000Z</time>
      </trkpt>
      <trkpt lat="45.22451" lon="5.74471">
        <ele>759.40002441406</ele>
        <time>2021-09-11T04:22:13.000Z</time>
      </trkpt>
      <trkpt lat="45.22454" lon="5.74475">
        <ele>758.79998779297</ele>
        <time>2021-09-11T04:22:15.000Z</time>
      </trkpt>
      <trkpt lat="45.22456" lon="5.7448">
        <ele>758</ele>
        <time>2021-09-11T04:22:17.000Z</time>
      </trkpt>
      <trkpt lat="45.22457" lon="5.74483">
        <ele>757.59997558594</ele>
        <time>2021-09-11T04:22:18.000Z</time>
      </trkpt>
      <trkpt lat="45.22459" lon="5.74488">
        <ele>756.59997558594</ele>
        <time>2021-09-11T04:22:20.000Z</time>
      </trkpt>
      <trkpt lat="45.22461" lon="5.74496">
        <ele>755.20001220703</ele>
        <time>2021-09-11T04:22:24.000Z</time>
      </trkpt>
      <trkpt lat="45.22462" lon="5.74498">
        <ele>754.79998779297</ele>
        <time>2021-09-11T04:22:25.000Z</time>
      </trkpt>
      <trkpt lat="45.22464" lon="5.74501">
        <ele>753.79998779297</ele>
        <time>2021-09-11T04:22:27.000Z</time>
      </trkpt>
      <trkpt lat="45.22466" lon="5.74502">
        <ele>752.59997558594</ele>
        <time>2021-09-11T04:22:31.000Z</time>
      </trkpt>
      <trkpt lat="45.22467" lon="5.74503">
        <ele>752</ele>
        <time>2021-09-11T04:22:32.000Z</time>
      </trkpt>
      <trkpt lat="45.22468" lon="5.74504">
        <ele>751.59997558594</ele>
        <time>2021-09-11T04:22:33.000Z</time>
      </trkpt>
      <trkpt lat="45.2247" lon="5.74506">
        <ele>750.79998779297</ele>
        <time>2021-09-11T04:22:36.000Z</time>
      </trkpt>
      <trkpt lat="45.22471" lon="5.74506">
        <ele>750.20001220703</ele>
        <time>2021-09-11T04:22:37.000Z</time>
      </trkpt>
      <trkpt lat="45.22473" lon="5.74508">
        <ele>749.40002441406</ele>
        <time>2021-09-11T04:22:39.000Z</time>
      </trkpt>
      <trkpt lat="45.22473" lon="5.74508">
        <ele>749.20001220703</ele>
        <time>2021-09-11T04:22:40.000Z</time>
      </trkpt>
      <trkpt lat="45.2248" lon="5.74512">
        <ele>748.20001220703</ele>
        <time>2021-09-11T04:22:43.000Z</time>
      </trkpt>
      <trkpt lat="45.22485" lon="5.74517">
        <ele>747</ele>
        <time>2021-09-11T04:22:46.000Z</time>
      </trkpt>
      <trkpt lat="45.22488" lon="5.74521">
        <ele>746.59997558594</ele>
        <time>2021-09-11T04:22:48.000Z</time>
      </trkpt>
      <trkpt lat="45.22491" lon="5.74526">
        <ele>745.79998779297</ele>
        <time>2021-09-11T04:22:50.000Z</time>
      </trkpt>
      <trkpt lat="45.22494" lon="5.74531">
        <ele>745.20001220703</ele>
        <time>2021-09-11T04:22:52.000Z</time>
      </trkpt>
      <trkpt lat="45.22496" lon="5.74533">
        <ele>745</ele>
        <time>2021-09-11T04:22:53.000Z</time>
      </trkpt>
      <trkpt lat="45.22497" lon="5.74536">
        <ele>744.40002441406</ele>
        <time>2021-09-11T04:22:54.000Z</time>
      </trkpt>
      <trkpt lat="45.22498" lon="5.74538">
        <ele>744.20001220703</ele>
        <time>2021-09-11T04:22:55.000Z</time>
      </trkpt>
      <trkpt lat="45.22501" lon="5.74543">
        <ele>743.59997558594</ele>
        <time>2021-09-11T04:22:58.000Z</time>
      </trkpt>
      <trkpt lat="45.22502" lon="5.74544">
        <ele>743.20001220703</ele>
        <time>2021-09-11T04:22:59.000Z</time>
      </trkpt>
      <trkpt lat="45.22503" lon="5.74545">
        <ele>742.40002441406</ele>
        <time>2021-09-11T04:23:01.000Z</time>
      </trkpt>
      <trkpt lat="45.22504" lon="5.74546">
        <ele>742</ele>
        <time>2021-09-11T04:23:03.000Z</time>
      </trkpt>
      <trkpt lat="45.22508" lon="5.74549">
        <ele>741.20001220703</ele>
        <time>2021-09-11T04:23:06.000Z</time>
      </trkpt>
      <trkpt lat="45.22509" lon="5.74551">
        <ele>740.79998779297</ele>
        <time>2021-09-11T04:23:07.000Z</time>
      </trkpt>
      <trkpt lat="45.2251" lon="5.74552">
        <ele>740.59997558594</ele>
        <time>2021-09-11T04:23:08.000Z</time>
      </trkpt>
      <trkpt lat="45.22515" lon="5.74556">
        <ele>739.59997558594</ele>
        <time>2021-09-11T04:23:11.000Z</time>
      </trkpt>
      <trkpt lat="45.22516" lon="5.74557">
        <ele>739.40002441406</ele>
        <time>2021-09-11T04:23:12.000Z</time>
      </trkpt>
      <trkpt lat="45.22518" lon="5.74561">
        <ele>738.20001220703</ele>
        <time>2021-09-11T04:23:14.000Z</time>
      </trkpt>
      <trkpt lat="45.22522" lon="5.74565">
        <ele>737.20001220703</ele>
        <time>2021-09-11T04:23:16.000Z</time>
      </trkpt>
      <trkpt lat="45.22523" lon="5.74566">
        <ele>736.79998779297</ele>
        <time>2021-09-11T04:23:17.000Z</time>
      </trkpt>
      <trkpt lat="45.22526" lon="5.74568">
        <ele>735.59997558594</ele>
        <time>2021-09-11T04:23:19.000Z</time>
      </trkpt>
      <trkpt lat="45.22527" lon="5.74569">
        <ele>735.40002441406</ele>
        <time>2021-09-11T04:23:20.000Z</time>
      </trkpt>
      <trkpt lat="45.22529" lon="5.74572">
        <ele>734.20001220703</ele>
        <time>2021-09-11T04:23:22.000Z</time>
      </trkpt>
      <trkpt lat="45.22531" lon="5.74574">
        <ele>733.79998779297</ele>
        <time>2021-09-11T04:23:24.000Z</time>
      </trkpt>
      <trkpt lat="45.22533" lon="5.74576">
        <ele>733.20001220703</ele>
        <time>2021-09-11T04:23:25.000Z</time>
      </trkpt>
      <trkpt lat="45.22538" lon="5.74584">
        <ele>731.79998779297</ele>
        <time>2021-09-11T04:23:28.000Z</time>
      </trkpt>
      <trkpt lat="45.2254" lon="5.7459">
        <ele>730.59997558594</ele>
        <time>2021-09-11T04:23:30.000Z</time>
      </trkpt>
      <trkpt lat="45.22543" lon="5.74595">
        <ele>729.59997558594</ele>
        <time>2021-09-11T04:23:32.000Z</time>
      </trkpt>
      <trkpt lat="45.22547" lon="5.746">
        <ele>728.59997558594</ele>
        <time>2021-09-11T04:23:34.000Z</time>
      </trkpt>
      <trkpt lat="45.2255" lon="5.74606">
        <ele>727.40002441406</ele>
        <time>2021-09-11T04:23:36.000Z</time>
      </trkpt>
      <trkpt lat="45.22552" lon="5.74612">
        <ele>726.59997558594</ele>
        <time>2021-09-11T04:23:38.000Z</time>
      </trkpt>
      <trkpt lat="45.22552" lon="5.74613">
        <ele>726.20001220703</ele>
        <time>2021-09-11T04:23:39.000Z</time>
      </trkpt>
      <trkpt lat="45.22553" lon="5.74618">
        <ele>725.40002441406</ele>
        <time>2021-09-11T04:23:41.000Z</time>
      </trkpt>
      <trkpt lat="45.22553" lon="5.7462">
        <ele>725</ele>
        <time>2021-09-11T04:23:42.000Z</time>
      </trkpt>
      <trkpt lat="45.22552" lon="5.74623">
        <ele>724</ele>
        <time>2021-09-11T04:23:44.000Z</time>
      </trkpt>
      <trkpt lat="45.22551" lon="5.74624">
        <ele>723.59997558594</ele>
        <time>2021-09-11T04:23:45.000Z</time>
      </trkpt>
      <trkpt lat="45.2255" lon="5.74627">
        <ele>723</ele>
        <time>2021-09-11T04:23:47.000Z</time>
      </trkpt>
      <trkpt lat="45.22549" lon="5.74629">
        <ele>722.59997558594</ele>
        <time>2021-09-11T04:23:48.000Z</time>
      </trkpt>
      <trkpt lat="45.22544" lon="5.74635">
        <ele>721.20001220703</ele>
        <time>2021-09-11T04:23:51.000Z</time>
      </trkpt>
      <trkpt lat="45.22541" lon="5.74639">
        <ele>719.79998779297</ele>
        <time>2021-09-11T04:23:53.000Z</time>
      </trkpt>
      <trkpt lat="45.2254" lon="5.74641">
        <ele>719.40002441406</ele>
        <time>2021-09-11T04:23:54.000Z</time>
      </trkpt>
      <trkpt lat="45.22538" lon="5.74642">
        <ele>718.79998779297</ele>
        <time>2021-09-11T04:23:55.000Z</time>
      </trkpt>
      <trkpt lat="45.22536" lon="5.74643">
        <ele>717.20001220703</ele>
        <time>2021-09-11T04:23:58.000Z</time>
      </trkpt>
      <trkpt lat="45.22535" lon="5.74645">
        <ele>716.79998779297</ele>
        <time>2021-09-11T04:23:59.000Z</time>
      </trkpt>
      <trkpt lat="45.22534" lon="5.74647">
        <ele>716.40002441406</ele>
        <time>2021-09-11T04:24:00.000Z</time>
      </trkpt>
      <trkpt lat="45.22532" lon="5.74649">
        <ele>716.20001220703</ele>
        <time>2021-09-11T04:24:01.000Z</time>
      </trkpt>
      <trkpt lat="45.22531" lon="5.74651">
        <ele>715</ele>
        <time>2021-09-11T04:24:03.000Z</time>
      </trkpt>
      <trkpt lat="45.2253" lon="5.74651">
        <ele>714.40002441406</ele>
        <time>2021-09-11T04:24:04.000Z</time>
      </trkpt>
      <trkpt lat="45.22529" lon="5.74652">
        <ele>713.79998779297</ele>
        <time>2021-09-11T04:24:05.000Z</time>
      </trkpt>
      <trkpt lat="45.22526" lon="5.74656">
        <ele>713</ele>
        <time>2021-09-11T04:24:07.000Z</time>
      </trkpt>
      <trkpt lat="45.22524" lon="5.74656">
        <ele>712.59997558594</ele>
        <time>2021-09-11T04:24:08.000Z</time>
      </trkpt>
      <trkpt lat="45.22521" lon="5.74659">
        <ele>711.20001220703</ele>
        <time>2021-09-11T04:24:10.000Z</time>
      </trkpt>
      <trkpt lat="45.22516" lon="5.74664">
        <ele>709.79998779297</ele>
        <time>2021-09-11T04:24:13.000Z</time>
      </trkpt>
      <trkpt lat="45.22512" lon="5.74667">
        <ele>708.40002441406</ele>
        <time>2021-09-11T04:24:16.000Z</time>
      </trkpt>
      <trkpt lat="45.22506" lon="5.74671">
        <ele>707</ele>
        <time>2021-09-11T04:24:19.000Z</time>
      </trkpt>
      <trkpt lat="45.22504" lon="5.74674">
        <ele>706.59997558594</ele>
        <time>2021-09-11T04:24:20.000Z</time>
      </trkpt>
      <trkpt lat="45.22501" lon="5.74676">
        <ele>706</ele>
        <time>2021-09-11T04:24:22.000Z</time>
      </trkpt>
      <trkpt lat="45.22496" lon="5.7468">
        <ele>704.59997558594</ele>
        <time>2021-09-11T04:24:25.000Z</time>
      </trkpt>
      <trkpt lat="45.22492" lon="5.74682">
        <ele>703.79998779297</ele>
        <time>2021-09-11T04:24:27.000Z</time>
      </trkpt>
      <trkpt lat="45.22491" lon="5.74683">
        <ele>703.40002441406</ele>
        <time>2021-09-11T04:24:28.000Z</time>
      </trkpt>
      <trkpt lat="45.22491" lon="5.74683">
        <ele>702.79998779297</ele>
        <time>2021-09-11T04:24:29.000Z</time>
      </trkpt>
      <trkpt lat="45.22488" lon="5.74682">
        <ele>701.79998779297</ele>
        <time>2021-09-11T04:24:31.000Z</time>
      </trkpt>
      <trkpt lat="45.22487" lon="5.74682">
        <ele>701.59997558594</ele>
        <time>2021-09-11T04:24:32.000Z</time>
      </trkpt>
      <trkpt lat="45.22486" lon="5.74683">
        <ele>701.20001220703</ele>
        <time>2021-09-11T04:24:33.000Z</time>
      </trkpt>
      <trkpt lat="45.22484" lon="5.74684">
        <ele>700.79998779297</ele>
        <time>2021-09-11T04:24:34.000Z</time>
      </trkpt>
      <trkpt lat="45.22479" lon="5.74685">
        <ele>699.40002441406</ele>
        <time>2021-09-11T04:24:37.000Z</time>
      </trkpt>
      <trkpt lat="45.22473" lon="5.74687">
        <ele>698.20001220703</ele>
        <time>2021-09-11T04:24:40.000Z</time>
      </trkpt>
      <trkpt lat="45.22468" lon="5.74688">
        <ele>697</ele>
        <time>2021-09-11T04:24:43.000Z</time>
      </trkpt>
      <trkpt lat="45.22467" lon="5.74688">
        <ele>696.79998779297</ele>
        <time>2021-09-11T04:24:44.000Z</time>
      </trkpt>
      <trkpt lat="45.22464" lon="5.74688">
        <ele>696</ele>
        <time>2021-09-11T04:24:46.000Z</time>
      </trkpt>
      <trkpt lat="45.22458" lon="5.74687">
        <ele>694.40002441406</ele>
        <time>2021-09-11T04:24:49.000Z</time>
      </trkpt>
      <trkpt lat="45.22456" lon="5.74688">
        <ele>694</ele>
        <time>2021-09-11T04:24:50.000Z</time>
      </trkpt>
      <trkpt lat="45.22452" lon="5.74689">
        <ele>693.20001220703</ele>
        <time>2021-09-11T04:24:52.000Z</time>
      </trkpt>
      <trkpt lat="45.22445" lon="5.74688">
        <ele>691.79998779297</ele>
        <time>2021-09-11T04:24:55.000Z</time>
      </trkpt>
      <trkpt lat="45.22443" lon="5.74686">
        <ele>691</ele>
        <time>2021-09-11T04:24:57.000Z</time>
      </trkpt>
      <trkpt lat="45.22439" lon="5.74686">
        <ele>690.40002441406</ele>
        <time>2021-09-11T04:24:58.000Z</time>
      </trkpt>
      <trkpt lat="45.22431" lon="5.74687">
        <ele>689</ele>
        <time>2021-09-11T04:25:01.000Z</time>
      </trkpt>
      <trkpt lat="45.22425" lon="5.74687">
        <ele>687.79998779297</ele>
        <time>2021-09-11T04:25:04.000Z</time>
      </trkpt>
      <trkpt lat="45.2242" lon="5.74687">
        <ele>686.59997558594</ele>
        <time>2021-09-11T04:25:06.000Z</time>
      </trkpt>
      <trkpt lat="45.22417" lon="5.74686">
        <ele>686</ele>
        <time>2021-09-11T04:25:07.000Z</time>
      </trkpt>
      <trkpt lat="45.22414" lon="5.74685">
        <ele>685.40002441406</ele>
        <time>2021-09-11T04:25:09.000Z</time>
      </trkpt>
      <trkpt lat="45.22409" lon="5.74682">
        <ele>684.20001220703</ele>
        <time>2021-09-11T04:25:12.000Z</time>
      </trkpt>
      <trkpt lat="45.22405" lon="5.74681">
        <ele>683.20001220703</ele>
        <time>2021-09-11T04:25:14.000Z</time>
      </trkpt>
      <trkpt lat="45.22403" lon="5.74682">
        <ele>682.59997558594</ele>
        <time>2021-09-11T04:25:16.000Z</time>
      </trkpt>
      <trkpt lat="45.22404" lon="5.74684">
        <ele>682.40002441406</ele>
        <time>2021-09-11T04:25:17.000Z</time>
      </trkpt>
      <trkpt lat="45.22405" lon="5.74685">
        <ele>681.79998779297</ele>
        <time>2021-09-11T04:25:18.000Z</time>
      </trkpt>
      <trkpt lat="45.22406" lon="5.74688">
        <ele>680.40002441406</ele>
        <time>2021-09-11T04:25:21.000Z</time>
      </trkpt>
      <trkpt lat="45.22407" lon="5.74691">
        <ele>679.40002441406</ele>
        <time>2021-09-11T04:25:24.000Z</time>
      </trkpt>
      <trkpt lat="45.22407" lon="5.74692">
        <ele>679</ele>
        <time>2021-09-11T04:25:25.000Z</time>
      </trkpt>
      <trkpt lat="45.22408" lon="5.74694">
        <ele>678</ele>
        <time>2021-09-11T04:25:27.000Z</time>
      </trkpt>
      <trkpt lat="45.22408" lon="5.74695">
        <ele>677.59997558594</ele>
        <time>2021-09-11T04:25:28.000Z</time>
      </trkpt>
      <trkpt lat="45.22408" lon="5.74696">
        <ele>677</ele>
        <time>2021-09-11T04:25:29.000Z</time>
      </trkpt>
      <trkpt lat="45.22409" lon="5.74699">
        <ele>676</ele>
        <time>2021-09-11T04:25:32.000Z</time>
      </trkpt>
      <trkpt lat="45.22412" lon="5.74702">
        <ele>675.20001220703</ele>
        <time>2021-09-11T04:25:34.000Z</time>
      </trkpt>
      <trkpt lat="45.22413" lon="5.74704">
        <ele>674.79998779297</ele>
        <time>2021-09-11T04:25:35.000Z</time>
      </trkpt>
      <trkpt lat="45.22415" lon="5.7471">
        <ele>673.20001220703</ele>
        <time>2021-09-11T04:25:38.000Z</time>
      </trkpt>
      <trkpt lat="45.22414" lon="5.74713">
        <ele>672.40002441406</ele>
        <time>2021-09-11T04:25:40.000Z</time>
      </trkpt>
      <trkpt lat="45.22414" lon="5.74714">
        <ele>672</ele>
        <time>2021-09-11T04:25:41.000Z</time>
      </trkpt>
      <trkpt lat="45.22413" lon="5.74716">
        <ele>671.40002441406</ele>
        <time>2021-09-11T04:25:42.000Z</time>
      </trkpt>
      <trkpt lat="45.22412" lon="5.74721">
        <ele>670.79998779297</ele>
        <time>2021-09-11T04:25:44.000Z</time>
      </trkpt>
      <trkpt lat="45.22411" lon="5.74726">
        <ele>669.59997558594</ele>
        <time>2021-09-11T04:25:47.000Z</time>
      </trkpt>
      <trkpt lat="45.2241" lon="5.74728">
        <ele>668.59997558594</ele>
        <time>2021-09-11T04:25:49.000Z</time>
      </trkpt>
      <trkpt lat="45.22408" lon="5.74731">
        <ele>667.20001220703</ele>
        <time>2021-09-11T04:25:52.000Z</time>
      </trkpt>
      <trkpt lat="45.22407" lon="5.74736">
        <ele>666</ele>
        <time>2021-09-11T04:25:55.000Z</time>
      </trkpt>
      <trkpt lat="45.22404" lon="5.74742">
        <ele>664.79998779297</ele>
        <time>2021-09-11T04:25:59.000Z</time>
      </trkpt>
      <trkpt lat="45.22403" lon="5.74746">
        <ele>663.79998779297</ele>
        <time>2021-09-11T04:26:02.000Z</time>
      </trkpt>
      <trkpt lat="45.22401" lon="5.7475">
        <ele>662.59997558594</ele>
        <time>2021-09-11T04:26:05.000Z</time>
      </trkpt>
      <trkpt lat="45.22402" lon="5.74752">
        <ele>662.20001220703</ele>
        <time>2021-09-11T04:26:06.000Z</time>
      </trkpt>
      <trkpt lat="45.224" lon="5.74757">
        <ele>661.20001220703</ele>
        <time>2021-09-11T04:26:09.000Z</time>
      </trkpt>
      <trkpt lat="45.22399" lon="5.74758">
        <ele>660.79998779297</ele>
        <time>2021-09-11T04:26:10.000Z</time>
      </trkpt>
      <trkpt lat="45.22398" lon="5.7476">
        <ele>660</ele>
        <time>2021-09-11T04:26:12.000Z</time>
      </trkpt>
      <trkpt lat="45.22398" lon="5.74761">
        <ele>659.59997558594</ele>
        <time>2021-09-11T04:26:13.000Z</time>
      </trkpt>
      <trkpt lat="45.22395" lon="5.74765">
        <ele>658.59997558594</ele>
        <time>2021-09-11T04:26:15.000Z</time>
      </trkpt>
      <trkpt lat="45.22392" lon="5.74771">
        <ele>657.20001220703</ele>
        <time>2021-09-11T04:26:18.000Z</time>
      </trkpt>
      <trkpt lat="45.22391" lon="5.74773">
        <ele>656.79998779297</ele>
        <time>2021-09-11T04:26:19.000Z</time>
      </trkpt>
      <trkpt lat="45.22387" lon="5.74778">
        <ele>656.20001220703</ele>
        <time>2021-09-11T04:26:22.000Z</time>
      </trkpt>
      <trkpt lat="45.22383" lon="5.74784">
        <ele>654.79998779297</ele>
        <time>2021-09-11T04:26:25.000Z</time>
      </trkpt>
      <trkpt lat="45.22382" lon="5.74787">
        <ele>654.59997558594</ele>
        <time>2021-09-11T04:26:26.000Z</time>
      </trkpt>
      <trkpt lat="45.22379" lon="5.74791">
        <ele>653.79998779297</ele>
        <time>2021-09-11T04:26:28.000Z</time>
      </trkpt>
      <trkpt lat="45.22376" lon="5.74794">
        <ele>652.59997558594</ele>
        <time>2021-09-11T04:26:30.000Z</time>
      </trkpt>
      <trkpt lat="45.22374" lon="5.74795">
        <ele>651.79998779297</ele>
        <time>2021-09-11T04:26:32.000Z</time>
      </trkpt>
      <trkpt lat="45.22373" lon="5.74795">
        <ele>651.20001220703</ele>
        <time>2021-09-11T04:26:33.000Z</time>
      </trkpt>
      <trkpt lat="45.22371" lon="5.74796">
        <ele>650.79998779297</ele>
        <time>2021-09-11T04:26:34.000Z</time>
      </trkpt>
      <trkpt lat="45.22369" lon="5.74797">
        <ele>649.79998779297</ele>
        <time>2021-09-11T04:26:36.000Z</time>
      </trkpt>
      <trkpt lat="45.22366" lon="5.748">
        <ele>648.79998779297</ele>
        <time>2021-09-11T04:26:38.000Z</time>
      </trkpt>
      <trkpt lat="45.22364" lon="5.74801">
        <ele>648.40002441406</ele>
        <time>2021-09-11T04:26:39.000Z</time>
      </trkpt>
      <trkpt lat="45.22362" lon="5.74803">
        <ele>647.40002441406</ele>
        <time>2021-09-11T04:26:42.000Z</time>
      </trkpt>
      <trkpt lat="45.22361" lon="5.74803">
        <ele>647.20001220703</ele>
        <time>2021-09-11T04:26:43.000Z</time>
      </trkpt>
      <trkpt lat="45.22361" lon="5.74804">
        <ele>646</ele>
        <time>2021-09-11T04:26:45.000Z</time>
      </trkpt>
      <trkpt lat="45.22357" lon="5.74806">
        <ele>645.20001220703</ele>
        <time>2021-09-11T04:26:47.000Z</time>
      </trkpt>
      <trkpt lat="45.22356" lon="5.74807">
        <ele>644.79998779297</ele>
        <time>2021-09-11T04:26:48.000Z</time>
      </trkpt>
      <trkpt lat="45.22353" lon="5.74809">
        <ele>644</ele>
        <time>2021-09-11T04:26:50.000Z</time>
      </trkpt>
      <trkpt lat="45.2235" lon="5.74812">
        <ele>643.59997558594</ele>
        <time>2021-09-11T04:26:52.000Z</time>
      </trkpt>
      <trkpt lat="45.22348" lon="5.74815">
        <ele>642.59997558594</ele>
        <time>2021-09-11T04:26:54.000Z</time>
      </trkpt>
      <trkpt lat="45.22347" lon="5.74817">
        <ele>642</ele>
        <time>2021-09-11T04:26:55.000Z</time>
      </trkpt>
      <trkpt lat="45.22346" lon="5.7482">
        <ele>641.40002441406</ele>
        <time>2021-09-11T04:26:57.000Z</time>
      </trkpt>
      <trkpt lat="45.22344" lon="5.74823">
        <ele>640.40002441406</ele>
        <time>2021-09-11T04:26:59.000Z</time>
      </trkpt>
      <trkpt lat="45.22343" lon="5.74825">
        <ele>639.79998779297</ele>
        <time>2021-09-11T04:27:00.000Z</time>
      </trkpt>
      <trkpt lat="45.22343" lon="5.74826">
        <ele>639.20001220703</ele>
        <time>2021-09-11T04:27:01.000Z</time>
      </trkpt>
      <trkpt lat="45.22342" lon="5.7483">
        <ele>638</ele>
        <time>2021-09-11T04:27:04.000Z</time>
      </trkpt>
      <trkpt lat="45.22343" lon="5.74833">
        <ele>637.20001220703</ele>
        <time>2021-09-11T04:27:06.000Z</time>
      </trkpt>
      <trkpt lat="45.22344" lon="5.74835">
        <ele>636.59997558594</ele>
        <time>2021-09-11T04:27:07.000Z</time>
      </trkpt>
      <trkpt lat="45.22345" lon="5.74838">
        <ele>636.20001220703</ele>
        <time>2021-09-11T04:27:08.000Z</time>
      </trkpt>
      <trkpt lat="45.22345" lon="5.7484">
        <ele>635.59997558594</ele>
        <time>2021-09-11T04:27:09.000Z</time>
      </trkpt>
      <trkpt lat="45.22344" lon="5.74846">
        <ele>635</ele>
        <time>2021-09-11T04:27:11.000Z</time>
      </trkpt>
      <trkpt lat="45.22344" lon="5.74847">
        <ele>634.40002441406</ele>
        <time>2021-09-11T04:27:12.000Z</time>
      </trkpt>
      <trkpt lat="45.22345" lon="5.74854">
        <ele>633.20001220703</ele>
        <time>2021-09-11T04:27:15.000Z</time>
      </trkpt>
      <trkpt lat="45.22345" lon="5.74857">
        <ele>632.59997558594</ele>
        <time>2021-09-11T04:27:17.000Z</time>
      </trkpt>
      <trkpt lat="45.22346" lon="5.74858">
        <ele>632.20001220703</ele>
        <time>2021-09-11T04:27:18.000Z</time>
      </trkpt>
      <trkpt lat="45.22348" lon="5.74862">
        <ele>631.20001220703</ele>
        <time>2021-09-11T04:27:21.000Z</time>
      </trkpt>
      <trkpt lat="45.22349" lon="5.74866">
        <ele>630</ele>
        <time>2021-09-11T04:27:23.000Z</time>
      </trkpt>
      <trkpt lat="45.22353" lon="5.74875">
        <ele>628.40002441406</ele>
        <time>2021-09-11T04:27:26.000Z</time>
      </trkpt>
      <trkpt lat="45.22357" lon="5.74885">
        <ele>627.40002441406</ele>
        <time>2021-09-11T04:27:29.000Z</time>
      </trkpt>
      <trkpt lat="45.22358" lon="5.74888">
        <ele>627</ele>
        <time>2021-09-11T04:27:30.000Z</time>
      </trkpt>
      <trkpt lat="45.22361" lon="5.74895">
        <ele>626</ele>
        <time>2021-09-11T04:27:32.000Z</time>
      </trkpt>
      <trkpt lat="45.22364" lon="5.74902">
        <ele>624.79998779297</ele>
        <time>2021-09-11T04:27:34.000Z</time>
      </trkpt>
      <trkpt lat="45.22364" lon="5.74907">
        <ele>623.59997558594</ele>
        <time>2021-09-11T04:27:36.000Z</time>
      </trkpt>
      <trkpt lat="45.22364" lon="5.74909">
        <ele>623</ele>
        <time>2021-09-11T04:27:37.000Z</time>
      </trkpt>
      <trkpt lat="45.22364" lon="5.74913">
        <ele>622.40002441406</ele>
        <time>2021-09-11T04:27:38.000Z</time>
      </trkpt>
      <trkpt lat="45.22364" lon="5.7492">
        <ele>621.40002441406</ele>
        <time>2021-09-11T04:27:40.000Z</time>
      </trkpt>
      <trkpt lat="45.22363" lon="5.74923">
        <ele>621</ele>
        <time>2021-09-11T04:27:41.000Z</time>
      </trkpt>
      <trkpt lat="45.22362" lon="5.74929">
        <ele>620.20001220703</ele>
        <time>2021-09-11T04:27:43.000Z</time>
      </trkpt>
      <trkpt lat="45.22361" lon="5.74939">
        <ele>618.59997558594</ele>
        <time>2021-09-11T04:27:46.000Z</time>
      </trkpt>
      <trkpt lat="45.22361" lon="5.74944">
        <ele>617</ele>
        <time>2021-09-11T04:27:48.000Z</time>
      </trkpt>
      <trkpt lat="45.22361" lon="5.74947">
        <ele>616.59997558594</ele>
        <time>2021-09-11T04:27:49.000Z</time>
      </trkpt>
      <trkpt lat="45.22361" lon="5.7495">
        <ele>616.20001220703</ele>
        <time>2021-09-11T04:27:50.000Z</time>
      </trkpt>
      <trkpt lat="45.2236" lon="5.74953">
        <ele>615.59997558594</ele>
        <time>2021-09-11T04:27:51.000Z</time>
      </trkpt>
      <trkpt lat="45.2236" lon="5.74958">
        <ele>614.40002441406</ele>
        <time>2021-09-11T04:27:53.000Z</time>
      </trkpt>
      <trkpt lat="45.2236" lon="5.74966">
        <ele>613</ele>
        <time>2021-09-11T04:27:56.000Z</time>
      </trkpt>
      <trkpt lat="45.2236" lon="5.74972">
        <ele>612</ele>
        <time>2021-09-11T04:27:58.000Z</time>
      </trkpt>
      <trkpt lat="45.22361" lon="5.74978">
        <ele>610.79998779297</ele>
        <time>2021-09-11T04:28:01.000Z</time>
      </trkpt>
      <trkpt lat="45.22361" lon="5.7498">
        <ele>610.79998779297</ele>
        <time>2021-09-11T04:28:03.000Z</time>
      </trkpt>
      <trkpt lat="45.2236" lon="5.7498">
        <ele>610.79998779297</ele>
        <time>2021-09-11T04:28:05.000Z</time>
      </trkpt>
      <trkpt lat="45.2236" lon="5.74979">
        <ele>610.79998779297</ele>
        <time>2021-09-11T04:28:06.000Z</time>
      </trkpt>
      <trkpt lat="45.2236" lon="5.7498">
        <ele>610.59997558594</ele>
        <time>2021-09-11T04:28:10.000Z</time>
      </trkpt>
      <trkpt lat="45.22359" lon="5.7498">
        <ele>610.59997558594</ele>
        <time>2021-09-11T04:28:12.000Z</time>
      </trkpt>
      <trkpt lat="45.22359" lon="5.74981">
        <ele>610.59997558594</ele>
        <time>2021-09-11T04:28:13.000Z</time>
      </trkpt>
      <trkpt lat="45.22359" lon="5.74981">
        <ele>610.59997558594</ele>
        <time>2021-09-11T04:28:15.000Z</time>
      </trkpt>
      <trkpt lat="45.22359" lon="5.74981">
        <ele>610.59997558594</ele>
        <time>2021-09-11T04:28:17.000Z</time>
      </trkpt>
      <trkpt lat="45.2236" lon="5.74977">
        <ele>610.79998779297</ele>
        <time>2021-09-11T04:28:33.000Z</time>
      </trkpt>
      <trkpt lat="45.22359" lon="5.74974">
        <ele>611</ele>
        <time>2021-09-11T04:28:35.000Z</time>
      </trkpt>
      <trkpt lat="45.22359" lon="5.74972">
        <ele>611</ele>
        <time>2021-09-11T04:28:36.000Z</time>
      </trkpt>
      <trkpt lat="45.22359" lon="5.7497">
        <ele>611.40002441406</ele>
        <time>2021-09-11T04:28:38.000Z</time>
      </trkpt>
      <trkpt lat="45.2236" lon="5.74966">
        <ele>612</ele>
        <time>2021-09-11T04:28:40.000Z</time>
      </trkpt>
      <trkpt lat="45.22358" lon="5.74961">
        <ele>612.79998779297</ele>
        <time>2021-09-11T04:28:43.000Z</time>
      </trkpt>
      <trkpt lat="45.22358" lon="5.74959">
        <ele>613.20001220703</ele>
        <time>2021-09-11T04:28:44.000Z</time>
      </trkpt>
      <trkpt lat="45.22358" lon="5.74957">
        <ele>613.59997558594</ele>
        <time>2021-09-11T04:28:45.000Z</time>
      </trkpt>
      <trkpt lat="45.22358" lon="5.74955">
        <ele>614</ele>
        <time>2021-09-11T04:28:46.000Z</time>
      </trkpt>
      <trkpt lat="45.22358" lon="5.74953">
        <ele>614.40002441406</ele>
        <time>2021-09-11T04:28:47.000Z</time>
      </trkpt>
      <trkpt lat="45.22359" lon="5.74947">
        <ele>615.59997558594</ele>
        <time>2021-09-11T04:28:50.000Z</time>
      </trkpt>
      <trkpt lat="45.22359" lon="5.74941">
        <ele>616.79998779297</ele>
        <time>2021-09-11T04:28:53.000Z</time>
      </trkpt>
      <trkpt lat="45.22359" lon="5.74938">
        <ele>617</ele>
        <time>2021-09-11T04:28:54.000Z</time>
      </trkpt>
      <trkpt lat="45.22358" lon="5.74934">
        <ele>617.79998779297</ele>
        <time>2021-09-11T04:28:56.000Z</time>
      </trkpt>
      <trkpt lat="45.22358" lon="5.74932">
        <ele>618.20001220703</ele>
        <time>2021-09-11T04:28:57.000Z</time>
      </trkpt>
      <trkpt lat="45.22359" lon="5.74928">
        <ele>618.79998779297</ele>
        <time>2021-09-11T04:28:59.000Z</time>
      </trkpt>
      <trkpt lat="45.2236" lon="5.74927">
        <ele>619.40002441406</ele>
        <time>2021-09-11T04:29:00.000Z</time>
      </trkpt>
      <trkpt lat="45.22361" lon="5.74924">
        <ele>620</ele>
        <time>2021-09-11T04:29:02.000Z</time>
      </trkpt>
      <trkpt lat="45.22362" lon="5.74916">
        <ele>621</ele>
        <time>2021-09-11T04:29:05.000Z</time>
      </trkpt>
      <trkpt lat="45.22361" lon="5.74913">
        <ele>621.40002441406</ele>
        <time>2021-09-11T04:29:06.000Z</time>
      </trkpt>
      <trkpt lat="45.22361" lon="5.74909">
        <ele>621.79998779297</ele>
        <time>2021-09-11T04:29:08.000Z</time>
      </trkpt>
      <trkpt lat="45.22361" lon="5.74906">
        <ele>622.40002441406</ele>
        <time>2021-09-11T04:29:09.000Z</time>
      </trkpt>
      <trkpt lat="45.22361" lon="5.74901">
        <ele>623</ele>
        <time>2021-09-11T04:29:12.000Z</time>
      </trkpt>
      <trkpt lat="45.2236" lon="5.74899">
        <ele>623.20001220703</ele>
        <time>2021-09-11T04:29:13.000Z</time>
      </trkpt>
      <trkpt lat="45.22359" lon="5.74897">
        <ele>623.79998779297</ele>
        <time>2021-09-11T04:29:14.000Z</time>
      </trkpt>
      <trkpt lat="45.22357" lon="5.74894">
        <ele>624.40002441406</ele>
        <time>2021-09-11T04:29:17.000Z</time>
      </trkpt>
      <trkpt lat="45.22356" lon="5.74893">
        <ele>624.79998779297</ele>
        <time>2021-09-11T04:29:18.000Z</time>
      </trkpt>
      <trkpt lat="45.22353" lon="5.74889">
        <ele>625.79998779297</ele>
        <time>2021-09-11T04:29:21.000Z</time>
      </trkpt>
      <trkpt lat="45.22351" lon="5.74882">
        <ele>627</ele>
        <time>2021-09-11T04:29:25.000Z</time>
      </trkpt>
      <trkpt lat="45.22349" lon="5.74876">
        <ele>628.20001220703</ele>
        <time>2021-09-11T04:29:29.000Z</time>
      </trkpt>
      <trkpt lat="45.22346" lon="5.74871">
        <ele>629.40002441406</ele>
        <time>2021-09-11T04:29:33.000Z</time>
      </trkpt>
      <trkpt lat="45.22343" lon="5.74865">
        <ele>630.59997558594</ele>
        <time>2021-09-11T04:29:37.000Z</time>
      </trkpt>
      <trkpt lat="45.22342" lon="5.74862">
        <ele>631.20001220703</ele>
        <time>2021-09-11T04:29:39.000Z</time>
      </trkpt>
      <trkpt lat="45.22342" lon="5.74861">
        <ele>631.59997558594</ele>
        <time>2021-09-11T04:29:40.000Z</time>
      </trkpt>
      <trkpt lat="45.22343" lon="5.74856">
        <ele>632.40002441406</ele>
        <time>2021-09-11T04:29:43.000Z</time>
      </trkpt>
      <trkpt lat="45.22343" lon="5.74855">
        <ele>632.59997558594</ele>
        <time>2021-09-11T04:29:44.000Z</time>
      </trkpt>
      <trkpt lat="45.22341" lon="5.74852">
        <ele>633.40002441406</ele>
        <time>2021-09-11T04:29:47.000Z</time>
      </trkpt>
      <trkpt lat="45.22341" lon="5.7485">
        <ele>633.79998779297</ele>
        <time>2021-09-11T04:29:48.000Z</time>
      </trkpt>
      <trkpt lat="45.2234" lon="5.74849">
        <ele>634.20001220703</ele>
        <time>2021-09-11T04:29:49.000Z</time>
      </trkpt>
      <trkpt lat="45.22338" lon="5.74844">
        <ele>635.20001220703</ele>
        <time>2021-09-11T04:29:53.000Z</time>
      </trkpt>
      <trkpt lat="45.22337" lon="5.74841">
        <ele>636.20001220703</ele>
        <time>2021-09-11T04:29:56.000Z</time>
      </trkpt>
      <trkpt lat="45.22336" lon="5.74841">
        <ele>636.59997558594</ele>
        <time>2021-09-11T04:29:57.000Z</time>
      </trkpt>
      <trkpt lat="45.22336" lon="5.74841">
        <ele>636.79998779297</ele>
        <time>2021-09-11T04:29:58.000Z</time>
      </trkpt>
      <trkpt lat="45.22334" lon="5.7484">
        <ele>637.59997558594</ele>
        <time>2021-09-11T04:30:01.000Z</time>
      </trkpt>
      <trkpt lat="45.22332" lon="5.7484">
        <ele>638.20001220703</ele>
        <time>2021-09-11T04:30:03.000Z</time>
      </trkpt>
      <trkpt lat="45.22332" lon="5.74838">
        <ele>638.59997558594</ele>
        <time>2021-09-11T04:30:04.000Z</time>
      </trkpt>
      <trkpt lat="45.22332" lon="5.74835">
        <ele>639</ele>
        <time>2021-09-11T04:30:06.000Z</time>
      </trkpt>
      <trkpt lat="45.22331" lon="5.74833">
        <ele>639.59997558594</ele>
        <time>2021-09-11T04:30:07.000Z</time>
      </trkpt>
      <trkpt lat="45.22331" lon="5.7483">
        <ele>640.40002441406</ele>
        <time>2021-09-11T04:30:09.000Z</time>
      </trkpt>
      <trkpt lat="45.22331" lon="5.74827">
        <ele>640.79998779297</ele>
        <time>2021-09-11T04:30:11.000Z</time>
      </trkpt>
      <trkpt lat="45.22335" lon="5.74821">
        <ele>641.79998779297</ele>
        <time>2021-09-11T04:30:16.000Z</time>
      </trkpt>
      <trkpt lat="45.22339" lon="5.74818">
        <ele>643</ele>
        <time>2021-09-11T04:30:20.000Z</time>
      </trkpt>
      <trkpt lat="45.22341" lon="5.74814">
        <ele>643.59997558594</ele>
        <time>2021-09-11T04:30:24.000Z</time>
      </trkpt>
      <trkpt lat="45.22342" lon="5.74814">
        <ele>644</ele>
        <time>2021-09-11T04:30:25.000Z</time>
      </trkpt>
      <trkpt lat="45.22346" lon="5.74813">
        <ele>645</ele>
        <time>2021-09-11T04:30:29.000Z</time>
      </trkpt>
      <trkpt lat="45.22347" lon="5.74813">
        <ele>645.40002441406</ele>
        <time>2021-09-11T04:30:31.000Z</time>
      </trkpt>
      <trkpt lat="45.22349" lon="5.74811">
        <ele>646</ele>
        <time>2021-09-11T04:30:33.000Z</time>
      </trkpt>
      <trkpt lat="45.22349" lon="5.74811">
        <ele>646.40002441406</ele>
        <time>2021-09-11T04:30:34.000Z</time>
      </trkpt>
      <trkpt lat="45.2235" lon="5.74811">
        <ele>646.79998779297</ele>
        <time>2021-09-11T04:30:36.000Z</time>
      </trkpt>
      <trkpt lat="45.22351" lon="5.7481">
        <ele>647.40002441406</ele>
        <time>2021-09-11T04:30:38.000Z</time>
      </trkpt>
      <trkpt lat="45.22352" lon="5.74809">
        <ele>647.59997558594</ele>
        <time>2021-09-11T04:30:39.000Z</time>
      </trkpt>
      <trkpt lat="45.22356" lon="5.74806">
        <ele>648.59997558594</ele>
        <time>2021-09-11T04:30:44.000Z</time>
      </trkpt>
      <trkpt lat="45.22358" lon="5.74803">
        <ele>649.79998779297</ele>
        <time>2021-09-11T04:30:47.000Z</time>
      </trkpt>
      <trkpt lat="45.22361" lon="5.748">
        <ele>651</ele>
        <time>2021-09-11T04:30:51.000Z</time>
      </trkpt>
      <trkpt lat="45.22361" lon="5.748">
        <ele>651</ele>
        <time>2021-09-11T04:30:52.000Z</time>
      </trkpt>
      <trkpt lat="45.22362" lon="5.74799">
        <ele>651.20001220703</ele>
        <time>2021-09-11T04:30:53.000Z</time>
      </trkpt>
      <trkpt lat="45.22364" lon="5.74798">
        <ele>652</ele>
        <time>2021-09-11T04:30:55.000Z</time>
      </trkpt>
      <trkpt lat="45.22368" lon="5.74792">
        <ele>653.20001220703</ele>
        <time>2021-09-11T04:31:00.000Z</time>
      </trkpt>
      <trkpt lat="45.22368" lon="5.7479">
        <ele>653.59997558594</ele>
        <time>2021-09-11T04:31:01.000Z</time>
      </trkpt>
      <trkpt lat="45.2237" lon="5.74787">
        <ele>654</ele>
        <time>2021-09-11T04:31:03.000Z</time>
      </trkpt>
      <trkpt lat="45.22372" lon="5.74785">
        <ele>654.40002441406</ele>
        <time>2021-09-11T04:31:04.000Z</time>
      </trkpt>
      <trkpt lat="45.22374" lon="5.74782">
        <ele>654.79998779297</ele>
        <time>2021-09-11T04:31:06.000Z</time>
      </trkpt>
      <trkpt lat="45.22377" lon="5.74779">
        <ele>655.59997558594</ele>
        <time>2021-09-11T04:31:09.000Z</time>
      </trkpt>
      <trkpt lat="45.22378" lon="5.74777">
        <ele>656.20001220703</ele>
        <time>2021-09-11T04:31:11.000Z</time>
      </trkpt>
      <trkpt lat="45.2238" lon="5.74776">
        <ele>656.59997558594</ele>
        <time>2021-09-11T04:31:13.000Z</time>
      </trkpt>
      <trkpt lat="45.2238" lon="5.74775">
        <ele>656.79998779297</ele>
        <time>2021-09-11T04:31:14.000Z</time>
      </trkpt>
      <trkpt lat="45.22383" lon="5.7477">
        <ele>657.59997558594</ele>
        <time>2021-09-11T04:31:17.000Z</time>
      </trkpt>
      <trkpt lat="45.22384" lon="5.74769">
        <ele>657.79998779297</ele>
        <time>2021-09-11T04:31:18.000Z</time>
      </trkpt>
      <trkpt lat="45.22385" lon="5.74766">
        <ele>658.20001220703</ele>
        <time>2021-09-11T04:31:20.000Z</time>
      </trkpt>
      <trkpt lat="45.22387" lon="5.74761">
        <ele>659</ele>
        <time>2021-09-11T04:31:24.000Z</time>
      </trkpt>
      <trkpt lat="45.22387" lon="5.7476">
        <ele>659.40002441406</ele>
        <time>2021-09-11T04:31:25.000Z</time>
      </trkpt>
      <trkpt lat="45.22388" lon="5.74758">
        <ele>660</ele>
        <time>2021-09-11T04:31:27.000Z</time>
      </trkpt>
      <trkpt lat="45.22392" lon="5.74754">
        <ele>661</ele>
        <time>2021-09-11T04:31:31.000Z</time>
      </trkpt>
      <trkpt lat="45.22393" lon="5.74753">
        <ele>661.20001220703</ele>
        <time>2021-09-11T04:31:32.000Z</time>
      </trkpt>
      <trkpt lat="45.22395" lon="5.74747">
        <ele>662.40002441406</ele>
        <time>2021-09-11T04:31:37.000Z</time>
      </trkpt>
      <trkpt lat="45.22395" lon="5.74746">
        <ele>663</ele>
        <time>2021-09-11T04:31:39.000Z</time>
      </trkpt>
      <trkpt lat="45.22396" lon="5.74745">
        <ele>663.20001220703</ele>
        <time>2021-09-11T04:31:40.000Z</time>
      </trkpt>
      <trkpt lat="45.22397" lon="5.74743">
        <ele>663.59997558594</ele>
        <time>2021-09-11T04:31:41.000Z</time>
      </trkpt>
      <trkpt lat="45.22398" lon="5.74741">
        <ele>664</ele>
        <time>2021-09-11T04:31:43.000Z</time>
      </trkpt>
      <trkpt lat="45.224" lon="5.7474">
        <ele>664.59997558594</ele>
        <time>2021-09-11T04:31:45.000Z</time>
      </trkpt>
      <trkpt lat="45.22401" lon="5.74739">
        <ele>665</ele>
        <time>2021-09-11T04:31:46.000Z</time>
      </trkpt>
      <trkpt lat="45.22404" lon="5.74734">
        <ele>666.20001220703</ele>
        <time>2021-09-11T04:31:50.000Z</time>
      </trkpt>
      <trkpt lat="45.22406" lon="5.74732">
        <ele>666.79998779297</ele>
        <time>2021-09-11T04:31:52.000Z</time>
      </trkpt>
      <trkpt lat="45.22409" lon="5.74728">
        <ele>667.40002441406</ele>
        <time>2021-09-11T04:31:54.000Z</time>
      </trkpt>
      <trkpt lat="45.22411" lon="5.74725">
        <ele>668.59997558594</ele>
        <time>2021-09-11T04:31:57.000Z</time>
      </trkpt>
      <trkpt lat="45.22412" lon="5.74722">
        <ele>669.20001220703</ele>
        <time>2021-09-11T04:31:59.000Z</time>
      </trkpt>
      <trkpt lat="45.22413" lon="5.74721">
        <ele>669.59997558594</ele>
        <time>2021-09-11T04:32:00.000Z</time>
      </trkpt>
      <trkpt lat="45.22414" lon="5.74721">
        <ele>669.79998779297</ele>
        <time>2021-09-11T04:32:01.000Z</time>
      </trkpt>
      <trkpt lat="45.22414" lon="5.74718">
        <ele>670.59997558594</ele>
        <time>2021-09-11T04:32:04.000Z</time>
      </trkpt>
      <trkpt lat="45.22415" lon="5.74715">
        <ele>671.79998779297</ele>
        <time>2021-09-11T04:32:06.000Z</time>
      </trkpt>
      <trkpt lat="45.22414" lon="5.74707">
        <ele>673</ele>
        <time>2021-09-11T04:32:11.000Z</time>
      </trkpt>
      <trkpt lat="45.22414" lon="5.74706">
        <ele>673.20001220703</ele>
        <time>2021-09-11T04:32:12.000Z</time>
      </trkpt>
      <trkpt lat="45.22413" lon="5.74705">
        <ele>674</ele>
        <time>2021-09-11T04:32:14.000Z</time>
      </trkpt>
      <trkpt lat="45.22412" lon="5.74704">
        <ele>674.40002441406</ele>
        <time>2021-09-11T04:32:15.000Z</time>
      </trkpt>
      <trkpt lat="45.2241" lon="5.74702">
        <ele>675</ele>
        <time>2021-09-11T04:32:17.000Z</time>
      </trkpt>
      <trkpt lat="45.2241" lon="5.74701">
        <ele>675.20001220703</ele>
        <time>2021-09-11T04:32:18.000Z</time>
      </trkpt>
      <trkpt lat="45.2241" lon="5.747">
        <ele>675.40002441406</ele>
        <time>2021-09-11T04:32:19.000Z</time>
      </trkpt>
      <trkpt lat="45.22408" lon="5.74699">
        <ele>676</ele>
        <time>2021-09-11T04:32:21.000Z</time>
      </trkpt>
      <trkpt lat="45.22407" lon="5.74698">
        <ele>676.40002441406</ele>
        <time>2021-09-11T04:32:22.000Z</time>
      </trkpt>
      <trkpt lat="45.22407" lon="5.74697">
        <ele>676.79998779297</ele>
        <time>2021-09-11T04:32:23.000Z</time>
      </trkpt>
      <trkpt lat="45.22405" lon="5.74694">
        <ele>677.40002441406</ele>
        <time>2021-09-11T04:32:25.000Z</time>
      </trkpt>
      <trkpt lat="45.22404" lon="5.74692">
        <ele>678.20001220703</ele>
        <time>2021-09-11T04:32:27.000Z</time>
      </trkpt>
      <trkpt lat="45.22403" lon="5.74691">
        <ele>678.40002441406</ele>
        <time>2021-09-11T04:32:28.000Z</time>
      </trkpt>
      <trkpt lat="45.22401" lon="5.74689">
        <ele>678.79998779297</ele>
        <time>2021-09-11T04:32:30.000Z</time>
      </trkpt>
      <trkpt lat="45.224" lon="5.74688">
        <ele>679</ele>
        <time>2021-09-11T04:32:31.000Z</time>
      </trkpt>
      <trkpt lat="45.22399" lon="5.74685">
        <ele>679.59997558594</ele>
        <time>2021-09-11T04:32:33.000Z</time>
      </trkpt>
      <trkpt lat="45.22399" lon="5.74684">
        <ele>680</ele>
        <time>2021-09-11T04:32:34.000Z</time>
      </trkpt>
      <trkpt lat="45.22399" lon="5.74677">
        <ele>680.79998779297</ele>
        <time>2021-09-11T04:32:37.000Z</time>
      </trkpt>
      <trkpt lat="45.224" lon="5.74676">
        <ele>681</ele>
        <time>2021-09-11T04:32:38.000Z</time>
      </trkpt>
      <trkpt lat="45.22401" lon="5.74674">
        <ele>681.20001220703</ele>
        <time>2021-09-11T04:32:39.000Z</time>
      </trkpt>
      <trkpt lat="45.22402" lon="5.74673">
        <ele>681.40002441406</ele>
        <time>2021-09-11T04:32:40.000Z</time>
      </trkpt>
      <trkpt lat="45.22404" lon="5.74673">
        <ele>682</ele>
        <time>2021-09-11T04:32:42.000Z</time>
      </trkpt>
      <trkpt lat="45.22406" lon="5.74673">
        <ele>682.59997558594</ele>
        <time>2021-09-11T04:32:44.000Z</time>
      </trkpt>
      <trkpt lat="45.22408" lon="5.74674">
        <ele>683.20001220703</ele>
        <time>2021-09-11T04:32:47.000Z</time>
      </trkpt>
      <trkpt lat="45.22411" lon="5.74675">
        <ele>684.40002441406</ele>
        <time>2021-09-11T04:32:50.000Z</time>
      </trkpt>
      <trkpt lat="45.22412" lon="5.74677">
        <ele>684.59997558594</ele>
        <time>2021-09-11T04:32:51.000Z</time>
      </trkpt>
      <trkpt lat="45.22416" lon="5.74677">
        <ele>685.59997558594</ele>
        <time>2021-09-11T04:32:55.000Z</time>
      </trkpt>
      <trkpt lat="45.22417" lon="5.74677">
        <ele>686</ele>
        <time>2021-09-11T04:32:56.000Z</time>
      </trkpt>
      <trkpt lat="45.22419" lon="5.74676">
        <ele>686.59997558594</ele>
        <time>2021-09-11T04:32:58.000Z</time>
      </trkpt>
      <trkpt lat="45.22422" lon="5.74675">
        <ele>687.59997558594</ele>
        <time>2021-09-11T04:33:02.000Z</time>
      </trkpt>
      <trkpt lat="45.22422" lon="5.74675">
        <ele>687.79998779297</ele>
        <time>2021-09-11T04:33:03.000Z</time>
      </trkpt>
      <trkpt lat="45.22423" lon="5.74674">
        <ele>688.59997558594</ele>
        <time>2021-09-11T04:33:05.000Z</time>
      </trkpt>
      <trkpt lat="45.22423" lon="5.74674">
        <ele>689</ele>
        <time>2021-09-11T04:33:06.000Z</time>
      </trkpt>
      <trkpt lat="45.22424" lon="5.74675">
        <ele>689.59997558594</ele>
        <time>2021-09-11T04:33:08.000Z</time>
      </trkpt>
      <trkpt lat="45.22426" lon="5.74677">
        <ele>690.20001220703</ele>
        <time>2021-09-11T04:33:11.000Z</time>
      </trkpt>
      <trkpt lat="45.22429" lon="5.74678">
        <ele>690.79998779297</ele>
        <time>2021-09-11T04:33:13.000Z</time>
      </trkpt>
      <trkpt lat="45.22432" lon="5.7468">
        <ele>691.20001220703</ele>
        <time>2021-09-11T04:33:15.000Z</time>
      </trkpt>
      <trkpt lat="45.22435" lon="5.7468">
        <ele>691.79998779297</ele>
        <time>2021-09-11T04:33:17.000Z</time>
      </trkpt>
      <trkpt lat="45.22438" lon="5.74679">
        <ele>692</ele>
        <time>2021-09-11T04:33:19.000Z</time>
      </trkpt>
      <trkpt lat="45.22441" lon="5.74679">
        <ele>692.40002441406</ele>
        <time>2021-09-11T04:33:21.000Z</time>
      </trkpt>
      <trkpt lat="45.22444" lon="5.74679">
        <ele>693.20001220703</ele>
        <time>2021-09-11T04:33:24.000Z</time>
      </trkpt>
      <trkpt lat="45.22446" lon="5.7468">
        <ele>693.40002441406</ele>
        <time>2021-09-11T04:33:25.000Z</time>
      </trkpt>
      <trkpt lat="45.22447" lon="5.74683">
        <ele>694</ele>
        <time>2021-09-11T04:33:28.000Z</time>
      </trkpt>
      <trkpt lat="45.22448" lon="5.74684">
        <ele>694.20001220703</ele>
        <time>2021-09-11T04:33:29.000Z</time>
      </trkpt>
      <trkpt lat="45.22449" lon="5.74684">
        <ele>694.79998779297</ele>
        <time>2021-09-11T04:33:31.000Z</time>
      </trkpt>
      <trkpt lat="45.2245" lon="5.74683">
        <ele>695.40002441406</ele>
        <time>2021-09-11T04:33:33.000Z</time>
      </trkpt>
      <trkpt lat="45.22452" lon="5.74682">
        <ele>695.59997558594</ele>
        <time>2021-09-11T04:33:34.000Z</time>
      </trkpt>
      <trkpt lat="45.22453" lon="5.74682">
        <ele>695.79998779297</ele>
        <time>2021-09-11T04:33:35.000Z</time>
      </trkpt>
      <trkpt lat="45.22456" lon="5.74682">
        <ele>696.20001220703</ele>
        <time>2021-09-11T04:33:37.000Z</time>
      </trkpt>
      <trkpt lat="45.22459" lon="5.74681">
        <ele>697</ele>
        <time>2021-09-11T04:33:40.000Z</time>
      </trkpt>
      <trkpt lat="45.22461" lon="5.74677">
        <ele>697.79998779297</ele>
        <time>2021-09-11T04:33:44.000Z</time>
      </trkpt>
      <trkpt lat="45.22462" lon="5.74677">
        <ele>698</ele>
        <time>2021-09-11T04:33:45.000Z</time>
      </trkpt>
      <trkpt lat="45.22467" lon="5.74676">
        <ele>698.59997558594</ele>
        <time>2021-09-11T04:33:47.000Z</time>
      </trkpt>
      <trkpt lat="45.22471" lon="5.74675">
        <ele>699.20001220703</ele>
        <time>2021-09-11T04:33:49.000Z</time>
      </trkpt>
      <trkpt lat="45.22475" lon="5.74674">
        <ele>699.79998779297</ele>
        <time>2021-09-11T04:33:51.000Z</time>
      </trkpt>
      <trkpt lat="45.22477" lon="5.74674">
        <ele>700.20001220703</ele>
        <time>2021-09-11T04:33:53.000Z</time>
      </trkpt>
      <trkpt lat="45.2248" lon="5.74675">
        <ele>700.59997558594</ele>
        <time>2021-09-11T04:33:55.000Z</time>
      </trkpt>
      <trkpt lat="45.22483" lon="5.74676">
        <ele>701.20001220703</ele>
        <time>2021-09-11T04:33:57.000Z</time>
      </trkpt>
      <trkpt lat="45.22484" lon="5.74675">
        <ele>701.59997558594</ele>
        <time>2021-09-11T04:33:58.000Z</time>
      </trkpt>
      <trkpt lat="45.22489" lon="5.74676">
        <ele>702.59997558594</ele>
        <time>2021-09-11T04:34:01.000Z</time>
      </trkpt>
      <trkpt lat="45.22491" lon="5.74675">
        <ele>703.20001220703</ele>
        <time>2021-09-11T04:34:03.000Z</time>
      </trkpt>
      <trkpt lat="45.22492" lon="5.74674">
        <ele>703.59997558594</ele>
        <time>2021-09-11T04:34:04.000Z</time>
      </trkpt>
      <trkpt lat="45.22493" lon="5.74674">
        <ele>704</ele>
        <time>2021-09-11T04:34:05.000Z</time>
      </trkpt>
      <trkpt lat="45.22497" lon="5.74673">
        <ele>704.79998779297</ele>
        <time>2021-09-11T04:34:08.000Z</time>
      </trkpt>
      <trkpt lat="45.225" lon="5.7467">
        <ele>705.59997558594</ele>
        <time>2021-09-11T04:34:11.000Z</time>
      </trkpt>
      <trkpt lat="45.225" lon="5.74669">
        <ele>705.79998779297</ele>
        <time>2021-09-11T04:34:12.000Z</time>
      </trkpt>
      <trkpt lat="45.22501" lon="5.74668">
        <ele>706</ele>
        <time>2021-09-11T04:34:13.000Z</time>
      </trkpt>
      <trkpt lat="45.22503" lon="5.74665">
        <ele>706.59997558594</ele>
        <time>2021-09-11T04:34:15.000Z</time>
      </trkpt>
      <trkpt lat="45.22504" lon="5.74665">
        <ele>707</ele>
        <time>2021-09-11T04:34:16.000Z</time>
      </trkpt>
      <trkpt lat="45.22507" lon="5.74663">
        <ele>708</ele>
        <time>2021-09-11T04:34:19.000Z</time>
      </trkpt>
      <trkpt lat="45.22506" lon="5.74661">
        <ele>708.20001220703</ele>
        <time>2021-09-11T04:34:20.000Z</time>
      </trkpt>
      <trkpt lat="45.22508" lon="5.7466">
        <ele>709.40002441406</ele>
        <time>2021-09-11T04:34:24.000Z</time>
      </trkpt>
      <trkpt lat="45.22509" lon="5.74659">
        <ele>709.79998779297</ele>
        <time>2021-09-11T04:34:25.000Z</time>
      </trkpt>
      <trkpt lat="45.22511" lon="5.74657">
        <ele>710.79998779297</ele>
        <time>2021-09-11T04:34:28.000Z</time>
      </trkpt>
      <trkpt lat="45.22511" lon="5.74657">
        <ele>711.20001220703</ele>
        <time>2021-09-11T04:34:29.000Z</time>
      </trkpt>
      <trkpt lat="45.22512" lon="5.74655">
        <ele>711.59997558594</ele>
        <time>2021-09-11T04:34:31.000Z</time>
      </trkpt>
      <trkpt lat="45.22513" lon="5.74655">
        <ele>711.79998779297</ele>
        <time>2021-09-11T04:34:32.000Z</time>
      </trkpt>
      <trkpt lat="45.22515" lon="5.74655">
        <ele>712.20001220703</ele>
        <time>2021-09-11T04:34:33.000Z</time>
      </trkpt>
      <trkpt lat="45.22517" lon="5.74655">
        <ele>713</ele>
        <time>2021-09-11T04:34:35.000Z</time>
      </trkpt>
      <trkpt lat="45.22518" lon="5.74654">
        <ele>713.40002441406</ele>
        <time>2021-09-11T04:34:36.000Z</time>
      </trkpt>
      <trkpt lat="45.22519" lon="5.74653">
        <ele>713.79998779297</ele>
        <time>2021-09-11T04:34:37.000Z</time>
      </trkpt>
      <trkpt lat="45.22521" lon="5.74652">
        <ele>714.40002441406</ele>
        <time>2021-09-11T04:34:39.000Z</time>
      </trkpt>
      <trkpt lat="45.22523" lon="5.7465">
        <ele>715.59997558594</ele>
        <time>2021-09-11T04:34:43.000Z</time>
      </trkpt>
      <trkpt lat="45.22524" lon="5.74649">
        <ele>716</ele>
        <time>2021-09-11T04:34:44.000Z</time>
      </trkpt>
      <trkpt lat="45.22525" lon="5.74649">
        <ele>716.20001220703</ele>
        <time>2021-09-11T04:34:45.000Z</time>
      </trkpt>
      <trkpt lat="45.22527" lon="5.74648">
        <ele>716.59997558594</ele>
        <time>2021-09-11T04:34:47.000Z</time>
      </trkpt>
      <trkpt lat="45.22529" lon="5.74646">
        <ele>717.20001220703</ele>
        <time>2021-09-11T04:34:49.000Z</time>
      </trkpt>
      <trkpt lat="45.22531" lon="5.74645">
        <ele>717.59997558594</ele>
        <time>2021-09-11T04:34:50.000Z</time>
      </trkpt>
      <trkpt lat="45.22538" lon="5.74642">
        <ele>718.59997558594</ele>
        <time>2021-09-11T04:34:54.000Z</time>
      </trkpt>
      <trkpt lat="45.22539" lon="5.74641">
        <ele>719</ele>
        <time>2021-09-11T04:34:55.000Z</time>
      </trkpt>
      <trkpt lat="45.22541" lon="5.74639">
        <ele>719.40002441406</ele>
        <time>2021-09-11T04:34:57.000Z</time>
      </trkpt>
      <trkpt lat="45.22543" lon="5.74638">
        <ele>720.20001220703</ele>
        <time>2021-09-11T04:34:59.000Z</time>
      </trkpt>
      <trkpt lat="45.22544" lon="5.74637">
        <ele>720.40002441406</ele>
        <time>2021-09-11T04:35:00.000Z</time>
      </trkpt>
      <trkpt lat="45.22546" lon="5.74635">
        <ele>721.20001220703</ele>
        <time>2021-09-11T04:35:02.000Z</time>
      </trkpt>
      <trkpt lat="45.22547" lon="5.74634">
        <ele>721.20001220703</ele>
        <time>2021-09-11T04:35:03.000Z</time>
      </trkpt>
      <trkpt lat="45.22548" lon="5.74632">
        <ele>721.40002441406</ele>
        <time>2021-09-11T04:35:04.000Z</time>
      </trkpt>
      <trkpt lat="45.22551" lon="5.74629">
        <ele>722.59997558594</ele>
        <time>2021-09-11T04:35:08.000Z</time>
      </trkpt>
      <trkpt lat="45.22554" lon="5.74622">
        <ele>723.79998779297</ele>
        <time>2021-09-11T04:35:13.000Z</time>
      </trkpt>
      <trkpt lat="45.22556" lon="5.74621">
        <ele>724</ele>
        <time>2021-09-11T04:35:15.000Z</time>
      </trkpt>
      <trkpt lat="45.22559" lon="5.74621">
        <ele>724</ele>
        <time>2021-09-11T04:35:17.000Z</time>
      </trkpt>
      <trkpt lat="45.22564" lon="5.74617">
        <ele>724.59997558594</ele>
        <time>2021-09-11T04:35:22.000Z</time>
      </trkpt>
      <trkpt lat="45.22564" lon="5.74616">
        <ele>724.79998779297</ele>
        <time>2021-09-11T04:35:23.000Z</time>
      </trkpt>
      <trkpt lat="45.22567" lon="5.74613">
        <ele>725.79998779297</ele>
        <time>2021-09-11T04:35:26.000Z</time>
      </trkpt>
      <trkpt lat="45.22568" lon="5.74612">
        <ele>726.20001220703</ele>
        <time>2021-09-11T04:35:27.000Z</time>
      </trkpt>
      <trkpt lat="45.22568" lon="5.74611">
        <ele>726.40002441406</ele>
        <time>2021-09-11T04:35:28.000Z</time>
      </trkpt>
      <trkpt lat="45.22568" lon="5.74611">
        <ele>726.40002441406</ele>
        <time>2021-09-11T04:35:29.000Z</time>
      </trkpt>
      <trkpt lat="45.22569" lon="5.74609">
        <ele>727.20001220703</ele>
        <time>2021-09-11T04:35:32.000Z</time>
      </trkpt>
      <trkpt lat="45.22569" lon="5.74608">
        <ele>727.79998779297</ele>
        <time>2021-09-11T04:35:34.000Z</time>
      </trkpt>
      <trkpt lat="45.22571" lon="5.74605">
        <ele>728.40002441406</ele>
        <time>2021-09-11T04:35:36.000Z</time>
      </trkpt>
      <trkpt lat="45.22571" lon="5.74604">
        <ele>728.79998779297</ele>
        <time>2021-09-11T04:35:37.000Z</time>
      </trkpt>
      <trkpt lat="45.22573" lon="5.74604">
        <ele>729.59997558594</ele>
        <time>2021-09-11T04:35:40.000Z</time>
      </trkpt>
      <trkpt lat="45.22573" lon="5.74604">
        <ele>729.79998779297</ele>
        <time>2021-09-11T04:35:41.000Z</time>
      </trkpt>
      <trkpt lat="45.22573" lon="5.74601">
        <ele>730.20001220703</ele>
        <time>2021-09-11T04:35:43.000Z</time>
      </trkpt>
      <trkpt lat="45.22573" lon="5.74598">
        <ele>730.79998779297</ele>
        <time>2021-09-11T04:35:44.000Z</time>
      </trkpt>
      <trkpt lat="45.22573" lon="5.74597">
        <ele>731.20001220703</ele>
        <time>2021-09-11T04:35:45.000Z</time>
      </trkpt>
      <trkpt lat="45.22574" lon="5.74594">
        <ele>731.79998779297</ele>
        <time>2021-09-11T04:35:47.000Z</time>
      </trkpt>
      <trkpt lat="45.22574" lon="5.74591">
        <ele>733</ele>
        <time>2021-09-11T04:35:51.000Z</time>
      </trkpt>
      <trkpt lat="45.22574" lon="5.7459">
        <ele>733.40002441406</ele>
        <time>2021-09-11T04:35:52.000Z</time>
      </trkpt>
      <trkpt lat="45.22575" lon="5.74589">
        <ele>733.79998779297</ele>
        <time>2021-09-11T04:35:54.000Z</time>
      </trkpt>
      <trkpt lat="45.22575" lon="5.74588">
        <ele>733.79998779297</ele>
        <time>2021-09-11T04:35:55.000Z</time>
      </trkpt>
      <trkpt lat="45.22575" lon="5.74586">
        <ele>734</ele>
        <time>2021-09-11T04:35:56.000Z</time>
      </trkpt>
      <trkpt lat="45.22576" lon="5.74583">
        <ele>734.40002441406</ele>
        <time>2021-09-11T04:35:58.000Z</time>
      </trkpt>
      <trkpt lat="45.22577" lon="5.74582">
        <ele>735.40002441406</ele>
        <time>2021-09-11T04:36:00.000Z</time>
      </trkpt>
      <trkpt lat="45.22577" lon="5.74579">
        <ele>736</ele>
        <time>2021-09-11T04:36:02.000Z</time>
      </trkpt>
      <trkpt lat="45.22578" lon="5.74577">
        <ele>736.59997558594</ele>
        <time>2021-09-11T04:36:03.000Z</time>
      </trkpt>
      <trkpt lat="45.22578" lon="5.74576">
        <ele>736.79998779297</ele>
        <time>2021-09-11T04:36:04.000Z</time>
      </trkpt>
      <trkpt lat="45.22579" lon="5.74569">
        <ele>738</ele>
        <time>2021-09-11T04:36:09.000Z</time>
      </trkpt>
      <trkpt lat="45.22582" lon="5.74563">
        <ele>739</ele>
        <time>2021-09-11T04:36:12.000Z</time>
      </trkpt>
      <trkpt lat="45.22583" lon="5.7456">
        <ele>739.79998779297</ele>
        <time>2021-09-11T04:36:15.000Z</time>
      </trkpt>
      <trkpt lat="45.22583" lon="5.74559">
        <ele>739.79998779297</ele>
        <time>2021-09-11T04:36:16.000Z</time>
      </trkpt>
      <trkpt lat="45.22584" lon="5.74558">
        <ele>740.20001220703</ele>
        <time>2021-09-11T04:36:17.000Z</time>
      </trkpt>
      <trkpt lat="45.22585" lon="5.74554">
        <ele>741.40002441406</ele>
        <time>2021-09-11T04:36:21.000Z</time>
      </trkpt>
      <trkpt lat="45.22585" lon="5.7455">
        <ele>742.59997558594</ele>
        <time>2021-09-11T04:36:25.000Z</time>
      </trkpt>
      <trkpt lat="45.22584" lon="5.74547">
        <ele>743</ele>
        <time>2021-09-11T04:36:27.000Z</time>
      </trkpt>
      <trkpt lat="45.22584" lon="5.74544">
        <ele>743.79998779297</ele>
        <time>2021-09-11T04:36:29.000Z</time>
      </trkpt>
      <trkpt lat="45.22583" lon="5.74542">
        <ele>744.20001220703</ele>
        <time>2021-09-11T04:36:30.000Z</time>
      </trkpt>
      <trkpt lat="45.22583" lon="5.74535">
        <ele>745</ele>
        <time>2021-09-11T04:36:33.000Z</time>
      </trkpt>
      <trkpt lat="45.22584" lon="5.74533">
        <ele>745.40002441406</ele>
        <time>2021-09-11T04:36:34.000Z</time>
      </trkpt>
      <trkpt lat="45.22585" lon="5.74529">
        <ele>746.20001220703</ele>
        <time>2021-09-11T04:36:37.000Z</time>
      </trkpt>
      <trkpt lat="45.22588" lon="5.74521">
        <ele>747.20001220703</ele>
        <time>2021-09-11T04:36:41.000Z</time>
      </trkpt>
      <trkpt lat="45.22589" lon="5.74518">
        <ele>748.20001220703</ele>
        <time>2021-09-11T04:36:44.000Z</time>
      </trkpt>
      <trkpt lat="45.22589" lon="5.74517">
        <ele>748.40002441406</ele>
        <time>2021-09-11T04:36:45.000Z</time>
      </trkpt>
      <trkpt lat="45.2259" lon="5.74516">
        <ele>748.79998779297</ele>
        <time>2021-09-11T04:36:46.000Z</time>
      </trkpt>
      <trkpt lat="45.2259" lon="5.74516">
        <ele>749.20001220703</ele>
        <time>2021-09-11T04:36:48.000Z</time>
      </trkpt>
      <trkpt lat="45.22591" lon="5.74515">
        <ele>749.59997558594</ele>
        <time>2021-09-11T04:36:50.000Z</time>
      </trkpt>
      <trkpt lat="45.22593" lon="5.74513">
        <ele>750.40002441406</ele>
        <time>2021-09-11T04:36:52.000Z</time>
      </trkpt>
      <trkpt lat="45.22594" lon="5.7451">
        <ele>750.79998779297</ele>
        <time>2021-09-11T04:36:54.000Z</time>
      </trkpt>
      <trkpt lat="45.22596" lon="5.74509">
        <ele>751.40002441406</ele>
        <time>2021-09-11T04:36:56.000Z</time>
      </trkpt>
      <trkpt lat="45.22596" lon="5.74508">
        <ele>751.79998779297</ele>
        <time>2021-09-11T04:36:57.000Z</time>
      </trkpt>
      <trkpt lat="45.22598" lon="5.74505">
        <ele>752.40002441406</ele>
        <time>2021-09-11T04:36:59.000Z</time>
      </trkpt>
      <trkpt lat="45.22602" lon="5.74499">
        <ele>753.20001220703</ele>
        <time>2021-09-11T04:37:03.000Z</time>
      </trkpt>
      <trkpt lat="45.22602" lon="5.74498">
        <ele>753.40002441406</ele>
        <time>2021-09-11T04:37:04.000Z</time>
      </trkpt>
      <trkpt lat="45.22603" lon="5.74497">
        <ele>753.79998779297</ele>
        <time>2021-09-11T04:37:05.000Z</time>
      </trkpt>
      <trkpt lat="45.22606" lon="5.74495">
        <ele>754.59997558594</ele>
        <time>2021-09-11T04:37:07.000Z</time>
      </trkpt>
      <trkpt lat="45.22608" lon="5.74492">
        <ele>755.20001220703</ele>
        <time>2021-09-11T04:37:09.000Z</time>
      </trkpt>
      <trkpt lat="45.22609" lon="5.7449">
        <ele>756</ele>
        <time>2021-09-11T04:37:11.000Z</time>
      </trkpt>
      <trkpt lat="45.22609" lon="5.74486">
        <ele>756.40002441406</ele>
        <time>2021-09-11T04:37:13.000Z</time>
      </trkpt>
      <trkpt lat="45.22608" lon="5.74485">
        <ele>756.79998779297</ele>
        <time>2021-09-11T04:37:14.000Z</time>
      </trkpt>
      <trkpt lat="45.2261" lon="5.74485">
        <ele>757.20001220703</ele>
        <time>2021-09-11T04:37:16.000Z</time>
      </trkpt>
      <trkpt lat="45.2261" lon="5.74485">
        <ele>757.59997558594</ele>
        <time>2021-09-11T04:37:17.000Z</time>
      </trkpt>
      <trkpt lat="45.22611" lon="5.74485">
        <ele>758</ele>
        <time>2021-09-11T04:37:18.000Z</time>
      </trkpt>
      <trkpt lat="45.22611" lon="5.74485">
        <ele>758.40002441406</ele>
        <time>2021-09-11T04:37:19.000Z</time>
      </trkpt>
      <trkpt lat="45.22611" lon="5.74484">
        <ele>758.79998779297</ele>
        <time>2021-09-11T04:37:20.000Z</time>
      </trkpt>
      <trkpt lat="45.22613" lon="5.74483">
        <ele>759.40002441406</ele>
        <time>2021-09-11T04:37:23.000Z</time>
      </trkpt>
      <trkpt lat="45.22614" lon="5.74482">
        <ele>759.59997558594</ele>
        <time>2021-09-11T04:37:24.000Z</time>
      </trkpt>
      <trkpt lat="45.22614" lon="5.7448">
        <ele>760</ele>
        <time>2021-09-11T04:37:25.000Z</time>
      </trkpt>
      <trkpt lat="45.22616" lon="5.7448">
        <ele>760.79998779297</ele>
        <time>2021-09-11T04:37:27.000Z</time>
      </trkpt>
      <trkpt lat="45.22617" lon="5.74478">
        <ele>761.40002441406</ele>
        <time>2021-09-11T04:37:29.000Z</time>
      </trkpt>
      <trkpt lat="45.2262" lon="5.74477">
        <ele>761.79998779297</ele>
        <time>2021-09-11T04:37:31.000Z</time>
      </trkpt>
      <trkpt lat="45.22623" lon="5.74477">
        <ele>762.40002441406</ele>
        <time>2021-09-11T04:37:33.000Z</time>
      </trkpt>
      <trkpt lat="45.22625" lon="5.74478">
        <ele>763</ele>
        <time>2021-09-11T04:37:35.000Z</time>
      </trkpt>
      <trkpt lat="45.22628" lon="5.74479">
        <ele>763.20001220703</ele>
        <time>2021-09-11T04:37:37.000Z</time>
      </trkpt>
      <trkpt lat="45.22631" lon="5.74478">
        <ele>764.20001220703</ele>
        <time>2021-09-11T04:37:40.000Z</time>
      </trkpt>
      <trkpt lat="45.22637" lon="5.74474">
        <ele>765</ele>
        <time>2021-09-11T04:37:43.000Z</time>
      </trkpt>
      <trkpt lat="45.22639" lon="5.74473">
        <ele>765.40002441406</ele>
        <time>2021-09-11T04:37:45.000Z</time>
      </trkpt>
      <trkpt lat="45.22639" lon="5.74473">
        <ele>765.59997558594</ele>
        <time>2021-09-11T04:37:46.000Z</time>
      </trkpt>
      <trkpt lat="45.22641" lon="5.74473">
        <ele>766</ele>
        <time>2021-09-11T04:37:49.000Z</time>
      </trkpt>
      <trkpt lat="45.22643" lon="5.74473">
        <ele>766.59997558594</ele>
        <time>2021-09-11T04:37:51.000Z</time>
      </trkpt>
      <trkpt lat="45.22647" lon="5.7447">
        <ele>767.59997558594</ele>
        <time>2021-09-11T04:37:55.000Z</time>
      </trkpt>
      <trkpt lat="45.22652" lon="5.74469">
        <ele>768.20001220703</ele>
        <time>2021-09-11T04:37:59.000Z</time>
      </trkpt>
      <trkpt lat="45.22654" lon="5.7447">
        <ele>769</ele>
        <time>2021-09-11T04:38:01.000Z</time>
      </trkpt>
      <trkpt lat="45.22654" lon="5.7447">
        <ele>769.20001220703</ele>
        <time>2021-09-11T04:38:02.000Z</time>
      </trkpt>
      <trkpt lat="45.22656" lon="5.74469">
        <ele>769.59997558594</ele>
        <time>2021-09-11T04:38:04.000Z</time>
      </trkpt>
      <trkpt lat="45.22658" lon="5.74467">
        <ele>770.20001220703</ele>
        <time>2021-09-11T04:38:06.000Z</time>
      </trkpt>
      <trkpt lat="45.22659" lon="5.74466">
        <ele>770.20001220703</ele>
        <time>2021-09-11T04:38:07.000Z</time>
      </trkpt>
      <trkpt lat="45.2266" lon="5.74466">
        <ele>770.59997558594</ele>
        <time>2021-09-11T04:38:08.000Z</time>
      </trkpt>
      <trkpt lat="45.22661" lon="5.74465">
        <ele>771.20001220703</ele>
        <time>2021-09-11T04:38:10.000Z</time>
      </trkpt>
      <trkpt lat="45.22662" lon="5.74464">
        <ele>771.59997558594</ele>
        <time>2021-09-11T04:38:11.000Z</time>
      </trkpt>
      <trkpt lat="45.22663" lon="5.74464">
        <ele>771.79998779297</ele>
        <time>2021-09-11T04:38:12.000Z</time>
      </trkpt>
      <trkpt lat="45.22665" lon="5.74465">
        <ele>772.40002441406</ele>
        <time>2021-09-11T04:38:14.000Z</time>
      </trkpt>
      <trkpt lat="45.22665" lon="5.74465">
        <ele>772.59997558594</ele>
        <time>2021-09-11T04:38:15.000Z</time>
      </trkpt>
      <trkpt lat="45.22669" lon="5.74464">
        <ele>773</ele>
        <time>2021-09-11T04:38:17.000Z</time>
      </trkpt>
      <trkpt lat="45.2267" lon="5.74465">
        <ele>773.40002441406</ele>
        <time>2021-09-11T04:38:18.000Z</time>
      </trkpt>
      <trkpt lat="45.2267" lon="5.74466">
        <ele>774</ele>
        <time>2021-09-11T04:38:19.000Z</time>
      </trkpt>
      <trkpt lat="45.2267" lon="5.74466">
        <ele>774.40002441406</ele>
        <time>2021-09-11T04:38:21.000Z</time>
      </trkpt>
      <trkpt lat="45.22672" lon="5.74465">
        <ele>775</ele>
        <time>2021-09-11T04:38:23.000Z</time>
      </trkpt>
      <trkpt lat="45.22672" lon="5.74468">
        <ele>775.20001220703</ele>
        <time>2021-09-11T04:38:25.000Z</time>
      </trkpt>
      <trkpt lat="45.22672" lon="5.74468">
        <ele>775.40002441406</ele>
        <time>2021-09-11T04:38:26.000Z</time>
      </trkpt>
      <trkpt lat="45.22673" lon="5.74468">
        <ele>775.79998779297</ele>
        <time>2021-09-11T04:38:27.000Z</time>
      </trkpt>
      <trkpt lat="45.22675" lon="5.74467">
        <ele>777</ele>
        <time>2021-09-11T04:38:31.000Z</time>
      </trkpt>
      <trkpt lat="45.2268" lon="5.74465">
        <ele>778</ele>
        <time>2021-09-11T04:38:35.000Z</time>
      </trkpt>
      <trkpt lat="45.22683" lon="5.74465">
        <ele>778.59997558594</ele>
        <time>2021-09-11T04:38:37.000Z</time>
      </trkpt>
      <trkpt lat="45.22684" lon="5.74464">
        <ele>778.79998779297</ele>
        <time>2021-09-11T04:38:38.000Z</time>
      </trkpt>
      <trkpt lat="45.22684" lon="5.74464">
        <ele>778.79998779297</ele>
        <time>2021-09-11T04:38:39.000Z</time>
      </trkpt>
      <trkpt lat="45.22687" lon="5.74465">
        <ele>779.20001220703</ele>
        <time>2021-09-11T04:38:41.000Z</time>
      </trkpt>
      <trkpt lat="45.22688" lon="5.74466">
        <ele>779.79998779297</ele>
        <time>2021-09-11T04:38:43.000Z</time>
      </trkpt>
      <trkpt lat="45.2269" lon="5.74466">
        <ele>780.20001220703</ele>
        <time>2021-09-11T04:38:45.000Z</time>
      </trkpt>
      <trkpt lat="45.22695" lon="5.74468">
        <ele>781.40002441406</ele>
        <time>2021-09-11T04:38:49.000Z</time>
      </trkpt>
      <trkpt lat="45.22696" lon="5.7447">
        <ele>781.59997558594</ele>
        <time>2021-09-11T04:38:50.000Z</time>
      </trkpt>
      <trkpt lat="45.22697" lon="5.74471">
        <ele>781.79998779297</ele>
        <time>2021-09-11T04:38:51.000Z</time>
      </trkpt>
      <trkpt lat="45.22701" lon="5.74472">
        <ele>782.59997558594</ele>
        <time>2021-09-11T04:38:55.000Z</time>
      </trkpt>
      <trkpt lat="45.22702" lon="5.74472">
        <ele>782.79998779297</ele>
        <time>2021-09-11T04:38:56.000Z</time>
      </trkpt>
      <trkpt lat="45.22703" lon="5.74471">
        <ele>783.20001220703</ele>
        <time>2021-09-11T04:38:57.000Z</time>
      </trkpt>
      <trkpt lat="45.22704" lon="5.7447">
        <ele>783.59997558594</ele>
        <time>2021-09-11T04:38:58.000Z</time>
      </trkpt>
      <trkpt lat="45.22706" lon="5.7447">
        <ele>783.79998779297</ele>
        <time>2021-09-11T04:38:59.000Z</time>
      </trkpt>
      <trkpt lat="45.22709" lon="5.74469">
        <ele>784.59997558594</ele>
        <time>2021-09-11T04:39:02.000Z</time>
      </trkpt>
      <trkpt lat="45.22711" lon="5.74469">
        <ele>784.79998779297</ele>
        <time>2021-09-11T04:39:03.000Z</time>
      </trkpt>
      <trkpt lat="45.22714" lon="5.74469">
        <ele>785.59997558594</ele>
        <time>2021-09-11T04:39:06.000Z</time>
      </trkpt>
      <trkpt lat="45.22716" lon="5.74469">
        <ele>786</ele>
        <time>2021-09-11T04:39:08.000Z</time>
      </trkpt>
      <trkpt lat="45.22719" lon="5.74469">
        <ele>787.20001220703</ele>
        <time>2021-09-11T04:39:11.000Z</time>
      </trkpt>
      <trkpt lat="45.2272" lon="5.74467">
        <ele>787.59997558594</ele>
        <time>2021-09-11T04:39:13.000Z</time>
      </trkpt>
      <trkpt lat="45.22722" lon="5.74466">
        <ele>788.20001220703</ele>
        <time>2021-09-11T04:39:15.000Z</time>
      </trkpt>
      <trkpt lat="45.22727" lon="5.74465">
        <ele>789.20001220703</ele>
        <time>2021-09-11T04:39:19.000Z</time>
      </trkpt>
      <trkpt lat="45.22728" lon="5.74464">
        <ele>789.40002441406</ele>
        <time>2021-09-11T04:39:20.000Z</time>
      </trkpt>
      <trkpt lat="45.22732" lon="5.74464">
        <ele>790</ele>
        <time>2021-09-11T04:39:23.000Z</time>
      </trkpt>
      <trkpt lat="45.22733" lon="5.74464">
        <ele>790.59997558594</ele>
        <time>2021-09-11T04:39:24.000Z</time>
      </trkpt>
      <trkpt lat="45.22734" lon="5.74464">
        <ele>791</ele>
        <time>2021-09-11T04:39:25.000Z</time>
      </trkpt>
      <trkpt lat="45.22735" lon="5.74463">
        <ele>791.20001220703</ele>
        <time>2021-09-11T04:39:26.000Z</time>
      </trkpt>
      <trkpt lat="45.22737" lon="5.74461">
        <ele>791.79998779297</ele>
        <time>2021-09-11T04:39:29.000Z</time>
      </trkpt>
      <trkpt lat="45.22738" lon="5.74461">
        <ele>792.59997558594</ele>
        <time>2021-09-11T04:39:31.000Z</time>
      </trkpt>
      <trkpt lat="45.22739" lon="5.7446">
        <ele>793</ele>
        <time>2021-09-11T04:39:33.000Z</time>
      </trkpt>
      <trkpt lat="45.22743" lon="5.74457">
        <ele>794.20001220703</ele>
        <time>2021-09-11T04:39:37.000Z</time>
      </trkpt>
      <trkpt lat="45.22746" lon="5.74458">
        <ele>795.20001220703</ele>
        <time>2021-09-11T04:39:40.000Z</time>
      </trkpt>
      <trkpt lat="45.22748" lon="5.74457">
        <ele>795.59997558594</ele>
        <time>2021-09-11T04:39:42.000Z</time>
      </trkpt>
      <trkpt lat="45.2275" lon="5.74456">
        <ele>796.40002441406</ele>
        <time>2021-09-11T04:39:45.000Z</time>
      </trkpt>
      <trkpt lat="45.22755" lon="5.74459">
        <ele>797.59997558594</ele>
        <time>2021-09-11T04:39:49.000Z</time>
      </trkpt>
      <trkpt lat="45.22756" lon="5.74459">
        <ele>797.79998779297</ele>
        <time>2021-09-11T04:39:50.000Z</time>
      </trkpt>
      <trkpt lat="45.2276" lon="5.74458">
        <ele>798.59997558594</ele>
        <time>2021-09-11T04:39:53.000Z</time>
      </trkpt>
      <trkpt lat="45.22764" lon="5.74457">
        <ele>799.20001220703</ele>
        <time>2021-09-11T04:39:55.000Z</time>
      </trkpt>
      <trkpt lat="45.22765" lon="5.74456">
        <ele>799.79998779297</ele>
        <time>2021-09-11T04:39:58.000Z</time>
      </trkpt>
      <trkpt lat="45.22767" lon="5.74454">
        <ele>800.20001220703</ele>
        <time>2021-09-11T04:40:00.000Z</time>
      </trkpt>
      <trkpt lat="45.22768" lon="5.74454">
        <ele>800.40002441406</ele>
        <time>2021-09-11T04:40:01.000Z</time>
      </trkpt>
      <trkpt lat="45.22768" lon="5.74451">
        <ele>801.20001220703</ele>
        <time>2021-09-11T04:40:03.000Z</time>
      </trkpt>
      <trkpt lat="45.22769" lon="5.7445">
        <ele>802</ele>
        <time>2021-09-11T04:40:05.000Z</time>
      </trkpt>
      <trkpt lat="45.22769" lon="5.7445">
        <ele>802.20001220703</ele>
        <time>2021-09-11T04:40:06.000Z</time>
      </trkpt>
      <trkpt lat="45.2277" lon="5.7445">
        <ele>802.40002441406</ele>
        <time>2021-09-11T04:40:07.000Z</time>
      </trkpt>
      <trkpt lat="45.22772" lon="5.74448">
        <ele>803.20001220703</ele>
        <time>2021-09-11T04:40:10.000Z</time>
      </trkpt>
      <trkpt lat="45.22773" lon="5.74448">
        <ele>803.59997558594</ele>
        <time>2021-09-11T04:40:11.000Z</time>
      </trkpt>
      <trkpt lat="45.22775" lon="5.74449">
        <ele>804</ele>
        <time>2021-09-11T04:40:13.000Z</time>
      </trkpt>
      <trkpt lat="45.22778" lon="5.74448">
        <ele>805</ele>
        <time>2021-09-11T04:40:17.000Z</time>
      </trkpt>
      <trkpt lat="45.22778" lon="5.74448">
        <ele>805.40002441406</ele>
        <time>2021-09-11T04:40:18.000Z</time>
      </trkpt>
      <trkpt lat="45.2278" lon="5.74446">
        <ele>806</ele>
        <time>2021-09-11T04:40:20.000Z</time>
      </trkpt>
      <trkpt lat="45.22785" lon="5.74446">
        <ele>807.20001220703</ele>
        <time>2021-09-11T04:40:24.000Z</time>
      </trkpt>
      <trkpt lat="45.22786" lon="5.74446">
        <ele>807.20001220703</ele>
        <time>2021-09-11T04:40:25.000Z</time>
      </trkpt>
      <trkpt lat="45.22788" lon="5.74445">
        <ele>808.40002441406</ele>
        <time>2021-09-11T04:40:28.000Z</time>
      </trkpt>
      <trkpt lat="45.22794" lon="5.74444">
        <ele>809.59997558594</ele>
        <time>2021-09-11T04:40:32.000Z</time>
      </trkpt>
      <trkpt lat="45.22796" lon="5.74444">
        <ele>809.79998779297</ele>
        <time>2021-09-11T04:40:33.000Z</time>
      </trkpt>
      <trkpt lat="45.22796" lon="5.74444">
        <ele>810</ele>
        <time>2021-09-11T04:40:34.000Z</time>
      </trkpt>
      <trkpt lat="45.22797" lon="5.74443">
        <ele>810.59997558594</ele>
        <time>2021-09-11T04:40:35.000Z</time>
      </trkpt>
      <trkpt lat="45.22798" lon="5.74442">
        <ele>811.20001220703</ele>
        <time>2021-09-11T04:40:36.000Z</time>
      </trkpt>
      <trkpt lat="45.22799" lon="5.74441">
        <ele>811.40002441406</ele>
        <time>2021-09-11T04:40:37.000Z</time>
      </trkpt>
      <trkpt lat="45.228" lon="5.74439">
        <ele>812</ele>
        <time>2021-09-11T04:40:39.000Z</time>
      </trkpt>
      <trkpt lat="45.22801" lon="5.74439">
        <ele>812</ele>
        <time>2021-09-11T04:40:40.000Z</time>
      </trkpt>
      <trkpt lat="45.22804" lon="5.74438">
        <ele>812.59997558594</ele>
        <time>2021-09-11T04:40:42.000Z</time>
      </trkpt>
      <trkpt lat="45.22806" lon="5.74438">
        <ele>812.79998779297</ele>
        <time>2021-09-11T04:40:43.000Z</time>
      </trkpt>
      <trkpt lat="45.22808" lon="5.74438">
        <ele>813.40002441406</ele>
        <time>2021-09-11T04:40:44.000Z</time>
      </trkpt>
      <trkpt lat="45.22811" lon="5.74434">
        <ele>814.40002441406</ele>
        <time>2021-09-11T04:40:47.000Z</time>
      </trkpt>
      <trkpt lat="45.22813" lon="5.74435">
        <ele>815.20001220703</ele>
        <time>2021-09-11T04:40:49.000Z</time>
      </trkpt>
      <trkpt lat="45.22814" lon="5.74436">
        <ele>815.59997558594</ele>
        <time>2021-09-11T04:40:50.000Z</time>
      </trkpt>
      <trkpt lat="45.22814" lon="5.74437">
        <ele>815.59997558594</ele>
        <time>2021-09-11T04:40:51.000Z</time>
      </trkpt>
      <trkpt lat="45.22816" lon="5.74437">
        <ele>816</ele>
        <time>2021-09-11T04:40:53.000Z</time>
      </trkpt>
      <trkpt lat="45.22817" lon="5.74435">
        <ele>816.79998779297</ele>
        <time>2021-09-11T04:40:55.000Z</time>
      </trkpt>
      <trkpt lat="45.22818" lon="5.74435">
        <ele>817.59997558594</ele>
        <time>2021-09-11T04:40:57.000Z</time>
      </trkpt>
      <trkpt lat="45.2282" lon="5.74434">
        <ele>818.20001220703</ele>
        <time>2021-09-11T04:40:59.000Z</time>
      </trkpt>
      <trkpt lat="45.22823" lon="5.74433">
        <ele>818.79998779297</ele>
        <time>2021-09-11T04:41:02.000Z</time>
      </trkpt>
      <trkpt lat="45.22825" lon="5.74432">
        <ele>819.59997558594</ele>
        <time>2021-09-11T04:41:04.000Z</time>
      </trkpt>
      <trkpt lat="45.22827" lon="5.74429">
        <ele>820.79998779297</ele>
        <time>2021-09-11T04:41:07.000Z</time>
      </trkpt>
      <trkpt lat="45.22827" lon="5.74429">
        <ele>821.20001220703</ele>
        <time>2021-09-11T04:41:08.000Z</time>
      </trkpt>
      <trkpt lat="45.22828" lon="5.74429">
        <ele>821.79998779297</ele>
        <time>2021-09-11T04:41:11.000Z</time>
      </trkpt>
      <trkpt lat="45.22828" lon="5.74428">
        <ele>822</ele>
        <time>2021-09-11T04:41:12.000Z</time>
      </trkpt>
      <trkpt lat="45.2283" lon="5.74427">
        <ele>822.40002441406</ele>
        <time>2021-09-11T04:41:14.000Z</time>
      </trkpt>
      <trkpt lat="45.2283" lon="5.74427">
        <ele>822.79998779297</ele>
        <time>2021-09-11T04:41:15.000Z</time>
      </trkpt>
      <trkpt lat="45.22831" lon="5.74426">
        <ele>823.20001220703</ele>
        <time>2021-09-11T04:41:16.000Z</time>
      </trkpt>
      <trkpt lat="45.22834" lon="5.74425">
        <ele>824.20001220703</ele>
        <time>2021-09-11T04:41:19.000Z</time>
      </trkpt>
      <trkpt lat="45.22837" lon="5.74424">
        <ele>825</ele>
        <time>2021-09-11T04:41:23.000Z</time>
      </trkpt>
      <trkpt lat="45.22838" lon="5.74423">
        <ele>825.40002441406</ele>
        <time>2021-09-11T04:41:24.000Z</time>
      </trkpt>
      <trkpt lat="45.2284" lon="5.74422">
        <ele>825.79998779297</ele>
        <time>2021-09-11T04:41:27.000Z</time>
      </trkpt>
      <trkpt lat="45.22842" lon="5.74422">
        <ele>826.79998779297</ele>
        <time>2021-09-11T04:41:29.000Z</time>
      </trkpt>
      <trkpt lat="45.22844" lon="5.7442">
        <ele>827.59997558594</ele>
        <time>2021-09-11T04:41:31.000Z</time>
      </trkpt>
      <trkpt lat="45.22844" lon="5.74419">
        <ele>828</ele>
        <time>2021-09-11T04:41:32.000Z</time>
      </trkpt>
      <trkpt lat="45.22846" lon="5.74419">
        <ele>828.59997558594</ele>
        <time>2021-09-11T04:41:35.000Z</time>
      </trkpt>
      <trkpt lat="45.22847" lon="5.7442">
        <ele>829</ele>
        <time>2021-09-11T04:41:37.000Z</time>
      </trkpt>
      <trkpt lat="45.22849" lon="5.7442">
        <ele>829.40002441406</ele>
        <time>2021-09-11T04:41:39.000Z</time>
      </trkpt>
      <trkpt lat="45.22849" lon="5.74419">
        <ele>829.59997558594</ele>
        <time>2021-09-11T04:41:40.000Z</time>
      </trkpt>
      <trkpt lat="45.2285" lon="5.74418">
        <ele>830.20001220703</ele>
        <time>2021-09-11T04:41:42.000Z</time>
      </trkpt>
      <trkpt lat="45.22853" lon="5.74419">
        <ele>831.20001220703</ele>
        <time>2021-09-11T04:41:44.000Z</time>
      </trkpt>
      <trkpt lat="45.22853" lon="5.74418">
        <ele>831.59997558594</ele>
        <time>2021-09-11T04:41:45.000Z</time>
      </trkpt>
      <trkpt lat="45.22858" lon="5.74417">
        <ele>832.40002441406</ele>
        <time>2021-09-11T04:41:48.000Z</time>
      </trkpt>
      <trkpt lat="45.22859" lon="5.74417">
        <ele>832.59997558594</ele>
        <time>2021-09-11T04:41:49.000Z</time>
      </trkpt>
      <trkpt lat="45.2286" lon="5.74417">
        <ele>832.79998779297</ele>
        <time>2021-09-11T04:41:50.000Z</time>
      </trkpt>
      <trkpt lat="45.22861" lon="5.74417">
        <ele>833.20001220703</ele>
        <time>2021-09-11T04:41:51.000Z</time>
      </trkpt>
      <trkpt lat="45.22861" lon="5.74417">
        <ele>833.79998779297</ele>
        <time>2021-09-11T04:41:53.000Z</time>
      </trkpt>
      <trkpt lat="45.22861" lon="5.74417">
        <ele>834</ele>
        <time>2021-09-11T04:41:54.000Z</time>
      </trkpt>
      <trkpt lat="45.22864" lon="5.7442">
        <ele>835.20001220703</ele>
        <time>2021-09-11T04:41:57.000Z</time>
      </trkpt>
      <trkpt lat="45.22867" lon="5.74421">
        <ele>835.40002441406</ele>
        <time>2021-09-11T04:41:58.000Z</time>
      </trkpt>
      <trkpt lat="45.22868" lon="5.74419">
        <ele>835.79998779297</ele>
        <time>2021-09-11T04:42:00.000Z</time>
      </trkpt>
      <trkpt lat="45.22868" lon="5.74418">
        <ele>836</ele>
        <time>2021-09-11T04:42:01.000Z</time>
      </trkpt>
      <trkpt lat="45.22867" lon="5.74418">
        <ele>836.20001220703</ele>
        <time>2021-09-11T04:42:03.000Z</time>
      </trkpt>
      <trkpt lat="45.22868" lon="5.74417">
        <ele>836.40002441406</ele>
        <time>2021-09-11T04:42:05.000Z</time>
      </trkpt>
      <trkpt lat="45.2287" lon="5.74417">
        <ele>837</ele>
        <time>2021-09-11T04:42:07.000Z</time>
      </trkpt>
      <trkpt lat="45.22871" lon="5.74417">
        <ele>837.40002441406</ele>
        <time>2021-09-11T04:42:08.000Z</time>
      </trkpt>
      <trkpt lat="45.22875" lon="5.74416">
        <ele>838.59997558594</ele>
        <time>2021-09-11T04:42:12.000Z</time>
      </trkpt>
      <trkpt lat="45.22876" lon="5.74416">
        <ele>839.20001220703</ele>
        <time>2021-09-11T04:42:14.000Z</time>
      </trkpt>
      <trkpt lat="45.22877" lon="5.74416">
        <ele>839.59997558594</ele>
        <time>2021-09-11T04:42:15.000Z</time>
      </trkpt>
      <trkpt lat="45.22877" lon="5.74417">
        <ele>839.79998779297</ele>
        <time>2021-09-11T04:42:16.000Z</time>
      </trkpt>
      <trkpt lat="45.22878" lon="5.74417">
        <ele>840.20001220703</ele>
        <time>2021-09-11T04:42:17.000Z</time>
      </trkpt>
      <trkpt lat="45.2288" lon="5.74416">
        <ele>841</ele>
        <time>2021-09-11T04:42:19.000Z</time>
      </trkpt>
      <trkpt lat="45.22881" lon="5.74417">
        <ele>841.20001220703</ele>
        <time>2021-09-11T04:42:20.000Z</time>
      </trkpt>
      <trkpt lat="45.22882" lon="5.74417">
        <ele>841.59997558594</ele>
        <time>2021-09-11T04:42:21.000Z</time>
      </trkpt>
      <trkpt lat="45.22883" lon="5.74417">
        <ele>841.79998779297</ele>
        <time>2021-09-11T04:42:22.000Z</time>
      </trkpt>
      <trkpt lat="45.22883" lon="5.74417">
        <ele>842.20001220703</ele>
        <time>2021-09-11T04:42:23.000Z</time>
      </trkpt>
      <trkpt lat="45.22884" lon="5.74416">
        <ele>842.79998779297</ele>
        <time>2021-09-11T04:42:25.000Z</time>
      </trkpt>
      <trkpt lat="45.22885" lon="5.74417">
        <ele>843</ele>
        <time>2021-09-11T04:42:26.000Z</time>
      </trkpt>
      <trkpt lat="45.22886" lon="5.74418">
        <ele>843.20001220703</ele>
        <time>2021-09-11T04:42:27.000Z</time>
      </trkpt>
      <trkpt lat="45.22887" lon="5.74418">
        <ele>843.40002441406</ele>
        <time>2021-09-11T04:42:28.000Z</time>
      </trkpt>
      <trkpt lat="45.2289" lon="5.74416">
        <ele>844.59997558594</ele>
        <time>2021-09-11T04:42:32.000Z</time>
      </trkpt>
      <trkpt lat="45.22892" lon="5.74418">
        <ele>845.59997558594</ele>
        <time>2021-09-11T04:42:34.000Z</time>
      </trkpt>
      <trkpt lat="45.22892" lon="5.74417">
        <ele>845.79998779297</ele>
        <time>2021-09-11T04:42:35.000Z</time>
      </trkpt>
      <trkpt lat="45.22893" lon="5.74414">
        <ele>846.40002441406</ele>
        <time>2021-09-11T04:42:37.000Z</time>
      </trkpt>
      <trkpt lat="45.22894" lon="5.74413">
        <ele>846.79998779297</ele>
        <time>2021-09-11T04:42:39.000Z</time>
      </trkpt>
      <trkpt lat="45.22894" lon="5.74412">
        <ele>847.20001220703</ele>
        <time>2021-09-11T04:42:41.000Z</time>
      </trkpt>
      <trkpt lat="45.22895" lon="5.7441">
        <ele>847.79998779297</ele>
        <time>2021-09-11T04:42:43.000Z</time>
      </trkpt>
      <trkpt lat="45.22895" lon="5.74409">
        <ele>848.20001220703</ele>
        <time>2021-09-11T04:42:44.000Z</time>
      </trkpt>
      <trkpt lat="45.22895" lon="5.74409">
        <ele>848.40002441406</ele>
        <time>2021-09-11T04:42:45.000Z</time>
      </trkpt>
      <trkpt lat="45.22895" lon="5.74408">
        <ele>849.20001220703</ele>
        <time>2021-09-11T04:42:48.000Z</time>
      </trkpt>
      <trkpt lat="45.22899" lon="5.74408">
        <ele>850.59997558594</ele>
        <time>2021-09-11T04:42:51.000Z</time>
      </trkpt>
      <trkpt lat="45.22902" lon="5.74408">
        <ele>851.20001220703</ele>
        <time>2021-09-11T04:42:53.000Z</time>
      </trkpt>
      <trkpt lat="45.22904" lon="5.74409">
        <ele>851.59997558594</ele>
        <time>2021-09-11T04:42:55.000Z</time>
      </trkpt>
      <trkpt lat="45.22905" lon="5.7441">
        <ele>852</ele>
        <time>2021-09-11T04:42:57.000Z</time>
      </trkpt>
      <trkpt lat="45.22906" lon="5.7441">
        <ele>853.20001220703</ele>
        <time>2021-09-11T04:42:59.000Z</time>
      </trkpt>
      <trkpt lat="45.22908" lon="5.74407">
        <ele>854.20001220703</ele>
        <time>2021-09-11T04:43:02.000Z</time>
      </trkpt>
      <trkpt lat="45.22911" lon="5.74406">
        <ele>855.40002441406</ele>
        <time>2021-09-11T04:43:05.000Z</time>
      </trkpt>
      <trkpt lat="45.22911" lon="5.74405">
        <ele>855.40002441406</ele>
        <time>2021-09-11T04:43:06.000Z</time>
      </trkpt>
      <trkpt lat="45.22913" lon="5.74404">
        <ele>856</ele>
        <time>2021-09-11T04:43:08.000Z</time>
      </trkpt>
      <trkpt lat="45.22913" lon="5.74404">
        <ele>856.40002441406</ele>
        <time>2021-09-11T04:43:09.000Z</time>
      </trkpt>
      <trkpt lat="45.22914" lon="5.74405">
        <ele>856.59997558594</ele>
        <time>2021-09-11T04:43:10.000Z</time>
      </trkpt>
      <trkpt lat="45.22915" lon="5.74405">
        <ele>857.59997558594</ele>
        <time>2021-09-11T04:43:12.000Z</time>
      </trkpt>
      <trkpt lat="45.22918" lon="5.74405">
        <ele>858.79998779297</ele>
        <time>2021-09-11T04:43:17.000Z</time>
      </trkpt>
      <trkpt lat="45.22918" lon="5.74405">
        <ele>859.40002441406</ele>
        <time>2021-09-11T04:43:18.000Z</time>
      </trkpt>
      <trkpt lat="45.22919" lon="5.74405">
        <ele>860</ele>
        <time>2021-09-11T04:43:20.000Z</time>
      </trkpt>
      <trkpt lat="45.22921" lon="5.74405">
        <ele>860.40002441406</ele>
        <time>2021-09-11T04:43:22.000Z</time>
      </trkpt>
      <trkpt lat="45.22921" lon="5.74405">
        <ele>860.59997558594</ele>
        <time>2021-09-11T04:43:23.000Z</time>
      </trkpt>
      <trkpt lat="45.22922" lon="5.74405">
        <ele>861.40002441406</ele>
        <time>2021-09-11T04:43:24.000Z</time>
      </trkpt>
      <trkpt lat="45.22925" lon="5.74405">
        <ele>862.40002441406</ele>
        <time>2021-09-11T04:43:27.000Z</time>
      </trkpt>
      <trkpt lat="45.22928" lon="5.74401">
        <ele>863.59997558594</ele>
        <time>2021-09-11T04:43:30.000Z</time>
      </trkpt>
      <trkpt lat="45.22928" lon="5.744">
        <ele>863.79998779297</ele>
        <time>2021-09-11T04:43:31.000Z</time>
      </trkpt>
      <trkpt lat="45.2293" lon="5.74399">
        <ele>864.79998779297</ele>
        <time>2021-09-11T04:43:34.000Z</time>
      </trkpt>
      <trkpt lat="45.22932" lon="5.74398">
        <ele>865.40002441406</ele>
        <time>2021-09-11T04:43:36.000Z</time>
      </trkpt>
      <trkpt lat="45.22932" lon="5.74397">
        <ele>865.79998779297</ele>
        <time>2021-09-11T04:43:38.000Z</time>
      </trkpt>
      <trkpt lat="45.22935" lon="5.74396">
        <ele>866.79998779297</ele>
        <time>2021-09-11T04:43:42.000Z</time>
      </trkpt>
      <trkpt lat="45.22936" lon="5.74396">
        <ele>867.20001220703</ele>
        <time>2021-09-11T04:43:43.000Z</time>
      </trkpt>
      <trkpt lat="45.22937" lon="5.74395">
        <ele>867.79998779297</ele>
        <time>2021-09-11T04:43:45.000Z</time>
      </trkpt>
      <trkpt lat="45.22938" lon="5.74395">
        <ele>868</ele>
        <time>2021-09-11T04:43:46.000Z</time>
      </trkpt>
      <trkpt lat="45.22938" lon="5.74394">
        <ele>868.79998779297</ele>
        <time>2021-09-11T04:43:48.000Z</time>
      </trkpt>
      <trkpt lat="45.22939" lon="5.74394">
        <ele>869.20001220703</ele>
        <time>2021-09-11T04:43:49.000Z</time>
      </trkpt>
      <trkpt lat="45.22939" lon="5.74393">
        <ele>870</ele>
        <time>2021-09-11T04:43:51.000Z</time>
      </trkpt>
      <trkpt lat="45.2294" lon="5.74392">
        <ele>870.20001220703</ele>
        <time>2021-09-11T04:43:52.000Z</time>
      </trkpt>
      <trkpt lat="45.22942" lon="5.74392">
        <ele>870.59997558594</ele>
        <time>2021-09-11T04:43:54.000Z</time>
      </trkpt>
      <trkpt lat="45.22945" lon="5.74392">
        <ele>871.40002441406</ele>
        <time>2021-09-11T04:43:56.000Z</time>
      </trkpt>
      <trkpt lat="45.22951" lon="5.74393">
        <ele>872.59997558594</ele>
        <time>2021-09-11T04:44:01.000Z</time>
      </trkpt>
      <trkpt lat="45.22953" lon="5.74393">
        <ele>873</ele>
        <time>2021-09-11T04:44:03.000Z</time>
      </trkpt>
      <trkpt lat="45.22955" lon="5.74394">
        <ele>873.59997558594</ele>
        <time>2021-09-11T04:44:05.000Z</time>
      </trkpt>
      <trkpt lat="45.22956" lon="5.74395">
        <ele>874.40002441406</ele>
        <time>2021-09-11T04:44:07.000Z</time>
      </trkpt>
      <trkpt lat="45.22958" lon="5.74393">
        <ele>875</ele>
        <time>2021-09-11T04:44:10.000Z</time>
      </trkpt>
      <trkpt lat="45.22959" lon="5.74392">
        <ele>876</ele>
        <time>2021-09-11T04:44:12.000Z</time>
      </trkpt>
      <trkpt lat="45.22959" lon="5.74391">
        <ele>876.40002441406</ele>
        <time>2021-09-11T04:44:13.000Z</time>
      </trkpt>
      <trkpt lat="45.22959" lon="5.74391">
        <ele>876.59997558594</ele>
        <time>2021-09-11T04:44:14.000Z</time>
      </trkpt>
      <trkpt lat="45.22962" lon="5.74391">
        <ele>877.40002441406</ele>
        <time>2021-09-11T04:44:17.000Z</time>
      </trkpt>
      <trkpt lat="45.22964" lon="5.74391">
        <ele>878.20001220703</ele>
        <time>2021-09-11T04:44:19.000Z</time>
      </trkpt>
      <trkpt lat="45.22965" lon="5.74391">
        <ele>878.40002441406</ele>
        <time>2021-09-11T04:44:20.000Z</time>
      </trkpt>
      <trkpt lat="45.22966" lon="5.74395">
        <ele>879.79998779297</ele>
        <time>2021-09-11T04:44:25.000Z</time>
      </trkpt>
      <trkpt lat="45.22967" lon="5.74396">
        <ele>880</ele>
        <time>2021-09-11T04:44:26.000Z</time>
      </trkpt>
      <trkpt lat="45.22972" lon="5.744">
        <ele>880.79998779297</ele>
        <time>2021-09-11T04:44:29.000Z</time>
      </trkpt>
      <trkpt lat="45.22974" lon="5.74402">
        <ele>881.40002441406</ele>
        <time>2021-09-11T04:44:31.000Z</time>
      </trkpt>
      <trkpt lat="45.22975" lon="5.74404">
        <ele>882</ele>
        <time>2021-09-11T04:44:33.000Z</time>
      </trkpt>
      <trkpt lat="45.22977" lon="5.74404">
        <ele>882.59997558594</ele>
        <time>2021-09-11T04:44:36.000Z</time>
      </trkpt>
      <trkpt lat="45.22978" lon="5.74404">
        <ele>883.20001220703</ele>
        <time>2021-09-11T04:44:37.000Z</time>
      </trkpt>
      <trkpt lat="45.22982" lon="5.74405">
        <ele>884.20001220703</ele>
        <time>2021-09-11T04:44:41.000Z</time>
      </trkpt>
      <trkpt lat="45.22985" lon="5.74405">
        <ele>884.79998779297</ele>
        <time>2021-09-11T04:44:43.000Z</time>
      </trkpt>
      <trkpt lat="45.22989" lon="5.74405">
        <ele>885.79998779297</ele>
        <time>2021-09-11T04:44:46.000Z</time>
      </trkpt>
      <trkpt lat="45.22994" lon="5.74408">
        <ele>886.79998779297</ele>
        <time>2021-09-11T04:44:50.000Z</time>
      </trkpt>
      <trkpt lat="45.22996" lon="5.7441">
        <ele>887</ele>
        <time>2021-09-11T04:44:51.000Z</time>
      </trkpt>
      <trkpt lat="45.23001" lon="5.74413">
        <ele>888.20001220703</ele>
        <time>2021-09-11T04:44:54.000Z</time>
      </trkpt>
      <trkpt lat="45.23003" lon="5.74413">
        <ele>888.40002441406</ele>
        <time>2021-09-11T04:44:55.000Z</time>
      </trkpt>
      <trkpt lat="45.23004" lon="5.74412">
        <ele>888.79998779297</ele>
        <time>2021-09-11T04:44:57.000Z</time>
      </trkpt>
      <trkpt lat="45.23006" lon="5.74413">
        <ele>889.20001220703</ele>
        <time>2021-09-11T04:44:59.000Z</time>
      </trkpt>
      <trkpt lat="45.23008" lon="5.74414">
        <ele>890.20001220703</ele>
        <time>2021-09-11T04:45:01.000Z</time>
      </trkpt>
      <trkpt lat="45.23009" lon="5.74414">
        <ele>890.40002441406</ele>
        <time>2021-09-11T04:45:02.000Z</time>
      </trkpt>
      <trkpt lat="45.23012" lon="5.74413">
        <ele>891.20001220703</ele>
        <time>2021-09-11T04:45:04.000Z</time>
      </trkpt>
      <trkpt lat="45.23013" lon="5.74413">
        <ele>891.40002441406</ele>
        <time>2021-09-11T04:45:05.000Z</time>
      </trkpt>
      <trkpt lat="45.23017" lon="5.74414">
        <ele>892</ele>
        <time>2021-09-11T04:45:07.000Z</time>
      </trkpt>
      <trkpt lat="45.23019" lon="5.74415">
        <ele>892.59997558594</ele>
        <time>2021-09-11T04:45:09.000Z</time>
      </trkpt>
      <trkpt lat="45.23023" lon="5.74415">
        <ele>893.40002441406</ele>
        <time>2021-09-11T04:45:12.000Z</time>
      </trkpt>
      <trkpt lat="45.23025" lon="5.74415">
        <ele>893.79998779297</ele>
        <time>2021-09-11T04:45:14.000Z</time>
      </trkpt>
      <trkpt lat="45.23027" lon="5.74415">
        <ele>894</ele>
        <time>2021-09-11T04:45:15.000Z</time>
      </trkpt>
      <trkpt lat="45.23028" lon="5.74415">
        <ele>894.40002441406</ele>
        <time>2021-09-11T04:45:16.000Z</time>
      </trkpt>
      <trkpt lat="45.23029" lon="5.74415">
        <ele>894.79998779297</ele>
        <time>2021-09-11T04:45:17.000Z</time>
      </trkpt>
      <trkpt lat="45.23036" lon="5.74418">
        <ele>895.59997558594</ele>
        <time>2021-09-11T04:45:21.000Z</time>
      </trkpt>
      <trkpt lat="45.23039" lon="5.74419">
        <ele>896.20001220703</ele>
        <time>2021-09-11T04:45:23.000Z</time>
      </trkpt>
      <trkpt lat="45.23042" lon="5.74421">
        <ele>896.59997558594</ele>
        <time>2021-09-11T04:45:25.000Z</time>
      </trkpt>
      <trkpt lat="45.23043" lon="5.74423">
        <ele>896.79998779297</ele>
        <time>2021-09-11T04:45:26.000Z</time>
      </trkpt>
      <trkpt lat="45.23046" lon="5.74425">
        <ele>897.40002441406</ele>
        <time>2021-09-11T04:45:29.000Z</time>
      </trkpt>
      <trkpt lat="45.23049" lon="5.74426">
        <ele>898.40002441406</ele>
        <time>2021-09-11T04:45:33.000Z</time>
      </trkpt>
      <trkpt lat="45.23049" lon="5.74427">
        <ele>898.40002441406</ele>
        <time>2021-09-11T04:45:34.000Z</time>
      </trkpt>
      <trkpt lat="45.23051" lon="5.74427">
        <ele>898.59997558594</ele>
        <time>2021-09-11T04:45:35.000Z</time>
      </trkpt>
      <trkpt lat="45.23054" lon="5.74427">
        <ele>899.40002441406</ele>
        <time>2021-09-11T04:45:37.000Z</time>
      </trkpt>
      <trkpt lat="45.23055" lon="5.74428">
        <ele>899.79998779297</ele>
        <time>2021-09-11T04:45:38.000Z</time>
      </trkpt>
      <trkpt lat="45.23058" lon="5.74429">
        <ele>900.59997558594</ele>
        <time>2021-09-11T04:45:40.000Z</time>
      </trkpt>
      <trkpt lat="45.23063" lon="5.7443">
        <ele>901.59997558594</ele>
        <time>2021-09-11T04:45:44.000Z</time>
      </trkpt>
      <trkpt lat="45.23065" lon="5.74431">
        <ele>902.20001220703</ele>
        <time>2021-09-11T04:45:45.000Z</time>
      </trkpt>
      <trkpt lat="45.2307" lon="5.74433">
        <ele>903.20001220703</ele>
        <time>2021-09-11T04:45:49.000Z</time>
      </trkpt>
      <trkpt lat="45.23073" lon="5.74432">
        <ele>903.79998779297</ele>
        <time>2021-09-11T04:45:51.000Z</time>
      </trkpt>
      <trkpt lat="45.23072" lon="5.74431">
        <ele>904</ele>
        <time>2021-09-11T04:45:53.000Z</time>
      </trkpt>
      <trkpt lat="45.23073" lon="5.74432">
        <ele>904.40002441406</ele>
        <time>2021-09-11T04:45:54.000Z</time>
      </trkpt>
      <trkpt lat="45.23075" lon="5.74433">
        <ele>905.20001220703</ele>
        <time>2021-09-11T04:45:56.000Z</time>
      </trkpt>
      <trkpt lat="45.23076" lon="5.74434">
        <ele>905.59997558594</ele>
        <time>2021-09-11T04:45:57.000Z</time>
      </trkpt>
      <trkpt lat="45.23077" lon="5.74434">
        <ele>905.79998779297</ele>
        <time>2021-09-11T04:45:58.000Z</time>
      </trkpt>
      <trkpt lat="45.23079" lon="5.74434">
        <ele>906.20001220703</ele>
        <time>2021-09-11T04:46:00.000Z</time>
      </trkpt>
      <trkpt lat="45.2308" lon="5.74435">
        <ele>906.40002441406</ele>
        <time>2021-09-11T04:46:01.000Z</time>
      </trkpt>
      <trkpt lat="45.23082" lon="5.74435">
        <ele>906.79998779297</ele>
        <time>2021-09-11T04:46:02.000Z</time>
      </trkpt>
      <trkpt lat="45.23083" lon="5.74435">
        <ele>907</ele>
        <time>2021-09-11T04:46:03.000Z</time>
      </trkpt>
      <trkpt lat="45.23086" lon="5.74434">
        <ele>907.79998779297</ele>
        <time>2021-09-11T04:46:06.000Z</time>
      </trkpt>
      <trkpt lat="45.23086" lon="5.74434">
        <ele>908.20001220703</ele>
        <time>2021-09-11T04:46:07.000Z</time>
      </trkpt>
      <trkpt lat="45.2309" lon="5.74434">
        <ele>909.40002441406</ele>
        <time>2021-09-11T04:46:11.000Z</time>
      </trkpt>
      <trkpt lat="45.23091" lon="5.74434">
        <ele>909.79998779297</ele>
        <time>2021-09-11T04:46:12.000Z</time>
      </trkpt>
      <trkpt lat="45.23096" lon="5.74437">
        <ele>910.59997558594</ele>
        <time>2021-09-11T04:46:15.000Z</time>
      </trkpt>
      <trkpt lat="45.23099" lon="5.74437">
        <ele>911.59997558594</ele>
        <time>2021-09-11T04:46:17.000Z</time>
      </trkpt>
      <trkpt lat="45.23101" lon="5.74439">
        <ele>912</ele>
        <time>2021-09-11T04:46:19.000Z</time>
      </trkpt>
      <trkpt lat="45.23103" lon="5.74441">
        <ele>912.59997558594</ele>
        <time>2021-09-11T04:46:21.000Z</time>
      </trkpt>
      <trkpt lat="45.23105" lon="5.74441">
        <ele>913</ele>
        <time>2021-09-11T04:46:23.000Z</time>
      </trkpt>
      <trkpt lat="45.23111" lon="5.74441">
        <ele>914.20001220703</ele>
        <time>2021-09-11T04:46:26.000Z</time>
      </trkpt>
      <trkpt lat="45.23112" lon="5.74441">
        <ele>914.59997558594</ele>
        <time>2021-09-11T04:46:27.000Z</time>
      </trkpt>
      <trkpt lat="45.23114" lon="5.74441">
        <ele>915</ele>
        <time>2021-09-11T04:46:29.000Z</time>
      </trkpt>
      <trkpt lat="45.23114" lon="5.74442">
        <ele>915.40002441406</ele>
        <time>2021-09-11T04:46:30.000Z</time>
      </trkpt>
      <trkpt lat="45.23117" lon="5.74443">
        <ele>916.59997558594</ele>
        <time>2021-09-11T04:46:34.000Z</time>
      </trkpt>
      <trkpt lat="45.23119" lon="5.74443">
        <ele>917.59997558594</ele>
        <time>2021-09-11T04:46:36.000Z</time>
      </trkpt>
      <trkpt lat="45.2312" lon="5.74444">
        <ele>917.79998779297</ele>
        <time>2021-09-11T04:46:37.000Z</time>
      </trkpt>
      <trkpt lat="45.23125" lon="5.74446">
        <ele>919</ele>
        <time>2021-09-11T04:46:41.000Z</time>
      </trkpt>
      <trkpt lat="45.23126" lon="5.74446">
        <ele>919.20001220703</ele>
        <time>2021-09-11T04:46:42.000Z</time>
      </trkpt>
      <trkpt lat="45.23127" lon="5.74445">
        <ele>919.40002441406</ele>
        <time>2021-09-11T04:46:43.000Z</time>
      </trkpt>
      <trkpt lat="45.23127" lon="5.74445">
        <ele>920</ele>
        <time>2021-09-11T04:46:44.000Z</time>
      </trkpt>
      <trkpt lat="45.23128" lon="5.74445">
        <ele>920.40002441406</ele>
        <time>2021-09-11T04:46:45.000Z</time>
      </trkpt>
      <trkpt lat="45.23131" lon="5.74446">
        <ele>921</ele>
        <time>2021-09-11T04:46:47.000Z</time>
      </trkpt>
      <trkpt lat="45.23133" lon="5.74446">
        <ele>921.20001220703</ele>
        <time>2021-09-11T04:46:48.000Z</time>
      </trkpt>
      <trkpt lat="45.23135" lon="5.74448">
        <ele>921.40002441406</ele>
        <time>2021-09-11T04:46:49.000Z</time>
      </trkpt>
      <trkpt lat="45.23139" lon="5.74449">
        <ele>922</ele>
        <time>2021-09-11T04:46:52.000Z</time>
      </trkpt>
      <trkpt lat="45.2314" lon="5.74449">
        <ele>922.59997558594</ele>
        <time>2021-09-11T04:46:53.000Z</time>
      </trkpt>
      <trkpt lat="45.2314" lon="5.74449">
        <ele>923</ele>
        <time>2021-09-11T04:46:54.000Z</time>
      </trkpt>
      <trkpt lat="45.23141" lon="5.74448">
        <ele>923.59997558594</ele>
        <time>2021-09-11T04:46:56.000Z</time>
      </trkpt>
      <trkpt lat="45.23146" lon="5.7445">
        <ele>924.40002441406</ele>
        <time>2021-09-11T04:46:59.000Z</time>
      </trkpt>
      <trkpt lat="45.23149" lon="5.74451">
        <ele>924.40002441406</ele>
        <time>2021-09-11T04:47:00.000Z</time>
      </trkpt>
      <trkpt lat="45.2315" lon="5.74451">
        <ele>924.59997558594</ele>
        <time>2021-09-11T04:47:01.000Z</time>
      </trkpt>
      <trkpt lat="45.23155" lon="5.74453">
        <ele>925.79998779297</ele>
        <time>2021-09-11T04:47:04.000Z</time>
      </trkpt>
      <trkpt lat="45.23159" lon="5.74454">
        <ele>926.20001220703</ele>
        <time>2021-09-11T04:47:06.000Z</time>
      </trkpt>
      <trkpt lat="45.23163" lon="5.74456">
        <ele>927</ele>
        <time>2021-09-11T04:47:09.000Z</time>
      </trkpt>
      <trkpt lat="45.23164" lon="5.74456">
        <ele>927</ele>
        <time>2021-09-11T04:47:10.000Z</time>
      </trkpt>
      <trkpt lat="45.23167" lon="5.74455">
        <ele>928.20001220703</ele>
        <time>2021-09-11T04:47:13.000Z</time>
      </trkpt>
      <trkpt lat="45.23168" lon="5.74455">
        <ele>928.59997558594</ele>
        <time>2021-09-11T04:47:14.000Z</time>
      </trkpt>
      <trkpt lat="45.23168" lon="5.74457">
        <ele>929.59997558594</ele>
        <time>2021-09-11T04:47:17.000Z</time>
      </trkpt>
      <trkpt lat="45.23169" lon="5.74457">
        <ele>929.79998779297</ele>
        <time>2021-09-11T04:47:18.000Z</time>
      </trkpt>
      <trkpt lat="45.23169" lon="5.74457">
        <ele>930</ele>
        <time>2021-09-11T04:47:19.000Z</time>
      </trkpt>
      <trkpt lat="45.2317" lon="5.74457">
        <ele>930.79998779297</ele>
        <time>2021-09-11T04:47:21.000Z</time>
      </trkpt>
      <trkpt lat="45.23171" lon="5.74458">
        <ele>931.40002441406</ele>
        <time>2021-09-11T04:47:23.000Z</time>
      </trkpt>
      <trkpt lat="45.23172" lon="5.74458">
        <ele>931.59997558594</ele>
        <time>2021-09-11T04:47:24.000Z</time>
      </trkpt>
      <trkpt lat="45.23173" lon="5.74458">
        <ele>931.79998779297</ele>
        <time>2021-09-11T04:47:25.000Z</time>
      </trkpt>
      <trkpt lat="45.23178" lon="5.7446">
        <ele>933.20001220703</ele>
        <time>2021-09-11T04:47:30.000Z</time>
      </trkpt>
      <trkpt lat="45.23181" lon="5.74462">
        <ele>934.20001220703</ele>
        <time>2021-09-11T04:47:33.000Z</time>
      </trkpt>
      <trkpt lat="45.23182" lon="5.74463">
        <ele>934.59997558594</ele>
        <time>2021-09-11T04:47:34.000Z</time>
      </trkpt>
      <trkpt lat="45.23183" lon="5.74465">
        <ele>934.79998779297</ele>
        <time>2021-09-11T04:47:35.000Z</time>
      </trkpt>
      <trkpt lat="45.23185" lon="5.74467">
        <ele>935</ele>
        <time>2021-09-11T04:47:37.000Z</time>
      </trkpt>
      <trkpt lat="45.23187" lon="5.74467">
        <ele>935.59997558594</ele>
        <time>2021-09-11T04:47:38.000Z</time>
      </trkpt>
      <trkpt lat="45.23193" lon="5.74471">
        <ele>936.59997558594</ele>
        <time>2021-09-11T04:47:43.000Z</time>
      </trkpt>
      <trkpt lat="45.23194" lon="5.74472">
        <ele>937.20001220703</ele>
        <time>2021-09-11T04:47:44.000Z</time>
      </trkpt>
      <trkpt lat="45.23195" lon="5.74473">
        <ele>937.59997558594</ele>
        <time>2021-09-11T04:47:45.000Z</time>
      </trkpt>
      <trkpt lat="45.23196" lon="5.74474">
        <ele>938</ele>
        <time>2021-09-11T04:47:46.000Z</time>
      </trkpt>
      <trkpt lat="45.23199" lon="5.74476">
        <ele>938.40002441406</ele>
        <time>2021-09-11T04:47:48.000Z</time>
      </trkpt>
      <trkpt lat="45.232" lon="5.74477">
        <ele>939</ele>
        <time>2021-09-11T04:47:50.000Z</time>
      </trkpt>
      <trkpt lat="45.23202" lon="5.74479">
        <ele>939.40002441406</ele>
        <time>2021-09-11T04:47:52.000Z</time>
      </trkpt>
      <trkpt lat="45.23204" lon="5.7448">
        <ele>940</ele>
        <time>2021-09-11T04:47:54.000Z</time>
      </trkpt>
      <trkpt lat="45.23206" lon="5.74481">
        <ele>940.20001220703</ele>
        <time>2021-09-11T04:47:55.000Z</time>
      </trkpt>
      <trkpt lat="45.23211" lon="5.74482">
        <ele>941.59997558594</ele>
        <time>2021-09-11T04:48:00.000Z</time>
      </trkpt>
      <trkpt lat="45.23212" lon="5.74481">
        <ele>942</ele>
        <time>2021-09-11T04:48:01.000Z</time>
      </trkpt>
      <trkpt lat="45.23217" lon="5.74483">
        <ele>942.59997558594</ele>
        <time>2021-09-11T04:48:05.000Z</time>
      </trkpt>
      <trkpt lat="45.23218" lon="5.74483">
        <ele>942.79998779297</ele>
        <time>2021-09-11T04:48:06.000Z</time>
      </trkpt>
      <trkpt lat="45.23219" lon="5.74484">
        <ele>943</ele>
        <time>2021-09-11T04:48:07.000Z</time>
      </trkpt>
      <trkpt lat="45.2322" lon="5.74485">
        <ele>943.40002441406</ele>
        <time>2021-09-11T04:48:08.000Z</time>
      </trkpt>
      <trkpt lat="45.23222" lon="5.74485">
        <ele>943.59997558594</ele>
        <time>2021-09-11T04:48:09.000Z</time>
      </trkpt>
      <trkpt lat="45.23228" lon="5.74488">
        <ele>944.59997558594</ele>
        <time>2021-09-11T04:48:14.000Z</time>
      </trkpt>
      <trkpt lat="45.23231" lon="5.74489">
        <ele>945.59997558594</ele>
        <time>2021-09-11T04:48:16.000Z</time>
      </trkpt>
      <trkpt lat="45.23232" lon="5.74489">
        <ele>945.79998779297</ele>
        <time>2021-09-11T04:48:17.000Z</time>
      </trkpt>
      <trkpt lat="45.23237" lon="5.74492">
        <ele>946.59997558594</ele>
        <time>2021-09-11T04:48:20.000Z</time>
      </trkpt>
      <trkpt lat="45.23237" lon="5.74492">
        <ele>947</ele>
        <time>2021-09-11T04:48:21.000Z</time>
      </trkpt>
      <trkpt lat="45.23239" lon="5.74492">
        <ele>947.40002441406</ele>
        <time>2021-09-11T04:48:23.000Z</time>
      </trkpt>
      <trkpt lat="45.23242" lon="5.74493">
        <ele>948.20001220703</ele>
        <time>2021-09-11T04:48:25.000Z</time>
      </trkpt>
      <trkpt lat="45.23243" lon="5.74493">
        <ele>948.59997558594</ele>
        <time>2021-09-11T04:48:26.000Z</time>
      </trkpt>
      <trkpt lat="45.23251" lon="5.74496">
        <ele>949.59997558594</ele>
        <time>2021-09-11T04:48:30.000Z</time>
      </trkpt>
      <trkpt lat="45.23252" lon="5.74496">
        <ele>949.79998779297</ele>
        <time>2021-09-11T04:48:31.000Z</time>
      </trkpt>
      <trkpt lat="45.23253" lon="5.74497">
        <ele>950.40002441406</ele>
        <time>2021-09-11T04:48:32.000Z</time>
      </trkpt>
      <trkpt lat="45.23254" lon="5.74497">
        <ele>951</ele>
        <time>2021-09-11T04:48:33.000Z</time>
      </trkpt>
      <trkpt lat="45.23259" lon="5.74499">
        <ele>952</ele>
        <time>2021-09-11T04:48:36.000Z</time>
      </trkpt>
      <trkpt lat="45.23261" lon="5.745">
        <ele>952.20001220703</ele>
        <time>2021-09-11T04:48:37.000Z</time>
      </trkpt>
      <trkpt lat="45.23263" lon="5.74502">
        <ele>953.20001220703</ele>
        <time>2021-09-11T04:48:40.000Z</time>
      </trkpt>
      <trkpt lat="45.23263" lon="5.74502">
        <ele>953.40002441406</ele>
        <time>2021-09-11T04:48:41.000Z</time>
      </trkpt>
      <trkpt lat="45.23264" lon="5.74501">
        <ele>953.59997558594</ele>
        <time>2021-09-11T04:48:42.000Z</time>
      </trkpt>
      <trkpt lat="45.23268" lon="5.74503">
        <ele>954.59997558594</ele>
        <time>2021-09-11T04:48:45.000Z</time>
      </trkpt>
      <trkpt lat="45.23272" lon="5.74507">
        <ele>955</ele>
        <time>2021-09-11T04:48:48.000Z</time>
      </trkpt>
      <trkpt lat="45.23276" lon="5.74509">
        <ele>955.59997558594</ele>
        <time>2021-09-11T04:48:51.000Z</time>
      </trkpt>
      <trkpt lat="45.23277" lon="5.74509">
        <ele>956.40002441406</ele>
        <time>2021-09-11T04:48:52.000Z</time>
      </trkpt>
      <trkpt lat="45.23277" lon="5.74509">
        <ele>956.79998779297</ele>
        <time>2021-09-11T04:48:53.000Z</time>
      </trkpt>
      <trkpt lat="45.23278" lon="5.74509">
        <ele>957.40002441406</ele>
        <time>2021-09-11T04:48:56.000Z</time>
      </trkpt>
      <trkpt lat="45.23282" lon="5.74512">
        <ele>958</ele>
        <time>2021-09-11T04:48:58.000Z</time>
      </trkpt>
      <trkpt lat="45.23287" lon="5.74514">
        <ele>959.20001220703</ele>
        <time>2021-09-11T04:49:03.000Z</time>
      </trkpt>
      <trkpt lat="45.2329" lon="5.74515">
        <ele>959.79998779297</ele>
        <time>2021-09-11T04:49:05.000Z</time>
      </trkpt>
      <trkpt lat="45.23291" lon="5.74516">
        <ele>960.40002441406</ele>
        <time>2021-09-11T04:49:07.000Z</time>
      </trkpt>
      <trkpt lat="45.23294" lon="5.74519">
        <ele>961.40002441406</ele>
        <time>2021-09-11T04:49:11.000Z</time>
      </trkpt>
      <trkpt lat="45.23297" lon="5.7452">
        <ele>962.79998779297</ele>
        <time>2021-09-11T04:49:15.000Z</time>
      </trkpt>
      <trkpt lat="45.23299" lon="5.7452">
        <ele>963.20001220703</ele>
        <time>2021-09-11T04:49:17.000Z</time>
      </trkpt>
      <trkpt lat="45.23304" lon="5.7452">
        <ele>964</ele>
        <time>2021-09-11T04:49:21.000Z</time>
      </trkpt>
      <trkpt lat="45.23304" lon="5.7452">
        <ele>964.40002441406</ele>
        <time>2021-09-11T04:49:22.000Z</time>
      </trkpt>
      <trkpt lat="45.23306" lon="5.7452">
        <ele>965</ele>
        <time>2021-09-11T04:49:23.000Z</time>
      </trkpt>
      <trkpt lat="45.23309" lon="5.74521">
        <ele>966.40002441406</ele>
        <time>2021-09-11T04:49:27.000Z</time>
      </trkpt>
      <trkpt lat="45.2331" lon="5.74521">
        <ele>966.59997558594</ele>
        <time>2021-09-11T04:49:28.000Z</time>
      </trkpt>
      <trkpt lat="45.23312" lon="5.74522">
        <ele>967.20001220703</ele>
        <time>2021-09-11T04:49:30.000Z</time>
      </trkpt>
      <trkpt lat="45.23313" lon="5.74523">
        <ele>967.59997558594</ele>
        <time>2021-09-11T04:49:31.000Z</time>
      </trkpt>
      <trkpt lat="45.23313" lon="5.74523">
        <ele>968.59997558594</ele>
        <time>2021-09-11T04:49:33.000Z</time>
      </trkpt>
      <trkpt lat="45.23314" lon="5.74523">
        <ele>969.40002441406</ele>
        <time>2021-09-11T04:49:35.000Z</time>
      </trkpt>
      <trkpt lat="45.23315" lon="5.74523">
        <ele>969.79998779297</ele>
        <time>2021-09-11T04:49:36.000Z</time>
      </trkpt>
      <trkpt lat="45.23315" lon="5.74523">
        <ele>970</ele>
        <time>2021-09-11T04:49:37.000Z</time>
      </trkpt>
      <trkpt lat="45.23319" lon="5.74525">
        <ele>971</ele>
        <time>2021-09-11T04:49:41.000Z</time>
      </trkpt>
      <trkpt lat="45.23326" lon="5.74529">
        <ele>972.20001220703</ele>
        <time>2021-09-11T04:49:47.000Z</time>
      </trkpt>
      <trkpt lat="45.23327" lon="5.7453">
        <ele>972.59997558594</ele>
        <time>2021-09-11T04:49:48.000Z</time>
      </trkpt>
      <trkpt lat="45.23333" lon="5.74533">
        <ele>973.20001220703</ele>
        <time>2021-09-11T04:49:51.000Z</time>
      </trkpt>
      <trkpt lat="45.23337" lon="5.74533">
        <ele>973.40002441406</ele>
        <time>2021-09-11T04:49:53.000Z</time>
      </trkpt>
      <trkpt lat="45.23338" lon="5.74533">
        <ele>973.79998779297</ele>
        <time>2021-09-11T04:49:54.000Z</time>
      </trkpt>
      <trkpt lat="45.23341" lon="5.74533">
        <ele>974.20001220703</ele>
        <time>2021-09-11T04:49:56.000Z</time>
      </trkpt>
      <trkpt lat="45.23347" lon="5.74535">
        <ele>974.79998779297</ele>
        <time>2021-09-11T04:50:00.000Z</time>
      </trkpt>
      <trkpt lat="45.23354" lon="5.74538">
        <ele>975.40002441406</ele>
        <time>2021-09-11T04:50:04.000Z</time>
      </trkpt>
      <trkpt lat="45.23359" lon="5.74541">
        <ele>976</ele>
        <time>2021-09-11T04:50:07.000Z</time>
      </trkpt>
      <trkpt lat="45.23367" lon="5.74545">
        <ele>976.40002441406</ele>
        <time>2021-09-11T04:50:11.000Z</time>
      </trkpt>
      <trkpt lat="45.23376" lon="5.74551">
        <ele>976.79998779297</ele>
        <time>2021-09-11T04:50:15.000Z</time>
      </trkpt>
      <trkpt lat="45.23378" lon="5.74552">
        <ele>977</ele>
        <time>2021-09-11T04:50:16.000Z</time>
      </trkpt>
      <trkpt lat="45.23384" lon="5.74556">
        <ele>977.59997558594</ele>
        <time>2021-09-11T04:50:19.000Z</time>
      </trkpt>
      <trkpt lat="45.23393" lon="5.74563">
        <ele>978</ele>
        <time>2021-09-11T04:50:23.000Z</time>
      </trkpt>
      <trkpt lat="45.23398" lon="5.74567">
        <ele>978.79998779297</ele>
        <time>2021-09-11T04:50:26.000Z</time>
      </trkpt>
      <trkpt lat="45.23404" lon="5.74573">
        <ele>979.79998779297</ele>
        <time>2021-09-11T04:50:31.000Z</time>
      </trkpt>
      <trkpt lat="45.2341" lon="5.74576">
        <ele>981</ele>
        <time>2021-09-11T04:50:35.000Z</time>
      </trkpt>
      <trkpt lat="45.23412" lon="5.74577">
        <ele>981</ele>
        <time>2021-09-11T04:50:36.000Z</time>
      </trkpt>
      <trkpt lat="45.23419" lon="5.7458">
        <ele>981.40002441406</ele>
        <time>2021-09-11T04:50:40.000Z</time>
      </trkpt>
      <trkpt lat="45.23422" lon="5.74582">
        <ele>981.40002441406</ele>
        <time>2021-09-11T04:50:42.000Z</time>
      </trkpt>
      <trkpt lat="45.23425" lon="5.74582">
        <ele>982</ele>
        <time>2021-09-11T04:50:45.000Z</time>
      </trkpt>
      <trkpt lat="45.23428" lon="5.74581">
        <ele>982.40002441406</ele>
        <time>2021-09-11T04:50:47.000Z</time>
      </trkpt>
      <trkpt lat="45.2343" lon="5.74579">
        <ele>983</ele>
        <time>2021-09-11T04:50:50.000Z</time>
      </trkpt>
      <trkpt lat="45.2343" lon="5.74578">
        <ele>983.40002441406</ele>
        <time>2021-09-11T04:50:51.000Z</time>
      </trkpt>
      <trkpt lat="45.2343" lon="5.74578">
        <ele>983.79998779297</ele>
        <time>2021-09-11T04:50:52.000Z</time>
      </trkpt>
      <trkpt lat="45.23432" lon="5.74577">
        <ele>984.40002441406</ele>
        <time>2021-09-11T04:50:55.000Z</time>
      </trkpt>
      <trkpt lat="45.23436" lon="5.74576">
        <ele>985.59997558594</ele>
        <time>2021-09-11T04:50:59.000Z</time>
      </trkpt>
      <trkpt lat="45.23439" lon="5.74576">
        <ele>986.40002441406</ele>
        <time>2021-09-11T04:51:01.000Z</time>
      </trkpt>
      <trkpt lat="45.2344" lon="5.74575">
        <ele>986.40002441406</ele>
        <time>2021-09-11T04:51:02.000Z</time>
      </trkpt>
      <trkpt lat="45.2344" lon="5.74574">
        <ele>986.79998779297</ele>
        <time>2021-09-11T04:51:03.000Z</time>
      </trkpt>
      <trkpt lat="45.23441" lon="5.74573">
        <ele>987.20001220703</ele>
        <time>2021-09-11T04:51:04.000Z</time>
      </trkpt>
      <trkpt lat="45.23444" lon="5.74573">
        <ele>987.79998779297</ele>
        <time>2021-09-11T04:51:06.000Z</time>
      </trkpt>
      <trkpt lat="45.23449" lon="5.74576">
        <ele>988.79998779297</ele>
        <time>2021-09-11T04:51:10.000Z</time>
      </trkpt>
      <trkpt lat="45.23452" lon="5.74577">
        <ele>989.79998779297</ele>
        <time>2021-09-11T04:51:12.000Z</time>
      </trkpt>
      <trkpt lat="45.23452" lon="5.74577">
        <ele>990.20001220703</ele>
        <time>2021-09-11T04:51:13.000Z</time>
      </trkpt>
      <trkpt lat="45.23458" lon="5.74579">
        <ele>991.40002441406</ele>
        <time>2021-09-11T04:51:17.000Z</time>
      </trkpt>
      <trkpt lat="45.23461" lon="5.74581">
        <ele>992</ele>
        <time>2021-09-11T04:51:19.000Z</time>
      </trkpt>
      <trkpt lat="45.23463" lon="5.74582">
        <ele>992.20001220703</ele>
        <time>2021-09-11T04:51:20.000Z</time>
      </trkpt>
      <trkpt lat="45.23465" lon="5.74583">
        <ele>992.59997558594</ele>
        <time>2021-09-11T04:51:21.000Z</time>
      </trkpt>
      <trkpt lat="45.2347" lon="5.74588">
        <ele>993.40002441406</ele>
        <time>2021-09-11T04:51:24.000Z</time>
      </trkpt>
      <trkpt lat="45.23471" lon="5.74589">
        <ele>993.79998779297</ele>
        <time>2021-09-11T04:51:25.000Z</time>
      </trkpt>
      <trkpt lat="45.23474" lon="5.74594">
        <ele>994.79998779297</ele>
        <time>2021-09-11T04:51:29.000Z</time>
      </trkpt>
      <trkpt lat="45.23475" lon="5.74595">
        <ele>995</ele>
        <time>2021-09-11T04:51:30.000Z</time>
      </trkpt>
      <trkpt lat="45.23478" lon="5.746">
        <ele>995.20001220703</ele>
        <time>2021-09-11T04:51:34.000Z</time>
      </trkpt>
      <trkpt lat="45.23477" lon="5.74601">
        <ele>995.40002441406</ele>
        <time>2021-09-11T04:51:35.000Z</time>
      </trkpt>
      <trkpt lat="45.2348" lon="5.74605">
        <ele>995.59997558594</ele>
        <time>2021-09-11T04:51:37.000Z</time>
      </trkpt>
      <trkpt lat="45.23482" lon="5.7461">
        <ele>996.40002441406</ele>
        <time>2021-09-11T04:51:40.000Z</time>
      </trkpt>
      <trkpt lat="45.23483" lon="5.74611">
        <ele>996.79998779297</ele>
        <time>2021-09-11T04:51:41.000Z</time>
      </trkpt>
      <trkpt lat="45.23486" lon="5.7461">
        <ele>997.79998779297</ele>
        <time>2021-09-11T04:51:44.000Z</time>
      </trkpt>
      <trkpt lat="45.23486" lon="5.74609">
        <ele>998.20001220703</ele>
        <time>2021-09-11T04:51:45.000Z</time>
      </trkpt>
      <trkpt lat="45.23488" lon="5.74607">
        <ele>999</ele>
        <time>2021-09-11T04:51:48.000Z</time>
      </trkpt>
      <trkpt lat="45.23491" lon="5.746">
        <ele>1000</ele>
        <time>2021-09-11T04:51:52.000Z</time>
      </trkpt>
      <trkpt lat="45.23496" lon="5.74594">
        <ele>1001.200012207</ele>
        <time>2021-09-11T04:51:56.000Z</time>
      </trkpt>
      <trkpt lat="45.23498" lon="5.74589">
        <ele>1001.4000244141</ele>
        <time>2021-09-11T04:51:58.000Z</time>
      </trkpt>
      <trkpt lat="45.23501" lon="5.74581">
        <ele>1001.5999755859</ele>
        <time>2021-09-11T04:52:01.000Z</time>
      </trkpt>
      <trkpt lat="45.23501" lon="5.74577">
        <ele>1002</ele>
        <time>2021-09-11T04:52:03.000Z</time>
      </trkpt>
      <trkpt lat="45.235" lon="5.74573">
        <ele>1002.200012207</ele>
        <time>2021-09-11T04:52:05.000Z</time>
      </trkpt>
      <trkpt lat="45.23503" lon="5.74567">
        <ele>1002.5999755859</ele>
        <time>2021-09-11T04:52:08.000Z</time>
      </trkpt>
      <trkpt lat="45.23505" lon="5.74561">
        <ele>1002.799987793</ele>
        <time>2021-09-11T04:52:10.000Z</time>
      </trkpt>
      <trkpt lat="45.23505" lon="5.74558">
        <ele>1003.200012207</ele>
        <time>2021-09-11T04:52:11.000Z</time>
      </trkpt>
      <trkpt lat="45.23506" lon="5.74551">
        <ele>1004</ele>
        <time>2021-09-11T04:52:14.000Z</time>
      </trkpt>
      <trkpt lat="45.23507" lon="5.74549">
        <ele>1004.200012207</ele>
        <time>2021-09-11T04:52:15.000Z</time>
      </trkpt>
      <trkpt lat="45.23507" lon="5.74546">
        <ele>1004.4000244141</ele>
        <time>2021-09-11T04:52:16.000Z</time>
      </trkpt>
      <trkpt lat="45.23508" lon="5.7454">
        <ele>1004.799987793</ele>
        <time>2021-09-11T04:52:18.000Z</time>
      </trkpt>
      <trkpt lat="45.23513" lon="5.74522">
        <ele>1005</ele>
        <time>2021-09-11T04:52:25.000Z</time>
      </trkpt>
      <trkpt lat="45.23514" lon="5.74511">
        <ele>1005.5999755859</ele>
        <time>2021-09-11T04:52:28.000Z</time>
      </trkpt>
      <trkpt lat="45.23515" lon="5.74502">
        <ele>1006.200012207</ele>
        <time>2021-09-11T04:52:31.000Z</time>
      </trkpt>
      <trkpt lat="45.23518" lon="5.74497">
        <ele>1006.4000244141</ele>
        <time>2021-09-11T04:52:33.000Z</time>
      </trkpt>
      <trkpt lat="45.23528" lon="5.74497">
        <ele>1006.200012207</ele>
        <time>2021-09-11T04:52:37.000Z</time>
      </trkpt>
      <trkpt lat="45.23538" lon="5.74502">
        <ele>1005</ele>
        <time>2021-09-11T04:52:43.000Z</time>
      </trkpt>
      <trkpt lat="45.23541" lon="5.74503">
        <ele>1004.799987793</ele>
        <time>2021-09-11T04:52:45.000Z</time>
      </trkpt>
      <trkpt lat="45.23545" lon="5.74503">
        <ele>1004.4000244141</ele>
        <time>2021-09-11T04:52:47.000Z</time>
      </trkpt>
      <trkpt lat="45.23552" lon="5.74501">
        <ele>1003.5999755859</ele>
        <time>2021-09-11T04:52:50.000Z</time>
      </trkpt>
      <trkpt lat="45.23555" lon="5.74501">
        <ele>1003</ele>
        <time>2021-09-11T04:52:52.000Z</time>
      </trkpt>
      <trkpt lat="45.23561" lon="5.74498">
        <ele>1001.799987793</ele>
        <time>2021-09-11T04:52:56.000Z</time>
      </trkpt>
      <trkpt lat="45.23565" lon="5.74498">
        <ele>1001.200012207</ele>
        <time>2021-09-11T04:52:58.000Z</time>
      </trkpt>
      <trkpt lat="45.23568" lon="5.745">
        <ele>1001</ele>
        <time>2021-09-11T04:52:59.000Z</time>
      </trkpt>
      <trkpt lat="45.23569" lon="5.74503">
        <ele>1000.799987793</ele>
        <time>2021-09-11T04:53:02.000Z</time>
      </trkpt>
      <trkpt lat="45.23569" lon="5.74503">
        <ele>1000.5999755859</ele>
        <time>2021-09-11T04:53:04.000Z</time>
      </trkpt>
      <trkpt lat="45.23572" lon="5.74506">
        <ele>1000.200012207</ele>
        <time>2021-09-11T04:53:14.000Z</time>
      </trkpt>
      <trkpt lat="45.23575" lon="5.74509">
        <ele>1000.200012207</ele>
        <time>2021-09-11T04:53:23.000Z</time>
      </trkpt>
      <trkpt lat="45.23575" lon="5.74509">
        <ele>1000.4000244141</ele>
        <time>2021-09-11T04:53:28.000Z</time>
      </trkpt>
      <trkpt lat="45.23575" lon="5.74509">
        <ele>1000.4000244141</ele>
        <time>2021-09-11T04:53:30.000Z</time>
      </trkpt>
      <trkpt lat="45.23575" lon="5.74509">
        <ele>1000.4000244141</ele>
        <time>2021-09-11T04:53:32.000Z</time>
      </trkpt>
      <trkpt lat="45.23575" lon="5.74509">
        <ele>1000.4000244141</ele>
        <time>2021-09-11T04:53:34.000Z</time>
      </trkpt>
      <trkpt lat="45.23576" lon="5.74509">
        <ele>1000.200012207</ele>
        <time>2021-09-11T04:53:36.000Z</time>
      </trkpt>
      <trkpt lat="45.23577" lon="5.74512">
        <ele>1000</ele>
        <time>2021-09-11T04:53:38.000Z</time>
      </trkpt>
      <trkpt lat="45.2358" lon="5.74518">
        <ele>999.79998779297</ele>
        <time>2021-09-11T04:53:40.000Z</time>
      </trkpt>
      <trkpt lat="45.23583" lon="5.74522">
        <ele>999.59997558594</ele>
        <time>2021-09-11T04:53:44.000Z</time>
      </trkpt>
      <trkpt lat="45.23586" lon="5.74528">
        <ele>999.59997558594</ele>
        <time>2021-09-11T04:53:50.000Z</time>
      </trkpt>
      <trkpt lat="45.23588" lon="5.74532">
        <ele>999.20001220703</ele>
        <time>2021-09-11T04:53:52.000Z</time>
      </trkpt>
      <trkpt lat="45.23592" lon="5.74544">
        <ele>998.59997558594</ele>
        <time>2021-09-11T04:53:58.000Z</time>
      </trkpt>
      <trkpt lat="45.23593" lon="5.74546">
        <ele>998.40002441406</ele>
        <time>2021-09-11T04:53:59.000Z</time>
      </trkpt>
      <trkpt lat="45.23592" lon="5.74548">
        <ele>998.20001220703</ele>
        <time>2021-09-11T04:54:00.000Z</time>
      </trkpt>
      <trkpt lat="45.23594" lon="5.74553">
        <ele>997.79998779297</ele>
        <time>2021-09-11T04:54:02.000Z</time>
      </trkpt>
      <trkpt lat="45.23598" lon="5.7456">
        <ele>997.59997558594</ele>
        <time>2021-09-11T04:54:05.000Z</time>
      </trkpt>
      <trkpt lat="45.23599" lon="5.74562">
        <ele>997.59997558594</ele>
        <time>2021-09-11T04:54:06.000Z</time>
      </trkpt>
      <trkpt lat="45.23601" lon="5.74565">
        <ele>997.40002441406</ele>
        <time>2021-09-11T04:54:07.000Z</time>
      </trkpt>
      <trkpt lat="45.23606" lon="5.74578">
        <ele>996.20001220703</ele>
        <time>2021-09-11T04:54:12.000Z</time>
      </trkpt>
      <trkpt lat="45.23614" lon="5.74588">
        <ele>995</ele>
        <time>2021-09-11T04:54:16.000Z</time>
      </trkpt>
      <trkpt lat="45.23624" lon="5.74592">
        <ele>993.59997558594</ele>
        <time>2021-09-11T04:54:20.000Z</time>
      </trkpt>
      <trkpt lat="45.23632" lon="5.7459">
        <ele>992.40002441406</ele>
        <time>2021-09-11T04:54:24.000Z</time>
      </trkpt>
      <trkpt lat="45.23635" lon="5.7459">
        <ele>992.20001220703</ele>
        <time>2021-09-11T04:54:25.000Z</time>
      </trkpt>
      <trkpt lat="45.23642" lon="5.74588">
        <ele>991.40002441406</ele>
        <time>2021-09-11T04:54:28.000Z</time>
      </trkpt>
      <trkpt lat="45.23648" lon="5.74585">
        <ele>990.40002441406</ele>
        <time>2021-09-11T04:54:31.000Z</time>
      </trkpt>
      <trkpt lat="45.2365" lon="5.74583">
        <ele>990</ele>
        <time>2021-09-11T04:54:32.000Z</time>
      </trkpt>
      <trkpt lat="45.23657" lon="5.7458">
        <ele>989.20001220703</ele>
        <time>2021-09-11T04:54:35.000Z</time>
      </trkpt>
      <trkpt lat="45.23668" lon="5.74578">
        <ele>988.20001220703</ele>
        <time>2021-09-11T04:54:39.000Z</time>
      </trkpt>
      <trkpt lat="45.23671" lon="5.74579">
        <ele>988</ele>
        <time>2021-09-11T04:54:40.000Z</time>
      </trkpt>
      <trkpt lat="45.23684" lon="5.74579">
        <ele>986.59997558594</ele>
        <time>2021-09-11T04:54:44.000Z</time>
      </trkpt>
      <trkpt lat="45.23692" lon="5.74578">
        <ele>986</ele>
        <time>2021-09-11T04:54:47.000Z</time>
      </trkpt>
      <trkpt lat="45.23706" lon="5.74577">
        <ele>985</ele>
        <time>2021-09-11T04:54:51.000Z</time>
      </trkpt>
      <trkpt lat="45.23717" lon="5.74572">
        <ele>983.79998779297</ele>
        <time>2021-09-11T04:54:55.000Z</time>
      </trkpt>
      <trkpt lat="45.23726" lon="5.74564">
        <ele>982.59997558594</ele>
        <time>2021-09-11T04:54:59.000Z</time>
      </trkpt>
      <trkpt lat="45.23734" lon="5.74559">
        <ele>982</ele>
        <time>2021-09-11T04:55:02.000Z</time>
      </trkpt>
      <trkpt lat="45.23745" lon="5.74555">
        <ele>981.40002441406</ele>
        <time>2021-09-11T04:55:05.000Z</time>
      </trkpt>
      <trkpt lat="45.23754" lon="5.74554">
        <ele>981.20001220703</ele>
        <time>2021-09-11T04:55:08.000Z</time>
      </trkpt>
      <trkpt lat="45.23762" lon="5.74556">
        <ele>981.20001220703</ele>
        <time>2021-09-11T04:55:13.000Z</time>
      </trkpt>
      <trkpt lat="45.23776" lon="5.74564">
        <ele>980.79998779297</ele>
        <time>2021-09-11T04:55:19.000Z</time>
      </trkpt>
      <trkpt lat="45.23792" lon="5.7457">
        <ele>981.40002441406</ele>
        <time>2021-09-11T04:55:27.000Z</time>
      </trkpt>
      <trkpt lat="45.23795" lon="5.74571">
        <ele>981.59997558594</ele>
        <time>2021-09-11T04:55:28.000Z</time>
      </trkpt>
      <trkpt lat="45.23805" lon="5.74572">
        <ele>982.59997558594</ele>
        <time>2021-09-11T04:55:33.000Z</time>
      </trkpt>
      <trkpt lat="45.23808" lon="5.74573">
        <ele>983</ele>
        <time>2021-09-11T04:55:35.000Z</time>
      </trkpt>
      <trkpt lat="45.23813" lon="5.74574">
        <ele>983.79998779297</ele>
        <time>2021-09-11T04:55:38.000Z</time>
      </trkpt>
      <trkpt lat="45.23823" lon="5.74575">
        <ele>984.79998779297</ele>
        <time>2021-09-11T04:55:42.000Z</time>
      </trkpt>
      <trkpt lat="45.23825" lon="5.74575">
        <ele>985</ele>
        <time>2021-09-11T04:55:43.000Z</time>
      </trkpt>
      <trkpt lat="45.23835" lon="5.7458">
        <ele>985.79998779297</ele>
        <time>2021-09-11T04:55:47.000Z</time>
      </trkpt>
      <trkpt lat="45.23845" lon="5.74583">
        <ele>986.79998779297</ele>
        <time>2021-09-11T04:55:51.000Z</time>
      </trkpt>
      <trkpt lat="45.23847" lon="5.74584">
        <ele>987</ele>
        <time>2021-09-11T04:55:52.000Z</time>
      </trkpt>
      <trkpt lat="45.23855" lon="5.74582">
        <ele>988.20001220703</ele>
        <time>2021-09-11T04:55:58.000Z</time>
      </trkpt>
      <trkpt lat="45.23865" lon="5.74582">
        <ele>989.20001220703</ele>
        <time>2021-09-11T04:56:03.000Z</time>
      </trkpt>
      <trkpt lat="45.23869" lon="5.74583">
        <ele>989.79998779297</ele>
        <time>2021-09-11T04:56:05.000Z</time>
      </trkpt>
      <trkpt lat="45.23877" lon="5.74584">
        <ele>990.40002441406</ele>
        <time>2021-09-11T04:56:08.000Z</time>
      </trkpt>
      <trkpt lat="45.23884" lon="5.74585">
        <ele>991.20001220703</ele>
        <time>2021-09-11T04:56:11.000Z</time>
      </trkpt>
      <trkpt lat="45.23885" lon="5.74585">
        <ele>991.40002441406</ele>
        <time>2021-09-11T04:56:12.000Z</time>
      </trkpt>
      <trkpt lat="45.23887" lon="5.74586">
        <ele>991.59997558594</ele>
        <time>2021-09-11T04:56:13.000Z</time>
      </trkpt>
      <trkpt lat="45.23894" lon="5.74587">
        <ele>992</ele>
        <time>2021-09-11T04:56:16.000Z</time>
      </trkpt>
      <trkpt lat="45.23899" lon="5.74586">
        <ele>992.59997558594</ele>
        <time>2021-09-11T04:56:19.000Z</time>
      </trkpt>
      <trkpt lat="45.23902" lon="5.74587">
        <ele>993</ele>
        <time>2021-09-11T04:56:20.000Z</time>
      </trkpt>
      <trkpt lat="45.23908" lon="5.7459">
        <ele>993.79998779297</ele>
        <time>2021-09-11T04:56:23.000Z</time>
      </trkpt>
      <trkpt lat="45.2391" lon="5.7459">
        <ele>994</ele>
        <time>2021-09-11T04:56:24.000Z</time>
      </trkpt>
      <trkpt lat="45.23914" lon="5.7459">
        <ele>994.40002441406</ele>
        <time>2021-09-11T04:56:26.000Z</time>
      </trkpt>
      <trkpt lat="45.23915" lon="5.7459">
        <ele>994.79998779297</ele>
        <time>2021-09-11T04:56:27.000Z</time>
      </trkpt>
      <trkpt lat="45.23918" lon="5.7459">
        <ele>995</ele>
        <time>2021-09-11T04:56:28.000Z</time>
      </trkpt>
      <trkpt lat="45.23919" lon="5.7459">
        <ele>995</ele>
        <time>2021-09-11T04:56:29.000Z</time>
      </trkpt>
      <trkpt lat="45.23928" lon="5.74594">
        <ele>996</ele>
        <time>2021-09-11T04:56:34.000Z</time>
      </trkpt>
      <trkpt lat="45.23932" lon="5.74595">
        <ele>996.40002441406</ele>
        <time>2021-09-11T04:56:36.000Z</time>
      </trkpt>
      <trkpt lat="45.23937" lon="5.74599">
        <ele>997</ele>
        <time>2021-09-11T04:56:40.000Z</time>
      </trkpt>
      <trkpt lat="45.2394" lon="5.74602">
        <ele>997.20001220703</ele>
        <time>2021-09-11T04:56:42.000Z</time>
      </trkpt>
      <trkpt lat="45.23948" lon="5.74607">
        <ele>998</ele>
        <time>2021-09-11T04:56:46.000Z</time>
      </trkpt>
      <trkpt lat="45.23951" lon="5.74609">
        <ele>998.20001220703</ele>
        <time>2021-09-11T04:56:48.000Z</time>
      </trkpt>
      <trkpt lat="45.23958" lon="5.74612">
        <ele>999</ele>
        <time>2021-09-11T04:56:53.000Z</time>
      </trkpt>
      <trkpt lat="45.23963" lon="5.74614">
        <ele>999.59997558594</ele>
        <time>2021-09-11T04:56:55.000Z</time>
      </trkpt>
      <trkpt lat="45.23969" lon="5.74616">
        <ele>1000.200012207</ele>
        <time>2021-09-11T04:56:59.000Z</time>
      </trkpt>
      <trkpt lat="45.2397" lon="5.74615">
        <ele>1000.5999755859</ele>
        <time>2021-09-11T04:57:01.000Z</time>
      </trkpt>
      <trkpt lat="45.23969" lon="5.74614">
        <ele>1000.5999755859</ele>
        <time>2021-09-11T04:57:02.000Z</time>
      </trkpt>
      <trkpt lat="45.23969" lon="5.74607">
        <ele>1001.200012207</ele>
        <time>2021-09-11T04:57:06.000Z</time>
      </trkpt>
      <trkpt lat="45.23967" lon="5.74603">
        <ele>1001.799987793</ele>
        <time>2021-09-11T04:57:09.000Z</time>
      </trkpt>
      <trkpt lat="45.23965" lon="5.74601">
        <ele>1002.4000244141</ele>
        <time>2021-09-11T04:57:11.000Z</time>
      </trkpt>
      <trkpt lat="45.23964" lon="5.74599">
        <ele>1002.4000244141</ele>
        <time>2021-09-11T04:57:12.000Z</time>
      </trkpt>
      <trkpt lat="45.23961" lon="5.74594">
        <ele>1003</ele>
        <time>2021-09-11T04:57:15.000Z</time>
      </trkpt>
      <trkpt lat="45.23955" lon="5.74588">
        <ele>1003.4000244141</ele>
        <time>2021-09-11T04:57:19.000Z</time>
      </trkpt>
      <trkpt lat="45.23952" lon="5.74585">
        <ele>1003.5999755859</ele>
        <time>2021-09-11T04:57:21.000Z</time>
      </trkpt>
      <trkpt lat="45.23946" lon="5.74578">
        <ele>1004.5999755859</ele>
        <time>2021-09-11T04:57:25.000Z</time>
      </trkpt>
      <trkpt lat="45.23942" lon="5.74574">
        <ele>1005</ele>
        <time>2021-09-11T04:57:28.000Z</time>
      </trkpt>
      <trkpt lat="45.23938" lon="5.74566">
        <ele>1005.799987793</ele>
        <time>2021-09-11T04:57:31.000Z</time>
      </trkpt>
      <trkpt lat="45.23937" lon="5.74558">
        <ele>1006.200012207</ele>
        <time>2021-09-11T04:57:33.000Z</time>
      </trkpt>
      <trkpt lat="45.23937" lon="5.74553">
        <ele>1006.4000244141</ele>
        <time>2021-09-11T04:57:34.000Z</time>
      </trkpt>
      <trkpt lat="45.23936" lon="5.74546">
        <ele>1007</ele>
        <time>2021-09-11T04:57:36.000Z</time>
      </trkpt>
      <trkpt lat="45.23936" lon="5.74534">
        <ele>1007.799987793</ele>
        <time>2021-09-11T04:57:40.000Z</time>
      </trkpt>
      <trkpt lat="45.23937" lon="5.74532">
        <ele>1008</ele>
        <time>2021-09-11T04:57:41.000Z</time>
      </trkpt>
      <trkpt lat="45.23938" lon="5.74529">
        <ele>1008.200012207</ele>
        <time>2021-09-11T04:57:42.000Z</time>
      </trkpt>
      <trkpt lat="45.2394" lon="5.74524">
        <ele>1008.4000244141</ele>
        <time>2021-09-11T04:57:44.000Z</time>
      </trkpt>
      <trkpt lat="45.23941" lon="5.74519">
        <ele>1009</ele>
        <time>2021-09-11T04:57:46.000Z</time>
      </trkpt>
      <trkpt lat="45.23942" lon="5.74516">
        <ele>1009.200012207</ele>
        <time>2021-09-11T04:57:47.000Z</time>
      </trkpt>
      <trkpt lat="45.23943" lon="5.74513">
        <ele>1009.200012207</ele>
        <time>2021-09-11T04:57:48.000Z</time>
      </trkpt>
      <trkpt lat="45.23946" lon="5.74506">
        <ele>1009.4000244141</ele>
        <time>2021-09-11T04:57:51.000Z</time>
      </trkpt>
      <trkpt lat="45.23956" lon="5.74498">
        <ele>1010.4000244141</ele>
        <time>2021-09-11T04:57:55.000Z</time>
      </trkpt>
      <trkpt lat="45.23962" lon="5.74493">
        <ele>1011</ele>
        <time>2021-09-11T04:57:58.000Z</time>
      </trkpt>
      <trkpt lat="45.23965" lon="5.74488">
        <ele>1011.4000244141</ele>
        <time>2021-09-11T04:58:00.000Z</time>
      </trkpt>
      <trkpt lat="45.23965" lon="5.74485">
        <ele>1011.5999755859</ele>
        <time>2021-09-11T04:58:01.000Z</time>
      </trkpt>
      <trkpt lat="45.23967" lon="5.74482">
        <ele>1011.799987793</ele>
        <time>2021-09-11T04:58:03.000Z</time>
      </trkpt>
      <trkpt lat="45.23976" lon="5.74474">
        <ele>1012.4000244141</ele>
        <time>2021-09-11T04:58:08.000Z</time>
      </trkpt>
      <trkpt lat="45.23976" lon="5.74471">
        <ele>1012.5999755859</ele>
        <time>2021-09-11T04:58:09.000Z</time>
      </trkpt>
      <trkpt lat="45.23977" lon="5.74468">
        <ele>1013</ele>
        <time>2021-09-11T04:58:10.000Z</time>
      </trkpt>
      <trkpt lat="45.23984" lon="5.7446">
        <ele>1013.799987793</ele>
        <time>2021-09-11T04:58:14.000Z</time>
      </trkpt>
      <trkpt lat="45.23996" lon="5.74447">
        <ele>1014.799987793</ele>
        <time>2021-09-11T04:58:20.000Z</time>
      </trkpt>
      <trkpt lat="45.23999" lon="5.74446">
        <ele>1014.799987793</ele>
        <time>2021-09-11T04:58:21.000Z</time>
      </trkpt>
      <trkpt lat="45.24004" lon="5.7444">
        <ele>1015.4000244141</ele>
        <time>2021-09-11T04:58:24.000Z</time>
      </trkpt>
      <trkpt lat="45.24008" lon="5.74432">
        <ele>1015.5999755859</ele>
        <time>2021-09-11T04:58:27.000Z</time>
      </trkpt>
      <trkpt lat="45.24013" lon="5.74429">
        <ele>1015.799987793</ele>
        <time>2021-09-11T04:58:29.000Z</time>
      </trkpt>
      <trkpt lat="45.24017" lon="5.74424">
        <ele>1016</ele>
        <time>2021-09-11T04:58:31.000Z</time>
      </trkpt>
      <trkpt lat="45.24022" lon="5.74417">
        <ele>1016.200012207</ele>
        <time>2021-09-11T04:58:34.000Z</time>
      </trkpt>
      <trkpt lat="45.24029" lon="5.74409">
        <ele>1016.5999755859</ele>
        <time>2021-09-11T04:58:37.000Z</time>
      </trkpt>
      <trkpt lat="45.24034" lon="5.74399">
        <ele>1017</ele>
        <time>2021-09-11T04:58:40.000Z</time>
      </trkpt>
      <trkpt lat="45.2404" lon="5.74391">
        <ele>1017.5999755859</ele>
        <time>2021-09-11T04:58:43.000Z</time>
      </trkpt>
      <trkpt lat="45.24045" lon="5.74385">
        <ele>1018</ele>
        <time>2021-09-11T04:58:46.000Z</time>
      </trkpt>
      <trkpt lat="45.24049" lon="5.74377">
        <ele>1018.799987793</ele>
        <time>2021-09-11T04:58:49.000Z</time>
      </trkpt>
      <trkpt lat="45.24051" lon="5.74373">
        <ele>1019.200012207</ele>
        <time>2021-09-11T04:58:51.000Z</time>
      </trkpt>
      <trkpt lat="45.24062" lon="5.74368">
        <ele>1020</ele>
        <time>2021-09-11T04:58:56.000Z</time>
      </trkpt>
      <trkpt lat="45.2407" lon="5.74373">
        <ele>1020.4000244141</ele>
        <time>2021-09-11T04:58:58.000Z</time>
      </trkpt>
      <trkpt lat="45.24073" lon="5.74378">
        <ele>1020.799987793</ele>
        <time>2021-09-11T04:59:00.000Z</time>
      </trkpt>
      <trkpt lat="45.24075" lon="5.74385">
        <ele>1021.5999755859</ele>
        <time>2021-09-11T04:59:03.000Z</time>
      </trkpt>
      <trkpt lat="45.24074" lon="5.74392">
        <ele>1022.200012207</ele>
        <time>2021-09-11T04:59:06.000Z</time>
      </trkpt>
      <trkpt lat="45.24074" lon="5.74394">
        <ele>1022.799987793</ele>
        <time>2021-09-11T04:59:07.000Z</time>
      </trkpt>
      <trkpt lat="45.24075" lon="5.74405">
        <ele>1023.799987793</ele>
        <time>2021-09-11T04:59:11.000Z</time>
      </trkpt>
      <trkpt lat="45.24075" lon="5.74408">
        <ele>1024</ele>
        <time>2021-09-11T04:59:12.000Z</time>
      </trkpt>
      <trkpt lat="45.24075" lon="5.7441">
        <ele>1024</ele>
        <time>2021-09-11T04:59:13.000Z</time>
      </trkpt>
      <trkpt lat="45.24071" lon="5.74415">
        <ele>1024.5999755859</ele>
        <time>2021-09-11T04:59:16.000Z</time>
      </trkpt>
      <trkpt lat="45.24071" lon="5.74418">
        <ele>1024.8000488281</ele>
        <time>2021-09-11T04:59:17.000Z</time>
      </trkpt>
      <trkpt lat="45.2407" lon="5.74429">
        <ele>1026.1999511719</ele>
        <time>2021-09-11T04:59:22.000Z</time>
      </trkpt>
      <trkpt lat="45.2407" lon="5.74432">
        <ele>1026.4000244141</ele>
        <time>2021-09-11T04:59:23.000Z</time>
      </trkpt>
      <trkpt lat="45.24069" lon="5.74437">
        <ele>1026.5999755859</ele>
        <time>2021-09-11T04:59:25.000Z</time>
      </trkpt>
      <trkpt lat="45.2407" lon="5.74442">
        <ele>1027.1999511719</ele>
        <time>2021-09-11T04:59:27.000Z</time>
      </trkpt>
      <trkpt lat="45.24071" lon="5.74445">
        <ele>1027.4000244141</ele>
        <time>2021-09-11T04:59:28.000Z</time>
      </trkpt>
      <trkpt lat="45.24078" lon="5.74452">
        <ele>1028.1999511719</ele>
        <time>2021-09-11T04:59:32.000Z</time>
      </trkpt>
      <trkpt lat="45.24083" lon="5.74452">
        <ele>1028.5999755859</ele>
        <time>2021-09-11T04:59:36.000Z</time>
      </trkpt>
      <trkpt lat="45.24085" lon="5.7445">
        <ele>1029.1999511719</ele>
        <time>2021-09-11T04:59:39.000Z</time>
      </trkpt>
      <trkpt lat="45.24087" lon="5.74446">
        <ele>1029.5999755859</ele>
        <time>2021-09-11T04:59:42.000Z</time>
      </trkpt>
      <trkpt lat="45.24087" lon="5.74442">
        <ele>1030.1999511719</ele>
        <time>2021-09-11T04:59:44.000Z</time>
      </trkpt>
      <trkpt lat="45.24087" lon="5.74439">
        <ele>1030.5999755859</ele>
        <time>2021-09-11T04:59:45.000Z</time>
      </trkpt>
      <trkpt lat="45.24088" lon="5.74432">
        <ele>1031.4000244141</ele>
        <time>2021-09-11T04:59:48.000Z</time>
      </trkpt>
      <trkpt lat="45.24088" lon="5.74431">
        <ele>1031.5999755859</ele>
        <time>2021-09-11T04:59:49.000Z</time>
      </trkpt>
      <trkpt lat="45.24089" lon="5.74427">
        <ele>1032.1999511719</ele>
        <time>2021-09-11T04:59:51.000Z</time>
      </trkpt>
      <trkpt lat="45.24089" lon="5.74422">
        <ele>1033</ele>
        <time>2021-09-11T04:59:53.000Z</time>
      </trkpt>
      <trkpt lat="45.24089" lon="5.7442">
        <ele>1033.4000244141</ele>
        <time>2021-09-11T04:59:54.000Z</time>
      </trkpt>
      <trkpt lat="45.24089" lon="5.74416">
        <ele>1034.1999511719</ele>
        <time>2021-09-11T04:59:57.000Z</time>
      </trkpt>
      <trkpt lat="45.2409" lon="5.74414">
        <ele>1034.5999755859</ele>
        <time>2021-09-11T04:59:59.000Z</time>
      </trkpt>
      <trkpt lat="45.24094" lon="5.74408">
        <ele>1035.4000244141</ele>
        <time>2021-09-11T05:00:02.000Z</time>
      </trkpt>
      <trkpt lat="45.24095" lon="5.74406">
        <ele>1035.5999755859</ele>
        <time>2021-09-11T05:00:03.000Z</time>
      </trkpt>
      <trkpt lat="45.24098" lon="5.74401">
        <ele>1036.4000244141</ele>
        <time>2021-09-11T05:00:06.000Z</time>
      </trkpt>
      <trkpt lat="45.24098" lon="5.74398">
        <ele>1036.8000488281</ele>
        <time>2021-09-11T05:00:07.000Z</time>
      </trkpt>
      <trkpt lat="45.241" lon="5.74396">
        <ele>1037</ele>
        <time>2021-09-11T05:00:08.000Z</time>
      </trkpt>
      <trkpt lat="45.24105" lon="5.74392">
        <ele>1037.8000488281</ele>
        <time>2021-09-11T05:00:11.000Z</time>
      </trkpt>
      <trkpt lat="45.24108" lon="5.74389">
        <ele>1038.4000244141</ele>
        <time>2021-09-11T05:00:13.000Z</time>
      </trkpt>
      <trkpt lat="45.2411" lon="5.74385">
        <ele>1038.8000488281</ele>
        <time>2021-09-11T05:00:15.000Z</time>
      </trkpt>
      <trkpt lat="45.24112" lon="5.74384">
        <ele>1039</ele>
        <time>2021-09-11T05:00:16.000Z</time>
      </trkpt>
      <trkpt lat="45.24117" lon="5.74384">
        <ele>1039.5999755859</ele>
        <time>2021-09-11T05:00:18.000Z</time>
      </trkpt>
      <trkpt lat="45.2412" lon="5.74384">
        <ele>1040</ele>
        <time>2021-09-11T05:00:19.000Z</time>
      </trkpt>
      <trkpt lat="45.24126" lon="5.74385">
        <ele>1040.8000488281</ele>
        <time>2021-09-11T05:00:22.000Z</time>
      </trkpt>
      <trkpt lat="45.24127" lon="5.74386">
        <ele>1041.1999511719</ele>
        <time>2021-09-11T05:00:23.000Z</time>
      </trkpt>
      <trkpt lat="45.24126" lon="5.7439">
        <ele>1041.8000488281</ele>
        <time>2021-09-11T05:00:26.000Z</time>
      </trkpt>
      <trkpt lat="45.24125" lon="5.7439">
        <ele>1041.8000488281</ele>
        <time>2021-09-11T05:00:27.000Z</time>
      </trkpt>
      <trkpt lat="45.24124" lon="5.74391">
        <ele>1042.1999511719</ele>
        <time>2021-09-11T05:00:29.000Z</time>
      </trkpt>
      <trkpt lat="45.24125" lon="5.74394">
        <ele>1042.5999755859</ele>
        <time>2021-09-11T05:00:31.000Z</time>
      </trkpt>
      <trkpt lat="45.24125" lon="5.74393">
        <ele>1043.4000244141</ele>
        <time>2021-09-11T05:00:34.000Z</time>
      </trkpt>
      <trkpt lat="45.24126" lon="5.74394">
        <ele>1043.5999755859</ele>
        <time>2021-09-11T05:00:35.000Z</time>
      </trkpt>
      <trkpt lat="45.24128" lon="5.74395">
        <ele>1044.4000244141</ele>
        <time>2021-09-11T05:00:37.000Z</time>
      </trkpt>
      <trkpt lat="45.24129" lon="5.74399">
        <ele>1045.1999511719</ele>
        <time>2021-09-11T05:00:40.000Z</time>
      </trkpt>
      <trkpt lat="45.2413" lon="5.74401">
        <ele>1045.4000244141</ele>
        <time>2021-09-11T05:00:41.000Z</time>
      </trkpt>
      <trkpt lat="45.2413" lon="5.74401">
        <ele>1045.5999755859</ele>
        <time>2021-09-11T05:00:42.000Z</time>
      </trkpt>
      <trkpt lat="45.24131" lon="5.74403">
        <ele>1046</ele>
        <time>2021-09-11T05:00:44.000Z</time>
      </trkpt>
      <trkpt lat="45.24132" lon="5.74403">
        <ele>1046.5999755859</ele>
        <time>2021-09-11T05:00:46.000Z</time>
      </trkpt>
      <trkpt lat="45.24133" lon="5.74403">
        <ele>1046.8000488281</ele>
        <time>2021-09-11T05:00:47.000Z</time>
      </trkpt>
      <trkpt lat="45.24133" lon="5.74403">
        <ele>1047</ele>
        <time>2021-09-11T05:00:48.000Z</time>
      </trkpt>
      <trkpt lat="45.24135" lon="5.74402">
        <ele>1047.8000488281</ele>
        <time>2021-09-11T05:00:51.000Z</time>
      </trkpt>
      <trkpt lat="45.24135" lon="5.74402">
        <ele>1048</ele>
        <time>2021-09-11T05:00:52.000Z</time>
      </trkpt>
      <trkpt lat="45.24135" lon="5.74402">
        <ele>1048.1999511719</ele>
        <time>2021-09-11T05:00:53.000Z</time>
      </trkpt>
      <trkpt lat="45.24135" lon="5.74399">
        <ele>1048.5999755859</ele>
        <time>2021-09-11T05:00:56.000Z</time>
      </trkpt>
      <trkpt lat="45.24138" lon="5.74399">
        <ele>1048.8000488281</ele>
        <time>2021-09-11T05:00:59.000Z</time>
      </trkpt>
      <trkpt lat="45.24138" lon="5.74399">
        <ele>1048.8000488281</ele>
        <time>2021-09-11T05:01:00.000Z</time>
      </trkpt>
      <trkpt lat="45.24138" lon="5.74399">
        <ele>1048.8000488281</ele>
        <time>2021-09-11T05:01:01.000Z</time>
      </trkpt>
      <trkpt lat="45.24137" lon="5.74399">
        <ele>1048.8000488281</ele>
        <time>2021-09-11T05:01:04.000Z</time>
      </trkpt>
      <trkpt lat="45.24142" lon="5.74402">
        <ele>1048.5999755859</ele>
        <time>2021-09-11T05:01:09.000Z</time>
      </trkpt>
      <trkpt lat="45.24147" lon="5.74404">
        <ele>1047.4000244141</ele>
        <time>2021-09-11T05:01:14.000Z</time>
      </trkpt>
      <trkpt lat="45.2415" lon="5.74403">
        <ele>1046.5999755859</ele>
        <time>2021-09-11T05:01:17.000Z</time>
      </trkpt>
      <trkpt lat="45.2415" lon="5.74402">
        <ele>1046.4000244141</ele>
        <time>2021-09-11T05:01:18.000Z</time>
      </trkpt>
      <trkpt lat="45.24152" lon="5.74401">
        <ele>1046</ele>
        <time>2021-09-11T05:01:21.000Z</time>
      </trkpt>
      <trkpt lat="45.24153" lon="5.74402">
        <ele>1045.8000488281</ele>
        <time>2021-09-11T05:01:23.000Z</time>
      </trkpt>
      <trkpt lat="45.24155" lon="5.74401">
        <ele>1045.5999755859</ele>
        <time>2021-09-11T05:01:25.000Z</time>
      </trkpt>
      <trkpt lat="45.24155" lon="5.74399">
        <ele>1045.1999511719</ele>
        <time>2021-09-11T05:01:26.000Z</time>
      </trkpt>
      <trkpt lat="45.24155" lon="5.74397">
        <ele>1045</ele>
        <time>2021-09-11T05:01:27.000Z</time>
      </trkpt>
      <trkpt lat="45.24156" lon="5.74392">
        <ele>1044.5999755859</ele>
        <time>2021-09-11T05:01:29.000Z</time>
      </trkpt>
      <trkpt lat="45.24157" lon="5.7439">
        <ele>1044.4000244141</ele>
        <time>2021-09-11T05:01:30.000Z</time>
      </trkpt>
      <trkpt lat="45.24158" lon="5.74388">
        <ele>1044.1999511719</ele>
        <time>2021-09-11T05:01:31.000Z</time>
      </trkpt>
      <trkpt lat="45.24158" lon="5.74387">
        <ele>1044.1999511719</ele>
        <time>2021-09-11T05:01:32.000Z</time>
      </trkpt>
      <trkpt lat="45.24157" lon="5.74383">
        <ele>1044</ele>
        <time>2021-09-11T05:01:35.000Z</time>
      </trkpt>
      <trkpt lat="45.24153" lon="5.74384">
        <ele>1043.8000488281</ele>
        <time>2021-09-11T05:01:39.000Z</time>
      </trkpt>
      <trkpt lat="45.24152" lon="5.74384">
        <ele>1043.8000488281</ele>
        <time>2021-09-11T05:01:40.000Z</time>
      </trkpt>
      <trkpt lat="45.2415" lon="5.74386">
        <ele>1043.1999511719</ele>
        <time>2021-09-11T05:01:42.000Z</time>
      </trkpt>
      <trkpt lat="45.24144" lon="5.74388">
        <ele>1042.4000244141</ele>
        <time>2021-09-11T05:01:45.000Z</time>
      </trkpt>
      <trkpt lat="45.24143" lon="5.74388">
        <ele>1042.1999511719</ele>
        <time>2021-09-11T05:01:46.000Z</time>
      </trkpt>
      <trkpt lat="45.24132" lon="5.74388">
        <ele>1041.1999511719</ele>
        <time>2021-09-11T05:01:50.000Z</time>
      </trkpt>
      <trkpt lat="45.24125" lon="5.74387">
        <ele>1040</ele>
        <time>2021-09-11T05:01:54.000Z</time>
      </trkpt>
      <trkpt lat="45.24121" lon="5.74387">
        <ele>1039.1999511719</ele>
        <time>2021-09-11T05:01:56.000Z</time>
      </trkpt>
      <trkpt lat="45.2412" lon="5.74388">
        <ele>1039</ele>
        <time>2021-09-11T05:01:57.000Z</time>
      </trkpt>
      <trkpt lat="45.24117" lon="5.74393">
        <ele>1038.4000244141</ele>
        <time>2021-09-11T05:02:00.000Z</time>
      </trkpt>
      <trkpt lat="45.24115" lon="5.74394">
        <ele>1038</ele>
        <time>2021-09-11T05:02:01.000Z</time>
      </trkpt>
      <trkpt lat="45.24113" lon="5.74395">
        <ele>1037.5999755859</ele>
        <time>2021-09-11T05:02:02.000Z</time>
      </trkpt>
      <trkpt lat="45.2411" lon="5.74397">
        <ele>1037</ele>
        <time>2021-09-11T05:02:04.000Z</time>
      </trkpt>
      <trkpt lat="45.24109" lon="5.74399">
        <ele>1036.1999511719</ele>
        <time>2021-09-11T05:02:05.000Z</time>
      </trkpt>
      <trkpt lat="45.24107" lon="5.744">
        <ele>1035.8000488281</ele>
        <time>2021-09-11T05:02:06.000Z</time>
      </trkpt>
      <trkpt lat="45.24106" lon="5.74401">
        <ele>1035.5999755859</ele>
        <time>2021-09-11T05:02:07.000Z</time>
      </trkpt>
      <trkpt lat="45.24104" lon="5.74406">
        <ele>1034.8000488281</ele>
        <time>2021-09-11T05:02:09.000Z</time>
      </trkpt>
      <trkpt lat="45.24102" lon="5.74409">
        <ele>1034.4000244141</ele>
        <time>2021-09-11T05:02:10.000Z</time>
      </trkpt>
      <trkpt lat="45.24102" lon="5.74412">
        <ele>1034</ele>
        <time>2021-09-11T05:02:11.000Z</time>
      </trkpt>
      <trkpt lat="45.241" lon="5.74414">
        <ele>1033.5999755859</ele>
        <time>2021-09-11T05:02:12.000Z</time>
      </trkpt>
      <trkpt lat="45.241" lon="5.74417">
        <ele>1033.4000244141</ele>
        <time>2021-09-11T05:02:13.000Z</time>
      </trkpt>
      <trkpt lat="45.24099" lon="5.74419">
        <ele>1033</ele>
        <time>2021-09-11T05:02:14.000Z</time>
      </trkpt>
      <trkpt lat="45.24098" lon="5.74423">
        <ele>1032.1999511719</ele>
        <time>2021-09-11T05:02:16.000Z</time>
      </trkpt>
      <trkpt lat="45.24094" lon="5.74432">
        <ele>1031.1999511719</ele>
        <time>2021-09-11T05:02:19.000Z</time>
      </trkpt>
      <trkpt lat="45.2409" lon="5.74437">
        <ele>1030.4000244141</ele>
        <time>2021-09-11T05:02:21.000Z</time>
      </trkpt>
      <trkpt lat="45.24087" lon="5.74439">
        <ele>1030</ele>
        <time>2021-09-11T05:02:22.000Z</time>
      </trkpt>
      <trkpt lat="45.24082" lon="5.74442">
        <ele>1029</ele>
        <time>2021-09-11T05:02:25.000Z</time>
      </trkpt>
      <trkpt lat="45.2408" lon="5.74445">
        <ele>1028.1999511719</ele>
        <time>2021-09-11T05:02:27.000Z</time>
      </trkpt>
      <trkpt lat="45.24079" lon="5.74447">
        <ele>1028.1999511719</ele>
        <time>2021-09-11T05:02:28.000Z</time>
      </trkpt>
      <trkpt lat="45.24076" lon="5.74448">
        <ele>1027.8000488281</ele>
        <time>2021-09-11T05:02:30.000Z</time>
      </trkpt>
      <trkpt lat="45.24073" lon="5.74448">
        <ele>1027.8000488281</ele>
        <time>2021-09-11T05:02:31.000Z</time>
      </trkpt>
      <trkpt lat="45.24072" lon="5.74447">
        <ele>1027.5999755859</ele>
        <time>2021-09-11T05:02:32.000Z</time>
      </trkpt>
      <trkpt lat="45.24068" lon="5.74442">
        <ele>1027</ele>
        <time>2021-09-11T05:02:35.000Z</time>
      </trkpt>
      <trkpt lat="45.24067" lon="5.74439">
        <ele>1026.8000488281</ele>
        <time>2021-09-11T05:02:36.000Z</time>
      </trkpt>
      <trkpt lat="45.24064" lon="5.74429">
        <ele>1025.5999755859</ele>
        <time>2021-09-11T05:02:39.000Z</time>
      </trkpt>
      <trkpt lat="45.24063" lon="5.74424">
        <ele>1025.1999511719</ele>
        <time>2021-09-11T05:02:40.000Z</time>
      </trkpt>
      <trkpt lat="45.24062" lon="5.74414">
        <ele>1024.5999755859</ele>
        <time>2021-09-11T05:02:43.000Z</time>
      </trkpt>
      <trkpt lat="45.24063" lon="5.74406">
        <ele>1023.4000244141</ele>
        <time>2021-09-11T05:02:46.000Z</time>
      </trkpt>
      <trkpt lat="45.24064" lon="5.74396">
        <ele>1022.200012207</ele>
        <time>2021-09-11T05:02:49.000Z</time>
      </trkpt>
      <trkpt lat="45.24065" lon="5.74388">
        <ele>1021.799987793</ele>
        <time>2021-09-11T05:02:52.000Z</time>
      </trkpt>
      <trkpt lat="45.24063" lon="5.74382">
        <ele>1021.200012207</ele>
        <time>2021-09-11T05:02:55.000Z</time>
      </trkpt>
      <trkpt lat="45.24063" lon="5.74379">
        <ele>1021</ele>
        <time>2021-09-11T05:02:56.000Z</time>
      </trkpt>
      <trkpt lat="45.24065" lon="5.74371">
        <ele>1020.799987793</ele>
        <time>2021-09-11T05:02:58.000Z</time>
      </trkpt>
      <trkpt lat="45.24066" lon="5.74367">
        <ele>1020.799987793</ele>
        <time>2021-09-11T05:02:59.000Z</time>
      </trkpt>
      <trkpt lat="45.24073" lon="5.74361">
        <ele>1021</ele>
        <time>2021-09-11T05:03:02.000Z</time>
      </trkpt>
      <trkpt lat="45.24084" lon="5.74349">
        <ele>1020.200012207</ele>
        <time>2021-09-11T05:03:08.000Z</time>
      </trkpt>
      <trkpt lat="45.24089" lon="5.74346">
        <ele>1019.799987793</ele>
        <time>2021-09-11T05:03:10.000Z</time>
      </trkpt>
      <trkpt lat="45.24093" lon="5.74341">
        <ele>1019.5999755859</ele>
        <time>2021-09-11T05:03:12.000Z</time>
      </trkpt>
      <trkpt lat="45.24095" lon="5.74339">
        <ele>1019.5999755859</ele>
        <time>2021-09-11T05:03:13.000Z</time>
      </trkpt>
      <trkpt lat="45.24097" lon="5.74336">
        <ele>1019.5999755859</ele>
        <time>2021-09-11T05:03:14.000Z</time>
      </trkpt>
      <trkpt lat="45.24114" lon="5.74335">
        <ele>1019.799987793</ele>
        <time>2021-09-11T05:03:19.000Z</time>
      </trkpt>
      <trkpt lat="45.24125" lon="5.7433">
        <ele>1019.799987793</ele>
        <time>2021-09-11T05:03:24.000Z</time>
      </trkpt>
      <trkpt lat="45.24126" lon="5.7433">
        <ele>1020</ele>
        <time>2021-09-11T05:03:25.000Z</time>
      </trkpt>
      <trkpt lat="45.24128" lon="5.7433">
        <ele>1020.200012207</ele>
        <time>2021-09-11T05:03:27.000Z</time>
      </trkpt>
      <trkpt lat="45.24128" lon="5.7433">
        <ele>1020.4000244141</ele>
        <time>2021-09-11T05:03:28.000Z</time>
      </trkpt>
      <trkpt lat="45.24129" lon="5.7433">
        <ele>1020.5999755859</ele>
        <time>2021-09-11T05:03:30.000Z</time>
      </trkpt>
      <trkpt lat="45.24131" lon="5.74327">
        <ele>1020.5999755859</ele>
        <time>2021-09-11T05:03:33.000Z</time>
      </trkpt>
      <trkpt lat="45.24138" lon="5.74326">
        <ele>1019.799987793</ele>
        <time>2021-09-11T05:03:38.000Z</time>
      </trkpt>
      <trkpt lat="45.24139" lon="5.74326">
        <ele>1019.799987793</ele>
        <time>2021-09-11T05:03:39.000Z</time>
      </trkpt>
      <trkpt lat="45.24142" lon="5.74328">
        <ele>1019.5999755859</ele>
        <time>2021-09-11T05:03:42.000Z</time>
      </trkpt>
      <trkpt lat="45.24144" lon="5.74326">
        <ele>1019.5999755859</ele>
        <time>2021-09-11T05:03:44.000Z</time>
      </trkpt>
      <trkpt lat="45.24145" lon="5.74325">
        <ele>1019.4000244141</ele>
        <time>2021-09-11T05:03:45.000Z</time>
      </trkpt>
      <trkpt lat="45.24145" lon="5.74323">
        <ele>1019.200012207</ele>
        <time>2021-09-11T05:03:46.000Z</time>
      </trkpt>
      <trkpt lat="45.24148" lon="5.74323">
        <ele>1018.799987793</ele>
        <time>2021-09-11T05:03:48.000Z</time>
      </trkpt>
      <trkpt lat="45.24149" lon="5.74322">
        <ele>1018.5999755859</ele>
        <time>2021-09-11T05:03:49.000Z</time>
      </trkpt>
      <trkpt lat="45.24153" lon="5.74322">
        <ele>1017.799987793</ele>
        <time>2021-09-11T05:03:52.000Z</time>
      </trkpt>
      <trkpt lat="45.24155" lon="5.74322">
        <ele>1017.799987793</ele>
        <time>2021-09-11T05:03:53.000Z</time>
      </trkpt>
      <trkpt lat="45.24159" lon="5.7432">
        <ele>1017.200012207</ele>
        <time>2021-09-11T05:03:57.000Z</time>
      </trkpt>
      <trkpt lat="45.2416" lon="5.74318">
        <ele>1016.5999755859</ele>
        <time>2021-09-11T05:03:59.000Z</time>
      </trkpt>
      <trkpt lat="45.2416" lon="5.74318">
        <ele>1016.4000244141</ele>
        <time>2021-09-11T05:04:00.000Z</time>
      </trkpt>
      <trkpt lat="45.24161" lon="5.74317">
        <ele>1015.5999755859</ele>
        <time>2021-09-11T05:04:02.000Z</time>
      </trkpt>
      <trkpt lat="45.24162" lon="5.74318">
        <ele>1015.4000244141</ele>
        <time>2021-09-11T05:04:03.000Z</time>
      </trkpt>
      <trkpt lat="45.24167" lon="5.7432">
        <ele>1014.5999755859</ele>
        <time>2021-09-11T05:04:06.000Z</time>
      </trkpt>
      <trkpt lat="45.24168" lon="5.74319">
        <ele>1014</ele>
        <time>2021-09-11T05:04:07.000Z</time>
      </trkpt>
      <trkpt lat="45.24169" lon="5.74319">
        <ele>1013.4000244141</ele>
        <time>2021-09-11T05:04:09.000Z</time>
      </trkpt>
      <trkpt lat="45.24171" lon="5.7432">
        <ele>1012.799987793</ele>
        <time>2021-09-11T05:04:11.000Z</time>
      </trkpt>
      <trkpt lat="45.24173" lon="5.74321">
        <ele>1012.5999755859</ele>
        <time>2021-09-11T05:04:12.000Z</time>
      </trkpt>
      <trkpt lat="45.24179" lon="5.74322">
        <ele>1011.5999755859</ele>
        <time>2021-09-11T05:04:16.000Z</time>
      </trkpt>
      <trkpt lat="45.24182" lon="5.74322">
        <ele>1010.799987793</ele>
        <time>2021-09-11T05:04:18.000Z</time>
      </trkpt>
      <trkpt lat="45.24183" lon="5.74322">
        <ele>1010.5999755859</ele>
        <time>2021-09-11T05:04:19.000Z</time>
      </trkpt>
      <trkpt lat="45.24185" lon="5.74321">
        <ele>1009.5999755859</ele>
        <time>2021-09-11T05:04:21.000Z</time>
      </trkpt>
      <trkpt lat="45.24185" lon="5.74321">
        <ele>1009.200012207</ele>
        <time>2021-09-11T05:04:22.000Z</time>
      </trkpt>
      <trkpt lat="45.24187" lon="5.7432">
        <ele>1008.799987793</ele>
        <time>2021-09-11T05:04:23.000Z</time>
      </trkpt>
      <trkpt lat="45.24189" lon="5.74321">
        <ele>1008</ele>
        <time>2021-09-11T05:04:24.000Z</time>
      </trkpt>
      <trkpt lat="45.24192" lon="5.74321">
        <ele>1006.799987793</ele>
        <time>2021-09-11T05:04:26.000Z</time>
      </trkpt>
      <trkpt lat="45.24194" lon="5.74321">
        <ele>1006.4000244141</ele>
        <time>2021-09-11T05:04:27.000Z</time>
      </trkpt>
      <trkpt lat="45.24194" lon="5.74319">
        <ele>1006.200012207</ele>
        <time>2021-09-11T05:04:28.000Z</time>
      </trkpt>
      <trkpt lat="45.24193" lon="5.74319">
        <ele>1005.799987793</ele>
        <time>2021-09-11T05:04:29.000Z</time>
      </trkpt>
      <trkpt lat="45.24191" lon="5.74317">
        <ele>1005.4000244141</ele>
        <time>2021-09-11T05:04:32.000Z</time>
      </trkpt>
      <trkpt lat="45.24189" lon="5.74311">
        <ele>1005</ele>
        <time>2021-09-11T05:04:38.000Z</time>
      </trkpt>
      <trkpt lat="45.24187" lon="5.7431">
        <ele>1005</ele>
        <time>2021-09-11T05:04:39.000Z</time>
      </trkpt>
      <trkpt lat="45.24184" lon="5.74305">
        <ele>1004.799987793</ele>
        <time>2021-09-11T05:04:42.000Z</time>
      </trkpt>
      <trkpt lat="45.24184" lon="5.74303">
        <ele>1004.5999755859</ele>
        <time>2021-09-11T05:04:43.000Z</time>
      </trkpt>
      <trkpt lat="45.24181" lon="5.74301">
        <ele>1003.5999755859</ele>
        <time>2021-09-11T05:04:45.000Z</time>
      </trkpt>
      <trkpt lat="45.24175" lon="5.74299">
        <ele>1003.200012207</ele>
        <time>2021-09-11T05:04:50.000Z</time>
      </trkpt>
      <trkpt lat="45.24174" lon="5.74298">
        <ele>1003</ele>
        <time>2021-09-11T05:04:52.000Z</time>
      </trkpt>
      <trkpt lat="45.24172" lon="5.74297">
        <ele>1002.5999755859</ele>
        <time>2021-09-11T05:04:54.000Z</time>
      </trkpt>
      <trkpt lat="45.24171" lon="5.74295">
        <ele>1002.5999755859</ele>
        <time>2021-09-11T05:04:55.000Z</time>
      </trkpt>
      <trkpt lat="45.24168" lon="5.74292">
        <ele>1001.4000244141</ele>
        <time>2021-09-11T05:04:58.000Z</time>
      </trkpt>
      <trkpt lat="45.24167" lon="5.74291">
        <ele>1001</ele>
        <time>2021-09-11T05:04:59.000Z</time>
      </trkpt>
      <trkpt lat="45.24165" lon="5.74291">
        <ele>1000.5999755859</ele>
        <time>2021-09-11T05:05:00.000Z</time>
      </trkpt>
      <trkpt lat="45.24164" lon="5.74289">
        <ele>1000.200012207</ele>
        <time>2021-09-11T05:05:01.000Z</time>
      </trkpt>
      <trkpt lat="45.2416" lon="5.74288">
        <ele>999.20001220703</ele>
        <time>2021-09-11T05:05:04.000Z</time>
      </trkpt>
      <trkpt lat="45.24157" lon="5.74287">
        <ele>998.20001220703</ele>
        <time>2021-09-11T05:05:06.000Z</time>
      </trkpt>
      <trkpt lat="45.24155" lon="5.74285">
        <ele>997.79998779297</ele>
        <time>2021-09-11T05:05:07.000Z</time>
      </trkpt>
      <trkpt lat="45.24148" lon="5.74283">
        <ele>996.40002441406</ele>
        <time>2021-09-11T05:05:11.000Z</time>
      </trkpt>
      <trkpt lat="45.24144" lon="5.74282">
        <ele>995.40002441406</ele>
        <time>2021-09-11T05:05:14.000Z</time>
      </trkpt>
      <trkpt lat="45.24137" lon="5.7428">
        <ele>994.40002441406</ele>
        <time>2021-09-11T05:05:18.000Z</time>
      </trkpt>
      <trkpt lat="45.24135" lon="5.7428">
        <ele>994</ele>
        <time>2021-09-11T05:05:19.000Z</time>
      </trkpt>
      <trkpt lat="45.24134" lon="5.7428">
        <ele>993.40002441406</ele>
        <time>2021-09-11T05:05:20.000Z</time>
      </trkpt>
      <trkpt lat="45.24131" lon="5.7428">
        <ele>993</ele>
        <time>2021-09-11T05:05:21.000Z</time>
      </trkpt>
      <trkpt lat="45.24125" lon="5.74277">
        <ele>991.79998779297</ele>
        <time>2021-09-11T05:05:24.000Z</time>
      </trkpt>
      <trkpt lat="45.24123" lon="5.74276">
        <ele>991.59997558594</ele>
        <time>2021-09-11T05:05:25.000Z</time>
      </trkpt>
      <trkpt lat="45.24121" lon="5.74274">
        <ele>990.79998779297</ele>
        <time>2021-09-11T05:05:26.000Z</time>
      </trkpt>
      <trkpt lat="45.24119" lon="5.74271">
        <ele>989.20001220703</ele>
        <time>2021-09-11T05:05:29.000Z</time>
      </trkpt>
      <trkpt lat="45.24118" lon="5.7427">
        <ele>988.59997558594</ele>
        <time>2021-09-11T05:05:30.000Z</time>
      </trkpt>
      <trkpt lat="45.24117" lon="5.74269">
        <ele>988</ele>
        <time>2021-09-11T05:05:31.000Z</time>
      </trkpt>
      <trkpt lat="45.24116" lon="5.74269">
        <ele>987.40002441406</ele>
        <time>2021-09-11T05:05:32.000Z</time>
      </trkpt>
      <trkpt lat="45.24114" lon="5.74268">
        <ele>986.40002441406</ele>
        <time>2021-09-11T05:05:34.000Z</time>
      </trkpt>
      <trkpt lat="45.2411" lon="5.74266">
        <ele>985.20001220703</ele>
        <time>2021-09-11T05:05:36.000Z</time>
      </trkpt>
      <trkpt lat="45.24107" lon="5.74264">
        <ele>983.79998779297</ele>
        <time>2021-09-11T05:05:39.000Z</time>
      </trkpt>
      <trkpt lat="45.24103" lon="5.74263">
        <ele>982.59997558594</ele>
        <time>2021-09-11T05:05:42.000Z</time>
      </trkpt>
      <trkpt lat="45.24102" lon="5.74262">
        <ele>982.20001220703</ele>
        <time>2021-09-11T05:05:43.000Z</time>
      </trkpt>
      <trkpt lat="45.24101" lon="5.74261">
        <ele>981.40002441406</ele>
        <time>2021-09-11T05:05:44.000Z</time>
      </trkpt>
      <trkpt lat="45.24099" lon="5.7426">
        <ele>980.40002441406</ele>
        <time>2021-09-11T05:05:46.000Z</time>
      </trkpt>
      <trkpt lat="45.24095" lon="5.74261">
        <ele>979.79998779297</ele>
        <time>2021-09-11T05:05:48.000Z</time>
      </trkpt>
      <trkpt lat="45.24094" lon="5.74261">
        <ele>979.40002441406</ele>
        <time>2021-09-11T05:05:49.000Z</time>
      </trkpt>
      <trkpt lat="45.24088" lon="5.74261">
        <ele>978.20001220703</ele>
        <time>2021-09-11T05:05:53.000Z</time>
      </trkpt>
      <trkpt lat="45.24085" lon="5.7426">
        <ele>977.20001220703</ele>
        <time>2021-09-11T05:05:56.000Z</time>
      </trkpt>
      <trkpt lat="45.24084" lon="5.7426">
        <ele>976.79998779297</ele>
        <time>2021-09-11T05:05:57.000Z</time>
      </trkpt>
      <trkpt lat="45.24083" lon="5.74259">
        <ele>976.40002441406</ele>
        <time>2021-09-11T05:05:58.000Z</time>
      </trkpt>
      <trkpt lat="45.24082" lon="5.74259">
        <ele>976</ele>
        <time>2021-09-11T05:05:59.000Z</time>
      </trkpt>
      <trkpt lat="45.24077" lon="5.74256">
        <ele>974.59997558594</ele>
        <time>2021-09-11T05:06:02.000Z</time>
      </trkpt>
      <trkpt lat="45.24074" lon="5.74256">
        <ele>973.40002441406</ele>
        <time>2021-09-11T05:06:04.000Z</time>
      </trkpt>
      <trkpt lat="45.24073" lon="5.74256">
        <ele>973.20001220703</ele>
        <time>2021-09-11T05:06:05.000Z</time>
      </trkpt>
      <trkpt lat="45.2407" lon="5.74253">
        <ele>972.40002441406</ele>
        <time>2021-09-11T05:06:07.000Z</time>
      </trkpt>
      <trkpt lat="45.24067" lon="5.7425">
        <ele>970.79998779297</ele>
        <time>2021-09-11T05:06:09.000Z</time>
      </trkpt>
      <trkpt lat="45.24065" lon="5.74249">
        <ele>969.40002441406</ele>
        <time>2021-09-11T05:06:11.000Z</time>
      </trkpt>
      <trkpt lat="45.24063" lon="5.74248">
        <ele>969</ele>
        <time>2021-09-11T05:06:12.000Z</time>
      </trkpt>
      <trkpt lat="45.24061" lon="5.74247">
        <ele>968</ele>
        <time>2021-09-11T05:06:14.000Z</time>
      </trkpt>
      <trkpt lat="45.24057" lon="5.74241">
        <ele>966.59997558594</ele>
        <time>2021-09-11T05:06:17.000Z</time>
      </trkpt>
      <trkpt lat="45.24055" lon="5.74241">
        <ele>965.59997558594</ele>
        <time>2021-09-11T05:06:18.000Z</time>
      </trkpt>
      <trkpt lat="45.24055" lon="5.7424">
        <ele>965.20001220703</ele>
        <time>2021-09-11T05:06:19.000Z</time>
      </trkpt>
      <trkpt lat="45.24053" lon="5.74238">
        <ele>963.59997558594</ele>
        <time>2021-09-11T05:06:22.000Z</time>
      </trkpt>
      <trkpt lat="45.2405" lon="5.74236">
        <ele>962.59997558594</ele>
        <time>2021-09-11T05:06:24.000Z</time>
      </trkpt>
      <trkpt lat="45.24049" lon="5.74235">
        <ele>962.20001220703</ele>
        <time>2021-09-11T05:06:25.000Z</time>
      </trkpt>
      <trkpt lat="45.24048" lon="5.74235">
        <ele>961.40002441406</ele>
        <time>2021-09-11T05:06:26.000Z</time>
      </trkpt>
      <trkpt lat="45.24046" lon="5.74235">
        <ele>960.79998779297</ele>
        <time>2021-09-11T05:06:28.000Z</time>
      </trkpt>
      <trkpt lat="45.24045" lon="5.74235">
        <ele>960</ele>
        <time>2021-09-11T05:06:29.000Z</time>
      </trkpt>
      <trkpt lat="45.24044" lon="5.74235">
        <ele>959.59997558594</ele>
        <time>2021-09-11T05:06:30.000Z</time>
      </trkpt>
      <trkpt lat="45.24041" lon="5.74235">
        <ele>958.59997558594</ele>
        <time>2021-09-11T05:06:32.000Z</time>
      </trkpt>
      <trkpt lat="45.24039" lon="5.74235">
        <ele>958</ele>
        <time>2021-09-11T05:06:33.000Z</time>
      </trkpt>
      <trkpt lat="45.24039" lon="5.74234">
        <ele>957.59997558594</ele>
        <time>2021-09-11T05:06:34.000Z</time>
      </trkpt>
      <trkpt lat="45.24037" lon="5.74234">
        <ele>956.59997558594</ele>
        <time>2021-09-11T05:06:36.000Z</time>
      </trkpt>
      <trkpt lat="45.24037" lon="5.74234">
        <ele>956</ele>
        <time>2021-09-11T05:06:37.000Z</time>
      </trkpt>
      <trkpt lat="45.24035" lon="5.74233">
        <ele>955.79998779297</ele>
        <time>2021-09-11T05:06:38.000Z</time>
      </trkpt>
      <trkpt lat="45.24032" lon="5.74233">
        <ele>954.79998779297</ele>
        <time>2021-09-11T05:06:40.000Z</time>
      </trkpt>
      <trkpt lat="45.2403" lon="5.74232">
        <ele>954.40002441406</ele>
        <time>2021-09-11T05:06:41.000Z</time>
      </trkpt>
      <trkpt lat="45.24027" lon="5.74232">
        <ele>953.40002441406</ele>
        <time>2021-09-11T05:06:43.000Z</time>
      </trkpt>
      <trkpt lat="45.24022" lon="5.7423">
        <ele>951.79998779297</ele>
        <time>2021-09-11T05:06:46.000Z</time>
      </trkpt>
      <trkpt lat="45.2402" lon="5.74228">
        <ele>951.40002441406</ele>
        <time>2021-09-11T05:06:47.000Z</time>
      </trkpt>
      <trkpt lat="45.24016" lon="5.74227">
        <ele>950.40002441406</ele>
        <time>2021-09-11T05:06:49.000Z</time>
      </trkpt>
      <trkpt lat="45.24012" lon="5.74227">
        <ele>949.40002441406</ele>
        <time>2021-09-11T05:06:51.000Z</time>
      </trkpt>
      <trkpt lat="45.2401" lon="5.74227">
        <ele>949.20001220703</ele>
        <time>2021-09-11T05:06:52.000Z</time>
      </trkpt>
      <trkpt lat="45.24008" lon="5.74227">
        <ele>948.59997558594</ele>
        <time>2021-09-11T05:06:53.000Z</time>
      </trkpt>
      <trkpt lat="45.24007" lon="5.74227">
        <ele>947.79998779297</ele>
        <time>2021-09-11T05:06:54.000Z</time>
      </trkpt>
      <trkpt lat="45.24005" lon="5.74228">
        <ele>946.59997558594</ele>
        <time>2021-09-11T05:06:56.000Z</time>
      </trkpt>
      <trkpt lat="45.24" lon="5.74228">
        <ele>945</ele>
        <time>2021-09-11T05:07:00.000Z</time>
      </trkpt>
      <trkpt lat="45.23997" lon="5.74227">
        <ele>944.40002441406</ele>
        <time>2021-09-11T05:07:01.000Z</time>
      </trkpt>
      <trkpt lat="45.23993" lon="5.74227">
        <ele>943.79998779297</ele>
        <time>2021-09-11T05:07:03.000Z</time>
      </trkpt>
      <trkpt lat="45.23991" lon="5.74227">
        <ele>943.20001220703</ele>
        <time>2021-09-11T05:07:05.000Z</time>
      </trkpt>
      <trkpt lat="45.23989" lon="5.74227">
        <ele>942.59997558594</ele>
        <time>2021-09-11T05:07:06.000Z</time>
      </trkpt>
      <trkpt lat="45.23986" lon="5.74228">
        <ele>941.40002441406</ele>
        <time>2021-09-11T05:07:09.000Z</time>
      </trkpt>
      <trkpt lat="45.23979" lon="5.7423">
        <ele>940.20001220703</ele>
        <time>2021-09-11T05:07:12.000Z</time>
      </trkpt>
      <trkpt lat="45.23976" lon="5.74228">
        <ele>940</ele>
        <time>2021-09-11T05:07:13.000Z</time>
      </trkpt>
      <trkpt lat="45.23971" lon="5.74227">
        <ele>939</ele>
        <time>2021-09-11T05:07:16.000Z</time>
      </trkpt>
      <trkpt lat="45.23967" lon="5.74227">
        <ele>938.20001220703</ele>
        <time>2021-09-11T05:07:18.000Z</time>
      </trkpt>
      <trkpt lat="45.23965" lon="5.74228">
        <ele>937.79998779297</ele>
        <time>2021-09-11T05:07:19.000Z</time>
      </trkpt>
      <trkpt lat="45.2396" lon="5.74229">
        <ele>936.79998779297</ele>
        <time>2021-09-11T05:07:22.000Z</time>
      </trkpt>
      <trkpt lat="45.23959" lon="5.74229">
        <ele>936.59997558594</ele>
        <time>2021-09-11T05:07:23.000Z</time>
      </trkpt>
      <trkpt lat="45.23957" lon="5.74227">
        <ele>935.59997558594</ele>
        <time>2021-09-11T05:07:25.000Z</time>
      </trkpt>
      <trkpt lat="45.23955" lon="5.74226">
        <ele>935.20001220703</ele>
        <time>2021-09-11T05:07:26.000Z</time>
      </trkpt>
      <trkpt lat="45.23954" lon="5.74226">
        <ele>935</ele>
        <time>2021-09-11T05:07:27.000Z</time>
      </trkpt>
      <trkpt lat="45.23951" lon="5.74223">
        <ele>934</ele>
        <time>2021-09-11T05:07:29.000Z</time>
      </trkpt>
      <trkpt lat="45.2395" lon="5.74222">
        <ele>933.59997558594</ele>
        <time>2021-09-11T05:07:30.000Z</time>
      </trkpt>
      <trkpt lat="45.23949" lon="5.74221">
        <ele>932.79998779297</ele>
        <time>2021-09-11T05:07:31.000Z</time>
      </trkpt>
      <trkpt lat="45.23946" lon="5.74219">
        <ele>931.40002441406</ele>
        <time>2021-09-11T05:07:33.000Z</time>
      </trkpt>
      <trkpt lat="45.23941" lon="5.74216">
        <ele>930.20001220703</ele>
        <time>2021-09-11T05:07:37.000Z</time>
      </trkpt>
      <trkpt lat="45.23937" lon="5.74213">
        <ele>929</ele>
        <time>2021-09-11T05:07:39.000Z</time>
      </trkpt>
      <trkpt lat="45.2393" lon="5.74212">
        <ele>927.79998779297</ele>
        <time>2021-09-11T05:07:42.000Z</time>
      </trkpt>
      <trkpt lat="45.23924" lon="5.74211">
        <ele>926.40002441406</ele>
        <time>2021-09-11T05:07:45.000Z</time>
      </trkpt>
      <trkpt lat="45.23922" lon="5.7421">
        <ele>925.59997558594</ele>
        <time>2021-09-11T05:07:46.000Z</time>
      </trkpt>
      <trkpt lat="45.23921" lon="5.74209">
        <ele>925</ele>
        <time>2021-09-11T05:07:47.000Z</time>
      </trkpt>
      <trkpt lat="45.23919" lon="5.74207">
        <ele>923.59997558594</ele>
        <time>2021-09-11T05:07:49.000Z</time>
      </trkpt>
      <trkpt lat="45.23916" lon="5.74205">
        <ele>922.40002441406</ele>
        <time>2021-09-11T05:07:51.000Z</time>
      </trkpt>
      <trkpt lat="45.23915" lon="5.74204">
        <ele>921.59997558594</ele>
        <time>2021-09-11T05:07:52.000Z</time>
      </trkpt>
      <trkpt lat="45.23914" lon="5.74202">
        <ele>921</ele>
        <time>2021-09-11T05:07:53.000Z</time>
      </trkpt>
      <trkpt lat="45.23913" lon="5.74197">
        <ele>920</ele>
        <time>2021-09-11T05:07:56.000Z</time>
      </trkpt>
      <trkpt lat="45.23912" lon="5.74196">
        <ele>919.20001220703</ele>
        <time>2021-09-11T05:07:57.000Z</time>
      </trkpt>
      <trkpt lat="45.23912" lon="5.74197">
        <ele>918.79998779297</ele>
        <time>2021-09-11T05:07:58.000Z</time>
      </trkpt>
      <trkpt lat="45.23911" lon="5.74194">
        <ele>917.79998779297</ele>
        <time>2021-09-11T05:08:00.000Z</time>
      </trkpt>
      <trkpt lat="45.23911" lon="5.74192">
        <ele>917.20001220703</ele>
        <time>2021-09-11T05:08:01.000Z</time>
      </trkpt>
      <trkpt lat="45.23911" lon="5.74191">
        <ele>916.40002441406</ele>
        <time>2021-09-11T05:08:02.000Z</time>
      </trkpt>
      <trkpt lat="45.2391" lon="5.7419">
        <ele>915.59997558594</ele>
        <time>2021-09-11T05:08:03.000Z</time>
      </trkpt>
      <trkpt lat="45.2391" lon="5.74186">
        <ele>914.59997558594</ele>
        <time>2021-09-11T05:08:05.000Z</time>
      </trkpt>
      <trkpt lat="45.2391" lon="5.74182">
        <ele>913.79998779297</ele>
        <time>2021-09-11T05:08:07.000Z</time>
      </trkpt>
      <trkpt lat="45.23911" lon="5.74179">
        <ele>913.40002441406</ele>
        <time>2021-09-11T05:08:08.000Z</time>
      </trkpt>
      <trkpt lat="45.23913" lon="5.74176">
        <ele>912.40002441406</ele>
        <time>2021-09-11T05:08:10.000Z</time>
      </trkpt>
      <trkpt lat="45.23913" lon="5.74174">
        <ele>912</ele>
        <time>2021-09-11T05:08:11.000Z</time>
      </trkpt>
      <trkpt lat="45.23913" lon="5.74172">
        <ele>911.59997558594</ele>
        <time>2021-09-11T05:08:12.000Z</time>
      </trkpt>
      <trkpt lat="45.23914" lon="5.7417">
        <ele>911.20001220703</ele>
        <time>2021-09-11T05:08:13.000Z</time>
      </trkpt>
      <trkpt lat="45.23915" lon="5.74168">
        <ele>910.20001220703</ele>
        <time>2021-09-11T05:08:15.000Z</time>
      </trkpt>
      <trkpt lat="45.23916" lon="5.74165">
        <ele>909</ele>
        <time>2021-09-11T05:08:17.000Z</time>
      </trkpt>
      <trkpt lat="45.23917" lon="5.74164">
        <ele>908.59997558594</ele>
        <time>2021-09-11T05:08:18.000Z</time>
      </trkpt>
      <trkpt lat="45.23918" lon="5.74163">
        <ele>907.79998779297</ele>
        <time>2021-09-11T05:08:20.000Z</time>
      </trkpt>
      <trkpt lat="45.2392" lon="5.74162">
        <ele>906.79998779297</ele>
        <time>2021-09-11T05:08:23.000Z</time>
      </trkpt>
      <trkpt lat="45.23921" lon="5.74161">
        <ele>906.40002441406</ele>
        <time>2021-09-11T05:08:24.000Z</time>
      </trkpt>
      <trkpt lat="45.23924" lon="5.74159">
        <ele>905.40002441406</ele>
        <time>2021-09-11T05:08:27.000Z</time>
      </trkpt>
      <trkpt lat="45.23926" lon="5.74157">
        <ele>904.40002441406</ele>
        <time>2021-09-11T05:08:29.000Z</time>
      </trkpt>
      <trkpt lat="45.23926" lon="5.74156">
        <ele>903.40002441406</ele>
        <time>2021-09-11T05:08:31.000Z</time>
      </trkpt>
      <trkpt lat="45.23926" lon="5.74155">
        <ele>903</ele>
        <time>2021-09-11T05:08:32.000Z</time>
      </trkpt>
      <trkpt lat="45.23926" lon="5.74155">
        <ele>902.40002441406</ele>
        <time>2021-09-11T05:08:33.000Z</time>
      </trkpt>
      <trkpt lat="45.23925" lon="5.74155">
        <ele>901.79998779297</ele>
        <time>2021-09-11T05:08:35.000Z</time>
      </trkpt>
      <trkpt lat="45.23924" lon="5.74154">
        <ele>901.40002441406</ele>
        <time>2021-09-11T05:08:36.000Z</time>
      </trkpt>
      <trkpt lat="45.23922" lon="5.74152">
        <ele>900.40002441406</ele>
        <time>2021-09-11T05:08:38.000Z</time>
      </trkpt>
      <trkpt lat="45.23921" lon="5.7415">
        <ele>899.20001220703</ele>
        <time>2021-09-11T05:08:40.000Z</time>
      </trkpt>
      <trkpt lat="45.2392" lon="5.74148">
        <ele>897.79998779297</ele>
        <time>2021-09-11T05:08:42.000Z</time>
      </trkpt>
      <trkpt lat="45.23919" lon="5.74146">
        <ele>897</ele>
        <time>2021-09-11T05:08:43.000Z</time>
      </trkpt>
      <trkpt lat="45.23918" lon="5.74145">
        <ele>896.59997558594</ele>
        <time>2021-09-11T05:08:44.000Z</time>
      </trkpt>
      <trkpt lat="45.23917" lon="5.74141">
        <ele>895.40002441406</ele>
        <time>2021-09-11T05:08:46.000Z</time>
      </trkpt>
      <trkpt lat="45.23917" lon="5.74138">
        <ele>894.40002441406</ele>
        <time>2021-09-11T05:08:48.000Z</time>
      </trkpt>
      <trkpt lat="45.23917" lon="5.74137">
        <ele>893.79998779297</ele>
        <time>2021-09-11T05:08:49.000Z</time>
      </trkpt>
      <trkpt lat="45.23917" lon="5.74135">
        <ele>892.79998779297</ele>
        <time>2021-09-11T05:08:51.000Z</time>
      </trkpt>
      <trkpt lat="45.23916" lon="5.74131">
        <ele>891.59997558594</ele>
        <time>2021-09-11T05:08:55.000Z</time>
      </trkpt>
      <trkpt lat="45.23916" lon="5.74126">
        <ele>890.20001220703</ele>
        <time>2021-09-11T05:08:58.000Z</time>
      </trkpt>
      <trkpt lat="45.23918" lon="5.74122">
        <ele>889</ele>
        <time>2021-09-11T05:09:01.000Z</time>
      </trkpt>
      <trkpt lat="45.23921" lon="5.74118">
        <ele>888</ele>
        <time>2021-09-11T05:09:04.000Z</time>
      </trkpt>
      <trkpt lat="45.23923" lon="5.74116">
        <ele>887.20001220703</ele>
        <time>2021-09-11T05:09:06.000Z</time>
      </trkpt>
      <trkpt lat="45.23924" lon="5.74116">
        <ele>887</ele>
        <time>2021-09-11T05:09:07.000Z</time>
      </trkpt>
      <trkpt lat="45.23924" lon="5.74116">
        <ele>886.79998779297</ele>
        <time>2021-09-11T05:09:08.000Z</time>
      </trkpt>
      <trkpt lat="45.23927" lon="5.74115">
        <ele>886</ele>
        <time>2021-09-11T05:09:11.000Z</time>
      </trkpt>
      <trkpt lat="45.23929" lon="5.74115">
        <ele>885.40002441406</ele>
        <time>2021-09-11T05:09:12.000Z</time>
      </trkpt>
      <trkpt lat="45.23931" lon="5.74113">
        <ele>884.40002441406</ele>
        <time>2021-09-11T05:09:14.000Z</time>
      </trkpt>
      <trkpt lat="45.23935" lon="5.74111">
        <ele>883.20001220703</ele>
        <time>2021-09-11T05:09:17.000Z</time>
      </trkpt>
      <trkpt lat="45.23938" lon="5.74111">
        <ele>882.59997558594</ele>
        <time>2021-09-11T05:09:19.000Z</time>
      </trkpt>
      <trkpt lat="45.23939" lon="5.7411">
        <ele>882</ele>
        <time>2021-09-11T05:09:20.000Z</time>
      </trkpt>
      <trkpt lat="45.23941" lon="5.74107">
        <ele>881</ele>
        <time>2021-09-11T05:09:23.000Z</time>
      </trkpt>
      <trkpt lat="45.23943" lon="5.74107">
        <ele>880.59997558594</ele>
        <time>2021-09-11T05:09:25.000Z</time>
      </trkpt>
      <trkpt lat="45.23946" lon="5.74105">
        <ele>879.59997558594</ele>
        <time>2021-09-11T05:09:27.000Z</time>
      </trkpt>
      <trkpt lat="45.23949" lon="5.74103">
        <ele>878.40002441406</ele>
        <time>2021-09-11T05:09:30.000Z</time>
      </trkpt>
      <trkpt lat="45.23952" lon="5.74101">
        <ele>877.79998779297</ele>
        <time>2021-09-11T05:09:32.000Z</time>
      </trkpt>
      <trkpt lat="45.23953" lon="5.74099">
        <ele>877.20001220703</ele>
        <time>2021-09-11T05:09:33.000Z</time>
      </trkpt>
      <trkpt lat="45.23957" lon="5.74096">
        <ele>876.20001220703</ele>
        <time>2021-09-11T05:09:36.000Z</time>
      </trkpt>
      <trkpt lat="45.23958" lon="5.74094">
        <ele>875.79998779297</ele>
        <time>2021-09-11T05:09:37.000Z</time>
      </trkpt>
      <trkpt lat="45.23962" lon="5.74084">
        <ele>874.79998779297</ele>
        <time>2021-09-11T05:09:40.000Z</time>
      </trkpt>
      <trkpt lat="45.23964" lon="5.74082">
        <ele>874.40002441406</ele>
        <time>2021-09-11T05:09:41.000Z</time>
      </trkpt>
      <trkpt lat="45.23967" lon="5.7408">
        <ele>874</ele>
        <time>2021-09-11T05:09:42.000Z</time>
      </trkpt>
      <trkpt lat="45.23971" lon="5.74079">
        <ele>873.40002441406</ele>
        <time>2021-09-11T05:09:43.000Z</time>
      </trkpt>
      <trkpt lat="45.23979" lon="5.74076">
        <ele>872.20001220703</ele>
        <time>2021-09-11T05:09:46.000Z</time>
      </trkpt>
      <trkpt lat="45.23982" lon="5.74072">
        <ele>871.20001220703</ele>
        <time>2021-09-11T05:09:48.000Z</time>
      </trkpt>
      <trkpt lat="45.23983" lon="5.74071">
        <ele>870.79998779297</ele>
        <time>2021-09-11T05:09:49.000Z</time>
      </trkpt>
      <trkpt lat="45.23985" lon="5.74071">
        <ele>870.59997558594</ele>
        <time>2021-09-11T05:09:50.000Z</time>
      </trkpt>
      <trkpt lat="45.23991" lon="5.74068">
        <ele>869.79998779297</ele>
        <time>2021-09-11T05:09:53.000Z</time>
      </trkpt>
      <trkpt lat="45.23993" lon="5.74065">
        <ele>869</ele>
        <time>2021-09-11T05:09:55.000Z</time>
      </trkpt>
      <trkpt lat="45.23995" lon="5.74063">
        <ele>868.59997558594</ele>
        <time>2021-09-11T05:09:56.000Z</time>
      </trkpt>
      <trkpt lat="45.23997" lon="5.74062">
        <ele>868</ele>
        <time>2021-09-11T05:09:57.000Z</time>
      </trkpt>
      <trkpt lat="45.24002" lon="5.7406">
        <ele>867.40002441406</ele>
        <time>2021-09-11T05:09:59.000Z</time>
      </trkpt>
      <trkpt lat="45.24008" lon="5.74053">
        <ele>866.20001220703</ele>
        <time>2021-09-11T05:10:02.000Z</time>
      </trkpt>
      <trkpt lat="45.24012" lon="5.7405">
        <ele>865.40002441406</ele>
        <time>2021-09-11T05:10:04.000Z</time>
      </trkpt>
      <trkpt lat="45.24014" lon="5.74048">
        <ele>865</ele>
        <time>2021-09-11T05:10:05.000Z</time>
      </trkpt>
      <trkpt lat="45.24016" lon="5.74045">
        <ele>864.79998779297</ele>
        <time>2021-09-11T05:10:06.000Z</time>
      </trkpt>
      <trkpt lat="45.24019" lon="5.74041">
        <ele>864</ele>
        <time>2021-09-11T05:10:08.000Z</time>
      </trkpt>
      <trkpt lat="45.2402" lon="5.7404">
        <ele>863.59997558594</ele>
        <time>2021-09-11T05:10:09.000Z</time>
      </trkpt>
      <trkpt lat="45.24021" lon="5.74038">
        <ele>863</ele>
        <time>2021-09-11T05:10:10.000Z</time>
      </trkpt>
      <trkpt lat="45.24024" lon="5.74036">
        <ele>862.59997558594</ele>
        <time>2021-09-11T05:10:11.000Z</time>
      </trkpt>
      <trkpt lat="45.24029" lon="5.74034">
        <ele>861.79998779297</ele>
        <time>2021-09-11T05:10:13.000Z</time>
      </trkpt>
      <trkpt lat="45.24032" lon="5.74033">
        <ele>861.40002441406</ele>
        <time>2021-09-11T05:10:14.000Z</time>
      </trkpt>
      <trkpt lat="45.24039" lon="5.74029">
        <ele>860.20001220703</ele>
        <time>2021-09-11T05:10:17.000Z</time>
      </trkpt>
      <trkpt lat="45.24041" lon="5.74025">
        <ele>859.59997558594</ele>
        <time>2021-09-11T05:10:19.000Z</time>
      </trkpt>
      <trkpt lat="45.24045" lon="5.74022">
        <ele>859</ele>
        <time>2021-09-11T05:10:21.000Z</time>
      </trkpt>
      <trkpt lat="45.24047" lon="5.7402">
        <ele>858.40002441406</ele>
        <time>2021-09-11T05:10:22.000Z</time>
      </trkpt>
      <trkpt lat="45.24047" lon="5.74018">
        <ele>858</ele>
        <time>2021-09-11T05:10:23.000Z</time>
      </trkpt>
      <trkpt lat="45.24049" lon="5.74013">
        <ele>857.40002441406</ele>
        <time>2021-09-11T05:10:25.000Z</time>
      </trkpt>
      <trkpt lat="45.24049" lon="5.74011">
        <ele>857</ele>
        <time>2021-09-11T05:10:26.000Z</time>
      </trkpt>
      <trkpt lat="45.24053" lon="5.74002">
        <ele>856</ele>
        <time>2021-09-11T05:10:30.000Z</time>
      </trkpt>
      <trkpt lat="45.24053" lon="5.73999">
        <ele>855.40002441406</ele>
        <time>2021-09-11T05:10:31.000Z</time>
      </trkpt>
      <trkpt lat="45.24054" lon="5.73997">
        <ele>855</ele>
        <time>2021-09-11T05:10:32.000Z</time>
      </trkpt>
      <trkpt lat="45.24057" lon="5.73993">
        <ele>854.20001220703</ele>
        <time>2021-09-11T05:10:34.000Z</time>
      </trkpt>
      <trkpt lat="45.24061" lon="5.73989">
        <ele>853.59997558594</ele>
        <time>2021-09-11T05:10:36.000Z</time>
      </trkpt>
      <trkpt lat="45.24062" lon="5.73987">
        <ele>853</ele>
        <time>2021-09-11T05:10:37.000Z</time>
      </trkpt>
      <trkpt lat="45.24068" lon="5.73982">
        <ele>852</ele>
        <time>2021-09-11T05:10:40.000Z</time>
      </trkpt>
      <trkpt lat="45.2407" lon="5.73978">
        <ele>851.20001220703</ele>
        <time>2021-09-11T05:10:42.000Z</time>
      </trkpt>
      <trkpt lat="45.24071" lon="5.73977">
        <ele>851</ele>
        <time>2021-09-11T05:10:43.000Z</time>
      </trkpt>
      <trkpt lat="45.24072" lon="5.73975">
        <ele>850.59997558594</ele>
        <time>2021-09-11T05:10:44.000Z</time>
      </trkpt>
      <trkpt lat="45.24076" lon="5.73971">
        <ele>850</ele>
        <time>2021-09-11T05:10:46.000Z</time>
      </trkpt>
      <trkpt lat="45.24078" lon="5.73969">
        <ele>849.40002441406</ele>
        <time>2021-09-11T05:10:47.000Z</time>
      </trkpt>
      <trkpt lat="45.24084" lon="5.73966">
        <ele>848</ele>
        <time>2021-09-11T05:10:50.000Z</time>
      </trkpt>
      <trkpt lat="45.24091" lon="5.73964">
        <ele>847.20001220703</ele>
        <time>2021-09-11T05:10:53.000Z</time>
      </trkpt>
      <trkpt lat="45.24093" lon="5.73962">
        <ele>846.59997558594</ele>
        <time>2021-09-11T05:10:54.000Z</time>
      </trkpt>
      <trkpt lat="45.241" lon="5.73957">
        <ele>845.59997558594</ele>
        <time>2021-09-11T05:10:57.000Z</time>
      </trkpt>
      <trkpt lat="45.24105" lon="5.73954">
        <ele>844.40002441406</ele>
        <time>2021-09-11T05:10:59.000Z</time>
      </trkpt>
      <trkpt lat="45.24107" lon="5.73953">
        <ele>844.20001220703</ele>
        <time>2021-09-11T05:11:00.000Z</time>
      </trkpt>
      <trkpt lat="45.24114" lon="5.73949">
        <ele>843</ele>
        <time>2021-09-11T05:11:04.000Z</time>
      </trkpt>
      <trkpt lat="45.24116" lon="5.73947">
        <ele>842.79998779297</ele>
        <time>2021-09-11T05:11:05.000Z</time>
      </trkpt>
      <trkpt lat="45.24118" lon="5.73947">
        <ele>842.40002441406</ele>
        <time>2021-09-11T05:11:06.000Z</time>
      </trkpt>
      <trkpt lat="45.2412" lon="5.73947">
        <ele>842</ele>
        <time>2021-09-11T05:11:07.000Z</time>
      </trkpt>
      <trkpt lat="45.24123" lon="5.73945">
        <ele>841.59997558594</ele>
        <time>2021-09-11T05:11:08.000Z</time>
      </trkpt>
      <trkpt lat="45.2413" lon="5.73941">
        <ele>840.59997558594</ele>
        <time>2021-09-11T05:11:11.000Z</time>
      </trkpt>
      <trkpt lat="45.24132" lon="5.73942">
        <ele>840.20001220703</ele>
        <time>2021-09-11T05:11:12.000Z</time>
      </trkpt>
      <trkpt lat="45.24134" lon="5.73942">
        <ele>840</ele>
        <time>2021-09-11T05:11:13.000Z</time>
      </trkpt>
      <trkpt lat="45.24136" lon="5.73942">
        <ele>839.40002441406</ele>
        <time>2021-09-11T05:11:14.000Z</time>
      </trkpt>
      <trkpt lat="45.24145" lon="5.73944">
        <ele>838</ele>
        <time>2021-09-11T05:11:17.000Z</time>
      </trkpt>
      <trkpt lat="45.24148" lon="5.73944">
        <ele>837.59997558594</ele>
        <time>2021-09-11T05:11:18.000Z</time>
      </trkpt>
      <trkpt lat="45.24152" lon="5.73944">
        <ele>836.79998779297</ele>
        <time>2021-09-11T05:11:20.000Z</time>
      </trkpt>
      <trkpt lat="45.24158" lon="5.73941">
        <ele>835.79998779297</ele>
        <time>2021-09-11T05:11:23.000Z</time>
      </trkpt>
      <trkpt lat="45.2416" lon="5.73941">
        <ele>835.40002441406</ele>
        <time>2021-09-11T05:11:24.000Z</time>
      </trkpt>
      <trkpt lat="45.24171" lon="5.73945">
        <ele>834.20001220703</ele>
        <time>2021-09-11T05:11:29.000Z</time>
      </trkpt>
      <trkpt lat="45.24177" lon="5.73945">
        <ele>833.40002441406</ele>
        <time>2021-09-11T05:11:31.000Z</time>
      </trkpt>
      <trkpt lat="45.2418" lon="5.73946">
        <ele>833.20001220703</ele>
        <time>2021-09-11T05:11:32.000Z</time>
      </trkpt>
      <trkpt lat="45.24187" lon="5.73944">
        <ele>832</ele>
        <time>2021-09-11T05:11:35.000Z</time>
      </trkpt>
      <trkpt lat="45.24193" lon="5.73944">
        <ele>831.40002441406</ele>
        <time>2021-09-11T05:11:37.000Z</time>
      </trkpt>
      <trkpt lat="45.24195" lon="5.73945">
        <ele>831</ele>
        <time>2021-09-11T05:11:38.000Z</time>
      </trkpt>
      <trkpt lat="45.24196" lon="5.73947">
        <ele>830.59997558594</ele>
        <time>2021-09-11T05:11:39.000Z</time>
      </trkpt>
      <trkpt lat="45.24197" lon="5.73947">
        <ele>830.40002441406</ele>
        <time>2021-09-11T05:11:40.000Z</time>
      </trkpt>
      <trkpt lat="45.24196" lon="5.73948">
        <ele>830.20001220703</ele>
        <time>2021-09-11T05:11:42.000Z</time>
      </trkpt>
      <trkpt lat="45.24195" lon="5.73948">
        <ele>830.20001220703</ele>
        <time>2021-09-11T05:11:43.000Z</time>
      </trkpt>
      <trkpt lat="45.24189" lon="5.73948">
        <ele>831.40002441406</ele>
        <time>2021-09-11T05:11:49.000Z</time>
      </trkpt>
      <trkpt lat="45.2419" lon="5.73949">
        <ele>831.59997558594</ele>
        <time>2021-09-11T05:11:50.000Z</time>
      </trkpt>
      <trkpt lat="45.24193" lon="5.7395">
        <ele>832</ele>
        <time>2021-09-11T05:11:52.000Z</time>
      </trkpt>
      <trkpt lat="45.24194" lon="5.73951">
        <ele>832.20001220703</ele>
        <time>2021-09-11T05:11:53.000Z</time>
      </trkpt>
      <trkpt lat="45.24196" lon="5.73954">
        <ele>832.20001220703</ele>
        <time>2021-09-11T05:11:55.000Z</time>
      </trkpt>
      <trkpt lat="45.24205" lon="5.73965">
        <ele>831.59997558594</ele>
        <time>2021-09-11T05:12:00.000Z</time>
      </trkpt>
      <trkpt lat="45.24208" lon="5.73971">
        <ele>831.20001220703</ele>
        <time>2021-09-11T05:12:02.000Z</time>
      </trkpt>
      <trkpt lat="45.24209" lon="5.73974">
        <ele>831</ele>
        <time>2021-09-11T05:12:03.000Z</time>
      </trkpt>
      <trkpt lat="45.24211" lon="5.7398">
        <ele>830.79998779297</ele>
        <time>2021-09-11T05:12:05.000Z</time>
      </trkpt>
      <trkpt lat="45.24213" lon="5.73983">
        <ele>830.59997558594</ele>
        <time>2021-09-11T05:12:07.000Z</time>
      </trkpt>
      <trkpt lat="45.24214" lon="5.73986">
        <ele>829.79998779297</ele>
        <time>2021-09-11T05:12:09.000Z</time>
      </trkpt>
      <trkpt lat="45.24216" lon="5.73993">
        <ele>829</ele>
        <time>2021-09-11T05:12:12.000Z</time>
      </trkpt>
      <trkpt lat="45.24217" lon="5.73995">
        <ele>828.59997558594</ele>
        <time>2021-09-11T05:12:13.000Z</time>
      </trkpt>
      <trkpt lat="45.24219" lon="5.73999">
        <ele>828.59997558594</ele>
        <time>2021-09-11T05:12:14.000Z</time>
      </trkpt>
      <trkpt lat="45.24221" lon="5.74002">
        <ele>828.40002441406</ele>
        <time>2021-09-11T05:12:15.000Z</time>
      </trkpt>
      <trkpt lat="45.24223" lon="5.74007">
        <ele>828.20001220703</ele>
        <time>2021-09-11T05:12:17.000Z</time>
      </trkpt>
      <trkpt lat="45.24224" lon="5.7401">
        <ele>828.20001220703</ele>
        <time>2021-09-11T05:12:18.000Z</time>
      </trkpt>
      <trkpt lat="45.24227" lon="5.74015">
        <ele>828</ele>
        <time>2021-09-11T05:12:20.000Z</time>
      </trkpt>
      <trkpt lat="45.24229" lon="5.74017">
        <ele>828</ele>
        <time>2021-09-11T05:12:22.000Z</time>
      </trkpt>
      <trkpt lat="45.24232" lon="5.74021">
        <ele>827.79998779297</ele>
        <time>2021-09-11T05:12:24.000Z</time>
      </trkpt>
      <trkpt lat="45.24235" lon="5.74024">
        <ele>827.59997558594</ele>
        <time>2021-09-11T05:12:25.000Z</time>
      </trkpt>
      <trkpt lat="45.24238" lon="5.74026">
        <ele>827.59997558594</ele>
        <time>2021-09-11T05:12:26.000Z</time>
      </trkpt>
      <trkpt lat="45.24244" lon="5.74031">
        <ele>827.59997558594</ele>
        <time>2021-09-11T05:12:28.000Z</time>
      </trkpt>
      <trkpt lat="45.24251" lon="5.74034">
        <ele>827</ele>
        <time>2021-09-11T05:12:30.000Z</time>
      </trkpt>
      <trkpt lat="45.24258" lon="5.74039">
        <ele>826.59997558594</ele>
        <time>2021-09-11T05:12:33.000Z</time>
      </trkpt>
      <trkpt lat="45.24262" lon="5.74044">
        <ele>826.40002441406</ele>
        <time>2021-09-11T05:12:35.000Z</time>
      </trkpt>
      <trkpt lat="45.24269" lon="5.74051">
        <ele>825.59997558594</ele>
        <time>2021-09-11T05:12:39.000Z</time>
      </trkpt>
      <trkpt lat="45.24271" lon="5.74051">
        <ele>825.40002441406</ele>
        <time>2021-09-11T05:12:40.000Z</time>
      </trkpt>
      <trkpt lat="45.24277" lon="5.74053">
        <ele>824.40002441406</ele>
        <time>2021-09-11T05:12:43.000Z</time>
      </trkpt>
      <trkpt lat="45.2428" lon="5.74055">
        <ele>823.59997558594</ele>
        <time>2021-09-11T05:12:45.000Z</time>
      </trkpt>
      <trkpt lat="45.24283" lon="5.74056">
        <ele>823.20001220703</ele>
        <time>2021-09-11T05:12:46.000Z</time>
      </trkpt>
      <trkpt lat="45.2429" lon="5.74057">
        <ele>822</ele>
        <time>2021-09-11T05:12:49.000Z</time>
      </trkpt>
      <trkpt lat="45.24299" lon="5.74063">
        <ele>820.79998779297</ele>
        <time>2021-09-11T05:12:52.000Z</time>
      </trkpt>
      <trkpt lat="45.24306" lon="5.74069">
        <ele>819.40002441406</ele>
        <time>2021-09-11T05:12:55.000Z</time>
      </trkpt>
      <trkpt lat="45.24309" lon="5.74072">
        <ele>819</ele>
        <time>2021-09-11T05:12:56.000Z</time>
      </trkpt>
      <trkpt lat="45.24311" lon="5.74076">
        <ele>818.20001220703</ele>
        <time>2021-09-11T05:12:58.000Z</time>
      </trkpt>
      <trkpt lat="45.24315" lon="5.74078">
        <ele>817.40002441406</ele>
        <time>2021-09-11T05:13:00.000Z</time>
      </trkpt>
      <trkpt lat="45.24317" lon="5.7408">
        <ele>816.79998779297</ele>
        <time>2021-09-11T05:13:01.000Z</time>
      </trkpt>
      <trkpt lat="45.24323" lon="5.74087">
        <ele>815.59997558594</ele>
        <time>2021-09-11T05:13:05.000Z</time>
      </trkpt>
      <trkpt lat="45.24324" lon="5.7409">
        <ele>815</ele>
        <time>2021-09-11T05:13:06.000Z</time>
      </trkpt>
      <trkpt lat="45.24326" lon="5.74091">
        <ele>814.40002441406</ele>
        <time>2021-09-11T05:13:07.000Z</time>
      </trkpt>
      <trkpt lat="45.24332" lon="5.74095">
        <ele>813.20001220703</ele>
        <time>2021-09-11T05:13:09.000Z</time>
      </trkpt>
      <trkpt lat="45.24337" lon="5.741">
        <ele>812.79998779297</ele>
        <time>2021-09-11T05:13:10.000Z</time>
      </trkpt>
      <trkpt lat="45.24338" lon="5.74104">
        <ele>812.59997558594</ele>
        <time>2021-09-11T05:13:11.000Z</time>
      </trkpt>
      <trkpt lat="45.24342" lon="5.74109">
        <ele>811.59997558594</ele>
        <time>2021-09-11T05:13:13.000Z</time>
      </trkpt>
      <trkpt lat="45.24344" lon="5.74112">
        <ele>811.20001220703</ele>
        <time>2021-09-11T05:13:14.000Z</time>
      </trkpt>
      <trkpt lat="45.24346" lon="5.74114">
        <ele>810.79998779297</ele>
        <time>2021-09-11T05:13:15.000Z</time>
      </trkpt>
      <trkpt lat="45.24347" lon="5.74117">
        <ele>810.20001220703</ele>
        <time>2021-09-11T05:13:16.000Z</time>
      </trkpt>
      <trkpt lat="45.24352" lon="5.74123">
        <ele>809.40002441406</ele>
        <time>2021-09-11T05:13:18.000Z</time>
      </trkpt>
      <trkpt lat="45.24354" lon="5.74126">
        <ele>809</ele>
        <time>2021-09-11T05:13:19.000Z</time>
      </trkpt>
      <trkpt lat="45.24358" lon="5.74132">
        <ele>808</ele>
        <time>2021-09-11T05:13:21.000Z</time>
      </trkpt>
      <trkpt lat="45.24359" lon="5.74135">
        <ele>807.79998779297</ele>
        <time>2021-09-11T05:13:22.000Z</time>
      </trkpt>
      <trkpt lat="45.2436" lon="5.74139">
        <ele>807.40002441406</ele>
        <time>2021-09-11T05:13:23.000Z</time>
      </trkpt>
      <trkpt lat="45.24368" lon="5.74149">
        <ele>806.79998779297</ele>
        <time>2021-09-11T05:13:26.000Z</time>
      </trkpt>
      <trkpt lat="45.24374" lon="5.74156">
        <ele>805.40002441406</ele>
        <time>2021-09-11T05:13:29.000Z</time>
      </trkpt>
      <trkpt lat="45.24377" lon="5.74159">
        <ele>805</ele>
        <time>2021-09-11T05:13:30.000Z</time>
      </trkpt>
      <trkpt lat="45.24382" lon="5.74162">
        <ele>804.40002441406</ele>
        <time>2021-09-11T05:13:32.000Z</time>
      </trkpt>
      <trkpt lat="45.24387" lon="5.74167">
        <ele>803.59997558594</ele>
        <time>2021-09-11T05:13:34.000Z</time>
      </trkpt>
      <trkpt lat="45.24389" lon="5.74171">
        <ele>803.20001220703</ele>
        <time>2021-09-11T05:13:36.000Z</time>
      </trkpt>
      <trkpt lat="45.2439" lon="5.74173">
        <ele>803.20001220703</ele>
        <time>2021-09-11T05:13:37.000Z</time>
      </trkpt>
      <trkpt lat="45.24391" lon="5.74175">
        <ele>803</ele>
        <time>2021-09-11T05:13:38.000Z</time>
      </trkpt>
      <trkpt lat="45.24396" lon="5.74179">
        <ele>802</ele>
        <time>2021-09-11T05:13:41.000Z</time>
      </trkpt>
      <trkpt lat="45.24398" lon="5.7418">
        <ele>801.79998779297</ele>
        <time>2021-09-11T05:13:42.000Z</time>
      </trkpt>
      <trkpt lat="45.24402" lon="5.74182">
        <ele>801.20001220703</ele>
        <time>2021-09-11T05:13:44.000Z</time>
      </trkpt>
      <trkpt lat="45.24404" lon="5.74184">
        <ele>800.40002441406</ele>
        <time>2021-09-11T05:13:45.000Z</time>
      </trkpt>
      <trkpt lat="45.24406" lon="5.74187">
        <ele>800</ele>
        <time>2021-09-11T05:13:46.000Z</time>
      </trkpt>
      <trkpt lat="45.24406" lon="5.74189">
        <ele>799.59997558594</ele>
        <time>2021-09-11T05:13:47.000Z</time>
      </trkpt>
      <trkpt lat="45.24407" lon="5.74191">
        <ele>799.40002441406</ele>
        <time>2021-09-11T05:13:48.000Z</time>
      </trkpt>
      <trkpt lat="45.2441" lon="5.74194">
        <ele>799.40002441406</ele>
        <time>2021-09-11T05:13:49.000Z</time>
      </trkpt>
      <trkpt lat="45.24413" lon="5.74197">
        <ele>799.20001220703</ele>
        <time>2021-09-11T05:13:50.000Z</time>
      </trkpt>
      <trkpt lat="45.24421" lon="5.74209">
        <ele>798.59997558594</ele>
        <time>2021-09-11T05:13:53.000Z</time>
      </trkpt>
      <trkpt lat="45.24424" lon="5.74212">
        <ele>798.59997558594</ele>
        <time>2021-09-11T05:13:54.000Z</time>
      </trkpt>
      <trkpt lat="45.24431" lon="5.74217">
        <ele>798.59997558594</ele>
        <time>2021-09-11T05:13:56.000Z</time>
      </trkpt>
      <trkpt lat="45.24435" lon="5.7422">
        <ele>798.59997558594</ele>
        <time>2021-09-11T05:13:57.000Z</time>
      </trkpt>
      <trkpt lat="45.2444" lon="5.74225">
        <ele>798.20001220703</ele>
        <time>2021-09-11T05:13:59.000Z</time>
      </trkpt>
      <trkpt lat="45.24441" lon="5.74227">
        <ele>798</ele>
        <time>2021-09-11T05:14:00.000Z</time>
      </trkpt>
      <trkpt lat="45.24445" lon="5.74232">
        <ele>797.59997558594</ele>
        <time>2021-09-11T05:14:02.000Z</time>
      </trkpt>
      <trkpt lat="45.24447" lon="5.74234">
        <ele>797.40002441406</ele>
        <time>2021-09-11T05:14:03.000Z</time>
      </trkpt>
      <trkpt lat="45.2445" lon="5.74235">
        <ele>796.59997558594</ele>
        <time>2021-09-11T05:14:04.000Z</time>
      </trkpt>
      <trkpt lat="45.24454" lon="5.74238">
        <ele>795.59997558594</ele>
        <time>2021-09-11T05:14:06.000Z</time>
      </trkpt>
      <trkpt lat="45.24455" lon="5.74238">
        <ele>795.20001220703</ele>
        <time>2021-09-11T05:14:07.000Z</time>
      </trkpt>
      <trkpt lat="45.24458" lon="5.74239">
        <ele>794.40002441406</ele>
        <time>2021-09-11T05:14:09.000Z</time>
      </trkpt>
      <trkpt lat="45.24462" lon="5.74241">
        <ele>793.40002441406</ele>
        <time>2021-09-11T05:14:12.000Z</time>
      </trkpt>
      <trkpt lat="45.24464" lon="5.74243">
        <ele>792.40002441406</ele>
        <time>2021-09-11T05:14:14.000Z</time>
      </trkpt>
      <trkpt lat="45.24466" lon="5.74243">
        <ele>791.79998779297</ele>
        <time>2021-09-11T05:14:15.000Z</time>
      </trkpt>
      <trkpt lat="45.24467" lon="5.74242">
        <ele>791.20001220703</ele>
        <time>2021-09-11T05:14:16.000Z</time>
      </trkpt>
      <trkpt lat="45.24473" lon="5.74243">
        <ele>789.79998779297</ele>
        <time>2021-09-11T05:14:19.000Z</time>
      </trkpt>
      <trkpt lat="45.24474" lon="5.74243">
        <ele>789.40002441406</ele>
        <time>2021-09-11T05:14:20.000Z</time>
      </trkpt>
      <trkpt lat="45.24474" lon="5.74244">
        <ele>788.79998779297</ele>
        <time>2021-09-11T05:14:21.000Z</time>
      </trkpt>
      <trkpt lat="45.24475" lon="5.74245">
        <ele>787.59997558594</ele>
        <time>2021-09-11T05:14:23.000Z</time>
      </trkpt>
      <trkpt lat="45.24477" lon="5.74246">
        <ele>787.20001220703</ele>
        <time>2021-09-11T05:14:24.000Z</time>
      </trkpt>
      <trkpt lat="45.24478" lon="5.74246">
        <ele>786.79998779297</ele>
        <time>2021-09-11T05:14:25.000Z</time>
      </trkpt>
      <trkpt lat="45.24479" lon="5.74246">
        <ele>786.59997558594</ele>
        <time>2021-09-11T05:14:26.000Z</time>
      </trkpt>
      <trkpt lat="45.24481" lon="5.74247">
        <ele>786.20001220703</ele>
        <time>2021-09-11T05:14:27.000Z</time>
      </trkpt>
      <trkpt lat="45.24482" lon="5.74247">
        <ele>785.40002441406</ele>
        <time>2021-09-11T05:14:29.000Z</time>
      </trkpt>
      <trkpt lat="45.24483" lon="5.74245">
        <ele>784.20001220703</ele>
        <time>2021-09-11T05:14:32.000Z</time>
      </trkpt>
      <trkpt lat="45.24482" lon="5.74243">
        <ele>783.20001220703</ele>
        <time>2021-09-11T05:14:34.000Z</time>
      </trkpt>
      <trkpt lat="45.24482" lon="5.74237">
        <ele>782</ele>
        <time>2021-09-11T05:14:38.000Z</time>
      </trkpt>
      <trkpt lat="45.24482" lon="5.74235">
        <ele>781.40002441406</ele>
        <time>2021-09-11T05:14:40.000Z</time>
      </trkpt>
      <trkpt lat="45.24482" lon="5.7423">
        <ele>781.20001220703</ele>
        <time>2021-09-11T05:14:42.000Z</time>
      </trkpt>
      <trkpt lat="45.24483" lon="5.74226">
        <ele>780.79998779297</ele>
        <time>2021-09-11T05:14:44.000Z</time>
      </trkpt>
      <trkpt lat="45.24483" lon="5.74224">
        <ele>780.59997558594</ele>
        <time>2021-09-11T05:14:45.000Z</time>
      </trkpt>
      <trkpt lat="45.24482" lon="5.74221">
        <ele>780.59997558594</ele>
        <time>2021-09-11T05:14:46.000Z</time>
      </trkpt>
      <trkpt lat="45.2448" lon="5.74213">
        <ele>780.40002441406</ele>
        <time>2021-09-11T05:14:49.000Z</time>
      </trkpt>
      <trkpt lat="45.2448" lon="5.7421">
        <ele>780.20001220703</ele>
        <time>2021-09-11T05:14:50.000Z</time>
      </trkpt>
      <trkpt lat="45.24479" lon="5.74203">
        <ele>780</ele>
        <time>2021-09-11T05:14:52.000Z</time>
      </trkpt>
      <trkpt lat="45.24479" lon="5.742">
        <ele>780</ele>
        <time>2021-09-11T05:14:53.000Z</time>
      </trkpt>
      <trkpt lat="45.2448" lon="5.74197">
        <ele>779.79998779297</ele>
        <time>2021-09-11T05:14:54.000Z</time>
      </trkpt>
      <trkpt lat="45.2448" lon="5.74195">
        <ele>779.79998779297</ele>
        <time>2021-09-11T05:14:55.000Z</time>
      </trkpt>
      <trkpt lat="45.2448" lon="5.74192">
        <ele>779.79998779297</ele>
        <time>2021-09-11T05:14:56.000Z</time>
      </trkpt>
      <trkpt lat="45.24479" lon="5.74186">
        <ele>779.59997558594</ele>
        <time>2021-09-11T05:14:58.000Z</time>
      </trkpt>
      <trkpt lat="45.24479" lon="5.74183">
        <ele>779.40002441406</ele>
        <time>2021-09-11T05:14:59.000Z</time>
      </trkpt>
      <trkpt lat="45.24478" lon="5.74176">
        <ele>778.59997558594</ele>
        <time>2021-09-11T05:15:02.000Z</time>
      </trkpt>
      <trkpt lat="45.24475" lon="5.74167">
        <ele>777.79998779297</ele>
        <time>2021-09-11T05:15:05.000Z</time>
      </trkpt>
      <trkpt lat="45.24473" lon="5.74163">
        <ele>777.40002441406</ele>
        <time>2021-09-11T05:15:06.000Z</time>
      </trkpt>
      <trkpt lat="45.2447" lon="5.74154">
        <ele>776.40002441406</ele>
        <time>2021-09-11T05:15:09.000Z</time>
      </trkpt>
      <trkpt lat="45.24466" lon="5.74148">
        <ele>775.40002441406</ele>
        <time>2021-09-11T05:15:11.000Z</time>
      </trkpt>
      <trkpt lat="45.24462" lon="5.74137">
        <ele>774.40002441406</ele>
        <time>2021-09-11T05:15:14.000Z</time>
      </trkpt>
      <trkpt lat="45.24459" lon="5.74129">
        <ele>773.59997558594</ele>
        <time>2021-09-11T05:15:16.000Z</time>
      </trkpt>
      <trkpt lat="45.24456" lon="5.74121">
        <ele>772.79998779297</ele>
        <time>2021-09-11T05:15:18.000Z</time>
      </trkpt>
      <trkpt lat="45.24454" lon="5.74111">
        <ele>771.79998779297</ele>
        <time>2021-09-11T05:15:21.000Z</time>
      </trkpt>
      <trkpt lat="45.24454" lon="5.74104">
        <ele>771</ele>
        <time>2021-09-11T05:15:23.000Z</time>
      </trkpt>
      <trkpt lat="45.24453" lon="5.741">
        <ele>770.59997558594</ele>
        <time>2021-09-11T05:15:24.000Z</time>
      </trkpt>
      <trkpt lat="45.24451" lon="5.7408">
        <ele>769.59997558594</ele>
        <time>2021-09-11T05:15:29.000Z</time>
      </trkpt>
      <trkpt lat="45.24448" lon="5.74059">
        <ele>768.59997558594</ele>
        <time>2021-09-11T05:15:35.000Z</time>
      </trkpt>
      <trkpt lat="45.24441" lon="5.7404">
        <ele>767.40002441406</ele>
        <time>2021-09-11T05:15:40.000Z</time>
      </trkpt>
      <trkpt lat="45.24434" lon="5.74014">
        <ele>766.59997558594</ele>
        <time>2021-09-11T05:15:47.000Z</time>
      </trkpt>
      <trkpt lat="45.24431" lon="5.74001">
        <ele>766.40002441406</ele>
        <time>2021-09-11T05:15:50.000Z</time>
      </trkpt>
      <trkpt lat="45.24429" lon="5.73989">
        <ele>766.20001220703</ele>
        <time>2021-09-11T05:15:53.000Z</time>
      </trkpt>
      <trkpt lat="45.24424" lon="5.73969">
        <ele>766.79998779297</ele>
        <time>2021-09-11T05:15:58.000Z</time>
      </trkpt>
      <trkpt lat="45.2442" lon="5.73958">
        <ele>767.40002441406</ele>
        <time>2021-09-11T05:16:01.000Z</time>
      </trkpt>
      <trkpt lat="45.24418" lon="5.73944">
        <ele>768</ele>
        <time>2021-09-11T05:16:05.000Z</time>
      </trkpt>
      <trkpt lat="45.24417" lon="5.73941">
        <ele>768.40002441406</ele>
        <time>2021-09-11T05:16:06.000Z</time>
      </trkpt>
      <trkpt lat="45.24415" lon="5.73925">
        <ele>768.79998779297</ele>
        <time>2021-09-11T05:16:10.000Z</time>
      </trkpt>
      <trkpt lat="45.24416" lon="5.73922">
        <ele>768.79998779297</ele>
        <time>2021-09-11T05:16:11.000Z</time>
      </trkpt>
      <trkpt lat="45.24417" lon="5.73918">
        <ele>768.59997558594</ele>
        <time>2021-09-11T05:16:16.000Z</time>
      </trkpt>
      <trkpt lat="45.24418" lon="5.73922">
        <ele>768.20001220703</ele>
        <time>2021-09-11T05:16:23.000Z</time>
      </trkpt>
      <trkpt lat="45.24418" lon="5.73922">
        <ele>768.20001220703</ele>
        <time>2021-09-11T05:16:24.000Z</time>
      </trkpt>
      <trkpt lat="45.24416" lon="5.7392">
        <ele>768.20001220703</ele>
        <time>2021-09-11T05:16:37.000Z</time>
      </trkpt>
      <trkpt lat="45.24416" lon="5.7392">
        <ele>768.40002441406</ele>
        <time>2021-09-11T05:16:41.000Z</time>
      </trkpt>
      <trkpt lat="45.24416" lon="5.7392">
        <ele>768.40002441406</ele>
        <time>2021-09-11T05:16:43.000Z</time>
      </trkpt>
      <trkpt lat="45.24415" lon="5.73919">
        <ele>768.20001220703</ele>
        <time>2021-09-11T05:16:46.000Z</time>
      </trkpt>
      <trkpt lat="45.24415" lon="5.73928">
        <ele>768.20001220703</ele>
        <time>2021-09-11T05:16:50.000Z</time>
      </trkpt>
      <trkpt lat="45.24414" lon="5.7393">
        <ele>768.20001220703</ele>
        <time>2021-09-11T05:16:51.000Z</time>
      </trkpt>
      <trkpt lat="45.24416" lon="5.73947">
        <ele>768</ele>
        <time>2021-09-11T05:16:57.000Z</time>
      </trkpt>
      <trkpt lat="45.24417" lon="5.7395">
        <ele>767.79998779297</ele>
        <time>2021-09-11T05:16:58.000Z</time>
      </trkpt>
      <trkpt lat="45.24421" lon="5.7396">
        <ele>767.40002441406</ele>
        <time>2021-09-11T05:17:01.000Z</time>
      </trkpt>
      <trkpt lat="45.24426" lon="5.73972">
        <ele>766.59997558594</ele>
        <time>2021-09-11T05:17:04.000Z</time>
      </trkpt>
      <trkpt lat="45.2443" lon="5.73983">
        <ele>766.20001220703</ele>
        <time>2021-09-11T05:17:07.000Z</time>
      </trkpt>
      <trkpt lat="45.24436" lon="5.73996">
        <ele>766</ele>
        <time>2021-09-11T05:17:10.000Z</time>
      </trkpt>
      <trkpt lat="45.24445" lon="5.74016">
        <ele>766.40002441406</ele>
        <time>2021-09-11T05:17:16.000Z</time>
      </trkpt>
      <trkpt lat="45.24453" lon="5.74035">
        <ele>767</ele>
        <time>2021-09-11T05:17:22.000Z</time>
      </trkpt>
      <trkpt lat="45.24454" lon="5.7404">
        <ele>767.20001220703</ele>
        <time>2021-09-11T05:17:24.000Z</time>
      </trkpt>
      <trkpt lat="45.24461" lon="5.74051">
        <ele>767.79998779297</ele>
        <time>2021-09-11T05:17:27.000Z</time>
      </trkpt>
      <trkpt lat="45.24464" lon="5.74058">
        <ele>768.40002441406</ele>
        <time>2021-09-11T05:17:29.000Z</time>
      </trkpt>
      <trkpt lat="45.24464" lon="5.74066">
        <ele>768.59997558594</ele>
        <time>2021-09-11T05:17:31.000Z</time>
      </trkpt>
      <trkpt lat="45.24467" lon="5.74084">
        <ele>769.59997558594</ele>
        <time>2021-09-11T05:17:36.000Z</time>
      </trkpt>
      <trkpt lat="45.2447" lon="5.74091">
        <ele>769.79998779297</ele>
        <time>2021-09-11T05:17:38.000Z</time>
      </trkpt>
      <trkpt lat="45.24474" lon="5.74097">
        <ele>770.20001220703</ele>
        <time>2021-09-11T05:17:40.000Z</time>
      </trkpt>
      <trkpt lat="45.24481" lon="5.74106">
        <ele>770.79998779297</ele>
        <time>2021-09-11T05:17:43.000Z</time>
      </trkpt>
      <trkpt lat="45.24484" lon="5.74115">
        <ele>771.59997558594</ele>
        <time>2021-09-11T05:17:46.000Z</time>
      </trkpt>
      <trkpt lat="45.24484" lon="5.74119">
        <ele>771.79998779297</ele>
        <time>2021-09-11T05:17:47.000Z</time>
      </trkpt>
      <trkpt lat="45.24484" lon="5.7413">
        <ele>773</ele>
        <time>2021-09-11T05:17:51.000Z</time>
      </trkpt>
      <trkpt lat="45.24479" lon="5.74137">
        <ele>773.59997558594</ele>
        <time>2021-09-11T05:17:54.000Z</time>
      </trkpt>
      <trkpt lat="45.24478" lon="5.74138">
        <ele>773.59997558594</ele>
        <time>2021-09-11T05:17:55.000Z</time>
      </trkpt>
      <trkpt lat="45.24476" lon="5.74137">
        <ele>773.59997558594</ele>
        <time>2021-09-11T05:17:57.000Z</time>
      </trkpt>
      <trkpt lat="45.24474" lon="5.74138">
        <ele>773.59997558594</ele>
        <time>2021-09-11T05:18:00.000Z</time>
      </trkpt>
      <trkpt lat="45.2447" lon="5.7414">
        <ele>773.40002441406</ele>
        <time>2021-09-11T05:18:04.000Z</time>
      </trkpt>
      <trkpt lat="45.24466" lon="5.7414">
        <ele>773.40002441406</ele>
        <time>2021-09-11T05:18:10.000Z</time>
      </trkpt>
      <trkpt lat="45.24464" lon="5.74138">
        <ele>773.40002441406</ele>
        <time>2021-09-11T05:18:16.000Z</time>
      </trkpt>
      <trkpt lat="45.24463" lon="5.74138">
        <ele>773.40002441406</ele>
        <time>2021-09-11T05:18:18.000Z</time>
      </trkpt>
      <trkpt lat="45.24463" lon="5.74138">
        <ele>773.20001220703</ele>
        <time>2021-09-11T05:18:20.000Z</time>
      </trkpt>
      <trkpt lat="45.24463" lon="5.74139">
        <ele>773.20001220703</ele>
        <time>2021-09-11T05:18:23.000Z</time>
      </trkpt>
      <trkpt lat="45.24463" lon="5.74139">
        <ele>773.20001220703</ele>
        <time>2021-09-11T05:18:25.000Z</time>
      </trkpt>
      <trkpt lat="45.24463" lon="5.74139">
        <ele>773.20001220703</ele>
        <time>2021-09-11T05:18:26.000Z</time>
      </trkpt>
      <trkpt lat="45.24463" lon="5.74139">
        <ele>773.20001220703</ele>
        <time>2021-09-11T05:18:28.000Z</time>
      </trkpt>
      <trkpt lat="45.24463" lon="5.74139">
        <ele>773.20001220703</ele>
        <time>2021-09-11T05:18:29.000Z</time>
      </trkpt>
      <trkpt lat="45.24463" lon="5.74139">
        <ele>773.20001220703</ele>
        <time>2021-09-11T05:18:34.000Z</time>
      </trkpt>
      <trkpt lat="45.24463" lon="5.74138">
        <ele>773.20001220703</ele>
        <time>2021-09-11T05:18:37.000Z</time>
      </trkpt>
      <trkpt lat="45.24462" lon="5.74138">
        <ele>773</ele>
        <time>2021-09-11T05:18:46.000Z</time>
      </trkpt>
      <trkpt lat="45.24465" lon="5.74142">
        <ele>774.20001220703</ele>
        <time>2021-09-11T05:19:01.000Z</time>
      </trkpt>
      <trkpt lat="45.24466" lon="5.74144">
        <ele>774.59997558594</ele>
        <time>2021-09-11T05:19:02.000Z</time>
      </trkpt>
      <trkpt lat="45.24467" lon="5.74147">
        <ele>774.79998779297</ele>
        <time>2021-09-11T05:19:03.000Z</time>
      </trkpt>
      <trkpt lat="45.2447" lon="5.74152">
        <ele>775.40002441406</ele>
        <time>2021-09-11T05:19:05.000Z</time>
      </trkpt>
      <trkpt lat="45.24474" lon="5.74159">
        <ele>776.20001220703</ele>
        <time>2021-09-11T05:19:08.000Z</time>
      </trkpt>
      <trkpt lat="45.24475" lon="5.74161">
        <ele>776.59997558594</ele>
        <time>2021-09-11T05:19:09.000Z</time>
      </trkpt>
      <trkpt lat="45.24478" lon="5.74167">
        <ele>777.20001220703</ele>
        <time>2021-09-11T05:19:12.000Z</time>
      </trkpt>
      <trkpt lat="45.24479" lon="5.7417">
        <ele>777.59997558594</ele>
        <time>2021-09-11T05:19:13.000Z</time>
      </trkpt>
      <trkpt lat="45.2448" lon="5.74173">
        <ele>778</ele>
        <time>2021-09-11T05:19:14.000Z</time>
      </trkpt>
      <trkpt lat="45.24481" lon="5.74178">
        <ele>778.59997558594</ele>
        <time>2021-09-11T05:19:16.000Z</time>
      </trkpt>
      <trkpt lat="45.24482" lon="5.74181">
        <ele>778.79998779297</ele>
        <time>2021-09-11T05:19:17.000Z</time>
      </trkpt>
      <trkpt lat="45.24484" lon="5.74187">
        <ele>779.20001220703</ele>
        <time>2021-09-11T05:19:19.000Z</time>
      </trkpt>
      <trkpt lat="45.24484" lon="5.7419">
        <ele>779.20001220703</ele>
        <time>2021-09-11T05:19:20.000Z</time>
      </trkpt>
      <trkpt lat="45.24483" lon="5.74195">
        <ele>779.40002441406</ele>
        <time>2021-09-11T05:19:22.000Z</time>
      </trkpt>
      <trkpt lat="45.24483" lon="5.742">
        <ele>779.59997558594</ele>
        <time>2021-09-11T05:19:24.000Z</time>
      </trkpt>
      <trkpt lat="45.24484" lon="5.74202">
        <ele>779.59997558594</ele>
        <time>2021-09-11T05:19:25.000Z</time>
      </trkpt>
      <trkpt lat="45.24487" lon="5.74208">
        <ele>779.79998779297</ele>
        <time>2021-09-11T05:19:27.000Z</time>
      </trkpt>
      <trkpt lat="45.2449" lon="5.74221">
        <ele>780.20001220703</ele>
        <time>2021-09-11T05:19:31.000Z</time>
      </trkpt>
      <trkpt lat="45.24496" lon="5.7423">
        <ele>780.40002441406</ele>
        <time>2021-09-11T05:19:35.000Z</time>
      </trkpt>
      <trkpt lat="45.24497" lon="5.74236">
        <ele>780.59997558594</ele>
        <time>2021-09-11T05:19:37.000Z</time>
      </trkpt>
      <trkpt lat="45.24497" lon="5.74238">
        <ele>780.79998779297</ele>
        <time>2021-09-11T05:19:38.000Z</time>
      </trkpt>
      <trkpt lat="45.24498" lon="5.74246">
        <ele>781.79998779297</ele>
        <time>2021-09-11T05:19:41.000Z</time>
      </trkpt>
      <trkpt lat="45.24498" lon="5.74248">
        <ele>782</ele>
        <time>2021-09-11T05:19:42.000Z</time>
      </trkpt>
      <trkpt lat="45.24498" lon="5.7425">
        <ele>782.40002441406</ele>
        <time>2021-09-11T05:19:43.000Z</time>
      </trkpt>
      <trkpt lat="45.24497" lon="5.74252">
        <ele>782.59997558594</ele>
        <time>2021-09-11T05:19:44.000Z</time>
      </trkpt>
      <trkpt lat="45.24497" lon="5.74254">
        <ele>783</ele>
        <time>2021-09-11T05:19:45.000Z</time>
      </trkpt>
      <trkpt lat="45.24498" lon="5.74256">
        <ele>783.20001220703</ele>
        <time>2021-09-11T05:19:46.000Z</time>
      </trkpt>
      <trkpt lat="45.24499" lon="5.74258">
        <ele>783.79998779297</ele>
        <time>2021-09-11T05:19:47.000Z</time>
      </trkpt>
      <trkpt lat="45.24499" lon="5.74261">
        <ele>784.20001220703</ele>
        <time>2021-09-11T05:19:48.000Z</time>
      </trkpt>
      <trkpt lat="45.24497" lon="5.74264">
        <ele>784.59997558594</ele>
        <time>2021-09-11T05:19:50.000Z</time>
      </trkpt>
      <trkpt lat="45.24497" lon="5.74266">
        <ele>785.20001220703</ele>
        <time>2021-09-11T05:19:52.000Z</time>
      </trkpt>
      <trkpt lat="45.24496" lon="5.74266">
        <ele>785.40002441406</ele>
        <time>2021-09-11T05:19:53.000Z</time>
      </trkpt>
      <trkpt lat="45.24492" lon="5.74266">
        <ele>786.40002441406</ele>
        <time>2021-09-11T05:19:56.000Z</time>
      </trkpt>
      <trkpt lat="45.24491" lon="5.74265">
        <ele>786.79998779297</ele>
        <time>2021-09-11T05:19:57.000Z</time>
      </trkpt>
      <trkpt lat="45.2449" lon="5.74265">
        <ele>787.20001220703</ele>
        <time>2021-09-11T05:19:58.000Z</time>
      </trkpt>
      <trkpt lat="45.24489" lon="5.74266">
        <ele>787.59997558594</ele>
        <time>2021-09-11T05:20:00.000Z</time>
      </trkpt>
      <trkpt lat="45.24487" lon="5.74267">
        <ele>788.40002441406</ele>
        <time>2021-09-11T05:20:02.000Z</time>
      </trkpt>
      <trkpt lat="45.24486" lon="5.74268">
        <ele>788.59997558594</ele>
        <time>2021-09-11T05:20:04.000Z</time>
      </trkpt>
      <trkpt lat="45.24485" lon="5.74269">
        <ele>789.20001220703</ele>
        <time>2021-09-11T05:20:05.000Z</time>
      </trkpt>
      <trkpt lat="45.24482" lon="5.74269">
        <ele>789.79998779297</ele>
        <time>2021-09-11T05:20:07.000Z</time>
      </trkpt>
      <trkpt lat="45.24478" lon="5.74268">
        <ele>790.79998779297</ele>
        <time>2021-09-11T05:20:10.000Z</time>
      </trkpt>
      <trkpt lat="45.24477" lon="5.74267">
        <ele>791.20001220703</ele>
        <time>2021-09-11T05:20:11.000Z</time>
      </trkpt>
      <trkpt lat="45.24474" lon="5.74264">
        <ele>792.20001220703</ele>
        <time>2021-09-11T05:20:15.000Z</time>
      </trkpt>
      <trkpt lat="45.24474" lon="5.74264">
        <ele>792.40002441406</ele>
        <time>2021-09-11T05:20:16.000Z</time>
      </trkpt>
      <trkpt lat="45.24472" lon="5.74263">
        <ele>793</ele>
        <time>2021-09-11T05:20:18.000Z</time>
      </trkpt>
      <trkpt lat="45.24471" lon="5.74263">
        <ele>793</ele>
        <time>2021-09-11T05:20:19.000Z</time>
      </trkpt>
      <trkpt lat="45.24471" lon="5.74263">
        <ele>793.20001220703</ele>
        <time>2021-09-11T05:20:20.000Z</time>
      </trkpt>
      <trkpt lat="45.2447" lon="5.74263">
        <ele>793.79998779297</ele>
        <time>2021-09-11T05:20:21.000Z</time>
      </trkpt>
      <trkpt lat="45.24468" lon="5.74262">
        <ele>794.40002441406</ele>
        <time>2021-09-11T05:20:23.000Z</time>
      </trkpt>
      <trkpt lat="45.24462" lon="5.74257">
        <ele>795.20001220703</ele>
        <time>2021-09-11T05:20:27.000Z</time>
      </trkpt>
      <trkpt lat="45.24461" lon="5.74256">
        <ele>795.40002441406</ele>
        <time>2021-09-11T05:20:28.000Z</time>
      </trkpt>
      <trkpt lat="45.2446" lon="5.74254">
        <ele>795.59997558594</ele>
        <time>2021-09-11T05:20:29.000Z</time>
      </trkpt>
      <trkpt lat="45.24458" lon="5.74252">
        <ele>796</ele>
        <time>2021-09-11T05:20:30.000Z</time>
      </trkpt>
      <trkpt lat="45.24455" lon="5.7425">
        <ele>796.40002441406</ele>
        <time>2021-09-11T05:20:32.000Z</time>
      </trkpt>
      <trkpt lat="45.24448" lon="5.74246">
        <ele>797.20001220703</ele>
        <time>2021-09-11T05:20:36.000Z</time>
      </trkpt>
      <trkpt lat="45.24446" lon="5.74244">
        <ele>797.20001220703</ele>
        <time>2021-09-11T05:20:37.000Z</time>
      </trkpt>
      <trkpt lat="45.24443" lon="5.74241">
        <ele>797.20001220703</ele>
        <time>2021-09-11T05:20:40.000Z</time>
      </trkpt>
      <trkpt lat="45.24439" lon="5.74237">
        <ele>797.40002441406</ele>
        <time>2021-09-11T05:20:42.000Z</time>
      </trkpt>
      <trkpt lat="45.24432" lon="5.74231">
        <ele>797.59997558594</ele>
        <time>2021-09-11T05:20:45.000Z</time>
      </trkpt>
      <trkpt lat="45.24424" lon="5.74226">
        <ele>797.79998779297</ele>
        <time>2021-09-11T05:20:49.000Z</time>
      </trkpt>
      <trkpt lat="45.24421" lon="5.74221">
        <ele>798.20001220703</ele>
        <time>2021-09-11T05:20:52.000Z</time>
      </trkpt>
      <trkpt lat="45.2442" lon="5.7422">
        <ele>798.40002441406</ele>
        <time>2021-09-11T05:20:53.000Z</time>
      </trkpt>
      <trkpt lat="45.24419" lon="5.74219">
        <ele>798.59997558594</ele>
        <time>2021-09-11T05:20:54.000Z</time>
      </trkpt>
      <trkpt lat="45.2442" lon="5.74216">
        <ele>799.20001220703</ele>
        <time>2021-09-11T05:20:56.000Z</time>
      </trkpt>
      <trkpt lat="45.24416" lon="5.74212">
        <ele>799.79998779297</ele>
        <time>2021-09-11T05:20:59.000Z</time>
      </trkpt>
      <trkpt lat="45.24413" lon="5.74209">
        <ele>800.59997558594</ele>
        <time>2021-09-11T05:21:01.000Z</time>
      </trkpt>
      <trkpt lat="45.24412" lon="5.74208">
        <ele>800.79998779297</ele>
        <time>2021-09-11T05:21:02.000Z</time>
      </trkpt>
      <trkpt lat="45.24411" lon="5.74206">
        <ele>801.20001220703</ele>
        <time>2021-09-11T05:21:03.000Z</time>
      </trkpt>
      <trkpt lat="45.24405" lon="5.74201">
        <ele>802</ele>
        <time>2021-09-11T05:21:07.000Z</time>
      </trkpt>
      <trkpt lat="45.24399" lon="5.74195">
        <ele>802.79998779297</ele>
        <time>2021-09-11T05:21:12.000Z</time>
      </trkpt>
      <trkpt lat="45.24398" lon="5.74193">
        <ele>803</ele>
        <time>2021-09-11T05:21:13.000Z</time>
      </trkpt>
      <trkpt lat="45.24396" lon="5.74192">
        <ele>803.20001220703</ele>
        <time>2021-09-11T05:21:14.000Z</time>
      </trkpt>
      <trkpt lat="45.24385" lon="5.74186">
        <ele>804.20001220703</ele>
        <time>2021-09-11T05:21:19.000Z</time>
      </trkpt>
      <trkpt lat="45.24382" lon="5.74184">
        <ele>804.59997558594</ele>
        <time>2021-09-11T05:21:21.000Z</time>
      </trkpt>
      <trkpt lat="45.24378" lon="5.7418">
        <ele>805.40002441406</ele>
        <time>2021-09-11T05:21:24.000Z</time>
      </trkpt>
      <trkpt lat="45.24374" lon="5.74176">
        <ele>806.20001220703</ele>
        <time>2021-09-11T05:21:27.000Z</time>
      </trkpt>
      <trkpt lat="45.24372" lon="5.74174">
        <ele>806.40002441406</ele>
        <time>2021-09-11T05:21:29.000Z</time>
      </trkpt>
      <trkpt lat="45.24366" lon="5.74166">
        <ele>807.40002441406</ele>
        <time>2021-09-11T05:21:34.000Z</time>
      </trkpt>
      <trkpt lat="45.24365" lon="5.74164">
        <ele>807.59997558594</ele>
        <time>2021-09-11T05:21:35.000Z</time>
      </trkpt>
      <trkpt lat="45.24364" lon="5.74159">
        <ele>808.20001220703</ele>
        <time>2021-09-11T05:21:37.000Z</time>
      </trkpt>
      <trkpt lat="45.24362" lon="5.74155">
        <ele>808.79998779297</ele>
        <time>2021-09-11T05:21:39.000Z</time>
      </trkpt>
      <trkpt lat="45.24359" lon="5.74149">
        <ele>810</ele>
        <time>2021-09-11T05:21:43.000Z</time>
      </trkpt>
      <trkpt lat="45.24358" lon="5.74146">
        <ele>810.20001220703</ele>
        <time>2021-09-11T05:21:44.000Z</time>
      </trkpt>
      <trkpt lat="45.24358" lon="5.74144">
        <ele>810.40002441406</ele>
        <time>2021-09-11T05:21:45.000Z</time>
      </trkpt>
      <trkpt lat="45.24355" lon="5.7414">
        <ele>811.20001220703</ele>
        <time>2021-09-11T05:21:47.000Z</time>
      </trkpt>
      <trkpt lat="45.24353" lon="5.74138">
        <ele>811.40002441406</ele>
        <time>2021-09-11T05:21:48.000Z</time>
      </trkpt>
      <trkpt lat="45.24351" lon="5.74137">
        <ele>811.79998779297</ele>
        <time>2021-09-11T05:21:49.000Z</time>
      </trkpt>
      <trkpt lat="45.24347" lon="5.74135">
        <ele>812.40002441406</ele>
        <time>2021-09-11T05:21:51.000Z</time>
      </trkpt>
      <trkpt lat="45.24342" lon="5.74131">
        <ele>813.40002441406</ele>
        <time>2021-09-11T05:21:55.000Z</time>
      </trkpt>
      <trkpt lat="45.2434" lon="5.74131">
        <ele>813.79998779297</ele>
        <time>2021-09-11T05:21:56.000Z</time>
      </trkpt>
      <trkpt lat="45.24339" lon="5.74129">
        <ele>814</ele>
        <time>2021-09-11T05:21:57.000Z</time>
      </trkpt>
      <trkpt lat="45.24336" lon="5.74128">
        <ele>814.40002441406</ele>
        <time>2021-09-11T05:21:59.000Z</time>
      </trkpt>
      <trkpt lat="45.24335" lon="5.74127">
        <ele>814.79998779297</ele>
        <time>2021-09-11T05:22:00.000Z</time>
      </trkpt>
      <trkpt lat="45.24333" lon="5.74123">
        <ele>815</ele>
        <time>2021-09-11T05:22:02.000Z</time>
      </trkpt>
      <trkpt lat="45.2433" lon="5.74119">
        <ele>815.59997558594</ele>
        <time>2021-09-11T05:22:04.000Z</time>
      </trkpt>
      <trkpt lat="45.24328" lon="5.74117">
        <ele>816</ele>
        <time>2021-09-11T05:22:06.000Z</time>
      </trkpt>
      <trkpt lat="45.24325" lon="5.74115">
        <ele>816.79998779297</ele>
        <time>2021-09-11T05:22:08.000Z</time>
      </trkpt>
      <trkpt lat="45.2432" lon="5.7411">
        <ele>817.79998779297</ele>
        <time>2021-09-11T05:22:12.000Z</time>
      </trkpt>
      <trkpt lat="45.24318" lon="5.74108">
        <ele>818.20001220703</ele>
        <time>2021-09-11T05:22:14.000Z</time>
      </trkpt>
      <trkpt lat="45.24316" lon="5.74105">
        <ele>818.79998779297</ele>
        <time>2021-09-11T05:22:16.000Z</time>
      </trkpt>
      <trkpt lat="45.24314" lon="5.74103">
        <ele>819</ele>
        <time>2021-09-11T05:22:18.000Z</time>
      </trkpt>
      <trkpt lat="45.24312" lon="5.74102">
        <ele>819.79998779297</ele>
        <time>2021-09-11T05:22:20.000Z</time>
      </trkpt>
      <trkpt lat="45.24311" lon="5.74101">
        <ele>820</ele>
        <time>2021-09-11T05:22:21.000Z</time>
      </trkpt>
      <trkpt lat="45.2431" lon="5.741">
        <ele>820.20001220703</ele>
        <time>2021-09-11T05:22:22.000Z</time>
      </trkpt>
      <trkpt lat="45.24308" lon="5.74099">
        <ele>820.79998779297</ele>
        <time>2021-09-11T05:22:23.000Z</time>
      </trkpt>
      <trkpt lat="45.24305" lon="5.74098">
        <ele>821.40002441406</ele>
        <time>2021-09-11T05:22:26.000Z</time>
      </trkpt>
      <trkpt lat="45.24301" lon="5.74096">
        <ele>822.20001220703</ele>
        <time>2021-09-11T05:22:28.000Z</time>
      </trkpt>
      <trkpt lat="45.243" lon="5.74094">
        <ele>822.20001220703</ele>
        <time>2021-09-11T05:22:29.000Z</time>
      </trkpt>
      <trkpt lat="45.243" lon="5.74093">
        <ele>822.59997558594</ele>
        <time>2021-09-11T05:22:30.000Z</time>
      </trkpt>
      <trkpt lat="45.24291" lon="5.74086">
        <ele>823.79998779297</ele>
        <time>2021-09-11T05:22:36.000Z</time>
      </trkpt>
      <trkpt lat="45.24285" lon="5.7408">
        <ele>825</ele>
        <time>2021-09-11T05:22:40.000Z</time>
      </trkpt>
      <trkpt lat="45.24282" lon="5.74076">
        <ele>825.20001220703</ele>
        <time>2021-09-11T05:22:43.000Z</time>
      </trkpt>
      <trkpt lat="45.24277" lon="5.74068">
        <ele>825.40002441406</ele>
        <time>2021-09-11T05:22:47.000Z</time>
      </trkpt>
      <trkpt lat="45.24274" lon="5.74065">
        <ele>825.59997558594</ele>
        <time>2021-09-11T05:22:49.000Z</time>
      </trkpt>
      <trkpt lat="45.24272" lon="5.74063">
        <ele>826</ele>
        <time>2021-09-11T05:22:50.000Z</time>
      </trkpt>
      <trkpt lat="45.24269" lon="5.74061">
        <ele>826.20001220703</ele>
        <time>2021-09-11T05:22:52.000Z</time>
      </trkpt>
      <trkpt lat="45.24265" lon="5.74059">
        <ele>826.79998779297</ele>
        <time>2021-09-11T05:22:55.000Z</time>
      </trkpt>
      <trkpt lat="45.24262" lon="5.74056">
        <ele>827</ele>
        <time>2021-09-11T05:22:57.000Z</time>
      </trkpt>
      <trkpt lat="45.24254" lon="5.74048">
        <ele>827</ele>
        <time>2021-09-11T05:23:01.000Z</time>
      </trkpt>
      <trkpt lat="45.24252" lon="5.74046">
        <ele>827.20001220703</ele>
        <time>2021-09-11T05:23:02.000Z</time>
      </trkpt>
      <trkpt lat="45.24248" lon="5.74041">
        <ele>827.40002441406</ele>
        <time>2021-09-11T05:23:05.000Z</time>
      </trkpt>
      <trkpt lat="45.24246" lon="5.74038">
        <ele>827.59997558594</ele>
        <time>2021-09-11T05:23:07.000Z</time>
      </trkpt>
      <trkpt lat="45.24244" lon="5.74036">
        <ele>827.59997558594</ele>
        <time>2021-09-11T05:23:08.000Z</time>
      </trkpt>
      <trkpt lat="45.24241" lon="5.74032">
        <ele>827.79998779297</ele>
        <time>2021-09-11T05:23:10.000Z</time>
      </trkpt>
      <trkpt lat="45.2424" lon="5.74029">
        <ele>828</ele>
        <time>2021-09-11T05:23:11.000Z</time>
      </trkpt>
      <trkpt lat="45.2423" lon="5.74014">
        <ele>828.59997558594</ele>
        <time>2021-09-11T05:23:16.000Z</time>
      </trkpt>
      <trkpt lat="45.24223" lon="5.74004">
        <ele>829.40002441406</ele>
        <time>2021-09-11T05:23:19.000Z</time>
      </trkpt>
      <trkpt lat="45.24221" lon="5.73999">
        <ele>830</ele>
        <time>2021-09-11T05:23:21.000Z</time>
      </trkpt>
      <trkpt lat="45.24212" lon="5.73987">
        <ele>830.59997558594</ele>
        <time>2021-09-11T05:23:26.000Z</time>
      </trkpt>
      <trkpt lat="45.24209" lon="5.73984">
        <ele>831</ele>
        <time>2021-09-11T05:23:28.000Z</time>
      </trkpt>
      <trkpt lat="45.24205" lon="5.73976">
        <ele>831.40002441406</ele>
        <time>2021-09-11T05:23:31.000Z</time>
      </trkpt>
      <trkpt lat="45.24203" lon="5.73973">
        <ele>831.59997558594</ele>
        <time>2021-09-11T05:23:33.000Z</time>
      </trkpt>
      <trkpt lat="45.24202" lon="5.73971">
        <ele>831.79998779297</ele>
        <time>2021-09-11T05:23:34.000Z</time>
      </trkpt>
      <trkpt lat="45.24202" lon="5.7397">
        <ele>832</ele>
        <time>2021-09-11T05:23:35.000Z</time>
      </trkpt>
      <trkpt lat="45.24198" lon="5.73963">
        <ele>832.20001220703</ele>
        <time>2021-09-11T05:23:39.000Z</time>
      </trkpt>
      <trkpt lat="45.24197" lon="5.73963">
        <ele>832.20001220703</ele>
        <time>2021-09-11T05:23:40.000Z</time>
      </trkpt>
      <trkpt lat="45.24194" lon="5.73961">
        <ele>832.79998779297</ele>
        <time>2021-09-11T05:23:42.000Z</time>
      </trkpt>
      <trkpt lat="45.24192" lon="5.73959">
        <ele>833</ele>
        <time>2021-09-11T05:23:44.000Z</time>
      </trkpt>
      <trkpt lat="45.24189" lon="5.73956">
        <ele>833.40002441406</ele>
        <time>2021-09-11T05:23:46.000Z</time>
      </trkpt>
      <trkpt lat="45.24187" lon="5.73954">
        <ele>833.79998779297</ele>
        <time>2021-09-11T05:23:48.000Z</time>
      </trkpt>
      <trkpt lat="45.24183" lon="5.73951">
        <ele>834.20001220703</ele>
        <time>2021-09-11T05:23:50.000Z</time>
      </trkpt>
      <trkpt lat="45.24174" lon="5.73949">
        <ele>835</ele>
        <time>2021-09-11T05:23:53.000Z</time>
      </trkpt>
      <trkpt lat="45.24169" lon="5.73948">
        <ele>835.59997558594</ele>
        <time>2021-09-11T05:23:56.000Z</time>
      </trkpt>
      <trkpt lat="45.24166" lon="5.73948">
        <ele>836</ele>
        <time>2021-09-11T05:23:58.000Z</time>
      </trkpt>
      <trkpt lat="45.24158" lon="5.73947">
        <ele>837.20001220703</ele>
        <time>2021-09-11T05:24:02.000Z</time>
      </trkpt>
      <trkpt lat="45.24153" lon="5.73946">
        <ele>837.59997558594</ele>
        <time>2021-09-11T05:24:04.000Z</time>
      </trkpt>
      <trkpt lat="45.24146" lon="5.73946">
        <ele>838.40002441406</ele>
        <time>2021-09-11T05:24:07.000Z</time>
      </trkpt>
      <trkpt lat="45.24139" lon="5.73947">
        <ele>839.40002441406</ele>
        <time>2021-09-11T05:24:11.000Z</time>
      </trkpt>
      <trkpt lat="45.24134" lon="5.73947">
        <ele>840.40002441406</ele>
        <time>2021-09-11T05:24:14.000Z</time>
      </trkpt>
      <trkpt lat="45.24133" lon="5.73946">
        <ele>840.79998779297</ele>
        <time>2021-09-11T05:24:15.000Z</time>
      </trkpt>
      <trkpt lat="45.24131" lon="5.73946">
        <ele>841.20001220703</ele>
        <time>2021-09-11T05:24:17.000Z</time>
      </trkpt>
      <trkpt lat="45.2413" lon="5.73946">
        <ele>841.40002441406</ele>
        <time>2021-09-11T05:24:18.000Z</time>
      </trkpt>
      <trkpt lat="45.24129" lon="5.73947">
        <ele>841.79998779297</ele>
        <time>2021-09-11T05:24:19.000Z</time>
      </trkpt>
      <trkpt lat="45.24127" lon="5.73947">
        <ele>842</ele>
        <time>2021-09-11T05:24:21.000Z</time>
      </trkpt>
      <trkpt lat="45.24125" lon="5.73947">
        <ele>842.40002441406</ele>
        <time>2021-09-11T05:24:22.000Z</time>
      </trkpt>
      <trkpt lat="45.24121" lon="5.73947">
        <ele>842.79998779297</ele>
        <time>2021-09-11T05:24:24.000Z</time>
      </trkpt>
      <trkpt lat="45.24121" lon="5.73948">
        <ele>843</ele>
        <time>2021-09-11T05:24:25.000Z</time>
      </trkpt>
      <trkpt lat="45.24119" lon="5.73948">
        <ele>843.20001220703</ele>
        <time>2021-09-11T05:24:26.000Z</time>
      </trkpt>
      <trkpt lat="45.24118" lon="5.73949">
        <ele>843.59997558594</ele>
        <time>2021-09-11T05:24:27.000Z</time>
      </trkpt>
      <trkpt lat="45.24116" lon="5.7395">
        <ele>843.79998779297</ele>
        <time>2021-09-11T05:24:29.000Z</time>
      </trkpt>
      <trkpt lat="45.24116" lon="5.7395">
        <ele>844</ele>
        <time>2021-09-11T05:24:30.000Z</time>
      </trkpt>
      <trkpt lat="45.24108" lon="5.73954">
        <ele>845</ele>
        <time>2021-09-11T05:24:35.000Z</time>
      </trkpt>
      <trkpt lat="45.24106" lon="5.73955">
        <ele>845.40002441406</ele>
        <time>2021-09-11T05:24:36.000Z</time>
      </trkpt>
      <trkpt lat="45.24102" lon="5.73956">
        <ele>846.20001220703</ele>
        <time>2021-09-11T05:24:39.000Z</time>
      </trkpt>
      <trkpt lat="45.24098" lon="5.73958">
        <ele>846.59997558594</ele>
        <time>2021-09-11T05:24:41.000Z</time>
      </trkpt>
      <trkpt lat="45.24096" lon="5.73958">
        <ele>846.79998779297</ele>
        <time>2021-09-11T05:24:42.000Z</time>
      </trkpt>
      <trkpt lat="45.24094" lon="5.73959">
        <ele>847.20001220703</ele>
        <time>2021-09-11T05:24:43.000Z</time>
      </trkpt>
      <trkpt lat="45.24088" lon="5.73964">
        <ele>848.40002441406</ele>
        <time>2021-09-11T05:24:47.000Z</time>
      </trkpt>
      <trkpt lat="45.24087" lon="5.73965">
        <ele>848.79998779297</ele>
        <time>2021-09-11T05:24:48.000Z</time>
      </trkpt>
      <trkpt lat="45.24082" lon="5.73967">
        <ele>849.20001220703</ele>
        <time>2021-09-11T05:24:51.000Z</time>
      </trkpt>
      <trkpt lat="45.24081" lon="5.73968">
        <ele>849.59997558594</ele>
        <time>2021-09-11T05:24:52.000Z</time>
      </trkpt>
      <trkpt lat="45.24077" lon="5.73971">
        <ele>850.40002441406</ele>
        <time>2021-09-11T05:24:55.000Z</time>
      </trkpt>
      <trkpt lat="45.24075" lon="5.73972">
        <ele>851</ele>
        <time>2021-09-11T05:24:57.000Z</time>
      </trkpt>
      <trkpt lat="45.24074" lon="5.73973">
        <ele>851.40002441406</ele>
        <time>2021-09-11T05:24:58.000Z</time>
      </trkpt>
      <trkpt lat="45.2407" lon="5.73977">
        <ele>852.20001220703</ele>
        <time>2021-09-11T05:25:02.000Z</time>
      </trkpt>
      <trkpt lat="45.24069" lon="5.73977">
        <ele>852.40002441406</ele>
        <time>2021-09-11T05:25:03.000Z</time>
      </trkpt>
      <trkpt lat="45.24063" lon="5.7398">
        <ele>853.40002441406</ele>
        <time>2021-09-11T05:25:08.000Z</time>
      </trkpt>
      <trkpt lat="45.24063" lon="5.73981">
        <ele>853.59997558594</ele>
        <time>2021-09-11T05:25:09.000Z</time>
      </trkpt>
      <trkpt lat="45.24056" lon="5.73985">
        <ele>854.40002441406</ele>
        <time>2021-09-11T05:25:13.000Z</time>
      </trkpt>
      <trkpt lat="45.24055" lon="5.73987">
        <ele>854.79998779297</ele>
        <time>2021-09-11T05:25:14.000Z</time>
      </trkpt>
      <trkpt lat="45.24054" lon="5.73989">
        <ele>855</ele>
        <time>2021-09-11T05:25:15.000Z</time>
      </trkpt>
      <trkpt lat="45.24053" lon="5.73991">
        <ele>855.40002441406</ele>
        <time>2021-09-11T05:25:17.000Z</time>
      </trkpt>
      <trkpt lat="45.24052" lon="5.73994">
        <ele>855.59997558594</ele>
        <time>2021-09-11T05:25:19.000Z</time>
      </trkpt>
      <trkpt lat="45.24051" lon="5.73995">
        <ele>856</ele>
        <time>2021-09-11T05:25:20.000Z</time>
      </trkpt>
      <trkpt lat="45.24047" lon="5.74001">
        <ele>856.59997558594</ele>
        <time>2021-09-11T05:25:24.000Z</time>
      </trkpt>
      <trkpt lat="45.24046" lon="5.74002">
        <ele>857.20001220703</ele>
        <time>2021-09-11T05:25:25.000Z</time>
      </trkpt>
      <trkpt lat="45.24043" lon="5.74009">
        <ele>857.59997558594</ele>
        <time>2021-09-11T05:25:28.000Z</time>
      </trkpt>
      <trkpt lat="45.24042" lon="5.74013">
        <ele>858.59997558594</ele>
        <time>2021-09-11T05:25:31.000Z</time>
      </trkpt>
      <trkpt lat="45.24041" lon="5.74014">
        <ele>858.79998779297</ele>
        <time>2021-09-11T05:25:32.000Z</time>
      </trkpt>
      <trkpt lat="45.24038" lon="5.74016">
        <ele>859.20001220703</ele>
        <time>2021-09-11T05:25:34.000Z</time>
      </trkpt>
      <trkpt lat="45.24034" lon="5.7402">
        <ele>859.79998779297</ele>
        <time>2021-09-11T05:25:37.000Z</time>
      </trkpt>
      <trkpt lat="45.24032" lon="5.74021">
        <ele>860</ele>
        <time>2021-09-11T05:25:38.000Z</time>
      </trkpt>
      <trkpt lat="45.24029" lon="5.74025">
        <ele>860.59997558594</ele>
        <time>2021-09-11T05:25:41.000Z</time>
      </trkpt>
      <trkpt lat="45.24028" lon="5.74026">
        <ele>860.79998779297</ele>
        <time>2021-09-11T05:25:42.000Z</time>
      </trkpt>
      <trkpt lat="45.24027" lon="5.74028">
        <ele>861.20001220703</ele>
        <time>2021-09-11T05:25:44.000Z</time>
      </trkpt>
      <trkpt lat="45.24024" lon="5.74031">
        <ele>862</ele>
        <time>2021-09-11T05:25:47.000Z</time>
      </trkpt>
      <trkpt lat="45.24023" lon="5.74033">
        <ele>862.59997558594</ele>
        <time>2021-09-11T05:25:49.000Z</time>
      </trkpt>
      <trkpt lat="45.24021" lon="5.74034">
        <ele>863</ele>
        <time>2021-09-11T05:25:51.000Z</time>
      </trkpt>
      <trkpt lat="45.24019" lon="5.74036">
        <ele>863.40002441406</ele>
        <time>2021-09-11T05:25:53.000Z</time>
      </trkpt>
      <trkpt lat="45.24016" lon="5.74039">
        <ele>864</ele>
        <time>2021-09-11T05:25:56.000Z</time>
      </trkpt>
      <trkpt lat="45.24016" lon="5.74041">
        <ele>864.40002441406</ele>
        <time>2021-09-11T05:25:57.000Z</time>
      </trkpt>
      <trkpt lat="45.24013" lon="5.74042">
        <ele>865.20001220703</ele>
        <time>2021-09-11T05:26:00.000Z</time>
      </trkpt>
      <trkpt lat="45.24013" lon="5.74042">
        <ele>865.40002441406</ele>
        <time>2021-09-11T05:26:01.000Z</time>
      </trkpt>
      <trkpt lat="45.24007" lon="5.74047">
        <ele>866.20001220703</ele>
        <time>2021-09-11T05:26:05.000Z</time>
      </trkpt>
      <trkpt lat="45.24006" lon="5.7405">
        <ele>867</ele>
        <time>2021-09-11T05:26:08.000Z</time>
      </trkpt>
      <trkpt lat="45.24004" lon="5.74051">
        <ele>867.40002441406</ele>
        <time>2021-09-11T05:26:09.000Z</time>
      </trkpt>
      <trkpt lat="45.24001" lon="5.74054">
        <ele>867.79998779297</ele>
        <time>2021-09-11T05:26:11.000Z</time>
      </trkpt>
      <trkpt lat="45.23999" lon="5.74058">
        <ele>868.59997558594</ele>
        <time>2021-09-11T05:26:14.000Z</time>
      </trkpt>
      <trkpt lat="45.23997" lon="5.74061">
        <ele>869.40002441406</ele>
        <time>2021-09-11T05:26:17.000Z</time>
      </trkpt>
      <trkpt lat="45.23996" lon="5.74062">
        <ele>869.59997558594</ele>
        <time>2021-09-11T05:26:18.000Z</time>
      </trkpt>
      <trkpt lat="45.23993" lon="5.74067">
        <ele>870.20001220703</ele>
        <time>2021-09-11T05:26:20.000Z</time>
      </trkpt>
      <trkpt lat="45.23991" lon="5.74069">
        <ele>870.40002441406</ele>
        <time>2021-09-11T05:26:21.000Z</time>
      </trkpt>
      <trkpt lat="45.23989" lon="5.74071">
        <ele>870.79998779297</ele>
        <time>2021-09-11T05:26:22.000Z</time>
      </trkpt>
      <trkpt lat="45.23986" lon="5.74074">
        <ele>871.79998779297</ele>
        <time>2021-09-11T05:26:25.000Z</time>
      </trkpt>
      <trkpt lat="45.23985" lon="5.74075">
        <ele>872</ele>
        <time>2021-09-11T05:26:26.000Z</time>
      </trkpt>
      <trkpt lat="45.23981" lon="5.74076">
        <ele>872.79998779297</ele>
        <time>2021-09-11T05:26:29.000Z</time>
      </trkpt>
      <trkpt lat="45.23979" lon="5.7408">
        <ele>874</ele>
        <time>2021-09-11T05:26:32.000Z</time>
      </trkpt>
      <trkpt lat="45.23978" lon="5.74081">
        <ele>874.20001220703</ele>
        <time>2021-09-11T05:26:33.000Z</time>
      </trkpt>
      <trkpt lat="45.23975" lon="5.74086">
        <ele>875</ele>
        <time>2021-09-11T05:26:36.000Z</time>
      </trkpt>
      <trkpt lat="45.23975" lon="5.74088">
        <ele>875.40002441406</ele>
        <time>2021-09-11T05:26:37.000Z</time>
      </trkpt>
      <trkpt lat="45.23972" lon="5.74092">
        <ele>876</ele>
        <time>2021-09-11T05:26:40.000Z</time>
      </trkpt>
      <trkpt lat="45.23972" lon="5.74093">
        <ele>876.20001220703</ele>
        <time>2021-09-11T05:26:41.000Z</time>
      </trkpt>
      <trkpt lat="45.23971" lon="5.74094">
        <ele>876.59997558594</ele>
        <time>2021-09-11T05:26:42.000Z</time>
      </trkpt>
      <trkpt lat="45.23969" lon="5.74096">
        <ele>877.20001220703</ele>
        <time>2021-09-11T05:26:44.000Z</time>
      </trkpt>
      <trkpt lat="45.23969" lon="5.74096">
        <ele>877.59997558594</ele>
        <time>2021-09-11T05:26:45.000Z</time>
      </trkpt>
      <trkpt lat="45.23967" lon="5.74098">
        <ele>877.79998779297</ele>
        <time>2021-09-11T05:26:46.000Z</time>
      </trkpt>
      <trkpt lat="45.23967" lon="5.741">
        <ele>878</ele>
        <time>2021-09-11T05:26:47.000Z</time>
      </trkpt>
      <trkpt lat="45.23967" lon="5.74101">
        <ele>878.59997558594</ele>
        <time>2021-09-11T05:26:48.000Z</time>
      </trkpt>
      <trkpt lat="45.23967" lon="5.74102">
        <ele>879</ele>
        <time>2021-09-11T05:26:49.000Z</time>
      </trkpt>
      <trkpt lat="45.23965" lon="5.74103">
        <ele>879.40002441406</ele>
        <time>2021-09-11T05:26:51.000Z</time>
      </trkpt>
      <trkpt lat="45.23962" lon="5.74104">
        <ele>879.79998779297</ele>
        <time>2021-09-11T05:26:53.000Z</time>
      </trkpt>
      <trkpt lat="45.23958" lon="5.74107">
        <ele>880.79998779297</ele>
        <time>2021-09-11T05:26:56.000Z</time>
      </trkpt>
      <trkpt lat="45.23956" lon="5.74108">
        <ele>881.20001220703</ele>
        <time>2021-09-11T05:26:57.000Z</time>
      </trkpt>
      <trkpt lat="45.23953" lon="5.7411">
        <ele>881.79998779297</ele>
        <time>2021-09-11T05:27:00.000Z</time>
      </trkpt>
      <trkpt lat="45.23952" lon="5.7411">
        <ele>882</ele>
        <time>2021-09-11T05:27:01.000Z</time>
      </trkpt>
      <trkpt lat="45.23949" lon="5.74109">
        <ele>882.40002441406</ele>
        <time>2021-09-11T05:27:03.000Z</time>
      </trkpt>
      <trkpt lat="45.23947" lon="5.7411">
        <ele>883</ele>
        <time>2021-09-11T05:27:05.000Z</time>
      </trkpt>
      <trkpt lat="45.23945" lon="5.7411">
        <ele>884.59997558594</ele>
        <time>2021-09-11T05:27:08.000Z</time>
      </trkpt>
      <trkpt lat="45.23941" lon="5.7411">
        <ele>885.20001220703</ele>
        <time>2021-09-11T05:27:10.000Z</time>
      </trkpt>
      <trkpt lat="45.23939" lon="5.7411">
        <ele>885.40002441406</ele>
        <time>2021-09-11T05:27:11.000Z</time>
      </trkpt>
      <trkpt lat="45.23938" lon="5.74111">
        <ele>886</ele>
        <time>2021-09-11T05:27:12.000Z</time>
      </trkpt>
      <trkpt lat="45.23936" lon="5.7411">
        <ele>886.20001220703</ele>
        <time>2021-09-11T05:27:13.000Z</time>
      </trkpt>
      <trkpt lat="45.2393" lon="5.74113">
        <ele>887.20001220703</ele>
        <time>2021-09-11T05:27:17.000Z</time>
      </trkpt>
      <trkpt lat="45.23927" lon="5.74113">
        <ele>887.79998779297</ele>
        <time>2021-09-11T05:27:19.000Z</time>
      </trkpt>
      <trkpt lat="45.23926" lon="5.74114">
        <ele>888.40002441406</ele>
        <time>2021-09-11T05:27:21.000Z</time>
      </trkpt>
      <trkpt lat="45.23923" lon="5.74112">
        <ele>889.40002441406</ele>
        <time>2021-09-11T05:27:25.000Z</time>
      </trkpt>
      <trkpt lat="45.23922" lon="5.74112">
        <ele>889.59997558594</ele>
        <time>2021-09-11T05:27:26.000Z</time>
      </trkpt>
      <trkpt lat="45.2392" lon="5.74108">
        <ele>890.59997558594</ele>
        <time>2021-09-11T05:27:29.000Z</time>
      </trkpt>
      <trkpt lat="45.23919" lon="5.74104">
        <ele>891.40002441406</ele>
        <time>2021-09-11T05:27:32.000Z</time>
      </trkpt>
      <trkpt lat="45.23919" lon="5.74103">
        <ele>891.59997558594</ele>
        <time>2021-09-11T05:27:33.000Z</time>
      </trkpt>
      <trkpt lat="45.23919" lon="5.74102">
        <ele>891.79998779297</ele>
        <time>2021-09-11T05:27:34.000Z</time>
      </trkpt>
      <trkpt lat="45.23918" lon="5.74101">
        <ele>892.79998779297</ele>
        <time>2021-09-11T05:27:37.000Z</time>
      </trkpt>
      <trkpt lat="45.23917" lon="5.741">
        <ele>893</ele>
        <time>2021-09-11T05:27:38.000Z</time>
      </trkpt>
      <trkpt lat="45.23916" lon="5.741">
        <ele>893.40002441406</ele>
        <time>2021-09-11T05:27:40.000Z</time>
      </trkpt>
      <trkpt lat="45.23914" lon="5.74096">
        <ele>894</ele>
        <time>2021-09-11T05:27:42.000Z</time>
      </trkpt>
      <trkpt lat="45.23911" lon="5.74092">
        <ele>895</ele>
        <time>2021-09-11T05:27:45.000Z</time>
      </trkpt>
      <trkpt lat="45.23911" lon="5.74091">
        <ele>895.40002441406</ele>
        <time>2021-09-11T05:27:46.000Z</time>
      </trkpt>
      <trkpt lat="45.23906" lon="5.74089">
        <ele>896</ele>
        <time>2021-09-11T05:27:49.000Z</time>
      </trkpt>
      <trkpt lat="45.23904" lon="5.74088">
        <ele>896.40002441406</ele>
        <time>2021-09-11T05:27:51.000Z</time>
      </trkpt>
      <trkpt lat="45.23902" lon="5.74087">
        <ele>897.20001220703</ele>
        <time>2021-09-11T05:27:53.000Z</time>
      </trkpt>
      <trkpt lat="45.23901" lon="5.74087">
        <ele>897.40002441406</ele>
        <time>2021-09-11T05:27:54.000Z</time>
      </trkpt>
      <trkpt lat="45.23897" lon="5.74087">
        <ele>898.20001220703</ele>
        <time>2021-09-11T05:27:58.000Z</time>
      </trkpt>
      <trkpt lat="45.23896" lon="5.74087">
        <ele>898.59997558594</ele>
        <time>2021-09-11T05:28:00.000Z</time>
      </trkpt>
      <trkpt lat="45.23896" lon="5.74087">
        <ele>898.79998779297</ele>
        <time>2021-09-11T05:28:01.000Z</time>
      </trkpt>
      <trkpt lat="45.23893" lon="5.74087">
        <ele>899.79998779297</ele>
        <time>2021-09-11T05:28:03.000Z</time>
      </trkpt>
      <trkpt lat="45.2389" lon="5.74087">
        <ele>900.40002441406</ele>
        <time>2021-09-11T05:28:06.000Z</time>
      </trkpt>
      <trkpt lat="45.23885" lon="5.74088">
        <ele>901.40002441406</ele>
        <time>2021-09-11T05:28:09.000Z</time>
      </trkpt>
      <trkpt lat="45.23882" lon="5.74087">
        <ele>902.20001220703</ele>
        <time>2021-09-11T05:28:13.000Z</time>
      </trkpt>
      <trkpt lat="45.23881" lon="5.74087">
        <ele>902.59997558594</ele>
        <time>2021-09-11T05:28:14.000Z</time>
      </trkpt>
      <trkpt lat="45.2388" lon="5.74089">
        <ele>903</ele>
        <time>2021-09-11T05:28:17.000Z</time>
      </trkpt>
      <trkpt lat="45.23878" lon="5.74091">
        <ele>903.20001220703</ele>
        <time>2021-09-11T05:28:19.000Z</time>
      </trkpt>
      <trkpt lat="45.23877" lon="5.74092">
        <ele>903.79998779297</ele>
        <time>2021-09-11T05:28:21.000Z</time>
      </trkpt>
      <trkpt lat="45.23876" lon="5.74093">
        <ele>904</ele>
        <time>2021-09-11T05:28:22.000Z</time>
      </trkpt>
      <trkpt lat="45.23873" lon="5.74094">
        <ele>904.40002441406</ele>
        <time>2021-09-11T05:28:25.000Z</time>
      </trkpt>
      <trkpt lat="45.23871" lon="5.74095">
        <ele>904.79998779297</ele>
        <time>2021-09-11T05:28:27.000Z</time>
      </trkpt>
      <trkpt lat="45.23868" lon="5.74097">
        <ele>905.79998779297</ele>
        <time>2021-09-11T05:28:30.000Z</time>
      </trkpt>
      <trkpt lat="45.23867" lon="5.74098">
        <ele>906</ele>
        <time>2021-09-11T05:28:31.000Z</time>
      </trkpt>
      <trkpt lat="45.23865" lon="5.74097">
        <ele>906.20001220703</ele>
        <time>2021-09-11T05:28:32.000Z</time>
      </trkpt>
      <trkpt lat="45.23863" lon="5.74099">
        <ele>906.79998779297</ele>
        <time>2021-09-11T05:28:34.000Z</time>
      </trkpt>
      <trkpt lat="45.23862" lon="5.741">
        <ele>907.20001220703</ele>
        <time>2021-09-11T05:28:35.000Z</time>
      </trkpt>
      <trkpt lat="45.23862" lon="5.74105">
        <ele>907.59997558594</ele>
        <time>2021-09-11T05:28:37.000Z</time>
      </trkpt>
      <trkpt lat="45.23862" lon="5.74109">
        <ele>908.40002441406</ele>
        <time>2021-09-11T05:28:40.000Z</time>
      </trkpt>
      <trkpt lat="45.2386" lon="5.74118">
        <ele>909.59997558594</ele>
        <time>2021-09-11T05:28:45.000Z</time>
      </trkpt>
      <trkpt lat="45.23857" lon="5.74123">
        <ele>910.79998779297</ele>
        <time>2021-09-11T05:28:49.000Z</time>
      </trkpt>
      <trkpt lat="45.23856" lon="5.74124">
        <ele>911</ele>
        <time>2021-09-11T05:28:50.000Z</time>
      </trkpt>
      <trkpt lat="45.23855" lon="5.74127">
        <ele>912</ele>
        <time>2021-09-11T05:28:53.000Z</time>
      </trkpt>
      <trkpt lat="45.23855" lon="5.74128">
        <ele>912.40002441406</ele>
        <time>2021-09-11T05:28:55.000Z</time>
      </trkpt>
      <trkpt lat="45.23856" lon="5.74129">
        <ele>912.79998779297</ele>
        <time>2021-09-11T05:28:56.000Z</time>
      </trkpt>
      <trkpt lat="45.23857" lon="5.7413">
        <ele>913.40002441406</ele>
        <time>2021-09-11T05:28:57.000Z</time>
      </trkpt>
      <trkpt lat="45.23857" lon="5.74135">
        <ele>914.20001220703</ele>
        <time>2021-09-11T05:29:00.000Z</time>
      </trkpt>
      <trkpt lat="45.23857" lon="5.74136">
        <ele>914.59997558594</ele>
        <time>2021-09-11T05:29:01.000Z</time>
      </trkpt>
      <trkpt lat="45.23857" lon="5.74138">
        <ele>914.79998779297</ele>
        <time>2021-09-11T05:29:02.000Z</time>
      </trkpt>
      <trkpt lat="45.23858" lon="5.74141">
        <ele>915.20001220703</ele>
        <time>2021-09-11T05:29:04.000Z</time>
      </trkpt>
      <trkpt lat="45.23858" lon="5.74143">
        <ele>915.79998779297</ele>
        <time>2021-09-11T05:29:06.000Z</time>
      </trkpt>
      <trkpt lat="45.23859" lon="5.74148">
        <ele>916.59997558594</ele>
        <time>2021-09-11T05:29:09.000Z</time>
      </trkpt>
      <trkpt lat="45.23859" lon="5.74149">
        <ele>916.79998779297</ele>
        <time>2021-09-11T05:29:10.000Z</time>
      </trkpt>
      <trkpt lat="45.23858" lon="5.74154">
        <ele>918</ele>
        <time>2021-09-11T05:29:13.000Z</time>
      </trkpt>
      <trkpt lat="45.23857" lon="5.74156">
        <ele>918.40002441406</ele>
        <time>2021-09-11T05:29:15.000Z</time>
      </trkpt>
      <trkpt lat="45.23857" lon="5.74161">
        <ele>919</ele>
        <time>2021-09-11T05:29:18.000Z</time>
      </trkpt>
      <trkpt lat="45.23857" lon="5.74165">
        <ele>920.20001220703</ele>
        <time>2021-09-11T05:29:21.000Z</time>
      </trkpt>
      <trkpt lat="45.23856" lon="5.74171">
        <ele>921.40002441406</ele>
        <time>2021-09-11T05:29:26.000Z</time>
      </trkpt>
      <trkpt lat="45.23859" lon="5.74175">
        <ele>922.40002441406</ele>
        <time>2021-09-11T05:29:29.000Z</time>
      </trkpt>
      <trkpt lat="45.23858" lon="5.74178">
        <ele>923.20001220703</ele>
        <time>2021-09-11T05:29:32.000Z</time>
      </trkpt>
      <trkpt lat="45.23857" lon="5.74179">
        <ele>923.79998779297</ele>
        <time>2021-09-11T05:29:34.000Z</time>
      </trkpt>
      <trkpt lat="45.23856" lon="5.74181">
        <ele>924.20001220703</ele>
        <time>2021-09-11T05:29:36.000Z</time>
      </trkpt>
      <trkpt lat="45.23855" lon="5.74183">
        <ele>924.79998779297</ele>
        <time>2021-09-11T05:29:38.000Z</time>
      </trkpt>
      <trkpt lat="45.23855" lon="5.74187">
        <ele>926</ele>
        <time>2021-09-11T05:29:41.000Z</time>
      </trkpt>
      <trkpt lat="45.23856" lon="5.74189">
        <ele>926.20001220703</ele>
        <time>2021-09-11T05:29:42.000Z</time>
      </trkpt>
      <trkpt lat="45.23856" lon="5.74191">
        <ele>926.59997558594</ele>
        <time>2021-09-11T05:29:43.000Z</time>
      </trkpt>
      <trkpt lat="45.23855" lon="5.74193">
        <ele>927</ele>
        <time>2021-09-11T05:29:44.000Z</time>
      </trkpt>
      <trkpt lat="45.23853" lon="5.74195">
        <ele>927.59997558594</ele>
        <time>2021-09-11T05:29:46.000Z</time>
      </trkpt>
      <trkpt lat="45.23849" lon="5.74198">
        <ele>928.20001220703</ele>
        <time>2021-09-11T05:29:49.000Z</time>
      </trkpt>
      <trkpt lat="45.23849" lon="5.74198">
        <ele>928.40002441406</ele>
        <time>2021-09-11T05:29:50.000Z</time>
      </trkpt>
      <trkpt lat="45.2385" lon="5.742">
        <ele>929.40002441406</ele>
        <time>2021-09-11T05:29:52.000Z</time>
      </trkpt>
      <trkpt lat="45.23851" lon="5.74202">
        <ele>930</ele>
        <time>2021-09-11T05:29:54.000Z</time>
      </trkpt>
      <trkpt lat="45.23851" lon="5.74204">
        <ele>930.59997558594</ele>
        <time>2021-09-11T05:29:56.000Z</time>
      </trkpt>
      <trkpt lat="45.23851" lon="5.74207">
        <ele>931.20001220703</ele>
        <time>2021-09-11T05:29:59.000Z</time>
      </trkpt>
      <trkpt lat="45.23852" lon="5.7421">
        <ele>931.59997558594</ele>
        <time>2021-09-11T05:30:02.000Z</time>
      </trkpt>
      <trkpt lat="45.23853" lon="5.74212">
        <ele>932</ele>
        <time>2021-09-11T05:30:03.000Z</time>
      </trkpt>
      <trkpt lat="45.2385" lon="5.74219">
        <ele>932.79998779297</ele>
        <time>2021-09-11T05:30:07.000Z</time>
      </trkpt>
      <trkpt lat="45.23849" lon="5.74221">
        <ele>932.79998779297</ele>
        <time>2021-09-11T05:30:08.000Z</time>
      </trkpt>
      <trkpt lat="45.23846" lon="5.74223">
        <ele>933.59997558594</ele>
        <time>2021-09-11T05:30:11.000Z</time>
      </trkpt>
      <trkpt lat="45.23845" lon="5.74225">
        <ele>933.79998779297</ele>
        <time>2021-09-11T05:30:12.000Z</time>
      </trkpt>
      <trkpt lat="45.23844" lon="5.74226">
        <ele>934</ele>
        <time>2021-09-11T05:30:13.000Z</time>
      </trkpt>
      <trkpt lat="45.23843" lon="5.74234">
        <ele>934.79998779297</ele>
        <time>2021-09-11T05:30:17.000Z</time>
      </trkpt>
      <trkpt lat="45.23844" lon="5.74236">
        <ele>935.40002441406</ele>
        <time>2021-09-11T05:30:20.000Z</time>
      </trkpt>
      <trkpt lat="45.23844" lon="5.74237">
        <ele>935.79998779297</ele>
        <time>2021-09-11T05:30:21.000Z</time>
      </trkpt>
      <trkpt lat="45.23844" lon="5.74237">
        <ele>936.20001220703</ele>
        <time>2021-09-11T05:30:22.000Z</time>
      </trkpt>
      <trkpt lat="45.23843" lon="5.74238">
        <ele>936.40002441406</ele>
        <time>2021-09-11T05:30:23.000Z</time>
      </trkpt>
      <trkpt lat="45.23843" lon="5.74242">
        <ele>936.79998779297</ele>
        <time>2021-09-11T05:30:25.000Z</time>
      </trkpt>
      <trkpt lat="45.2384" lon="5.74245">
        <ele>937.40002441406</ele>
        <time>2021-09-11T05:30:28.000Z</time>
      </trkpt>
      <trkpt lat="45.23837" lon="5.74248">
        <ele>938.20001220703</ele>
        <time>2021-09-11T05:30:31.000Z</time>
      </trkpt>
      <trkpt lat="45.23836" lon="5.74248">
        <ele>938.40002441406</ele>
        <time>2021-09-11T05:30:32.000Z</time>
      </trkpt>
      <trkpt lat="45.23835" lon="5.74249">
        <ele>938.59997558594</ele>
        <time>2021-09-11T05:30:33.000Z</time>
      </trkpt>
      <trkpt lat="45.23833" lon="5.74253">
        <ele>939.40002441406</ele>
        <time>2021-09-11T05:30:36.000Z</time>
      </trkpt>
      <trkpt lat="45.23832" lon="5.74255">
        <ele>939.79998779297</ele>
        <time>2021-09-11T05:30:37.000Z</time>
      </trkpt>
      <trkpt lat="45.23831" lon="5.74256">
        <ele>940.20001220703</ele>
        <time>2021-09-11T05:30:39.000Z</time>
      </trkpt>
      <trkpt lat="45.2383" lon="5.7426">
        <ele>941</ele>
        <time>2021-09-11T05:30:42.000Z</time>
      </trkpt>
      <trkpt lat="45.23828" lon="5.74263">
        <ele>941.20001220703</ele>
        <time>2021-09-11T05:30:44.000Z</time>
      </trkpt>
      <trkpt lat="45.23826" lon="5.74266">
        <ele>942</ele>
        <time>2021-09-11T05:30:47.000Z</time>
      </trkpt>
      <trkpt lat="45.23825" lon="5.74266">
        <ele>942.20001220703</ele>
        <time>2021-09-11T05:30:48.000Z</time>
      </trkpt>
      <trkpt lat="45.23825" lon="5.74268">
        <ele>943</ele>
        <time>2021-09-11T05:30:50.000Z</time>
      </trkpt>
      <trkpt lat="45.23825" lon="5.74269">
        <ele>943.40002441406</ele>
        <time>2021-09-11T05:30:51.000Z</time>
      </trkpt>
      <trkpt lat="45.23827" lon="5.74271">
        <ele>944</ele>
        <time>2021-09-11T05:30:54.000Z</time>
      </trkpt>
      <trkpt lat="45.23827" lon="5.74274">
        <ele>944.40002441406</ele>
        <time>2021-09-11T05:30:56.000Z</time>
      </trkpt>
      <trkpt lat="45.23829" lon="5.74276">
        <ele>945.40002441406</ele>
        <time>2021-09-11T05:30:58.000Z</time>
      </trkpt>
      <trkpt lat="45.2383" lon="5.74277">
        <ele>945.59997558594</ele>
        <time>2021-09-11T05:30:59.000Z</time>
      </trkpt>
      <trkpt lat="45.23831" lon="5.74281">
        <ele>946.59997558594</ele>
        <time>2021-09-11T05:31:03.000Z</time>
      </trkpt>
      <trkpt lat="45.23832" lon="5.74285">
        <ele>947.59997558594</ele>
        <time>2021-09-11T05:31:06.000Z</time>
      </trkpt>
      <trkpt lat="45.23833" lon="5.74288">
        <ele>948.20001220703</ele>
        <time>2021-09-11T05:31:08.000Z</time>
      </trkpt>
      <trkpt lat="45.23834" lon="5.74294">
        <ele>948.79998779297</ele>
        <time>2021-09-11T05:31:11.000Z</time>
      </trkpt>
      <trkpt lat="45.23833" lon="5.74302">
        <ele>949.40002441406</ele>
        <time>2021-09-11T05:31:15.000Z</time>
      </trkpt>
      <trkpt lat="45.23832" lon="5.74303">
        <ele>949.40002441406</ele>
        <time>2021-09-11T05:31:16.000Z</time>
      </trkpt>
      <trkpt lat="45.23831" lon="5.74309">
        <ele>949.79998779297</ele>
        <time>2021-09-11T05:31:19.000Z</time>
      </trkpt>
      <trkpt lat="45.2383" lon="5.74322">
        <ele>950.59997558594</ele>
        <time>2021-09-11T05:31:24.000Z</time>
      </trkpt>
      <trkpt lat="45.23829" lon="5.74323">
        <ele>950.79998779297</ele>
        <time>2021-09-11T05:31:25.000Z</time>
      </trkpt>
      <trkpt lat="45.23828" lon="5.74326">
        <ele>951</ele>
        <time>2021-09-11T05:31:26.000Z</time>
      </trkpt>
      <trkpt lat="45.23827" lon="5.7433">
        <ele>951.40002441406</ele>
        <time>2021-09-11T05:31:28.000Z</time>
      </trkpt>
      <trkpt lat="45.23826" lon="5.74335">
        <ele>951.79998779297</ele>
        <time>2021-09-11T05:31:30.000Z</time>
      </trkpt>
      <trkpt lat="45.23824" lon="5.74348">
        <ele>953</ele>
        <time>2021-09-11T05:31:36.000Z</time>
      </trkpt>
      <trkpt lat="45.23824" lon="5.74349">
        <ele>953.20001220703</ele>
        <time>2021-09-11T05:31:37.000Z</time>
      </trkpt>
      <trkpt lat="45.23823" lon="5.74351">
        <ele>953.79998779297</ele>
        <time>2021-09-11T05:31:39.000Z</time>
      </trkpt>
      <trkpt lat="45.23823" lon="5.74352">
        <ele>954.20001220703</ele>
        <time>2021-09-11T05:31:40.000Z</time>
      </trkpt>
      <trkpt lat="45.23822" lon="5.74356">
        <ele>954.59997558594</ele>
        <time>2021-09-11T05:31:42.000Z</time>
      </trkpt>
      <trkpt lat="45.23821" lon="5.74357">
        <ele>954.79998779297</ele>
        <time>2021-09-11T05:31:43.000Z</time>
      </trkpt>
      <trkpt lat="45.23821" lon="5.74359">
        <ele>955.20001220703</ele>
        <time>2021-09-11T05:31:44.000Z</time>
      </trkpt>
      <trkpt lat="45.23818" lon="5.74367">
        <ele>956.40002441406</ele>
        <time>2021-09-11T05:31:49.000Z</time>
      </trkpt>
      <trkpt lat="45.23815" lon="5.74373">
        <ele>957.59997558594</ele>
        <time>2021-09-11T05:31:54.000Z</time>
      </trkpt>
      <trkpt lat="45.23815" lon="5.74374">
        <ele>957.59997558594</ele>
        <time>2021-09-11T05:31:55.000Z</time>
      </trkpt>
      <trkpt lat="45.23815" lon="5.74381">
        <ele>958.59997558594</ele>
        <time>2021-09-11T05:31:58.000Z</time>
      </trkpt>
      <trkpt lat="45.23812" lon="5.74389">
        <ele>959.79998779297</ele>
        <time>2021-09-11T05:32:03.000Z</time>
      </trkpt>
      <trkpt lat="45.23811" lon="5.74391">
        <ele>959.79998779297</ele>
        <time>2021-09-11T05:32:04.000Z</time>
      </trkpt>
      <trkpt lat="45.2381" lon="5.74395">
        <ele>961</ele>
        <time>2021-09-11T05:32:07.000Z</time>
      </trkpt>
      <trkpt lat="45.23808" lon="5.744">
        <ele>961.79998779297</ele>
        <time>2021-09-11T05:32:11.000Z</time>
      </trkpt>
      <trkpt lat="45.23808" lon="5.74401">
        <ele>962</ele>
        <time>2021-09-11T05:32:12.000Z</time>
      </trkpt>
      <trkpt lat="45.23806" lon="5.74405">
        <ele>963.20001220703</ele>
        <time>2021-09-11T05:32:16.000Z</time>
      </trkpt>
      <trkpt lat="45.23803" lon="5.74409">
        <ele>964.20001220703</ele>
        <time>2021-09-11T05:32:19.000Z</time>
      </trkpt>
      <trkpt lat="45.23802" lon="5.74417">
        <ele>965.20001220703</ele>
        <time>2021-09-11T05:32:23.000Z</time>
      </trkpt>
      <trkpt lat="45.23802" lon="5.74419">
        <ele>965.59997558594</ele>
        <time>2021-09-11T05:32:24.000Z</time>
      </trkpt>
      <trkpt lat="45.23801" lon="5.74426">
        <ele>966.40002441406</ele>
        <time>2021-09-11T05:32:28.000Z</time>
      </trkpt>
      <trkpt lat="45.238" lon="5.74427">
        <ele>966.59997558594</ele>
        <time>2021-09-11T05:32:29.000Z</time>
      </trkpt>
      <trkpt lat="45.23799" lon="5.74428">
        <ele>966.79998779297</ele>
        <time>2021-09-11T05:32:30.000Z</time>
      </trkpt>
      <trkpt lat="45.23798" lon="5.74431">
        <ele>967.79998779297</ele>
        <time>2021-09-11T05:32:32.000Z</time>
      </trkpt>
      <trkpt lat="45.23797" lon="5.74435">
        <ele>968.20001220703</ele>
        <time>2021-09-11T05:32:34.000Z</time>
      </trkpt>
      <trkpt lat="45.23797" lon="5.7444">
        <ele>968.79998779297</ele>
        <time>2021-09-11T05:32:36.000Z</time>
      </trkpt>
      <trkpt lat="45.23796" lon="5.74442">
        <ele>968.79998779297</ele>
        <time>2021-09-11T05:32:37.000Z</time>
      </trkpt>
      <trkpt lat="45.23794" lon="5.74448">
        <ele>969.79998779297</ele>
        <time>2021-09-11T05:32:40.000Z</time>
      </trkpt>
      <trkpt lat="45.23793" lon="5.74456">
        <ele>970.79998779297</ele>
        <time>2021-09-11T05:32:45.000Z</time>
      </trkpt>
      <trkpt lat="45.23793" lon="5.74458">
        <ele>971.20001220703</ele>
        <time>2021-09-11T05:32:46.000Z</time>
      </trkpt>
      <trkpt lat="45.23792" lon="5.7446">
        <ele>972</ele>
        <time>2021-09-11T05:32:48.000Z</time>
      </trkpt>
      <trkpt lat="45.23789" lon="5.74466">
        <ele>973</ele>
        <time>2021-09-11T05:32:52.000Z</time>
      </trkpt>
      <trkpt lat="45.23788" lon="5.74473">
        <ele>974.20001220703</ele>
        <time>2021-09-11T05:32:57.000Z</time>
      </trkpt>
      <trkpt lat="45.23787" lon="5.74478">
        <ele>974.40002441406</ele>
        <time>2021-09-11T05:32:59.000Z</time>
      </trkpt>
      <trkpt lat="45.23784" lon="5.74485">
        <ele>975.20001220703</ele>
        <time>2021-09-11T05:33:03.000Z</time>
      </trkpt>
      <trkpt lat="45.23783" lon="5.74488">
        <ele>975.79998779297</ele>
        <time>2021-09-11T05:33:05.000Z</time>
      </trkpt>
      <trkpt lat="45.23781" lon="5.74493">
        <ele>976.40002441406</ele>
        <time>2021-09-11T05:33:09.000Z</time>
      </trkpt>
      <trkpt lat="45.23781" lon="5.74494">
        <ele>976.59997558594</ele>
        <time>2021-09-11T05:33:10.000Z</time>
      </trkpt>
      <trkpt lat="45.2378" lon="5.74496">
        <ele>977</ele>
        <time>2021-09-11T05:33:11.000Z</time>
      </trkpt>
      <trkpt lat="45.23775" lon="5.74501">
        <ele>977.79998779297</ele>
        <time>2021-09-11T05:33:14.000Z</time>
      </trkpt>
      <trkpt lat="45.23773" lon="5.74503">
        <ele>978</ele>
        <time>2021-09-11T05:33:15.000Z</time>
      </trkpt>
      <trkpt lat="45.2377" lon="5.74509">
        <ele>978.79998779297</ele>
        <time>2021-09-11T05:33:18.000Z</time>
      </trkpt>
      <trkpt lat="45.23769" lon="5.7451">
        <ele>979</ele>
        <time>2021-09-11T05:33:19.000Z</time>
      </trkpt>
      <trkpt lat="45.23762" lon="5.74514">
        <ele>980</ele>
        <time>2021-09-11T05:33:23.000Z</time>
      </trkpt>
      <trkpt lat="45.23761" lon="5.74516">
        <ele>980.20001220703</ele>
        <time>2021-09-11T05:33:24.000Z</time>
      </trkpt>
      <trkpt lat="45.23754" lon="5.74524">
        <ele>981</ele>
        <time>2021-09-11T05:33:29.000Z</time>
      </trkpt>
      <trkpt lat="45.23752" lon="5.74525">
        <ele>982</ele>
        <time>2021-09-11T05:33:31.000Z</time>
      </trkpt>
      <trkpt lat="45.23752" lon="5.74526">
        <ele>982.20001220703</ele>
        <time>2021-09-11T05:33:32.000Z</time>
      </trkpt>
      <trkpt lat="45.2375" lon="5.74532">
        <ele>982.79998779297</ele>
        <time>2021-09-11T05:33:35.000Z</time>
      </trkpt>
      <trkpt lat="45.23749" lon="5.74535">
        <ele>983</ele>
        <time>2021-09-11T05:33:36.000Z</time>
      </trkpt>
      <trkpt lat="45.23747" lon="5.74537">
        <ele>983.20001220703</ele>
        <time>2021-09-11T05:33:37.000Z</time>
      </trkpt>
      <trkpt lat="45.23742" lon="5.74547">
        <ele>983.79998779297</ele>
        <time>2021-09-11T05:33:43.000Z</time>
      </trkpt>
      <trkpt lat="45.23741" lon="5.74549">
        <ele>984</ele>
        <time>2021-09-11T05:33:44.000Z</time>
      </trkpt>
      <trkpt lat="45.2374" lon="5.7455">
        <ele>984.20001220703</ele>
        <time>2021-09-11T05:33:45.000Z</time>
      </trkpt>
      <trkpt lat="45.23737" lon="5.74553">
        <ele>984.59997558594</ele>
        <time>2021-09-11T05:33:47.000Z</time>
      </trkpt>
      <trkpt lat="45.23734" lon="5.74557">
        <ele>984.79998779297</ele>
        <time>2021-09-11T05:33:49.000Z</time>
      </trkpt>
      <trkpt lat="45.23727" lon="5.74564">
        <ele>985.20001220703</ele>
        <time>2021-09-11T05:33:53.000Z</time>
      </trkpt>
      <trkpt lat="45.23725" lon="5.74564">
        <ele>985.40002441406</ele>
        <time>2021-09-11T05:33:54.000Z</time>
      </trkpt>
      <trkpt lat="45.23721" lon="5.74564">
        <ele>985.40002441406</ele>
        <time>2021-09-11T05:33:56.000Z</time>
      </trkpt>
      <trkpt lat="45.2372" lon="5.74565">
        <ele>985.59997558594</ele>
        <time>2021-09-11T05:33:57.000Z</time>
      </trkpt>
      <trkpt lat="45.23712" lon="5.74569">
        <ele>986.40002441406</ele>
        <time>2021-09-11T05:34:02.000Z</time>
      </trkpt>
      <trkpt lat="45.23703" lon="5.74575">
        <ele>987.40002441406</ele>
        <time>2021-09-11T05:34:07.000Z</time>
      </trkpt>
      <trkpt lat="45.23699" lon="5.74578">
        <ele>988</ele>
        <time>2021-09-11T05:34:09.000Z</time>
      </trkpt>
      <trkpt lat="45.23694" lon="5.7458">
        <ele>988.59997558594</ele>
        <time>2021-09-11T05:34:12.000Z</time>
      </trkpt>
      <trkpt lat="45.23684" lon="5.74581">
        <ele>989.59997558594</ele>
        <time>2021-09-11T05:34:17.000Z</time>
      </trkpt>
      <trkpt lat="45.23676" lon="5.74584">
        <ele>990.40002441406</ele>
        <time>2021-09-11T05:34:21.000Z</time>
      </trkpt>
      <trkpt lat="45.23674" lon="5.74584">
        <ele>990.40002441406</ele>
        <time>2021-09-11T05:34:22.000Z</time>
      </trkpt>
      <trkpt lat="45.23672" lon="5.74584">
        <ele>990.79998779297</ele>
        <time>2021-09-11T05:34:23.000Z</time>
      </trkpt>
      <trkpt lat="45.23665" lon="5.74588">
        <ele>991.20001220703</ele>
        <time>2021-09-11T05:34:27.000Z</time>
      </trkpt>
      <trkpt lat="45.23663" lon="5.74589">
        <ele>991.40002441406</ele>
        <time>2021-09-11T05:34:28.000Z</time>
      </trkpt>
      <trkpt lat="45.23659" lon="5.74591">
        <ele>991.79998779297</ele>
        <time>2021-09-11T05:34:30.000Z</time>
      </trkpt>
      <trkpt lat="45.23653" lon="5.74593">
        <ele>992.40002441406</ele>
        <time>2021-09-11T05:34:33.000Z</time>
      </trkpt>
      <trkpt lat="45.23647" lon="5.74595">
        <ele>993</ele>
        <time>2021-09-11T05:34:36.000Z</time>
      </trkpt>
      <trkpt lat="45.23646" lon="5.74596">
        <ele>993.20001220703</ele>
        <time>2021-09-11T05:34:37.000Z</time>
      </trkpt>
      <trkpt lat="45.23644" lon="5.74597">
        <ele>993.40002441406</ele>
        <time>2021-09-11T05:34:38.000Z</time>
      </trkpt>
      <trkpt lat="45.23635" lon="5.74602">
        <ele>994.40002441406</ele>
        <time>2021-09-11T05:34:42.000Z</time>
      </trkpt>
      <trkpt lat="45.23626" lon="5.74609">
        <ele>995.59997558594</ele>
        <time>2021-09-11T05:34:47.000Z</time>
      </trkpt>
      <trkpt lat="45.23618" lon="5.74612">
        <ele>996.59997558594</ele>
        <time>2021-09-11T05:34:51.000Z</time>
      </trkpt>
      <trkpt lat="45.23612" lon="5.7461">
        <ele>997.20001220703</ele>
        <time>2021-09-11T05:34:54.000Z</time>
      </trkpt>
      <trkpt lat="45.23608" lon="5.74607">
        <ele>997.59997558594</ele>
        <time>2021-09-11T05:34:56.000Z</time>
      </trkpt>
      <trkpt lat="45.23601" lon="5.746">
        <ele>998.40002441406</ele>
        <time>2021-09-11T05:35:00.000Z</time>
      </trkpt>
      <trkpt lat="45.23598" lon="5.74595">
        <ele>999</ele>
        <time>2021-09-11T05:35:02.000Z</time>
      </trkpt>
      <trkpt lat="45.23595" lon="5.74588">
        <ele>999.40002441406</ele>
        <time>2021-09-11T05:35:05.000Z</time>
      </trkpt>
      <trkpt lat="45.23594" lon="5.74581">
        <ele>1000</ele>
        <time>2021-09-11T05:35:07.000Z</time>
      </trkpt>
      <trkpt lat="45.23588" lon="5.74567">
        <ele>1001</ele>
        <time>2021-09-11T05:35:12.000Z</time>
      </trkpt>
      <trkpt lat="45.23587" lon="5.74564">
        <ele>1001.200012207</ele>
        <time>2021-09-11T05:35:13.000Z</time>
      </trkpt>
      <trkpt lat="45.23584" lon="5.74553">
        <ele>1001.799987793</ele>
        <time>2021-09-11T05:35:17.000Z</time>
      </trkpt>
      <trkpt lat="45.23581" lon="5.74548">
        <ele>1002.4000244141</ele>
        <time>2021-09-11T05:35:19.000Z</time>
      </trkpt>
      <trkpt lat="45.23576" lon="5.74532">
        <ele>1003.200012207</ele>
        <time>2021-09-11T05:35:24.000Z</time>
      </trkpt>
      <trkpt lat="45.23575" lon="5.7453">
        <ele>1003.4000244141</ele>
        <time>2021-09-11T05:35:25.000Z</time>
      </trkpt>
      <trkpt lat="45.23571" lon="5.74522">
        <ele>1003.5999755859</ele>
        <time>2021-09-11T05:35:28.000Z</time>
      </trkpt>
      <trkpt lat="45.23566" lon="5.74515">
        <ele>1004.200012207</ele>
        <time>2021-09-11T05:35:31.000Z</time>
      </trkpt>
      <trkpt lat="45.23562" lon="5.74511">
        <ele>1004.5999755859</ele>
        <time>2021-09-11T05:35:34.000Z</time>
      </trkpt>
      <trkpt lat="45.23551" lon="5.7451">
        <ele>1005.5999755859</ele>
        <time>2021-09-11T05:35:39.000Z</time>
      </trkpt>
      <trkpt lat="45.23549" lon="5.74511">
        <ele>1005.5999755859</ele>
        <time>2021-09-11T05:35:40.000Z</time>
      </trkpt>
      <trkpt lat="45.23542" lon="5.74514">
        <ele>1006.799987793</ele>
        <time>2021-09-11T05:35:44.000Z</time>
      </trkpt>
      <trkpt lat="45.23537" lon="5.74513">
        <ele>1007.200012207</ele>
        <time>2021-09-11T05:35:46.000Z</time>
      </trkpt>
      <trkpt lat="45.23533" lon="5.74511">
        <ele>1008</ele>
        <time>2021-09-11T05:35:48.000Z</time>
      </trkpt>
      <trkpt lat="45.23524" lon="5.74504">
        <ele>1009</ele>
        <time>2021-09-11T05:35:52.000Z</time>
      </trkpt>
      <trkpt lat="45.23513" lon="5.7449">
        <ele>1010.4000244141</ele>
        <time>2021-09-11T05:35:58.000Z</time>
      </trkpt>
      <trkpt lat="45.23511" lon="5.74488">
        <ele>1010.5999755859</ele>
        <time>2021-09-11T05:35:59.000Z</time>
      </trkpt>
      <trkpt lat="45.23505" lon="5.7448">
        <ele>1011.5999755859</ele>
        <time>2021-09-11T05:36:03.000Z</time>
      </trkpt>
      <trkpt lat="45.235" lon="5.74474">
        <ele>1012.4000244141</ele>
        <time>2021-09-11T05:36:06.000Z</time>
      </trkpt>
      <trkpt lat="45.23498" lon="5.74472">
        <ele>1012.5999755859</ele>
        <time>2021-09-11T05:36:07.000Z</time>
      </trkpt>
      <trkpt lat="45.23491" lon="5.74466">
        <ele>1013.799987793</ele>
        <time>2021-09-11T05:36:11.000Z</time>
      </trkpt>
      <trkpt lat="45.23489" lon="5.74464">
        <ele>1014</ele>
        <time>2021-09-11T05:36:12.000Z</time>
      </trkpt>
      <trkpt lat="45.2348" lon="5.74453">
        <ele>1014.799987793</ele>
        <time>2021-09-11T05:36:17.000Z</time>
      </trkpt>
      <trkpt lat="45.23478" lon="5.74451">
        <ele>1014.799987793</ele>
        <time>2021-09-11T05:36:18.000Z</time>
      </trkpt>
      <trkpt lat="45.23467" lon="5.74436">
        <ele>1015.4000244141</ele>
        <time>2021-09-11T05:36:23.000Z</time>
      </trkpt>
      <trkpt lat="45.23451" lon="5.74423">
        <ele>1015.200012207</ele>
        <time>2021-09-11T05:36:29.000Z</time>
      </trkpt>
      <trkpt lat="45.23436" lon="5.74406">
        <ele>1014.200012207</ele>
        <time>2021-09-11T05:36:35.000Z</time>
      </trkpt>
      <trkpt lat="45.23431" lon="5.74401">
        <ele>1013.799987793</ele>
        <time>2021-09-11T05:36:37.000Z</time>
      </trkpt>
      <trkpt lat="45.23419" lon="5.74393">
        <ele>1013</ele>
        <time>2021-09-11T05:36:41.000Z</time>
      </trkpt>
      <trkpt lat="45.23416" lon="5.74391">
        <ele>1012.799987793</ele>
        <time>2021-09-11T05:36:42.000Z</time>
      </trkpt>
      <trkpt lat="45.234" lon="5.74383">
        <ele>1011.5999755859</ele>
        <time>2021-09-11T05:36:48.000Z</time>
      </trkpt>
      <trkpt lat="45.23395" lon="5.74381">
        <ele>1011.200012207</ele>
        <time>2021-09-11T05:36:50.000Z</time>
      </trkpt>
      <trkpt lat="45.23377" lon="5.7437">
        <ele>1011</ele>
        <time>2021-09-11T05:36:57.000Z</time>
      </trkpt>
      <trkpt lat="45.2337" lon="5.74353">
        <ele>1012.200012207</ele>
        <time>2021-09-11T05:37:03.000Z</time>
      </trkpt>
      <trkpt lat="45.23369" lon="5.74346">
        <ele>1012.799987793</ele>
        <time>2021-09-11T05:37:05.000Z</time>
      </trkpt>
      <trkpt lat="45.23369" lon="5.74336">
        <ele>1013.200012207</ele>
        <time>2021-09-11T05:37:08.000Z</time>
      </trkpt>
      <trkpt lat="45.23371" lon="5.74323">
        <ele>1013.4000244141</ele>
        <time>2021-09-11T05:37:12.000Z</time>
      </trkpt>
      <trkpt lat="45.23373" lon="5.74318">
        <ele>1013.799987793</ele>
        <time>2021-09-11T05:37:14.000Z</time>
      </trkpt>
      <trkpt lat="45.23376" lon="5.7431">
        <ele>1014.5999755859</ele>
        <time>2021-09-11T05:37:17.000Z</time>
      </trkpt>
      <trkpt lat="45.23377" lon="5.74308">
        <ele>1014.799987793</ele>
        <time>2021-09-11T05:37:18.000Z</time>
      </trkpt>
      <trkpt lat="45.23378" lon="5.74306">
        <ele>1015.200012207</ele>
        <time>2021-09-11T05:37:19.000Z</time>
      </trkpt>
      <trkpt lat="45.2338" lon="5.74298">
        <ele>1016</ele>
        <time>2021-09-11T05:37:22.000Z</time>
      </trkpt>
      <trkpt lat="45.23381" lon="5.7429">
        <ele>1017</ele>
        <time>2021-09-11T05:37:25.000Z</time>
      </trkpt>
      <trkpt lat="45.23381" lon="5.74288">
        <ele>1017.5999755859</ele>
        <time>2021-09-11T05:37:26.000Z</time>
      </trkpt>
      <trkpt lat="45.23381" lon="5.74287">
        <ele>1018</ele>
        <time>2021-09-11T05:37:27.000Z</time>
      </trkpt>
      <trkpt lat="45.23382" lon="5.74283">
        <ele>1019</ele>
        <time>2021-09-11T05:37:29.000Z</time>
      </trkpt>
      <trkpt lat="45.23384" lon="5.74274">
        <ele>1020</ele>
        <time>2021-09-11T05:37:32.000Z</time>
      </trkpt>
      <trkpt lat="45.2339" lon="5.74261">
        <ele>1020.4000244141</ele>
        <time>2021-09-11T05:37:37.000Z</time>
      </trkpt>
      <trkpt lat="45.23398" lon="5.74263">
        <ele>1020</ele>
        <time>2021-09-11T05:37:41.000Z</time>
      </trkpt>
      <trkpt lat="45.23401" lon="5.74264">
        <ele>1019.4000244141</ele>
        <time>2021-09-11T05:37:42.000Z</time>
      </trkpt>
      <trkpt lat="45.23403" lon="5.74265">
        <ele>1019</ele>
        <time>2021-09-11T05:37:43.000Z</time>
      </trkpt>
      <trkpt lat="45.23405" lon="5.74265">
        <ele>1018.799987793</ele>
        <time>2021-09-11T05:37:44.000Z</time>
      </trkpt>
      <trkpt lat="45.23409" lon="5.74266">
        <ele>1018.200012207</ele>
        <time>2021-09-11T05:37:46.000Z</time>
      </trkpt>
      <trkpt lat="45.2341" lon="5.74266">
        <ele>1018</ele>
        <time>2021-09-11T05:37:47.000Z</time>
      </trkpt>
      <trkpt lat="45.23413" lon="5.74267">
        <ele>1017.799987793</ele>
        <time>2021-09-11T05:37:48.000Z</time>
      </trkpt>
      <trkpt lat="45.23416" lon="5.74267">
        <ele>1017.200012207</ele>
        <time>2021-09-11T05:37:50.000Z</time>
      </trkpt>
      <trkpt lat="45.2342" lon="5.74268">
        <ele>1016.4000244141</ele>
        <time>2021-09-11T05:37:52.000Z</time>
      </trkpt>
      <trkpt lat="45.23425" lon="5.74269">
        <ele>1015</ele>
        <time>2021-09-11T05:37:55.000Z</time>
      </trkpt>
      <trkpt lat="45.23429" lon="5.74271">
        <ele>1014</ele>
        <time>2021-09-11T05:37:58.000Z</time>
      </trkpt>
      <trkpt lat="45.2343" lon="5.74272">
        <ele>1013.799987793</ele>
        <time>2021-09-11T05:37:59.000Z</time>
      </trkpt>
      <trkpt lat="45.23438" lon="5.74277">
        <ele>1012.4000244141</ele>
        <time>2021-09-11T05:38:03.000Z</time>
      </trkpt>
      <trkpt lat="45.2344" lon="5.74278">
        <ele>1012</ele>
        <time>2021-09-11T05:38:04.000Z</time>
      </trkpt>
      <trkpt lat="45.23445" lon="5.74283">
        <ele>1011.200012207</ele>
        <time>2021-09-11T05:38:07.000Z</time>
      </trkpt>
      <trkpt lat="45.23448" lon="5.74285">
        <ele>1009.799987793</ele>
        <time>2021-09-11T05:38:09.000Z</time>
      </trkpt>
      <trkpt lat="45.23452" lon="5.74286">
        <ele>1009.200012207</ele>
        <time>2021-09-11T05:38:11.000Z</time>
      </trkpt>
      <trkpt lat="45.23455" lon="5.74288">
        <ele>1008.200012207</ele>
        <time>2021-09-11T05:38:13.000Z</time>
      </trkpt>
      <trkpt lat="45.23458" lon="5.74289">
        <ele>1007.200012207</ele>
        <time>2021-09-11T05:38:15.000Z</time>
      </trkpt>
      <trkpt lat="45.23459" lon="5.7429">
        <ele>1006.5999755859</ele>
        <time>2021-09-11T05:38:16.000Z</time>
      </trkpt>
      <trkpt lat="45.2346" lon="5.74289">
        <ele>1006.200012207</ele>
        <time>2021-09-11T05:38:17.000Z</time>
      </trkpt>
      <trkpt lat="45.23463" lon="5.74291">
        <ele>1005.200012207</ele>
        <time>2021-09-11T05:38:19.000Z</time>
      </trkpt>
      <trkpt lat="45.23464" lon="5.74291">
        <ele>1004.5999755859</ele>
        <time>2021-09-11T05:38:20.000Z</time>
      </trkpt>
      <trkpt lat="45.23465" lon="5.74292">
        <ele>1004</ele>
        <time>2021-09-11T05:38:21.000Z</time>
      </trkpt>
      <trkpt lat="45.23466" lon="5.74293">
        <ele>1003.4000244141</ele>
        <time>2021-09-11T05:38:22.000Z</time>
      </trkpt>
      <trkpt lat="45.23469" lon="5.74295">
        <ele>1003</ele>
        <time>2021-09-11T05:38:23.000Z</time>
      </trkpt>
      <trkpt lat="45.23472" lon="5.74299">
        <ele>1002</ele>
        <time>2021-09-11T05:38:25.000Z</time>
      </trkpt>
      <trkpt lat="45.23475" lon="5.74302">
        <ele>1000.5999755859</ele>
        <time>2021-09-11T05:38:27.000Z</time>
      </trkpt>
      <trkpt lat="45.23479" lon="5.74303">
        <ele>999.40002441406</ele>
        <time>2021-09-11T05:38:29.000Z</time>
      </trkpt>
      <trkpt lat="45.23483" lon="5.74304">
        <ele>998.40002441406</ele>
        <time>2021-09-11T05:38:31.000Z</time>
      </trkpt>
      <trkpt lat="45.23486" lon="5.74304">
        <ele>997.20001220703</ele>
        <time>2021-09-11T05:38:33.000Z</time>
      </trkpt>
      <trkpt lat="45.23487" lon="5.74305">
        <ele>997</ele>
        <time>2021-09-11T05:38:34.000Z</time>
      </trkpt>
      <trkpt lat="45.23491" lon="5.74306">
        <ele>995.79998779297</ele>
        <time>2021-09-11T05:38:36.000Z</time>
      </trkpt>
      <trkpt lat="45.23492" lon="5.74307">
        <ele>995.40002441406</ele>
        <time>2021-09-11T05:38:37.000Z</time>
      </trkpt>
      <trkpt lat="45.23497" lon="5.74307">
        <ele>994.59997558594</ele>
        <time>2021-09-11T05:38:39.000Z</time>
      </trkpt>
      <trkpt lat="45.23503" lon="5.74307">
        <ele>993.20001220703</ele>
        <time>2021-09-11T05:38:42.000Z</time>
      </trkpt>
      <trkpt lat="45.23507" lon="5.74309">
        <ele>992.20001220703</ele>
        <time>2021-09-11T05:38:45.000Z</time>
      </trkpt>
      <trkpt lat="45.23513" lon="5.74307">
        <ele>990.59997558594</ele>
        <time>2021-09-11T05:38:48.000Z</time>
      </trkpt>
      <trkpt lat="45.23518" lon="5.74305">
        <ele>989.20001220703</ele>
        <time>2021-09-11T05:38:51.000Z</time>
      </trkpt>
      <trkpt lat="45.23519" lon="5.74305">
        <ele>989</ele>
        <time>2021-09-11T05:38:52.000Z</time>
      </trkpt>
      <trkpt lat="45.23521" lon="5.74306">
        <ele>988.40002441406</ele>
        <time>2021-09-11T05:38:53.000Z</time>
      </trkpt>
      <trkpt lat="45.23523" lon="5.74306">
        <ele>988</ele>
        <time>2021-09-11T05:38:54.000Z</time>
      </trkpt>
      <trkpt lat="45.23525" lon="5.74306">
        <ele>987.59997558594</ele>
        <time>2021-09-11T05:38:55.000Z</time>
      </trkpt>
      <trkpt lat="45.23529" lon="5.74305">
        <ele>987</ele>
        <time>2021-09-11T05:38:57.000Z</time>
      </trkpt>
      <trkpt lat="45.23531" lon="5.74304">
        <ele>986.40002441406</ele>
        <time>2021-09-11T05:38:58.000Z</time>
      </trkpt>
      <trkpt lat="45.23534" lon="5.74302">
        <ele>985.59997558594</ele>
        <time>2021-09-11T05:39:00.000Z</time>
      </trkpt>
      <trkpt lat="45.23536" lon="5.74301">
        <ele>985.20001220703</ele>
        <time>2021-09-11T05:39:01.000Z</time>
      </trkpt>
      <trkpt lat="45.23543" lon="5.74302">
        <ele>984</ele>
        <time>2021-09-11T05:39:03.000Z</time>
      </trkpt>
      <trkpt lat="45.23544" lon="5.74302">
        <ele>983.59997558594</ele>
        <time>2021-09-11T05:39:04.000Z</time>
      </trkpt>
      <trkpt lat="45.23547" lon="5.74302">
        <ele>983.20001220703</ele>
        <time>2021-09-11T05:39:05.000Z</time>
      </trkpt>
      <trkpt lat="45.2355" lon="5.74302">
        <ele>982.79998779297</ele>
        <time>2021-09-11T05:39:06.000Z</time>
      </trkpt>
      <trkpt lat="45.23557" lon="5.74301">
        <ele>981.79998779297</ele>
        <time>2021-09-11T05:39:09.000Z</time>
      </trkpt>
      <trkpt lat="45.23561" lon="5.74301">
        <ele>980.40002441406</ele>
        <time>2021-09-11T05:39:11.000Z</time>
      </trkpt>
      <trkpt lat="45.23565" lon="5.743">
        <ele>979.20001220703</ele>
        <time>2021-09-11T05:39:13.000Z</time>
      </trkpt>
      <trkpt lat="45.23567" lon="5.743">
        <ele>978.79998779297</ele>
        <time>2021-09-11T05:39:14.000Z</time>
      </trkpt>
      <trkpt lat="45.23568" lon="5.74299">
        <ele>978.59997558594</ele>
        <time>2021-09-11T05:39:15.000Z</time>
      </trkpt>
      <trkpt lat="45.2357" lon="5.743">
        <ele>977.59997558594</ele>
        <time>2021-09-11T05:39:16.000Z</time>
      </trkpt>
      <trkpt lat="45.23575" lon="5.74299">
        <ele>976.40002441406</ele>
        <time>2021-09-11T05:39:19.000Z</time>
      </trkpt>
      <trkpt lat="45.23577" lon="5.74299">
        <ele>975.40002441406</ele>
        <time>2021-09-11T05:39:21.000Z</time>
      </trkpt>
      <trkpt lat="45.23579" lon="5.74297">
        <ele>974.40002441406</ele>
        <time>2021-09-11T05:39:24.000Z</time>
      </trkpt>
      <trkpt lat="45.23587" lon="5.74293">
        <ele>973</ele>
        <time>2021-09-11T05:39:28.000Z</time>
      </trkpt>
      <trkpt lat="45.23589" lon="5.74292">
        <ele>972.59997558594</ele>
        <time>2021-09-11T05:39:29.000Z</time>
      </trkpt>
      <trkpt lat="45.23591" lon="5.7429">
        <ele>971.79998779297</ele>
        <time>2021-09-11T05:39:30.000Z</time>
      </trkpt>
      <trkpt lat="45.23595" lon="5.74286">
        <ele>970.59997558594</ele>
        <time>2021-09-11T05:39:33.000Z</time>
      </trkpt>
      <trkpt lat="45.23597" lon="5.74284">
        <ele>970.20001220703</ele>
        <time>2021-09-11T05:39:34.000Z</time>
      </trkpt>
      <trkpt lat="45.23601" lon="5.74281">
        <ele>969.40002441406</ele>
        <time>2021-09-11T05:39:36.000Z</time>
      </trkpt>
      <trkpt lat="45.23603" lon="5.74279">
        <ele>968.40002441406</ele>
        <time>2021-09-11T05:39:38.000Z</time>
      </trkpt>
      <trkpt lat="45.23611" lon="5.74274">
        <ele>966.79998779297</ele>
        <time>2021-09-11T05:39:42.000Z</time>
      </trkpt>
      <trkpt lat="45.23617" lon="5.74271">
        <ele>965.79998779297</ele>
        <time>2021-09-11T05:39:45.000Z</time>
      </trkpt>
      <trkpt lat="45.23619" lon="5.7427">
        <ele>965.20001220703</ele>
        <time>2021-09-11T05:39:46.000Z</time>
      </trkpt>
      <trkpt lat="45.2362" lon="5.74269">
        <ele>964.59997558594</ele>
        <time>2021-09-11T05:39:47.000Z</time>
      </trkpt>
      <trkpt lat="45.23621" lon="5.74269">
        <ele>964.20001220703</ele>
        <time>2021-09-11T05:39:48.000Z</time>
      </trkpt>
      <trkpt lat="45.23625" lon="5.74268">
        <ele>963.20001220703</ele>
        <time>2021-09-11T05:39:50.000Z</time>
      </trkpt>
      <trkpt lat="45.23627" lon="5.74268">
        <ele>962.79998779297</ele>
        <time>2021-09-11T05:39:51.000Z</time>
      </trkpt>
      <trkpt lat="45.23631" lon="5.74268">
        <ele>962</ele>
        <time>2021-09-11T05:39:53.000Z</time>
      </trkpt>
      <trkpt lat="45.2364" lon="5.74265">
        <ele>960.79998779297</ele>
        <time>2021-09-11T05:39:57.000Z</time>
      </trkpt>
      <trkpt lat="45.23642" lon="5.74263">
        <ele>960.20001220703</ele>
        <time>2021-09-11T05:39:58.000Z</time>
      </trkpt>
      <trkpt lat="45.23644" lon="5.74263">
        <ele>959.79998779297</ele>
        <time>2021-09-11T05:39:59.000Z</time>
      </trkpt>
      <trkpt lat="45.2365" lon="5.7426">
        <ele>958.59997558594</ele>
        <time>2021-09-11T05:40:03.000Z</time>
      </trkpt>
      <trkpt lat="45.23652" lon="5.7426">
        <ele>958.20001220703</ele>
        <time>2021-09-11T05:40:04.000Z</time>
      </trkpt>
      <trkpt lat="45.23659" lon="5.74257">
        <ele>957.20001220703</ele>
        <time>2021-09-11T05:40:07.000Z</time>
      </trkpt>
      <trkpt lat="45.23665" lon="5.74247">
        <ele>956.40002441406</ele>
        <time>2021-09-11T05:40:11.000Z</time>
      </trkpt>
      <trkpt lat="45.23666" lon="5.74246">
        <ele>956</ele>
        <time>2021-09-11T05:40:12.000Z</time>
      </trkpt>
      <trkpt lat="45.23674" lon="5.74242">
        <ele>954.79998779297</ele>
        <time>2021-09-11T05:40:16.000Z</time>
      </trkpt>
      <trkpt lat="45.23677" lon="5.74237">
        <ele>954</ele>
        <time>2021-09-11T05:40:19.000Z</time>
      </trkpt>
      <trkpt lat="45.23678" lon="5.74236">
        <ele>953.79998779297</ele>
        <time>2021-09-11T05:40:20.000Z</time>
      </trkpt>
      <trkpt lat="45.2368" lon="5.74235">
        <ele>953.40002441406</ele>
        <time>2021-09-11T05:40:21.000Z</time>
      </trkpt>
      <trkpt lat="45.23684" lon="5.74234">
        <ele>952.79998779297</ele>
        <time>2021-09-11T05:40:23.000Z</time>
      </trkpt>
      <trkpt lat="45.23686" lon="5.74234">
        <ele>952.40002441406</ele>
        <time>2021-09-11T05:40:24.000Z</time>
      </trkpt>
      <trkpt lat="45.23688" lon="5.74233">
        <ele>952.20001220703</ele>
        <time>2021-09-11T05:40:25.000Z</time>
      </trkpt>
      <trkpt lat="45.23691" lon="5.7423">
        <ele>951.40002441406</ele>
        <time>2021-09-11T05:40:27.000Z</time>
      </trkpt>
      <trkpt lat="45.23692" lon="5.74229">
        <ele>951.20001220703</ele>
        <time>2021-09-11T05:40:28.000Z</time>
      </trkpt>
      <trkpt lat="45.23694" lon="5.74228">
        <ele>950.79998779297</ele>
        <time>2021-09-11T05:40:29.000Z</time>
      </trkpt>
      <trkpt lat="45.23695" lon="5.74226">
        <ele>950.40002441406</ele>
        <time>2021-09-11T05:40:30.000Z</time>
      </trkpt>
      <trkpt lat="45.23696" lon="5.74225">
        <ele>950.20001220703</ele>
        <time>2021-09-11T05:40:31.000Z</time>
      </trkpt>
      <trkpt lat="45.23702" lon="5.7422">
        <ele>949.20001220703</ele>
        <time>2021-09-11T05:40:35.000Z</time>
      </trkpt>
      <trkpt lat="45.23703" lon="5.74219">
        <ele>949</ele>
        <time>2021-09-11T05:40:36.000Z</time>
      </trkpt>
      <trkpt lat="45.23709" lon="5.74211">
        <ele>948</ele>
        <time>2021-09-11T05:40:40.000Z</time>
      </trkpt>
      <trkpt lat="45.23712" lon="5.74203">
        <ele>946.79998779297</ele>
        <time>2021-09-11T05:40:44.000Z</time>
      </trkpt>
      <trkpt lat="45.23717" lon="5.74203">
        <ele>945.40002441406</ele>
        <time>2021-09-11T05:40:47.000Z</time>
      </trkpt>
      <trkpt lat="45.23724" lon="5.742">
        <ele>944.40002441406</ele>
        <time>2021-09-11T05:40:51.000Z</time>
      </trkpt>
      <trkpt lat="45.23725" lon="5.74198">
        <ele>944</ele>
        <time>2021-09-11T05:40:52.000Z</time>
      </trkpt>
      <trkpt lat="45.23727" lon="5.74195">
        <ele>943.59997558594</ele>
        <time>2021-09-11T05:40:54.000Z</time>
      </trkpt>
      <trkpt lat="45.23728" lon="5.74194">
        <ele>943</ele>
        <time>2021-09-11T05:40:55.000Z</time>
      </trkpt>
      <trkpt lat="45.23731" lon="5.74193">
        <ele>942.40002441406</ele>
        <time>2021-09-11T05:40:57.000Z</time>
      </trkpt>
      <trkpt lat="45.23733" lon="5.74192">
        <ele>941.79998779297</ele>
        <time>2021-09-11T05:40:59.000Z</time>
      </trkpt>
      <trkpt lat="45.23734" lon="5.74192">
        <ele>941.40002441406</ele>
        <time>2021-09-11T05:41:00.000Z</time>
      </trkpt>
      <trkpt lat="45.23736" lon="5.74191">
        <ele>940.79998779297</ele>
        <time>2021-09-11T05:41:02.000Z</time>
      </trkpt>
      <trkpt lat="45.23737" lon="5.7419">
        <ele>940.40002441406</ele>
        <time>2021-09-11T05:41:03.000Z</time>
      </trkpt>
      <trkpt lat="45.23737" lon="5.74189">
        <ele>940</ele>
        <time>2021-09-11T05:41:04.000Z</time>
      </trkpt>
      <trkpt lat="45.23738" lon="5.74188">
        <ele>939.59997558594</ele>
        <time>2021-09-11T05:41:06.000Z</time>
      </trkpt>
      <trkpt lat="45.23739" lon="5.74186">
        <ele>938.59997558594</ele>
        <time>2021-09-11T05:41:08.000Z</time>
      </trkpt>
      <trkpt lat="45.2374" lon="5.74186">
        <ele>938.40002441406</ele>
        <time>2021-09-11T05:41:09.000Z</time>
      </trkpt>
      <trkpt lat="45.23745" lon="5.74181">
        <ele>936.79998779297</ele>
        <time>2021-09-11T05:41:13.000Z</time>
      </trkpt>
      <trkpt lat="45.2375" lon="5.74177">
        <ele>935.40002441406</ele>
        <time>2021-09-11T05:41:16.000Z</time>
      </trkpt>
      <trkpt lat="45.23754" lon="5.74173">
        <ele>934.59997558594</ele>
        <time>2021-09-11T05:41:19.000Z</time>
      </trkpt>
      <trkpt lat="45.23756" lon="5.74172">
        <ele>934.40002441406</ele>
        <time>2021-09-11T05:41:20.000Z</time>
      </trkpt>
      <trkpt lat="45.23762" lon="5.7417">
        <ele>933</ele>
        <time>2021-09-11T05:41:23.000Z</time>
      </trkpt>
      <trkpt lat="45.23763" lon="5.74169">
        <ele>932.59997558594</ele>
        <time>2021-09-11T05:41:24.000Z</time>
      </trkpt>
      <trkpt lat="45.23764" lon="5.74168">
        <ele>932.40002441406</ele>
        <time>2021-09-11T05:41:25.000Z</time>
      </trkpt>
      <trkpt lat="45.23766" lon="5.74167">
        <ele>931.79998779297</ele>
        <time>2021-09-11T05:41:27.000Z</time>
      </trkpt>
      <trkpt lat="45.23767" lon="5.74167">
        <ele>931.59997558594</ele>
        <time>2021-09-11T05:41:28.000Z</time>
      </trkpt>
      <trkpt lat="45.23768" lon="5.74166">
        <ele>931.20001220703</ele>
        <time>2021-09-11T05:41:29.000Z</time>
      </trkpt>
      <trkpt lat="45.23771" lon="5.74165">
        <ele>930.40002441406</ele>
        <time>2021-09-11T05:41:31.000Z</time>
      </trkpt>
      <trkpt lat="45.23772" lon="5.74164">
        <ele>930.20001220703</ele>
        <time>2021-09-11T05:41:32.000Z</time>
      </trkpt>
      <trkpt lat="45.23773" lon="5.74163">
        <ele>929.79998779297</ele>
        <time>2021-09-11T05:41:34.000Z</time>
      </trkpt>
      <trkpt lat="45.23774" lon="5.74162">
        <ele>929.40002441406</ele>
        <time>2021-09-11T05:41:35.000Z</time>
      </trkpt>
      <trkpt lat="45.23776" lon="5.74162">
        <ele>929</ele>
        <time>2021-09-11T05:41:36.000Z</time>
      </trkpt>
      <trkpt lat="45.23777" lon="5.74161">
        <ele>928.59997558594</ele>
        <time>2021-09-11T05:41:37.000Z</time>
      </trkpt>
      <trkpt lat="45.23779" lon="5.7416">
        <ele>928.20001220703</ele>
        <time>2021-09-11T05:41:38.000Z</time>
      </trkpt>
      <trkpt lat="45.23782" lon="5.74158">
        <ele>927</ele>
        <time>2021-09-11T05:41:41.000Z</time>
      </trkpt>
      <trkpt lat="45.23792" lon="5.74155">
        <ele>925.79998779297</ele>
        <time>2021-09-11T05:41:45.000Z</time>
      </trkpt>
      <trkpt lat="45.23801" lon="5.74151">
        <ele>924.59997558594</ele>
        <time>2021-09-11T05:41:49.000Z</time>
      </trkpt>
      <trkpt lat="45.23805" lon="5.74148">
        <ele>923.79998779297</ele>
        <time>2021-09-11T05:41:51.000Z</time>
      </trkpt>
      <trkpt lat="45.23807" lon="5.74148">
        <ele>923.40002441406</ele>
        <time>2021-09-11T05:41:52.000Z</time>
      </trkpt>
      <trkpt lat="45.23814" lon="5.74145">
        <ele>922.20001220703</ele>
        <time>2021-09-11T05:41:56.000Z</time>
      </trkpt>
      <trkpt lat="45.23818" lon="5.74143">
        <ele>921.59997558594</ele>
        <time>2021-09-11T05:41:58.000Z</time>
      </trkpt>
      <trkpt lat="45.2382" lon="5.74142">
        <ele>921</ele>
        <time>2021-09-11T05:42:00.000Z</time>
      </trkpt>
      <trkpt lat="45.23821" lon="5.74141">
        <ele>920.79998779297</ele>
        <time>2021-09-11T05:42:01.000Z</time>
      </trkpt>
      <trkpt lat="45.23823" lon="5.74139">
        <ele>919.79998779297</ele>
        <time>2021-09-11T05:42:03.000Z</time>
      </trkpt>
      <trkpt lat="45.23824" lon="5.74139">
        <ele>919.40002441406</ele>
        <time>2021-09-11T05:42:04.000Z</time>
      </trkpt>
      <trkpt lat="45.23825" lon="5.74138">
        <ele>919.20001220703</ele>
        <time>2021-09-11T05:42:05.000Z</time>
      </trkpt>
      <trkpt lat="45.23827" lon="5.74136">
        <ele>918.59997558594</ele>
        <time>2021-09-11T05:42:07.000Z</time>
      </trkpt>
      <trkpt lat="45.23828" lon="5.74133">
        <ele>917.79998779297</ele>
        <time>2021-09-11T05:42:09.000Z</time>
      </trkpt>
      <trkpt lat="45.23829" lon="5.7413">
        <ele>917.59997558594</ele>
        <time>2021-09-11T05:42:10.000Z</time>
      </trkpt>
      <trkpt lat="45.23832" lon="5.74127">
        <ele>916.79998779297</ele>
        <time>2021-09-11T05:42:12.000Z</time>
      </trkpt>
      <trkpt lat="45.23833" lon="5.74125">
        <ele>916.40002441406</ele>
        <time>2021-09-11T05:42:13.000Z</time>
      </trkpt>
      <trkpt lat="45.23835" lon="5.74123">
        <ele>916</ele>
        <time>2021-09-11T05:42:15.000Z</time>
      </trkpt>
      <trkpt lat="45.23836" lon="5.74121">
        <ele>915.40002441406</ele>
        <time>2021-09-11T05:42:16.000Z</time>
      </trkpt>
      <trkpt lat="45.2384" lon="5.74116">
        <ele>913.79998779297</ele>
        <time>2021-09-11T05:42:20.000Z</time>
      </trkpt>
      <trkpt lat="45.23841" lon="5.74115">
        <ele>913.20001220703</ele>
        <time>2021-09-11T05:42:21.000Z</time>
      </trkpt>
      <trkpt lat="45.23842" lon="5.74113">
        <ele>912.79998779297</ele>
        <time>2021-09-11T05:42:22.000Z</time>
      </trkpt>
      <trkpt lat="45.23842" lon="5.74112">
        <ele>912.40002441406</ele>
        <time>2021-09-11T05:42:23.000Z</time>
      </trkpt>
      <trkpt lat="45.23843" lon="5.74108">
        <ele>911.59997558594</ele>
        <time>2021-09-11T05:42:25.000Z</time>
      </trkpt>
      <trkpt lat="45.23843" lon="5.74105">
        <ele>911</ele>
        <time>2021-09-11T05:42:28.000Z</time>
      </trkpt>
      <trkpt lat="45.23843" lon="5.74105">
        <ele>910.79998779297</ele>
        <time>2021-09-11T05:42:29.000Z</time>
      </trkpt>
      <trkpt lat="45.23839" lon="5.74107">
        <ele>910.79998779297</ele>
        <time>2021-09-11T05:42:33.000Z</time>
      </trkpt>
      <trkpt lat="45.23838" lon="5.74106">
        <ele>910.79998779297</ele>
        <time>2021-09-11T05:42:34.000Z</time>
      </trkpt>
      <trkpt lat="45.23833" lon="5.741">
        <ele>911.40002441406</ele>
        <time>2021-09-11T05:42:38.000Z</time>
      </trkpt>
      <trkpt lat="45.2383" lon="5.74095">
        <ele>912.79998779297</ele>
        <time>2021-09-11T05:42:42.000Z</time>
      </trkpt>
      <trkpt lat="45.2383" lon="5.74094">
        <ele>913.20001220703</ele>
        <time>2021-09-11T05:42:43.000Z</time>
      </trkpt>
      <trkpt lat="45.23829" lon="5.74091">
        <ele>913.79998779297</ele>
        <time>2021-09-11T05:42:45.000Z</time>
      </trkpt>
      <trkpt lat="45.23827" lon="5.74086">
        <ele>914.79998779297</ele>
        <time>2021-09-11T05:42:48.000Z</time>
      </trkpt>
      <trkpt lat="45.23827" lon="5.74085">
        <ele>915.40002441406</ele>
        <time>2021-09-11T05:42:50.000Z</time>
      </trkpt>
      <trkpt lat="45.23827" lon="5.74085">
        <ele>916</ele>
        <time>2021-09-11T05:42:51.000Z</time>
      </trkpt>
      <trkpt lat="45.23826" lon="5.74085">
        <ele>916.20001220703</ele>
        <time>2021-09-11T05:42:52.000Z</time>
      </trkpt>
      <trkpt lat="45.23824" lon="5.74083">
        <ele>916.59997558594</ele>
        <time>2021-09-11T05:42:54.000Z</time>
      </trkpt>
      <trkpt lat="45.23822" lon="5.74081">
        <ele>917</ele>
        <time>2021-09-11T05:42:56.000Z</time>
      </trkpt>
      <trkpt lat="45.2382" lon="5.7408">
        <ele>917.20001220703</ele>
        <time>2021-09-11T05:42:57.000Z</time>
      </trkpt>
      <trkpt lat="45.23813" lon="5.74079">
        <ele>918.20001220703</ele>
        <time>2021-09-11T05:43:02.000Z</time>
      </trkpt>
      <trkpt lat="45.23812" lon="5.74079">
        <ele>918.79998779297</ele>
        <time>2021-09-11T05:43:04.000Z</time>
      </trkpt>
      <trkpt lat="45.23808" lon="5.74079">
        <ele>919.40002441406</ele>
        <time>2021-09-11T05:43:07.000Z</time>
      </trkpt>
      <trkpt lat="45.23803" lon="5.74077">
        <ele>920.59997558594</ele>
        <time>2021-09-11T05:43:12.000Z</time>
      </trkpt>
      <trkpt lat="45.23802" lon="5.74076">
        <ele>921</ele>
        <time>2021-09-11T05:43:13.000Z</time>
      </trkpt>
      <trkpt lat="45.23798" lon="5.74074">
        <ele>921.79998779297</ele>
        <time>2021-09-11T05:43:17.000Z</time>
      </trkpt>
      <trkpt lat="45.23795" lon="5.74071">
        <ele>922.59997558594</ele>
        <time>2021-09-11T05:43:20.000Z</time>
      </trkpt>
      <trkpt lat="45.23794" lon="5.7407">
        <ele>922.79998779297</ele>
        <time>2021-09-11T05:43:21.000Z</time>
      </trkpt>
      <trkpt lat="45.23792" lon="5.74068">
        <ele>922.79998779297</ele>
        <time>2021-09-11T05:43:22.000Z</time>
      </trkpt>
      <trkpt lat="45.23789" lon="5.74067">
        <ele>923.79998779297</ele>
        <time>2021-09-11T05:43:24.000Z</time>
      </trkpt>
      <trkpt lat="45.23788" lon="5.74066">
        <ele>924</ele>
        <time>2021-09-11T05:43:25.000Z</time>
      </trkpt>
      <trkpt lat="45.23785" lon="5.74063">
        <ele>924.20001220703</ele>
        <time>2021-09-11T05:43:27.000Z</time>
      </trkpt>
      <trkpt lat="45.23781" lon="5.74059">
        <ele>924.40002441406</ele>
        <time>2021-09-11T05:43:29.000Z</time>
      </trkpt>
      <trkpt lat="45.23773" lon="5.74045">
        <ele>923.79998779297</ele>
        <time>2021-09-11T05:43:35.000Z</time>
      </trkpt>
      <trkpt lat="45.23771" lon="5.7404">
        <ele>923.40002441406</ele>
        <time>2021-09-11T05:43:37.000Z</time>
      </trkpt>
      <trkpt lat="45.23771" lon="5.74036">
        <ele>923.20001220703</ele>
        <time>2021-09-11T05:43:39.000Z</time>
      </trkpt>
      <trkpt lat="45.2377" lon="5.74029">
        <ele>923</ele>
        <time>2021-09-11T05:43:41.000Z</time>
      </trkpt>
      <trkpt lat="45.23767" lon="5.74014">
        <ele>921.79998779297</ele>
        <time>2021-09-11T05:43:46.000Z</time>
      </trkpt>
      <trkpt lat="45.23766" lon="5.74005">
        <ele>921.40002441406</ele>
        <time>2021-09-11T05:43:49.000Z</time>
      </trkpt>
      <trkpt lat="45.2376" lon="5.73993">
        <ele>920.59997558594</ele>
        <time>2021-09-11T05:43:53.000Z</time>
      </trkpt>
      <trkpt lat="45.23754" lon="5.73985">
        <ele>919.59997558594</ele>
        <time>2021-09-11T05:43:58.000Z</time>
      </trkpt>
      <trkpt lat="45.23748" lon="5.73976">
        <ele>918.59997558594</ele>
        <time>2021-09-11T05:44:02.000Z</time>
      </trkpt>
      <trkpt lat="45.23741" lon="5.73966">
        <ele>917.79998779297</ele>
        <time>2021-09-11T05:44:06.000Z</time>
      </trkpt>
      <trkpt lat="45.2374" lon="5.73964">
        <ele>917.59997558594</ele>
        <time>2021-09-11T05:44:07.000Z</time>
      </trkpt>
      <trkpt lat="45.23738" lon="5.73961">
        <ele>917.40002441406</ele>
        <time>2021-09-11T05:44:08.000Z</time>
      </trkpt>
      <trkpt lat="45.23731" lon="5.73954">
        <ele>917</ele>
        <time>2021-09-11T05:44:11.000Z</time>
      </trkpt>
      <trkpt lat="45.23722" lon="5.73946">
        <ele>916.79998779297</ele>
        <time>2021-09-11T05:44:15.000Z</time>
      </trkpt>
      <trkpt lat="45.2371" lon="5.73936">
        <ele>917.59997558594</ele>
        <time>2021-09-11T05:44:22.000Z</time>
      </trkpt>
      <trkpt lat="45.23709" lon="5.73935">
        <ele>917.79998779297</ele>
        <time>2021-09-11T05:44:23.000Z</time>
      </trkpt>
      <trkpt lat="45.23693" lon="5.73921">
        <ele>917.40002441406</ele>
        <time>2021-09-11T05:44:30.000Z</time>
      </trkpt>
      <trkpt lat="45.23674" lon="5.73909">
        <ele>917.20001220703</ele>
        <time>2021-09-11T05:44:36.000Z</time>
      </trkpt>
      <trkpt lat="45.23671" lon="5.73907">
        <ele>917.20001220703</ele>
        <time>2021-09-11T05:44:37.000Z</time>
      </trkpt>
      <trkpt lat="45.23661" lon="5.739">
        <ele>917.59997558594</ele>
        <time>2021-09-11T05:44:41.000Z</time>
      </trkpt>
      <trkpt lat="45.23656" lon="5.73896">
        <ele>917.79998779297</ele>
        <time>2021-09-11T05:44:43.000Z</time>
      </trkpt>
      <trkpt lat="45.23653" lon="5.73895">
        <ele>918</ele>
        <time>2021-09-11T05:44:44.000Z</time>
      </trkpt>
      <trkpt lat="45.23647" lon="5.73893">
        <ele>918.79998779297</ele>
        <time>2021-09-11T05:44:47.000Z</time>
      </trkpt>
      <trkpt lat="45.23643" lon="5.7389">
        <ele>919</ele>
        <time>2021-09-11T05:44:49.000Z</time>
      </trkpt>
      <trkpt lat="45.23631" lon="5.73882">
        <ele>919.59997558594</ele>
        <time>2021-09-11T05:44:55.000Z</time>
      </trkpt>
      <trkpt lat="45.23626" lon="5.73879">
        <ele>919.79998779297</ele>
        <time>2021-09-11T05:44:57.000Z</time>
      </trkpt>
      <trkpt lat="45.23614" lon="5.73873">
        <ele>920.20001220703</ele>
        <time>2021-09-11T05:45:02.000Z</time>
      </trkpt>
      <trkpt lat="45.23596" lon="5.73862">
        <ele>920.40002441406</ele>
        <time>2021-09-11T05:45:09.000Z</time>
      </trkpt>
      <trkpt lat="45.23591" lon="5.7386">
        <ele>920.20001220703</ele>
        <time>2021-09-11T05:45:11.000Z</time>
      </trkpt>
      <trkpt lat="45.23573" lon="5.73848">
        <ele>920.20001220703</ele>
        <time>2021-09-11T05:45:18.000Z</time>
      </trkpt>
      <trkpt lat="45.2357" lon="5.73846">
        <ele>920.59997558594</ele>
        <time>2021-09-11T05:45:20.000Z</time>
      </trkpt>
      <trkpt lat="45.23562" lon="5.73837">
        <ele>920.79998779297</ele>
        <time>2021-09-11T05:45:25.000Z</time>
      </trkpt>
      <trkpt lat="45.2356" lon="5.73836">
        <ele>921</ele>
        <time>2021-09-11T05:45:26.000Z</time>
      </trkpt>
      <trkpt lat="45.23555" lon="5.73832">
        <ele>922</ele>
        <time>2021-09-11T05:45:29.000Z</time>
      </trkpt>
      <trkpt lat="45.23548" lon="5.73829">
        <ele>923.20001220703</ele>
        <time>2021-09-11T05:45:34.000Z</time>
      </trkpt>
      <trkpt lat="45.23543" lon="5.73829">
        <ele>924.40002441406</ele>
        <time>2021-09-11T05:45:38.000Z</time>
      </trkpt>
      <trkpt lat="45.23543" lon="5.73829">
        <ele>924.59997558594</ele>
        <time>2021-09-11T05:45:39.000Z</time>
      </trkpt>
      <trkpt lat="45.2354" lon="5.7383">
        <ele>925.20001220703</ele>
        <time>2021-09-11T05:45:41.000Z</time>
      </trkpt>
      <trkpt lat="45.23538" lon="5.7383">
        <ele>925.59997558594</ele>
        <time>2021-09-11T05:45:42.000Z</time>
      </trkpt>
      <trkpt lat="45.23536" lon="5.73829">
        <ele>926.59997558594</ele>
        <time>2021-09-11T05:45:46.000Z</time>
      </trkpt>
      <trkpt lat="45.23535" lon="5.73829">
        <ele>927</ele>
        <time>2021-09-11T05:45:48.000Z</time>
      </trkpt>
      <trkpt lat="45.23534" lon="5.73829">
        <ele>927.20001220703</ele>
        <time>2021-09-11T05:45:49.000Z</time>
      </trkpt>
      <trkpt lat="45.23534" lon="5.73828">
        <ele>927.79998779297</ele>
        <time>2021-09-11T05:45:50.000Z</time>
      </trkpt>
      <trkpt lat="45.23531" lon="5.7383">
        <ele>928.79998779297</ele>
        <time>2021-09-11T05:45:53.000Z</time>
      </trkpt>
      <trkpt lat="45.2353" lon="5.73831">
        <ele>929</ele>
        <time>2021-09-11T05:45:54.000Z</time>
      </trkpt>
      <trkpt lat="45.23529" lon="5.73831">
        <ele>929.40002441406</ele>
        <time>2021-09-11T05:45:55.000Z</time>
      </trkpt>
      <trkpt lat="45.23529" lon="5.73831">
        <ele>929.59997558594</ele>
        <time>2021-09-11T05:45:56.000Z</time>
      </trkpt>
      <trkpt lat="45.23527" lon="5.73833">
        <ele>930</ele>
        <time>2021-09-11T05:45:58.000Z</time>
      </trkpt>
      <trkpt lat="45.23526" lon="5.73834">
        <ele>930.40002441406</ele>
        <time>2021-09-11T05:46:00.000Z</time>
      </trkpt>
      <trkpt lat="45.23525" lon="5.73833">
        <ele>931.20001220703</ele>
        <time>2021-09-11T05:46:02.000Z</time>
      </trkpt>
      <trkpt lat="45.2352" lon="5.73831">
        <ele>932.40002441406</ele>
        <time>2021-09-11T05:46:07.000Z</time>
      </trkpt>
      <trkpt lat="45.23517" lon="5.73832">
        <ele>932.59997558594</ele>
        <time>2021-09-11T05:46:08.000Z</time>
      </trkpt>
      <trkpt lat="45.23516" lon="5.73833">
        <ele>933</ele>
        <time>2021-09-11T05:46:09.000Z</time>
      </trkpt>
      <trkpt lat="45.23515" lon="5.73833">
        <ele>933.40002441406</ele>
        <time>2021-09-11T05:46:11.000Z</time>
      </trkpt>
      <trkpt lat="45.23514" lon="5.73833">
        <ele>934</ele>
        <time>2021-09-11T05:46:13.000Z</time>
      </trkpt>
      <trkpt lat="45.23514" lon="5.73834">
        <ele>934</ele>
        <time>2021-09-11T05:46:14.000Z</time>
      </trkpt>
      <trkpt lat="45.23513" lon="5.73835">
        <ele>934.79998779297</ele>
        <time>2021-09-11T05:46:16.000Z</time>
      </trkpt>
      <trkpt lat="45.23513" lon="5.73835">
        <ele>935</ele>
        <time>2021-09-11T05:46:17.000Z</time>
      </trkpt>
      <trkpt lat="45.2351" lon="5.73836">
        <ele>936</ele>
        <time>2021-09-11T05:46:20.000Z</time>
      </trkpt>
      <trkpt lat="45.2351" lon="5.73837">
        <ele>937.20001220703</ele>
        <time>2021-09-11T05:46:24.000Z</time>
      </trkpt>
      <trkpt lat="45.23505" lon="5.73838">
        <ele>938.40002441406</ele>
        <time>2021-09-11T05:46:29.000Z</time>
      </trkpt>
      <trkpt lat="45.23505" lon="5.73841">
        <ele>939</ele>
        <time>2021-09-11T05:46:31.000Z</time>
      </trkpt>
      <trkpt lat="45.23503" lon="5.7384">
        <ele>939.59997558594</ele>
        <time>2021-09-11T05:46:34.000Z</time>
      </trkpt>
      <trkpt lat="45.235" lon="5.7384">
        <ele>940.20001220703</ele>
        <time>2021-09-11T05:46:36.000Z</time>
      </trkpt>
      <trkpt lat="45.23499" lon="5.7384">
        <ele>940.40002441406</ele>
        <time>2021-09-11T05:46:37.000Z</time>
      </trkpt>
      <trkpt lat="45.23499" lon="5.73839">
        <ele>940.79998779297</ele>
        <time>2021-09-11T05:46:38.000Z</time>
      </trkpt>
      <trkpt lat="45.23498" lon="5.7384">
        <ele>941.79998779297</ele>
        <time>2021-09-11T05:46:41.000Z</time>
      </trkpt>
      <trkpt lat="45.23496" lon="5.7384">
        <ele>942.79998779297</ele>
        <time>2021-09-11T05:46:44.000Z</time>
      </trkpt>
      <trkpt lat="45.23495" lon="5.7384">
        <ele>943</ele>
        <time>2021-09-11T05:46:45.000Z</time>
      </trkpt>
      <trkpt lat="45.23493" lon="5.7384">
        <ele>943.40002441406</ele>
        <time>2021-09-11T05:46:47.000Z</time>
      </trkpt>
      <trkpt lat="45.23492" lon="5.73841">
        <ele>944</ele>
        <time>2021-09-11T05:46:49.000Z</time>
      </trkpt>
      <trkpt lat="45.23488" lon="5.73841">
        <ele>944.79998779297</ele>
        <time>2021-09-11T05:46:52.000Z</time>
      </trkpt>
      <trkpt lat="45.23487" lon="5.73841">
        <ele>945.20001220703</ele>
        <time>2021-09-11T05:46:53.000Z</time>
      </trkpt>
      <trkpt lat="45.23485" lon="5.73843">
        <ele>946.40002441406</ele>
        <time>2021-09-11T05:46:58.000Z</time>
      </trkpt>
      <trkpt lat="45.23484" lon="5.73844">
        <ele>947.59997558594</ele>
        <time>2021-09-11T05:47:02.000Z</time>
      </trkpt>
      <trkpt lat="45.23484" lon="5.73844">
        <ele>948</ele>
        <time>2021-09-11T05:47:03.000Z</time>
      </trkpt>
      <trkpt lat="45.23481" lon="5.73845">
        <ele>948.59997558594</ele>
        <time>2021-09-11T05:47:06.000Z</time>
      </trkpt>
      <trkpt lat="45.23478" lon="5.73846">
        <ele>949.79998779297</ele>
        <time>2021-09-11T05:47:10.000Z</time>
      </trkpt>
      <trkpt lat="45.23475" lon="5.73847">
        <ele>951</ele>
        <time>2021-09-11T05:47:14.000Z</time>
      </trkpt>
      <trkpt lat="45.23473" lon="5.73846">
        <ele>951.40002441406</ele>
        <time>2021-09-11T05:47:16.000Z</time>
      </trkpt>
      <trkpt lat="45.23469" lon="5.73846">
        <ele>952</ele>
        <time>2021-09-11T05:47:19.000Z</time>
      </trkpt>
      <trkpt lat="45.23468" lon="5.73847">
        <ele>952.59997558594</ele>
        <time>2021-09-11T05:47:21.000Z</time>
      </trkpt>
      <trkpt lat="45.23467" lon="5.73847">
        <ele>953</ele>
        <time>2021-09-11T05:47:22.000Z</time>
      </trkpt>
      <trkpt lat="45.23467" lon="5.73847">
        <ele>953.40002441406</ele>
        <time>2021-09-11T05:47:23.000Z</time>
      </trkpt>
      <trkpt lat="45.23464" lon="5.73847">
        <ele>954.40002441406</ele>
        <time>2021-09-11T05:47:27.000Z</time>
      </trkpt>
      <trkpt lat="45.23463" lon="5.73847">
        <ele>954.79998779297</ele>
        <time>2021-09-11T05:47:28.000Z</time>
      </trkpt>
      <trkpt lat="45.23459" lon="5.73845">
        <ele>955.59997558594</ele>
        <time>2021-09-11T05:47:32.000Z</time>
      </trkpt>
      <trkpt lat="45.23456" lon="5.73845">
        <ele>956.79998779297</ele>
        <time>2021-09-11T05:47:35.000Z</time>
      </trkpt>
      <trkpt lat="45.23455" lon="5.73846">
        <ele>957</ele>
        <time>2021-09-11T05:47:36.000Z</time>
      </trkpt>
      <trkpt lat="45.23452" lon="5.73847">
        <ele>957.79998779297</ele>
        <time>2021-09-11T05:47:40.000Z</time>
      </trkpt>
      <trkpt lat="45.23448" lon="5.73847">
        <ele>959</ele>
        <time>2021-09-11T05:47:43.000Z</time>
      </trkpt>
      <trkpt lat="45.23448" lon="5.73847">
        <ele>959.20001220703</ele>
        <time>2021-09-11T05:47:44.000Z</time>
      </trkpt>
      <trkpt lat="45.23445" lon="5.73848">
        <ele>960</ele>
        <time>2021-09-11T05:47:47.000Z</time>
      </trkpt>
      <trkpt lat="45.23443" lon="5.73849">
        <ele>960.40002441406</ele>
        <time>2021-09-11T05:47:49.000Z</time>
      </trkpt>
      <trkpt lat="45.23441" lon="5.73851">
        <ele>961.20001220703</ele>
        <time>2021-09-11T05:47:53.000Z</time>
      </trkpt>
      <trkpt lat="45.23439" lon="5.73851">
        <ele>961.59997558594</ele>
        <time>2021-09-11T05:47:55.000Z</time>
      </trkpt>
      <trkpt lat="45.23436" lon="5.73852">
        <ele>962.40002441406</ele>
        <time>2021-09-11T05:47:57.000Z</time>
      </trkpt>
      <trkpt lat="45.23433" lon="5.73853">
        <ele>963.40002441406</ele>
        <time>2021-09-11T05:48:01.000Z</time>
      </trkpt>
      <trkpt lat="45.23431" lon="5.73853">
        <ele>963.59997558594</ele>
        <time>2021-09-11T05:48:03.000Z</time>
      </trkpt>
      <trkpt lat="45.23427" lon="5.73855">
        <ele>964.79998779297</ele>
        <time>2021-09-11T05:48:06.000Z</time>
      </trkpt>
      <trkpt lat="45.23426" lon="5.73856">
        <ele>965</ele>
        <time>2021-09-11T05:48:07.000Z</time>
      </trkpt>
      <trkpt lat="45.23425" lon="5.73856">
        <ele>965.79998779297</ele>
        <time>2021-09-11T05:48:09.000Z</time>
      </trkpt>
      <trkpt lat="45.23424" lon="5.73855">
        <ele>966</ele>
        <time>2021-09-11T05:48:10.000Z</time>
      </trkpt>
      <trkpt lat="45.23423" lon="5.73855">
        <ele>966</ele>
        <time>2021-09-11T05:48:11.000Z</time>
      </trkpt>
      <trkpt lat="45.2342" lon="5.73856">
        <ele>966.40002441406</ele>
        <time>2021-09-11T05:48:14.000Z</time>
      </trkpt>
      <trkpt lat="45.23418" lon="5.73857">
        <ele>966.59997558594</ele>
        <time>2021-09-11T05:48:15.000Z</time>
      </trkpt>
      <trkpt lat="45.23415" lon="5.73857">
        <ele>966.79998779297</ele>
        <time>2021-09-11T05:48:17.000Z</time>
      </trkpt>
      <trkpt lat="45.23414" lon="5.73857">
        <ele>966.79998779297</ele>
        <time>2021-09-11T05:48:18.000Z</time>
      </trkpt>
      <trkpt lat="45.2341" lon="5.73855">
        <ele>966.79998779297</ele>
        <time>2021-09-11T05:48:20.000Z</time>
      </trkpt>
      <trkpt lat="45.23408" lon="5.73854">
        <ele>967.20001220703</ele>
        <time>2021-09-11T05:48:21.000Z</time>
      </trkpt>
      <trkpt lat="45.23406" lon="5.73853">
        <ele>967.79998779297</ele>
        <time>2021-09-11T05:48:23.000Z</time>
      </trkpt>
      <trkpt lat="45.23404" lon="5.73853">
        <ele>968.40002441406</ele>
        <time>2021-09-11T05:48:25.000Z</time>
      </trkpt>
      <trkpt lat="45.23401" lon="5.73851">
        <ele>969</ele>
        <time>2021-09-11T05:48:28.000Z</time>
      </trkpt>
      <trkpt lat="45.23397" lon="5.73849">
        <ele>969.40002441406</ele>
        <time>2021-09-11T05:48:31.000Z</time>
      </trkpt>
      <trkpt lat="45.23391" lon="5.7385">
        <ele>970.20001220703</ele>
        <time>2021-09-11T05:48:36.000Z</time>
      </trkpt>
      <trkpt lat="45.23389" lon="5.73851">
        <ele>970.79998779297</ele>
        <time>2021-09-11T05:48:38.000Z</time>
      </trkpt>
      <trkpt lat="45.23387" lon="5.73851">
        <ele>971.20001220703</ele>
        <time>2021-09-11T05:48:40.000Z</time>
      </trkpt>
      <trkpt lat="45.23385" lon="5.73852">
        <ele>971.59997558594</ele>
        <time>2021-09-11T05:48:42.000Z</time>
      </trkpt>
      <trkpt lat="45.23385" lon="5.73851">
        <ele>972.20001220703</ele>
        <time>2021-09-11T05:48:43.000Z</time>
      </trkpt>
      <trkpt lat="45.23387" lon="5.73851">
        <ele>973.20001220703</ele>
        <time>2021-09-11T05:48:46.000Z</time>
      </trkpt>
      <trkpt lat="45.23389" lon="5.73851">
        <ele>973.79998779297</ele>
        <time>2021-09-11T05:48:48.000Z</time>
      </trkpt>
      <trkpt lat="45.2339" lon="5.73853">
        <ele>974.20001220703</ele>
        <time>2021-09-11T05:48:50.000Z</time>
      </trkpt>
      <trkpt lat="45.23392" lon="5.73855">
        <ele>974.79998779297</ele>
        <time>2021-09-11T05:48:52.000Z</time>
      </trkpt>
      <trkpt lat="45.23393" lon="5.73855">
        <ele>975.40002441406</ele>
        <time>2021-09-11T05:48:54.000Z</time>
      </trkpt>
      <trkpt lat="45.23393" lon="5.73856">
        <ele>975.59997558594</ele>
        <time>2021-09-11T05:48:55.000Z</time>
      </trkpt>
      <trkpt lat="45.23395" lon="5.73861">
        <ele>976.40002441406</ele>
        <time>2021-09-11T05:48:59.000Z</time>
      </trkpt>
      <trkpt lat="45.23393" lon="5.73863">
        <ele>976.59997558594</ele>
        <time>2021-09-11T05:49:00.000Z</time>
      </trkpt>
      <trkpt lat="45.23388" lon="5.73865">
        <ele>977.40002441406</ele>
        <time>2021-09-11T05:49:03.000Z</time>
      </trkpt>
      <trkpt lat="45.23386" lon="5.73865">
        <ele>977.59997558594</ele>
        <time>2021-09-11T05:49:05.000Z</time>
      </trkpt>
      <trkpt lat="45.23383" lon="5.73866">
        <ele>978.59997558594</ele>
        <time>2021-09-11T05:49:09.000Z</time>
      </trkpt>
      <trkpt lat="45.23382" lon="5.73866">
        <ele>979</ele>
        <time>2021-09-11T05:49:10.000Z</time>
      </trkpt>
      <trkpt lat="45.23379" lon="5.73865">
        <ele>979.79998779297</ele>
        <time>2021-09-11T05:49:13.000Z</time>
      </trkpt>
      <trkpt lat="45.23378" lon="5.73865">
        <ele>980</ele>
        <time>2021-09-11T05:49:14.000Z</time>
      </trkpt>
      <trkpt lat="45.23376" lon="5.73866">
        <ele>980</ele>
        <time>2021-09-11T05:49:15.000Z</time>
      </trkpt>
      <trkpt lat="45.23371" lon="5.73867">
        <ele>980.59997558594</ele>
        <time>2021-09-11T05:49:18.000Z</time>
      </trkpt>
      <trkpt lat="45.23368" lon="5.73865">
        <ele>981</ele>
        <time>2021-09-11T05:49:20.000Z</time>
      </trkpt>
      <trkpt lat="45.23366" lon="5.73867">
        <ele>982</ele>
        <time>2021-09-11T05:49:24.000Z</time>
      </trkpt>
      <trkpt lat="45.23365" lon="5.73866">
        <ele>982.59997558594</ele>
        <time>2021-09-11T05:49:26.000Z</time>
      </trkpt>
      <trkpt lat="45.23363" lon="5.73867">
        <ele>983.20001220703</ele>
        <time>2021-09-11T05:49:29.000Z</time>
      </trkpt>
      <trkpt lat="45.23362" lon="5.73867">
        <ele>983.79998779297</ele>
        <time>2021-09-11T05:49:31.000Z</time>
      </trkpt>
      <trkpt lat="45.2336" lon="5.73868">
        <ele>984.20001220703</ele>
        <time>2021-09-11T05:49:32.000Z</time>
      </trkpt>
      <trkpt lat="45.23359" lon="5.73868">
        <ele>984.40002441406</ele>
        <time>2021-09-11T05:49:33.000Z</time>
      </trkpt>
      <trkpt lat="45.23356" lon="5.73869">
        <ele>985.40002441406</ele>
        <time>2021-09-11T05:49:36.000Z</time>
      </trkpt>
      <trkpt lat="45.23356" lon="5.7387">
        <ele>985.79998779297</ele>
        <time>2021-09-11T05:49:38.000Z</time>
      </trkpt>
      <trkpt lat="45.23355" lon="5.7387">
        <ele>986.40002441406</ele>
        <time>2021-09-11T05:49:39.000Z</time>
      </trkpt>
      <trkpt lat="45.23353" lon="5.73871">
        <ele>987.20001220703</ele>
        <time>2021-09-11T05:49:42.000Z</time>
      </trkpt>
      <trkpt lat="45.23351" lon="5.73871">
        <ele>987.59997558594</ele>
        <time>2021-09-11T05:49:44.000Z</time>
      </trkpt>
      <trkpt lat="45.23351" lon="5.73871">
        <ele>988</ele>
        <time>2021-09-11T05:49:45.000Z</time>
      </trkpt>
      <trkpt lat="45.23348" lon="5.73869">
        <ele>988.79998779297</ele>
        <time>2021-09-11T05:49:47.000Z</time>
      </trkpt>
      <trkpt lat="45.23342" lon="5.7387">
        <ele>989.59997558594</ele>
        <time>2021-09-11T05:49:51.000Z</time>
      </trkpt>
      <trkpt lat="45.23341" lon="5.73871">
        <ele>989.79998779297</ele>
        <time>2021-09-11T05:49:52.000Z</time>
      </trkpt>
      <trkpt lat="45.23337" lon="5.73874">
        <ele>990.40002441406</ele>
        <time>2021-09-11T05:49:54.000Z</time>
      </trkpt>
      <trkpt lat="45.23333" lon="5.73876">
        <ele>991.20001220703</ele>
        <time>2021-09-11T05:49:58.000Z</time>
      </trkpt>
      <trkpt lat="45.23333" lon="5.73877">
        <ele>991.59997558594</ele>
        <time>2021-09-11T05:49:59.000Z</time>
      </trkpt>
      <trkpt lat="45.2333" lon="5.73878">
        <ele>992.40002441406</ele>
        <time>2021-09-11T05:50:02.000Z</time>
      </trkpt>
      <trkpt lat="45.23327" lon="5.73878">
        <ele>992.59997558594</ele>
        <time>2021-09-11T05:50:04.000Z</time>
      </trkpt>
      <trkpt lat="45.23326" lon="5.73879">
        <ele>993</ele>
        <time>2021-09-11T05:50:06.000Z</time>
      </trkpt>
      <trkpt lat="45.23324" lon="5.7388">
        <ele>993.40002441406</ele>
        <time>2021-09-11T05:50:08.000Z</time>
      </trkpt>
      <trkpt lat="45.23323" lon="5.73881">
        <ele>993.79998779297</ele>
        <time>2021-09-11T05:50:09.000Z</time>
      </trkpt>
      <trkpt lat="45.23321" lon="5.73881">
        <ele>994.40002441406</ele>
        <time>2021-09-11T05:50:11.000Z</time>
      </trkpt>
      <trkpt lat="45.2332" lon="5.73881">
        <ele>994.59997558594</ele>
        <time>2021-09-11T05:50:12.000Z</time>
      </trkpt>
      <trkpt lat="45.23317" lon="5.73881">
        <ele>995</ele>
        <time>2021-09-11T05:50:14.000Z</time>
      </trkpt>
      <trkpt lat="45.23316" lon="5.73882">
        <ele>995.20001220703</ele>
        <time>2021-09-11T05:50:15.000Z</time>
      </trkpt>
      <trkpt lat="45.23313" lon="5.73882">
        <ele>995.79998779297</ele>
        <time>2021-09-11T05:50:17.000Z</time>
      </trkpt>
      <trkpt lat="45.2331" lon="5.73882">
        <ele>997</ele>
        <time>2021-09-11T05:50:20.000Z</time>
      </trkpt>
      <trkpt lat="45.23306" lon="5.73882">
        <ele>997.40002441406</ele>
        <time>2021-09-11T05:50:22.000Z</time>
      </trkpt>
      <trkpt lat="45.23303" lon="5.73881">
        <ele>998.20001220703</ele>
        <time>2021-09-11T05:50:25.000Z</time>
      </trkpt>
      <trkpt lat="45.23297" lon="5.73882">
        <ele>999</ele>
        <time>2021-09-11T05:50:29.000Z</time>
      </trkpt>
      <trkpt lat="45.23294" lon="5.73884">
        <ele>999.40002441406</ele>
        <time>2021-09-11T05:50:31.000Z</time>
      </trkpt>
      <trkpt lat="45.23286" lon="5.73888">
        <ele>1000.5999755859</ele>
        <time>2021-09-11T05:50:36.000Z</time>
      </trkpt>
      <trkpt lat="45.23285" lon="5.73888">
        <ele>1000.799987793</ele>
        <time>2021-09-11T05:50:37.000Z</time>
      </trkpt>
      <trkpt lat="45.23281" lon="5.73888">
        <ele>1001.200012207</ele>
        <time>2021-09-11T05:50:40.000Z</time>
      </trkpt>
      <trkpt lat="45.2328" lon="5.73888">
        <ele>1001.5999755859</ele>
        <time>2021-09-11T05:50:41.000Z</time>
      </trkpt>
      <trkpt lat="45.23276" lon="5.73889">
        <ele>1002.4000244141</ele>
        <time>2021-09-11T05:50:44.000Z</time>
      </trkpt>
      <trkpt lat="45.23273" lon="5.73889">
        <ele>1002.5999755859</ele>
        <time>2021-09-11T05:50:46.000Z</time>
      </trkpt>
      <trkpt lat="45.2327" lon="5.73892">
        <ele>1003.799987793</ele>
        <time>2021-09-11T05:50:49.000Z</time>
      </trkpt>
      <trkpt lat="45.23268" lon="5.73894">
        <ele>1004.200012207</ele>
        <time>2021-09-11T05:50:51.000Z</time>
      </trkpt>
      <trkpt lat="45.23265" lon="5.73895">
        <ele>1005</ele>
        <time>2021-09-11T05:50:54.000Z</time>
      </trkpt>
      <trkpt lat="45.23261" lon="5.73897">
        <ele>1005.799987793</ele>
        <time>2021-09-11T05:50:58.000Z</time>
      </trkpt>
      <trkpt lat="45.2326" lon="5.73897">
        <ele>1006.200012207</ele>
        <time>2021-09-11T05:50:59.000Z</time>
      </trkpt>
      <trkpt lat="45.2326" lon="5.73898">
        <ele>1006.4000244141</ele>
        <time>2021-09-11T05:51:00.000Z</time>
      </trkpt>
      <trkpt lat="45.2326" lon="5.73899">
        <ele>1006.5999755859</ele>
        <time>2021-09-11T05:51:01.000Z</time>
      </trkpt>
      <trkpt lat="45.2326" lon="5.739">
        <ele>1006.5999755859</ele>
        <time>2021-09-11T05:51:02.000Z</time>
      </trkpt>
      <trkpt lat="45.2326" lon="5.73901">
        <ele>1007</ele>
        <time>2021-09-11T05:51:04.000Z</time>
      </trkpt>
      <trkpt lat="45.2326" lon="5.73902">
        <ele>1007.200012207</ele>
        <time>2021-09-11T05:51:05.000Z</time>
      </trkpt>
      <trkpt lat="45.23261" lon="5.73905">
        <ele>1007.4000244141</ele>
        <time>2021-09-11T05:51:08.000Z</time>
      </trkpt>
      <trkpt lat="45.23264" lon="5.73908">
        <ele>1008.200012207</ele>
        <time>2021-09-11T05:51:12.000Z</time>
      </trkpt>
      <trkpt lat="45.23264" lon="5.7391">
        <ele>1008.5999755859</ele>
        <time>2021-09-11T05:51:13.000Z</time>
      </trkpt>
      <trkpt lat="45.23264" lon="5.73912">
        <ele>1008.799987793</ele>
        <time>2021-09-11T05:51:14.000Z</time>
      </trkpt>
      <trkpt lat="45.23263" lon="5.73914">
        <ele>1009.5999755859</ele>
        <time>2021-09-11T05:51:17.000Z</time>
      </trkpt>
      <trkpt lat="45.23263" lon="5.73915">
        <ele>1010</ele>
        <time>2021-09-11T05:51:18.000Z</time>
      </trkpt>
      <trkpt lat="45.23265" lon="5.7392">
        <ele>1010.5999755859</ele>
        <time>2021-09-11T05:51:20.000Z</time>
      </trkpt>
      <trkpt lat="45.23265" lon="5.73921">
        <ele>1011</ele>
        <time>2021-09-11T05:51:21.000Z</time>
      </trkpt>
      <trkpt lat="45.23265" lon="5.73926">
        <ele>1012</ele>
        <time>2021-09-11T05:51:25.000Z</time>
      </trkpt>
      <trkpt lat="45.23266" lon="5.73927">
        <ele>1012.200012207</ele>
        <time>2021-09-11T05:51:26.000Z</time>
      </trkpt>
      <trkpt lat="45.23267" lon="5.7393">
        <ele>1013.200012207</ele>
        <time>2021-09-11T05:51:29.000Z</time>
      </trkpt>
      <trkpt lat="45.23268" lon="5.7393">
        <ele>1013.5999755859</ele>
        <time>2021-09-11T05:51:30.000Z</time>
      </trkpt>
      <trkpt lat="45.23269" lon="5.73932">
        <ele>1014</ele>
        <time>2021-09-11T05:51:32.000Z</time>
      </trkpt>
      <trkpt lat="45.23269" lon="5.73933">
        <ele>1014.4000244141</ele>
        <time>2021-09-11T05:51:33.000Z</time>
      </trkpt>
      <trkpt lat="45.2327" lon="5.73934">
        <ele>1014.5999755859</ele>
        <time>2021-09-11T05:51:34.000Z</time>
      </trkpt>
      <trkpt lat="45.23272" lon="5.73939">
        <ele>1015.5999755859</ele>
        <time>2021-09-11T05:51:38.000Z</time>
      </trkpt>
      <trkpt lat="45.23274" lon="5.73941">
        <ele>1016.799987793</ele>
        <time>2021-09-11T05:51:41.000Z</time>
      </trkpt>
      <trkpt lat="45.23275" lon="5.73942">
        <ele>1017</ele>
        <time>2021-09-11T05:51:42.000Z</time>
      </trkpt>
      <trkpt lat="45.23275" lon="5.73947">
        <ele>1017.799987793</ele>
        <time>2021-09-11T05:51:46.000Z</time>
      </trkpt>
      <trkpt lat="45.23276" lon="5.73947">
        <ele>1018.200012207</ele>
        <time>2021-09-11T05:51:47.000Z</time>
      </trkpt>
      <trkpt lat="45.23278" lon="5.73948">
        <ele>1019.200012207</ele>
        <time>2021-09-11T05:51:50.000Z</time>
      </trkpt>
      <trkpt lat="45.23278" lon="5.73948">
        <ele>1019.5999755859</ele>
        <time>2021-09-11T05:51:51.000Z</time>
      </trkpt>
      <trkpt lat="45.23279" lon="5.73951">
        <ele>1020.200012207</ele>
        <time>2021-09-11T05:51:55.000Z</time>
      </trkpt>
      <trkpt lat="45.23279" lon="5.73954">
        <ele>1020.5999755859</ele>
        <time>2021-09-11T05:51:57.000Z</time>
      </trkpt>
      <trkpt lat="45.23279" lon="5.73957">
        <ele>1021.4000244141</ele>
        <time>2021-09-11T05:51:59.000Z</time>
      </trkpt>
      <trkpt lat="45.23278" lon="5.73959">
        <ele>1022.4000244141</ele>
        <time>2021-09-11T05:52:02.000Z</time>
      </trkpt>
      <trkpt lat="45.23278" lon="5.73959">
        <ele>1022.5999755859</ele>
        <time>2021-09-11T05:52:03.000Z</time>
      </trkpt>
      <trkpt lat="45.23279" lon="5.73959">
        <ele>1022.799987793</ele>
        <time>2021-09-11T05:52:06.000Z</time>
      </trkpt>
      <trkpt lat="45.2328" lon="5.7396">
        <ele>1023</ele>
        <time>2021-09-11T05:52:08.000Z</time>
      </trkpt>
      <trkpt lat="45.23282" lon="5.73968">
        <ele>1023.5999755859</ele>
        <time>2021-09-11T05:52:12.000Z</time>
      </trkpt>
      <trkpt lat="45.23281" lon="5.73972">
        <ele>1023.5999755859</ele>
        <time>2021-09-11T05:52:13.000Z</time>
      </trkpt>
      <trkpt lat="45.23277" lon="5.73977">
        <ele>1023.5999755859</ele>
        <time>2021-09-11T05:52:15.000Z</time>
      </trkpt>
      <trkpt lat="45.23274" lon="5.73981">
        <ele>1023.5999755859</ele>
        <time>2021-09-11T05:52:17.000Z</time>
      </trkpt>
      <trkpt lat="45.23266" lon="5.73986">
        <ele>1022.5999755859</ele>
        <time>2021-09-11T05:52:21.000Z</time>
      </trkpt>
      <trkpt lat="45.23263" lon="5.73988">
        <ele>1022.200012207</ele>
        <time>2021-09-11T05:52:23.000Z</time>
      </trkpt>
      <trkpt lat="45.23253" lon="5.73995">
        <ele>1021.4000244141</ele>
        <time>2021-09-11T05:52:28.000Z</time>
      </trkpt>
      <trkpt lat="45.23248" lon="5.74002">
        <ele>1021</ele>
        <time>2021-09-11T05:52:31.000Z</time>
      </trkpt>
      <trkpt lat="45.23237" lon="5.74014">
        <ele>1020.799987793</ele>
        <time>2021-09-11T05:52:40.000Z</time>
      </trkpt>
      <trkpt lat="45.2324" lon="5.74014">
        <ele>1020.799987793</ele>
        <time>2021-09-11T05:52:43.000Z</time>
      </trkpt>
      <trkpt lat="45.23242" lon="5.74013">
        <ele>1020.799987793</ele>
        <time>2021-09-11T05:52:44.000Z</time>
      </trkpt>
      <trkpt lat="45.23251" lon="5.74019">
        <ele>1021.5999755859</ele>
        <time>2021-09-11T05:52:52.000Z</time>
      </trkpt>
      <trkpt lat="45.23252" lon="5.74022">
        <ele>1022</ele>
        <time>2021-09-11T05:52:54.000Z</time>
      </trkpt>
      <trkpt lat="45.23254" lon="5.74025">
        <ele>1022.5999755859</ele>
        <time>2021-09-11T05:52:56.000Z</time>
      </trkpt>
      <trkpt lat="45.23257" lon="5.74027">
        <ele>1023</ele>
        <time>2021-09-11T05:52:59.000Z</time>
      </trkpt>
      <trkpt lat="45.23258" lon="5.74027">
        <ele>1023.200012207</ele>
        <time>2021-09-11T05:53:00.000Z</time>
      </trkpt>
      <trkpt lat="45.23257" lon="5.74027">
        <ele>1023.200012207</ele>
        <time>2021-09-11T05:53:01.000Z</time>
      </trkpt>
      <trkpt lat="45.23258" lon="5.74029">
        <ele>1023.4000244141</ele>
        <time>2021-09-11T05:53:03.000Z</time>
      </trkpt>
      <trkpt lat="45.23258" lon="5.74031">
        <ele>1023.5999755859</ele>
        <time>2021-09-11T05:53:05.000Z</time>
      </trkpt>
      <trkpt lat="45.23258" lon="5.74031">
        <ele>1023.799987793</ele>
        <time>2021-09-11T05:53:06.000Z</time>
      </trkpt>
      <trkpt lat="45.23253" lon="5.74031">
        <ele>1023.799987793</ele>
        <time>2021-09-11T05:53:11.000Z</time>
      </trkpt>
      <trkpt lat="45.23254" lon="5.7403">
        <ele>1024</ele>
        <time>2021-09-11T05:53:14.000Z</time>
      </trkpt>
      <trkpt lat="45.23254" lon="5.7403">
        <ele>1023.799987793</ele>
        <time>2021-09-11T05:53:15.000Z</time>
      </trkpt>
      <trkpt lat="45.23254" lon="5.7403">
        <ele>1023.799987793</ele>
        <time>2021-09-11T05:53:18.000Z</time>
      </trkpt>
      <trkpt lat="45.23254" lon="5.7403">
        <ele>1023.799987793</ele>
        <time>2021-09-11T05:53:22.000Z</time>
      </trkpt>
      <trkpt lat="45.23254" lon="5.74031">
        <ele>1023.799987793</ele>
        <time>2021-09-11T05:53:27.000Z</time>
      </trkpt>
      <trkpt lat="45.23253" lon="5.74031">
        <ele>1023.799987793</ele>
        <time>2021-09-11T05:53:29.000Z</time>
      </trkpt>
      <trkpt lat="45.23253" lon="5.74032">
        <ele>1023.799987793</ele>
        <time>2021-09-11T05:53:34.000Z</time>
      </trkpt>
      <trkpt lat="45.23253" lon="5.74032">
        <ele>1023.799987793</ele>
        <time>2021-09-11T05:53:35.000Z</time>
      </trkpt>
      <trkpt lat="45.23253" lon="5.74033">
        <ele>1023.799987793</ele>
        <time>2021-09-11T05:53:37.000Z</time>
      </trkpt>
      <trkpt lat="45.23249" lon="5.74034">
        <ele>1023.4000244141</ele>
        <time>2021-09-11T05:53:49.000Z</time>
      </trkpt>
      <trkpt lat="45.23244" lon="5.74034">
        <ele>1023</ele>
        <time>2021-09-11T05:53:51.000Z</time>
      </trkpt>
      <trkpt lat="45.23242" lon="5.74034">
        <ele>1023</ele>
        <time>2021-09-11T05:53:52.000Z</time>
      </trkpt>
      <trkpt lat="45.2324" lon="5.74036">
        <ele>1022.799987793</ele>
        <time>2021-09-11T05:53:54.000Z</time>
      </trkpt>
      <trkpt lat="45.23238" lon="5.74037">
        <ele>1022.799987793</ele>
        <time>2021-09-11T05:53:55.000Z</time>
      </trkpt>
      <trkpt lat="45.23237" lon="5.74037">
        <ele>1022.5999755859</ele>
        <time>2021-09-11T05:53:56.000Z</time>
      </trkpt>
      <trkpt lat="45.23233" lon="5.74039">
        <ele>1022.5999755859</ele>
        <time>2021-09-11T05:53:59.000Z</time>
      </trkpt>
      <trkpt lat="45.23228" lon="5.74037">
        <ele>1022.4000244141</ele>
        <time>2021-09-11T05:54:02.000Z</time>
      </trkpt>
      <trkpt lat="45.23221" lon="5.74033">
        <ele>1022.200012207</ele>
        <time>2021-09-11T05:54:05.000Z</time>
      </trkpt>
      <trkpt lat="45.23216" lon="5.74031">
        <ele>1022.200012207</ele>
        <time>2021-09-11T05:54:07.000Z</time>
      </trkpt>
      <trkpt lat="45.23212" lon="5.74027">
        <ele>1022.5999755859</ele>
        <time>2021-09-11T05:54:09.000Z</time>
      </trkpt>
      <trkpt lat="45.2321" lon="5.74026">
        <ele>1022.5999755859</ele>
        <time>2021-09-11T05:54:10.000Z</time>
      </trkpt>
      <trkpt lat="45.23206" lon="5.7402">
        <ele>1022.5999755859</ele>
        <time>2021-09-11T05:54:12.000Z</time>
      </trkpt>
      <trkpt lat="45.23201" lon="5.74013">
        <ele>1023</ele>
        <time>2021-09-11T05:54:15.000Z</time>
      </trkpt>
      <trkpt lat="45.23199" lon="5.74012">
        <ele>1023</ele>
        <time>2021-09-11T05:54:16.000Z</time>
      </trkpt>
      <trkpt lat="45.23195" lon="5.74009">
        <ele>1023</ele>
        <time>2021-09-11T05:54:18.000Z</time>
      </trkpt>
      <trkpt lat="45.2319" lon="5.74005">
        <ele>1023.5999755859</ele>
        <time>2021-09-11T05:54:21.000Z</time>
      </trkpt>
      <trkpt lat="45.23187" lon="5.74004">
        <ele>1023.799987793</ele>
        <time>2021-09-11T05:54:23.000Z</time>
      </trkpt>
      <trkpt lat="45.23185" lon="5.74003">
        <ele>1024</ele>
        <time>2021-09-11T05:54:24.000Z</time>
      </trkpt>
      <trkpt lat="45.23181" lon="5.74">
        <ele>1024.5999755859</ele>
        <time>2021-09-11T05:54:26.000Z</time>
      </trkpt>
      <trkpt lat="45.23177" lon="5.73998">
        <ele>1025</ele>
        <time>2021-09-11T05:54:28.000Z</time>
      </trkpt>
      <trkpt lat="45.23172" lon="5.73996">
        <ele>1025.5999755859</ele>
        <time>2021-09-11T05:54:31.000Z</time>
      </trkpt>
      <trkpt lat="45.2317" lon="5.73994">
        <ele>1025.8000488281</ele>
        <time>2021-09-11T05:54:32.000Z</time>
      </trkpt>
      <trkpt lat="45.23166" lon="5.73992">
        <ele>1026.1999511719</ele>
        <time>2021-09-11T05:54:34.000Z</time>
      </trkpt>
      <trkpt lat="45.23148" lon="5.73986">
        <ele>1027</ele>
        <time>2021-09-11T05:54:42.000Z</time>
      </trkpt>
      <trkpt lat="45.23138" lon="5.73982">
        <ele>1026.5999755859</ele>
        <time>2021-09-11T05:54:46.000Z</time>
      </trkpt>
      <trkpt lat="45.23127" lon="5.73981">
        <ele>1026.1999511719</ele>
        <time>2021-09-11T05:54:50.000Z</time>
      </trkpt>
      <trkpt lat="45.23113" lon="5.73983">
        <ele>1025.5999755859</ele>
        <time>2021-09-11T05:54:56.000Z</time>
      </trkpt>
      <trkpt lat="45.23102" lon="5.73984">
        <ele>1025.1999511719</ele>
        <time>2021-09-11T05:55:00.000Z</time>
      </trkpt>
      <trkpt lat="45.231" lon="5.73982">
        <ele>1025.1999511719</ele>
        <time>2021-09-11T05:55:01.000Z</time>
      </trkpt>
      <trkpt lat="45.23096" lon="5.73979">
        <ele>1024.8000488281</ele>
        <time>2021-09-11T05:55:03.000Z</time>
      </trkpt>
      <trkpt lat="45.23086" lon="5.73973">
        <ele>1024</ele>
        <time>2021-09-11T05:55:07.000Z</time>
      </trkpt>
      <trkpt lat="45.23078" lon="5.7397">
        <ele>1022.799987793</ele>
        <time>2021-09-11T05:55:10.000Z</time>
      </trkpt>
      <trkpt lat="45.23072" lon="5.73969">
        <ele>1021.799987793</ele>
        <time>2021-09-11T05:55:12.000Z</time>
      </trkpt>
      <trkpt lat="45.23062" lon="5.73971">
        <ele>1020.5999755859</ele>
        <time>2021-09-11T05:55:15.000Z</time>
      </trkpt>
      <trkpt lat="45.2306" lon="5.73972">
        <ele>1020.4000244141</ele>
        <time>2021-09-11T05:55:16.000Z</time>
      </trkpt>
      <trkpt lat="45.23049" lon="5.73976">
        <ele>1019.4000244141</ele>
        <time>2021-09-11T05:55:20.000Z</time>
      </trkpt>
      <trkpt lat="45.23043" lon="5.73978">
        <ele>1019.200012207</ele>
        <time>2021-09-11T05:55:22.000Z</time>
      </trkpt>
      <trkpt lat="45.23026" lon="5.73977">
        <ele>1018.5999755859</ele>
        <time>2021-09-11T05:55:28.000Z</time>
      </trkpt>
      <trkpt lat="45.23006" lon="5.73973">
        <ele>1018.4000244141</ele>
        <time>2021-09-11T05:55:35.000Z</time>
      </trkpt>
      <trkpt lat="45.23003" lon="5.73973">
        <ele>1018.200012207</ele>
        <time>2021-09-11T05:55:36.000Z</time>
      </trkpt>
      <trkpt lat="45.22997" lon="5.73974">
        <ele>1018</ele>
        <time>2021-09-11T05:55:38.000Z</time>
      </trkpt>
      <trkpt lat="45.22978" lon="5.7397">
        <ele>1017.5999755859</ele>
        <time>2021-09-11T05:55:44.000Z</time>
      </trkpt>
      <trkpt lat="45.22972" lon="5.73967">
        <ele>1017.200012207</ele>
        <time>2021-09-11T05:55:46.000Z</time>
      </trkpt>
      <trkpt lat="45.22969" lon="5.73965">
        <ele>1017.200012207</ele>
        <time>2021-09-11T05:55:47.000Z</time>
      </trkpt>
      <trkpt lat="45.22956" lon="5.73949">
        <ele>1017</ele>
        <time>2021-09-11T05:55:53.000Z</time>
      </trkpt>
      <trkpt lat="45.22947" lon="5.73927">
        <ele>1016.799987793</ele>
        <time>2021-09-11T05:55:59.000Z</time>
      </trkpt>
      <trkpt lat="45.22946" lon="5.73923">
        <ele>1016.5999755859</ele>
        <time>2021-09-11T05:56:00.000Z</time>
      </trkpt>
      <trkpt lat="45.22943" lon="5.73898">
        <ele>1017.799987793</ele>
        <time>2021-09-11T05:56:07.000Z</time>
      </trkpt>
      <trkpt lat="45.22943" lon="5.73892">
        <ele>1018.5999755859</ele>
        <time>2021-09-11T05:56:09.000Z</time>
      </trkpt>
      <trkpt lat="45.22942" lon="5.73881">
        <ele>1020</ele>
        <time>2021-09-11T05:56:13.000Z</time>
      </trkpt>
      <trkpt lat="45.22943" lon="5.73875">
        <ele>1021.200012207</ele>
        <time>2021-09-11T05:56:16.000Z</time>
      </trkpt>
      <trkpt lat="45.22944" lon="5.73871">
        <ele>1021.5999755859</ele>
        <time>2021-09-11T05:56:18.000Z</time>
      </trkpt>
      <trkpt lat="45.22943" lon="5.7387">
        <ele>1021.799987793</ele>
        <time>2021-09-11T05:56:19.000Z</time>
      </trkpt>
      <trkpt lat="45.22939" lon="5.73869">
        <ele>1022.200012207</ele>
        <time>2021-09-11T05:56:22.000Z</time>
      </trkpt>
      <trkpt lat="45.22937" lon="5.73869">
        <ele>1022.4000244141</ele>
        <time>2021-09-11T05:56:23.000Z</time>
      </trkpt>
      <trkpt lat="45.22929" lon="5.7387">
        <ele>1023.5999755859</ele>
        <time>2021-09-11T05:56:28.000Z</time>
      </trkpt>
      <trkpt lat="45.22926" lon="5.7387">
        <ele>1023.799987793</ele>
        <time>2021-09-11T05:56:30.000Z</time>
      </trkpt>
      <trkpt lat="45.22922" lon="5.7387">
        <ele>1024</ele>
        <time>2021-09-11T05:56:32.000Z</time>
      </trkpt>
      <trkpt lat="45.22917" lon="5.73869">
        <ele>1024.1999511719</ele>
        <time>2021-09-11T05:56:35.000Z</time>
      </trkpt>
      <trkpt lat="45.22914" lon="5.73869">
        <ele>1024.5999755859</ele>
        <time>2021-09-11T05:56:37.000Z</time>
      </trkpt>
      <trkpt lat="45.2291" lon="5.7387">
        <ele>1024.5999755859</ele>
        <time>2021-09-11T05:56:39.000Z</time>
      </trkpt>
      <trkpt lat="45.22901" lon="5.73871">
        <ele>1025.1999511719</ele>
        <time>2021-09-11T05:56:43.000Z</time>
      </trkpt>
      <trkpt lat="45.22893" lon="5.73875">
        <ele>1025.5999755859</ele>
        <time>2021-09-11T05:56:47.000Z</time>
      </trkpt>
      <trkpt lat="45.22884" lon="5.73883">
        <ele>1025.8000488281</ele>
        <time>2021-09-11T05:56:50.000Z</time>
      </trkpt>
      <trkpt lat="45.22881" lon="5.73885">
        <ele>1025.8000488281</ele>
        <time>2021-09-11T05:56:51.000Z</time>
      </trkpt>
      <trkpt lat="45.22866" lon="5.73888">
        <ele>1025.8000488281</ele>
        <time>2021-09-11T05:56:57.000Z</time>
      </trkpt>
      <trkpt lat="45.22858" lon="5.73886">
        <ele>1026.5999755859</ele>
        <time>2021-09-11T05:57:01.000Z</time>
      </trkpt>
      <trkpt lat="45.22856" lon="5.73885">
        <ele>1027</ele>
        <time>2021-09-11T05:57:02.000Z</time>
      </trkpt>
      <trkpt lat="45.22846" lon="5.73886">
        <ele>1027.1999511719</ele>
        <time>2021-09-11T05:57:07.000Z</time>
      </trkpt>
      <trkpt lat="45.22844" lon="5.73886">
        <ele>1027.1999511719</ele>
        <time>2021-09-11T05:57:08.000Z</time>
      </trkpt>
      <trkpt lat="45.22838" lon="5.73884">
        <ele>1027.4000244141</ele>
        <time>2021-09-11T05:57:11.000Z</time>
      </trkpt>
      <trkpt lat="45.22834" lon="5.73882">
        <ele>1027.8000488281</ele>
        <time>2021-09-11T05:57:13.000Z</time>
      </trkpt>
      <trkpt lat="45.22822" lon="5.73877">
        <ele>1029</ele>
        <time>2021-09-11T05:57:19.000Z</time>
      </trkpt>
      <trkpt lat="45.22816" lon="5.73875">
        <ele>1029.5999755859</ele>
        <time>2021-09-11T05:57:22.000Z</time>
      </trkpt>
      <trkpt lat="45.22814" lon="5.73873">
        <ele>1030</ele>
        <time>2021-09-11T05:57:23.000Z</time>
      </trkpt>
      <trkpt lat="45.22811" lon="5.73871">
        <ele>1030.8000488281</ele>
        <time>2021-09-11T05:57:25.000Z</time>
      </trkpt>
      <trkpt lat="45.22806" lon="5.73867">
        <ele>1031.1999511719</ele>
        <time>2021-09-11T05:57:28.000Z</time>
      </trkpt>
      <trkpt lat="45.22798" lon="5.73862">
        <ele>1031.8000488281</ele>
        <time>2021-09-11T05:57:32.000Z</time>
      </trkpt>
      <trkpt lat="45.22793" lon="5.7386">
        <ele>1032.1999511719</ele>
        <time>2021-09-11T05:57:34.000Z</time>
      </trkpt>
      <trkpt lat="45.22791" lon="5.73859">
        <ele>1032.4000244141</ele>
        <time>2021-09-11T05:57:35.000Z</time>
      </trkpt>
      <trkpt lat="45.22789" lon="5.73859">
        <ele>1032.5999755859</ele>
        <time>2021-09-11T05:57:36.000Z</time>
      </trkpt>
      <trkpt lat="45.22783" lon="5.73856">
        <ele>1032.8000488281</ele>
        <time>2021-09-11T05:57:39.000Z</time>
      </trkpt>
      <trkpt lat="45.22774" lon="5.7385">
        <ele>1032.5999755859</ele>
        <time>2021-09-11T05:57:43.000Z</time>
      </trkpt>
      <trkpt lat="45.22762" lon="5.73843">
        <ele>1032.4000244141</ele>
        <time>2021-09-11T05:57:48.000Z</time>
      </trkpt>
      <trkpt lat="45.22745" lon="5.73833">
        <ele>1032.5999755859</ele>
        <time>2021-09-11T05:57:56.000Z</time>
      </trkpt>
      <trkpt lat="45.2273" lon="5.73826">
        <ele>1033.1999511719</ele>
        <time>2021-09-11T05:58:02.000Z</time>
      </trkpt>
      <trkpt lat="45.22724" lon="5.73823">
        <ele>1033.5999755859</ele>
        <time>2021-09-11T05:58:05.000Z</time>
      </trkpt>
      <trkpt lat="45.22711" lon="5.7382">
        <ele>1033.4000244141</ele>
        <time>2021-09-11T05:58:11.000Z</time>
      </trkpt>
      <trkpt lat="45.22694" lon="5.73813">
        <ele>1032.5999755859</ele>
        <time>2021-09-11T05:58:18.000Z</time>
      </trkpt>
      <trkpt lat="45.22686" lon="5.73805">
        <ele>1032</ele>
        <time>2021-09-11T05:58:22.000Z</time>
      </trkpt>
      <trkpt lat="45.22682" lon="5.73801">
        <ele>1031.8000488281</ele>
        <time>2021-09-11T05:58:24.000Z</time>
      </trkpt>
      <trkpt lat="45.22676" lon="5.73796">
        <ele>1030.8000488281</ele>
        <time>2021-09-11T05:58:27.000Z</time>
      </trkpt>
      <trkpt lat="45.22669" lon="5.73795">
        <ele>1029.5999755859</ele>
        <time>2021-09-11T05:58:30.000Z</time>
      </trkpt>
      <trkpt lat="45.22661" lon="5.73791">
        <ele>1028.4000244141</ele>
        <time>2021-09-11T05:58:33.000Z</time>
      </trkpt>
      <trkpt lat="45.22656" lon="5.73786">
        <ele>1028</ele>
        <time>2021-09-11T05:58:35.000Z</time>
      </trkpt>
      <trkpt lat="45.22648" lon="5.73778">
        <ele>1027.5999755859</ele>
        <time>2021-09-11T05:58:40.000Z</time>
      </trkpt>
      <trkpt lat="45.22635" lon="5.73763">
        <ele>1027.8000488281</ele>
        <time>2021-09-11T05:58:46.000Z</time>
      </trkpt>
      <trkpt lat="45.22627" lon="5.73757">
        <ele>1027.1999511719</ele>
        <time>2021-09-11T05:58:50.000Z</time>
      </trkpt>
      <trkpt lat="45.22623" lon="5.73754">
        <ele>1026.5999755859</ele>
        <time>2021-09-11T05:58:52.000Z</time>
      </trkpt>
      <trkpt lat="45.22618" lon="5.73752">
        <ele>1026.1999511719</ele>
        <time>2021-09-11T05:58:54.000Z</time>
      </trkpt>
      <trkpt lat="45.22612" lon="5.73749">
        <ele>1025</ele>
        <time>2021-09-11T05:58:57.000Z</time>
      </trkpt>
      <trkpt lat="45.2261" lon="5.73747">
        <ele>1024.8000488281</ele>
        <time>2021-09-11T05:58:58.000Z</time>
      </trkpt>
      <trkpt lat="45.22604" lon="5.73741">
        <ele>1023.5999755859</ele>
        <time>2021-09-11T05:59:01.000Z</time>
      </trkpt>
      <trkpt lat="45.22598" lon="5.73738">
        <ele>1022.4000244141</ele>
        <time>2021-09-11T05:59:04.000Z</time>
      </trkpt>
      <trkpt lat="45.22596" lon="5.73737">
        <ele>1022</ele>
        <time>2021-09-11T05:59:05.000Z</time>
      </trkpt>
      <trkpt lat="45.2259" lon="5.73735">
        <ele>1020.799987793</ele>
        <time>2021-09-11T05:59:07.000Z</time>
      </trkpt>
      <trkpt lat="45.22581" lon="5.73733">
        <ele>1020.200012207</ele>
        <time>2021-09-11T05:59:10.000Z</time>
      </trkpt>
      <trkpt lat="45.22573" lon="5.73727">
        <ele>1019.799987793</ele>
        <time>2021-09-11T05:59:13.000Z</time>
      </trkpt>
      <trkpt lat="45.22567" lon="5.7372">
        <ele>1019.4000244141</ele>
        <time>2021-09-11T05:59:16.000Z</time>
      </trkpt>
      <trkpt lat="45.22563" lon="5.73716">
        <ele>1018.5999755859</ele>
        <time>2021-09-11T05:59:19.000Z</time>
      </trkpt>
      <trkpt lat="45.22559" lon="5.73714">
        <ele>1017.200012207</ele>
        <time>2021-09-11T05:59:21.000Z</time>
      </trkpt>
      <trkpt lat="45.22555" lon="5.73714">
        <ele>1016.200012207</ele>
        <time>2021-09-11T05:59:23.000Z</time>
      </trkpt>
      <trkpt lat="45.2255" lon="5.73711">
        <ele>1015.200012207</ele>
        <time>2021-09-11T05:59:26.000Z</time>
      </trkpt>
      <trkpt lat="45.22544" lon="5.73707">
        <ele>1014</ele>
        <time>2021-09-11T05:59:29.000Z</time>
      </trkpt>
      <trkpt lat="45.2254" lon="5.73707">
        <ele>1012.799987793</ele>
        <time>2021-09-11T05:59:31.000Z</time>
      </trkpt>
      <trkpt lat="45.22535" lon="5.73705">
        <ele>1011.5999755859</ele>
        <time>2021-09-11T05:59:34.000Z</time>
      </trkpt>
      <trkpt lat="45.2253" lon="5.73701">
        <ele>1010.5999755859</ele>
        <time>2021-09-11T05:59:37.000Z</time>
      </trkpt>
      <trkpt lat="45.22529" lon="5.737">
        <ele>1010</ele>
        <time>2021-09-11T05:59:38.000Z</time>
      </trkpt>
      <trkpt lat="45.22524" lon="5.73698">
        <ele>1008.5999755859</ele>
        <time>2021-09-11T05:59:42.000Z</time>
      </trkpt>
      <trkpt lat="45.22519" lon="5.73697">
        <ele>1007.799987793</ele>
        <time>2021-09-11T05:59:44.000Z</time>
      </trkpt>
      <trkpt lat="45.22517" lon="5.73697">
        <ele>1007.5999755859</ele>
        <time>2021-09-11T05:59:45.000Z</time>
      </trkpt>
      <trkpt lat="45.2251" lon="5.73695">
        <ele>1006.4000244141</ele>
        <time>2021-09-11T05:59:48.000Z</time>
      </trkpt>
      <trkpt lat="45.22507" lon="5.73697">
        <ele>1005.4000244141</ele>
        <time>2021-09-11T05:59:50.000Z</time>
      </trkpt>
      <trkpt lat="45.22505" lon="5.73698">
        <ele>1004.799987793</ele>
        <time>2021-09-11T05:59:52.000Z</time>
      </trkpt>
      <trkpt lat="45.22502" lon="5.737">
        <ele>1004</ele>
        <time>2021-09-11T05:59:54.000Z</time>
      </trkpt>
      <trkpt lat="45.22501" lon="5.737">
        <ele>1003.5999755859</ele>
        <time>2021-09-11T05:59:55.000Z</time>
      </trkpt>
      <trkpt lat="45.22498" lon="5.73699">
        <ele>1002.799987793</ele>
        <time>2021-09-11T05:59:57.000Z</time>
      </trkpt>
      <trkpt lat="45.22497" lon="5.737">
        <ele>1002.4000244141</ele>
        <time>2021-09-11T05:59:58.000Z</time>
      </trkpt>
      <trkpt lat="45.22496" lon="5.737">
        <ele>1002.200012207</ele>
        <time>2021-09-11T05:59:59.000Z</time>
      </trkpt>
      <trkpt lat="45.22495" lon="5.73701">
        <ele>1001.5999755859</ele>
        <time>2021-09-11T06:00:00.000Z</time>
      </trkpt>
      <trkpt lat="45.2249" lon="5.73703">
        <ele>1000.4000244141</ele>
        <time>2021-09-11T06:00:03.000Z</time>
      </trkpt>
      <trkpt lat="45.22489" lon="5.73703">
        <ele>999.79998779297</ele>
        <time>2021-09-11T06:00:04.000Z</time>
      </trkpt>
      <trkpt lat="45.22488" lon="5.73703">
        <ele>999</ele>
        <time>2021-09-11T06:00:06.000Z</time>
      </trkpt>
      <trkpt lat="45.22486" lon="5.73703">
        <ele>998.20001220703</ele>
        <time>2021-09-11T06:00:08.000Z</time>
      </trkpt>
      <trkpt lat="45.22483" lon="5.73704">
        <ele>998</ele>
        <time>2021-09-11T06:00:09.000Z</time>
      </trkpt>
      <trkpt lat="45.2248" lon="5.73704">
        <ele>997.79998779297</ele>
        <time>2021-09-11T06:00:10.000Z</time>
      </trkpt>
      <trkpt lat="45.22476" lon="5.73704">
        <ele>996.79998779297</ele>
        <time>2021-09-11T06:00:12.000Z</time>
      </trkpt>
      <trkpt lat="45.22474" lon="5.73705">
        <ele>996.40002441406</ele>
        <time>2021-09-11T06:00:13.000Z</time>
      </trkpt>
      <trkpt lat="45.22469" lon="5.73706">
        <ele>996.20001220703</ele>
        <time>2021-09-11T06:00:15.000Z</time>
      </trkpt>
      <trkpt lat="45.22454" lon="5.73704">
        <ele>996</ele>
        <time>2021-09-11T06:00:23.000Z</time>
      </trkpt>
      <trkpt lat="45.22452" lon="5.73703">
        <ele>995.59997558594</ele>
        <time>2021-09-11T06:00:24.000Z</time>
      </trkpt>
      <trkpt lat="45.22443" lon="5.737">
        <ele>994.40002441406</ele>
        <time>2021-09-11T06:00:29.000Z</time>
      </trkpt>
      <trkpt lat="45.2244" lon="5.737">
        <ele>993.79998779297</ele>
        <time>2021-09-11T06:00:31.000Z</time>
      </trkpt>
      <trkpt lat="45.22438" lon="5.73701">
        <ele>993</ele>
        <time>2021-09-11T06:00:33.000Z</time>
      </trkpt>
      <trkpt lat="45.22435" lon="5.73702">
        <ele>992.20001220703</ele>
        <time>2021-09-11T06:00:35.000Z</time>
      </trkpt>
      <trkpt lat="45.22432" lon="5.73702">
        <ele>991.79998779297</ele>
        <time>2021-09-11T06:00:36.000Z</time>
      </trkpt>
      <trkpt lat="45.2243" lon="5.73703">
        <ele>991.40002441406</ele>
        <time>2021-09-11T06:00:37.000Z</time>
      </trkpt>
      <trkpt lat="45.22429" lon="5.73702">
        <ele>991.20001220703</ele>
        <time>2021-09-11T06:00:38.000Z</time>
      </trkpt>
      <trkpt lat="45.22427" lon="5.73701">
        <ele>990.59997558594</ele>
        <time>2021-09-11T06:00:40.000Z</time>
      </trkpt>
      <trkpt lat="45.22424" lon="5.737">
        <ele>989.40002441406</ele>
        <time>2021-09-11T06:00:43.000Z</time>
      </trkpt>
      <trkpt lat="45.22422" lon="5.737">
        <ele>988.20001220703</ele>
        <time>2021-09-11T06:00:45.000Z</time>
      </trkpt>
      <trkpt lat="45.22418" lon="5.73699">
        <ele>987.40002441406</ele>
        <time>2021-09-11T06:00:47.000Z</time>
      </trkpt>
      <trkpt lat="45.22416" lon="5.73699">
        <ele>987</ele>
        <time>2021-09-11T06:00:48.000Z</time>
      </trkpt>
      <trkpt lat="45.22412" lon="5.737">
        <ele>986.59997558594</ele>
        <time>2021-09-11T06:00:50.000Z</time>
      </trkpt>
      <trkpt lat="45.22408" lon="5.737">
        <ele>985.20001220703</ele>
        <time>2021-09-11T06:00:52.000Z</time>
      </trkpt>
      <trkpt lat="45.224" lon="5.73698">
        <ele>984</ele>
        <time>2021-09-11T06:00:55.000Z</time>
      </trkpt>
      <trkpt lat="45.22391" lon="5.73694">
        <ele>983</ele>
        <time>2021-09-11T06:00:59.000Z</time>
      </trkpt>
      <trkpt lat="45.22388" lon="5.73693">
        <ele>982.79998779297</ele>
        <time>2021-09-11T06:01:00.000Z</time>
      </trkpt>
      <trkpt lat="45.22381" lon="5.73689">
        <ele>982.59997558594</ele>
        <time>2021-09-11T06:01:03.000Z</time>
      </trkpt>
      <trkpt lat="45.22381" lon="5.73685">
        <ele>982.20001220703</ele>
        <time>2021-09-11T06:01:05.000Z</time>
      </trkpt>
      <trkpt lat="45.22383" lon="5.73679">
        <ele>981.59997558594</ele>
        <time>2021-09-11T06:01:08.000Z</time>
      </trkpt>
      <trkpt lat="45.22384" lon="5.73673">
        <ele>980.79998779297</ele>
        <time>2021-09-11T06:01:11.000Z</time>
      </trkpt>
      <trkpt lat="45.22384" lon="5.73671">
        <ele>980.59997558594</ele>
        <time>2021-09-11T06:01:12.000Z</time>
      </trkpt>
      <trkpt lat="45.22384" lon="5.73667">
        <ele>979.79998779297</ele>
        <time>2021-09-11T06:01:14.000Z</time>
      </trkpt>
      <trkpt lat="45.22384" lon="5.73666">
        <ele>979.40002441406</ele>
        <time>2021-09-11T06:01:15.000Z</time>
      </trkpt>
      <trkpt lat="45.22383" lon="5.7366">
        <ele>978.40002441406</ele>
        <time>2021-09-11T06:01:18.000Z</time>
      </trkpt>
      <trkpt lat="45.22381" lon="5.73652">
        <ele>976.79998779297</ele>
        <time>2021-09-11T06:01:22.000Z</time>
      </trkpt>
      <trkpt lat="45.22381" lon="5.73646">
        <ele>975.79998779297</ele>
        <time>2021-09-11T06:01:25.000Z</time>
      </trkpt>
      <trkpt lat="45.22381" lon="5.73643">
        <ele>975.40002441406</ele>
        <time>2021-09-11T06:01:26.000Z</time>
      </trkpt>
      <trkpt lat="45.2238" lon="5.73639">
        <ele>974.59997558594</ele>
        <time>2021-09-11T06:01:28.000Z</time>
      </trkpt>
      <trkpt lat="45.22379" lon="5.73635">
        <ele>973.59997558594</ele>
        <time>2021-09-11T06:01:30.000Z</time>
      </trkpt>
      <trkpt lat="45.22379" lon="5.73633">
        <ele>973.40002441406</ele>
        <time>2021-09-11T06:01:31.000Z</time>
      </trkpt>
      <trkpt lat="45.22379" lon="5.73629">
        <ele>972.20001220703</ele>
        <time>2021-09-11T06:01:33.000Z</time>
      </trkpt>
      <trkpt lat="45.22379" lon="5.73628">
        <ele>971.79998779297</ele>
        <time>2021-09-11T06:01:34.000Z</time>
      </trkpt>
      <trkpt lat="45.2238" lon="5.73623">
        <ele>971</ele>
        <time>2021-09-11T06:01:36.000Z</time>
      </trkpt>
      <trkpt lat="45.2238" lon="5.73617">
        <ele>969.59997558594</ele>
        <time>2021-09-11T06:01:39.000Z</time>
      </trkpt>
      <trkpt lat="45.2238" lon="5.73614">
        <ele>968.59997558594</ele>
        <time>2021-09-11T06:01:41.000Z</time>
      </trkpt>
      <trkpt lat="45.22379" lon="5.73612">
        <ele>968</ele>
        <time>2021-09-11T06:01:42.000Z</time>
      </trkpt>
      <trkpt lat="45.22379" lon="5.73606">
        <ele>967.20001220703</ele>
        <time>2021-09-11T06:01:45.000Z</time>
      </trkpt>
      <trkpt lat="45.2238" lon="5.73604">
        <ele>966.59997558594</ele>
        <time>2021-09-11T06:01:46.000Z</time>
      </trkpt>
      <trkpt lat="45.22379" lon="5.73601">
        <ele>966</ele>
        <time>2021-09-11T06:01:47.000Z</time>
      </trkpt>
      <trkpt lat="45.22379" lon="5.73598">
        <ele>965.59997558594</ele>
        <time>2021-09-11T06:01:48.000Z</time>
      </trkpt>
      <trkpt lat="45.2238" lon="5.73592">
        <ele>964.40002441406</ele>
        <time>2021-09-11T06:01:51.000Z</time>
      </trkpt>
      <trkpt lat="45.22381" lon="5.73587">
        <ele>963.40002441406</ele>
        <time>2021-09-11T06:01:54.000Z</time>
      </trkpt>
      <trkpt lat="45.22382" lon="5.73585">
        <ele>962.40002441406</ele>
        <time>2021-09-11T06:01:56.000Z</time>
      </trkpt>
      <trkpt lat="45.22382" lon="5.73584">
        <ele>962.20001220703</ele>
        <time>2021-09-11T06:01:57.000Z</time>
      </trkpt>
      <trkpt lat="45.2238" lon="5.7358">
        <ele>960.59997558594</ele>
        <time>2021-09-11T06:02:00.000Z</time>
      </trkpt>
      <trkpt lat="45.2238" lon="5.73578">
        <ele>960</ele>
        <time>2021-09-11T06:02:02.000Z</time>
      </trkpt>
      <trkpt lat="45.2238" lon="5.73576">
        <ele>959.40002441406</ele>
        <time>2021-09-11T06:02:04.000Z</time>
      </trkpt>
      <trkpt lat="45.22379" lon="5.73573">
        <ele>958.40002441406</ele>
        <time>2021-09-11T06:02:06.000Z</time>
      </trkpt>
      <trkpt lat="45.22379" lon="5.73565">
        <ele>957</ele>
        <time>2021-09-11T06:02:09.000Z</time>
      </trkpt>
      <trkpt lat="45.2238" lon="5.73561">
        <ele>955.59997558594</ele>
        <time>2021-09-11T06:02:12.000Z</time>
      </trkpt>
      <trkpt lat="45.2238" lon="5.73556">
        <ele>954.20001220703</ele>
        <time>2021-09-11T06:02:15.000Z</time>
      </trkpt>
      <trkpt lat="45.2238" lon="5.73553">
        <ele>953.40002441406</ele>
        <time>2021-09-11T06:02:17.000Z</time>
      </trkpt>
      <trkpt lat="45.22381" lon="5.73551">
        <ele>952.79998779297</ele>
        <time>2021-09-11T06:02:18.000Z</time>
      </trkpt>
      <trkpt lat="45.22382" lon="5.73546">
        <ele>952</ele>
        <time>2021-09-11T06:02:20.000Z</time>
      </trkpt>
      <trkpt lat="45.22383" lon="5.73544">
        <ele>951.20001220703</ele>
        <time>2021-09-11T06:02:21.000Z</time>
      </trkpt>
      <trkpt lat="45.22384" lon="5.73542">
        <ele>950.59997558594</ele>
        <time>2021-09-11T06:02:22.000Z</time>
      </trkpt>
      <trkpt lat="45.22384" lon="5.73539">
        <ele>950</ele>
        <time>2021-09-11T06:02:23.000Z</time>
      </trkpt>
      <trkpt lat="45.22385" lon="5.73534">
        <ele>948.79998779297</ele>
        <time>2021-09-11T06:02:25.000Z</time>
      </trkpt>
      <trkpt lat="45.22387" lon="5.7353">
        <ele>947.79998779297</ele>
        <time>2021-09-11T06:02:27.000Z</time>
      </trkpt>
      <trkpt lat="45.2239" lon="5.73527">
        <ele>946.59997558594</ele>
        <time>2021-09-11T06:02:29.000Z</time>
      </trkpt>
      <trkpt lat="45.2239" lon="5.73524">
        <ele>946.20001220703</ele>
        <time>2021-09-11T06:02:30.000Z</time>
      </trkpt>
      <trkpt lat="45.22393" lon="5.73521">
        <ele>945.59997558594</ele>
        <time>2021-09-11T06:02:32.000Z</time>
      </trkpt>
      <trkpt lat="45.22399" lon="5.73517">
        <ele>944.40002441406</ele>
        <time>2021-09-11T06:02:35.000Z</time>
      </trkpt>
      <trkpt lat="45.224" lon="5.73516">
        <ele>944</ele>
        <time>2021-09-11T06:02:36.000Z</time>
      </trkpt>
      <trkpt lat="45.22402" lon="5.73515">
        <ele>943.40002441406</ele>
        <time>2021-09-11T06:02:37.000Z</time>
      </trkpt>
      <trkpt lat="45.22406" lon="5.73511">
        <ele>942</ele>
        <time>2021-09-11T06:02:40.000Z</time>
      </trkpt>
      <trkpt lat="45.22411" lon="5.73505">
        <ele>941</ele>
        <time>2021-09-11T06:02:44.000Z</time>
      </trkpt>
      <trkpt lat="45.22415" lon="5.73499">
        <ele>939.20001220703</ele>
        <time>2021-09-11T06:02:48.000Z</time>
      </trkpt>
      <trkpt lat="45.22417" lon="5.73498">
        <ele>938.40002441406</ele>
        <time>2021-09-11T06:02:50.000Z</time>
      </trkpt>
      <trkpt lat="45.22419" lon="5.73498">
        <ele>938</ele>
        <time>2021-09-11T06:02:51.000Z</time>
      </trkpt>
      <trkpt lat="45.22423" lon="5.73492">
        <ele>936.40002441406</ele>
        <time>2021-09-11T06:02:55.000Z</time>
      </trkpt>
      <trkpt lat="45.22424" lon="5.7349">
        <ele>936</ele>
        <time>2021-09-11T06:02:56.000Z</time>
      </trkpt>
      <trkpt lat="45.22428" lon="5.73486">
        <ele>935.20001220703</ele>
        <time>2021-09-11T06:02:58.000Z</time>
      </trkpt>
      <trkpt lat="45.2243" lon="5.73484">
        <ele>935</ele>
        <time>2021-09-11T06:02:59.000Z</time>
      </trkpt>
      <trkpt lat="45.22435" lon="5.7348">
        <ele>934.20001220703</ele>
        <time>2021-09-11T06:03:01.000Z</time>
      </trkpt>
      <trkpt lat="45.22439" lon="5.73476">
        <ele>933.20001220703</ele>
        <time>2021-09-11T06:03:03.000Z</time>
      </trkpt>
      <trkpt lat="45.22445" lon="5.73472">
        <ele>932</ele>
        <time>2021-09-11T06:03:07.000Z</time>
      </trkpt>
      <trkpt lat="45.22447" lon="5.73469">
        <ele>931.40002441406</ele>
        <time>2021-09-11T06:03:09.000Z</time>
      </trkpt>
      <trkpt lat="45.22448" lon="5.73467">
        <ele>930.79998779297</ele>
        <time>2021-09-11T06:03:10.000Z</time>
      </trkpt>
      <trkpt lat="45.2245" lon="5.73461">
        <ele>929.40002441406</ele>
        <time>2021-09-11T06:03:13.000Z</time>
      </trkpt>
      <trkpt lat="45.22452" lon="5.73454">
        <ele>928.20001220703</ele>
        <time>2021-09-11T06:03:16.000Z</time>
      </trkpt>
      <trkpt lat="45.22453" lon="5.73452">
        <ele>927.40002441406</ele>
        <time>2021-09-11T06:03:18.000Z</time>
      </trkpt>
      <trkpt lat="45.22454" lon="5.73451">
        <ele>927</ele>
        <time>2021-09-11T06:03:19.000Z</time>
      </trkpt>
      <trkpt lat="45.22456" lon="5.73449">
        <ele>926.40002441406</ele>
        <time>2021-09-11T06:03:21.000Z</time>
      </trkpt>
      <trkpt lat="45.22457" lon="5.73448">
        <ele>925.79998779297</ele>
        <time>2021-09-11T06:03:22.000Z</time>
      </trkpt>
      <trkpt lat="45.22461" lon="5.73444">
        <ele>924.40002441406</ele>
        <time>2021-09-11T06:03:25.000Z</time>
      </trkpt>
      <trkpt lat="45.22462" lon="5.73441">
        <ele>923.59997558594</ele>
        <time>2021-09-11T06:03:27.000Z</time>
      </trkpt>
      <trkpt lat="45.22463" lon="5.73438">
        <ele>923.40002441406</ele>
        <time>2021-09-11T06:03:28.000Z</time>
      </trkpt>
      <trkpt lat="45.22464" lon="5.73437">
        <ele>922.59997558594</ele>
        <time>2021-09-11T06:03:29.000Z</time>
      </trkpt>
      <trkpt lat="45.22466" lon="5.73436">
        <ele>922</ele>
        <time>2021-09-11T06:03:30.000Z</time>
      </trkpt>
      <trkpt lat="45.22467" lon="5.73435">
        <ele>921.59997558594</ele>
        <time>2021-09-11T06:03:31.000Z</time>
      </trkpt>
      <trkpt lat="45.22468" lon="5.73432">
        <ele>920.79998779297</ele>
        <time>2021-09-11T06:03:33.000Z</time>
      </trkpt>
      <trkpt lat="45.22472" lon="5.73429">
        <ele>919.79998779297</ele>
        <time>2021-09-11T06:03:35.000Z</time>
      </trkpt>
      <trkpt lat="45.22473" lon="5.73427">
        <ele>919.20001220703</ele>
        <time>2021-09-11T06:03:36.000Z</time>
      </trkpt>
      <trkpt lat="45.22473" lon="5.73426">
        <ele>918.79998779297</ele>
        <time>2021-09-11T06:03:37.000Z</time>
      </trkpt>
      <trkpt lat="45.22474" lon="5.73425">
        <ele>918.59997558594</ele>
        <time>2021-09-11T06:03:38.000Z</time>
      </trkpt>
      <trkpt lat="45.22475" lon="5.73423">
        <ele>918</ele>
        <time>2021-09-11T06:03:40.000Z</time>
      </trkpt>
      <trkpt lat="45.22476" lon="5.73423">
        <ele>917.40002441406</ele>
        <time>2021-09-11T06:03:41.000Z</time>
      </trkpt>
      <trkpt lat="45.22478" lon="5.73419">
        <ele>916.20001220703</ele>
        <time>2021-09-11T06:03:44.000Z</time>
      </trkpt>
      <trkpt lat="45.22481" lon="5.73417">
        <ele>915</ele>
        <time>2021-09-11T06:03:46.000Z</time>
      </trkpt>
      <trkpt lat="45.22483" lon="5.73415">
        <ele>914</ele>
        <time>2021-09-11T06:03:48.000Z</time>
      </trkpt>
      <trkpt lat="45.22484" lon="5.73413">
        <ele>913.59997558594</ele>
        <time>2021-09-11T06:03:49.000Z</time>
      </trkpt>
      <trkpt lat="45.22485" lon="5.73412">
        <ele>913.40002441406</ele>
        <time>2021-09-11T06:03:50.000Z</time>
      </trkpt>
      <trkpt lat="45.22488" lon="5.73409">
        <ele>912.79998779297</ele>
        <time>2021-09-11T06:03:52.000Z</time>
      </trkpt>
      <trkpt lat="45.22489" lon="5.73408">
        <ele>912</ele>
        <time>2021-09-11T06:03:53.000Z</time>
      </trkpt>
      <trkpt lat="45.2249" lon="5.73407">
        <ele>911.20001220703</ele>
        <time>2021-09-11T06:03:54.000Z</time>
      </trkpt>
      <trkpt lat="45.22491" lon="5.73407">
        <ele>910.79998779297</ele>
        <time>2021-09-11T06:03:55.000Z</time>
      </trkpt>
      <trkpt lat="45.22494" lon="5.73403">
        <ele>909.79998779297</ele>
        <time>2021-09-11T06:03:58.000Z</time>
      </trkpt>
      <trkpt lat="45.22496" lon="5.73401">
        <ele>909.20001220703</ele>
        <time>2021-09-11T06:03:59.000Z</time>
      </trkpt>
      <trkpt lat="45.22497" lon="5.734">
        <ele>908.59997558594</ele>
        <time>2021-09-11T06:04:00.000Z</time>
      </trkpt>
      <trkpt lat="45.22501" lon="5.73398">
        <ele>907.79998779297</ele>
        <time>2021-09-11T06:04:02.000Z</time>
      </trkpt>
      <trkpt lat="45.22503" lon="5.73395">
        <ele>907.20001220703</ele>
        <time>2021-09-11T06:04:04.000Z</time>
      </trkpt>
      <trkpt lat="45.22504" lon="5.73393">
        <ele>906.79998779297</ele>
        <time>2021-09-11T06:04:05.000Z</time>
      </trkpt>
      <trkpt lat="45.22507" lon="5.73389">
        <ele>905.59997558594</ele>
        <time>2021-09-11T06:04:07.000Z</time>
      </trkpt>
      <trkpt lat="45.22513" lon="5.73388">
        <ele>904.20001220703</ele>
        <time>2021-09-11T06:04:10.000Z</time>
      </trkpt>
      <trkpt lat="45.22517" lon="5.7339">
        <ele>903.59997558594</ele>
        <time>2021-09-11T06:04:12.000Z</time>
      </trkpt>
      <trkpt lat="45.22522" lon="5.73388">
        <ele>903</ele>
        <time>2021-09-11T06:04:14.000Z</time>
      </trkpt>
      <trkpt lat="45.22526" lon="5.73388">
        <ele>901.79998779297</ele>
        <time>2021-09-11T06:04:16.000Z</time>
      </trkpt>
      <trkpt lat="45.22528" lon="5.73388">
        <ele>901.40002441406</ele>
        <time>2021-09-11T06:04:17.000Z</time>
      </trkpt>
      <trkpt lat="45.2253" lon="5.73387">
        <ele>900.59997558594</ele>
        <time>2021-09-11T06:04:18.000Z</time>
      </trkpt>
      <trkpt lat="45.22536" lon="5.73387">
        <ele>899.40002441406</ele>
        <time>2021-09-11T06:04:21.000Z</time>
      </trkpt>
      <trkpt lat="45.22544" lon="5.73387">
        <ele>897.79998779297</ele>
        <time>2021-09-11T06:04:24.000Z</time>
      </trkpt>
      <trkpt lat="45.2255" lon="5.73383">
        <ele>897</ele>
        <time>2021-09-11T06:04:27.000Z</time>
      </trkpt>
      <trkpt lat="45.22551" lon="5.73381">
        <ele>896.79998779297</ele>
        <time>2021-09-11T06:04:28.000Z</time>
      </trkpt>
      <trkpt lat="45.22552" lon="5.7338">
        <ele>896.59997558594</ele>
        <time>2021-09-11T06:04:29.000Z</time>
      </trkpt>
      <trkpt lat="45.22557" lon="5.7338">
        <ele>896</ele>
        <time>2021-09-11T06:04:32.000Z</time>
      </trkpt>
      <trkpt lat="45.22559" lon="5.73379">
        <ele>895.40002441406</ele>
        <time>2021-09-11T06:04:33.000Z</time>
      </trkpt>
      <trkpt lat="45.22562" lon="5.73379">
        <ele>894.20001220703</ele>
        <time>2021-09-11T06:04:35.000Z</time>
      </trkpt>
      <trkpt lat="45.22566" lon="5.73379">
        <ele>893</ele>
        <time>2021-09-11T06:04:37.000Z</time>
      </trkpt>
      <trkpt lat="45.22568" lon="5.73378">
        <ele>892.40002441406</ele>
        <time>2021-09-11T06:04:38.000Z</time>
      </trkpt>
      <trkpt lat="45.2257" lon="5.73378">
        <ele>892</ele>
        <time>2021-09-11T06:04:39.000Z</time>
      </trkpt>
      <trkpt lat="45.22573" lon="5.73376">
        <ele>891</ele>
        <time>2021-09-11T06:04:41.000Z</time>
      </trkpt>
      <trkpt lat="45.22575" lon="5.73376">
        <ele>890.79998779297</ele>
        <time>2021-09-11T06:04:42.000Z</time>
      </trkpt>
      <trkpt lat="45.22577" lon="5.73375">
        <ele>890.59997558594</ele>
        <time>2021-09-11T06:04:43.000Z</time>
      </trkpt>
      <trkpt lat="45.22579" lon="5.73375">
        <ele>890</ele>
        <time>2021-09-11T06:04:44.000Z</time>
      </trkpt>
      <trkpt lat="45.22581" lon="5.73374">
        <ele>889.59997558594</ele>
        <time>2021-09-11T06:04:45.000Z</time>
      </trkpt>
      <trkpt lat="45.22586" lon="5.73373">
        <ele>888.79998779297</ele>
        <time>2021-09-11T06:04:47.000Z</time>
      </trkpt>
      <trkpt lat="45.22589" lon="5.73371">
        <ele>888.20001220703</ele>
        <time>2021-09-11T06:04:49.000Z</time>
      </trkpt>
      <trkpt lat="45.22596" lon="5.73371">
        <ele>887</ele>
        <time>2021-09-11T06:04:52.000Z</time>
      </trkpt>
      <trkpt lat="45.22601" lon="5.73372">
        <ele>886</ele>
        <time>2021-09-11T06:04:55.000Z</time>
      </trkpt>
      <trkpt lat="45.22608" lon="5.73369">
        <ele>884.59997558594</ele>
        <time>2021-09-11T06:04:59.000Z</time>
      </trkpt>
      <trkpt lat="45.22611" lon="5.73366">
        <ele>884</ele>
        <time>2021-09-11T06:05:01.000Z</time>
      </trkpt>
      <trkpt lat="45.22613" lon="5.73364">
        <ele>883</ele>
        <time>2021-09-11T06:05:03.000Z</time>
      </trkpt>
      <trkpt lat="45.22617" lon="5.73362">
        <ele>881.59997558594</ele>
        <time>2021-09-11T06:05:06.000Z</time>
      </trkpt>
      <trkpt lat="45.22619" lon="5.73363">
        <ele>881.20001220703</ele>
        <time>2021-09-11T06:05:07.000Z</time>
      </trkpt>
      <trkpt lat="45.22623" lon="5.73361">
        <ele>880.20001220703</ele>
        <time>2021-09-11T06:05:09.000Z</time>
      </trkpt>
      <trkpt lat="45.22627" lon="5.73361">
        <ele>879.79998779297</ele>
        <time>2021-09-11T06:05:11.000Z</time>
      </trkpt>
      <trkpt lat="45.2263" lon="5.73362">
        <ele>878.79998779297</ele>
        <time>2021-09-11T06:05:13.000Z</time>
      </trkpt>
      <trkpt lat="45.22632" lon="5.73362">
        <ele>878.59997558594</ele>
        <time>2021-09-11T06:05:14.000Z</time>
      </trkpt>
      <trkpt lat="45.22634" lon="5.73362">
        <ele>877.59997558594</ele>
        <time>2021-09-11T06:05:16.000Z</time>
      </trkpt>
      <trkpt lat="45.22639" lon="5.73361">
        <ele>876.59997558594</ele>
        <time>2021-09-11T06:05:19.000Z</time>
      </trkpt>
      <trkpt lat="45.22643" lon="5.73361">
        <ele>876</ele>
        <time>2021-09-11T06:05:21.000Z</time>
      </trkpt>
      <trkpt lat="45.22644" lon="5.73362">
        <ele>875.59997558594</ele>
        <time>2021-09-11T06:05:22.000Z</time>
      </trkpt>
      <trkpt lat="45.22646" lon="5.73363">
        <ele>875.40002441406</ele>
        <time>2021-09-11T06:05:23.000Z</time>
      </trkpt>
      <trkpt lat="45.22647" lon="5.73364">
        <ele>874.40002441406</ele>
        <time>2021-09-11T06:05:25.000Z</time>
      </trkpt>
      <trkpt lat="45.22649" lon="5.73364">
        <ele>874</ele>
        <time>2021-09-11T06:05:26.000Z</time>
      </trkpt>
      <trkpt lat="45.22655" lon="5.73365">
        <ele>873</ele>
        <time>2021-09-11T06:05:29.000Z</time>
      </trkpt>
      <trkpt lat="45.22656" lon="5.73365">
        <ele>872.79998779297</ele>
        <time>2021-09-11T06:05:30.000Z</time>
      </trkpt>
      <trkpt lat="45.22657" lon="5.73365">
        <ele>872.40002441406</ele>
        <time>2021-09-11T06:05:31.000Z</time>
      </trkpt>
      <trkpt lat="45.22662" lon="5.73365">
        <ele>871.40002441406</ele>
        <time>2021-09-11T06:05:34.000Z</time>
      </trkpt>
      <trkpt lat="45.22666" lon="5.73366">
        <ele>870.40002441406</ele>
        <time>2021-09-11T06:05:36.000Z</time>
      </trkpt>
      <trkpt lat="45.2267" lon="5.73367">
        <ele>869.40002441406</ele>
        <time>2021-09-11T06:05:38.000Z</time>
      </trkpt>
      <trkpt lat="45.22672" lon="5.73368">
        <ele>869</ele>
        <time>2021-09-11T06:05:39.000Z</time>
      </trkpt>
      <trkpt lat="45.22676" lon="5.73369">
        <ele>868.20001220703</ele>
        <time>2021-09-11T06:05:42.000Z</time>
      </trkpt>
      <trkpt lat="45.22683" lon="5.7337">
        <ele>867</ele>
        <time>2021-09-11T06:05:45.000Z</time>
      </trkpt>
      <trkpt lat="45.2269" lon="5.73371">
        <ele>866</ele>
        <time>2021-09-11T06:05:48.000Z</time>
      </trkpt>
      <trkpt lat="45.22696" lon="5.7337">
        <ele>864.79998779297</ele>
        <time>2021-09-11T06:05:51.000Z</time>
      </trkpt>
      <trkpt lat="45.22705" lon="5.73373">
        <ele>864.20001220703</ele>
        <time>2021-09-11T06:05:54.000Z</time>
      </trkpt>
      <trkpt lat="45.2271" lon="5.73375">
        <ele>863.59997558594</ele>
        <time>2021-09-11T06:05:56.000Z</time>
      </trkpt>
      <trkpt lat="45.22717" lon="5.73379">
        <ele>862.40002441406</ele>
        <time>2021-09-11T06:06:00.000Z</time>
      </trkpt>
      <trkpt lat="45.22725" lon="5.73383">
        <ele>861.40002441406</ele>
        <time>2021-09-11T06:06:03.000Z</time>
      </trkpt>
      <trkpt lat="45.22734" lon="5.73386">
        <ele>860.79998779297</ele>
        <time>2021-09-11T06:06:07.000Z</time>
      </trkpt>
      <trkpt lat="45.22737" lon="5.73388">
        <ele>860.59997558594</ele>
        <time>2021-09-11T06:06:08.000Z</time>
      </trkpt>
      <trkpt lat="45.22739" lon="5.73389">
        <ele>860.20001220703</ele>
        <time>2021-09-11T06:06:09.000Z</time>
      </trkpt>
      <trkpt lat="45.22745" lon="5.73391">
        <ele>859.40002441406</ele>
        <time>2021-09-11T06:06:12.000Z</time>
      </trkpt>
      <trkpt lat="45.22747" lon="5.73391">
        <ele>859</ele>
        <time>2021-09-11T06:06:13.000Z</time>
      </trkpt>
      <trkpt lat="45.22753" lon="5.73391">
        <ele>858.20001220703</ele>
        <time>2021-09-11T06:06:17.000Z</time>
      </trkpt>
      <trkpt lat="45.22754" lon="5.73391">
        <ele>857.79998779297</ele>
        <time>2021-09-11T06:06:18.000Z</time>
      </trkpt>
      <trkpt lat="45.22757" lon="5.73392">
        <ele>857.40002441406</ele>
        <time>2021-09-11T06:06:20.000Z</time>
      </trkpt>
      <trkpt lat="45.2276" lon="5.73393">
        <ele>856.79998779297</ele>
        <time>2021-09-11T06:06:22.000Z</time>
      </trkpt>
      <trkpt lat="45.22761" lon="5.73394">
        <ele>856.40002441406</ele>
        <time>2021-09-11T06:06:23.000Z</time>
      </trkpt>
      <trkpt lat="45.22767" lon="5.73397">
        <ele>855.40002441406</ele>
        <time>2021-09-11T06:06:26.000Z</time>
      </trkpt>
      <trkpt lat="45.22777" lon="5.73396">
        <ele>854.59997558594</ele>
        <time>2021-09-11T06:06:31.000Z</time>
      </trkpt>
      <trkpt lat="45.22779" lon="5.73397">
        <ele>854.40002441406</ele>
        <time>2021-09-11T06:06:32.000Z</time>
      </trkpt>
      <trkpt lat="45.22787" lon="5.73398">
        <ele>853.20001220703</ele>
        <time>2021-09-11T06:06:36.000Z</time>
      </trkpt>
      <trkpt lat="45.22797" lon="5.73401">
        <ele>852.20001220703</ele>
        <time>2021-09-11T06:06:40.000Z</time>
      </trkpt>
      <trkpt lat="45.22806" lon="5.73404">
        <ele>851.79998779297</ele>
        <time>2021-09-11T06:06:43.000Z</time>
      </trkpt>
      <trkpt lat="45.22816" lon="5.73406">
        <ele>851</ele>
        <time>2021-09-11T06:06:47.000Z</time>
      </trkpt>
      <trkpt lat="45.22824" lon="5.73406">
        <ele>850</ele>
        <time>2021-09-11T06:06:50.000Z</time>
      </trkpt>
      <trkpt lat="45.22826" lon="5.73407">
        <ele>849.79998779297</ele>
        <time>2021-09-11T06:06:51.000Z</time>
      </trkpt>
      <trkpt lat="45.2283" lon="5.73407">
        <ele>849.40002441406</ele>
        <time>2021-09-11T06:06:53.000Z</time>
      </trkpt>
      <trkpt lat="45.22838" lon="5.73409">
        <ele>848.59997558594</ele>
        <time>2021-09-11T06:06:57.000Z</time>
      </trkpt>
      <trkpt lat="45.22841" lon="5.73408">
        <ele>848.59997558594</ele>
        <time>2021-09-11T06:06:58.000Z</time>
      </trkpt>
      <trkpt lat="45.22848" lon="5.73408">
        <ele>848</ele>
        <time>2021-09-11T06:07:01.000Z</time>
      </trkpt>
      <trkpt lat="45.22851" lon="5.73409">
        <ele>847.59997558594</ele>
        <time>2021-09-11T06:07:03.000Z</time>
      </trkpt>
      <trkpt lat="45.22858" lon="5.73411">
        <ele>846.40002441406</ele>
        <time>2021-09-11T06:07:07.000Z</time>
      </trkpt>
      <trkpt lat="45.22859" lon="5.73411">
        <ele>846</ele>
        <time>2021-09-11T06:07:08.000Z</time>
      </trkpt>
      <trkpt lat="45.2286" lon="5.73412">
        <ele>845.20001220703</ele>
        <time>2021-09-11T06:07:10.000Z</time>
      </trkpt>
      <trkpt lat="45.2286" lon="5.73413">
        <ele>844.79998779297</ele>
        <time>2021-09-11T06:07:12.000Z</time>
      </trkpt>
      <trkpt lat="45.2286" lon="5.73414">
        <ele>844.79998779297</ele>
        <time>2021-09-11T06:07:13.000Z</time>
      </trkpt>
      <trkpt lat="45.2286" lon="5.73417">
        <ele>844.20001220703</ele>
        <time>2021-09-11T06:07:17.000Z</time>
      </trkpt>
      <trkpt lat="45.2286" lon="5.73417">
        <ele>844</ele>
        <time>2021-09-11T06:07:18.000Z</time>
      </trkpt>
      <trkpt lat="45.22858" lon="5.73416">
        <ele>843</ele>
        <time>2021-09-11T06:07:21.000Z</time>
      </trkpt>
      <trkpt lat="45.22857" lon="5.73415">
        <ele>841.79998779297</ele>
        <time>2021-09-11T06:07:23.000Z</time>
      </trkpt>
      <trkpt lat="45.22856" lon="5.73414">
        <ele>841.20001220703</ele>
        <time>2021-09-11T06:07:24.000Z</time>
      </trkpt>
      <trkpt lat="45.22855" lon="5.73413">
        <ele>840.59997558594</ele>
        <time>2021-09-11T06:07:25.000Z</time>
      </trkpt>
      <trkpt lat="45.22853" lon="5.73411">
        <ele>839.40002441406</ele>
        <time>2021-09-11T06:07:27.000Z</time>
      </trkpt>
      <trkpt lat="45.22853" lon="5.73409">
        <ele>838</ele>
        <time>2021-09-11T06:07:30.000Z</time>
      </trkpt>
      <trkpt lat="45.22853" lon="5.73408">
        <ele>837.40002441406</ele>
        <time>2021-09-11T06:07:31.000Z</time>
      </trkpt>
      <trkpt lat="45.22853" lon="5.73408">
        <ele>837</ele>
        <time>2021-09-11T06:07:32.000Z</time>
      </trkpt>
      <trkpt lat="45.22852" lon="5.73405">
        <ele>835.79998779297</ele>
        <time>2021-09-11T06:07:34.000Z</time>
      </trkpt>
      <trkpt lat="45.22852" lon="5.73404">
        <ele>835.40002441406</ele>
        <time>2021-09-11T06:07:35.000Z</time>
      </trkpt>
      <trkpt lat="45.22851" lon="5.73403">
        <ele>834.79998779297</ele>
        <time>2021-09-11T06:07:36.000Z</time>
      </trkpt>
      <trkpt lat="45.22851" lon="5.73401">
        <ele>833.79998779297</ele>
        <time>2021-09-11T06:07:38.000Z</time>
      </trkpt>
      <trkpt lat="45.22851" lon="5.734">
        <ele>833.40002441406</ele>
        <time>2021-09-11T06:07:39.000Z</time>
      </trkpt>
      <trkpt lat="45.22851" lon="5.73396">
        <ele>832.20001220703</ele>
        <time>2021-09-11T06:07:42.000Z</time>
      </trkpt>
      <trkpt lat="45.22849" lon="5.73392">
        <ele>831</ele>
        <time>2021-09-11T06:07:44.000Z</time>
      </trkpt>
      <trkpt lat="45.22847" lon="5.73387">
        <ele>829.59997558594</ele>
        <time>2021-09-11T06:07:47.000Z</time>
      </trkpt>
      <trkpt lat="45.22846" lon="5.73384">
        <ele>828.79998779297</ele>
        <time>2021-09-11T06:07:49.000Z</time>
      </trkpt>
      <trkpt lat="45.22846" lon="5.73382">
        <ele>828.40002441406</ele>
        <time>2021-09-11T06:07:50.000Z</time>
      </trkpt>
      <trkpt lat="45.22846" lon="5.7338">
        <ele>827.20001220703</ele>
        <time>2021-09-11T06:07:52.000Z</time>
      </trkpt>
      <trkpt lat="45.22843" lon="5.73375">
        <ele>825.79998779297</ele>
        <time>2021-09-11T06:07:55.000Z</time>
      </trkpt>
      <trkpt lat="45.22841" lon="5.73373">
        <ele>824.59997558594</ele>
        <time>2021-09-11T06:07:57.000Z</time>
      </trkpt>
      <trkpt lat="45.22839" lon="5.7337">
        <ele>823.79998779297</ele>
        <time>2021-09-11T06:07:59.000Z</time>
      </trkpt>
      <trkpt lat="45.22839" lon="5.73369">
        <ele>823.20001220703</ele>
        <time>2021-09-11T06:08:00.000Z</time>
      </trkpt>
      <trkpt lat="45.22838" lon="5.73368">
        <ele>822.79998779297</ele>
        <time>2021-09-11T06:08:01.000Z</time>
      </trkpt>
      <trkpt lat="45.22837" lon="5.73365">
        <ele>821.79998779297</ele>
        <time>2021-09-11T06:08:03.000Z</time>
      </trkpt>
      <trkpt lat="45.22836" lon="5.73363">
        <ele>821</ele>
        <time>2021-09-11T06:08:04.000Z</time>
      </trkpt>
      <trkpt lat="45.22835" lon="5.7336">
        <ele>820.59997558594</ele>
        <time>2021-09-11T06:08:05.000Z</time>
      </trkpt>
      <trkpt lat="45.22834" lon="5.73355">
        <ele>819.20001220703</ele>
        <time>2021-09-11T06:08:08.000Z</time>
      </trkpt>
      <trkpt lat="45.22833" lon="5.73354">
        <ele>818.79998779297</ele>
        <time>2021-09-11T06:08:09.000Z</time>
      </trkpt>
      <trkpt lat="45.22832" lon="5.73352">
        <ele>817.79998779297</ele>
        <time>2021-09-11T06:08:11.000Z</time>
      </trkpt>
      <trkpt lat="45.22832" lon="5.73351">
        <ele>817.40002441406</ele>
        <time>2021-09-11T06:08:12.000Z</time>
      </trkpt>
      <trkpt lat="45.22831" lon="5.73351">
        <ele>816.79998779297</ele>
        <time>2021-09-11T06:08:13.000Z</time>
      </trkpt>
      <trkpt lat="45.22828" lon="5.73348">
        <ele>815.20001220703</ele>
        <time>2021-09-11T06:08:16.000Z</time>
      </trkpt>
      <trkpt lat="45.22828" lon="5.73346">
        <ele>814.79998779297</ele>
        <time>2021-09-11T06:08:17.000Z</time>
      </trkpt>
      <trkpt lat="45.22826" lon="5.73343">
        <ele>814</ele>
        <time>2021-09-11T06:08:19.000Z</time>
      </trkpt>
      <trkpt lat="45.22826" lon="5.73342">
        <ele>813</ele>
        <time>2021-09-11T06:08:21.000Z</time>
      </trkpt>
      <trkpt lat="45.22826" lon="5.73341">
        <ele>812.59997558594</ele>
        <time>2021-09-11T06:08:22.000Z</time>
      </trkpt>
      <trkpt lat="45.22826" lon="5.7334">
        <ele>812.20001220703</ele>
        <time>2021-09-11T06:08:23.000Z</time>
      </trkpt>
      <trkpt lat="45.22827" lon="5.73339">
        <ele>811.59997558594</ele>
        <time>2021-09-11T06:08:24.000Z</time>
      </trkpt>
      <trkpt lat="45.22827" lon="5.73338">
        <ele>810.20001220703</ele>
        <time>2021-09-11T06:08:27.000Z</time>
      </trkpt>
      <trkpt lat="45.22827" lon="5.73337">
        <ele>809.79998779297</ele>
        <time>2021-09-11T06:08:28.000Z</time>
      </trkpt>
      <trkpt lat="45.22825" lon="5.73335">
        <ele>809</ele>
        <time>2021-09-11T06:08:30.000Z</time>
      </trkpt>
      <trkpt lat="45.22824" lon="5.73333">
        <ele>808.40002441406</ele>
        <time>2021-09-11T06:08:31.000Z</time>
      </trkpt>
      <trkpt lat="45.2282" lon="5.73327">
        <ele>807.40002441406</ele>
        <time>2021-09-11T06:08:33.000Z</time>
      </trkpt>
      <trkpt lat="45.22819" lon="5.73321">
        <ele>806</ele>
        <time>2021-09-11T06:08:36.000Z</time>
      </trkpt>
      <trkpt lat="45.22819" lon="5.73318">
        <ele>804.59997558594</ele>
        <time>2021-09-11T06:08:38.000Z</time>
      </trkpt>
      <trkpt lat="45.22818" lon="5.73318">
        <ele>804</ele>
        <time>2021-09-11T06:08:39.000Z</time>
      </trkpt>
      <trkpt lat="45.22818" lon="5.73317">
        <ele>803.40002441406</ele>
        <time>2021-09-11T06:08:40.000Z</time>
      </trkpt>
      <trkpt lat="45.22815" lon="5.73314">
        <ele>802.40002441406</ele>
        <time>2021-09-11T06:08:42.000Z</time>
      </trkpt>
      <trkpt lat="45.22812" lon="5.73309">
        <ele>801.59997558594</ele>
        <time>2021-09-11T06:08:45.000Z</time>
      </trkpt>
      <trkpt lat="45.22811" lon="5.73307">
        <ele>800.79998779297</ele>
        <time>2021-09-11T06:08:46.000Z</time>
      </trkpt>
      <trkpt lat="45.22809" lon="5.73305">
        <ele>799.59997558594</ele>
        <time>2021-09-11T06:08:48.000Z</time>
      </trkpt>
      <trkpt lat="45.22809" lon="5.73304">
        <ele>798.59997558594</ele>
        <time>2021-09-11T06:08:49.000Z</time>
      </trkpt>
      <trkpt lat="45.22809" lon="5.73303">
        <ele>798.20001220703</ele>
        <time>2021-09-11T06:08:50.000Z</time>
      </trkpt>
      <trkpt lat="45.22806" lon="5.733">
        <ele>797</ele>
        <time>2021-09-11T06:08:52.000Z</time>
      </trkpt>
      <trkpt lat="45.22805" lon="5.73298">
        <ele>796.20001220703</ele>
        <time>2021-09-11T06:08:53.000Z</time>
      </trkpt>
      <trkpt lat="45.22804" lon="5.73296">
        <ele>795.79998779297</ele>
        <time>2021-09-11T06:08:54.000Z</time>
      </trkpt>
      <trkpt lat="45.22804" lon="5.73295">
        <ele>795.59997558594</ele>
        <time>2021-09-11T06:08:55.000Z</time>
      </trkpt>
      <trkpt lat="45.22802" lon="5.73292">
        <ele>794.59997558594</ele>
        <time>2021-09-11T06:08:57.000Z</time>
      </trkpt>
      <trkpt lat="45.22799" lon="5.73287">
        <ele>793.79998779297</ele>
        <time>2021-09-11T06:08:59.000Z</time>
      </trkpt>
      <trkpt lat="45.22798" lon="5.73285">
        <ele>793.40002441406</ele>
        <time>2021-09-11T06:09:00.000Z</time>
      </trkpt>
      <trkpt lat="45.22797" lon="5.73283">
        <ele>791.79998779297</ele>
        <time>2021-09-11T06:09:02.000Z</time>
      </trkpt>
      <trkpt lat="45.22796" lon="5.73282">
        <ele>791.20001220703</ele>
        <time>2021-09-11T06:09:03.000Z</time>
      </trkpt>
      <trkpt lat="45.22796" lon="5.7328">
        <ele>790.79998779297</ele>
        <time>2021-09-11T06:09:04.000Z</time>
      </trkpt>
      <trkpt lat="45.22794" lon="5.73278">
        <ele>789.79998779297</ele>
        <time>2021-09-11T06:09:06.000Z</time>
      </trkpt>
      <trkpt lat="45.22793" lon="5.73276">
        <ele>789</ele>
        <time>2021-09-11T06:09:07.000Z</time>
      </trkpt>
      <trkpt lat="45.22792" lon="5.73275">
        <ele>788.59997558594</ele>
        <time>2021-09-11T06:09:08.000Z</time>
      </trkpt>
      <trkpt lat="45.22791" lon="5.73272">
        <ele>787.59997558594</ele>
        <time>2021-09-11T06:09:10.000Z</time>
      </trkpt>
      <trkpt lat="45.2279" lon="5.7327">
        <ele>787</ele>
        <time>2021-09-11T06:09:11.000Z</time>
      </trkpt>
      <trkpt lat="45.22789" lon="5.73268">
        <ele>786.79998779297</ele>
        <time>2021-09-11T06:09:12.000Z</time>
      </trkpt>
      <trkpt lat="45.22787" lon="5.73265">
        <ele>785.79998779297</ele>
        <time>2021-09-11T06:09:14.000Z</time>
      </trkpt>
      <trkpt lat="45.22786" lon="5.73262">
        <ele>784.59997558594</ele>
        <time>2021-09-11T06:09:16.000Z</time>
      </trkpt>
      <trkpt lat="45.22784" lon="5.73259">
        <ele>783.40002441406</ele>
        <time>2021-09-11T06:09:18.000Z</time>
      </trkpt>
      <trkpt lat="45.22782" lon="5.73254">
        <ele>782.40002441406</ele>
        <time>2021-09-11T06:09:21.000Z</time>
      </trkpt>
      <trkpt lat="45.22779" lon="5.73251">
        <ele>781</ele>
        <time>2021-09-11T06:09:23.000Z</time>
      </trkpt>
      <trkpt lat="45.22775" lon="5.73246">
        <ele>779.59997558594</ele>
        <time>2021-09-11T06:09:26.000Z</time>
      </trkpt>
      <trkpt lat="45.22773" lon="5.73242">
        <ele>778.59997558594</ele>
        <time>2021-09-11T06:09:28.000Z</time>
      </trkpt>
      <trkpt lat="45.22771" lon="5.73238">
        <ele>777.40002441406</ele>
        <time>2021-09-11T06:09:30.000Z</time>
      </trkpt>
      <trkpt lat="45.22769" lon="5.73235">
        <ele>776.20001220703</ele>
        <time>2021-09-11T06:09:33.000Z</time>
      </trkpt>
      <trkpt lat="45.22768" lon="5.73233">
        <ele>775.59997558594</ele>
        <time>2021-09-11T06:09:34.000Z</time>
      </trkpt>
      <trkpt lat="45.22767" lon="5.73232">
        <ele>775.40002441406</ele>
        <time>2021-09-11T06:09:35.000Z</time>
      </trkpt>
      <trkpt lat="45.22767" lon="5.73231">
        <ele>775</ele>
        <time>2021-09-11T06:09:36.000Z</time>
      </trkpt>
      <trkpt lat="45.22766" lon="5.73229">
        <ele>774</ele>
        <time>2021-09-11T06:09:38.000Z</time>
      </trkpt>
      <trkpt lat="45.22766" lon="5.73227">
        <ele>773</ele>
        <time>2021-09-11T06:09:40.000Z</time>
      </trkpt>
      <trkpt lat="45.22764" lon="5.73224">
        <ele>772.59997558594</ele>
        <time>2021-09-11T06:09:42.000Z</time>
      </trkpt>
      <trkpt lat="45.22762" lon="5.73223">
        <ele>771.79998779297</ele>
        <time>2021-09-11T06:09:43.000Z</time>
      </trkpt>
      <trkpt lat="45.22759" lon="5.73218">
        <ele>770.40002441406</ele>
        <time>2021-09-11T06:09:46.000Z</time>
      </trkpt>
      <trkpt lat="45.22756" lon="5.73214">
        <ele>769.40002441406</ele>
        <time>2021-09-11T06:09:49.000Z</time>
      </trkpt>
      <trkpt lat="45.22753" lon="5.73209">
        <ele>768.40002441406</ele>
        <time>2021-09-11T06:09:52.000Z</time>
      </trkpt>
      <trkpt lat="45.22752" lon="5.73208">
        <ele>767.59997558594</ele>
        <time>2021-09-11T06:09:53.000Z</time>
      </trkpt>
      <trkpt lat="45.2275" lon="5.73204">
        <ele>766.59997558594</ele>
        <time>2021-09-11T06:09:55.000Z</time>
      </trkpt>
      <trkpt lat="45.22745" lon="5.73197">
        <ele>765.59997558594</ele>
        <time>2021-09-11T06:09:58.000Z</time>
      </trkpt>
      <trkpt lat="45.22743" lon="5.73195">
        <ele>765.20001220703</ele>
        <time>2021-09-11T06:09:59.000Z</time>
      </trkpt>
      <trkpt lat="45.22739" lon="5.73189">
        <ele>764.79998779297</ele>
        <time>2021-09-11T06:10:01.000Z</time>
      </trkpt>
      <trkpt lat="45.22738" lon="5.73186">
        <ele>764</ele>
        <time>2021-09-11T06:10:02.000Z</time>
      </trkpt>
      <trkpt lat="45.22735" lon="5.73182">
        <ele>763</ele>
        <time>2021-09-11T06:10:04.000Z</time>
      </trkpt>
      <trkpt lat="45.2273" lon="5.73176">
        <ele>762</ele>
        <time>2021-09-11T06:10:07.000Z</time>
      </trkpt>
      <trkpt lat="45.22729" lon="5.73174">
        <ele>761.20001220703</ele>
        <time>2021-09-11T06:10:08.000Z</time>
      </trkpt>
      <trkpt lat="45.22728" lon="5.7317">
        <ele>760.20001220703</ele>
        <time>2021-09-11T06:10:10.000Z</time>
      </trkpt>
      <trkpt lat="45.22727" lon="5.73169">
        <ele>760</ele>
        <time>2021-09-11T06:10:11.000Z</time>
      </trkpt>
      <trkpt lat="45.22724" lon="5.73164">
        <ele>759.20001220703</ele>
        <time>2021-09-11T06:10:13.000Z</time>
      </trkpt>
      <trkpt lat="45.22723" lon="5.73162">
        <ele>758.59997558594</ele>
        <time>2021-09-11T06:10:14.000Z</time>
      </trkpt>
      <trkpt lat="45.22721" lon="5.73158">
        <ele>757.79998779297</ele>
        <time>2021-09-11T06:10:16.000Z</time>
      </trkpt>
      <trkpt lat="45.2272" lon="5.73156">
        <ele>757.40002441406</ele>
        <time>2021-09-11T06:10:17.000Z</time>
      </trkpt>
      <trkpt lat="45.22719" lon="5.73154">
        <ele>757.20001220703</ele>
        <time>2021-09-11T06:10:18.000Z</time>
      </trkpt>
      <trkpt lat="45.22719" lon="5.73153">
        <ele>756.40002441406</ele>
        <time>2021-09-11T06:10:19.000Z</time>
      </trkpt>
      <trkpt lat="45.22718" lon="5.73151">
        <ele>755.79998779297</ele>
        <time>2021-09-11T06:10:20.000Z</time>
      </trkpt>
      <trkpt lat="45.22715" lon="5.73147">
        <ele>755.20001220703</ele>
        <time>2021-09-11T06:10:22.000Z</time>
      </trkpt>
      <trkpt lat="45.22712" lon="5.73143">
        <ele>754.20001220703</ele>
        <time>2021-09-11T06:10:24.000Z</time>
      </trkpt>
      <trkpt lat="45.2271" lon="5.73141">
        <ele>754</ele>
        <time>2021-09-11T06:10:25.000Z</time>
      </trkpt>
      <trkpt lat="45.22705" lon="5.73134">
        <ele>753</ele>
        <time>2021-09-11T06:10:28.000Z</time>
      </trkpt>
      <trkpt lat="45.22699" lon="5.73127">
        <ele>751.59997558594</ele>
        <time>2021-09-11T06:10:31.000Z</time>
      </trkpt>
      <trkpt lat="45.22695" lon="5.73124">
        <ele>750.40002441406</ele>
        <time>2021-09-11T06:10:33.000Z</time>
      </trkpt>
      <trkpt lat="45.22691" lon="5.73119">
        <ele>749</ele>
        <time>2021-09-11T06:10:36.000Z</time>
      </trkpt>
      <trkpt lat="45.22689" lon="5.73118">
        <ele>748</ele>
        <time>2021-09-11T06:10:38.000Z</time>
      </trkpt>
      <trkpt lat="45.22688" lon="5.73116">
        <ele>747.79998779297</ele>
        <time>2021-09-11T06:10:39.000Z</time>
      </trkpt>
      <trkpt lat="45.22687" lon="5.73115">
        <ele>747.20001220703</ele>
        <time>2021-09-11T06:10:40.000Z</time>
      </trkpt>
      <trkpt lat="45.22685" lon="5.73114">
        <ele>746.79998779297</ele>
        <time>2021-09-11T06:10:41.000Z</time>
      </trkpt>
      <trkpt lat="45.22682" lon="5.73109">
        <ele>745.59997558594</ele>
        <time>2021-09-11T06:10:44.000Z</time>
      </trkpt>
      <trkpt lat="45.2268" lon="5.73105">
        <ele>744.20001220703</ele>
        <time>2021-09-11T06:10:46.000Z</time>
      </trkpt>
      <trkpt lat="45.22679" lon="5.73103">
        <ele>744</ele>
        <time>2021-09-11T06:10:47.000Z</time>
      </trkpt>
      <trkpt lat="45.22678" lon="5.73101">
        <ele>743.59997558594</ele>
        <time>2021-09-11T06:10:48.000Z</time>
      </trkpt>
      <trkpt lat="45.22677" lon="5.73099">
        <ele>743.20001220703</ele>
        <time>2021-09-11T06:10:49.000Z</time>
      </trkpt>
      <trkpt lat="45.22673" lon="5.73093">
        <ele>741.40002441406</ele>
        <time>2021-09-11T06:10:52.000Z</time>
      </trkpt>
      <trkpt lat="45.2267" lon="5.7309">
        <ele>740.20001220703</ele>
        <time>2021-09-11T06:10:54.000Z</time>
      </trkpt>
      <trkpt lat="45.22666" lon="5.73084">
        <ele>739</ele>
        <time>2021-09-11T06:10:57.000Z</time>
      </trkpt>
      <trkpt lat="45.22663" lon="5.73081">
        <ele>737.79998779297</ele>
        <time>2021-09-11T06:10:59.000Z</time>
      </trkpt>
      <trkpt lat="45.22659" lon="5.73074">
        <ele>736.79998779297</ele>
        <time>2021-09-11T06:11:01.000Z</time>
      </trkpt>
      <trkpt lat="45.22654" lon="5.73068">
        <ele>735.40002441406</ele>
        <time>2021-09-11T06:11:04.000Z</time>
      </trkpt>
      <trkpt lat="45.22651" lon="5.73063">
        <ele>734.40002441406</ele>
        <time>2021-09-11T06:11:06.000Z</time>
      </trkpt>
      <trkpt lat="45.22648" lon="5.73058">
        <ele>733.59997558594</ele>
        <time>2021-09-11T06:11:08.000Z</time>
      </trkpt>
      <trkpt lat="45.22647" lon="5.73056">
        <ele>733.20001220703</ele>
        <time>2021-09-11T06:11:09.000Z</time>
      </trkpt>
      <trkpt lat="45.22643" lon="5.73051">
        <ele>732</ele>
        <time>2021-09-11T06:11:11.000Z</time>
      </trkpt>
      <trkpt lat="45.22641" lon="5.73048">
        <ele>731</ele>
        <time>2021-09-11T06:11:13.000Z</time>
      </trkpt>
      <trkpt lat="45.22638" lon="5.73042">
        <ele>729.59997558594</ele>
        <time>2021-09-11T06:11:16.000Z</time>
      </trkpt>
      <trkpt lat="45.22637" lon="5.73041">
        <ele>729.20001220703</ele>
        <time>2021-09-11T06:11:17.000Z</time>
      </trkpt>
      <trkpt lat="45.22635" lon="5.73038">
        <ele>728.40002441406</ele>
        <time>2021-09-11T06:11:19.000Z</time>
      </trkpt>
      <trkpt lat="45.22629" lon="5.73033">
        <ele>727</ele>
        <time>2021-09-11T06:11:22.000Z</time>
      </trkpt>
      <trkpt lat="45.22627" lon="5.73029">
        <ele>726</ele>
        <time>2021-09-11T06:11:24.000Z</time>
      </trkpt>
      <trkpt lat="45.22625" lon="5.73026">
        <ele>725.40002441406</ele>
        <time>2021-09-11T06:11:25.000Z</time>
      </trkpt>
      <trkpt lat="45.22622" lon="5.73021">
        <ele>724.59997558594</ele>
        <time>2021-09-11T06:11:27.000Z</time>
      </trkpt>
      <trkpt lat="45.2262" lon="5.73015">
        <ele>723.40002441406</ele>
        <time>2021-09-11T06:11:30.000Z</time>
      </trkpt>
      <trkpt lat="45.22618" lon="5.73008">
        <ele>722.20001220703</ele>
        <time>2021-09-11T06:11:33.000Z</time>
      </trkpt>
      <trkpt lat="45.22615" lon="5.73002">
        <ele>721.20001220703</ele>
        <time>2021-09-11T06:11:35.000Z</time>
      </trkpt>
      <trkpt lat="45.22614" lon="5.73">
        <ele>720.79998779297</ele>
        <time>2021-09-11T06:11:36.000Z</time>
      </trkpt>
      <trkpt lat="45.22611" lon="5.72996">
        <ele>720.20001220703</ele>
        <time>2021-09-11T06:11:38.000Z</time>
      </trkpt>
      <trkpt lat="45.2261" lon="5.72994">
        <ele>719.79998779297</ele>
        <time>2021-09-11T06:11:39.000Z</time>
      </trkpt>
      <trkpt lat="45.22608" lon="5.7299">
        <ele>719</ele>
        <time>2021-09-11T06:11:41.000Z</time>
      </trkpt>
      <trkpt lat="45.22607" lon="5.72987">
        <ele>718.79998779297</ele>
        <time>2021-09-11T06:11:42.000Z</time>
      </trkpt>
      <trkpt lat="45.22602" lon="5.72977">
        <ele>717.59997558594</ele>
        <time>2021-09-11T06:11:45.000Z</time>
      </trkpt>
      <trkpt lat="45.22599" lon="5.72967">
        <ele>716.40002441406</ele>
        <time>2021-09-11T06:11:48.000Z</time>
      </trkpt>
      <trkpt lat="45.22599" lon="5.72963">
        <ele>716.20001220703</ele>
        <time>2021-09-11T06:11:49.000Z</time>
      </trkpt>
      <trkpt lat="45.22599" lon="5.72956">
        <ele>715.40002441406</ele>
        <time>2021-09-11T06:11:51.000Z</time>
      </trkpt>
      <trkpt lat="45.226" lon="5.72948">
        <ele>714.59997558594</ele>
        <time>2021-09-11T06:11:54.000Z</time>
      </trkpt>
      <trkpt lat="45.226" lon="5.72946">
        <ele>714.40002441406</ele>
        <time>2021-09-11T06:11:55.000Z</time>
      </trkpt>
      <trkpt lat="45.22602" lon="5.72943">
        <ele>714</ele>
        <time>2021-09-11T06:11:57.000Z</time>
      </trkpt>
      <trkpt lat="45.22603" lon="5.72941">
        <ele>713.79998779297</ele>
        <time>2021-09-11T06:12:00.000Z</time>
      </trkpt>
      <trkpt lat="45.22602" lon="5.72939">
        <ele>713.59997558594</ele>
        <time>2021-09-11T06:12:02.000Z</time>
      </trkpt>
      <trkpt lat="45.22604" lon="5.72937">
        <ele>713.20001220703</ele>
        <time>2021-09-11T06:12:10.000Z</time>
      </trkpt>
      <trkpt lat="45.22604" lon="5.72937">
        <ele>713.20001220703</ele>
        <time>2021-09-11T06:12:11.000Z</time>
      </trkpt>
      <trkpt lat="45.22604" lon="5.72936">
        <ele>712.79998779297</ele>
        <time>2021-09-11T06:12:16.000Z</time>
      </trkpt>
      <trkpt lat="45.22604" lon="5.72936">
        <ele>712.79998779297</ele>
        <time>2021-09-11T06:12:20.000Z</time>
      </trkpt>
      <trkpt lat="45.22604" lon="5.72936">
        <ele>713</ele>
        <time>2021-09-11T06:12:23.000Z</time>
      </trkpt>
      <trkpt lat="45.22604" lon="5.72936">
        <ele>713.20001220703</ele>
        <time>2021-09-11T06:12:25.000Z</time>
      </trkpt>
      <trkpt lat="45.22604" lon="5.72935">
        <ele>713.79998779297</ele>
        <time>2021-09-11T06:12:29.000Z</time>
      </trkpt>
      <trkpt lat="45.22605" lon="5.72934">
        <ele>714</ele>
        <time>2021-09-11T06:12:32.000Z</time>
      </trkpt>
      <trkpt lat="45.22605" lon="5.72934">
        <ele>714.40002441406</ele>
        <time>2021-09-11T06:12:34.000Z</time>
      </trkpt>
      <trkpt lat="45.22605" lon="5.72934">
        <ele>714.40002441406</ele>
        <time>2021-09-11T06:12:35.000Z</time>
      </trkpt>
      <trkpt lat="45.22605" lon="5.72934">
        <ele>714.79998779297</ele>
        <time>2021-09-11T06:12:37.000Z</time>
      </trkpt>
      <trkpt lat="45.22609" lon="5.72943">
        <ele>714.79998779297</ele>
        <time>2021-09-11T06:12:56.000Z</time>
      </trkpt>
      <trkpt lat="45.22611" lon="5.72944">
        <ele>714.79998779297</ele>
        <time>2021-09-11T06:13:00.000Z</time>
      </trkpt>
      <trkpt lat="45.22611" lon="5.72944">
        <ele>714.79998779297</ele>
        <time>2021-09-11T06:13:02.000Z</time>
      </trkpt>
      <trkpt lat="45.22612" lon="5.72944">
        <ele>714.79998779297</ele>
        <time>2021-09-11T06:13:13.000Z</time>
      </trkpt>
      <trkpt lat="45.22612" lon="5.72944">
        <ele>714.79998779297</ele>
        <time>2021-09-11T06:13:17.000Z</time>
      </trkpt>
      <trkpt lat="45.2261" lon="5.72945">
        <ele>714.79998779297</ele>
        <time>2021-09-11T06:13:23.000Z</time>
      </trkpt>
      <trkpt lat="45.2261" lon="5.72946">
        <ele>714.59997558594</ele>
        <time>2021-09-11T06:13:28.000Z</time>
      </trkpt>
      <trkpt lat="45.2261" lon="5.72946">
        <ele>714.79998779297</ele>
        <time>2021-09-11T06:13:31.000Z</time>
      </trkpt>
      <trkpt lat="45.2261" lon="5.72947">
        <ele>714.79998779297</ele>
        <time>2021-09-11T06:13:33.000Z</time>
      </trkpt>
      <trkpt lat="45.22608" lon="5.72948">
        <ele>715.40002441406</ele>
        <time>2021-09-11T06:13:39.000Z</time>
      </trkpt>
      <trkpt lat="45.22609" lon="5.72953">
        <ele>716.40002441406</ele>
        <time>2021-09-11T06:13:43.000Z</time>
      </trkpt>
      <trkpt lat="45.2261" lon="5.72956">
        <ele>716.59997558594</ele>
        <time>2021-09-11T06:13:44.000Z</time>
      </trkpt>
      <trkpt lat="45.22611" lon="5.72957">
        <ele>716.79998779297</ele>
        <time>2021-09-11T06:13:45.000Z</time>
      </trkpt>
      <trkpt lat="45.22614" lon="5.72967">
        <ele>718</ele>
        <time>2021-09-11T06:13:50.000Z</time>
      </trkpt>
      <trkpt lat="45.22615" lon="5.72968">
        <ele>718.20001220703</ele>
        <time>2021-09-11T06:13:51.000Z</time>
      </trkpt>
      <trkpt lat="45.22615" lon="5.72969">
        <ele>718.40002441406</ele>
        <time>2021-09-11T06:13:52.000Z</time>
      </trkpt>
      <trkpt lat="45.22619" lon="5.72977">
        <ele>719</ele>
        <time>2021-09-11T06:13:56.000Z</time>
      </trkpt>
      <trkpt lat="45.22622" lon="5.72981">
        <ele>720</ele>
        <time>2021-09-11T06:14:00.000Z</time>
      </trkpt>
      <trkpt lat="45.22624" lon="5.72984">
        <ele>721</ele>
        <time>2021-09-11T06:14:03.000Z</time>
      </trkpt>
      <trkpt lat="45.22625" lon="5.72986">
        <ele>721.40002441406</ele>
        <time>2021-09-11T06:14:04.000Z</time>
      </trkpt>
      <trkpt lat="45.22627" lon="5.7299">
        <ele>722.40002441406</ele>
        <time>2021-09-11T06:14:08.000Z</time>
      </trkpt>
      <trkpt lat="45.22628" lon="5.72991">
        <ele>722.59997558594</ele>
        <time>2021-09-11T06:14:09.000Z</time>
      </trkpt>
      <trkpt lat="45.22628" lon="5.72992">
        <ele>723</ele>
        <time>2021-09-11T06:14:10.000Z</time>
      </trkpt>
      <trkpt lat="45.22629" lon="5.72996">
        <ele>723.59997558594</ele>
        <time>2021-09-11T06:14:13.000Z</time>
      </trkpt>
      <trkpt lat="45.22629" lon="5.72996">
        <ele>724</ele>
        <time>2021-09-11T06:14:15.000Z</time>
      </trkpt>
      <trkpt lat="45.22631" lon="5.72998">
        <ele>724.59997558594</ele>
        <time>2021-09-11T06:14:17.000Z</time>
      </trkpt>
      <trkpt lat="45.22634" lon="5.73001">
        <ele>725.20001220703</ele>
        <time>2021-09-11T06:14:19.000Z</time>
      </trkpt>
      <trkpt lat="45.22635" lon="5.73003">
        <ele>725.40002441406</ele>
        <time>2021-09-11T06:14:21.000Z</time>
      </trkpt>
      <trkpt lat="45.22636" lon="5.73003">
        <ele>725.59997558594</ele>
        <time>2021-09-11T06:14:22.000Z</time>
      </trkpt>
      <trkpt lat="45.22637" lon="5.73004">
        <ele>726</ele>
        <time>2021-09-11T06:14:23.000Z</time>
      </trkpt>
      <trkpt lat="45.2264" lon="5.73007">
        <ele>726.79998779297</ele>
        <time>2021-09-11T06:14:26.000Z</time>
      </trkpt>
      <trkpt lat="45.22642" lon="5.73008">
        <ele>727</ele>
        <time>2021-09-11T06:14:27.000Z</time>
      </trkpt>
      <trkpt lat="45.22643" lon="5.7301">
        <ele>727.40002441406</ele>
        <time>2021-09-11T06:14:29.000Z</time>
      </trkpt>
      <trkpt lat="45.22643" lon="5.73011">
        <ele>727.59997558594</ele>
        <time>2021-09-11T06:14:30.000Z</time>
      </trkpt>
      <trkpt lat="45.22644" lon="5.73012">
        <ele>727.79998779297</ele>
        <time>2021-09-11T06:14:31.000Z</time>
      </trkpt>
      <trkpt lat="45.22645" lon="5.73013">
        <ele>728.20001220703</ele>
        <time>2021-09-11T06:14:32.000Z</time>
      </trkpt>
      <trkpt lat="45.22647" lon="5.73016">
        <ele>729</ele>
        <time>2021-09-11T06:14:35.000Z</time>
      </trkpt>
      <trkpt lat="45.22648" lon="5.73016">
        <ele>729.20001220703</ele>
        <time>2021-09-11T06:14:36.000Z</time>
      </trkpt>
      <trkpt lat="45.22648" lon="5.73018">
        <ele>729.79998779297</ele>
        <time>2021-09-11T06:14:38.000Z</time>
      </trkpt>
      <trkpt lat="45.22652" lon="5.73025">
        <ele>730.40002441406</ele>
        <time>2021-09-11T06:14:42.000Z</time>
      </trkpt>
      <trkpt lat="45.22652" lon="5.73025">
        <ele>730.79998779297</ele>
        <time>2021-09-11T06:14:43.000Z</time>
      </trkpt>
      <trkpt lat="45.22652" lon="5.73027">
        <ele>731.20001220703</ele>
        <time>2021-09-11T06:14:45.000Z</time>
      </trkpt>
      <trkpt lat="45.22653" lon="5.73028">
        <ele>731.59997558594</ele>
        <time>2021-09-11T06:14:46.000Z</time>
      </trkpt>
      <trkpt lat="45.22653" lon="5.7303">
        <ele>732</ele>
        <time>2021-09-11T06:14:47.000Z</time>
      </trkpt>
      <trkpt lat="45.22655" lon="5.73034">
        <ele>732.79998779297</ele>
        <time>2021-09-11T06:14:50.000Z</time>
      </trkpt>
      <trkpt lat="45.22656" lon="5.73037">
        <ele>733</ele>
        <time>2021-09-11T06:14:52.000Z</time>
      </trkpt>
      <trkpt lat="45.22657" lon="5.73039">
        <ele>733.79998779297</ele>
        <time>2021-09-11T06:14:55.000Z</time>
      </trkpt>
      <trkpt lat="45.22658" lon="5.73041">
        <ele>734.59997558594</ele>
        <time>2021-09-11T06:14:58.000Z</time>
      </trkpt>
      <trkpt lat="45.2266" lon="5.73044">
        <ele>734.79998779297</ele>
        <time>2021-09-11T06:15:00.000Z</time>
      </trkpt>
      <trkpt lat="45.22661" lon="5.73045">
        <ele>735</ele>
        <time>2021-09-11T06:15:01.000Z</time>
      </trkpt>
      <trkpt lat="45.22663" lon="5.73048">
        <ele>736</ele>
        <time>2021-09-11T06:15:05.000Z</time>
      </trkpt>
      <trkpt lat="45.22664" lon="5.7305">
        <ele>736.79998779297</ele>
        <time>2021-09-11T06:15:07.000Z</time>
      </trkpt>
      <trkpt lat="45.22665" lon="5.73053">
        <ele>737.40002441406</ele>
        <time>2021-09-11T06:15:09.000Z</time>
      </trkpt>
      <trkpt lat="45.22668" lon="5.73059">
        <ele>737.79998779297</ele>
        <time>2021-09-11T06:15:13.000Z</time>
      </trkpt>
      <trkpt lat="45.2267" lon="5.73063">
        <ele>738.40002441406</ele>
        <time>2021-09-11T06:15:16.000Z</time>
      </trkpt>
      <trkpt lat="45.22671" lon="5.73065">
        <ele>738.79998779297</ele>
        <time>2021-09-11T06:15:18.000Z</time>
      </trkpt>
      <trkpt lat="45.22671" lon="5.73066">
        <ele>739.40002441406</ele>
        <time>2021-09-11T06:15:20.000Z</time>
      </trkpt>
      <trkpt lat="45.22671" lon="5.73067">
        <ele>739.79998779297</ele>
        <time>2021-09-11T06:15:21.000Z</time>
      </trkpt>
      <trkpt lat="45.22672" lon="5.73067">
        <ele>740</ele>
        <time>2021-09-11T06:15:22.000Z</time>
      </trkpt>
      <trkpt lat="45.22672" lon="5.73069">
        <ele>740.59997558594</ele>
        <time>2021-09-11T06:15:25.000Z</time>
      </trkpt>
      <trkpt lat="45.22673" lon="5.73071">
        <ele>741.20001220703</ele>
        <time>2021-09-11T06:15:27.000Z</time>
      </trkpt>
      <trkpt lat="45.22674" lon="5.73072">
        <ele>741.40002441406</ele>
        <time>2021-09-11T06:15:28.000Z</time>
      </trkpt>
      <trkpt lat="45.22674" lon="5.73073">
        <ele>741.59997558594</ele>
        <time>2021-09-11T06:15:29.000Z</time>
      </trkpt>
      <trkpt lat="45.22674" lon="5.73074">
        <ele>741.79998779297</ele>
        <time>2021-09-11T06:15:30.000Z</time>
      </trkpt>
      <trkpt lat="45.22677" lon="5.7308">
        <ele>742.59997558594</ele>
        <time>2021-09-11T06:15:34.000Z</time>
      </trkpt>
      <trkpt lat="45.22677" lon="5.73082">
        <ele>742.79998779297</ele>
        <time>2021-09-11T06:15:35.000Z</time>
      </trkpt>
      <trkpt lat="45.22677" lon="5.73082">
        <ele>743.20001220703</ele>
        <time>2021-09-11T06:15:36.000Z</time>
      </trkpt>
      <trkpt lat="45.22678" lon="5.73083">
        <ele>743.79998779297</ele>
        <time>2021-09-11T06:15:38.000Z</time>
      </trkpt>
      <trkpt lat="45.22678" lon="5.73084">
        <ele>744</ele>
        <time>2021-09-11T06:15:39.000Z</time>
      </trkpt>
      <trkpt lat="45.2268" lon="5.73086">
        <ele>744.79998779297</ele>
        <time>2021-09-11T06:15:42.000Z</time>
      </trkpt>
      <trkpt lat="45.22681" lon="5.73087">
        <ele>745</ele>
        <time>2021-09-11T06:15:43.000Z</time>
      </trkpt>
      <trkpt lat="45.22682" lon="5.73088">
        <ele>745.20001220703</ele>
        <time>2021-09-11T06:15:44.000Z</time>
      </trkpt>
      <trkpt lat="45.22687" lon="5.73094">
        <ele>746.20001220703</ele>
        <time>2021-09-11T06:15:48.000Z</time>
      </trkpt>
      <trkpt lat="45.2269" lon="5.73096">
        <ele>747</ele>
        <time>2021-09-11T06:15:51.000Z</time>
      </trkpt>
      <trkpt lat="45.2269" lon="5.73097">
        <ele>747.40002441406</ele>
        <time>2021-09-11T06:15:52.000Z</time>
      </trkpt>
      <trkpt lat="45.22691" lon="5.731">
        <ele>748.20001220703</ele>
        <time>2021-09-11T06:15:55.000Z</time>
      </trkpt>
      <trkpt lat="45.22692" lon="5.73101">
        <ele>748.40002441406</ele>
        <time>2021-09-11T06:15:56.000Z</time>
      </trkpt>
      <trkpt lat="45.22698" lon="5.73107">
        <ele>749.59997558594</ele>
        <time>2021-09-11T06:16:02.000Z</time>
      </trkpt>
      <trkpt lat="45.22701" lon="5.73111">
        <ele>750.79998779297</ele>
        <time>2021-09-11T06:16:06.000Z</time>
      </trkpt>
      <trkpt lat="45.22703" lon="5.73113">
        <ele>751</ele>
        <time>2021-09-11T06:16:08.000Z</time>
      </trkpt>
      <trkpt lat="45.22703" lon="5.73114">
        <ele>751.20001220703</ele>
        <time>2021-09-11T06:16:09.000Z</time>
      </trkpt>
      <trkpt lat="45.22707" lon="5.73119">
        <ele>752</ele>
        <time>2021-09-11T06:16:12.000Z</time>
      </trkpt>
      <trkpt lat="45.22708" lon="5.7312">
        <ele>752.40002441406</ele>
        <time>2021-09-11T06:16:14.000Z</time>
      </trkpt>
      <trkpt lat="45.22708" lon="5.73121">
        <ele>752.59997558594</ele>
        <time>2021-09-11T06:16:15.000Z</time>
      </trkpt>
      <trkpt lat="45.22709" lon="5.73122">
        <ele>753</ele>
        <time>2021-09-11T06:16:17.000Z</time>
      </trkpt>
      <trkpt lat="45.22709" lon="5.73123">
        <ele>753.59997558594</ele>
        <time>2021-09-11T06:16:19.000Z</time>
      </trkpt>
      <trkpt lat="45.22712" lon="5.73125">
        <ele>754.20001220703</ele>
        <time>2021-09-11T06:16:21.000Z</time>
      </trkpt>
      <trkpt lat="45.22714" lon="5.7313">
        <ele>755</ele>
        <time>2021-09-11T06:16:24.000Z</time>
      </trkpt>
      <trkpt lat="45.22714" lon="5.73133">
        <ele>755.40002441406</ele>
        <time>2021-09-11T06:16:27.000Z</time>
      </trkpt>
      <trkpt lat="45.22717" lon="5.73136">
        <ele>756.59997558594</ele>
        <time>2021-09-11T06:16:31.000Z</time>
      </trkpt>
      <trkpt lat="45.22719" lon="5.73139">
        <ele>757.40002441406</ele>
        <time>2021-09-11T06:16:34.000Z</time>
      </trkpt>
      <trkpt lat="45.22722" lon="5.73143">
        <ele>757.59997558594</ele>
        <time>2021-09-11T06:16:37.000Z</time>
      </trkpt>
      <trkpt lat="45.22725" lon="5.73148">
        <ele>758.59997558594</ele>
        <time>2021-09-11T06:16:41.000Z</time>
      </trkpt>
      <trkpt lat="45.22727" lon="5.7315">
        <ele>759</ele>
        <time>2021-09-11T06:16:42.000Z</time>
      </trkpt>
      <trkpt lat="45.2273" lon="5.73156">
        <ele>760.20001220703</ele>
        <time>2021-09-11T06:16:46.000Z</time>
      </trkpt>
      <trkpt lat="45.22731" lon="5.7316">
        <ele>760.59997558594</ele>
        <time>2021-09-11T06:16:48.000Z</time>
      </trkpt>
      <trkpt lat="45.22731" lon="5.73161">
        <ele>760.79998779297</ele>
        <time>2021-09-11T06:16:50.000Z</time>
      </trkpt>
      <trkpt lat="45.22733" lon="5.73164">
        <ele>761.20001220703</ele>
        <time>2021-09-11T06:16:52.000Z</time>
      </trkpt>
      <trkpt lat="45.22735" lon="5.73167">
        <ele>761.79998779297</ele>
        <time>2021-09-11T06:16:54.000Z</time>
      </trkpt>
      <trkpt lat="45.22736" lon="5.73168">
        <ele>762.20001220703</ele>
        <time>2021-09-11T06:16:55.000Z</time>
      </trkpt>
      <trkpt lat="45.22736" lon="5.73169">
        <ele>762.40002441406</ele>
        <time>2021-09-11T06:16:56.000Z</time>
      </trkpt>
      <trkpt lat="45.22738" lon="5.7317">
        <ele>763.40002441406</ele>
        <time>2021-09-11T06:16:59.000Z</time>
      </trkpt>
      <trkpt lat="45.22739" lon="5.73171">
        <ele>763.59997558594</ele>
        <time>2021-09-11T06:17:00.000Z</time>
      </trkpt>
      <trkpt lat="45.2274" lon="5.73173">
        <ele>763.79998779297</ele>
        <time>2021-09-11T06:17:02.000Z</time>
      </trkpt>
      <trkpt lat="45.22743" lon="5.73178">
        <ele>764.40002441406</ele>
        <time>2021-09-11T06:17:06.000Z</time>
      </trkpt>
      <trkpt lat="45.22744" lon="5.73178">
        <ele>764.79998779297</ele>
        <time>2021-09-11T06:17:07.000Z</time>
      </trkpt>
      <trkpt lat="45.22747" lon="5.73182">
        <ele>765.59997558594</ele>
        <time>2021-09-11T06:17:10.000Z</time>
      </trkpt>
      <trkpt lat="45.2275" lon="5.73185">
        <ele>766.79998779297</ele>
        <time>2021-09-11T06:17:13.000Z</time>
      </trkpt>
      <trkpt lat="45.22751" lon="5.73186">
        <ele>767.20001220703</ele>
        <time>2021-09-11T06:17:15.000Z</time>
      </trkpt>
      <trkpt lat="45.22752" lon="5.73188">
        <ele>767.79998779297</ele>
        <time>2021-09-11T06:17:17.000Z</time>
      </trkpt>
      <trkpt lat="45.22753" lon="5.73189">
        <ele>768</ele>
        <time>2021-09-11T06:17:18.000Z</time>
      </trkpt>
      <trkpt lat="45.22755" lon="5.73192">
        <ele>768.59997558594</ele>
        <time>2021-09-11T06:17:21.000Z</time>
      </trkpt>
      <trkpt lat="45.22756" lon="5.73193">
        <ele>768.59997558594</ele>
        <time>2021-09-11T06:17:22.000Z</time>
      </trkpt>
      <trkpt lat="45.22757" lon="5.73195">
        <ele>769</ele>
        <time>2021-09-11T06:17:24.000Z</time>
      </trkpt>
      <trkpt lat="45.22758" lon="5.73196">
        <ele>769.40002441406</ele>
        <time>2021-09-11T06:17:25.000Z</time>
      </trkpt>
      <trkpt lat="45.22758" lon="5.73197">
        <ele>769.79998779297</ele>
        <time>2021-09-11T06:17:27.000Z</time>
      </trkpt>
      <trkpt lat="45.22758" lon="5.73198">
        <ele>770.20001220703</ele>
        <time>2021-09-11T06:17:28.000Z</time>
      </trkpt>
      <trkpt lat="45.22759" lon="5.73199">
        <ele>770.59997558594</ele>
        <time>2021-09-11T06:17:29.000Z</time>
      </trkpt>
      <trkpt lat="45.22759" lon="5.73202">
        <ele>771</ele>
        <time>2021-09-11T06:17:31.000Z</time>
      </trkpt>
      <trkpt lat="45.2276" lon="5.73203">
        <ele>771.20001220703</ele>
        <time>2021-09-11T06:17:32.000Z</time>
      </trkpt>
      <trkpt lat="45.22762" lon="5.73205">
        <ele>771.59997558594</ele>
        <time>2021-09-11T06:17:34.000Z</time>
      </trkpt>
      <trkpt lat="45.22764" lon="5.73206">
        <ele>771.79998779297</ele>
        <time>2021-09-11T06:17:35.000Z</time>
      </trkpt>
      <trkpt lat="45.2277" lon="5.73213">
        <ele>772.79998779297</ele>
        <time>2021-09-11T06:17:39.000Z</time>
      </trkpt>
      <trkpt lat="45.22771" lon="5.73214">
        <ele>773.59997558594</ele>
        <time>2021-09-11T06:17:42.000Z</time>
      </trkpt>
      <trkpt lat="45.22772" lon="5.73215">
        <ele>773.79998779297</ele>
        <time>2021-09-11T06:17:43.000Z</time>
      </trkpt>
      <trkpt lat="45.22772" lon="5.73217">
        <ele>774.79998779297</ele>
        <time>2021-09-11T06:17:46.000Z</time>
      </trkpt>
      <trkpt lat="45.22772" lon="5.73218">
        <ele>775</ele>
        <time>2021-09-11T06:17:47.000Z</time>
      </trkpt>
      <trkpt lat="45.22775" lon="5.73221">
        <ele>775.20001220703</ele>
        <time>2021-09-11T06:17:49.000Z</time>
      </trkpt>
      <trkpt lat="45.22775" lon="5.73221">
        <ele>775.40002441406</ele>
        <time>2021-09-11T06:17:50.000Z</time>
      </trkpt>
      <trkpt lat="45.22777" lon="5.73222">
        <ele>775.79998779297</ele>
        <time>2021-09-11T06:17:52.000Z</time>
      </trkpt>
      <trkpt lat="45.22777" lon="5.73223">
        <ele>776</ele>
        <time>2021-09-11T06:17:53.000Z</time>
      </trkpt>
      <trkpt lat="45.22777" lon="5.73224">
        <ele>776.20001220703</ele>
        <time>2021-09-11T06:17:54.000Z</time>
      </trkpt>
      <trkpt lat="45.22778" lon="5.73224">
        <ele>777.20001220703</ele>
        <time>2021-09-11T06:17:57.000Z</time>
      </trkpt>
      <trkpt lat="45.22778" lon="5.73226">
        <ele>777.79998779297</ele>
        <time>2021-09-11T06:17:59.000Z</time>
      </trkpt>
      <trkpt lat="45.22779" lon="5.73227">
        <ele>778.20001220703</ele>
        <time>2021-09-11T06:18:01.000Z</time>
      </trkpt>
      <trkpt lat="45.2278" lon="5.73229">
        <ele>778.40002441406</ele>
        <time>2021-09-11T06:18:02.000Z</time>
      </trkpt>
      <trkpt lat="45.22783" lon="5.73233">
        <ele>779.40002441406</ele>
        <time>2021-09-11T06:18:05.000Z</time>
      </trkpt>
      <trkpt lat="45.22783" lon="5.73234">
        <ele>779.59997558594</ele>
        <time>2021-09-11T06:18:06.000Z</time>
      </trkpt>
      <trkpt lat="45.22784" lon="5.73236">
        <ele>780</ele>
        <time>2021-09-11T06:18:08.000Z</time>
      </trkpt>
      <trkpt lat="45.22785" lon="5.73237">
        <ele>780.59997558594</ele>
        <time>2021-09-11T06:18:10.000Z</time>
      </trkpt>
      <trkpt lat="45.22786" lon="5.73237">
        <ele>780.79998779297</ele>
        <time>2021-09-11T06:18:11.000Z</time>
      </trkpt>
      <trkpt lat="45.22787" lon="5.73239">
        <ele>781.59997558594</ele>
        <time>2021-09-11T06:18:14.000Z</time>
      </trkpt>
      <trkpt lat="45.22788" lon="5.73241">
        <ele>782.59997558594</ele>
        <time>2021-09-11T06:18:17.000Z</time>
      </trkpt>
      <trkpt lat="45.2279" lon="5.73243">
        <ele>783.20001220703</ele>
        <time>2021-09-11T06:18:19.000Z</time>
      </trkpt>
      <trkpt lat="45.22791" lon="5.73244">
        <ele>783.79998779297</ele>
        <time>2021-09-11T06:18:21.000Z</time>
      </trkpt>
      <trkpt lat="45.22792" lon="5.73246">
        <ele>784.59997558594</ele>
        <time>2021-09-11T06:18:24.000Z</time>
      </trkpt>
      <trkpt lat="45.22792" lon="5.73247">
        <ele>784.79998779297</ele>
        <time>2021-09-11T06:18:25.000Z</time>
      </trkpt>
      <trkpt lat="45.22793" lon="5.73248">
        <ele>785</ele>
        <time>2021-09-11T06:18:26.000Z</time>
      </trkpt>
      <trkpt lat="45.22795" lon="5.73253">
        <ele>786</ele>
        <time>2021-09-11T06:18:30.000Z</time>
      </trkpt>
      <trkpt lat="45.22796" lon="5.73256">
        <ele>786.79998779297</ele>
        <time>2021-09-11T06:18:32.000Z</time>
      </trkpt>
      <trkpt lat="45.22796" lon="5.73257">
        <ele>787</ele>
        <time>2021-09-11T06:18:33.000Z</time>
      </trkpt>
      <trkpt lat="45.22797" lon="5.73258">
        <ele>787.20001220703</ele>
        <time>2021-09-11T06:18:34.000Z</time>
      </trkpt>
      <trkpt lat="45.228" lon="5.73263">
        <ele>788.20001220703</ele>
        <time>2021-09-11T06:18:37.000Z</time>
      </trkpt>
      <trkpt lat="45.22801" lon="5.73266">
        <ele>789</ele>
        <time>2021-09-11T06:18:39.000Z</time>
      </trkpt>
      <trkpt lat="45.22802" lon="5.73267">
        <ele>789.40002441406</ele>
        <time>2021-09-11T06:18:40.000Z</time>
      </trkpt>
      <trkpt lat="45.22803" lon="5.7327">
        <ele>790.40002441406</ele>
        <time>2021-09-11T06:18:45.000Z</time>
      </trkpt>
      <trkpt lat="45.22803" lon="5.7327">
        <ele>791.79998779297</ele>
        <time>2021-09-11T06:18:49.000Z</time>
      </trkpt>
      <trkpt lat="45.22804" lon="5.7327">
        <ele>792.40002441406</ele>
        <time>2021-09-11T06:18:51.000Z</time>
      </trkpt>
      <trkpt lat="45.22805" lon="5.7327">
        <ele>792.79998779297</ele>
        <time>2021-09-11T06:18:53.000Z</time>
      </trkpt>
      <trkpt lat="45.22805" lon="5.7327">
        <ele>793</ele>
        <time>2021-09-11T06:18:54.000Z</time>
      </trkpt>
      <trkpt lat="45.22805" lon="5.73271">
        <ele>793.40002441406</ele>
        <time>2021-09-11T06:18:56.000Z</time>
      </trkpt>
      <trkpt lat="45.22806" lon="5.73273">
        <ele>794.20001220703</ele>
        <time>2021-09-11T06:18:59.000Z</time>
      </trkpt>
      <trkpt lat="45.22808" lon="5.73276">
        <ele>794.59997558594</ele>
        <time>2021-09-11T06:19:01.000Z</time>
      </trkpt>
      <trkpt lat="45.22811" lon="5.7328">
        <ele>795.40002441406</ele>
        <time>2021-09-11T06:19:05.000Z</time>
      </trkpt>
      <trkpt lat="45.22811" lon="5.73282">
        <ele>795.79998779297</ele>
        <time>2021-09-11T06:19:07.000Z</time>
      </trkpt>
      <trkpt lat="45.22812" lon="5.73283">
        <ele>796.59997558594</ele>
        <time>2021-09-11T06:19:09.000Z</time>
      </trkpt>
      <trkpt lat="45.22814" lon="5.73286">
        <ele>797.59997558594</ele>
        <time>2021-09-11T06:19:13.000Z</time>
      </trkpt>
      <trkpt lat="45.22816" lon="5.7329">
        <ele>798.79998779297</ele>
        <time>2021-09-11T06:19:17.000Z</time>
      </trkpt>
      <trkpt lat="45.22816" lon="5.73293">
        <ele>799.59997558594</ele>
        <time>2021-09-11T06:19:19.000Z</time>
      </trkpt>
      <trkpt lat="45.22818" lon="5.73294">
        <ele>800</ele>
        <time>2021-09-11T06:19:21.000Z</time>
      </trkpt>
      <trkpt lat="45.22818" lon="5.73295">
        <ele>800.59997558594</ele>
        <time>2021-09-11T06:19:25.000Z</time>
      </trkpt>
      <trkpt lat="45.22819" lon="5.73298">
        <ele>801</ele>
        <time>2021-09-11T06:19:27.000Z</time>
      </trkpt>
      <trkpt lat="45.22821" lon="5.73301">
        <ele>802.20001220703</ele>
        <time>2021-09-11T06:19:32.000Z</time>
      </trkpt>
      <trkpt lat="45.22822" lon="5.73303">
        <ele>802.79998779297</ele>
        <time>2021-09-11T06:19:34.000Z</time>
      </trkpt>
      <trkpt lat="45.22822" lon="5.73304">
        <ele>803.20001220703</ele>
        <time>2021-09-11T06:19:35.000Z</time>
      </trkpt>
      <trkpt lat="45.22824" lon="5.73306">
        <ele>804.40002441406</ele>
        <time>2021-09-11T06:19:39.000Z</time>
      </trkpt>
      <trkpt lat="45.22825" lon="5.73306">
        <ele>805</ele>
        <time>2021-09-11T06:19:41.000Z</time>
      </trkpt>
      <trkpt lat="45.22825" lon="5.73306">
        <ele>805.59997558594</ele>
        <time>2021-09-11T06:19:42.000Z</time>
      </trkpt>
      <trkpt lat="45.22827" lon="5.73309">
        <ele>806.20001220703</ele>
        <time>2021-09-11T06:19:46.000Z</time>
      </trkpt>
      <trkpt lat="45.22827" lon="5.7331">
        <ele>806.59997558594</ele>
        <time>2021-09-11T06:19:47.000Z</time>
      </trkpt>
      <trkpt lat="45.22827" lon="5.73311">
        <ele>807.79998779297</ele>
        <time>2021-09-11T06:19:50.000Z</time>
      </trkpt>
      <trkpt lat="45.22827" lon="5.73311">
        <ele>808.20001220703</ele>
        <time>2021-09-11T06:19:51.000Z</time>
      </trkpt>
      <trkpt lat="45.22828" lon="5.73312">
        <ele>809.20001220703</ele>
        <time>2021-09-11T06:19:54.000Z</time>
      </trkpt>
      <trkpt lat="45.22828" lon="5.73312">
        <ele>809.40002441406</ele>
        <time>2021-09-11T06:19:55.000Z</time>
      </trkpt>
      <trkpt lat="45.22826" lon="5.73314">
        <ele>810.40002441406</ele>
        <time>2021-09-11T06:20:00.000Z</time>
      </trkpt>
      <trkpt lat="45.22827" lon="5.73315">
        <ele>810.59997558594</ele>
        <time>2021-09-11T06:20:01.000Z</time>
      </trkpt>
      <trkpt lat="45.22828" lon="5.73315">
        <ele>811.40002441406</ele>
        <time>2021-09-11T06:20:03.000Z</time>
      </trkpt>
      <trkpt lat="45.2283" lon="5.7332">
        <ele>812.59997558594</ele>
        <time>2021-09-11T06:20:07.000Z</time>
      </trkpt>
      <trkpt lat="45.2283" lon="5.7332">
        <ele>813</ele>
        <time>2021-09-11T06:20:08.000Z</time>
      </trkpt>
      <trkpt lat="45.22829" lon="5.73319">
        <ele>813.79998779297</ele>
        <time>2021-09-11T06:20:10.000Z</time>
      </trkpt>
      <trkpt lat="45.22831" lon="5.73322">
        <ele>814.59997558594</ele>
        <time>2021-09-11T06:20:14.000Z</time>
      </trkpt>
      <trkpt lat="45.22832" lon="5.73323">
        <ele>814.79998779297</ele>
        <time>2021-09-11T06:20:15.000Z</time>
      </trkpt>
      <trkpt lat="45.22834" lon="5.73329">
        <ele>816.20001220703</ele>
        <time>2021-09-11T06:20:19.000Z</time>
      </trkpt>
      <trkpt lat="45.22835" lon="5.73333">
        <ele>817.20001220703</ele>
        <time>2021-09-11T06:20:22.000Z</time>
      </trkpt>
      <trkpt lat="45.22835" lon="5.73334">
        <ele>817.40002441406</ele>
        <time>2021-09-11T06:20:23.000Z</time>
      </trkpt>
      <trkpt lat="45.22838" lon="5.73338">
        <ele>818.40002441406</ele>
        <time>2021-09-11T06:20:28.000Z</time>
      </trkpt>
      <trkpt lat="45.22841" lon="5.73343">
        <ele>819.79998779297</ele>
        <time>2021-09-11T06:20:31.000Z</time>
      </trkpt>
      <trkpt lat="45.22842" lon="5.73345">
        <ele>820.59997558594</ele>
        <time>2021-09-11T06:20:33.000Z</time>
      </trkpt>
      <trkpt lat="45.22842" lon="5.73346">
        <ele>821</ele>
        <time>2021-09-11T06:20:34.000Z</time>
      </trkpt>
      <trkpt lat="45.22844" lon="5.73348">
        <ele>822.20001220703</ele>
        <time>2021-09-11T06:20:38.000Z</time>
      </trkpt>
      <trkpt lat="45.22844" lon="5.73349">
        <ele>822.40002441406</ele>
        <time>2021-09-11T06:20:39.000Z</time>
      </trkpt>
      <trkpt lat="45.22847" lon="5.73353">
        <ele>823.59997558594</ele>
        <time>2021-09-11T06:20:44.000Z</time>
      </trkpt>
      <trkpt lat="45.22848" lon="5.73355">
        <ele>824</ele>
        <time>2021-09-11T06:20:46.000Z</time>
      </trkpt>
      <trkpt lat="45.2285" lon="5.73358">
        <ele>824.79998779297</ele>
        <time>2021-09-11T06:20:49.000Z</time>
      </trkpt>
      <trkpt lat="45.22852" lon="5.7336">
        <ele>825.79998779297</ele>
        <time>2021-09-11T06:20:52.000Z</time>
      </trkpt>
      <trkpt lat="45.22852" lon="5.73361">
        <ele>825.79998779297</ele>
        <time>2021-09-11T06:20:53.000Z</time>
      </trkpt>
      <trkpt lat="45.22855" lon="5.73366">
        <ele>826.79998779297</ele>
        <time>2021-09-11T06:20:58.000Z</time>
      </trkpt>
      <trkpt lat="45.22855" lon="5.73366">
        <ele>827.20001220703</ele>
        <time>2021-09-11T06:20:59.000Z</time>
      </trkpt>
      <trkpt lat="45.22856" lon="5.73367">
        <ele>827.40002441406</ele>
        <time>2021-09-11T06:21:00.000Z</time>
      </trkpt>
      <trkpt lat="45.22857" lon="5.7337">
        <ele>828</ele>
        <time>2021-09-11T06:21:02.000Z</time>
      </trkpt>
      <trkpt lat="45.22857" lon="5.73372">
        <ele>828.40002441406</ele>
        <time>2021-09-11T06:21:03.000Z</time>
      </trkpt>
      <trkpt lat="45.22859" lon="5.73374">
        <ele>829.20001220703</ele>
        <time>2021-09-11T06:21:05.000Z</time>
      </trkpt>
      <trkpt lat="45.22863" lon="5.73377">
        <ele>829.79998779297</ele>
        <time>2021-09-11T06:21:09.000Z</time>
      </trkpt>
      <trkpt lat="45.22864" lon="5.7338">
        <ele>830.59997558594</ele>
        <time>2021-09-11T06:21:11.000Z</time>
      </trkpt>
      <trkpt lat="45.22866" lon="5.73383">
        <ele>831.40002441406</ele>
        <time>2021-09-11T06:21:14.000Z</time>
      </trkpt>
      <trkpt lat="45.22866" lon="5.73383">
        <ele>831.59997558594</ele>
        <time>2021-09-11T06:21:15.000Z</time>
      </trkpt>
      <trkpt lat="45.22868" lon="5.73389">
        <ele>832.79998779297</ele>
        <time>2021-09-11T06:21:19.000Z</time>
      </trkpt>
      <trkpt lat="45.22869" lon="5.73391">
        <ele>833.20001220703</ele>
        <time>2021-09-11T06:21:20.000Z</time>
      </trkpt>
      <trkpt lat="45.22868" lon="5.73393">
        <ele>834</ele>
        <time>2021-09-11T06:21:23.000Z</time>
      </trkpt>
      <trkpt lat="45.22868" lon="5.73394">
        <ele>835</ele>
        <time>2021-09-11T06:21:28.000Z</time>
      </trkpt>
      <trkpt lat="45.22869" lon="5.73396">
        <ele>836.20001220703</ele>
        <time>2021-09-11T06:21:32.000Z</time>
      </trkpt>
      <trkpt lat="45.2287" lon="5.73399">
        <ele>837.20001220703</ele>
        <time>2021-09-11T06:21:35.000Z</time>
      </trkpt>
      <trkpt lat="45.22872" lon="5.73403">
        <ele>838.20001220703</ele>
        <time>2021-09-11T06:21:41.000Z</time>
      </trkpt>
      <trkpt lat="45.22873" lon="5.73405">
        <ele>839.59997558594</ele>
        <time>2021-09-11T06:21:44.000Z</time>
      </trkpt>
      <trkpt lat="45.22873" lon="5.73407">
        <ele>840</ele>
        <time>2021-09-11T06:21:46.000Z</time>
      </trkpt>
      <trkpt lat="45.22874" lon="5.73409">
        <ele>840.59997558594</ele>
        <time>2021-09-11T06:21:48.000Z</time>
      </trkpt>
      <trkpt lat="45.22876" lon="5.73413">
        <ele>841.40002441406</ele>
        <time>2021-09-11T06:21:51.000Z</time>
      </trkpt>
      <trkpt lat="45.22877" lon="5.73416">
        <ele>841.79998779297</ele>
        <time>2021-09-11T06:21:53.000Z</time>
      </trkpt>
      <trkpt lat="45.22881" lon="5.7342">
        <ele>842.20001220703</ele>
        <time>2021-09-11T06:21:56.000Z</time>
      </trkpt>
      <trkpt lat="45.22881" lon="5.73422">
        <ele>843.20001220703</ele>
        <time>2021-09-11T06:21:58.000Z</time>
      </trkpt>
      <trkpt lat="45.2288" lon="5.73423">
        <ele>843.59997558594</ele>
        <time>2021-09-11T06:21:59.000Z</time>
      </trkpt>
      <trkpt lat="45.22876" lon="5.73427">
        <ele>844.40002441406</ele>
        <time>2021-09-11T06:22:02.000Z</time>
      </trkpt>
      <trkpt lat="45.22871" lon="5.7343">
        <ele>845.20001220703</ele>
        <time>2021-09-11T06:22:06.000Z</time>
      </trkpt>
      <trkpt lat="45.22869" lon="5.7343">
        <ele>845.59997558594</ele>
        <time>2021-09-11T06:22:07.000Z</time>
      </trkpt>
      <trkpt lat="45.22864" lon="5.73429">
        <ele>846.40002441406</ele>
        <time>2021-09-11T06:22:11.000Z</time>
      </trkpt>
      <trkpt lat="45.22862" lon="5.7343">
        <ele>846.59997558594</ele>
        <time>2021-09-11T06:22:12.000Z</time>
      </trkpt>
      <trkpt lat="45.22852" lon="5.73432">
        <ele>847.40002441406</ele>
        <time>2021-09-11T06:22:18.000Z</time>
      </trkpt>
      <trkpt lat="45.22846" lon="5.73431">
        <ele>847.79998779297</ele>
        <time>2021-09-11T06:22:21.000Z</time>
      </trkpt>
      <trkpt lat="45.22838" lon="5.7343">
        <ele>848.59997558594</ele>
        <time>2021-09-11T06:22:27.000Z</time>
      </trkpt>
      <trkpt lat="45.22836" lon="5.73431">
        <ele>848.79998779297</ele>
        <time>2021-09-11T06:22:28.000Z</time>
      </trkpt>
      <trkpt lat="45.22827" lon="5.7343">
        <ele>849.79998779297</ele>
        <time>2021-09-11T06:22:33.000Z</time>
      </trkpt>
      <trkpt lat="45.22826" lon="5.7343">
        <ele>850</ele>
        <time>2021-09-11T06:22:34.000Z</time>
      </trkpt>
      <trkpt lat="45.22825" lon="5.7343">
        <ele>850.20001220703</ele>
        <time>2021-09-11T06:22:35.000Z</time>
      </trkpt>
      <trkpt lat="45.22822" lon="5.73429">
        <ele>850.79998779297</ele>
        <time>2021-09-11T06:22:37.000Z</time>
      </trkpt>
      <trkpt lat="45.2282" lon="5.73428">
        <ele>851</ele>
        <time>2021-09-11T06:22:38.000Z</time>
      </trkpt>
      <trkpt lat="45.22815" lon="5.73427">
        <ele>851.40002441406</ele>
        <time>2021-09-11T06:22:41.000Z</time>
      </trkpt>
      <trkpt lat="45.22802" lon="5.73425">
        <ele>852</ele>
        <time>2021-09-11T06:22:46.000Z</time>
      </trkpt>
      <trkpt lat="45.22798" lon="5.73424">
        <ele>852.20001220703</ele>
        <time>2021-09-11T06:22:48.000Z</time>
      </trkpt>
      <trkpt lat="45.22796" lon="5.73424">
        <ele>852.40002441406</ele>
        <time>2021-09-11T06:22:49.000Z</time>
      </trkpt>
      <trkpt lat="45.22792" lon="5.73422">
        <ele>853.20001220703</ele>
        <time>2021-09-11T06:22:52.000Z</time>
      </trkpt>
      <trkpt lat="45.22788" lon="5.73421">
        <ele>853.59997558594</ele>
        <time>2021-09-11T06:22:54.000Z</time>
      </trkpt>
      <trkpt lat="45.22785" lon="5.73419">
        <ele>854</ele>
        <time>2021-09-11T06:22:56.000Z</time>
      </trkpt>
      <trkpt lat="45.22784" lon="5.73419">
        <ele>854.20001220703</ele>
        <time>2021-09-11T06:22:57.000Z</time>
      </trkpt>
      <trkpt lat="45.22774" lon="5.73416">
        <ele>855.20001220703</ele>
        <time>2021-09-11T06:23:03.000Z</time>
      </trkpt>
      <trkpt lat="45.22772" lon="5.73416">
        <ele>855.59997558594</ele>
        <time>2021-09-11T06:23:04.000Z</time>
      </trkpt>
      <trkpt lat="45.22768" lon="5.73415">
        <ele>856.20001220703</ele>
        <time>2021-09-11T06:23:07.000Z</time>
      </trkpt>
      <trkpt lat="45.22764" lon="5.73414">
        <ele>857.20001220703</ele>
        <time>2021-09-11T06:23:11.000Z</time>
      </trkpt>
      <trkpt lat="45.22761" lon="5.73415">
        <ele>857.40002441406</ele>
        <time>2021-09-11T06:23:12.000Z</time>
      </trkpt>
      <trkpt lat="45.22755" lon="5.73415">
        <ele>858</ele>
        <time>2021-09-11T06:23:17.000Z</time>
      </trkpt>
      <trkpt lat="45.22754" lon="5.73414">
        <ele>858.20001220703</ele>
        <time>2021-09-11T06:23:18.000Z</time>
      </trkpt>
      <trkpt lat="45.22752" lon="5.73414">
        <ele>858.40002441406</ele>
        <time>2021-09-11T06:23:19.000Z</time>
      </trkpt>
      <trkpt lat="45.22744" lon="5.73409">
        <ele>859.40002441406</ele>
        <time>2021-09-11T06:23:24.000Z</time>
      </trkpt>
      <trkpt lat="45.22742" lon="5.73408">
        <ele>859.59997558594</ele>
        <time>2021-09-11T06:23:25.000Z</time>
      </trkpt>
      <trkpt lat="45.22739" lon="5.73407">
        <ele>860.20001220703</ele>
        <time>2021-09-11T06:23:28.000Z</time>
      </trkpt>
      <trkpt lat="45.22732" lon="5.73403">
        <ele>860.59997558594</ele>
        <time>2021-09-11T06:23:31.000Z</time>
      </trkpt>
      <trkpt lat="45.22726" lon="5.73397">
        <ele>861.40002441406</ele>
        <time>2021-09-11T06:23:35.000Z</time>
      </trkpt>
      <trkpt lat="45.22723" lon="5.73395">
        <ele>861.79998779297</ele>
        <time>2021-09-11T06:23:37.000Z</time>
      </trkpt>
      <trkpt lat="45.22719" lon="5.73395">
        <ele>862.59997558594</ele>
        <time>2021-09-11T06:23:41.000Z</time>
      </trkpt>
      <trkpt lat="45.22717" lon="5.73394">
        <ele>862.79998779297</ele>
        <time>2021-09-11T06:23:42.000Z</time>
      </trkpt>
      <trkpt lat="45.22713" lon="5.73393">
        <ele>863.59997558594</ele>
        <time>2021-09-11T06:23:46.000Z</time>
      </trkpt>
      <trkpt lat="45.22711" lon="5.73393">
        <ele>863.79998779297</ele>
        <time>2021-09-11T06:23:47.000Z</time>
      </trkpt>
      <trkpt lat="45.22705" lon="5.73393">
        <ele>864.79998779297</ele>
        <time>2021-09-11T06:23:52.000Z</time>
      </trkpt>
      <trkpt lat="45.22704" lon="5.73393">
        <ele>865</ele>
        <time>2021-09-11T06:23:53.000Z</time>
      </trkpt>
      <trkpt lat="45.22694" lon="5.73392">
        <ele>866</ele>
        <time>2021-09-11T06:23:58.000Z</time>
      </trkpt>
      <trkpt lat="45.22691" lon="5.7339">
        <ele>866.20001220703</ele>
        <time>2021-09-11T06:23:59.000Z</time>
      </trkpt>
      <trkpt lat="45.22684" lon="5.73388">
        <ele>867.20001220703</ele>
        <time>2021-09-11T06:24:03.000Z</time>
      </trkpt>
      <trkpt lat="45.22681" lon="5.73387">
        <ele>867.79998779297</ele>
        <time>2021-09-11T06:24:05.000Z</time>
      </trkpt>
      <trkpt lat="45.22679" lon="5.73386">
        <ele>868.20001220703</ele>
        <time>2021-09-11T06:24:06.000Z</time>
      </trkpt>
      <trkpt lat="45.22673" lon="5.73384">
        <ele>869.59997558594</ele>
        <time>2021-09-11T06:24:11.000Z</time>
      </trkpt>
      <trkpt lat="45.22672" lon="5.73384">
        <ele>870</ele>
        <time>2021-09-11T06:24:12.000Z</time>
      </trkpt>
      <trkpt lat="45.22669" lon="5.73384">
        <ele>870.59997558594</ele>
        <time>2021-09-11T06:24:15.000Z</time>
      </trkpt>
      <trkpt lat="45.22665" lon="5.73385">
        <ele>871.59997558594</ele>
        <time>2021-09-11T06:24:19.000Z</time>
      </trkpt>
      <trkpt lat="45.22665" lon="5.73385">
        <ele>871.79998779297</ele>
        <time>2021-09-11T06:24:20.000Z</time>
      </trkpt>
      <trkpt lat="45.22663" lon="5.73385">
        <ele>872</ele>
        <time>2021-09-11T06:24:21.000Z</time>
      </trkpt>
      <trkpt lat="45.22659" lon="5.73384">
        <ele>872.79998779297</ele>
        <time>2021-09-11T06:24:25.000Z</time>
      </trkpt>
      <trkpt lat="45.22658" lon="5.73383">
        <ele>873.40002441406</ele>
        <time>2021-09-11T06:24:27.000Z</time>
      </trkpt>
      <trkpt lat="45.22656" lon="5.73383">
        <ele>873.79998779297</ele>
        <time>2021-09-11T06:24:29.000Z</time>
      </trkpt>
      <trkpt lat="45.22654" lon="5.73383">
        <ele>874.20001220703</ele>
        <time>2021-09-11T06:24:31.000Z</time>
      </trkpt>
      <trkpt lat="45.2265" lon="5.73383">
        <ele>875</ele>
        <time>2021-09-11T06:24:34.000Z</time>
      </trkpt>
      <trkpt lat="45.22647" lon="5.73383">
        <ele>875.79998779297</ele>
        <time>2021-09-11T06:24:38.000Z</time>
      </trkpt>
      <trkpt lat="45.22646" lon="5.73383">
        <ele>876</ele>
        <time>2021-09-11T06:24:39.000Z</time>
      </trkpt>
      <trkpt lat="45.22644" lon="5.73383">
        <ele>876.79998779297</ele>
        <time>2021-09-11T06:24:41.000Z</time>
      </trkpt>
      <trkpt lat="45.22643" lon="5.73383">
        <ele>877.40002441406</ele>
        <time>2021-09-11T06:24:43.000Z</time>
      </trkpt>
      <trkpt lat="45.22638" lon="5.73381">
        <ele>878.40002441406</ele>
        <time>2021-09-11T06:24:48.000Z</time>
      </trkpt>
      <trkpt lat="45.22636" lon="5.7338">
        <ele>879</ele>
        <time>2021-09-11T06:24:50.000Z</time>
      </trkpt>
      <trkpt lat="45.22634" lon="5.73379">
        <ele>879.59997558594</ele>
        <time>2021-09-11T06:24:52.000Z</time>
      </trkpt>
      <trkpt lat="45.22633" lon="5.73379">
        <ele>879.79998779297</ele>
        <time>2021-09-11T06:24:53.000Z</time>
      </trkpt>
      <trkpt lat="45.2263" lon="5.73378">
        <ele>880.40002441406</ele>
        <time>2021-09-11T06:24:56.000Z</time>
      </trkpt>
      <trkpt lat="45.22629" lon="5.73378">
        <ele>880.59997558594</ele>
        <time>2021-09-11T06:24:57.000Z</time>
      </trkpt>
      <trkpt lat="45.22629" lon="5.73378">
        <ele>880.79998779297</ele>
        <time>2021-09-11T06:24:58.000Z</time>
      </trkpt>
      <trkpt lat="45.22627" lon="5.73378">
        <ele>881.59997558594</ele>
        <time>2021-09-11T06:25:00.000Z</time>
      </trkpt>
      <trkpt lat="45.22626" lon="5.73378">
        <ele>882</ele>
        <time>2021-09-11T06:25:01.000Z</time>
      </trkpt>
      <trkpt lat="45.22623" lon="5.73379">
        <ele>882.59997558594</ele>
        <time>2021-09-11T06:25:03.000Z</time>
      </trkpt>
      <trkpt lat="45.22622" lon="5.73379">
        <ele>883</ele>
        <time>2021-09-11T06:25:04.000Z</time>
      </trkpt>
      <trkpt lat="45.22617" lon="5.7338">
        <ele>884</ele>
        <time>2021-09-11T06:25:09.000Z</time>
      </trkpt>
      <trkpt lat="45.22615" lon="5.73381">
        <ele>884.20001220703</ele>
        <time>2021-09-11T06:25:10.000Z</time>
      </trkpt>
      <trkpt lat="45.22614" lon="5.73381">
        <ele>884.79998779297</ele>
        <time>2021-09-11T06:25:12.000Z</time>
      </trkpt>
      <trkpt lat="45.22611" lon="5.7338">
        <ele>885.20001220703</ele>
        <time>2021-09-11T06:25:14.000Z</time>
      </trkpt>
      <trkpt lat="45.2261" lon="5.7338">
        <ele>885.40002441406</ele>
        <time>2021-09-11T06:25:15.000Z</time>
      </trkpt>
      <trkpt lat="45.22608" lon="5.7338">
        <ele>885.59997558594</ele>
        <time>2021-09-11T06:25:16.000Z</time>
      </trkpt>
      <trkpt lat="45.22603" lon="5.7338">
        <ele>886.40002441406</ele>
        <time>2021-09-11T06:25:19.000Z</time>
      </trkpt>
      <trkpt lat="45.22598" lon="5.73382">
        <ele>887.40002441406</ele>
        <time>2021-09-11T06:25:23.000Z</time>
      </trkpt>
      <trkpt lat="45.22597" lon="5.73383">
        <ele>887.59997558594</ele>
        <time>2021-09-11T06:25:24.000Z</time>
      </trkpt>
      <trkpt lat="45.22593" lon="5.73383">
        <ele>888.79998779297</ele>
        <time>2021-09-11T06:25:28.000Z</time>
      </trkpt>
      <trkpt lat="45.22591" lon="5.73385">
        <ele>889.40002441406</ele>
        <time>2021-09-11T06:25:31.000Z</time>
      </trkpt>
      <trkpt lat="45.2259" lon="5.73386">
        <ele>889.59997558594</ele>
        <time>2021-09-11T06:25:32.000Z</time>
      </trkpt>
      <trkpt lat="45.22589" lon="5.73386">
        <ele>889.79998779297</ele>
        <time>2021-09-11T06:25:33.000Z</time>
      </trkpt>
      <trkpt lat="45.22588" lon="5.73386">
        <ele>890.20001220703</ele>
        <time>2021-09-11T06:25:34.000Z</time>
      </trkpt>
      <trkpt lat="45.22587" lon="5.73386">
        <ele>890.79998779297</ele>
        <time>2021-09-11T06:25:36.000Z</time>
      </trkpt>
      <trkpt lat="45.22586" lon="5.73387">
        <ele>891.20001220703</ele>
        <time>2021-09-11T06:25:37.000Z</time>
      </trkpt>
      <trkpt lat="45.22586" lon="5.73388">
        <ele>891.40002441406</ele>
        <time>2021-09-11T06:25:38.000Z</time>
      </trkpt>
      <trkpt lat="45.22585" lon="5.73388">
        <ele>891.40002441406</ele>
        <time>2021-09-11T06:25:39.000Z</time>
      </trkpt>
      <trkpt lat="45.22581" lon="5.73389">
        <ele>892.59997558594</ele>
        <time>2021-09-11T06:25:43.000Z</time>
      </trkpt>
      <trkpt lat="45.2258" lon="5.7339">
        <ele>892.79998779297</ele>
        <time>2021-09-11T06:25:44.000Z</time>
      </trkpt>
      <trkpt lat="45.22579" lon="5.7339">
        <ele>893</ele>
        <time>2021-09-11T06:25:45.000Z</time>
      </trkpt>
      <trkpt lat="45.22575" lon="5.73391">
        <ele>893.59997558594</ele>
        <time>2021-09-11T06:25:47.000Z</time>
      </trkpt>
      <trkpt lat="45.22569" lon="5.73391">
        <ele>894.59997558594</ele>
        <time>2021-09-11T06:25:51.000Z</time>
      </trkpt>
      <trkpt lat="45.22568" lon="5.73392">
        <ele>895</ele>
        <time>2021-09-11T06:25:52.000Z</time>
      </trkpt>
      <trkpt lat="45.22562" lon="5.73391">
        <ele>896.20001220703</ele>
        <time>2021-09-11T06:25:57.000Z</time>
      </trkpt>
      <trkpt lat="45.22561" lon="5.73391">
        <ele>896.40002441406</ele>
        <time>2021-09-11T06:25:58.000Z</time>
      </trkpt>
      <trkpt lat="45.22551" lon="5.73395">
        <ele>897.40002441406</ele>
        <time>2021-09-11T06:26:03.000Z</time>
      </trkpt>
      <trkpt lat="45.22547" lon="5.73395">
        <ele>898</ele>
        <time>2021-09-11T06:26:06.000Z</time>
      </trkpt>
      <trkpt lat="45.22545" lon="5.73396">
        <ele>898.40002441406</ele>
        <time>2021-09-11T06:26:08.000Z</time>
      </trkpt>
      <trkpt lat="45.22542" lon="5.73395">
        <ele>899.40002441406</ele>
        <time>2021-09-11T06:26:11.000Z</time>
      </trkpt>
      <trkpt lat="45.22541" lon="5.73395">
        <ele>900.20001220703</ele>
        <time>2021-09-11T06:26:13.000Z</time>
      </trkpt>
      <trkpt lat="45.22539" lon="5.73395">
        <ele>900.40002441406</ele>
        <time>2021-09-11T06:26:14.000Z</time>
      </trkpt>
      <trkpt lat="45.22538" lon="5.73395">
        <ele>900.59997558594</ele>
        <time>2021-09-11T06:26:15.000Z</time>
      </trkpt>
      <trkpt lat="45.22532" lon="5.73396">
        <ele>901.79998779297</ele>
        <time>2021-09-11T06:26:20.000Z</time>
      </trkpt>
      <trkpt lat="45.2253" lon="5.73397">
        <ele>902</ele>
        <time>2021-09-11T06:26:21.000Z</time>
      </trkpt>
      <trkpt lat="45.22527" lon="5.73399">
        <ele>902.40002441406</ele>
        <time>2021-09-11T06:26:23.000Z</time>
      </trkpt>
      <trkpt lat="45.22527" lon="5.734">
        <ele>902.79998779297</ele>
        <time>2021-09-11T06:26:24.000Z</time>
      </trkpt>
      <trkpt lat="45.22525" lon="5.73402">
        <ele>903.59997558594</ele>
        <time>2021-09-11T06:26:26.000Z</time>
      </trkpt>
      <trkpt lat="45.22525" lon="5.73403">
        <ele>903.79998779297</ele>
        <time>2021-09-11T06:26:27.000Z</time>
      </trkpt>
      <trkpt lat="45.22522" lon="5.73404">
        <ele>905</ele>
        <time>2021-09-11T06:26:30.000Z</time>
      </trkpt>
      <trkpt lat="45.22517" lon="5.73407">
        <ele>905.79998779297</ele>
        <time>2021-09-11T06:26:33.000Z</time>
      </trkpt>
      <trkpt lat="45.22515" lon="5.7341">
        <ele>906.20001220703</ele>
        <time>2021-09-11T06:26:35.000Z</time>
      </trkpt>
      <trkpt lat="45.22513" lon="5.7341">
        <ele>906.40002441406</ele>
        <time>2021-09-11T06:26:36.000Z</time>
      </trkpt>
      <trkpt lat="45.22512" lon="5.73411">
        <ele>907</ele>
        <time>2021-09-11T06:26:37.000Z</time>
      </trkpt>
      <trkpt lat="45.22511" lon="5.73411">
        <ele>907.40002441406</ele>
        <time>2021-09-11T06:26:38.000Z</time>
      </trkpt>
      <trkpt lat="45.22511" lon="5.73411">
        <ele>907.59997558594</ele>
        <time>2021-09-11T06:26:39.000Z</time>
      </trkpt>
      <trkpt lat="45.22511" lon="5.73411">
        <ele>908.20001220703</ele>
        <time>2021-09-11T06:26:41.000Z</time>
      </trkpt>
      <trkpt lat="45.2251" lon="5.73411">
        <ele>908.40002441406</ele>
        <time>2021-09-11T06:26:42.000Z</time>
      </trkpt>
      <trkpt lat="45.22506" lon="5.73413">
        <ele>909.59997558594</ele>
        <time>2021-09-11T06:26:46.000Z</time>
      </trkpt>
      <trkpt lat="45.22505" lon="5.73414">
        <ele>910</ele>
        <time>2021-09-11T06:26:48.000Z</time>
      </trkpt>
      <trkpt lat="45.22504" lon="5.73414">
        <ele>910.40002441406</ele>
        <time>2021-09-11T06:26:49.000Z</time>
      </trkpt>
      <trkpt lat="45.22504" lon="5.73415">
        <ele>910.59997558594</ele>
        <time>2021-09-11T06:26:50.000Z</time>
      </trkpt>
      <trkpt lat="45.22502" lon="5.73418">
        <ele>911.40002441406</ele>
        <time>2021-09-11T06:26:53.000Z</time>
      </trkpt>
      <trkpt lat="45.22501" lon="5.73418">
        <ele>911.59997558594</ele>
        <time>2021-09-11T06:26:54.000Z</time>
      </trkpt>
      <trkpt lat="45.22498" lon="5.7342">
        <ele>912.20001220703</ele>
        <time>2021-09-11T06:26:56.000Z</time>
      </trkpt>
      <trkpt lat="45.22496" lon="5.7342">
        <ele>912.59997558594</ele>
        <time>2021-09-11T06:26:59.000Z</time>
      </trkpt>
      <trkpt lat="45.22496" lon="5.73421">
        <ele>913</ele>
        <time>2021-09-11T06:27:00.000Z</time>
      </trkpt>
      <trkpt lat="45.22494" lon="5.73421">
        <ele>913.59997558594</ele>
        <time>2021-09-11T06:27:01.000Z</time>
      </trkpt>
      <trkpt lat="45.22491" lon="5.73422">
        <ele>914.59997558594</ele>
        <time>2021-09-11T06:27:05.000Z</time>
      </trkpt>
      <trkpt lat="45.2249" lon="5.73423">
        <ele>915</ele>
        <time>2021-09-11T06:27:06.000Z</time>
      </trkpt>
      <trkpt lat="45.22489" lon="5.73424">
        <ele>915.20001220703</ele>
        <time>2021-09-11T06:27:07.000Z</time>
      </trkpt>
      <trkpt lat="45.22487" lon="5.73427">
        <ele>916.40002441406</ele>
        <time>2021-09-11T06:27:11.000Z</time>
      </trkpt>
      <trkpt lat="45.22486" lon="5.7343">
        <ele>916.79998779297</ele>
        <time>2021-09-11T06:27:13.000Z</time>
      </trkpt>
      <trkpt lat="45.22487" lon="5.73434">
        <ele>917.79998779297</ele>
        <time>2021-09-11T06:27:16.000Z</time>
      </trkpt>
      <trkpt lat="45.22485" lon="5.73436">
        <ele>918.20001220703</ele>
        <time>2021-09-11T06:27:18.000Z</time>
      </trkpt>
      <trkpt lat="45.22482" lon="5.73437">
        <ele>918.40002441406</ele>
        <time>2021-09-11T06:27:20.000Z</time>
      </trkpt>
      <trkpt lat="45.22481" lon="5.73437">
        <ele>918.79998779297</ele>
        <time>2021-09-11T06:27:21.000Z</time>
      </trkpt>
      <trkpt lat="45.22479" lon="5.73437">
        <ele>920</ele>
        <time>2021-09-11T06:27:24.000Z</time>
      </trkpt>
      <trkpt lat="45.22477" lon="5.73436">
        <ele>920.20001220703</ele>
        <time>2021-09-11T06:27:26.000Z</time>
      </trkpt>
      <trkpt lat="45.22471" lon="5.73435">
        <ele>920.59997558594</ele>
        <time>2021-09-11T06:27:30.000Z</time>
      </trkpt>
      <trkpt lat="45.22468" lon="5.73435">
        <ele>921</ele>
        <time>2021-09-11T06:27:32.000Z</time>
      </trkpt>
      <trkpt lat="45.22463" lon="5.73435">
        <ele>922</ele>
        <time>2021-09-11T06:27:37.000Z</time>
      </trkpt>
      <trkpt lat="45.22461" lon="5.73434">
        <ele>922</ele>
        <time>2021-09-11T06:27:38.000Z</time>
      </trkpt>
      <trkpt lat="45.22451" lon="5.73434">
        <ele>923.40002441406</ele>
        <time>2021-09-11T06:27:44.000Z</time>
      </trkpt>
      <trkpt lat="45.2245" lon="5.73434">
        <ele>923.59997558594</ele>
        <time>2021-09-11T06:27:45.000Z</time>
      </trkpt>
      <trkpt lat="45.2244" lon="5.73436">
        <ele>924.40002441406</ele>
        <time>2021-09-11T06:27:50.000Z</time>
      </trkpt>
      <trkpt lat="45.22436" lon="5.73437">
        <ele>924.59997558594</ele>
        <time>2021-09-11T06:27:52.000Z</time>
      </trkpt>
      <trkpt lat="45.22425" lon="5.73438">
        <ele>925.40002441406</ele>
        <time>2021-09-11T06:27:59.000Z</time>
      </trkpt>
      <trkpt lat="45.22423" lon="5.73438">
        <ele>925.59997558594</ele>
        <time>2021-09-11T06:28:00.000Z</time>
      </trkpt>
      <trkpt lat="45.22414" lon="5.73439">
        <ele>926.59997558594</ele>
        <time>2021-09-11T06:28:05.000Z</time>
      </trkpt>
      <trkpt lat="45.22406" lon="5.73437">
        <ele>927</ele>
        <time>2021-09-11T06:28:10.000Z</time>
      </trkpt>
      <trkpt lat="45.22402" lon="5.73436">
        <ele>927.40002441406</ele>
        <time>2021-09-11T06:28:12.000Z</time>
      </trkpt>
      <trkpt lat="45.22401" lon="5.73436">
        <ele>927.59997558594</ele>
        <time>2021-09-11T06:28:13.000Z</time>
      </trkpt>
      <trkpt lat="45.2239" lon="5.73432">
        <ele>928.20001220703</ele>
        <time>2021-09-11T06:28:19.000Z</time>
      </trkpt>
      <trkpt lat="45.22381" lon="5.73431">
        <ele>928.79998779297</ele>
        <time>2021-09-11T06:28:23.000Z</time>
      </trkpt>
      <trkpt lat="45.22377" lon="5.73428">
        <ele>929</ele>
        <time>2021-09-11T06:28:25.000Z</time>
      </trkpt>
      <trkpt lat="45.2237" lon="5.73425">
        <ele>929.79998779297</ele>
        <time>2021-09-11T06:28:30.000Z</time>
      </trkpt>
      <trkpt lat="45.22369" lon="5.73424">
        <ele>930.20001220703</ele>
        <time>2021-09-11T06:28:32.000Z</time>
      </trkpt>
      <trkpt lat="45.22366" lon="5.73423">
        <ele>931</ele>
        <time>2021-09-11T06:28:35.000Z</time>
      </trkpt>
      <trkpt lat="45.22362" lon="5.73422">
        <ele>932</ele>
        <time>2021-09-11T06:28:39.000Z</time>
      </trkpt>
      <trkpt lat="45.22361" lon="5.73422">
        <ele>932.20001220703</ele>
        <time>2021-09-11T06:28:40.000Z</time>
      </trkpt>
      <trkpt lat="45.22358" lon="5.73422">
        <ele>932.40002441406</ele>
        <time>2021-09-11T06:28:42.000Z</time>
      </trkpt>
      <trkpt lat="45.22357" lon="5.73422">
        <ele>932.79998779297</ele>
        <time>2021-09-11T06:28:43.000Z</time>
      </trkpt>
      <trkpt lat="45.22356" lon="5.73422">
        <ele>933.20001220703</ele>
        <time>2021-09-11T06:28:44.000Z</time>
      </trkpt>
      <trkpt lat="45.22354" lon="5.73422">
        <ele>933.40002441406</ele>
        <time>2021-09-11T06:28:45.000Z</time>
      </trkpt>
      <trkpt lat="45.2235" lon="5.73421">
        <ele>933.79998779297</ele>
        <time>2021-09-11T06:28:48.000Z</time>
      </trkpt>
      <trkpt lat="45.22349" lon="5.73421">
        <ele>934.20001220703</ele>
        <time>2021-09-11T06:28:49.000Z</time>
      </trkpt>
      <trkpt lat="45.22342" lon="5.73421">
        <ele>935.40002441406</ele>
        <time>2021-09-11T06:28:54.000Z</time>
      </trkpt>
      <trkpt lat="45.22339" lon="5.7342">
        <ele>936</ele>
        <time>2021-09-11T06:28:56.000Z</time>
      </trkpt>
      <trkpt lat="45.22336" lon="5.73418">
        <ele>936.40002441406</ele>
        <time>2021-09-11T06:28:58.000Z</time>
      </trkpt>
      <trkpt lat="45.22328" lon="5.73415">
        <ele>937.59997558594</ele>
        <time>2021-09-11T06:29:04.000Z</time>
      </trkpt>
      <trkpt lat="45.22327" lon="5.73414">
        <ele>938</ele>
        <time>2021-09-11T06:29:05.000Z</time>
      </trkpt>
      <trkpt lat="45.22325" lon="5.73414">
        <ele>938.59997558594</ele>
        <time>2021-09-11T06:29:07.000Z</time>
      </trkpt>
      <trkpt lat="45.22324" lon="5.73417">
        <ele>939.20001220703</ele>
        <time>2021-09-11T06:29:09.000Z</time>
      </trkpt>
      <trkpt lat="45.22323" lon="5.73417">
        <ele>939.59997558594</ele>
        <time>2021-09-11T06:29:11.000Z</time>
      </trkpt>
      <trkpt lat="45.22322" lon="5.73416">
        <ele>939.79998779297</ele>
        <time>2021-09-11T06:29:12.000Z</time>
      </trkpt>
      <trkpt lat="45.22316" lon="5.73418">
        <ele>941.20001220703</ele>
        <time>2021-09-11T06:29:16.000Z</time>
      </trkpt>
      <trkpt lat="45.22313" lon="5.73416">
        <ele>942</ele>
        <time>2021-09-11T06:29:19.000Z</time>
      </trkpt>
      <trkpt lat="45.2231" lon="5.73414">
        <ele>942.20001220703</ele>
        <time>2021-09-11T06:29:21.000Z</time>
      </trkpt>
      <trkpt lat="45.22309" lon="5.73415">
        <ele>942.59997558594</ele>
        <time>2021-09-11T06:29:22.000Z</time>
      </trkpt>
      <trkpt lat="45.22308" lon="5.73414">
        <ele>943.20001220703</ele>
        <time>2021-09-11T06:29:24.000Z</time>
      </trkpt>
      <trkpt lat="45.22307" lon="5.73414">
        <ele>943.59997558594</ele>
        <time>2021-09-11T06:29:25.000Z</time>
      </trkpt>
      <trkpt lat="45.223" lon="5.73414">
        <ele>944.20001220703</ele>
        <time>2021-09-11T06:29:30.000Z</time>
      </trkpt>
      <trkpt lat="45.22299" lon="5.73414">
        <ele>944.59997558594</ele>
        <time>2021-09-11T06:29:31.000Z</time>
      </trkpt>
      <trkpt lat="45.22295" lon="5.73413">
        <ele>945.79998779297</ele>
        <time>2021-09-11T06:29:34.000Z</time>
      </trkpt>
      <trkpt lat="45.22294" lon="5.73414">
        <ele>946</ele>
        <time>2021-09-11T06:29:36.000Z</time>
      </trkpt>
      <trkpt lat="45.22293" lon="5.73413">
        <ele>946.40002441406</ele>
        <time>2021-09-11T06:29:37.000Z</time>
      </trkpt>
      <trkpt lat="45.22291" lon="5.73414">
        <ele>946.79998779297</ele>
        <time>2021-09-11T06:29:39.000Z</time>
      </trkpt>
      <trkpt lat="45.22287" lon="5.73415">
        <ele>947.79998779297</ele>
        <time>2021-09-11T06:29:43.000Z</time>
      </trkpt>
      <trkpt lat="45.22286" lon="5.73414">
        <ele>948</ele>
        <time>2021-09-11T06:29:44.000Z</time>
      </trkpt>
      <trkpt lat="45.22285" lon="5.73414">
        <ele>948.40002441406</ele>
        <time>2021-09-11T06:29:45.000Z</time>
      </trkpt>
      <trkpt lat="45.22282" lon="5.73412">
        <ele>949.20001220703</ele>
        <time>2021-09-11T06:29:48.000Z</time>
      </trkpt>
      <trkpt lat="45.22281" lon="5.73411">
        <ele>949.20001220703</ele>
        <time>2021-09-11T06:29:49.000Z</time>
      </trkpt>
      <trkpt lat="45.22277" lon="5.73411">
        <ele>950.40002441406</ele>
        <time>2021-09-11T06:29:52.000Z</time>
      </trkpt>
      <trkpt lat="45.22276" lon="5.73411">
        <ele>950.59997558594</ele>
        <time>2021-09-11T06:29:53.000Z</time>
      </trkpt>
      <trkpt lat="45.22275" lon="5.7341">
        <ele>951</ele>
        <time>2021-09-11T06:29:55.000Z</time>
      </trkpt>
      <trkpt lat="45.22272" lon="5.7341">
        <ele>951.59997558594</ele>
        <time>2021-09-11T06:29:58.000Z</time>
      </trkpt>
      <trkpt lat="45.22269" lon="5.7341">
        <ele>952.79998779297</ele>
        <time>2021-09-11T06:30:02.000Z</time>
      </trkpt>
      <trkpt lat="45.22268" lon="5.7341">
        <ele>953</ele>
        <time>2021-09-11T06:30:03.000Z</time>
      </trkpt>
      <trkpt lat="45.22265" lon="5.73409">
        <ele>953.79998779297</ele>
        <time>2021-09-11T06:30:06.000Z</time>
      </trkpt>
      <trkpt lat="45.22263" lon="5.7341">
        <ele>954.59997558594</ele>
        <time>2021-09-11T06:30:08.000Z</time>
      </trkpt>
      <trkpt lat="45.22262" lon="5.7341">
        <ele>955</ele>
        <time>2021-09-11T06:30:10.000Z</time>
      </trkpt>
      <trkpt lat="45.22259" lon="5.7341">
        <ele>956.20001220703</ele>
        <time>2021-09-11T06:30:14.000Z</time>
      </trkpt>
      <trkpt lat="45.22259" lon="5.73411">
        <ele>956.59997558594</ele>
        <time>2021-09-11T06:30:15.000Z</time>
      </trkpt>
      <trkpt lat="45.22256" lon="5.73412">
        <ele>957.40002441406</ele>
        <time>2021-09-11T06:30:18.000Z</time>
      </trkpt>
      <trkpt lat="45.22253" lon="5.73415">
        <ele>958.20001220703</ele>
        <time>2021-09-11T06:30:22.000Z</time>
      </trkpt>
      <trkpt lat="45.22252" lon="5.73415">
        <ele>958.59997558594</ele>
        <time>2021-09-11T06:30:23.000Z</time>
      </trkpt>
      <trkpt lat="45.22252" lon="5.73414">
        <ele>959.20001220703</ele>
        <time>2021-09-11T06:30:24.000Z</time>
      </trkpt>
      <trkpt lat="45.22251" lon="5.73414">
        <ele>959.79998779297</ele>
        <time>2021-09-11T06:30:26.000Z</time>
      </trkpt>
      <trkpt lat="45.22248" lon="5.73413">
        <ele>960.59997558594</ele>
        <time>2021-09-11T06:30:29.000Z</time>
      </trkpt>
      <trkpt lat="45.22248" lon="5.73413">
        <ele>961</ele>
        <time>2021-09-11T06:30:30.000Z</time>
      </trkpt>
      <trkpt lat="45.22247" lon="5.73412">
        <ele>961.20001220703</ele>
        <time>2021-09-11T06:30:31.000Z</time>
      </trkpt>
      <trkpt lat="45.22245" lon="5.73412">
        <ele>961.59997558594</ele>
        <time>2021-09-11T06:30:34.000Z</time>
      </trkpt>
      <trkpt lat="45.22244" lon="5.73412">
        <ele>962</ele>
        <time>2021-09-11T06:30:35.000Z</time>
      </trkpt>
      <trkpt lat="45.22243" lon="5.73412">
        <ele>962.40002441406</ele>
        <time>2021-09-11T06:30:36.000Z</time>
      </trkpt>
      <trkpt lat="45.22243" lon="5.73412">
        <ele>962.79998779297</ele>
        <time>2021-09-11T06:30:37.000Z</time>
      </trkpt>
      <trkpt lat="45.22241" lon="5.73412">
        <ele>963.59997558594</ele>
        <time>2021-09-11T06:30:39.000Z</time>
      </trkpt>
      <trkpt lat="45.22237" lon="5.73411">
        <ele>964.20001220703</ele>
        <time>2021-09-11T06:30:44.000Z</time>
      </trkpt>
      <trkpt lat="45.22236" lon="5.73411">
        <ele>964.79998779297</ele>
        <time>2021-09-11T06:30:46.000Z</time>
      </trkpt>
      <trkpt lat="45.22233" lon="5.7341">
        <ele>965.79998779297</ele>
        <time>2021-09-11T06:30:50.000Z</time>
      </trkpt>
      <trkpt lat="45.22233" lon="5.7341">
        <ele>966.20001220703</ele>
        <time>2021-09-11T06:30:51.000Z</time>
      </trkpt>
      <trkpt lat="45.22225" lon="5.73408">
        <ele>967</ele>
        <time>2021-09-11T06:30:57.000Z</time>
      </trkpt>
      <trkpt lat="45.22222" lon="5.73407">
        <ele>968.40002441406</ele>
        <time>2021-09-11T06:31:00.000Z</time>
      </trkpt>
      <trkpt lat="45.22221" lon="5.73405">
        <ele>968.59997558594</ele>
        <time>2021-09-11T06:31:02.000Z</time>
      </trkpt>
      <trkpt lat="45.22219" lon="5.73403">
        <ele>969</ele>
        <time>2021-09-11T06:31:03.000Z</time>
      </trkpt>
      <trkpt lat="45.22217" lon="5.73402">
        <ele>969.40002441406</ele>
        <time>2021-09-11T06:31:04.000Z</time>
      </trkpt>
      <trkpt lat="45.22216" lon="5.73401">
        <ele>969.79998779297</ele>
        <time>2021-09-11T06:31:06.000Z</time>
      </trkpt>
      <trkpt lat="45.22214" lon="5.73403">
        <ele>970</ele>
        <time>2021-09-11T06:31:08.000Z</time>
      </trkpt>
      <trkpt lat="45.22213" lon="5.73402">
        <ele>970.79998779297</ele>
        <time>2021-09-11T06:31:10.000Z</time>
      </trkpt>
      <trkpt lat="45.22212" lon="5.73402">
        <ele>971.79998779297</ele>
        <time>2021-09-11T06:31:13.000Z</time>
      </trkpt>
      <trkpt lat="45.22211" lon="5.73401">
        <ele>972.20001220703</ele>
        <time>2021-09-11T06:31:14.000Z</time>
      </trkpt>
      <trkpt lat="45.22209" lon="5.73401">
        <ele>972.40002441406</ele>
        <time>2021-09-11T06:31:16.000Z</time>
      </trkpt>
      <trkpt lat="45.22209" lon="5.73401">
        <ele>973</ele>
        <time>2021-09-11T06:31:18.000Z</time>
      </trkpt>
      <trkpt lat="45.22208" lon="5.73401">
        <ele>973.59997558594</ele>
        <time>2021-09-11T06:31:20.000Z</time>
      </trkpt>
      <trkpt lat="45.22207" lon="5.73401">
        <ele>974.20001220703</ele>
        <time>2021-09-11T06:31:22.000Z</time>
      </trkpt>
      <trkpt lat="45.22205" lon="5.734">
        <ele>975.20001220703</ele>
        <time>2021-09-11T06:31:26.000Z</time>
      </trkpt>
      <trkpt lat="45.22204" lon="5.734">
        <ele>975.79998779297</ele>
        <time>2021-09-11T06:31:27.000Z</time>
      </trkpt>
      <trkpt lat="45.22204" lon="5.734">
        <ele>976.20001220703</ele>
        <time>2021-09-11T06:31:29.000Z</time>
      </trkpt>
      <trkpt lat="45.22204" lon="5.734">
        <ele>976.40002441406</ele>
        <time>2021-09-11T06:31:30.000Z</time>
      </trkpt>
      <trkpt lat="45.22198" lon="5.73402">
        <ele>977.40002441406</ele>
        <time>2021-09-11T06:31:34.000Z</time>
      </trkpt>
      <trkpt lat="45.22197" lon="5.73401">
        <ele>977.79998779297</ele>
        <time>2021-09-11T06:31:37.000Z</time>
      </trkpt>
      <trkpt lat="45.22195" lon="5.73401">
        <ele>978.59997558594</ele>
        <time>2021-09-11T06:31:39.000Z</time>
      </trkpt>
      <trkpt lat="45.22193" lon="5.73401">
        <ele>979</ele>
        <time>2021-09-11T06:31:41.000Z</time>
      </trkpt>
      <trkpt lat="45.22191" lon="5.734">
        <ele>979.79998779297</ele>
        <time>2021-09-11T06:31:44.000Z</time>
      </trkpt>
      <trkpt lat="45.22187" lon="5.734">
        <ele>981</ele>
        <time>2021-09-11T06:31:48.000Z</time>
      </trkpt>
      <trkpt lat="45.22185" lon="5.73401">
        <ele>982</ele>
        <time>2021-09-11T06:31:51.000Z</time>
      </trkpt>
      <trkpt lat="45.22183" lon="5.73401">
        <ele>982.79998779297</ele>
        <time>2021-09-11T06:31:53.000Z</time>
      </trkpt>
      <trkpt lat="45.22182" lon="5.73401">
        <ele>983.20001220703</ele>
        <time>2021-09-11T06:31:55.000Z</time>
      </trkpt>
      <trkpt lat="45.2218" lon="5.73402">
        <ele>984.20001220703</ele>
        <time>2021-09-11T06:31:59.000Z</time>
      </trkpt>
      <trkpt lat="45.2218" lon="5.73402">
        <ele>984.40002441406</ele>
        <time>2021-09-11T06:32:00.000Z</time>
      </trkpt>
      <trkpt lat="45.22179" lon="5.73403">
        <ele>985.40002441406</ele>
        <time>2021-09-11T06:32:03.000Z</time>
      </trkpt>
      <trkpt lat="45.22176" lon="5.73402">
        <ele>986.59997558594</ele>
        <time>2021-09-11T06:32:07.000Z</time>
      </trkpt>
      <trkpt lat="45.22175" lon="5.73402">
        <ele>987.20001220703</ele>
        <time>2021-09-11T06:32:09.000Z</time>
      </trkpt>
      <trkpt lat="45.22172" lon="5.73403">
        <ele>987.79998779297</ele>
        <time>2021-09-11T06:32:11.000Z</time>
      </trkpt>
      <trkpt lat="45.2217" lon="5.73402">
        <ele>989.20001220703</ele>
        <time>2021-09-11T06:32:15.000Z</time>
      </trkpt>
      <trkpt lat="45.22165" lon="5.734">
        <ele>990.40002441406</ele>
        <time>2021-09-11T06:32:20.000Z</time>
      </trkpt>
      <trkpt lat="45.22163" lon="5.73402">
        <ele>991</ele>
        <time>2021-09-11T06:32:23.000Z</time>
      </trkpt>
      <trkpt lat="45.2216" lon="5.73401">
        <ele>991.40002441406</ele>
        <time>2021-09-11T06:32:26.000Z</time>
      </trkpt>
      <trkpt lat="45.22157" lon="5.73402">
        <ele>992.59997558594</ele>
        <time>2021-09-11T06:32:30.000Z</time>
      </trkpt>
      <trkpt lat="45.22154" lon="5.73402">
        <ele>993.20001220703</ele>
        <time>2021-09-11T06:32:32.000Z</time>
      </trkpt>
      <trkpt lat="45.2215" lon="5.73402">
        <ele>994</ele>
        <time>2021-09-11T06:32:35.000Z</time>
      </trkpt>
      <trkpt lat="45.22148" lon="5.73401">
        <ele>994.59997558594</ele>
        <time>2021-09-11T06:32:39.000Z</time>
      </trkpt>
      <trkpt lat="45.22147" lon="5.734">
        <ele>995</ele>
        <time>2021-09-11T06:32:41.000Z</time>
      </trkpt>
      <trkpt lat="45.22146" lon="5.734">
        <ele>995.20001220703</ele>
        <time>2021-09-11T06:32:42.000Z</time>
      </trkpt>
      <trkpt lat="45.22144" lon="5.73398">
        <ele>996.40002441406</ele>
        <time>2021-09-11T06:32:45.000Z</time>
      </trkpt>
      <trkpt lat="45.22138" lon="5.73396">
        <ele>997.40002441406</ele>
        <time>2021-09-11T06:32:50.000Z</time>
      </trkpt>
      <trkpt lat="45.22136" lon="5.73396">
        <ele>998</ele>
        <time>2021-09-11T06:32:52.000Z</time>
      </trkpt>
      <trkpt lat="45.22131" lon="5.73397">
        <ele>998.59997558594</ele>
        <time>2021-09-11T06:32:56.000Z</time>
      </trkpt>
      <trkpt lat="45.22127" lon="5.73397">
        <ele>999</ele>
        <time>2021-09-11T06:32:59.000Z</time>
      </trkpt>
      <trkpt lat="45.22127" lon="5.73397">
        <ele>999.79998779297</ele>
        <time>2021-09-11T06:33:01.000Z</time>
      </trkpt>
      <trkpt lat="45.22124" lon="5.73397">
        <ele>1000.4000244141</ele>
        <time>2021-09-11T06:33:04.000Z</time>
      </trkpt>
      <trkpt lat="45.22122" lon="5.73397">
        <ele>1001</ele>
        <time>2021-09-11T06:33:06.000Z</time>
      </trkpt>
      <trkpt lat="45.22118" lon="5.73397">
        <ele>1001.799987793</ele>
        <time>2021-09-11T06:33:10.000Z</time>
      </trkpt>
      <trkpt lat="45.22117" lon="5.73396">
        <ele>1002</ele>
        <time>2021-09-11T06:33:11.000Z</time>
      </trkpt>
      <trkpt lat="45.22117" lon="5.73396">
        <ele>1002.4000244141</ele>
        <time>2021-09-11T06:33:12.000Z</time>
      </trkpt>
      <trkpt lat="45.22116" lon="5.73396">
        <ele>1002.799987793</ele>
        <time>2021-09-11T06:33:13.000Z</time>
      </trkpt>
      <trkpt lat="45.22114" lon="5.73395">
        <ele>1003.200012207</ele>
        <time>2021-09-11T06:33:15.000Z</time>
      </trkpt>
      <trkpt lat="45.22111" lon="5.73395">
        <ele>1004</ele>
        <time>2021-09-11T06:33:19.000Z</time>
      </trkpt>
      <trkpt lat="45.22111" lon="5.73395">
        <ele>1004.5999755859</ele>
        <time>2021-09-11T06:33:20.000Z</time>
      </trkpt>
      <trkpt lat="45.22109" lon="5.73398">
        <ele>1005.5999755859</ele>
        <time>2021-09-11T06:33:23.000Z</time>
      </trkpt>
      <trkpt lat="45.22104" lon="5.73397">
        <ele>1006.200012207</ele>
        <time>2021-09-11T06:33:26.000Z</time>
      </trkpt>
      <trkpt lat="45.22103" lon="5.73396">
        <ele>1006.799987793</ele>
        <time>2021-09-11T06:33:28.000Z</time>
      </trkpt>
      <trkpt lat="45.221" lon="5.73394">
        <ele>1007.5999755859</ele>
        <time>2021-09-11T06:33:30.000Z</time>
      </trkpt>
      <trkpt lat="45.22099" lon="5.73392">
        <ele>1008.200012207</ele>
        <time>2021-09-11T06:33:32.000Z</time>
      </trkpt>
      <trkpt lat="45.22099" lon="5.73391">
        <ele>1008.4000244141</ele>
        <time>2021-09-11T06:33:33.000Z</time>
      </trkpt>
      <trkpt lat="45.22097" lon="5.7339">
        <ele>1008.799987793</ele>
        <time>2021-09-11T06:33:35.000Z</time>
      </trkpt>
      <trkpt lat="45.22095" lon="5.73388">
        <ele>1009.200012207</ele>
        <time>2021-09-11T06:33:37.000Z</time>
      </trkpt>
      <trkpt lat="45.22095" lon="5.73387">
        <ele>1009.4000244141</ele>
        <time>2021-09-11T06:33:38.000Z</time>
      </trkpt>
      <trkpt lat="45.22094" lon="5.73385">
        <ele>1010.200012207</ele>
        <time>2021-09-11T06:33:40.000Z</time>
      </trkpt>
      <trkpt lat="45.22094" lon="5.73385">
        <ele>1010.4000244141</ele>
        <time>2021-09-11T06:33:41.000Z</time>
      </trkpt>
      <trkpt lat="45.22092" lon="5.73384">
        <ele>1011.200012207</ele>
        <time>2021-09-11T06:33:43.000Z</time>
      </trkpt>
      <trkpt lat="45.22092" lon="5.73384">
        <ele>1011.4000244141</ele>
        <time>2021-09-11T06:33:44.000Z</time>
      </trkpt>
      <trkpt lat="45.22093" lon="5.73385">
        <ele>1011.5999755859</ele>
        <time>2021-09-11T06:33:45.000Z</time>
      </trkpt>
      <trkpt lat="45.22092" lon="5.73387">
        <ele>1012</ele>
        <time>2021-09-11T06:33:48.000Z</time>
      </trkpt>
      <trkpt lat="45.22091" lon="5.73389">
        <ele>1012.200012207</ele>
        <time>2021-09-11T06:33:50.000Z</time>
      </trkpt>
      <trkpt lat="45.22091" lon="5.73395">
        <ele>1012.799987793</ele>
        <time>2021-09-11T06:33:54.000Z</time>
      </trkpt>
      <trkpt lat="45.22091" lon="5.73397">
        <ele>1013.200012207</ele>
        <time>2021-09-11T06:33:56.000Z</time>
      </trkpt>
      <trkpt lat="45.22091" lon="5.734">
        <ele>1013.799987793</ele>
        <time>2021-09-11T06:34:00.000Z</time>
      </trkpt>
      <trkpt lat="45.22091" lon="5.73403">
        <ele>1014.4000244141</ele>
        <time>2021-09-11T06:34:02.000Z</time>
      </trkpt>
      <trkpt lat="45.2209" lon="5.73409">
        <ele>1015</ele>
        <time>2021-09-11T06:34:06.000Z</time>
      </trkpt>
      <trkpt lat="45.2209" lon="5.7341">
        <ele>1015.5999755859</ele>
        <time>2021-09-11T06:34:07.000Z</time>
      </trkpt>
      <trkpt lat="45.2209" lon="5.73413">
        <ele>1016</ele>
        <time>2021-09-11T06:34:09.000Z</time>
      </trkpt>
      <trkpt lat="45.2209" lon="5.73415">
        <ele>1016.5999755859</ele>
        <time>2021-09-11T06:34:11.000Z</time>
      </trkpt>
      <trkpt lat="45.22092" lon="5.73419">
        <ele>1017.200012207</ele>
        <time>2021-09-11T06:34:14.000Z</time>
      </trkpt>
      <trkpt lat="45.22092" lon="5.73419">
        <ele>1017.5999755859</ele>
        <time>2021-09-11T06:34:15.000Z</time>
      </trkpt>
      <trkpt lat="45.22093" lon="5.7342">
        <ele>1018</ele>
        <time>2021-09-11T06:34:16.000Z</time>
      </trkpt>
      <trkpt lat="45.22093" lon="5.73421">
        <ele>1018.4000244141</ele>
        <time>2021-09-11T06:34:17.000Z</time>
      </trkpt>
      <trkpt lat="45.22094" lon="5.73421">
        <ele>1018.5999755859</ele>
        <time>2021-09-11T06:34:18.000Z</time>
      </trkpt>
      <trkpt lat="45.22094" lon="5.73423">
        <ele>1019</ele>
        <time>2021-09-11T06:34:20.000Z</time>
      </trkpt>
      <trkpt lat="45.22094" lon="5.73424">
        <ele>1019.200012207</ele>
        <time>2021-09-11T06:34:21.000Z</time>
      </trkpt>
      <trkpt lat="45.22094" lon="5.73426">
        <ele>1019.4000244141</ele>
        <time>2021-09-11T06:34:23.000Z</time>
      </trkpt>
      <trkpt lat="45.22094" lon="5.73429">
        <ele>1020.200012207</ele>
        <time>2021-09-11T06:34:25.000Z</time>
      </trkpt>
      <trkpt lat="45.22094" lon="5.7343">
        <ele>1020.4000244141</ele>
        <time>2021-09-11T06:34:26.000Z</time>
      </trkpt>
      <trkpt lat="45.22095" lon="5.73432">
        <ele>1021.200012207</ele>
        <time>2021-09-11T06:34:27.000Z</time>
      </trkpt>
      <trkpt lat="45.22095" lon="5.73432">
        <ele>1021.5999755859</ele>
        <time>2021-09-11T06:34:28.000Z</time>
      </trkpt>
      <trkpt lat="45.22096" lon="5.73434">
        <ele>1022.799987793</ele>
        <time>2021-09-11T06:34:31.000Z</time>
      </trkpt>
      <trkpt lat="45.22096" lon="5.7344">
        <ele>1024</ele>
        <time>2021-09-11T06:34:35.000Z</time>
      </trkpt>
      <trkpt lat="45.22095" lon="5.73442">
        <ele>1024.4000244141</ele>
        <time>2021-09-11T06:34:36.000Z</time>
      </trkpt>
      <trkpt lat="45.22095" lon="5.73444">
        <ele>1024.5999755859</ele>
        <time>2021-09-11T06:34:37.000Z</time>
      </trkpt>
      <trkpt lat="45.22094" lon="5.73446">
        <ele>1025</ele>
        <time>2021-09-11T06:34:39.000Z</time>
      </trkpt>
      <trkpt lat="45.22094" lon="5.73447">
        <ele>1025.8000488281</ele>
        <time>2021-09-11T06:34:41.000Z</time>
      </trkpt>
      <trkpt lat="45.22092" lon="5.73449">
        <ele>1026.4000244141</ele>
        <time>2021-09-11T06:34:43.000Z</time>
      </trkpt>
      <trkpt lat="45.22091" lon="5.7345">
        <ele>1026.5999755859</ele>
        <time>2021-09-11T06:34:44.000Z</time>
      </trkpt>
      <trkpt lat="45.22085" lon="5.73451">
        <ele>1027.8000488281</ele>
        <time>2021-09-11T06:34:49.000Z</time>
      </trkpt>
      <trkpt lat="45.22083" lon="5.73452">
        <ele>1028.5999755859</ele>
        <time>2021-09-11T06:34:52.000Z</time>
      </trkpt>
      <trkpt lat="45.22083" lon="5.73453">
        <ele>1029.1999511719</ele>
        <time>2021-09-11T06:34:53.000Z</time>
      </trkpt>
      <trkpt lat="45.22081" lon="5.73455">
        <ele>1030</ele>
        <time>2021-09-11T06:34:57.000Z</time>
      </trkpt>
      <trkpt lat="45.22081" lon="5.73455">
        <ele>1030.1999511719</ele>
        <time>2021-09-11T06:34:58.000Z</time>
      </trkpt>
      <trkpt lat="45.22081" lon="5.73458">
        <ele>1031.5999755859</ele>
        <time>2021-09-11T06:35:01.000Z</time>
      </trkpt>
      <trkpt lat="45.22079" lon="5.73461">
        <ele>1032.5999755859</ele>
        <time>2021-09-11T06:35:04.000Z</time>
      </trkpt>
      <trkpt lat="45.22078" lon="5.73462">
        <ele>1032.8000488281</ele>
        <time>2021-09-11T06:35:05.000Z</time>
      </trkpt>
      <trkpt lat="45.22077" lon="5.73464">
        <ele>1032.8000488281</ele>
        <time>2021-09-11T06:35:06.000Z</time>
      </trkpt>
      <trkpt lat="45.22074" lon="5.73466">
        <ele>1033.4000244141</ele>
        <time>2021-09-11T06:35:08.000Z</time>
      </trkpt>
      <trkpt lat="45.22075" lon="5.73466">
        <ele>1033.8000488281</ele>
        <time>2021-09-11T06:35:09.000Z</time>
      </trkpt>
      <trkpt lat="45.22076" lon="5.73468">
        <ele>1034.4000244141</ele>
        <time>2021-09-11T06:35:11.000Z</time>
      </trkpt>
      <trkpt lat="45.22076" lon="5.73471">
        <ele>1035.1999511719</ele>
        <time>2021-09-11T06:35:13.000Z</time>
      </trkpt>
      <trkpt lat="45.22075" lon="5.73473">
        <ele>1035.4000244141</ele>
        <time>2021-09-11T06:35:14.000Z</time>
      </trkpt>
      <trkpt lat="45.22071" lon="5.7348">
        <ele>1036.4000244141</ele>
        <time>2021-09-11T06:35:19.000Z</time>
      </trkpt>
      <trkpt lat="45.22063" lon="5.73483">
        <ele>1037.8000488281</ele>
        <time>2021-09-11T06:35:25.000Z</time>
      </trkpt>
      <trkpt lat="45.22054" lon="5.7348">
        <ele>1038.8000488281</ele>
        <time>2021-09-11T06:35:31.000Z</time>
      </trkpt>
      <trkpt lat="45.22053" lon="5.73479">
        <ele>1039</ele>
        <time>2021-09-11T06:35:32.000Z</time>
      </trkpt>
      <trkpt lat="45.22048" lon="5.73475">
        <ele>1040</ele>
        <time>2021-09-11T06:35:36.000Z</time>
      </trkpt>
      <trkpt lat="45.22045" lon="5.73473">
        <ele>1040.4000244141</ele>
        <time>2021-09-11T06:35:38.000Z</time>
      </trkpt>
      <trkpt lat="45.2204" lon="5.73468">
        <ele>1041.4000244141</ele>
        <time>2021-09-11T06:35:42.000Z</time>
      </trkpt>
      <trkpt lat="45.22038" lon="5.73467">
        <ele>1041.5999755859</ele>
        <time>2021-09-11T06:35:43.000Z</time>
      </trkpt>
      <trkpt lat="45.22036" lon="5.73467">
        <ele>1042.1999511719</ele>
        <time>2021-09-11T06:35:45.000Z</time>
      </trkpt>
      <trkpt lat="45.22035" lon="5.73467">
        <ele>1042.5999755859</ele>
        <time>2021-09-11T06:35:46.000Z</time>
      </trkpt>
      <trkpt lat="45.22033" lon="5.73465">
        <ele>1043.1999511719</ele>
        <time>2021-09-11T06:35:48.000Z</time>
      </trkpt>
      <trkpt lat="45.22031" lon="5.73461">
        <ele>1043.8000488281</ele>
        <time>2021-09-11T06:35:51.000Z</time>
      </trkpt>
      <trkpt lat="45.22026" lon="5.73456">
        <ele>1044.8000488281</ele>
        <time>2021-09-11T06:35:55.000Z</time>
      </trkpt>
      <trkpt lat="45.22023" lon="5.73453">
        <ele>1045.1999511719</ele>
        <time>2021-09-11T06:35:57.000Z</time>
      </trkpt>
      <trkpt lat="45.22019" lon="5.73449">
        <ele>1046</ele>
        <time>2021-09-11T06:36:00.000Z</time>
      </trkpt>
      <trkpt lat="45.22014" lon="5.73446">
        <ele>1046.4000244141</ele>
        <time>2021-09-11T06:36:03.000Z</time>
      </trkpt>
      <trkpt lat="45.22012" lon="5.73445">
        <ele>1046.5999755859</ele>
        <time>2021-09-11T06:36:04.000Z</time>
      </trkpt>
      <trkpt lat="45.22007" lon="5.73445">
        <ele>1047</ele>
        <time>2021-09-11T06:36:07.000Z</time>
      </trkpt>
      <trkpt lat="45.22001" lon="5.73444">
        <ele>1046.8000488281</ele>
        <time>2021-09-11T06:36:10.000Z</time>
      </trkpt>
      <trkpt lat="45.21996" lon="5.73444">
        <ele>1046.1999511719</ele>
        <time>2021-09-11T06:36:13.000Z</time>
      </trkpt>
      <trkpt lat="45.21992" lon="5.73443">
        <ele>1045.8000488281</ele>
        <time>2021-09-11T06:36:15.000Z</time>
      </trkpt>
      <trkpt lat="45.21986" lon="5.73439">
        <ele>1044.5999755859</ele>
        <time>2021-09-11T06:36:19.000Z</time>
      </trkpt>
      <trkpt lat="45.2198" lon="5.73437">
        <ele>1044</ele>
        <time>2021-09-11T06:36:22.000Z</time>
      </trkpt>
      <trkpt lat="45.21979" lon="5.73436">
        <ele>1043.8000488281</ele>
        <time>2021-09-11T06:36:23.000Z</time>
      </trkpt>
      <trkpt lat="45.21975" lon="5.73434">
        <ele>1043.4000244141</ele>
        <time>2021-09-11T06:36:25.000Z</time>
      </trkpt>
      <trkpt lat="45.21973" lon="5.73432">
        <ele>1043.1999511719</ele>
        <time>2021-09-11T06:36:26.000Z</time>
      </trkpt>
      <trkpt lat="45.21956" lon="5.73433">
        <ele>1042.5999755859</ele>
        <time>2021-09-11T06:36:33.000Z</time>
      </trkpt>
      <trkpt lat="45.21954" lon="5.73434">
        <ele>1042.1999511719</ele>
        <time>2021-09-11T06:36:34.000Z</time>
      </trkpt>
      <trkpt lat="45.21946" lon="5.73433">
        <ele>1041.5999755859</ele>
        <time>2021-09-11T06:36:38.000Z</time>
      </trkpt>
      <trkpt lat="45.21944" lon="5.73431">
        <ele>1041</ele>
        <time>2021-09-11T06:36:40.000Z</time>
      </trkpt>
      <trkpt lat="45.21943" lon="5.73431">
        <ele>1040.8000488281</ele>
        <time>2021-09-11T06:36:41.000Z</time>
      </trkpt>
      <trkpt lat="45.2194" lon="5.73427">
        <ele>1040.5999755859</ele>
        <time>2021-09-11T06:36:43.000Z</time>
      </trkpt>
      <trkpt lat="45.21939" lon="5.73425">
        <ele>1040.4000244141</ele>
        <time>2021-09-11T06:36:44.000Z</time>
      </trkpt>
      <trkpt lat="45.21938" lon="5.73424">
        <ele>1040.1999511719</ele>
        <time>2021-09-11T06:36:45.000Z</time>
      </trkpt>
      <trkpt lat="45.21937" lon="5.73423">
        <ele>1039.8000488281</ele>
        <time>2021-09-11T06:36:46.000Z</time>
      </trkpt>
      <trkpt lat="45.21933" lon="5.73416">
        <ele>1039.1999511719</ele>
        <time>2021-09-11T06:36:49.000Z</time>
      </trkpt>
      <trkpt lat="45.21929" lon="5.73408">
        <ele>1038.8000488281</ele>
        <time>2021-09-11T06:36:52.000Z</time>
      </trkpt>
      <trkpt lat="45.21926" lon="5.73404">
        <ele>1038.8000488281</ele>
        <time>2021-09-11T06:36:54.000Z</time>
      </trkpt>
      <trkpt lat="45.21925" lon="5.73403">
        <ele>1039</ele>
        <time>2021-09-11T06:36:55.000Z</time>
      </trkpt>
      <trkpt lat="45.2192" lon="5.73399">
        <ele>1039.4000244141</ele>
        <time>2021-09-11T06:36:58.000Z</time>
      </trkpt>
      <trkpt lat="45.21919" lon="5.73397">
        <ele>1039.5999755859</ele>
        <time>2021-09-11T06:36:59.000Z</time>
      </trkpt>
      <trkpt lat="45.21917" lon="5.73396">
        <ele>1039.8000488281</ele>
        <time>2021-09-11T06:37:00.000Z</time>
      </trkpt>
      <trkpt lat="45.21909" lon="5.73392">
        <ele>1040</ele>
        <time>2021-09-11T06:37:04.000Z</time>
      </trkpt>
      <trkpt lat="45.21906" lon="5.73391">
        <ele>1040</ele>
        <time>2021-09-11T06:37:06.000Z</time>
      </trkpt>
      <trkpt lat="45.21902" lon="5.73388">
        <ele>1039.5999755859</ele>
        <time>2021-09-11T06:37:09.000Z</time>
      </trkpt>
      <trkpt lat="45.219" lon="5.73386">
        <ele>1039.5999755859</ele>
        <time>2021-09-11T06:37:10.000Z</time>
      </trkpt>
      <trkpt lat="45.21888" lon="5.73375">
        <ele>1038.5999755859</ele>
        <time>2021-09-11T06:37:18.000Z</time>
      </trkpt>
      <trkpt lat="45.21886" lon="5.73374">
        <ele>1038.5999755859</ele>
        <time>2021-09-11T06:37:19.000Z</time>
      </trkpt>
      <trkpt lat="45.21883" lon="5.73373">
        <ele>1039.1999511719</ele>
        <time>2021-09-11T06:37:22.000Z</time>
      </trkpt>
      <trkpt lat="45.21882" lon="5.73372">
        <ele>1039.1999511719</ele>
        <time>2021-09-11T06:37:23.000Z</time>
      </trkpt>
      <trkpt lat="45.2188" lon="5.73371">
        <ele>1039.5999755859</ele>
        <time>2021-09-11T06:37:24.000Z</time>
      </trkpt>
      <trkpt lat="45.21878" lon="5.7337">
        <ele>1039.8000488281</ele>
        <time>2021-09-11T06:37:25.000Z</time>
      </trkpt>
      <trkpt lat="45.21872" lon="5.73365">
        <ele>1041</ele>
        <time>2021-09-11T06:37:29.000Z</time>
      </trkpt>
      <trkpt lat="45.21869" lon="5.73362">
        <ele>1041.5999755859</ele>
        <time>2021-09-11T06:37:32.000Z</time>
      </trkpt>
      <trkpt lat="45.21868" lon="5.73362">
        <ele>1042.1999511719</ele>
        <time>2021-09-11T06:37:33.000Z</time>
      </trkpt>
      <trkpt lat="45.21865" lon="5.73361">
        <ele>1042.5999755859</ele>
        <time>2021-09-11T06:37:35.000Z</time>
      </trkpt>
      <trkpt lat="45.21861" lon="5.73359">
        <ele>1043.5999755859</ele>
        <time>2021-09-11T06:37:38.000Z</time>
      </trkpt>
      <trkpt lat="45.21858" lon="5.73356">
        <ele>1044.1999511719</ele>
        <time>2021-09-11T06:37:40.000Z</time>
      </trkpt>
      <trkpt lat="45.21856" lon="5.73354">
        <ele>1044.5999755859</ele>
        <time>2021-09-11T06:37:42.000Z</time>
      </trkpt>
      <trkpt lat="45.21854" lon="5.73353">
        <ele>1045.8000488281</ele>
        <time>2021-09-11T06:37:44.000Z</time>
      </trkpt>
      <trkpt lat="45.21853" lon="5.73352">
        <ele>1046.1999511719</ele>
        <time>2021-09-11T06:37:46.000Z</time>
      </trkpt>
      <trkpt lat="45.21852" lon="5.7335">
        <ele>1046.4000244141</ele>
        <time>2021-09-11T06:37:48.000Z</time>
      </trkpt>
      <trkpt lat="45.21851" lon="5.7335">
        <ele>1046.5999755859</ele>
        <time>2021-09-11T06:37:50.000Z</time>
      </trkpt>
      <trkpt lat="45.2185" lon="5.73349">
        <ele>1046.4000244141</ele>
        <time>2021-09-11T06:37:52.000Z</time>
      </trkpt>
      <trkpt lat="45.2185" lon="5.73349">
        <ele>1046.1999511719</ele>
        <time>2021-09-11T06:37:53.000Z</time>
      </trkpt>
      <trkpt lat="45.21849" lon="5.73349">
        <ele>1046</ele>
        <time>2021-09-11T06:37:55.000Z</time>
      </trkpt>
      <trkpt lat="45.21849" lon="5.73349">
        <ele>1046</ele>
        <time>2021-09-11T06:37:56.000Z</time>
      </trkpt>
      <trkpt lat="45.21849" lon="5.73347">
        <ele>1045.8000488281</ele>
        <time>2021-09-11T06:37:58.000Z</time>
      </trkpt>
      <trkpt lat="45.21852" lon="5.73346">
        <ele>1045.8000488281</ele>
        <time>2021-09-11T06:38:05.000Z</time>
      </trkpt>
      <trkpt lat="45.21852" lon="5.73346">
        <ele>1045.8000488281</ele>
        <time>2021-09-11T06:38:11.000Z</time>
      </trkpt>
      <trkpt lat="45.21852" lon="5.73346">
        <ele>1046</ele>
        <time>2021-09-11T06:38:16.000Z</time>
      </trkpt>
      <trkpt lat="45.21852" lon="5.73346">
        <ele>1046</ele>
        <time>2021-09-11T06:38:19.000Z</time>
      </trkpt>
      <trkpt lat="45.21851" lon="5.73346">
        <ele>1046</ele>
        <time>2021-09-11T06:38:21.000Z</time>
      </trkpt>
      <trkpt lat="45.21851" lon="5.73345">
        <ele>1046</ele>
        <time>2021-09-11T06:38:23.000Z</time>
      </trkpt>
      <trkpt lat="45.21851" lon="5.73345">
        <ele>1045.8000488281</ele>
        <time>2021-09-11T06:38:26.000Z</time>
      </trkpt>
      <trkpt lat="45.21848" lon="5.73349">
        <ele>1045.8000488281</ele>
        <time>2021-09-11T06:38:29.000Z</time>
      </trkpt>
      <trkpt lat="45.21848" lon="5.7335">
        <ele>1045.5999755859</ele>
        <time>2021-09-11T06:38:30.000Z</time>
      </trkpt>
      <trkpt lat="45.21846" lon="5.73357">
        <ele>1045.5999755859</ele>
        <time>2021-09-11T06:38:37.000Z</time>
      </trkpt>
      <trkpt lat="45.21846" lon="5.73358">
        <ele>1045.4000244141</ele>
        <time>2021-09-11T06:38:47.000Z</time>
      </trkpt>
      <trkpt lat="45.21847" lon="5.73358">
        <ele>1045.4000244141</ele>
        <time>2021-09-11T06:38:51.000Z</time>
      </trkpt>
      <trkpt lat="45.21847" lon="5.73358">
        <ele>1045.1999511719</ele>
        <time>2021-09-11T06:38:55.000Z</time>
      </trkpt>
      <trkpt lat="45.21847" lon="5.73358">
        <ele>1045.1999511719</ele>
        <time>2021-09-11T06:38:58.000Z</time>
      </trkpt>
      <trkpt lat="45.21847" lon="5.73359">
        <ele>1045</ele>
        <time>2021-09-11T06:39:12.000Z</time>
      </trkpt>
      <trkpt lat="45.21847" lon="5.73359">
        <ele>1045</ele>
        <time>2021-09-11T06:39:13.000Z</time>
      </trkpt>
      <trkpt lat="45.21846" lon="5.73353">
        <ele>1045</ele>
        <time>2021-09-11T06:39:27.000Z</time>
      </trkpt>
      <trkpt lat="45.21843" lon="5.73344">
        <ele>1045</ele>
        <time>2021-09-11T06:39:34.000Z</time>
      </trkpt>
      <trkpt lat="45.21839" lon="5.73339">
        <ele>1045</ele>
        <time>2021-09-11T06:39:37.000Z</time>
      </trkpt>
      <trkpt lat="45.21836" lon="5.73334">
        <ele>1045</ele>
        <time>2021-09-11T06:39:41.000Z</time>
      </trkpt>
      <trkpt lat="45.21836" lon="5.73332">
        <ele>1045</ele>
        <time>2021-09-11T06:39:42.000Z</time>
      </trkpt>
      <trkpt lat="45.21833" lon="5.7333">
        <ele>1044.5999755859</ele>
        <time>2021-09-11T06:39:44.000Z</time>
      </trkpt>
      <trkpt lat="45.2183" lon="5.73326">
        <ele>1044</ele>
        <time>2021-09-11T06:39:47.000Z</time>
      </trkpt>
      <trkpt lat="45.21829" lon="5.73324">
        <ele>1043.8000488281</ele>
        <time>2021-09-11T06:39:49.000Z</time>
      </trkpt>
      <trkpt lat="45.21829" lon="5.73323">
        <ele>1043.4000244141</ele>
        <time>2021-09-11T06:39:50.000Z</time>
      </trkpt>
      <trkpt lat="45.21826" lon="5.7332">
        <ele>1042.5999755859</ele>
        <time>2021-09-11T06:39:54.000Z</time>
      </trkpt>
      <trkpt lat="45.21825" lon="5.73319">
        <ele>1042.4000244141</ele>
        <time>2021-09-11T06:39:55.000Z</time>
      </trkpt>
      <trkpt lat="45.21825" lon="5.73318">
        <ele>1042.1999511719</ele>
        <time>2021-09-11T06:39:56.000Z</time>
      </trkpt>
      <trkpt lat="45.21823" lon="5.73316">
        <ele>1041.8000488281</ele>
        <time>2021-09-11T06:39:58.000Z</time>
      </trkpt>
      <trkpt lat="45.2182" lon="5.73313">
        <ele>1041.4000244141</ele>
        <time>2021-09-11T06:40:00.000Z</time>
      </trkpt>
      <trkpt lat="45.21818" lon="5.73313">
        <ele>1040.8000488281</ele>
        <time>2021-09-11T06:40:01.000Z</time>
      </trkpt>
      <trkpt lat="45.21812" lon="5.73308">
        <ele>1039.8000488281</ele>
        <time>2021-09-11T06:40:05.000Z</time>
      </trkpt>
      <trkpt lat="45.2181" lon="5.73306">
        <ele>1039.4000244141</ele>
        <time>2021-09-11T06:40:06.000Z</time>
      </trkpt>
      <trkpt lat="45.21806" lon="5.73301">
        <ele>1038.4000244141</ele>
        <time>2021-09-11T06:40:09.000Z</time>
      </trkpt>
      <trkpt lat="45.21801" lon="5.73296">
        <ele>1037.8000488281</ele>
        <time>2021-09-11T06:40:12.000Z</time>
      </trkpt>
      <trkpt lat="45.21799" lon="5.73293">
        <ele>1037.4000244141</ele>
        <time>2021-09-11T06:40:14.000Z</time>
      </trkpt>
      <trkpt lat="45.21796" lon="5.73287">
        <ele>1036.8000488281</ele>
        <time>2021-09-11T06:40:17.000Z</time>
      </trkpt>
      <trkpt lat="45.21794" lon="5.73286">
        <ele>1036.5999755859</ele>
        <time>2021-09-11T06:40:18.000Z</time>
      </trkpt>
      <trkpt lat="45.21791" lon="5.73285">
        <ele>1036.1999511719</ele>
        <time>2021-09-11T06:40:20.000Z</time>
      </trkpt>
      <trkpt lat="45.21789" lon="5.73283">
        <ele>1035.5999755859</ele>
        <time>2021-09-11T06:40:22.000Z</time>
      </trkpt>
      <trkpt lat="45.21788" lon="5.73281">
        <ele>1035.1999511719</ele>
        <time>2021-09-11T06:40:24.000Z</time>
      </trkpt>
      <trkpt lat="45.21787" lon="5.7328">
        <ele>1035</ele>
        <time>2021-09-11T06:40:25.000Z</time>
      </trkpt>
      <trkpt lat="45.21786" lon="5.73279">
        <ele>1035</ele>
        <time>2021-09-11T06:40:26.000Z</time>
      </trkpt>
      <trkpt lat="45.21783" lon="5.73275">
        <ele>1034.1999511719</ele>
        <time>2021-09-11T06:40:31.000Z</time>
      </trkpt>
      <trkpt lat="45.21781" lon="5.7327">
        <ele>1034</ele>
        <time>2021-09-11T06:40:33.000Z</time>
      </trkpt>
      <trkpt lat="45.21781" lon="5.73268">
        <ele>1033.8000488281</ele>
        <time>2021-09-11T06:40:34.000Z</time>
      </trkpt>
      <trkpt lat="45.21783" lon="5.73264">
        <ele>1033</ele>
        <time>2021-09-11T06:40:37.000Z</time>
      </trkpt>
      <trkpt lat="45.21784" lon="5.73262">
        <ele>1033</ele>
        <time>2021-09-11T06:40:38.000Z</time>
      </trkpt>
      <trkpt lat="45.21784" lon="5.73261">
        <ele>1032.5999755859</ele>
        <time>2021-09-11T06:40:39.000Z</time>
      </trkpt>
      <trkpt lat="45.21783" lon="5.73259">
        <ele>1032.1999511719</ele>
        <time>2021-09-11T06:40:40.000Z</time>
      </trkpt>
      <trkpt lat="45.21783" lon="5.73257">
        <ele>1031.5999755859</ele>
        <time>2021-09-11T06:40:42.000Z</time>
      </trkpt>
      <trkpt lat="45.21783" lon="5.73256">
        <ele>1031.1999511719</ele>
        <time>2021-09-11T06:40:43.000Z</time>
      </trkpt>
      <trkpt lat="45.2178" lon="5.73253">
        <ele>1030.4000244141</ele>
        <time>2021-09-11T06:40:46.000Z</time>
      </trkpt>
      <trkpt lat="45.21779" lon="5.73248">
        <ele>1029.4000244141</ele>
        <time>2021-09-11T06:40:50.000Z</time>
      </trkpt>
      <trkpt lat="45.21778" lon="5.73245">
        <ele>1028.8000488281</ele>
        <time>2021-09-11T06:40:52.000Z</time>
      </trkpt>
      <trkpt lat="45.21775" lon="5.73241">
        <ele>1028.1999511719</ele>
        <time>2021-09-11T06:40:55.000Z</time>
      </trkpt>
      <trkpt lat="45.21774" lon="5.7324">
        <ele>1028.1999511719</ele>
        <time>2021-09-11T06:40:56.000Z</time>
      </trkpt>
      <trkpt lat="45.21772" lon="5.73239">
        <ele>1028.1999511719</ele>
        <time>2021-09-11T06:40:58.000Z</time>
      </trkpt>
      <trkpt lat="45.21769" lon="5.73234">
        <ele>1028.4000244141</ele>
        <time>2021-09-11T06:41:01.000Z</time>
      </trkpt>
      <trkpt lat="45.21767" lon="5.73231">
        <ele>1028.1999511719</ele>
        <time>2021-09-11T06:41:03.000Z</time>
      </trkpt>
      <trkpt lat="45.21766" lon="5.73229">
        <ele>1028.1999511719</ele>
        <time>2021-09-11T06:41:04.000Z</time>
      </trkpt>
      <trkpt lat="45.21762" lon="5.73225">
        <ele>1027.8000488281</ele>
        <time>2021-09-11T06:41:08.000Z</time>
      </trkpt>
      <trkpt lat="45.2176" lon="5.7322">
        <ele>1027.1999511719</ele>
        <time>2021-09-11T06:41:11.000Z</time>
      </trkpt>
      <trkpt lat="45.21758" lon="5.73216">
        <ele>1025.8000488281</ele>
        <time>2021-09-11T06:41:15.000Z</time>
      </trkpt>
      <trkpt lat="45.21758" lon="5.73214">
        <ele>1025.1999511719</ele>
        <time>2021-09-11T06:41:17.000Z</time>
      </trkpt>
      <trkpt lat="45.21757" lon="5.73213">
        <ele>1025</ele>
        <time>2021-09-11T06:41:18.000Z</time>
      </trkpt>
      <trkpt lat="45.21756" lon="5.73212">
        <ele>1024.8000488281</ele>
        <time>2021-09-11T06:41:19.000Z</time>
      </trkpt>
      <trkpt lat="45.21755" lon="5.7321">
        <ele>1024.4000244141</ele>
        <time>2021-09-11T06:41:20.000Z</time>
      </trkpt>
      <trkpt lat="45.21748" lon="5.73205">
        <ele>1024.1999511719</ele>
        <time>2021-09-11T06:41:24.000Z</time>
      </trkpt>
      <trkpt lat="45.21745" lon="5.73205">
        <ele>1024.8000488281</ele>
        <time>2021-09-11T06:41:26.000Z</time>
      </trkpt>
      <trkpt lat="45.21743" lon="5.73208">
        <ele>1025.1999511719</ele>
        <time>2021-09-11T06:41:28.000Z</time>
      </trkpt>
      <trkpt lat="45.21741" lon="5.73207">
        <ele>1025.1999511719</ele>
        <time>2021-09-11T06:41:29.000Z</time>
      </trkpt>
      <trkpt lat="45.21738" lon="5.73208">
        <ele>1025.1999511719</ele>
        <time>2021-09-11T06:41:31.000Z</time>
      </trkpt>
      <trkpt lat="45.21736" lon="5.73212">
        <ele>1025</ele>
        <time>2021-09-11T06:41:34.000Z</time>
      </trkpt>
      <trkpt lat="45.21732" lon="5.73217">
        <ele>1024.1999511719</ele>
        <time>2021-09-11T06:41:40.000Z</time>
      </trkpt>
      <trkpt lat="45.21731" lon="5.73218">
        <ele>1024</ele>
        <time>2021-09-11T06:41:41.000Z</time>
      </trkpt>
      <trkpt lat="45.2173" lon="5.7322">
        <ele>1023.200012207</ele>
        <time>2021-09-11T06:41:43.000Z</time>
      </trkpt>
      <trkpt lat="45.21728" lon="5.7322">
        <ele>1022.5999755859</ele>
        <time>2021-09-11T06:41:45.000Z</time>
      </trkpt>
      <trkpt lat="45.21726" lon="5.7322">
        <ele>1021.799987793</ele>
        <time>2021-09-11T06:41:47.000Z</time>
      </trkpt>
      <trkpt lat="45.21724" lon="5.7322">
        <ele>1021.4000244141</ele>
        <time>2021-09-11T06:41:49.000Z</time>
      </trkpt>
      <trkpt lat="45.21722" lon="5.73218">
        <ele>1020.5999755859</ele>
        <time>2021-09-11T06:41:52.000Z</time>
      </trkpt>
      <trkpt lat="45.2172" lon="5.73217">
        <ele>1020.4000244141</ele>
        <time>2021-09-11T06:41:53.000Z</time>
      </trkpt>
      <trkpt lat="45.21713" lon="5.7321">
        <ele>1019.5999755859</ele>
        <time>2021-09-11T06:41:57.000Z</time>
      </trkpt>
      <trkpt lat="45.21705" lon="5.73197">
        <ele>1019</ele>
        <time>2021-09-11T06:42:03.000Z</time>
      </trkpt>
      <trkpt lat="45.21702" lon="5.73194">
        <ele>1018.799987793</ele>
        <time>2021-09-11T06:42:05.000Z</time>
      </trkpt>
      <trkpt lat="45.217" lon="5.73193">
        <ele>1018.5999755859</ele>
        <time>2021-09-11T06:42:06.000Z</time>
      </trkpt>
      <trkpt lat="45.21696" lon="5.73187">
        <ele>1018.200012207</ele>
        <time>2021-09-11T06:42:09.000Z</time>
      </trkpt>
      <trkpt lat="45.21694" lon="5.73182">
        <ele>1017.5999755859</ele>
        <time>2021-09-11T06:42:12.000Z</time>
      </trkpt>
      <trkpt lat="45.21693" lon="5.73181">
        <ele>1017.200012207</ele>
        <time>2021-09-11T06:42:13.000Z</time>
      </trkpt>
      <trkpt lat="45.21692" lon="5.73179">
        <ele>1017</ele>
        <time>2021-09-11T06:42:14.000Z</time>
      </trkpt>
      <trkpt lat="45.2169" lon="5.73176">
        <ele>1016.4000244141</ele>
        <time>2021-09-11T06:42:16.000Z</time>
      </trkpt>
      <trkpt lat="45.21688" lon="5.73172">
        <ele>1015.4000244141</ele>
        <time>2021-09-11T06:42:19.000Z</time>
      </trkpt>
      <trkpt lat="45.21687" lon="5.7317">
        <ele>1015</ele>
        <time>2021-09-11T06:42:20.000Z</time>
      </trkpt>
      <trkpt lat="45.21686" lon="5.73167">
        <ele>1014</ele>
        <time>2021-09-11T06:42:23.000Z</time>
      </trkpt>
      <trkpt lat="45.21685" lon="5.73166">
        <ele>1013.799987793</ele>
        <time>2021-09-11T06:42:24.000Z</time>
      </trkpt>
      <trkpt lat="45.21684" lon="5.73165">
        <ele>1013.799987793</ele>
        <time>2021-09-11T06:42:25.000Z</time>
      </trkpt>
      <trkpt lat="45.21683" lon="5.73164">
        <ele>1013.200012207</ele>
        <time>2021-09-11T06:42:26.000Z</time>
      </trkpt>
      <trkpt lat="45.21681" lon="5.73161">
        <ele>1012.5999755859</ele>
        <time>2021-09-11T06:42:28.000Z</time>
      </trkpt>
      <trkpt lat="45.21679" lon="5.73155">
        <ele>1011.200012207</ele>
        <time>2021-09-11T06:42:31.000Z</time>
      </trkpt>
      <trkpt lat="45.21678" lon="5.73152">
        <ele>1010.200012207</ele>
        <time>2021-09-11T06:42:34.000Z</time>
      </trkpt>
      <trkpt lat="45.21678" lon="5.73151">
        <ele>1010</ele>
        <time>2021-09-11T06:42:35.000Z</time>
      </trkpt>
      <trkpt lat="45.21676" lon="5.73148">
        <ele>1008.799987793</ele>
        <time>2021-09-11T06:42:38.000Z</time>
      </trkpt>
      <trkpt lat="45.21675" lon="5.73144">
        <ele>1007.5999755859</ele>
        <time>2021-09-11T06:42:41.000Z</time>
      </trkpt>
      <trkpt lat="45.21674" lon="5.73142">
        <ele>1007.200012207</ele>
        <time>2021-09-11T06:42:42.000Z</time>
      </trkpt>
      <trkpt lat="45.21673" lon="5.73142">
        <ele>1006.799987793</ele>
        <time>2021-09-11T06:42:43.000Z</time>
      </trkpt>
      <trkpt lat="45.21673" lon="5.73142">
        <ele>1006.5999755859</ele>
        <time>2021-09-11T06:42:44.000Z</time>
      </trkpt>
      <trkpt lat="45.21671" lon="5.73142">
        <ele>1006</ele>
        <time>2021-09-11T06:42:46.000Z</time>
      </trkpt>
      <trkpt lat="45.2167" lon="5.73142">
        <ele>1005.4000244141</ele>
        <time>2021-09-11T06:42:47.000Z</time>
      </trkpt>
      <trkpt lat="45.21666" lon="5.73141">
        <ele>1004</ele>
        <time>2021-09-11T06:42:51.000Z</time>
      </trkpt>
      <trkpt lat="45.21664" lon="5.73139">
        <ele>1003.4000244141</ele>
        <time>2021-09-11T06:42:53.000Z</time>
      </trkpt>
      <trkpt lat="45.21663" lon="5.73139">
        <ele>1002.799987793</ele>
        <time>2021-09-11T06:42:55.000Z</time>
      </trkpt>
      <trkpt lat="45.2166" lon="5.73138">
        <ele>1002.200012207</ele>
        <time>2021-09-11T06:42:57.000Z</time>
      </trkpt>
      <trkpt lat="45.21657" lon="5.73138">
        <ele>1001.4000244141</ele>
        <time>2021-09-11T06:43:00.000Z</time>
      </trkpt>
      <trkpt lat="45.21654" lon="5.73138">
        <ele>1000.4000244141</ele>
        <time>2021-09-11T06:43:02.000Z</time>
      </trkpt>
      <trkpt lat="45.21653" lon="5.73137">
        <ele>1000.200012207</ele>
        <time>2021-09-11T06:43:03.000Z</time>
      </trkpt>
      <trkpt lat="45.21649" lon="5.73137">
        <ele>999.79998779297</ele>
        <time>2021-09-11T06:43:05.000Z</time>
      </trkpt>
      <trkpt lat="45.21646" lon="5.73137">
        <ele>998.79998779297</ele>
        <time>2021-09-11T06:43:07.000Z</time>
      </trkpt>
      <trkpt lat="45.21644" lon="5.73137">
        <ele>997.79998779297</ele>
        <time>2021-09-11T06:43:09.000Z</time>
      </trkpt>
      <trkpt lat="45.21641" lon="5.73136">
        <ele>997.20001220703</ele>
        <time>2021-09-11T06:43:11.000Z</time>
      </trkpt>
      <trkpt lat="45.21639" lon="5.73137">
        <ele>996.59997558594</ele>
        <time>2021-09-11T06:43:13.000Z</time>
      </trkpt>
      <trkpt lat="45.21638" lon="5.73137">
        <ele>996.20001220703</ele>
        <time>2021-09-11T06:43:14.000Z</time>
      </trkpt>
      <trkpt lat="45.21635" lon="5.73138">
        <ele>995.40002441406</ele>
        <time>2021-09-11T06:43:16.000Z</time>
      </trkpt>
      <trkpt lat="45.2163" lon="5.73139">
        <ele>994.59997558594</ele>
        <time>2021-09-11T06:43:18.000Z</time>
      </trkpt>
      <trkpt lat="45.21628" lon="5.73139">
        <ele>994.20001220703</ele>
        <time>2021-09-11T06:43:19.000Z</time>
      </trkpt>
      <trkpt lat="45.21623" lon="5.73138">
        <ele>993</ele>
        <time>2021-09-11T06:43:21.000Z</time>
      </trkpt>
      <trkpt lat="45.21615" lon="5.73134">
        <ele>992</ele>
        <time>2021-09-11T06:43:24.000Z</time>
      </trkpt>
      <trkpt lat="45.2161" lon="5.73131">
        <ele>991</ele>
        <time>2021-09-11T06:43:26.000Z</time>
      </trkpt>
      <trkpt lat="45.21608" lon="5.73131">
        <ele>990.59997558594</ele>
        <time>2021-09-11T06:43:27.000Z</time>
      </trkpt>
      <trkpt lat="45.21603" lon="5.73128">
        <ele>989.20001220703</ele>
        <time>2021-09-11T06:43:30.000Z</time>
      </trkpt>
      <trkpt lat="45.21601" lon="5.73126">
        <ele>988.79998779297</ele>
        <time>2021-09-11T06:43:31.000Z</time>
      </trkpt>
      <trkpt lat="45.21597" lon="5.73123">
        <ele>988</ele>
        <time>2021-09-11T06:43:33.000Z</time>
      </trkpt>
      <trkpt lat="45.21591" lon="5.7312">
        <ele>987</ele>
        <time>2021-09-11T06:43:36.000Z</time>
      </trkpt>
      <trkpt lat="45.21589" lon="5.73121">
        <ele>986.59997558594</ele>
        <time>2021-09-11T06:43:37.000Z</time>
      </trkpt>
      <trkpt lat="45.21588" lon="5.73122">
        <ele>986.20001220703</ele>
        <time>2021-09-11T06:43:38.000Z</time>
      </trkpt>
      <trkpt lat="45.21587" lon="5.73123">
        <ele>985.79998779297</ele>
        <time>2021-09-11T06:43:39.000Z</time>
      </trkpt>
      <trkpt lat="45.21585" lon="5.73126">
        <ele>984.59997558594</ele>
        <time>2021-09-11T06:43:42.000Z</time>
      </trkpt>
      <trkpt lat="45.21584" lon="5.73126">
        <ele>984</ele>
        <time>2021-09-11T06:43:43.000Z</time>
      </trkpt>
      <trkpt lat="45.21583" lon="5.73129">
        <ele>982.79998779297</ele>
        <time>2021-09-11T06:43:45.000Z</time>
      </trkpt>
      <trkpt lat="45.21583" lon="5.73132">
        <ele>981.79998779297</ele>
        <time>2021-09-11T06:43:47.000Z</time>
      </trkpt>
      <trkpt lat="45.21583" lon="5.73134">
        <ele>981.59997558594</ele>
        <time>2021-09-11T06:43:48.000Z</time>
      </trkpt>
      <trkpt lat="45.21583" lon="5.7314">
        <ele>980.40002441406</ele>
        <time>2021-09-11T06:43:51.000Z</time>
      </trkpt>
      <trkpt lat="45.2158" lon="5.73144">
        <ele>979.20001220703</ele>
        <time>2021-09-11T06:43:54.000Z</time>
      </trkpt>
      <trkpt lat="45.21579" lon="5.73144">
        <ele>978.79998779297</ele>
        <time>2021-09-11T06:43:55.000Z</time>
      </trkpt>
      <trkpt lat="45.21578" lon="5.73145">
        <ele>978.20001220703</ele>
        <time>2021-09-11T06:43:57.000Z</time>
      </trkpt>
      <trkpt lat="45.21576" lon="5.73148">
        <ele>976.79998779297</ele>
        <time>2021-09-11T06:44:01.000Z</time>
      </trkpt>
      <trkpt lat="45.21576" lon="5.7315">
        <ele>976.40002441406</ele>
        <time>2021-09-11T06:44:02.000Z</time>
      </trkpt>
      <trkpt lat="45.21575" lon="5.73152">
        <ele>975.40002441406</ele>
        <time>2021-09-11T06:44:04.000Z</time>
      </trkpt>
      <trkpt lat="45.21575" lon="5.73156">
        <ele>974.20001220703</ele>
        <time>2021-09-11T06:44:07.000Z</time>
      </trkpt>
      <trkpt lat="45.21576" lon="5.73157">
        <ele>973.79998779297</ele>
        <time>2021-09-11T06:44:08.000Z</time>
      </trkpt>
      <trkpt lat="45.21576" lon="5.73158">
        <ele>973.40002441406</ele>
        <time>2021-09-11T06:44:09.000Z</time>
      </trkpt>
      <trkpt lat="45.21575" lon="5.73159">
        <ele>973</ele>
        <time>2021-09-11T06:44:10.000Z</time>
      </trkpt>
      <trkpt lat="45.21575" lon="5.7316">
        <ele>972.59997558594</ele>
        <time>2021-09-11T06:44:11.000Z</time>
      </trkpt>
      <trkpt lat="45.21573" lon="5.73159">
        <ele>972</ele>
        <time>2021-09-11T06:44:13.000Z</time>
      </trkpt>
      <trkpt lat="45.21573" lon="5.7316">
        <ele>971.59997558594</ele>
        <time>2021-09-11T06:44:14.000Z</time>
      </trkpt>
      <trkpt lat="45.21572" lon="5.7316">
        <ele>971</ele>
        <time>2021-09-11T06:44:15.000Z</time>
      </trkpt>
      <trkpt lat="45.21572" lon="5.73161">
        <ele>970.59997558594</ele>
        <time>2021-09-11T06:44:16.000Z</time>
      </trkpt>
      <trkpt lat="45.21571" lon="5.73164">
        <ele>969.79998779297</ele>
        <time>2021-09-11T06:44:18.000Z</time>
      </trkpt>
      <trkpt lat="45.21571" lon="5.73166">
        <ele>969.59997558594</ele>
        <time>2021-09-11T06:44:19.000Z</time>
      </trkpt>
      <trkpt lat="45.21571" lon="5.7317">
        <ele>968.59997558594</ele>
        <time>2021-09-11T06:44:21.000Z</time>
      </trkpt>
      <trkpt lat="45.21572" lon="5.73172">
        <ele>967.40002441406</ele>
        <time>2021-09-11T06:44:24.000Z</time>
      </trkpt>
      <trkpt lat="45.21573" lon="5.73176">
        <ele>966.79998779297</ele>
        <time>2021-09-11T06:44:27.000Z</time>
      </trkpt>
      <trkpt lat="45.21573" lon="5.73177">
        <ele>966.20001220703</ele>
        <time>2021-09-11T06:44:28.000Z</time>
      </trkpt>
      <trkpt lat="45.21574" lon="5.73179">
        <ele>965.40002441406</ele>
        <time>2021-09-11T06:44:30.000Z</time>
      </trkpt>
      <trkpt lat="45.21575" lon="5.73181">
        <ele>965</ele>
        <time>2021-09-11T06:44:31.000Z</time>
      </trkpt>
      <trkpt lat="45.21581" lon="5.73187">
        <ele>963.59997558594</ele>
        <time>2021-09-11T06:44:35.000Z</time>
      </trkpt>
      <trkpt lat="45.21583" lon="5.7319">
        <ele>963</ele>
        <time>2021-09-11T06:44:36.000Z</time>
      </trkpt>
      <trkpt lat="45.21586" lon="5.73196">
        <ele>962.20001220703</ele>
        <time>2021-09-11T06:44:38.000Z</time>
      </trkpt>
      <trkpt lat="45.21591" lon="5.73204">
        <ele>961.40002441406</ele>
        <time>2021-09-11T06:44:41.000Z</time>
      </trkpt>
      <trkpt lat="45.21593" lon="5.73207">
        <ele>961</ele>
        <time>2021-09-11T06:44:42.000Z</time>
      </trkpt>
      <trkpt lat="45.21598" lon="5.73213">
        <ele>959.79998779297</ele>
        <time>2021-09-11T06:44:45.000Z</time>
      </trkpt>
      <trkpt lat="45.21603" lon="5.73218">
        <ele>959</ele>
        <time>2021-09-11T06:44:48.000Z</time>
      </trkpt>
      <trkpt lat="45.21605" lon="5.7322">
        <ele>958.59997558594</ele>
        <time>2021-09-11T06:44:49.000Z</time>
      </trkpt>
      <trkpt lat="45.21608" lon="5.73226">
        <ele>957.59997558594</ele>
        <time>2021-09-11T06:44:52.000Z</time>
      </trkpt>
      <trkpt lat="45.21609" lon="5.73228">
        <ele>957</ele>
        <time>2021-09-11T06:44:54.000Z</time>
      </trkpt>
      <trkpt lat="45.21611" lon="5.73229">
        <ele>956.40002441406</ele>
        <time>2021-09-11T06:44:56.000Z</time>
      </trkpt>
      <trkpt lat="45.21613" lon="5.73234">
        <ele>955</ele>
        <time>2021-09-11T06:45:00.000Z</time>
      </trkpt>
      <trkpt lat="45.21613" lon="5.73235">
        <ele>954.59997558594</ele>
        <time>2021-09-11T06:45:01.000Z</time>
      </trkpt>
      <trkpt lat="45.21614" lon="5.73237">
        <ele>954.20001220703</ele>
        <time>2021-09-11T06:45:03.000Z</time>
      </trkpt>
      <trkpt lat="45.21615" lon="5.73239">
        <ele>953.59997558594</ele>
        <time>2021-09-11T06:45:04.000Z</time>
      </trkpt>
      <trkpt lat="45.21616" lon="5.7324">
        <ele>953.20001220703</ele>
        <time>2021-09-11T06:45:05.000Z</time>
      </trkpt>
      <trkpt lat="45.21616" lon="5.73242">
        <ele>952.79998779297</ele>
        <time>2021-09-11T06:45:06.000Z</time>
      </trkpt>
      <trkpt lat="45.21617" lon="5.73243">
        <ele>952.40002441406</ele>
        <time>2021-09-11T06:45:07.000Z</time>
      </trkpt>
      <trkpt lat="45.2162" lon="5.73249">
        <ele>951.40002441406</ele>
        <time>2021-09-11T06:45:10.000Z</time>
      </trkpt>
      <trkpt lat="45.21624" lon="5.73256">
        <ele>950.59997558594</ele>
        <time>2021-09-11T06:45:13.000Z</time>
      </trkpt>
      <trkpt lat="45.21625" lon="5.73258">
        <ele>950.20001220703</ele>
        <time>2021-09-11T06:45:14.000Z</time>
      </trkpt>
      <trkpt lat="45.21628" lon="5.73263">
        <ele>949.59997558594</ele>
        <time>2021-09-11T06:45:16.000Z</time>
      </trkpt>
      <trkpt lat="45.2163" lon="5.73265">
        <ele>948.79998779297</ele>
        <time>2021-09-11T06:45:17.000Z</time>
      </trkpt>
      <trkpt lat="45.21632" lon="5.73268">
        <ele>948.40002441406</ele>
        <time>2021-09-11T06:45:18.000Z</time>
      </trkpt>
      <trkpt lat="45.21635" lon="5.73272">
        <ele>947.79998779297</ele>
        <time>2021-09-11T06:45:20.000Z</time>
      </trkpt>
      <trkpt lat="45.2164" lon="5.73279">
        <ele>946.59997558594</ele>
        <time>2021-09-11T06:45:23.000Z</time>
      </trkpt>
      <trkpt lat="45.21644" lon="5.73286">
        <ele>946</ele>
        <time>2021-09-11T06:45:26.000Z</time>
      </trkpt>
      <trkpt lat="45.21646" lon="5.73291">
        <ele>945.40002441406</ele>
        <time>2021-09-11T06:45:28.000Z</time>
      </trkpt>
      <trkpt lat="45.21649" lon="5.73301">
        <ele>944.20001220703</ele>
        <time>2021-09-11T06:45:32.000Z</time>
      </trkpt>
      <trkpt lat="45.21649" lon="5.73303">
        <ele>944</ele>
        <time>2021-09-11T06:45:33.000Z</time>
      </trkpt>
      <trkpt lat="45.21649" lon="5.73306">
        <ele>943.40002441406</ele>
        <time>2021-09-11T06:45:35.000Z</time>
      </trkpt>
      <trkpt lat="45.21649" lon="5.73307">
        <ele>943</ele>
        <time>2021-09-11T06:45:36.000Z</time>
      </trkpt>
      <trkpt lat="45.21648" lon="5.73311">
        <ele>942.20001220703</ele>
        <time>2021-09-11T06:45:38.000Z</time>
      </trkpt>
      <trkpt lat="45.21649" lon="5.73313">
        <ele>941.59997558594</ele>
        <time>2021-09-11T06:45:39.000Z</time>
      </trkpt>
      <trkpt lat="45.21652" lon="5.7332">
        <ele>940.40002441406</ele>
        <time>2021-09-11T06:45:42.000Z</time>
      </trkpt>
      <trkpt lat="45.21653" lon="5.73323">
        <ele>940</ele>
        <time>2021-09-11T06:45:44.000Z</time>
      </trkpt>
      <trkpt lat="45.21652" lon="5.73328">
        <ele>939.40002441406</ele>
        <time>2021-09-11T06:45:46.000Z</time>
      </trkpt>
      <trkpt lat="45.21653" lon="5.73333">
        <ele>938</ele>
        <time>2021-09-11T06:45:49.000Z</time>
      </trkpt>
      <trkpt lat="45.21652" lon="5.73335">
        <ele>937.59997558594</ele>
        <time>2021-09-11T06:45:50.000Z</time>
      </trkpt>
      <trkpt lat="45.21651" lon="5.73336">
        <ele>937.20001220703</ele>
        <time>2021-09-11T06:45:51.000Z</time>
      </trkpt>
      <trkpt lat="45.21649" lon="5.73336">
        <ele>936.40002441406</ele>
        <time>2021-09-11T06:45:53.000Z</time>
      </trkpt>
      <trkpt lat="45.21646" lon="5.73329">
        <ele>935.79998779297</ele>
        <time>2021-09-11T06:45:56.000Z</time>
      </trkpt>
      <trkpt lat="45.21645" lon="5.73328">
        <ele>935.59997558594</ele>
        <time>2021-09-11T06:45:57.000Z</time>
      </trkpt>
      <trkpt lat="45.21643" lon="5.73326">
        <ele>935.40002441406</ele>
        <time>2021-09-11T06:45:58.000Z</time>
      </trkpt>
      <trkpt lat="45.21638" lon="5.73322">
        <ele>934.59997558594</ele>
        <time>2021-09-11T06:46:01.000Z</time>
      </trkpt>
      <trkpt lat="45.21637" lon="5.73321">
        <ele>934.40002441406</ele>
        <time>2021-09-11T06:46:02.000Z</time>
      </trkpt>
      <trkpt lat="45.21632" lon="5.73314">
        <ele>933.20001220703</ele>
        <time>2021-09-11T06:46:06.000Z</time>
      </trkpt>
      <trkpt lat="45.21631" lon="5.73312">
        <ele>932.79998779297</ele>
        <time>2021-09-11T06:46:07.000Z</time>
      </trkpt>
      <trkpt lat="45.21628" lon="5.73308">
        <ele>932</ele>
        <time>2021-09-11T06:46:10.000Z</time>
      </trkpt>
      <trkpt lat="45.21623" lon="5.73302">
        <ele>931.20001220703</ele>
        <time>2021-09-11T06:46:14.000Z</time>
      </trkpt>
      <trkpt lat="45.21621" lon="5.73301">
        <ele>931</ele>
        <time>2021-09-11T06:46:15.000Z</time>
      </trkpt>
      <trkpt lat="45.21614" lon="5.73296">
        <ele>929.79998779297</ele>
        <time>2021-09-11T06:46:20.000Z</time>
      </trkpt>
      <trkpt lat="45.21611" lon="5.73293">
        <ele>929.20001220703</ele>
        <time>2021-09-11T06:46:23.000Z</time>
      </trkpt>
      <trkpt lat="45.21606" lon="5.73291">
        <ele>928.59997558594</ele>
        <time>2021-09-11T06:46:26.000Z</time>
      </trkpt>
      <trkpt lat="45.21602" lon="5.73289">
        <ele>927.40002441406</ele>
        <time>2021-09-11T06:46:29.000Z</time>
      </trkpt>
      <trkpt lat="45.216" lon="5.73288">
        <ele>927.20001220703</ele>
        <time>2021-09-11T06:46:30.000Z</time>
      </trkpt>
      <trkpt lat="45.21594" lon="5.73284">
        <ele>926.40002441406</ele>
        <time>2021-09-11T06:46:34.000Z</time>
      </trkpt>
      <trkpt lat="45.2159" lon="5.73282">
        <ele>925.79998779297</ele>
        <time>2021-09-11T06:46:37.000Z</time>
      </trkpt>
      <trkpt lat="45.21587" lon="5.73281">
        <ele>925.20001220703</ele>
        <time>2021-09-11T06:46:39.000Z</time>
      </trkpt>
      <trkpt lat="45.21581" lon="5.73279">
        <ele>924.20001220703</ele>
        <time>2021-09-11T06:46:43.000Z</time>
      </trkpt>
      <trkpt lat="45.21577" lon="5.73276">
        <ele>923</ele>
        <time>2021-09-11T06:46:47.000Z</time>
      </trkpt>
      <trkpt lat="45.21569" lon="5.73276">
        <ele>921.59997558594</ele>
        <time>2021-09-11T06:46:52.000Z</time>
      </trkpt>
      <trkpt lat="45.21565" lon="5.73277">
        <ele>920.20001220703</ele>
        <time>2021-09-11T06:46:55.000Z</time>
      </trkpt>
      <trkpt lat="45.21563" lon="5.73276">
        <ele>920</ele>
        <time>2021-09-11T06:46:56.000Z</time>
      </trkpt>
      <trkpt lat="45.21561" lon="5.73276">
        <ele>919.79998779297</ele>
        <time>2021-09-11T06:46:57.000Z</time>
      </trkpt>
      <trkpt lat="45.2156" lon="5.73275">
        <ele>919.20001220703</ele>
        <time>2021-09-11T06:46:58.000Z</time>
      </trkpt>
      <trkpt lat="45.21558" lon="5.73275">
        <ele>919</ele>
        <time>2021-09-11T06:46:59.000Z</time>
      </trkpt>
      <trkpt lat="45.21554" lon="5.73275">
        <ele>918</ele>
        <time>2021-09-11T06:47:01.000Z</time>
      </trkpt>
      <trkpt lat="45.21549" lon="5.73275">
        <ele>917.40002441406</ele>
        <time>2021-09-11T06:47:03.000Z</time>
      </trkpt>
      <trkpt lat="45.21547" lon="5.73274">
        <ele>916.79998779297</ele>
        <time>2021-09-11T06:47:04.000Z</time>
      </trkpt>
      <trkpt lat="45.21542" lon="5.73275">
        <ele>915.79998779297</ele>
        <time>2021-09-11T06:47:07.000Z</time>
      </trkpt>
      <trkpt lat="45.2154" lon="5.73274">
        <ele>915</ele>
        <time>2021-09-11T06:47:08.000Z</time>
      </trkpt>
      <trkpt lat="45.21539" lon="5.73274">
        <ele>914.40002441406</ele>
        <time>2021-09-11T06:47:09.000Z</time>
      </trkpt>
      <trkpt lat="45.21538" lon="5.73274">
        <ele>913.79998779297</ele>
        <time>2021-09-11T06:47:10.000Z</time>
      </trkpt>
      <trkpt lat="45.21538" lon="5.73274">
        <ele>913.40002441406</ele>
        <time>2021-09-11T06:47:11.000Z</time>
      </trkpt>
      <trkpt lat="45.2154" lon="5.73275">
        <ele>912.79998779297</ele>
        <time>2021-09-11T06:47:13.000Z</time>
      </trkpt>
      <trkpt lat="45.2154" lon="5.73276">
        <ele>912.40002441406</ele>
        <time>2021-09-11T06:47:14.000Z</time>
      </trkpt>
      <trkpt lat="45.21543" lon="5.73278">
        <ele>911.20001220703</ele>
        <time>2021-09-11T06:47:17.000Z</time>
      </trkpt>
      <trkpt lat="45.21546" lon="5.73281">
        <ele>909.79998779297</ele>
        <time>2021-09-11T06:47:20.000Z</time>
      </trkpt>
      <trkpt lat="45.2155" lon="5.73287">
        <ele>908.40002441406</ele>
        <time>2021-09-11T06:47:23.000Z</time>
      </trkpt>
      <trkpt lat="45.21555" lon="5.7329">
        <ele>906.79998779297</ele>
        <time>2021-09-11T06:47:27.000Z</time>
      </trkpt>
      <trkpt lat="45.21555" lon="5.73291">
        <ele>906.20001220703</ele>
        <time>2021-09-11T06:47:28.000Z</time>
      </trkpt>
      <trkpt lat="45.21556" lon="5.73294">
        <ele>905.20001220703</ele>
        <time>2021-09-11T06:47:30.000Z</time>
      </trkpt>
      <trkpt lat="45.21557" lon="5.73296">
        <ele>904.79998779297</ele>
        <time>2021-09-11T06:47:31.000Z</time>
      </trkpt>
      <trkpt lat="45.21559" lon="5.73297">
        <ele>904.20001220703</ele>
        <time>2021-09-11T06:47:33.000Z</time>
      </trkpt>
      <trkpt lat="45.21559" lon="5.73299">
        <ele>904</ele>
        <time>2021-09-11T06:47:34.000Z</time>
      </trkpt>
      <trkpt lat="45.21559" lon="5.73301">
        <ele>903</ele>
        <time>2021-09-11T06:47:36.000Z</time>
      </trkpt>
      <trkpt lat="45.2156" lon="5.73302">
        <ele>902.59997558594</ele>
        <time>2021-09-11T06:47:37.000Z</time>
      </trkpt>
      <trkpt lat="45.21561" lon="5.73304">
        <ele>902.20001220703</ele>
        <time>2021-09-11T06:47:38.000Z</time>
      </trkpt>
      <trkpt lat="45.21561" lon="5.73305">
        <ele>901.79998779297</ele>
        <time>2021-09-11T06:47:39.000Z</time>
      </trkpt>
      <trkpt lat="45.21564" lon="5.7331">
        <ele>900.59997558594</ele>
        <time>2021-09-11T06:47:42.000Z</time>
      </trkpt>
      <trkpt lat="45.21565" lon="5.73313">
        <ele>899.40002441406</ele>
        <time>2021-09-11T06:47:45.000Z</time>
      </trkpt>
      <trkpt lat="45.21568" lon="5.73318">
        <ele>898.40002441406</ele>
        <time>2021-09-11T06:47:49.000Z</time>
      </trkpt>
      <trkpt lat="45.2157" lon="5.73321">
        <ele>898.20001220703</ele>
        <time>2021-09-11T06:47:51.000Z</time>
      </trkpt>
      <trkpt lat="45.21575" lon="5.73328">
        <ele>897.20001220703</ele>
        <time>2021-09-11T06:47:56.000Z</time>
      </trkpt>
      <trkpt lat="45.21577" lon="5.73329">
        <ele>897</ele>
        <time>2021-09-11T06:47:58.000Z</time>
      </trkpt>
      <trkpt lat="45.21582" lon="5.73334">
        <ele>897</ele>
        <time>2021-09-11T06:48:03.000Z</time>
      </trkpt>
      <trkpt lat="45.21585" lon="5.73337">
        <ele>897</ele>
        <time>2021-09-11T06:48:05.000Z</time>
      </trkpt>
      <trkpt lat="45.21588" lon="5.7334">
        <ele>897.40002441406</ele>
        <time>2021-09-11T06:48:07.000Z</time>
      </trkpt>
      <trkpt lat="45.21594" lon="5.73343">
        <ele>898.40002441406</ele>
        <time>2021-09-11T06:48:10.000Z</time>
      </trkpt>
      <trkpt lat="45.21596" lon="5.73345">
        <ele>898.59997558594</ele>
        <time>2021-09-11T06:48:11.000Z</time>
      </trkpt>
      <trkpt lat="45.216" lon="5.73353">
        <ele>899.59997558594</ele>
        <time>2021-09-11T06:48:15.000Z</time>
      </trkpt>
      <trkpt lat="45.21603" lon="5.73356">
        <ele>900.20001220703</ele>
        <time>2021-09-11T06:48:17.000Z</time>
      </trkpt>
      <trkpt lat="45.21606" lon="5.73362">
        <ele>901</ele>
        <time>2021-09-11T06:48:20.000Z</time>
      </trkpt>
      <trkpt lat="45.21608" lon="5.73364">
        <ele>901.20001220703</ele>
        <time>2021-09-11T06:48:21.000Z</time>
      </trkpt>
      <trkpt lat="45.21612" lon="5.73367">
        <ele>901.59997558594</ele>
        <time>2021-09-11T06:48:23.000Z</time>
      </trkpt>
      <trkpt lat="45.21613" lon="5.73368">
        <ele>902.20001220703</ele>
        <time>2021-09-11T06:48:24.000Z</time>
      </trkpt>
      <trkpt lat="45.21617" lon="5.7337">
        <ele>902.59997558594</ele>
        <time>2021-09-11T06:48:26.000Z</time>
      </trkpt>
      <trkpt lat="45.21618" lon="5.73372">
        <ele>903.40002441406</ele>
        <time>2021-09-11T06:48:28.000Z</time>
      </trkpt>
      <trkpt lat="45.21626" lon="5.73378">
        <ele>904.40002441406</ele>
        <time>2021-09-11T06:48:32.000Z</time>
      </trkpt>
      <trkpt lat="45.21627" lon="5.73379">
        <ele>904.59997558594</ele>
        <time>2021-09-11T06:48:33.000Z</time>
      </trkpt>
      <trkpt lat="45.21632" lon="5.73382">
        <ele>905.40002441406</ele>
        <time>2021-09-11T06:48:36.000Z</time>
      </trkpt>
      <trkpt lat="45.21635" lon="5.73385">
        <ele>905.59997558594</ele>
        <time>2021-09-11T06:48:38.000Z</time>
      </trkpt>
      <trkpt lat="45.21639" lon="5.73388">
        <ele>906.20001220703</ele>
        <time>2021-09-11T06:48:40.000Z</time>
      </trkpt>
      <trkpt lat="45.21643" lon="5.73393">
        <ele>907</ele>
        <time>2021-09-11T06:48:43.000Z</time>
      </trkpt>
      <trkpt lat="45.21646" lon="5.73396">
        <ele>907.40002441406</ele>
        <time>2021-09-11T06:48:45.000Z</time>
      </trkpt>
      <trkpt lat="45.21652" lon="5.73406">
        <ele>908</ele>
        <time>2021-09-11T06:48:50.000Z</time>
      </trkpt>
      <trkpt lat="45.21655" lon="5.73412">
        <ele>908.20001220703</ele>
        <time>2021-09-11T06:48:52.000Z</time>
      </trkpt>
      <trkpt lat="45.21658" lon="5.73419">
        <ele>908.40002441406</ele>
        <time>2021-09-11T06:48:55.000Z</time>
      </trkpt>
      <trkpt lat="45.21662" lon="5.73429">
        <ele>909</ele>
        <time>2021-09-11T06:48:58.000Z</time>
      </trkpt>
      <trkpt lat="45.21663" lon="5.73432">
        <ele>909.20001220703</ele>
        <time>2021-09-11T06:48:59.000Z</time>
      </trkpt>
      <trkpt lat="45.21667" lon="5.73446">
        <ele>910.20001220703</ele>
        <time>2021-09-11T06:49:04.000Z</time>
      </trkpt>
      <trkpt lat="45.21667" lon="5.73449">
        <ele>910.40002441406</ele>
        <time>2021-09-11T06:49:05.000Z</time>
      </trkpt>
      <trkpt lat="45.2167" lon="5.7346">
        <ele>911.40002441406</ele>
        <time>2021-09-11T06:49:09.000Z</time>
      </trkpt>
      <trkpt lat="45.2167" lon="5.73466">
        <ele>911.59997558594</ele>
        <time>2021-09-11T06:49:11.000Z</time>
      </trkpt>
      <trkpt lat="45.21671" lon="5.73468">
        <ele>911.79998779297</ele>
        <time>2021-09-11T06:49:12.000Z</time>
      </trkpt>
      <trkpt lat="45.21672" lon="5.73477">
        <ele>912.59997558594</ele>
        <time>2021-09-11T06:49:15.000Z</time>
      </trkpt>
      <trkpt lat="45.21676" lon="5.73481">
        <ele>913.20001220703</ele>
        <time>2021-09-11T06:49:19.000Z</time>
      </trkpt>
      <trkpt lat="45.21676" lon="5.73479">
        <ele>913.59997558594</ele>
        <time>2021-09-11T06:49:21.000Z</time>
      </trkpt>
      <trkpt lat="45.21676" lon="5.73478">
        <ele>913.79998779297</ele>
        <time>2021-09-11T06:49:22.000Z</time>
      </trkpt>
      <trkpt lat="45.21676" lon="5.73477">
        <ele>914</ele>
        <time>2021-09-11T06:49:23.000Z</time>
      </trkpt>
      <trkpt lat="45.21675" lon="5.73474">
        <ele>914.79998779297</ele>
        <time>2021-09-11T06:49:25.000Z</time>
      </trkpt>
      <trkpt lat="45.21674" lon="5.73465">
        <ele>915.79998779297</ele>
        <time>2021-09-11T06:49:29.000Z</time>
      </trkpt>
      <trkpt lat="45.21673" lon="5.73458">
        <ele>916.20001220703</ele>
        <time>2021-09-11T06:49:32.000Z</time>
      </trkpt>
      <trkpt lat="45.21672" lon="5.73451">
        <ele>916.79998779297</ele>
        <time>2021-09-11T06:49:35.000Z</time>
      </trkpt>
      <trkpt lat="45.21673" lon="5.73441">
        <ele>918</ele>
        <time>2021-09-11T06:49:40.000Z</time>
      </trkpt>
      <trkpt lat="45.21674" lon="5.73437">
        <ele>918.59997558594</ele>
        <time>2021-09-11T06:49:42.000Z</time>
      </trkpt>
      <trkpt lat="45.21675" lon="5.73433">
        <ele>919</ele>
        <time>2021-09-11T06:49:44.000Z</time>
      </trkpt>
      <trkpt lat="45.21676" lon="5.73425">
        <ele>920.20001220703</ele>
        <time>2021-09-11T06:49:48.000Z</time>
      </trkpt>
      <trkpt lat="45.21675" lon="5.7342">
        <ele>921.40002441406</ele>
        <time>2021-09-11T06:49:52.000Z</time>
      </trkpt>
      <trkpt lat="45.21674" lon="5.73417">
        <ele>921.79998779297</ele>
        <time>2021-09-11T06:49:54.000Z</time>
      </trkpt>
      <trkpt lat="45.21672" lon="5.73414">
        <ele>922.59997558594</ele>
        <time>2021-09-11T06:49:56.000Z</time>
      </trkpt>
      <trkpt lat="45.21671" lon="5.7341">
        <ele>923.20001220703</ele>
        <time>2021-09-11T06:49:58.000Z</time>
      </trkpt>
      <trkpt lat="45.2167" lon="5.73406">
        <ele>923.79998779297</ele>
        <time>2021-09-11T06:50:01.000Z</time>
      </trkpt>
      <trkpt lat="45.21669" lon="5.734">
        <ele>924.79998779297</ele>
        <time>2021-09-11T06:50:05.000Z</time>
      </trkpt>
      <trkpt lat="45.2167" lon="5.73395">
        <ele>925.59997558594</ele>
        <time>2021-09-11T06:50:08.000Z</time>
      </trkpt>
      <trkpt lat="45.2167" lon="5.73394">
        <ele>926</ele>
        <time>2021-09-11T06:50:09.000Z</time>
      </trkpt>
      <trkpt lat="45.21668" lon="5.73388">
        <ele>927</ele>
        <time>2021-09-11T06:50:13.000Z</time>
      </trkpt>
      <trkpt lat="45.21667" lon="5.73386">
        <ele>927.20001220703</ele>
        <time>2021-09-11T06:50:14.000Z</time>
      </trkpt>
      <trkpt lat="45.21667" lon="5.73384">
        <ele>928</ele>
        <time>2021-09-11T06:50:16.000Z</time>
      </trkpt>
      <trkpt lat="45.21667" lon="5.73382">
        <ele>928.40002441406</ele>
        <time>2021-09-11T06:50:17.000Z</time>
      </trkpt>
      <trkpt lat="45.21666" lon="5.73379">
        <ele>928.79998779297</ele>
        <time>2021-09-11T06:50:19.000Z</time>
      </trkpt>
      <trkpt lat="45.21665" lon="5.73373">
        <ele>929.40002441406</ele>
        <time>2021-09-11T06:50:22.000Z</time>
      </trkpt>
      <trkpt lat="45.21663" lon="5.73369">
        <ele>930.59997558594</ele>
        <time>2021-09-11T06:50:25.000Z</time>
      </trkpt>
      <trkpt lat="45.21661" lon="5.73369">
        <ele>930.79998779297</ele>
        <time>2021-09-11T06:50:26.000Z</time>
      </trkpt>
      <trkpt lat="45.21657" lon="5.73366">
        <ele>931.79998779297</ele>
        <time>2021-09-11T06:50:29.000Z</time>
      </trkpt>
      <trkpt lat="45.21657" lon="5.7336">
        <ele>932.79998779297</ele>
        <time>2021-09-11T06:50:32.000Z</time>
      </trkpt>
      <trkpt lat="45.21656" lon="5.73357">
        <ele>933.20001220703</ele>
        <time>2021-09-11T06:50:34.000Z</time>
      </trkpt>
      <trkpt lat="45.21656" lon="5.73356">
        <ele>933.40002441406</ele>
        <time>2021-09-11T06:50:35.000Z</time>
      </trkpt>
      <trkpt lat="45.21655" lon="5.73356">
        <ele>934</ele>
        <time>2021-09-11T06:50:36.000Z</time>
      </trkpt>
      <trkpt lat="45.21654" lon="5.73353">
        <ele>934.79998779297</ele>
        <time>2021-09-11T06:50:38.000Z</time>
      </trkpt>
      <trkpt lat="45.21653" lon="5.73349">
        <ele>935.20001220703</ele>
        <time>2021-09-11T06:50:40.000Z</time>
      </trkpt>
      <trkpt lat="45.21652" lon="5.73349">
        <ele>935.40002441406</ele>
        <time>2021-09-11T06:50:41.000Z</time>
      </trkpt>
      <trkpt lat="45.21649" lon="5.73346">
        <ele>936.20001220703</ele>
        <time>2021-09-11T06:50:44.000Z</time>
      </trkpt>
      <trkpt lat="45.21648" lon="5.73345">
        <ele>936.20001220703</ele>
        <time>2021-09-11T06:50:45.000Z</time>
      </trkpt>
      <trkpt lat="45.21642" lon="5.73336">
        <ele>935.20001220703</ele>
        <time>2021-09-11T06:50:51.000Z</time>
      </trkpt>
      <trkpt lat="45.21641" lon="5.73335">
        <ele>935</ele>
        <time>2021-09-11T06:50:52.000Z</time>
      </trkpt>
      <trkpt lat="45.21634" lon="5.73327">
        <ele>934.20001220703</ele>
        <time>2021-09-11T06:50:57.000Z</time>
      </trkpt>
      <trkpt lat="45.2163" lon="5.73324">
        <ele>933.20001220703</ele>
        <time>2021-09-11T06:51:00.000Z</time>
      </trkpt>
      <trkpt lat="45.21629" lon="5.73322">
        <ele>933</ele>
        <time>2021-09-11T06:51:01.000Z</time>
      </trkpt>
      <trkpt lat="45.21625" lon="5.73315">
        <ele>932</ele>
        <time>2021-09-11T06:51:05.000Z</time>
      </trkpt>
      <trkpt lat="45.21619" lon="5.73309">
        <ele>931</ele>
        <time>2021-09-11T06:51:09.000Z</time>
      </trkpt>
      <trkpt lat="45.21618" lon="5.73307">
        <ele>930.79998779297</ele>
        <time>2021-09-11T06:51:10.000Z</time>
      </trkpt>
      <trkpt lat="45.21613" lon="5.733">
        <ele>930</ele>
        <time>2021-09-11T06:51:14.000Z</time>
      </trkpt>
      <trkpt lat="45.2161" lon="5.73298">
        <ele>929.59997558594</ele>
        <time>2021-09-11T06:51:16.000Z</time>
      </trkpt>
      <trkpt lat="45.21603" lon="5.73295">
        <ele>928.20001220703</ele>
        <time>2021-09-11T06:51:21.000Z</time>
      </trkpt>
      <trkpt lat="45.21601" lon="5.73294">
        <ele>927.59997558594</ele>
        <time>2021-09-11T06:51:23.000Z</time>
      </trkpt>
      <trkpt lat="45.21595" lon="5.7329">
        <ele>927</ele>
        <time>2021-09-11T06:51:27.000Z</time>
      </trkpt>
      <trkpt lat="45.2159" lon="5.73287">
        <ele>926</ele>
        <time>2021-09-11T06:51:31.000Z</time>
      </trkpt>
      <trkpt lat="45.21589" lon="5.73286">
        <ele>925.79998779297</ele>
        <time>2021-09-11T06:51:32.000Z</time>
      </trkpt>
      <trkpt lat="45.21585" lon="5.73284">
        <ele>924.79998779297</ele>
        <time>2021-09-11T06:51:35.000Z</time>
      </trkpt>
      <trkpt lat="45.2158" lon="5.73281">
        <ele>924</ele>
        <time>2021-09-11T06:51:39.000Z</time>
      </trkpt>
      <trkpt lat="45.21579" lon="5.73281">
        <ele>923.79998779297</ele>
        <time>2021-09-11T06:51:40.000Z</time>
      </trkpt>
      <trkpt lat="45.21575" lon="5.73279">
        <ele>922.59997558594</ele>
        <time>2021-09-11T06:51:43.000Z</time>
      </trkpt>
      <trkpt lat="45.21571" lon="5.73279">
        <ele>921.40002441406</ele>
        <time>2021-09-11T06:51:46.000Z</time>
      </trkpt>
      <trkpt lat="45.2157" lon="5.73279">
        <ele>921.20001220703</ele>
        <time>2021-09-11T06:51:47.000Z</time>
      </trkpt>
      <trkpt lat="45.21568" lon="5.73278">
        <ele>920.20001220703</ele>
        <time>2021-09-11T06:51:49.000Z</time>
      </trkpt>
      <trkpt lat="45.21568" lon="5.73277">
        <ele>920</ele>
        <time>2021-09-11T06:51:50.000Z</time>
      </trkpt>
      <trkpt lat="45.21566" lon="5.73277">
        <ele>919.40002441406</ele>
        <time>2021-09-11T06:51:52.000Z</time>
      </trkpt>
      <trkpt lat="45.21564" lon="5.73278">
        <ele>919.20001220703</ele>
        <time>2021-09-11T06:51:54.000Z</time>
      </trkpt>
      <trkpt lat="45.21562" lon="5.73278">
        <ele>918.79998779297</ele>
        <time>2021-09-11T06:51:55.000Z</time>
      </trkpt>
      <trkpt lat="45.21558" lon="5.7328">
        <ele>918</ele>
        <time>2021-09-11T06:51:57.000Z</time>
      </trkpt>
      <trkpt lat="45.21553" lon="5.73281">
        <ele>917.40002441406</ele>
        <time>2021-09-11T06:51:59.000Z</time>
      </trkpt>
      <trkpt lat="45.21551" lon="5.73282">
        <ele>916.79998779297</ele>
        <time>2021-09-11T06:52:00.000Z</time>
      </trkpt>
      <trkpt lat="45.21545" lon="5.73281">
        <ele>915.79998779297</ele>
        <time>2021-09-11T06:52:03.000Z</time>
      </trkpt>
      <trkpt lat="45.21543" lon="5.73281">
        <ele>915.40002441406</ele>
        <time>2021-09-11T06:52:04.000Z</time>
      </trkpt>
      <trkpt lat="45.21541" lon="5.73281">
        <ele>914.59997558594</ele>
        <time>2021-09-11T06:52:06.000Z</time>
      </trkpt>
      <trkpt lat="45.2154" lon="5.7328">
        <ele>913.59997558594</ele>
        <time>2021-09-11T06:52:08.000Z</time>
      </trkpt>
      <trkpt lat="45.21539" lon="5.73281">
        <ele>913.20001220703</ele>
        <time>2021-09-11T06:52:09.000Z</time>
      </trkpt>
      <trkpt lat="45.21539" lon="5.73281">
        <ele>912.59997558594</ele>
        <time>2021-09-11T06:52:10.000Z</time>
      </trkpt>
      <trkpt lat="45.2154" lon="5.73281">
        <ele>912.20001220703</ele>
        <time>2021-09-11T06:52:11.000Z</time>
      </trkpt>
      <trkpt lat="45.21543" lon="5.7328">
        <ele>911.40002441406</ele>
        <time>2021-09-11T06:52:14.000Z</time>
      </trkpt>
      <trkpt lat="45.21544" lon="5.73281">
        <ele>911.20001220703</ele>
        <time>2021-09-11T06:52:15.000Z</time>
      </trkpt>
      <trkpt lat="45.21548" lon="5.73284">
        <ele>909.40002441406</ele>
        <time>2021-09-11T06:52:19.000Z</time>
      </trkpt>
      <trkpt lat="45.21549" lon="5.73285">
        <ele>909</ele>
        <time>2021-09-11T06:52:20.000Z</time>
      </trkpt>
      <trkpt lat="45.21552" lon="5.73287">
        <ele>908.20001220703</ele>
        <time>2021-09-11T06:52:22.000Z</time>
      </trkpt>
      <trkpt lat="45.21553" lon="5.73289">
        <ele>907.79998779297</ele>
        <time>2021-09-11T06:52:23.000Z</time>
      </trkpt>
      <trkpt lat="45.21554" lon="5.73292">
        <ele>906.59997558594</ele>
        <time>2021-09-11T06:52:25.000Z</time>
      </trkpt>
      <trkpt lat="45.21555" lon="5.73292">
        <ele>906</ele>
        <time>2021-09-11T06:52:26.000Z</time>
      </trkpt>
      <trkpt lat="45.21555" lon="5.73292">
        <ele>905.59997558594</ele>
        <time>2021-09-11T06:52:27.000Z</time>
      </trkpt>
      <trkpt lat="45.21555" lon="5.73293">
        <ele>905.20001220703</ele>
        <time>2021-09-11T06:52:28.000Z</time>
      </trkpt>
      <trkpt lat="45.21558" lon="5.73296">
        <ele>904.20001220703</ele>
        <time>2021-09-11T06:52:31.000Z</time>
      </trkpt>
      <trkpt lat="45.2156" lon="5.73301">
        <ele>903</ele>
        <time>2021-09-11T06:52:34.000Z</time>
      </trkpt>
      <trkpt lat="45.21562" lon="5.73305">
        <ele>902.20001220703</ele>
        <time>2021-09-11T06:52:36.000Z</time>
      </trkpt>
      <trkpt lat="45.21563" lon="5.73307">
        <ele>901.79998779297</ele>
        <time>2021-09-11T06:52:37.000Z</time>
      </trkpt>
      <trkpt lat="45.21565" lon="5.73309">
        <ele>901.40002441406</ele>
        <time>2021-09-11T06:52:38.000Z</time>
      </trkpt>
      <trkpt lat="45.21567" lon="5.73313">
        <ele>900.59997558594</ele>
        <time>2021-09-11T06:52:40.000Z</time>
      </trkpt>
      <trkpt lat="45.21568" lon="5.73315">
        <ele>899.59997558594</ele>
        <time>2021-09-11T06:52:42.000Z</time>
      </trkpt>
      <trkpt lat="45.21568" lon="5.73317">
        <ele>899.40002441406</ele>
        <time>2021-09-11T06:52:43.000Z</time>
      </trkpt>
      <trkpt lat="45.2157" lon="5.73321">
        <ele>898.40002441406</ele>
        <time>2021-09-11T06:52:46.000Z</time>
      </trkpt>
      <trkpt lat="45.21572" lon="5.73325">
        <ele>898</ele>
        <time>2021-09-11T06:52:49.000Z</time>
      </trkpt>
      <trkpt lat="45.21573" lon="5.73326">
        <ele>898</ele>
        <time>2021-09-11T06:52:50.000Z</time>
      </trkpt>
      <trkpt lat="45.21575" lon="5.73328">
        <ele>897.79998779297</ele>
        <time>2021-09-11T06:52:52.000Z</time>
      </trkpt>
      <trkpt lat="45.21579" lon="5.73329">
        <ele>897.40002441406</ele>
        <time>2021-09-11T06:52:56.000Z</time>
      </trkpt>
      <trkpt lat="45.2158" lon="5.73332">
        <ele>896.20001220703</ele>
        <time>2021-09-11T06:53:00.000Z</time>
      </trkpt>
      <trkpt lat="45.21578" lon="5.73332">
        <ele>896</ele>
        <time>2021-09-11T06:53:01.000Z</time>
      </trkpt>
      <trkpt lat="45.21575" lon="5.7333">
        <ele>895.20001220703</ele>
        <time>2021-09-11T06:53:03.000Z</time>
      </trkpt>
      <trkpt lat="45.21572" lon="5.73331">
        <ele>894.79998779297</ele>
        <time>2021-09-11T06:53:04.000Z</time>
      </trkpt>
      <trkpt lat="45.21569" lon="5.73331">
        <ele>894.79998779297</ele>
        <time>2021-09-11T06:53:05.000Z</time>
      </trkpt>
      <trkpt lat="45.21563" lon="5.7333">
        <ele>894.20001220703</ele>
        <time>2021-09-11T06:53:08.000Z</time>
      </trkpt>
      <trkpt lat="45.21557" lon="5.73328">
        <ele>893.59997558594</ele>
        <time>2021-09-11T06:53:11.000Z</time>
      </trkpt>
      <trkpt lat="45.21554" lon="5.73328">
        <ele>893</ele>
        <time>2021-09-11T06:53:13.000Z</time>
      </trkpt>
      <trkpt lat="45.21548" lon="5.73324">
        <ele>891.59997558594</ele>
        <time>2021-09-11T06:53:16.000Z</time>
      </trkpt>
      <trkpt lat="45.21542" lon="5.73321">
        <ele>890.40002441406</ele>
        <time>2021-09-11T06:53:19.000Z</time>
      </trkpt>
      <trkpt lat="45.21535" lon="5.73321">
        <ele>889</ele>
        <time>2021-09-11T06:53:22.000Z</time>
      </trkpt>
      <trkpt lat="45.2153" lon="5.73319">
        <ele>888.20001220703</ele>
        <time>2021-09-11T06:53:24.000Z</time>
      </trkpt>
      <trkpt lat="45.21528" lon="5.73319">
        <ele>887.79998779297</ele>
        <time>2021-09-11T06:53:25.000Z</time>
      </trkpt>
      <trkpt lat="45.21517" lon="5.73315">
        <ele>886.79998779297</ele>
        <time>2021-09-11T06:53:29.000Z</time>
      </trkpt>
      <trkpt lat="45.21516" lon="5.73313">
        <ele>886.59997558594</ele>
        <time>2021-09-11T06:53:30.000Z</time>
      </trkpt>
      <trkpt lat="45.21515" lon="5.73307">
        <ele>885.40002441406</ele>
        <time>2021-09-11T06:53:33.000Z</time>
      </trkpt>
      <trkpt lat="45.21514" lon="5.73304">
        <ele>885.20001220703</ele>
        <time>2021-09-11T06:53:34.000Z</time>
      </trkpt>
      <trkpt lat="45.21512" lon="5.73295">
        <ele>884.59997558594</ele>
        <time>2021-09-11T06:53:37.000Z</time>
      </trkpt>
      <trkpt lat="45.21511" lon="5.73291">
        <ele>884.40002441406</ele>
        <time>2021-09-11T06:53:38.000Z</time>
      </trkpt>
      <trkpt lat="45.2151" lon="5.73288">
        <ele>884.20001220703</ele>
        <time>2021-09-11T06:53:39.000Z</time>
      </trkpt>
      <trkpt lat="45.21509" lon="5.73284">
        <ele>883.79998779297</ele>
        <time>2021-09-11T06:53:40.000Z</time>
      </trkpt>
      <trkpt lat="45.21508" lon="5.73269">
        <ele>883.79998779297</ele>
        <time>2021-09-11T06:53:44.000Z</time>
      </trkpt>
      <trkpt lat="45.21501" lon="5.7326">
        <ele>883.79998779297</ele>
        <time>2021-09-11T06:53:49.000Z</time>
      </trkpt>
      <trkpt lat="45.21496" lon="5.73254">
        <ele>883</ele>
        <time>2021-09-11T06:53:52.000Z</time>
      </trkpt>
      <trkpt lat="45.21493" lon="5.73249">
        <ele>881.40002441406</ele>
        <time>2021-09-11T06:53:55.000Z</time>
      </trkpt>
      <trkpt lat="45.2149" lon="5.73243">
        <ele>880.79998779297</ele>
        <time>2021-09-11T06:53:57.000Z</time>
      </trkpt>
      <trkpt lat="45.21489" lon="5.73241">
        <ele>880.59997558594</ele>
        <time>2021-09-11T06:53:58.000Z</time>
      </trkpt>
      <trkpt lat="45.21488" lon="5.7324">
        <ele>880</ele>
        <time>2021-09-11T06:53:59.000Z</time>
      </trkpt>
      <trkpt lat="45.21484" lon="5.73237">
        <ele>878.79998779297</ele>
        <time>2021-09-11T06:54:01.000Z</time>
      </trkpt>
      <trkpt lat="45.21483" lon="5.73235">
        <ele>878.59997558594</ele>
        <time>2021-09-11T06:54:02.000Z</time>
      </trkpt>
      <trkpt lat="45.21478" lon="5.73228">
        <ele>877.79998779297</ele>
        <time>2021-09-11T06:54:05.000Z</time>
      </trkpt>
      <trkpt lat="45.21473" lon="5.73216">
        <ele>876.79998779297</ele>
        <time>2021-09-11T06:54:09.000Z</time>
      </trkpt>
      <trkpt lat="45.21472" lon="5.73194">
        <ele>875.59997558594</ele>
        <time>2021-09-11T06:54:15.000Z</time>
      </trkpt>
      <trkpt lat="45.21471" lon="5.73193">
        <ele>875.40002441406</ele>
        <time>2021-09-11T06:54:16.000Z</time>
      </trkpt>
      <trkpt lat="45.2147" lon="5.73188">
        <ele>874.40002441406</ele>
        <time>2021-09-11T06:54:19.000Z</time>
      </trkpt>
      <trkpt lat="45.21467" lon="5.73186">
        <ele>873.40002441406</ele>
        <time>2021-09-11T06:54:21.000Z</time>
      </trkpt>
      <trkpt lat="45.21466" lon="5.73185">
        <ele>873</ele>
        <time>2021-09-11T06:54:22.000Z</time>
      </trkpt>
      <trkpt lat="45.21464" lon="5.73184">
        <ele>872.40002441406</ele>
        <time>2021-09-11T06:54:23.000Z</time>
      </trkpt>
      <trkpt lat="45.21462" lon="5.73182">
        <ele>872.20001220703</ele>
        <time>2021-09-11T06:54:24.000Z</time>
      </trkpt>
      <trkpt lat="45.2146" lon="5.73175">
        <ele>870.59997558594</ele>
        <time>2021-09-11T06:54:27.000Z</time>
      </trkpt>
      <trkpt lat="45.21457" lon="5.73168">
        <ele>869.20001220703</ele>
        <time>2021-09-11T06:54:30.000Z</time>
      </trkpt>
      <trkpt lat="45.21452" lon="5.73163">
        <ele>868</ele>
        <time>2021-09-11T06:54:33.000Z</time>
      </trkpt>
      <trkpt lat="45.21449" lon="5.73161">
        <ele>867</ele>
        <time>2021-09-11T06:54:36.000Z</time>
      </trkpt>
      <trkpt lat="45.21446" lon="5.73161">
        <ele>866.79998779297</ele>
        <time>2021-09-11T06:54:37.000Z</time>
      </trkpt>
      <trkpt lat="45.21445" lon="5.73162">
        <ele>866.20001220703</ele>
        <time>2021-09-11T06:54:38.000Z</time>
      </trkpt>
      <trkpt lat="45.21443" lon="5.73161">
        <ele>865.79998779297</ele>
        <time>2021-09-11T06:54:39.000Z</time>
      </trkpt>
      <trkpt lat="45.21436" lon="5.73156">
        <ele>864.59997558594</ele>
        <time>2021-09-11T06:54:42.000Z</time>
      </trkpt>
      <trkpt lat="45.21434" lon="5.73155">
        <ele>864.40002441406</ele>
        <time>2021-09-11T06:54:43.000Z</time>
      </trkpt>
      <trkpt lat="45.21432" lon="5.73154">
        <ele>864.20001220703</ele>
        <time>2021-09-11T06:54:44.000Z</time>
      </trkpt>
      <trkpt lat="45.21426" lon="5.73151">
        <ele>863.59997558594</ele>
        <time>2021-09-11T06:54:47.000Z</time>
      </trkpt>
      <trkpt lat="45.21424" lon="5.7315">
        <ele>863.40002441406</ele>
        <time>2021-09-11T06:54:48.000Z</time>
      </trkpt>
      <trkpt lat="45.21419" lon="5.73143">
        <ele>862.20001220703</ele>
        <time>2021-09-11T06:54:51.000Z</time>
      </trkpt>
      <trkpt lat="45.21414" lon="5.73135">
        <ele>861.40002441406</ele>
        <time>2021-09-11T06:54:54.000Z</time>
      </trkpt>
      <trkpt lat="45.21412" lon="5.73132">
        <ele>861</ele>
        <time>2021-09-11T06:54:55.000Z</time>
      </trkpt>
      <trkpt lat="45.21403" lon="5.73121">
        <ele>859.79998779297</ele>
        <time>2021-09-11T06:54:59.000Z</time>
      </trkpt>
      <trkpt lat="45.21401" lon="5.73118">
        <ele>859.40002441406</ele>
        <time>2021-09-11T06:55:00.000Z</time>
      </trkpt>
      <trkpt lat="45.21392" lon="5.73108">
        <ele>858.59997558594</ele>
        <time>2021-09-11T06:55:04.000Z</time>
      </trkpt>
      <trkpt lat="45.21388" lon="5.73102">
        <ele>858</ele>
        <time>2021-09-11T06:55:06.000Z</time>
      </trkpt>
      <trkpt lat="45.21378" lon="5.73088">
        <ele>857.20001220703</ele>
        <time>2021-09-11T06:55:11.000Z</time>
      </trkpt>
      <trkpt lat="45.21374" lon="5.73083">
        <ele>857</ele>
        <time>2021-09-11T06:55:13.000Z</time>
      </trkpt>
      <trkpt lat="45.21371" lon="5.73078">
        <ele>856.59997558594</ele>
        <time>2021-09-11T06:55:15.000Z</time>
      </trkpt>
      <trkpt lat="45.21368" lon="5.73074">
        <ele>856</ele>
        <time>2021-09-11T06:55:17.000Z</time>
      </trkpt>
      <trkpt lat="45.21362" lon="5.73068">
        <ele>855</ele>
        <time>2021-09-11T06:55:22.000Z</time>
      </trkpt>
      <trkpt lat="45.2136" lon="5.73065">
        <ele>854.20001220703</ele>
        <time>2021-09-11T06:55:24.000Z</time>
      </trkpt>
      <trkpt lat="45.2136" lon="5.73063">
        <ele>853.79998779297</ele>
        <time>2021-09-11T06:55:25.000Z</time>
      </trkpt>
      <trkpt lat="45.21359" lon="5.73061">
        <ele>853.59997558594</ele>
        <time>2021-09-11T06:55:26.000Z</time>
      </trkpt>
      <trkpt lat="45.21355" lon="5.73054">
        <ele>852.79998779297</ele>
        <time>2021-09-11T06:55:29.000Z</time>
      </trkpt>
      <trkpt lat="45.21353" lon="5.73052">
        <ele>852.20001220703</ele>
        <time>2021-09-11T06:55:30.000Z</time>
      </trkpt>
      <trkpt lat="45.21352" lon="5.73051">
        <ele>851.59997558594</ele>
        <time>2021-09-11T06:55:31.000Z</time>
      </trkpt>
      <trkpt lat="45.21351" lon="5.73049">
        <ele>851.20001220703</ele>
        <time>2021-09-11T06:55:32.000Z</time>
      </trkpt>
      <trkpt lat="45.2135" lon="5.73046">
        <ele>850.79998779297</ele>
        <time>2021-09-11T06:55:33.000Z</time>
      </trkpt>
      <trkpt lat="45.21349" lon="5.73044">
        <ele>850.20001220703</ele>
        <time>2021-09-11T06:55:34.000Z</time>
      </trkpt>
      <trkpt lat="45.21346" lon="5.7304">
        <ele>849.20001220703</ele>
        <time>2021-09-11T06:55:37.000Z</time>
      </trkpt>
      <trkpt lat="45.21343" lon="5.73037">
        <ele>847.59997558594</ele>
        <time>2021-09-11T06:55:40.000Z</time>
      </trkpt>
      <trkpt lat="45.21339" lon="5.73031">
        <ele>846.40002441406</ele>
        <time>2021-09-11T06:55:43.000Z</time>
      </trkpt>
      <trkpt lat="45.21337" lon="5.73029">
        <ele>846.20001220703</ele>
        <time>2021-09-11T06:55:44.000Z</time>
      </trkpt>
      <trkpt lat="45.21332" lon="5.73024">
        <ele>845.20001220703</ele>
        <time>2021-09-11T06:55:47.000Z</time>
      </trkpt>
      <trkpt lat="45.2133" lon="5.73021">
        <ele>844.79998779297</ele>
        <time>2021-09-11T06:55:49.000Z</time>
      </trkpt>
      <trkpt lat="45.21329" lon="5.7302">
        <ele>844.20001220703</ele>
        <time>2021-09-11T06:55:50.000Z</time>
      </trkpt>
      <trkpt lat="45.21327" lon="5.73019">
        <ele>843.79998779297</ele>
        <time>2021-09-11T06:55:51.000Z</time>
      </trkpt>
      <trkpt lat="45.21322" lon="5.73014">
        <ele>842.40002441406</ele>
        <time>2021-09-11T06:55:54.000Z</time>
      </trkpt>
      <trkpt lat="45.2132" lon="5.7301">
        <ele>841.59997558594</ele>
        <time>2021-09-11T06:55:56.000Z</time>
      </trkpt>
      <trkpt lat="45.21318" lon="5.73009">
        <ele>841.40002441406</ele>
        <time>2021-09-11T06:55:57.000Z</time>
      </trkpt>
      <trkpt lat="45.21315" lon="5.73004">
        <ele>840.40002441406</ele>
        <time>2021-09-11T06:56:00.000Z</time>
      </trkpt>
      <trkpt lat="45.21314" lon="5.73002">
        <ele>840</ele>
        <time>2021-09-11T06:56:01.000Z</time>
      </trkpt>
      <trkpt lat="45.21311" lon="5.72994">
        <ele>839.40002441406</ele>
        <time>2021-09-11T06:56:04.000Z</time>
      </trkpt>
      <trkpt lat="45.21308" lon="5.72991">
        <ele>838.79998779297</ele>
        <time>2021-09-11T06:56:06.000Z</time>
      </trkpt>
      <trkpt lat="45.21303" lon="5.72988">
        <ele>837.59997558594</ele>
        <time>2021-09-11T06:56:09.000Z</time>
      </trkpt>
      <trkpt lat="45.21298" lon="5.72983">
        <ele>836.20001220703</ele>
        <time>2021-09-11T06:56:12.000Z</time>
      </trkpt>
      <trkpt lat="45.21295" lon="5.72978">
        <ele>835.59997558594</ele>
        <time>2021-09-11T06:56:14.000Z</time>
      </trkpt>
      <trkpt lat="45.21292" lon="5.72975">
        <ele>834.79998779297</ele>
        <time>2021-09-11T06:56:16.000Z</time>
      </trkpt>
      <trkpt lat="45.21289" lon="5.72973">
        <ele>833.59997558594</ele>
        <time>2021-09-11T06:56:18.000Z</time>
      </trkpt>
      <trkpt lat="45.21287" lon="5.72969">
        <ele>832.79998779297</ele>
        <time>2021-09-11T06:56:20.000Z</time>
      </trkpt>
      <trkpt lat="45.21283" lon="5.72966">
        <ele>832.40002441406</ele>
        <time>2021-09-11T06:56:22.000Z</time>
      </trkpt>
      <trkpt lat="45.21277" lon="5.7296">
        <ele>831.40002441406</ele>
        <time>2021-09-11T06:56:25.000Z</time>
      </trkpt>
      <trkpt lat="45.21276" lon="5.72958">
        <ele>831.20001220703</ele>
        <time>2021-09-11T06:56:26.000Z</time>
      </trkpt>
      <trkpt lat="45.21273" lon="5.72956">
        <ele>830.40002441406</ele>
        <time>2021-09-11T06:56:28.000Z</time>
      </trkpt>
      <trkpt lat="45.21271" lon="5.72954">
        <ele>829</ele>
        <time>2021-09-11T06:56:31.000Z</time>
      </trkpt>
      <trkpt lat="45.21268" lon="5.72952">
        <ele>828</ele>
        <time>2021-09-11T06:56:33.000Z</time>
      </trkpt>
      <trkpt lat="45.21265" lon="5.72952">
        <ele>826.79998779297</ele>
        <time>2021-09-11T06:56:35.000Z</time>
      </trkpt>
      <trkpt lat="45.21262" lon="5.72952">
        <ele>826.20001220703</ele>
        <time>2021-09-11T06:56:37.000Z</time>
      </trkpt>
      <trkpt lat="45.2126" lon="5.7295">
        <ele>825.79998779297</ele>
        <time>2021-09-11T06:56:38.000Z</time>
      </trkpt>
      <trkpt lat="45.21257" lon="5.72947">
        <ele>825.20001220703</ele>
        <time>2021-09-11T06:56:40.000Z</time>
      </trkpt>
      <trkpt lat="45.21254" lon="5.72945">
        <ele>824.59997558594</ele>
        <time>2021-09-11T06:56:42.000Z</time>
      </trkpt>
      <trkpt lat="45.2125" lon="5.72944">
        <ele>823.20001220703</ele>
        <time>2021-09-11T06:56:45.000Z</time>
      </trkpt>
      <trkpt lat="45.21245" lon="5.72943">
        <ele>822.20001220703</ele>
        <time>2021-09-11T06:56:48.000Z</time>
      </trkpt>
      <trkpt lat="45.21244" lon="5.72942">
        <ele>822</ele>
        <time>2021-09-11T06:56:49.000Z</time>
      </trkpt>
      <trkpt lat="45.2124" lon="5.7294">
        <ele>820.79998779297</ele>
        <time>2021-09-11T06:56:51.000Z</time>
      </trkpt>
      <trkpt lat="45.21234" lon="5.72938">
        <ele>819.59997558594</ele>
        <time>2021-09-11T06:56:54.000Z</time>
      </trkpt>
      <trkpt lat="45.2123" lon="5.72935">
        <ele>819.20001220703</ele>
        <time>2021-09-11T06:56:56.000Z</time>
      </trkpt>
      <trkpt lat="45.21227" lon="5.72931">
        <ele>818.40002441406</ele>
        <time>2021-09-11T06:56:58.000Z</time>
      </trkpt>
      <trkpt lat="45.21223" lon="5.72927">
        <ele>816.79998779297</ele>
        <time>2021-09-11T06:57:02.000Z</time>
      </trkpt>
      <trkpt lat="45.21222" lon="5.72926">
        <ele>816.40002441406</ele>
        <time>2021-09-11T06:57:03.000Z</time>
      </trkpt>
      <trkpt lat="45.21219" lon="5.72924">
        <ele>815.40002441406</ele>
        <time>2021-09-11T06:57:05.000Z</time>
      </trkpt>
      <trkpt lat="45.21215" lon="5.72921">
        <ele>814.20001220703</ele>
        <time>2021-09-11T06:57:10.000Z</time>
      </trkpt>
      <trkpt lat="45.21214" lon="5.72922">
        <ele>814</ele>
        <time>2021-09-11T06:57:11.000Z</time>
      </trkpt>
      <trkpt lat="45.21213" lon="5.72924">
        <ele>813.59997558594</ele>
        <time>2021-09-11T06:57:12.000Z</time>
      </trkpt>
      <trkpt lat="45.21214" lon="5.72928">
        <ele>813</ele>
        <time>2021-09-11T06:57:14.000Z</time>
      </trkpt>
      <trkpt lat="45.21216" lon="5.72933">
        <ele>811.79998779297</ele>
        <time>2021-09-11T06:57:16.000Z</time>
      </trkpt>
      <trkpt lat="45.21218" lon="5.7294">
        <ele>810.79998779297</ele>
        <time>2021-09-11T06:57:19.000Z</time>
      </trkpt>
      <trkpt lat="45.21219" lon="5.72942">
        <ele>809.79998779297</ele>
        <time>2021-09-11T06:57:21.000Z</time>
      </trkpt>
      <trkpt lat="45.21218" lon="5.72944">
        <ele>809.40002441406</ele>
        <time>2021-09-11T06:57:22.000Z</time>
      </trkpt>
      <trkpt lat="45.21217" lon="5.72945">
        <ele>808.59997558594</ele>
        <time>2021-09-11T06:57:23.000Z</time>
      </trkpt>
      <trkpt lat="45.21216" lon="5.72945">
        <ele>808.20001220703</ele>
        <time>2021-09-11T06:57:24.000Z</time>
      </trkpt>
      <trkpt lat="45.21211" lon="5.72944">
        <ele>807.59997558594</ele>
        <time>2021-09-11T06:57:26.000Z</time>
      </trkpt>
      <trkpt lat="45.21206" lon="5.72939">
        <ele>806.59997558594</ele>
        <time>2021-09-11T06:57:29.000Z</time>
      </trkpt>
      <trkpt lat="45.21204" lon="5.72937">
        <ele>806.20001220703</ele>
        <time>2021-09-11T06:57:30.000Z</time>
      </trkpt>
      <trkpt lat="45.212" lon="5.7293">
        <ele>805.20001220703</ele>
        <time>2021-09-11T06:57:33.000Z</time>
      </trkpt>
      <trkpt lat="45.21194" lon="5.72923">
        <ele>804.40002441406</ele>
        <time>2021-09-11T06:57:36.000Z</time>
      </trkpt>
      <trkpt lat="45.21192" lon="5.72921">
        <ele>804</ele>
        <time>2021-09-11T06:57:37.000Z</time>
      </trkpt>
      <trkpt lat="45.21189" lon="5.72917">
        <ele>803</ele>
        <time>2021-09-11T06:57:39.000Z</time>
      </trkpt>
      <trkpt lat="45.21184" lon="5.72912">
        <ele>801.79998779297</ele>
        <time>2021-09-11T06:57:42.000Z</time>
      </trkpt>
      <trkpt lat="45.21181" lon="5.7291">
        <ele>801</ele>
        <time>2021-09-11T06:57:44.000Z</time>
      </trkpt>
      <trkpt lat="45.21179" lon="5.7291">
        <ele>800.59997558594</ele>
        <time>2021-09-11T06:57:45.000Z</time>
      </trkpt>
      <trkpt lat="45.21175" lon="5.72907">
        <ele>799.20001220703</ele>
        <time>2021-09-11T06:57:48.000Z</time>
      </trkpt>
      <trkpt lat="45.21171" lon="5.72906">
        <ele>798.40002441406</ele>
        <time>2021-09-11T06:57:50.000Z</time>
      </trkpt>
      <trkpt lat="45.21169" lon="5.72905">
        <ele>798</ele>
        <time>2021-09-11T06:57:51.000Z</time>
      </trkpt>
      <trkpt lat="45.21162" lon="5.72903">
        <ele>797.20001220703</ele>
        <time>2021-09-11T06:57:54.000Z</time>
      </trkpt>
      <trkpt lat="45.21158" lon="5.72901">
        <ele>796.79998779297</ele>
        <time>2021-09-11T06:57:56.000Z</time>
      </trkpt>
      <trkpt lat="45.21156" lon="5.729">
        <ele>796.40002441406</ele>
        <time>2021-09-11T06:57:57.000Z</time>
      </trkpt>
      <trkpt lat="45.21154" lon="5.72898">
        <ele>795.79998779297</ele>
        <time>2021-09-11T06:57:59.000Z</time>
      </trkpt>
      <trkpt lat="45.21152" lon="5.72898">
        <ele>795.20001220703</ele>
        <time>2021-09-11T06:58:00.000Z</time>
      </trkpt>
      <trkpt lat="45.21149" lon="5.72898">
        <ele>794.40002441406</ele>
        <time>2021-09-11T06:58:02.000Z</time>
      </trkpt>
      <trkpt lat="45.21148" lon="5.72896">
        <ele>794</ele>
        <time>2021-09-11T06:58:03.000Z</time>
      </trkpt>
      <trkpt lat="45.21144" lon="5.72894">
        <ele>792.79998779297</ele>
        <time>2021-09-11T06:58:06.000Z</time>
      </trkpt>
      <trkpt lat="45.21141" lon="5.72892">
        <ele>792.40002441406</ele>
        <time>2021-09-11T06:58:08.000Z</time>
      </trkpt>
      <trkpt lat="45.21139" lon="5.7289">
        <ele>791.59997558594</ele>
        <time>2021-09-11T06:58:10.000Z</time>
      </trkpt>
      <trkpt lat="45.21135" lon="5.72889">
        <ele>791</ele>
        <time>2021-09-11T06:58:12.000Z</time>
      </trkpt>
      <trkpt lat="45.21133" lon="5.72889">
        <ele>790.59997558594</ele>
        <time>2021-09-11T06:58:13.000Z</time>
      </trkpt>
      <trkpt lat="45.21131" lon="5.72888">
        <ele>790</ele>
        <time>2021-09-11T06:58:14.000Z</time>
      </trkpt>
      <trkpt lat="45.21127" lon="5.72885">
        <ele>789.59997558594</ele>
        <time>2021-09-11T06:58:16.000Z</time>
      </trkpt>
      <trkpt lat="45.21125" lon="5.72885">
        <ele>789.40002441406</ele>
        <time>2021-09-11T06:58:17.000Z</time>
      </trkpt>
      <trkpt lat="45.21123" lon="5.72883">
        <ele>788.79998779297</ele>
        <time>2021-09-11T06:58:18.000Z</time>
      </trkpt>
      <trkpt lat="45.21119" lon="5.72879">
        <ele>788.20001220703</ele>
        <time>2021-09-11T06:58:20.000Z</time>
      </trkpt>
      <trkpt lat="45.21115" lon="5.72872">
        <ele>787.59997558594</ele>
        <time>2021-09-11T06:58:23.000Z</time>
      </trkpt>
      <trkpt lat="45.21114" lon="5.7287">
        <ele>787.20001220703</ele>
        <time>2021-09-11T06:58:24.000Z</time>
      </trkpt>
      <trkpt lat="45.21112" lon="5.72868">
        <ele>786.59997558594</ele>
        <time>2021-09-11T06:58:25.000Z</time>
      </trkpt>
      <trkpt lat="45.2111" lon="5.72867">
        <ele>785.79998779297</ele>
        <time>2021-09-11T06:58:27.000Z</time>
      </trkpt>
      <trkpt lat="45.21107" lon="5.72865">
        <ele>784.79998779297</ele>
        <time>2021-09-11T06:58:29.000Z</time>
      </trkpt>
      <trkpt lat="45.21099" lon="5.72855">
        <ele>783.79998779297</ele>
        <time>2021-09-11T06:58:33.000Z</time>
      </trkpt>
      <trkpt lat="45.21096" lon="5.72853">
        <ele>783.59997558594</ele>
        <time>2021-09-11T06:58:34.000Z</time>
      </trkpt>
      <trkpt lat="45.21086" lon="5.72846">
        <ele>782.40002441406</ele>
        <time>2021-09-11T06:58:38.000Z</time>
      </trkpt>
      <trkpt lat="45.21084" lon="5.72841">
        <ele>781.79998779297</ele>
        <time>2021-09-11T06:58:40.000Z</time>
      </trkpt>
      <trkpt lat="45.2108" lon="5.72829">
        <ele>781.20001220703</ele>
        <time>2021-09-11T06:58:44.000Z</time>
      </trkpt>
      <trkpt lat="45.21076" lon="5.72825">
        <ele>781</ele>
        <time>2021-09-11T06:58:46.000Z</time>
      </trkpt>
      <trkpt lat="45.21067" lon="5.72801">
        <ele>780.20001220703</ele>
        <time>2021-09-11T06:58:53.000Z</time>
      </trkpt>
      <trkpt lat="45.21064" lon="5.72788">
        <ele>780</ele>
        <time>2021-09-11T06:58:57.000Z</time>
      </trkpt>
      <trkpt lat="45.21062" lon="5.72783">
        <ele>779.79998779297</ele>
        <time>2021-09-11T06:58:59.000Z</time>
      </trkpt>
      <trkpt lat="45.21058" lon="5.72773">
        <ele>779.20001220703</ele>
        <time>2021-09-11T06:59:02.000Z</time>
      </trkpt>
      <trkpt lat="45.21053" lon="5.72762">
        <ele>778</ele>
        <time>2021-09-11T06:59:07.000Z</time>
      </trkpt>
      <trkpt lat="45.21051" lon="5.7276">
        <ele>777.59997558594</ele>
        <time>2021-09-11T06:59:09.000Z</time>
      </trkpt>
      <trkpt lat="45.21047" lon="5.72758">
        <ele>777</ele>
        <time>2021-09-11T06:59:12.000Z</time>
      </trkpt>
      <trkpt lat="45.21045" lon="5.72757">
        <ele>776.20001220703</ele>
        <time>2021-09-11T06:59:15.000Z</time>
      </trkpt>
      <trkpt lat="45.21044" lon="5.72757">
        <ele>775.79998779297</ele>
        <time>2021-09-11T06:59:16.000Z</time>
      </trkpt>
      <trkpt lat="45.21039" lon="5.72756">
        <ele>774.79998779297</ele>
        <time>2021-09-11T06:59:19.000Z</time>
      </trkpt>
      <trkpt lat="45.21035" lon="5.72751">
        <ele>773.59997558594</ele>
        <time>2021-09-11T06:59:22.000Z</time>
      </trkpt>
      <trkpt lat="45.2103" lon="5.72747">
        <ele>772</ele>
        <time>2021-09-11T06:59:26.000Z</time>
      </trkpt>
      <trkpt lat="45.21029" lon="5.72748">
        <ele>771.20001220703</ele>
        <time>2021-09-11T06:59:28.000Z</time>
      </trkpt>
      <trkpt lat="45.21028" lon="5.72749">
        <ele>770.79998779297</ele>
        <time>2021-09-11T06:59:29.000Z</time>
      </trkpt>
      <trkpt lat="45.21023" lon="5.72748">
        <ele>769.40002441406</ele>
        <time>2021-09-11T06:59:33.000Z</time>
      </trkpt>
      <trkpt lat="45.21021" lon="5.72748">
        <ele>768.79998779297</ele>
        <time>2021-09-11T06:59:35.000Z</time>
      </trkpt>
      <trkpt lat="45.2102" lon="5.72747">
        <ele>768.40002441406</ele>
        <time>2021-09-11T06:59:36.000Z</time>
      </trkpt>
      <trkpt lat="45.21017" lon="5.72747">
        <ele>767.20001220703</ele>
        <time>2021-09-11T06:59:40.000Z</time>
      </trkpt>
      <trkpt lat="45.21015" lon="5.72749">
        <ele>766</ele>
        <time>2021-09-11T06:59:42.000Z</time>
      </trkpt>
      <trkpt lat="45.21012" lon="5.7275">
        <ele>765</ele>
        <time>2021-09-11T06:59:45.000Z</time>
      </trkpt>
      <trkpt lat="45.2101" lon="5.72751">
        <ele>763.79998779297</ele>
        <time>2021-09-11T06:59:47.000Z</time>
      </trkpt>
      <trkpt lat="45.21008" lon="5.72753">
        <ele>763.20001220703</ele>
        <time>2021-09-11T06:59:49.000Z</time>
      </trkpt>
      <trkpt lat="45.21007" lon="5.72753">
        <ele>762.79998779297</ele>
        <time>2021-09-11T06:59:50.000Z</time>
      </trkpt>
      <trkpt lat="45.21004" lon="5.72755">
        <ele>761.40002441406</ele>
        <time>2021-09-11T06:59:54.000Z</time>
      </trkpt>
      <trkpt lat="45.21003" lon="5.72756">
        <ele>761</ele>
        <time>2021-09-11T06:59:55.000Z</time>
      </trkpt>
      <trkpt lat="45.21002" lon="5.72756">
        <ele>760.40002441406</ele>
        <time>2021-09-11T06:59:56.000Z</time>
      </trkpt>
      <trkpt lat="45.21001" lon="5.72756">
        <ele>760</ele>
        <time>2021-09-11T06:59:57.000Z</time>
      </trkpt>
      <trkpt lat="45.20998" lon="5.72755">
        <ele>758.79998779297</ele>
        <time>2021-09-11T07:00:00.000Z</time>
      </trkpt>
      <trkpt lat="45.20997" lon="5.72759">
        <ele>757.59997558594</ele>
        <time>2021-09-11T07:00:03.000Z</time>
      </trkpt>
      <trkpt lat="45.20996" lon="5.7276">
        <ele>757.20001220703</ele>
        <time>2021-09-11T07:00:04.000Z</time>
      </trkpt>
      <trkpt lat="45.20995" lon="5.7276">
        <ele>756.79998779297</ele>
        <time>2021-09-11T07:00:05.000Z</time>
      </trkpt>
      <trkpt lat="45.20994" lon="5.72759">
        <ele>756.40002441406</ele>
        <time>2021-09-11T07:00:06.000Z</time>
      </trkpt>
      <trkpt lat="45.20994" lon="5.72759">
        <ele>756.20001220703</ele>
        <time>2021-09-11T07:00:07.000Z</time>
      </trkpt>
      <trkpt lat="45.20993" lon="5.72758">
        <ele>755.40002441406</ele>
        <time>2021-09-11T07:00:09.000Z</time>
      </trkpt>
      <trkpt lat="45.2099" lon="5.72757">
        <ele>755</ele>
        <time>2021-09-11T07:00:11.000Z</time>
      </trkpt>
      <trkpt lat="45.20989" lon="5.72756">
        <ele>754.59997558594</ele>
        <time>2021-09-11T07:00:12.000Z</time>
      </trkpt>
      <trkpt lat="45.20988" lon="5.72756">
        <ele>754.20001220703</ele>
        <time>2021-09-11T07:00:13.000Z</time>
      </trkpt>
      <trkpt lat="45.20986" lon="5.72753">
        <ele>753</ele>
        <time>2021-09-11T07:00:15.000Z</time>
      </trkpt>
      <trkpt lat="45.20985" lon="5.72752">
        <ele>752.40002441406</ele>
        <time>2021-09-11T07:00:16.000Z</time>
      </trkpt>
      <trkpt lat="45.20984" lon="5.72751">
        <ele>752</ele>
        <time>2021-09-11T07:00:17.000Z</time>
      </trkpt>
      <trkpt lat="45.20983" lon="5.7275">
        <ele>751.40002441406</ele>
        <time>2021-09-11T07:00:18.000Z</time>
      </trkpt>
      <trkpt lat="45.20981" lon="5.72748">
        <ele>750.79998779297</ele>
        <time>2021-09-11T07:00:20.000Z</time>
      </trkpt>
      <trkpt lat="45.20981" lon="5.72747">
        <ele>750.40002441406</ele>
        <time>2021-09-11T07:00:21.000Z</time>
      </trkpt>
      <trkpt lat="45.20979" lon="5.72745">
        <ele>749.59997558594</ele>
        <time>2021-09-11T07:00:23.000Z</time>
      </trkpt>
      <trkpt lat="45.20977" lon="5.72744">
        <ele>748.59997558594</ele>
        <time>2021-09-11T07:00:25.000Z</time>
      </trkpt>
      <trkpt lat="45.20977" lon="5.72743">
        <ele>748.20001220703</ele>
        <time>2021-09-11T07:00:26.000Z</time>
      </trkpt>
      <trkpt lat="45.20975" lon="5.7274">
        <ele>747.20001220703</ele>
        <time>2021-09-11T07:00:28.000Z</time>
      </trkpt>
      <trkpt lat="45.20973" lon="5.72734">
        <ele>746</ele>
        <time>2021-09-11T07:00:32.000Z</time>
      </trkpt>
      <trkpt lat="45.20971" lon="5.72732">
        <ele>744.79998779297</ele>
        <time>2021-09-11T07:00:35.000Z</time>
      </trkpt>
      <trkpt lat="45.20968" lon="5.72727">
        <ele>743.40002441406</ele>
        <time>2021-09-11T07:00:38.000Z</time>
      </trkpt>
      <trkpt lat="45.20967" lon="5.72725">
        <ele>742.40002441406</ele>
        <time>2021-09-11T07:00:40.000Z</time>
      </trkpt>
      <trkpt lat="45.20965" lon="5.72724">
        <ele>742.20001220703</ele>
        <time>2021-09-11T07:00:41.000Z</time>
      </trkpt>
      <trkpt lat="45.20962" lon="5.72721">
        <ele>741.40002441406</ele>
        <time>2021-09-11T07:00:44.000Z</time>
      </trkpt>
      <trkpt lat="45.2096" lon="5.7272">
        <ele>741</ele>
        <time>2021-09-11T07:00:45.000Z</time>
      </trkpt>
      <trkpt lat="45.20958" lon="5.72718">
        <ele>740.20001220703</ele>
        <time>2021-09-11T07:00:47.000Z</time>
      </trkpt>
      <trkpt lat="45.20957" lon="5.72717">
        <ele>739.79998779297</ele>
        <time>2021-09-11T07:00:48.000Z</time>
      </trkpt>
      <trkpt lat="45.20953" lon="5.72714">
        <ele>738.59997558594</ele>
        <time>2021-09-11T07:00:51.000Z</time>
      </trkpt>
      <trkpt lat="45.20952" lon="5.72712">
        <ele>738.20001220703</ele>
        <time>2021-09-11T07:00:52.000Z</time>
      </trkpt>
      <trkpt lat="45.20951" lon="5.7271">
        <ele>737.40002441406</ele>
        <time>2021-09-11T07:00:53.000Z</time>
      </trkpt>
      <trkpt lat="45.20947" lon="5.72702">
        <ele>736</ele>
        <time>2021-09-11T07:00:56.000Z</time>
      </trkpt>
      <trkpt lat="45.20941" lon="5.72696">
        <ele>735.40002441406</ele>
        <time>2021-09-11T07:00:59.000Z</time>
      </trkpt>
      <trkpt lat="45.2094" lon="5.72693">
        <ele>735</ele>
        <time>2021-09-11T07:01:00.000Z</time>
      </trkpt>
      <trkpt lat="45.20935" lon="5.72692">
        <ele>734</ele>
        <time>2021-09-11T07:01:02.000Z</time>
      </trkpt>
      <trkpt lat="45.20932" lon="5.72693">
        <ele>733.59997558594</ele>
        <time>2021-09-11T07:01:03.000Z</time>
      </trkpt>
      <trkpt lat="45.20927" lon="5.72692">
        <ele>732.79998779297</ele>
        <time>2021-09-11T07:01:05.000Z</time>
      </trkpt>
      <trkpt lat="45.20924" lon="5.72689">
        <ele>731.59997558594</ele>
        <time>2021-09-11T07:01:07.000Z</time>
      </trkpt>
      <trkpt lat="45.2092" lon="5.72684">
        <ele>730.20001220703</ele>
        <time>2021-09-11T07:01:11.000Z</time>
      </trkpt>
      <trkpt lat="45.20916" lon="5.72681">
        <ele>729</ele>
        <time>2021-09-11T07:01:14.000Z</time>
      </trkpt>
      <trkpt lat="45.20915" lon="5.72681">
        <ele>728.79998779297</ele>
        <time>2021-09-11T07:01:15.000Z</time>
      </trkpt>
      <trkpt lat="45.20911" lon="5.72681">
        <ele>727.79998779297</ele>
        <time>2021-09-11T07:01:18.000Z</time>
      </trkpt>
      <trkpt lat="45.20908" lon="5.72682">
        <ele>726.20001220703</ele>
        <time>2021-09-11T07:01:21.000Z</time>
      </trkpt>
      <trkpt lat="45.20903" lon="5.72682">
        <ele>725.20001220703</ele>
        <time>2021-09-11T07:01:25.000Z</time>
      </trkpt>
      <trkpt lat="45.20902" lon="5.72682">
        <ele>724.79998779297</ele>
        <time>2021-09-11T07:01:26.000Z</time>
      </trkpt>
      <trkpt lat="45.20895" lon="5.72684">
        <ele>723.40002441406</ele>
        <time>2021-09-11T07:01:29.000Z</time>
      </trkpt>
      <trkpt lat="45.20892" lon="5.72685">
        <ele>722.20001220703</ele>
        <time>2021-09-11T07:01:32.000Z</time>
      </trkpt>
      <trkpt lat="45.20887" lon="5.72692">
        <ele>721</ele>
        <time>2021-09-11T07:01:36.000Z</time>
      </trkpt>
      <trkpt lat="45.20882" lon="5.72694">
        <ele>720.20001220703</ele>
        <time>2021-09-11T07:01:39.000Z</time>
      </trkpt>
      <trkpt lat="45.2088" lon="5.72694">
        <ele>720</ele>
        <time>2021-09-11T07:01:40.000Z</time>
      </trkpt>
      <trkpt lat="45.20873" lon="5.72696">
        <ele>718.79998779297</ele>
        <time>2021-09-11T07:01:43.000Z</time>
      </trkpt>
      <trkpt lat="45.20865" lon="5.72695">
        <ele>717.40002441406</ele>
        <time>2021-09-11T07:01:47.000Z</time>
      </trkpt>
      <trkpt lat="45.20859" lon="5.72697">
        <ele>716.40002441406</ele>
        <time>2021-09-11T07:01:50.000Z</time>
      </trkpt>
      <trkpt lat="45.20854" lon="5.72698">
        <ele>715.40002441406</ele>
        <time>2021-09-11T07:01:53.000Z</time>
      </trkpt>
      <trkpt lat="45.20852" lon="5.72697">
        <ele>715.20001220703</ele>
        <time>2021-09-11T07:01:54.000Z</time>
      </trkpt>
      <trkpt lat="45.20851" lon="5.72698">
        <ele>715</ele>
        <time>2021-09-11T07:01:55.000Z</time>
      </trkpt>
      <trkpt lat="45.20846" lon="5.72701">
        <ele>713.79998779297</ele>
        <time>2021-09-11T07:01:58.000Z</time>
      </trkpt>
      <trkpt lat="45.20846" lon="5.72701">
        <ele>713.59997558594</ele>
        <time>2021-09-11T07:01:59.000Z</time>
      </trkpt>
      <trkpt lat="45.20844" lon="5.72702">
        <ele>713.20001220703</ele>
        <time>2021-09-11T07:02:01.000Z</time>
      </trkpt>
      <trkpt lat="45.20841" lon="5.727">
        <ele>712.59997558594</ele>
        <time>2021-09-11T07:02:03.000Z</time>
      </trkpt>
      <trkpt lat="45.2084" lon="5.72701">
        <ele>712.59997558594</ele>
        <time>2021-09-11T07:02:04.000Z</time>
      </trkpt>
      <trkpt lat="45.2084" lon="5.72702">
        <ele>712.40002441406</ele>
        <time>2021-09-11T07:02:05.000Z</time>
      </trkpt>
      <trkpt lat="45.20839" lon="5.72708">
        <ele>713.59997558594</ele>
        <time>2021-09-11T07:02:11.000Z</time>
      </trkpt>
      <trkpt lat="45.20838" lon="5.72709">
        <ele>713.79998779297</ele>
        <time>2021-09-11T07:02:12.000Z</time>
      </trkpt>
      <trkpt lat="45.20838" lon="5.7271">
        <ele>714.40002441406</ele>
        <time>2021-09-11T07:02:13.000Z</time>
      </trkpt>
      <trkpt lat="45.20836" lon="5.72712">
        <ele>715</ele>
        <time>2021-09-11T07:02:15.000Z</time>
      </trkpt>
      <trkpt lat="45.20834" lon="5.72714">
        <ele>716.59997558594</ele>
        <time>2021-09-11T07:02:19.000Z</time>
      </trkpt>
      <trkpt lat="45.20834" lon="5.72714">
        <ele>717.20001220703</ele>
        <time>2021-09-11T07:02:20.000Z</time>
      </trkpt>
      <trkpt lat="45.20834" lon="5.72715">
        <ele>717.79998779297</ele>
        <time>2021-09-11T07:02:22.000Z</time>
      </trkpt>
      <trkpt lat="45.20834" lon="5.72719">
        <ele>719</ele>
        <time>2021-09-11T07:02:26.000Z</time>
      </trkpt>
      <trkpt lat="45.20833" lon="5.7272">
        <ele>719.20001220703</ele>
        <time>2021-09-11T07:02:27.000Z</time>
      </trkpt>
      <trkpt lat="45.20828" lon="5.72723">
        <ele>719.20001220703</ele>
        <time>2021-09-11T07:02:32.000Z</time>
      </trkpt>
      <trkpt lat="45.20826" lon="5.72727">
        <ele>719.20001220703</ele>
        <time>2021-09-11T07:02:35.000Z</time>
      </trkpt>
      <trkpt lat="45.20823" lon="5.72729">
        <ele>719</ele>
        <time>2021-09-11T07:02:38.000Z</time>
      </trkpt>
      <trkpt lat="45.20822" lon="5.72729">
        <ele>718.20001220703</ele>
        <time>2021-09-11T07:02:41.000Z</time>
      </trkpt>
      <trkpt lat="45.20821" lon="5.72729">
        <ele>717.79998779297</ele>
        <time>2021-09-11T07:02:42.000Z</time>
      </trkpt>
      <trkpt lat="45.2082" lon="5.7273">
        <ele>717.40002441406</ele>
        <time>2021-09-11T07:02:43.000Z</time>
      </trkpt>
      <trkpt lat="45.20818" lon="5.72731">
        <ele>717</ele>
        <time>2021-09-11T07:02:45.000Z</time>
      </trkpt>
      <trkpt lat="45.20817" lon="5.72731">
        <ele>716.79998779297</ele>
        <time>2021-09-11T07:02:47.000Z</time>
      </trkpt>
      <trkpt lat="45.20817" lon="5.72731">
        <ele>716.40002441406</ele>
        <time>2021-09-11T07:02:48.000Z</time>
      </trkpt>
      <trkpt lat="45.20816" lon="5.7273">
        <ele>716.20001220703</ele>
        <time>2021-09-11T07:02:50.000Z</time>
      </trkpt>
      <trkpt lat="45.20811" lon="5.72734">
        <ele>716</ele>
        <time>2021-09-11T07:02:54.000Z</time>
      </trkpt>
      <trkpt lat="45.20807" lon="5.72733">
        <ele>716</ele>
        <time>2021-09-11T07:02:58.000Z</time>
      </trkpt>
      <trkpt lat="45.20805" lon="5.72733">
        <ele>716.40002441406</ele>
        <time>2021-09-11T07:03:00.000Z</time>
      </trkpt>
      <trkpt lat="45.20802" lon="5.72731">
        <ele>717.59997558594</ele>
        <time>2021-09-11T07:03:04.000Z</time>
      </trkpt>
      <trkpt lat="45.20802" lon="5.7273">
        <ele>717.79998779297</ele>
        <time>2021-09-11T07:03:06.000Z</time>
      </trkpt>
      <trkpt lat="45.20802" lon="5.7273">
        <ele>717.79998779297</ele>
        <time>2021-09-11T07:03:07.000Z</time>
      </trkpt>
      <trkpt lat="45.20802" lon="5.72729">
        <ele>717.79998779297</ele>
        <time>2021-09-11T07:03:09.000Z</time>
      </trkpt>
      <trkpt lat="45.20802" lon="5.72729">
        <ele>717.40002441406</ele>
        <time>2021-09-11T07:03:18.000Z</time>
      </trkpt>
      <trkpt lat="45.20802" lon="5.7273">
        <ele>716.79998779297</ele>
        <time>2021-09-11T07:03:22.000Z</time>
      </trkpt>
      <trkpt lat="45.20804" lon="5.72729">
        <ele>715.59997558594</ele>
        <time>2021-09-11T07:03:27.000Z</time>
      </trkpt>
      <trkpt lat="45.20805" lon="5.72729">
        <ele>715.59997558594</ele>
        <time>2021-09-11T07:03:28.000Z</time>
      </trkpt>
      <trkpt lat="45.20807" lon="5.72729">
        <ele>715.59997558594</ele>
        <time>2021-09-11T07:03:29.000Z</time>
      </trkpt>
      <trkpt lat="45.20809" lon="5.72728">
        <ele>716</ele>
        <time>2021-09-11T07:03:31.000Z</time>
      </trkpt>
      <trkpt lat="45.20814" lon="5.72728">
        <ele>716.59997558594</ele>
        <time>2021-09-11T07:03:35.000Z</time>
      </trkpt>
      <trkpt lat="45.20816" lon="5.72727">
        <ele>716.79998779297</ele>
        <time>2021-09-11T07:03:37.000Z</time>
      </trkpt>
      <trkpt lat="45.20817" lon="5.72727">
        <ele>717.40002441406</ele>
        <time>2021-09-11T07:03:39.000Z</time>
      </trkpt>
      <trkpt lat="45.20818" lon="5.72726">
        <ele>718</ele>
        <time>2021-09-11T07:03:41.000Z</time>
      </trkpt>
      <trkpt lat="45.2082" lon="5.72726">
        <ele>718.40002441406</ele>
        <time>2021-09-11T07:03:43.000Z</time>
      </trkpt>
      <trkpt lat="45.20822" lon="5.72721">
        <ele>718.79998779297</ele>
        <time>2021-09-11T07:03:47.000Z</time>
      </trkpt>
      <trkpt lat="45.20823" lon="5.72721">
        <ele>718.79998779297</ele>
        <time>2021-09-11T07:03:48.000Z</time>
      </trkpt>
      <trkpt lat="45.20825" lon="5.72722">
        <ele>718.79998779297</ele>
        <time>2021-09-11T07:03:50.000Z</time>
      </trkpt>
      <trkpt lat="45.20827" lon="5.7272">
        <ele>718.79998779297</ele>
        <time>2021-09-11T07:03:53.000Z</time>
      </trkpt>
      <trkpt lat="45.20828" lon="5.72718">
        <ele>718.40002441406</ele>
        <time>2021-09-11T07:03:56.000Z</time>
      </trkpt>
      <trkpt lat="45.20829" lon="5.72716">
        <ele>717.59997558594</ele>
        <time>2021-09-11T07:03:59.000Z</time>
      </trkpt>
      <trkpt lat="45.20829" lon="5.72715">
        <ele>717</ele>
        <time>2021-09-11T07:04:01.000Z</time>
      </trkpt>
      <trkpt lat="45.20829" lon="5.72714">
        <ele>716.79998779297</ele>
        <time>2021-09-11T07:04:02.000Z</time>
      </trkpt>
      <trkpt lat="45.2083" lon="5.72712">
        <ele>716.20001220703</ele>
        <time>2021-09-11T07:04:04.000Z</time>
      </trkpt>
      <trkpt lat="45.2083" lon="5.72711">
        <ele>715.59997558594</ele>
        <time>2021-09-11T07:04:05.000Z</time>
      </trkpt>
      <trkpt lat="45.20831" lon="5.72711">
        <ele>715.40002441406</ele>
        <time>2021-09-11T07:04:06.000Z</time>
      </trkpt>
      <trkpt lat="45.20831" lon="5.72708">
        <ele>714.40002441406</ele>
        <time>2021-09-11T07:04:08.000Z</time>
      </trkpt>
      <trkpt lat="45.20831" lon="5.72705">
        <ele>713.40002441406</ele>
        <time>2021-09-11T07:04:10.000Z</time>
      </trkpt>
      <trkpt lat="45.20832" lon="5.72703">
        <ele>713</ele>
        <time>2021-09-11T07:04:11.000Z</time>
      </trkpt>
      <trkpt lat="45.20832" lon="5.72699">
        <ele>712</ele>
        <time>2021-09-11T07:04:14.000Z</time>
      </trkpt>
      <trkpt lat="45.20832" lon="5.72696">
        <ele>710.79998779297</ele>
        <time>2021-09-11T07:04:16.000Z</time>
      </trkpt>
      <trkpt lat="45.20833" lon="5.72692">
        <ele>710</ele>
        <time>2021-09-11T07:04:18.000Z</time>
      </trkpt>
      <trkpt lat="45.20833" lon="5.7269">
        <ele>709.59997558594</ele>
        <time>2021-09-11T07:04:19.000Z</time>
      </trkpt>
      <trkpt lat="45.20834" lon="5.72681">
        <ele>708.40002441406</ele>
        <time>2021-09-11T07:04:22.000Z</time>
      </trkpt>
      <trkpt lat="45.20833" lon="5.72674">
        <ele>707.20001220703</ele>
        <time>2021-09-11T07:04:25.000Z</time>
      </trkpt>
      <trkpt lat="45.20832" lon="5.72672">
        <ele>706.59997558594</ele>
        <time>2021-09-11T07:04:26.000Z</time>
      </trkpt>
      <trkpt lat="45.20831" lon="5.72671">
        <ele>705.79998779297</ele>
        <time>2021-09-11T07:04:27.000Z</time>
      </trkpt>
      <trkpt lat="45.20829" lon="5.72664">
        <ele>704.59997558594</ele>
        <time>2021-09-11T07:04:30.000Z</time>
      </trkpt>
      <trkpt lat="45.20828" lon="5.72661">
        <ele>704</ele>
        <time>2021-09-11T07:04:33.000Z</time>
      </trkpt>
      <trkpt lat="45.20828" lon="5.72661">
        <ele>703.40002441406</ele>
        <time>2021-09-11T07:04:34.000Z</time>
      </trkpt>
      <trkpt lat="45.20827" lon="5.72664">
        <ele>702.59997558594</ele>
        <time>2021-09-11T07:04:36.000Z</time>
      </trkpt>
      <trkpt lat="45.20826" lon="5.72665">
        <ele>702.20001220703</ele>
        <time>2021-09-11T07:04:37.000Z</time>
      </trkpt>
      <trkpt lat="45.20822" lon="5.72671">
        <ele>701</ele>
        <time>2021-09-11T07:04:40.000Z</time>
      </trkpt>
      <trkpt lat="45.20821" lon="5.72673">
        <ele>700.79998779297</ele>
        <time>2021-09-11T07:04:41.000Z</time>
      </trkpt>
      <trkpt lat="45.20816" lon="5.72677">
        <ele>699.59997558594</ele>
        <time>2021-09-11T07:04:44.000Z</time>
      </trkpt>
      <trkpt lat="45.20812" lon="5.72677">
        <ele>698.79998779297</ele>
        <time>2021-09-11T07:04:46.000Z</time>
      </trkpt>
      <trkpt lat="45.2081" lon="5.72676">
        <ele>698.40002441406</ele>
        <time>2021-09-11T07:04:47.000Z</time>
      </trkpt>
      <trkpt lat="45.20809" lon="5.7267">
        <ele>697.20001220703</ele>
        <time>2021-09-11T07:04:50.000Z</time>
      </trkpt>
      <trkpt lat="45.20807" lon="5.72661">
        <ele>695.79998779297</ele>
        <time>2021-09-11T07:04:53.000Z</time>
      </trkpt>
      <trkpt lat="45.20805" lon="5.72652">
        <ele>694.79998779297</ele>
        <time>2021-09-11T07:04:56.000Z</time>
      </trkpt>
      <trkpt lat="45.20804" lon="5.72646">
        <ele>693.59997558594</ele>
        <time>2021-09-11T07:04:59.000Z</time>
      </trkpt>
      <trkpt lat="45.20803" lon="5.72642">
        <ele>692.40002441406</ele>
        <time>2021-09-11T07:05:03.000Z</time>
      </trkpt>
      <trkpt lat="45.20802" lon="5.72641">
        <ele>692.20001220703</ele>
        <time>2021-09-11T07:05:04.000Z</time>
      </trkpt>
      <trkpt lat="45.20801" lon="5.72638">
        <ele>691</ele>
        <time>2021-09-11T07:05:06.000Z</time>
      </trkpt>
      <trkpt lat="45.20799" lon="5.72632">
        <ele>689.79998779297</ele>
        <time>2021-09-11T07:05:09.000Z</time>
      </trkpt>
      <trkpt lat="45.20798" lon="5.72632">
        <ele>689.40002441406</ele>
        <time>2021-09-11T07:05:10.000Z</time>
      </trkpt>
      <trkpt lat="45.20797" lon="5.72631">
        <ele>689.20001220703</ele>
        <time>2021-09-11T07:05:11.000Z</time>
      </trkpt>
      <trkpt lat="45.20797" lon="5.72631">
        <ele>689</ele>
        <time>2021-09-11T07:05:12.000Z</time>
      </trkpt>
      <trkpt lat="45.20798" lon="5.72631">
        <ele>688.79998779297</ele>
        <time>2021-09-11T07:05:13.000Z</time>
      </trkpt>
      <trkpt lat="45.20797" lon="5.72635">
        <ele>688</ele>
        <time>2021-09-11T07:05:15.000Z</time>
      </trkpt>
      <trkpt lat="45.20797" lon="5.72638">
        <ele>687.40002441406</ele>
        <time>2021-09-11T07:05:16.000Z</time>
      </trkpt>
      <trkpt lat="45.20793" lon="5.72643">
        <ele>686.20001220703</ele>
        <time>2021-09-11T07:05:19.000Z</time>
      </trkpt>
      <trkpt lat="45.20792" lon="5.72644">
        <ele>685.79998779297</ele>
        <time>2021-09-11T07:05:20.000Z</time>
      </trkpt>
      <trkpt lat="45.20789" lon="5.72645">
        <ele>685.40002441406</ele>
        <time>2021-09-11T07:05:22.000Z</time>
      </trkpt>
      <trkpt lat="45.20788" lon="5.72645">
        <ele>685</ele>
        <time>2021-09-11T07:05:23.000Z</time>
      </trkpt>
      <trkpt lat="45.20787" lon="5.72646">
        <ele>684.59997558594</ele>
        <time>2021-09-11T07:05:24.000Z</time>
      </trkpt>
      <trkpt lat="45.20786" lon="5.72648">
        <ele>684.40002441406</ele>
        <time>2021-09-11T07:05:25.000Z</time>
      </trkpt>
      <trkpt lat="45.20784" lon="5.72649">
        <ele>683.59997558594</ele>
        <time>2021-09-11T07:05:27.000Z</time>
      </trkpt>
      <trkpt lat="45.2078" lon="5.72649">
        <ele>682.59997558594</ele>
        <time>2021-09-11T07:05:30.000Z</time>
      </trkpt>
      <trkpt lat="45.20779" lon="5.72649">
        <ele>682.40002441406</ele>
        <time>2021-09-11T07:05:31.000Z</time>
      </trkpt>
      <trkpt lat="45.20776" lon="5.72647">
        <ele>681.40002441406</ele>
        <time>2021-09-11T07:05:33.000Z</time>
      </trkpt>
      <trkpt lat="45.20775" lon="5.72643">
        <ele>680.59997558594</ele>
        <time>2021-09-11T07:05:35.000Z</time>
      </trkpt>
      <trkpt lat="45.20775" lon="5.72642">
        <ele>680.20001220703</ele>
        <time>2021-09-11T07:05:36.000Z</time>
      </trkpt>
      <trkpt lat="45.20774" lon="5.72636">
        <ele>679</ele>
        <time>2021-09-11T07:05:39.000Z</time>
      </trkpt>
      <trkpt lat="45.20774" lon="5.72627">
        <ele>677.79998779297</ele>
        <time>2021-09-11T07:05:42.000Z</time>
      </trkpt>
      <trkpt lat="45.20773" lon="5.72621">
        <ele>677.20001220703</ele>
        <time>2021-09-11T07:05:44.000Z</time>
      </trkpt>
      <trkpt lat="45.20772" lon="5.72619">
        <ele>676.79998779297</ele>
        <time>2021-09-11T07:05:45.000Z</time>
      </trkpt>
      <trkpt lat="45.20771" lon="5.72614">
        <ele>675.59997558594</ele>
        <time>2021-09-11T07:05:48.000Z</time>
      </trkpt>
      <trkpt lat="45.2077" lon="5.72613">
        <ele>675.40002441406</ele>
        <time>2021-09-11T07:05:49.000Z</time>
      </trkpt>
      <trkpt lat="45.20769" lon="5.72613">
        <ele>674.79998779297</ele>
        <time>2021-09-11T07:05:50.000Z</time>
      </trkpt>
      <trkpt lat="45.20769" lon="5.72614">
        <ele>674.40002441406</ele>
        <time>2021-09-11T07:05:51.000Z</time>
      </trkpt>
      <trkpt lat="45.20766" lon="5.72616">
        <ele>673.20001220703</ele>
        <time>2021-09-11T07:05:54.000Z</time>
      </trkpt>
      <trkpt lat="45.20764" lon="5.72616">
        <ele>672.59997558594</ele>
        <time>2021-09-11T07:05:55.000Z</time>
      </trkpt>
      <trkpt lat="45.20763" lon="5.72617">
        <ele>672.20001220703</ele>
        <time>2021-09-11T07:05:56.000Z</time>
      </trkpt>
      <trkpt lat="45.20759" lon="5.72619">
        <ele>670.79998779297</ele>
        <time>2021-09-11T07:05:59.000Z</time>
      </trkpt>
      <trkpt lat="45.20755" lon="5.72619">
        <ele>670.40002441406</ele>
        <time>2021-09-11T07:06:01.000Z</time>
      </trkpt>
      <trkpt lat="45.20751" lon="5.72621">
        <ele>669.59997558594</ele>
        <time>2021-09-11T07:06:04.000Z</time>
      </trkpt>
      <trkpt lat="45.2075" lon="5.72621">
        <ele>669.20001220703</ele>
        <time>2021-09-11T07:06:05.000Z</time>
      </trkpt>
      <trkpt lat="45.20748" lon="5.72619">
        <ele>668.40002441406</ele>
        <time>2021-09-11T07:06:07.000Z</time>
      </trkpt>
      <trkpt lat="45.20747" lon="5.72617">
        <ele>668</ele>
        <time>2021-09-11T07:06:08.000Z</time>
      </trkpt>
      <trkpt lat="45.20747" lon="5.72612">
        <ele>667</ele>
        <time>2021-09-11T07:06:11.000Z</time>
      </trkpt>
      <trkpt lat="45.20747" lon="5.7261">
        <ele>666.40002441406</ele>
        <time>2021-09-11T07:06:12.000Z</time>
      </trkpt>
      <trkpt lat="45.20746" lon="5.72607">
        <ele>666</ele>
        <time>2021-09-11T07:06:14.000Z</time>
      </trkpt>
      <trkpt lat="45.20743" lon="5.72601">
        <ele>664.59997558594</ele>
        <time>2021-09-11T07:06:17.000Z</time>
      </trkpt>
      <trkpt lat="45.20739" lon="5.72591">
        <ele>663.20001220703</ele>
        <time>2021-09-11T07:06:21.000Z</time>
      </trkpt>
      <trkpt lat="45.20735" lon="5.7259">
        <ele>661.79998779297</ele>
        <time>2021-09-11T07:06:24.000Z</time>
      </trkpt>
      <trkpt lat="45.20732" lon="5.72587">
        <ele>660.79998779297</ele>
        <time>2021-09-11T07:06:26.000Z</time>
      </trkpt>
      <trkpt lat="45.2073" lon="5.72586">
        <ele>660.40002441406</ele>
        <time>2021-09-11T07:06:27.000Z</time>
      </trkpt>
      <trkpt lat="45.20726" lon="5.72584">
        <ele>659.59997558594</ele>
        <time>2021-09-11T07:06:29.000Z</time>
      </trkpt>
      <trkpt lat="45.20725" lon="5.72582">
        <ele>659.20001220703</ele>
        <time>2021-09-11T07:06:30.000Z</time>
      </trkpt>
      <trkpt lat="45.20722" lon="5.72582">
        <ele>658.40002441406</ele>
        <time>2021-09-11T07:06:32.000Z</time>
      </trkpt>
      <trkpt lat="45.20721" lon="5.72582">
        <ele>657.79998779297</ele>
        <time>2021-09-11T07:06:33.000Z</time>
      </trkpt>
      <trkpt lat="45.20719" lon="5.72581">
        <ele>657.40002441406</ele>
        <time>2021-09-11T07:06:34.000Z</time>
      </trkpt>
      <trkpt lat="45.20718" lon="5.72579">
        <ele>657.20001220703</ele>
        <time>2021-09-11T07:06:35.000Z</time>
      </trkpt>
      <trkpt lat="45.20718" lon="5.72579">
        <ele>656.79998779297</ele>
        <time>2021-09-11T07:06:36.000Z</time>
      </trkpt>
      <trkpt lat="45.20716" lon="5.72578">
        <ele>656.40002441406</ele>
        <time>2021-09-11T07:06:37.000Z</time>
      </trkpt>
      <trkpt lat="45.20715" lon="5.72578">
        <ele>656.20001220703</ele>
        <time>2021-09-11T07:06:38.000Z</time>
      </trkpt>
      <trkpt lat="45.20712" lon="5.72578">
        <ele>655</ele>
        <time>2021-09-11T07:06:41.000Z</time>
      </trkpt>
      <trkpt lat="45.2071" lon="5.72578">
        <ele>654.40002441406</ele>
        <time>2021-09-11T07:06:42.000Z</time>
      </trkpt>
      <trkpt lat="45.20709" lon="5.72577">
        <ele>654.20001220703</ele>
        <time>2021-09-11T07:06:43.000Z</time>
      </trkpt>
      <trkpt lat="45.20709" lon="5.72576">
        <ele>653.79998779297</ele>
        <time>2021-09-11T07:06:44.000Z</time>
      </trkpt>
      <trkpt lat="45.20706" lon="5.72574">
        <ele>653.40002441406</ele>
        <time>2021-09-11T07:06:46.000Z</time>
      </trkpt>
      <trkpt lat="45.20705" lon="5.72574">
        <ele>653.20001220703</ele>
        <time>2021-09-11T07:06:47.000Z</time>
      </trkpt>
      <trkpt lat="45.20699" lon="5.72573">
        <ele>652.40002441406</ele>
        <time>2021-09-11T07:06:50.000Z</time>
      </trkpt>
      <trkpt lat="45.20697" lon="5.72573">
        <ele>652</ele>
        <time>2021-09-11T07:06:51.000Z</time>
      </trkpt>
      <trkpt lat="45.20696" lon="5.72573">
        <ele>651.59997558594</ele>
        <time>2021-09-11T07:06:52.000Z</time>
      </trkpt>
      <trkpt lat="45.20695" lon="5.72574">
        <ele>651</ele>
        <time>2021-09-11T07:06:53.000Z</time>
      </trkpt>
      <trkpt lat="45.20689" lon="5.72576">
        <ele>650</ele>
        <time>2021-09-11T07:06:56.000Z</time>
      </trkpt>
      <trkpt lat="45.20687" lon="5.72577">
        <ele>649.79998779297</ele>
        <time>2021-09-11T07:06:57.000Z</time>
      </trkpt>
      <trkpt lat="45.20682" lon="5.7258">
        <ele>648.79998779297</ele>
        <time>2021-09-11T07:07:00.000Z</time>
      </trkpt>
      <trkpt lat="45.2068" lon="5.72581">
        <ele>648.40002441406</ele>
        <time>2021-09-11T07:07:01.000Z</time>
      </trkpt>
      <trkpt lat="45.20675" lon="5.72588">
        <ele>647.40002441406</ele>
        <time>2021-09-11T07:07:04.000Z</time>
      </trkpt>
      <trkpt lat="45.20669" lon="5.72595">
        <ele>646.59997558594</ele>
        <time>2021-09-11T07:07:07.000Z</time>
      </trkpt>
      <trkpt lat="45.20664" lon="5.72598">
        <ele>646.40002441406</ele>
        <time>2021-09-11T07:07:09.000Z</time>
      </trkpt>
      <trkpt lat="45.20658" lon="5.72605">
        <ele>645.59997558594</ele>
        <time>2021-09-11T07:07:12.000Z</time>
      </trkpt>
      <trkpt lat="45.20653" lon="5.72609">
        <ele>645.40002441406</ele>
        <time>2021-09-11T07:07:14.000Z</time>
      </trkpt>
      <trkpt lat="45.20644" lon="5.72613">
        <ele>644.59997558594</ele>
        <time>2021-09-11T07:07:17.000Z</time>
      </trkpt>
      <trkpt lat="45.20636" lon="5.72614">
        <ele>644.20001220703</ele>
        <time>2021-09-11T07:07:20.000Z</time>
      </trkpt>
      <trkpt lat="45.20632" lon="5.72611">
        <ele>644.20001220703</ele>
        <time>2021-09-11T07:07:22.000Z</time>
      </trkpt>
      <trkpt lat="45.20622" lon="5.72606">
        <ele>643</ele>
        <time>2021-09-11T07:07:26.000Z</time>
      </trkpt>
      <trkpt lat="45.20617" lon="5.72603">
        <ele>642.59997558594</ele>
        <time>2021-09-11T07:07:28.000Z</time>
      </trkpt>
      <trkpt lat="45.20612" lon="5.72598">
        <ele>641.79998779297</ele>
        <time>2021-09-11T07:07:30.000Z</time>
      </trkpt>
      <trkpt lat="45.20601" lon="5.72589">
        <ele>640.79998779297</ele>
        <time>2021-09-11T07:07:34.000Z</time>
      </trkpt>
      <trkpt lat="45.20589" lon="5.72578">
        <ele>639.79998779297</ele>
        <time>2021-09-11T07:07:40.000Z</time>
      </trkpt>
      <trkpt lat="45.20587" lon="5.72577">
        <ele>639.59997558594</ele>
        <time>2021-09-11T07:07:41.000Z</time>
      </trkpt>
      <trkpt lat="45.20575" lon="5.72572">
        <ele>638.40002441406</ele>
        <time>2021-09-11T07:07:46.000Z</time>
      </trkpt>
      <trkpt lat="45.20572" lon="5.7257">
        <ele>638</ele>
        <time>2021-09-11T07:07:47.000Z</time>
      </trkpt>
      <trkpt lat="45.20562" lon="5.72567">
        <ele>637.20001220703</ele>
        <time>2021-09-11T07:07:51.000Z</time>
      </trkpt>
      <trkpt lat="45.2056" lon="5.72567">
        <ele>637</ele>
        <time>2021-09-11T07:07:52.000Z</time>
      </trkpt>
      <trkpt lat="45.20544" lon="5.72568">
        <ele>636.20001220703</ele>
        <time>2021-09-11T07:07:58.000Z</time>
      </trkpt>
      <trkpt lat="45.20539" lon="5.72571">
        <ele>635.79998779297</ele>
        <time>2021-09-11T07:08:00.000Z</time>
      </trkpt>
      <trkpt lat="45.2053" lon="5.72572">
        <ele>635.79998779297</ele>
        <time>2021-09-11T07:08:03.000Z</time>
      </trkpt>
      <trkpt lat="45.20528" lon="5.72572">
        <ele>636</ele>
        <time>2021-09-11T07:08:04.000Z</time>
      </trkpt>
      <trkpt lat="45.20522" lon="5.72571">
        <ele>636.59997558594</ele>
        <time>2021-09-11T07:08:07.000Z</time>
      </trkpt>
      <trkpt lat="45.20517" lon="5.72569">
        <ele>637.20001220703</ele>
        <time>2021-09-11T07:08:09.000Z</time>
      </trkpt>
      <trkpt lat="45.20507" lon="5.72558">
        <ele>637.79998779297</ele>
        <time>2021-09-11T07:08:14.000Z</time>
      </trkpt>
      <trkpt lat="45.20505" lon="5.72556">
        <ele>638</ele>
        <time>2021-09-11T07:08:15.000Z</time>
      </trkpt>
      <trkpt lat="45.20494" lon="5.7254">
        <ele>637.59997558594</ele>
        <time>2021-09-11T07:08:21.000Z</time>
      </trkpt>
      <trkpt lat="45.20492" lon="5.72538">
        <ele>637.40002441406</ele>
        <time>2021-09-11T07:08:22.000Z</time>
      </trkpt>
      <trkpt lat="45.20486" lon="5.72517">
        <ele>636.79998779297</ele>
        <time>2021-09-11T07:08:27.000Z</time>
      </trkpt>
      <trkpt lat="45.20486" lon="5.72509">
        <ele>636.59997558594</ele>
        <time>2021-09-11T07:08:29.000Z</time>
      </trkpt>
      <trkpt lat="45.20485" lon="5.72505">
        <ele>636.40002441406</ele>
        <time>2021-09-11T07:08:30.000Z</time>
      </trkpt>
      <trkpt lat="45.20483" lon="5.72502">
        <ele>636.20001220703</ele>
        <time>2021-09-11T07:08:31.000Z</time>
      </trkpt>
      <trkpt lat="45.20482" lon="5.72498">
        <ele>636</ele>
        <time>2021-09-11T07:08:32.000Z</time>
      </trkpt>
      <trkpt lat="45.20479" lon="5.72476">
        <ele>636.59997558594</ele>
        <time>2021-09-11T07:08:38.000Z</time>
      </trkpt>
      <trkpt lat="45.20478" lon="5.72471">
        <ele>637.20001220703</ele>
        <time>2021-09-11T07:08:40.000Z</time>
      </trkpt>
      <trkpt lat="45.20478" lon="5.72459">
        <ele>638.40002441406</ele>
        <time>2021-09-11T07:08:44.000Z</time>
      </trkpt>
      <trkpt lat="45.20476" lon="5.72453">
        <ele>639.79998779297</ele>
        <time>2021-09-11T07:08:47.000Z</time>
      </trkpt>
      <trkpt lat="45.20472" lon="5.72443">
        <ele>640.59997558594</ele>
        <time>2021-09-11T07:08:51.000Z</time>
      </trkpt>
      <trkpt lat="45.20471" lon="5.7244">
        <ele>640.79998779297</ele>
        <time>2021-09-11T07:08:52.000Z</time>
      </trkpt>
      <trkpt lat="45.20464" lon="5.72431">
        <ele>641.20001220703</ele>
        <time>2021-09-11T07:08:56.000Z</time>
      </trkpt>
      <trkpt lat="45.20454" lon="5.72428">
        <ele>641</ele>
        <time>2021-09-11T07:09:01.000Z</time>
      </trkpt>
      <trkpt lat="45.20441" lon="5.72424">
        <ele>640.40002441406</ele>
        <time>2021-09-11T07:09:07.000Z</time>
      </trkpt>
      <trkpt lat="45.20439" lon="5.72425">
        <ele>640.20001220703</ele>
        <time>2021-09-11T07:09:08.000Z</time>
      </trkpt>
      <trkpt lat="45.2043" lon="5.72425">
        <ele>640.20001220703</ele>
        <time>2021-09-11T07:09:12.000Z</time>
      </trkpt>
      <trkpt lat="45.20427" lon="5.72425">
        <ele>640.40002441406</ele>
        <time>2021-09-11T07:09:14.000Z</time>
      </trkpt>
      <trkpt lat="45.20424" lon="5.72428">
        <ele>640.59997558594</ele>
        <time>2021-09-11T07:09:16.000Z</time>
      </trkpt>
      <trkpt lat="45.20412" lon="5.72432">
        <ele>641.20001220703</ele>
        <time>2021-09-11T07:09:22.000Z</time>
      </trkpt>
      <trkpt lat="45.20405" lon="5.72432">
        <ele>641.40002441406</ele>
        <time>2021-09-11T07:09:25.000Z</time>
      </trkpt>
      <trkpt lat="45.20401" lon="5.72429">
        <ele>641.40002441406</ele>
        <time>2021-09-11T07:09:27.000Z</time>
      </trkpt>
      <trkpt lat="45.20399" lon="5.7242">
        <ele>641.59997558594</ele>
        <time>2021-09-11T07:09:31.000Z</time>
      </trkpt>
      <trkpt lat="45.20399" lon="5.72419">
        <ele>641.59997558594</ele>
        <time>2021-09-11T07:09:32.000Z</time>
      </trkpt>
      <trkpt lat="45.20398" lon="5.72419">
        <ele>641.59997558594</ele>
        <time>2021-09-11T07:09:33.000Z</time>
      </trkpt>
      <trkpt lat="45.20393" lon="5.72424">
        <ele>641.20001220703</ele>
        <time>2021-09-11T07:09:37.000Z</time>
      </trkpt>
      <trkpt lat="45.20391" lon="5.72425">
        <ele>640.79998779297</ele>
        <time>2021-09-11T07:09:39.000Z</time>
      </trkpt>
      <trkpt lat="45.20388" lon="5.72427">
        <ele>639.79998779297</ele>
        <time>2021-09-11T07:09:42.000Z</time>
      </trkpt>
      <trkpt lat="45.20387" lon="5.72429">
        <ele>639.59997558594</ele>
        <time>2021-09-11T07:09:43.000Z</time>
      </trkpt>
      <trkpt lat="45.20387" lon="5.72438">
        <ele>639.20001220703</ele>
        <time>2021-09-11T07:09:46.000Z</time>
      </trkpt>
      <trkpt lat="45.20387" lon="5.72441">
        <ele>639.20001220703</ele>
        <time>2021-09-11T07:09:48.000Z</time>
      </trkpt>
      <trkpt lat="45.2039" lon="5.72442">
        <ele>639.40002441406</ele>
        <time>2021-09-11T07:09:51.000Z</time>
      </trkpt>
      <trkpt lat="45.20392" lon="5.72441">
        <ele>639.20001220703</ele>
        <time>2021-09-11T07:09:52.000Z</time>
      </trkpt>
      <trkpt lat="45.20399" lon="5.72436">
        <ele>638.59997558594</ele>
        <time>2021-09-11T07:09:56.000Z</time>
      </trkpt>
      <trkpt lat="45.20401" lon="5.72436">
        <ele>638.40002441406</ele>
        <time>2021-09-11T07:09:57.000Z</time>
      </trkpt>
      <trkpt lat="45.20403" lon="5.72437">
        <ele>638.20001220703</ele>
        <time>2021-09-11T07:09:58.000Z</time>
      </trkpt>
      <trkpt lat="45.20403" lon="5.72438">
        <ele>638</ele>
        <time>2021-09-11T07:09:59.000Z</time>
      </trkpt>
      <trkpt lat="45.20403" lon="5.72441">
        <ele>637.59997558594</ele>
        <time>2021-09-11T07:10:02.000Z</time>
      </trkpt>
      <trkpt lat="45.20404" lon="5.72441">
        <ele>637.40002441406</ele>
        <time>2021-09-11T07:10:03.000Z</time>
      </trkpt>
      <trkpt lat="45.20409" lon="5.72445">
        <ele>636.40002441406</ele>
        <time>2021-09-11T07:10:06.000Z</time>
      </trkpt>
      <trkpt lat="45.20411" lon="5.72447">
        <ele>636</ele>
        <time>2021-09-11T07:10:07.000Z</time>
      </trkpt>
      <trkpt lat="45.20418" lon="5.72455">
        <ele>635.40002441406</ele>
        <time>2021-09-11T07:10:10.000Z</time>
      </trkpt>
      <trkpt lat="45.20427" lon="5.72463">
        <ele>634.79998779297</ele>
        <time>2021-09-11T07:10:13.000Z</time>
      </trkpt>
      <trkpt lat="45.20439" lon="5.72469">
        <ele>634.59997558594</ele>
        <time>2021-09-11T07:10:19.000Z</time>
      </trkpt>
      <trkpt lat="45.2045" lon="5.72473">
        <ele>635.40002441406</ele>
        <time>2021-09-11T07:10:25.000Z</time>
      </trkpt>
      <trkpt lat="45.20451" lon="5.72473">
        <ele>635.40002441406</ele>
        <time>2021-09-11T07:10:26.000Z</time>
      </trkpt>
      <trkpt lat="45.20458" lon="5.72474">
        <ele>635.20001220703</ele>
        <time>2021-09-11T07:10:29.000Z</time>
      </trkpt>
      <trkpt lat="45.20464" lon="5.72478">
        <ele>635</ele>
        <time>2021-09-11T07:10:32.000Z</time>
      </trkpt>
      <trkpt lat="45.20474" lon="5.72484">
        <ele>635.40002441406</ele>
        <time>2021-09-11T07:10:37.000Z</time>
      </trkpt>
      <trkpt lat="45.20476" lon="5.72487">
        <ele>635.40002441406</ele>
        <time>2021-09-11T07:10:38.000Z</time>
      </trkpt>
      <trkpt lat="45.20485" lon="5.72508">
        <ele>635.59997558594</ele>
        <time>2021-09-11T07:10:43.000Z</time>
      </trkpt>
      <trkpt lat="45.20485" lon="5.72517">
        <ele>635.59997558594</ele>
        <time>2021-09-11T07:10:45.000Z</time>
      </trkpt>
      <trkpt lat="45.20485" lon="5.72528">
        <ele>635.59997558594</ele>
        <time>2021-09-11T07:10:48.000Z</time>
      </trkpt>
      <trkpt lat="45.20489" lon="5.72539">
        <ele>634.20001220703</ele>
        <time>2021-09-11T07:10:52.000Z</time>
      </trkpt>
      <trkpt lat="45.2049" lon="5.72542">
        <ele>634</ele>
        <time>2021-09-11T07:10:53.000Z</time>
      </trkpt>
      <trkpt lat="45.20492" lon="5.7255">
        <ele>633.20001220703</ele>
        <time>2021-09-11T07:10:56.000Z</time>
      </trkpt>
      <trkpt lat="45.20493" lon="5.72554">
        <ele>632.79998779297</ele>
        <time>2021-09-11T07:10:57.000Z</time>
      </trkpt>
      <trkpt lat="45.20493" lon="5.72559">
        <ele>631.79998779297</ele>
        <time>2021-09-11T07:10:59.000Z</time>
      </trkpt>
      <trkpt lat="45.20493" lon="5.72561">
        <ele>631.40002441406</ele>
        <time>2021-09-11T07:11:00.000Z</time>
      </trkpt>
      <trkpt lat="45.20491" lon="5.72563">
        <ele>631</ele>
        <time>2021-09-11T07:11:01.000Z</time>
      </trkpt>
      <trkpt lat="45.2049" lon="5.72563">
        <ele>630.79998779297</ele>
        <time>2021-09-11T07:11:02.000Z</time>
      </trkpt>
      <trkpt lat="45.20485" lon="5.72562">
        <ele>630</ele>
        <time>2021-09-11T07:11:04.000Z</time>
      </trkpt>
      <trkpt lat="45.2048" lon="5.72558">
        <ele>629.40002441406</ele>
        <time>2021-09-11T07:11:06.000Z</time>
      </trkpt>
      <trkpt lat="45.20474" lon="5.72551">
        <ele>628.79998779297</ele>
        <time>2021-09-11T07:11:09.000Z</time>
      </trkpt>
      <trkpt lat="45.20469" lon="5.72546">
        <ele>628</ele>
        <time>2021-09-11T07:11:11.000Z</time>
      </trkpt>
      <trkpt lat="45.20467" lon="5.72544">
        <ele>627.79998779297</ele>
        <time>2021-09-11T07:11:12.000Z</time>
      </trkpt>
      <trkpt lat="45.20461" lon="5.72538">
        <ele>627.20001220703</ele>
        <time>2021-09-11T07:11:15.000Z</time>
      </trkpt>
      <trkpt lat="45.20459" lon="5.72536">
        <ele>626.79998779297</ele>
        <time>2021-09-11T07:11:16.000Z</time>
      </trkpt>
      <trkpt lat="45.20455" lon="5.72528">
        <ele>625.79998779297</ele>
        <time>2021-09-11T07:11:19.000Z</time>
      </trkpt>
      <trkpt lat="45.20454" lon="5.72524">
        <ele>625.40002441406</ele>
        <time>2021-09-11T07:11:20.000Z</time>
      </trkpt>
      <trkpt lat="45.20452" lon="5.72522">
        <ele>625.20001220703</ele>
        <time>2021-09-11T07:11:21.000Z</time>
      </trkpt>
      <trkpt lat="45.20444" lon="5.7252">
        <ele>624.59997558594</ele>
        <time>2021-09-11T07:11:24.000Z</time>
      </trkpt>
      <trkpt lat="45.20438" lon="5.72522">
        <ele>623.79998779297</ele>
        <time>2021-09-11T07:11:28.000Z</time>
      </trkpt>
      <trkpt lat="45.20438" lon="5.72522">
        <ele>623.40002441406</ele>
        <time>2021-09-11T07:11:29.000Z</time>
      </trkpt>
      <trkpt lat="45.20438" lon="5.72521">
        <ele>623</ele>
        <time>2021-09-11T07:11:30.000Z</time>
      </trkpt>
      <trkpt lat="45.20438" lon="5.72522">
        <ele>622.59997558594</ele>
        <time>2021-09-11T07:11:32.000Z</time>
      </trkpt>
      <trkpt lat="45.20437" lon="5.72523">
        <ele>622.20001220703</ele>
        <time>2021-09-11T07:11:33.000Z</time>
      </trkpt>
      <trkpt lat="45.20436" lon="5.72524">
        <ele>621.20001220703</ele>
        <time>2021-09-11T07:11:35.000Z</time>
      </trkpt>
      <trkpt lat="45.20435" lon="5.72524">
        <ele>621</ele>
        <time>2021-09-11T07:11:36.000Z</time>
      </trkpt>
      <trkpt lat="45.20432" lon="5.72522">
        <ele>619.59997558594</ele>
        <time>2021-09-11T07:11:39.000Z</time>
      </trkpt>
      <trkpt lat="45.20431" lon="5.72522">
        <ele>619.20001220703</ele>
        <time>2021-09-11T07:11:40.000Z</time>
      </trkpt>
      <trkpt lat="45.20431" lon="5.72522">
        <ele>619</ele>
        <time>2021-09-11T07:11:41.000Z</time>
      </trkpt>
      <trkpt lat="45.2043" lon="5.72522">
        <ele>618.59997558594</ele>
        <time>2021-09-11T07:11:42.000Z</time>
      </trkpt>
      <trkpt lat="45.20431" lon="5.72524">
        <ele>617.40002441406</ele>
        <time>2021-09-11T07:11:45.000Z</time>
      </trkpt>
      <trkpt lat="45.20429" lon="5.72525">
        <ele>616.79998779297</ele>
        <time>2021-09-11T07:11:47.000Z</time>
      </trkpt>
      <trkpt lat="45.20428" lon="5.72526">
        <ele>616.40002441406</ele>
        <time>2021-09-11T07:11:48.000Z</time>
      </trkpt>
      <trkpt lat="45.20427" lon="5.72529">
        <ele>615.40002441406</ele>
        <time>2021-09-11T07:11:50.000Z</time>
      </trkpt>
      <trkpt lat="45.20426" lon="5.72532">
        <ele>614</ele>
        <time>2021-09-11T07:11:53.000Z</time>
      </trkpt>
      <trkpt lat="45.20425" lon="5.72532">
        <ele>613.59997558594</ele>
        <time>2021-09-11T07:11:54.000Z</time>
      </trkpt>
      <trkpt lat="45.20423" lon="5.72533">
        <ele>613</ele>
        <time>2021-09-11T07:11:56.000Z</time>
      </trkpt>
      <trkpt lat="45.20423" lon="5.72534">
        <ele>612.59997558594</ele>
        <time>2021-09-11T07:11:57.000Z</time>
      </trkpt>
      <trkpt lat="45.2042" lon="5.72537">
        <ele>611.59997558594</ele>
        <time>2021-09-11T07:12:00.000Z</time>
      </trkpt>
      <trkpt lat="45.20417" lon="5.72541">
        <ele>610.59997558594</ele>
        <time>2021-09-11T07:12:04.000Z</time>
      </trkpt>
      <trkpt lat="45.20417" lon="5.72542">
        <ele>610.20001220703</ele>
        <time>2021-09-11T07:12:05.000Z</time>
      </trkpt>
      <trkpt lat="45.20415" lon="5.72542">
        <ele>609.40002441406</ele>
        <time>2021-09-11T07:12:07.000Z</time>
      </trkpt>
      <trkpt lat="45.20414" lon="5.72542">
        <ele>608.79998779297</ele>
        <time>2021-09-11T07:12:09.000Z</time>
      </trkpt>
      <trkpt lat="45.20412" lon="5.72542">
        <ele>608.20001220703</ele>
        <time>2021-09-11T07:12:10.000Z</time>
      </trkpt>
      <trkpt lat="45.20408" lon="5.72541">
        <ele>607.40002441406</ele>
        <time>2021-09-11T07:12:13.000Z</time>
      </trkpt>
      <trkpt lat="45.20406" lon="5.72541">
        <ele>607</ele>
        <time>2021-09-11T07:12:14.000Z</time>
      </trkpt>
      <trkpt lat="45.20405" lon="5.72542">
        <ele>606.79998779297</ele>
        <time>2021-09-11T07:12:15.000Z</time>
      </trkpt>
      <trkpt lat="45.20404" lon="5.72543">
        <ele>606.20001220703</ele>
        <time>2021-09-11T07:12:17.000Z</time>
      </trkpt>
      <trkpt lat="45.20403" lon="5.72544">
        <ele>605.79998779297</ele>
        <time>2021-09-11T07:12:18.000Z</time>
      </trkpt>
      <trkpt lat="45.20403" lon="5.72544">
        <ele>605.20001220703</ele>
        <time>2021-09-11T07:12:19.000Z</time>
      </trkpt>
      <trkpt lat="45.20402" lon="5.72546">
        <ele>604.40002441406</ele>
        <time>2021-09-11T07:12:20.000Z</time>
      </trkpt>
      <trkpt lat="45.20401" lon="5.72547">
        <ele>603.79998779297</ele>
        <time>2021-09-11T07:12:21.000Z</time>
      </trkpt>
      <trkpt lat="45.20396" lon="5.72548">
        <ele>603.40002441406</ele>
        <time>2021-09-11T07:12:23.000Z</time>
      </trkpt>
      <trkpt lat="45.20392" lon="5.72546">
        <ele>602.59997558594</ele>
        <time>2021-09-11T07:12:25.000Z</time>
      </trkpt>
      <trkpt lat="45.2039" lon="5.72544">
        <ele>602.40002441406</ele>
        <time>2021-09-11T07:12:26.000Z</time>
      </trkpt>
      <trkpt lat="45.20388" lon="5.72544">
        <ele>601.79998779297</ele>
        <time>2021-09-11T07:12:27.000Z</time>
      </trkpt>
      <trkpt lat="45.20385" lon="5.72544">
        <ele>601.20001220703</ele>
        <time>2021-09-11T07:12:29.000Z</time>
      </trkpt>
      <trkpt lat="45.20384" lon="5.72543">
        <ele>600.59997558594</ele>
        <time>2021-09-11T07:12:30.000Z</time>
      </trkpt>
      <trkpt lat="45.20383" lon="5.72542">
        <ele>600.40002441406</ele>
        <time>2021-09-11T07:12:31.000Z</time>
      </trkpt>
      <trkpt lat="45.20382" lon="5.72542">
        <ele>599.79998779297</ele>
        <time>2021-09-11T07:12:32.000Z</time>
      </trkpt>
      <trkpt lat="45.20382" lon="5.72542">
        <ele>599.40002441406</ele>
        <time>2021-09-11T07:12:33.000Z</time>
      </trkpt>
      <trkpt lat="45.20381" lon="5.7254">
        <ele>598.59997558594</ele>
        <time>2021-09-11T07:12:35.000Z</time>
      </trkpt>
      <trkpt lat="45.2038" lon="5.72538">
        <ele>598</ele>
        <time>2021-09-11T07:12:36.000Z</time>
      </trkpt>
      <trkpt lat="45.20378" lon="5.72535">
        <ele>597.20001220703</ele>
        <time>2021-09-11T07:12:39.000Z</time>
      </trkpt>
      <trkpt lat="45.20376" lon="5.72535">
        <ele>596.59997558594</ele>
        <time>2021-09-11T07:12:40.000Z</time>
      </trkpt>
      <trkpt lat="45.20374" lon="5.72534">
        <ele>596.20001220703</ele>
        <time>2021-09-11T07:12:41.000Z</time>
      </trkpt>
      <trkpt lat="45.20373" lon="5.72534">
        <ele>595.59997558594</ele>
        <time>2021-09-11T07:12:42.000Z</time>
      </trkpt>
      <trkpt lat="45.20372" lon="5.72534">
        <ele>595.20001220703</ele>
        <time>2021-09-11T07:12:43.000Z</time>
      </trkpt>
      <trkpt lat="45.20369" lon="5.72533">
        <ele>594.40002441406</ele>
        <time>2021-09-11T07:12:45.000Z</time>
      </trkpt>
      <trkpt lat="45.20369" lon="5.72531">
        <ele>594.20001220703</ele>
        <time>2021-09-11T07:12:46.000Z</time>
      </trkpt>
      <trkpt lat="45.20367" lon="5.72529">
        <ele>593.59997558594</ele>
        <time>2021-09-11T07:12:48.000Z</time>
      </trkpt>
      <trkpt lat="45.20366" lon="5.72527">
        <ele>593.40002441406</ele>
        <time>2021-09-11T07:12:49.000Z</time>
      </trkpt>
      <trkpt lat="45.20366" lon="5.72526">
        <ele>593.20001220703</ele>
        <time>2021-09-11T07:12:50.000Z</time>
      </trkpt>
      <trkpt lat="45.20365" lon="5.72527">
        <ele>592.59997558594</ele>
        <time>2021-09-11T07:12:51.000Z</time>
      </trkpt>
      <trkpt lat="45.20365" lon="5.72527">
        <ele>592.40002441406</ele>
        <time>2021-09-11T07:12:52.000Z</time>
      </trkpt>
      <trkpt lat="45.20363" lon="5.72529">
        <ele>591</ele>
        <time>2021-09-11T07:12:55.000Z</time>
      </trkpt>
      <trkpt lat="45.20361" lon="5.7253">
        <ele>590.20001220703</ele>
        <time>2021-09-11T07:12:57.000Z</time>
      </trkpt>
      <trkpt lat="45.2036" lon="5.72531">
        <ele>589.79998779297</ele>
        <time>2021-09-11T07:12:58.000Z</time>
      </trkpt>
      <trkpt lat="45.20353" lon="5.72531">
        <ele>588.79998779297</ele>
        <time>2021-09-11T07:13:02.000Z</time>
      </trkpt>
      <trkpt lat="45.20351" lon="5.7253">
        <ele>588.40002441406</ele>
        <time>2021-09-11T07:13:03.000Z</time>
      </trkpt>
      <trkpt lat="45.20347" lon="5.72528">
        <ele>587.40002441406</ele>
        <time>2021-09-11T07:13:05.000Z</time>
      </trkpt>
      <trkpt lat="45.20346" lon="5.72529">
        <ele>586.79998779297</ele>
        <time>2021-09-11T07:13:06.000Z</time>
      </trkpt>
      <trkpt lat="45.20346" lon="5.72529">
        <ele>586.40002441406</ele>
        <time>2021-09-11T07:13:08.000Z</time>
      </trkpt>
      <trkpt lat="45.20346" lon="5.7253">
        <ele>586.40002441406</ele>
        <time>2021-09-11T07:13:09.000Z</time>
      </trkpt>
      <trkpt lat="45.20344" lon="5.7253">
        <ele>585.20001220703</ele>
        <time>2021-09-11T07:13:11.000Z</time>
      </trkpt>
      <trkpt lat="45.20343" lon="5.7253">
        <ele>584.59997558594</ele>
        <time>2021-09-11T07:13:12.000Z</time>
      </trkpt>
      <trkpt lat="45.20343" lon="5.7253">
        <ele>584.20001220703</ele>
        <time>2021-09-11T07:13:13.000Z</time>
      </trkpt>
      <trkpt lat="45.20342" lon="5.7253">
        <ele>584</ele>
        <time>2021-09-11T07:13:14.000Z</time>
      </trkpt>
      <trkpt lat="45.20341" lon="5.72529">
        <ele>583.20001220703</ele>
        <time>2021-09-11T07:13:18.000Z</time>
      </trkpt>
      <trkpt lat="45.2034" lon="5.72528">
        <ele>582.79998779297</ele>
        <time>2021-09-11T07:13:19.000Z</time>
      </trkpt>
      <trkpt lat="45.20339" lon="5.72528">
        <ele>582.40002441406</ele>
        <time>2021-09-11T07:13:20.000Z</time>
      </trkpt>
      <trkpt lat="45.20336" lon="5.72527">
        <ele>581.40002441406</ele>
        <time>2021-09-11T07:13:22.000Z</time>
      </trkpt>
      <trkpt lat="45.20335" lon="5.72527">
        <ele>580.79998779297</ele>
        <time>2021-09-11T07:13:23.000Z</time>
      </trkpt>
      <trkpt lat="45.20333" lon="5.72526">
        <ele>580.40002441406</ele>
        <time>2021-09-11T07:13:24.000Z</time>
      </trkpt>
      <trkpt lat="45.20332" lon="5.72525">
        <ele>579.59997558594</ele>
        <time>2021-09-11T07:13:25.000Z</time>
      </trkpt>
      <trkpt lat="45.20331" lon="5.72525">
        <ele>579.20001220703</ele>
        <time>2021-09-11T07:13:26.000Z</time>
      </trkpt>
      <trkpt lat="45.20328" lon="5.72525">
        <ele>578</ele>
        <time>2021-09-11T07:13:28.000Z</time>
      </trkpt>
      <trkpt lat="45.20326" lon="5.72526">
        <ele>577</ele>
        <time>2021-09-11T07:13:30.000Z</time>
      </trkpt>
      <trkpt lat="45.20319" lon="5.72527">
        <ele>575.79998779297</ele>
        <time>2021-09-11T07:13:33.000Z</time>
      </trkpt>
      <trkpt lat="45.20314" lon="5.72529">
        <ele>574.79998779297</ele>
        <time>2021-09-11T07:13:35.000Z</time>
      </trkpt>
      <trkpt lat="45.20309" lon="5.72531">
        <ele>573.59997558594</ele>
        <time>2021-09-11T07:13:37.000Z</time>
      </trkpt>
      <trkpt lat="45.20306" lon="5.72531">
        <ele>573</ele>
        <time>2021-09-11T07:13:38.000Z</time>
      </trkpt>
      <trkpt lat="45.20303" lon="5.72531">
        <ele>572.40002441406</ele>
        <time>2021-09-11T07:13:40.000Z</time>
      </trkpt>
      <trkpt lat="45.20297" lon="5.72531">
        <ele>571</ele>
        <time>2021-09-11T07:13:43.000Z</time>
      </trkpt>
      <trkpt lat="45.20295" lon="5.72531">
        <ele>570.59997558594</ele>
        <time>2021-09-11T07:13:44.000Z</time>
      </trkpt>
      <trkpt lat="45.20288" lon="5.7253">
        <ele>569.40002441406</ele>
        <time>2021-09-11T07:13:46.000Z</time>
      </trkpt>
      <trkpt lat="45.20279" lon="5.72531">
        <ele>568.59997558594</ele>
        <time>2021-09-11T07:13:49.000Z</time>
      </trkpt>
      <trkpt lat="45.20277" lon="5.72531">
        <ele>568.40002441406</ele>
        <time>2021-09-11T07:13:50.000Z</time>
      </trkpt>
      <trkpt lat="45.20273" lon="5.72532">
        <ele>567.40002441406</ele>
        <time>2021-09-11T07:13:52.000Z</time>
      </trkpt>
      <trkpt lat="45.20269" lon="5.72533">
        <ele>566</ele>
        <time>2021-09-11T07:13:54.000Z</time>
      </trkpt>
      <trkpt lat="45.20263" lon="5.72533">
        <ele>565.20001220703</ele>
        <time>2021-09-11T07:13:56.000Z</time>
      </trkpt>
      <trkpt lat="45.20261" lon="5.72533">
        <ele>564.79998779297</ele>
        <time>2021-09-11T07:13:57.000Z</time>
      </trkpt>
      <trkpt lat="45.20259" lon="5.72532">
        <ele>563.59997558594</ele>
        <time>2021-09-11T07:13:59.000Z</time>
      </trkpt>
      <trkpt lat="45.20259" lon="5.72532">
        <ele>563.20001220703</ele>
        <time>2021-09-11T07:14:00.000Z</time>
      </trkpt>
      <trkpt lat="45.20254" lon="5.72533">
        <ele>562</ele>
        <time>2021-09-11T07:14:03.000Z</time>
      </trkpt>
      <trkpt lat="45.20252" lon="5.72532">
        <ele>560.59997558594</ele>
        <time>2021-09-11T07:14:05.000Z</time>
      </trkpt>
      <trkpt lat="45.2025" lon="5.72532">
        <ele>559.79998779297</ele>
        <time>2021-09-11T07:14:07.000Z</time>
      </trkpt>
      <trkpt lat="45.20248" lon="5.72531">
        <ele>559.40002441406</ele>
        <time>2021-09-11T07:14:08.000Z</time>
      </trkpt>
      <trkpt lat="45.20245" lon="5.72529">
        <ele>558.20001220703</ele>
        <time>2021-09-11T07:14:10.000Z</time>
      </trkpt>
      <trkpt lat="45.20242" lon="5.72529">
        <ele>557.20001220703</ele>
        <time>2021-09-11T07:14:12.000Z</time>
      </trkpt>
      <trkpt lat="45.20237" lon="5.72531">
        <ele>556</ele>
        <time>2021-09-11T07:14:15.000Z</time>
      </trkpt>
      <trkpt lat="45.20234" lon="5.7253">
        <ele>555.59997558594</ele>
        <time>2021-09-11T07:14:17.000Z</time>
      </trkpt>
      <trkpt lat="45.20231" lon="5.7253">
        <ele>555</ele>
        <time>2021-09-11T07:14:19.000Z</time>
      </trkpt>
      <trkpt lat="45.20227" lon="5.72532">
        <ele>553.59997558594</ele>
        <time>2021-09-11T07:14:22.000Z</time>
      </trkpt>
      <trkpt lat="45.20224" lon="5.72531">
        <ele>552.40002441406</ele>
        <time>2021-09-11T07:14:24.000Z</time>
      </trkpt>
      <trkpt lat="45.20222" lon="5.7253">
        <ele>551.40002441406</ele>
        <time>2021-09-11T07:14:26.000Z</time>
      </trkpt>
      <trkpt lat="45.20221" lon="5.7253">
        <ele>550.79998779297</ele>
        <time>2021-09-11T07:14:27.000Z</time>
      </trkpt>
      <trkpt lat="45.20219" lon="5.7253">
        <ele>550.40002441406</ele>
        <time>2021-09-11T07:14:28.000Z</time>
      </trkpt>
      <trkpt lat="45.20216" lon="5.72529">
        <ele>549.79998779297</ele>
        <time>2021-09-11T07:14:30.000Z</time>
      </trkpt>
      <trkpt lat="45.20214" lon="5.72528">
        <ele>549.59997558594</ele>
        <time>2021-09-11T07:14:31.000Z</time>
      </trkpt>
      <trkpt lat="45.20213" lon="5.72525">
        <ele>548.79998779297</ele>
        <time>2021-09-11T07:14:32.000Z</time>
      </trkpt>
      <trkpt lat="45.20211" lon="5.72523">
        <ele>548.20001220703</ele>
        <time>2021-09-11T07:14:33.000Z</time>
      </trkpt>
      <trkpt lat="45.20205" lon="5.72517">
        <ele>547.40002441406</ele>
        <time>2021-09-11T07:14:36.000Z</time>
      </trkpt>
      <trkpt lat="45.20203" lon="5.72516">
        <ele>546.79998779297</ele>
        <time>2021-09-11T07:14:37.000Z</time>
      </trkpt>
      <trkpt lat="45.20201" lon="5.72515">
        <ele>546.40002441406</ele>
        <time>2021-09-11T07:14:38.000Z</time>
      </trkpt>
      <trkpt lat="45.20196" lon="5.72511">
        <ele>545.40002441406</ele>
        <time>2021-09-11T07:14:41.000Z</time>
      </trkpt>
      <trkpt lat="45.20191" lon="5.72507">
        <ele>544.40002441406</ele>
        <time>2021-09-11T07:14:43.000Z</time>
      </trkpt>
      <trkpt lat="45.20189" lon="5.72505">
        <ele>544.20001220703</ele>
        <time>2021-09-11T07:14:44.000Z</time>
      </trkpt>
      <trkpt lat="45.20182" lon="5.725">
        <ele>543</ele>
        <time>2021-09-11T07:14:49.000Z</time>
      </trkpt>
      <trkpt lat="45.2018" lon="5.72499">
        <ele>542.40002441406</ele>
        <time>2021-09-11T07:14:50.000Z</time>
      </trkpt>
      <trkpt lat="45.20179" lon="5.72497">
        <ele>542</ele>
        <time>2021-09-11T07:14:51.000Z</time>
      </trkpt>
      <trkpt lat="45.20173" lon="5.72491">
        <ele>540.59997558594</ele>
        <time>2021-09-11T07:14:56.000Z</time>
      </trkpt>
      <trkpt lat="45.20171" lon="5.72489">
        <ele>539.79998779297</ele>
        <time>2021-09-11T07:14:58.000Z</time>
      </trkpt>
      <trkpt lat="45.2017" lon="5.72488">
        <ele>539.20001220703</ele>
        <time>2021-09-11T07:14:59.000Z</time>
      </trkpt>
      <trkpt lat="45.20168" lon="5.72484">
        <ele>538</ele>
        <time>2021-09-11T07:15:02.000Z</time>
      </trkpt>
      <trkpt lat="45.20167" lon="5.72483">
        <ele>537.79998779297</ele>
        <time>2021-09-11T07:15:03.000Z</time>
      </trkpt>
      <trkpt lat="45.20165" lon="5.72481">
        <ele>537.20001220703</ele>
        <time>2021-09-11T07:15:05.000Z</time>
      </trkpt>
      <trkpt lat="45.20164" lon="5.72479">
        <ele>536.79998779297</ele>
        <time>2021-09-11T07:15:06.000Z</time>
      </trkpt>
      <trkpt lat="45.20163" lon="5.72477">
        <ele>535.59997558594</ele>
        <time>2021-09-11T07:15:08.000Z</time>
      </trkpt>
      <trkpt lat="45.20162" lon="5.72476">
        <ele>535.20001220703</ele>
        <time>2021-09-11T07:15:09.000Z</time>
      </trkpt>
      <trkpt lat="45.20159" lon="5.72476">
        <ele>534.59997558594</ele>
        <time>2021-09-11T07:15:11.000Z</time>
      </trkpt>
      <trkpt lat="45.20156" lon="5.72472">
        <ele>533.40002441406</ele>
        <time>2021-09-11T07:15:14.000Z</time>
      </trkpt>
      <trkpt lat="45.20155" lon="5.72471">
        <ele>532.79998779297</ele>
        <time>2021-09-11T07:15:15.000Z</time>
      </trkpt>
      <trkpt lat="45.20155" lon="5.72471">
        <ele>532.20001220703</ele>
        <time>2021-09-11T07:15:16.000Z</time>
      </trkpt>
      <trkpt lat="45.20154" lon="5.72467">
        <ele>531</ele>
        <time>2021-09-11T07:15:19.000Z</time>
      </trkpt>
      <trkpt lat="45.20152" lon="5.72467">
        <ele>530.40002441406</ele>
        <time>2021-09-11T07:15:21.000Z</time>
      </trkpt>
      <trkpt lat="45.20151" lon="5.72466">
        <ele>529.79998779297</ele>
        <time>2021-09-11T07:15:23.000Z</time>
      </trkpt>
      <trkpt lat="45.20149" lon="5.72464">
        <ele>528.59997558594</ele>
        <time>2021-09-11T07:15:26.000Z</time>
      </trkpt>
      <trkpt lat="45.20148" lon="5.72463">
        <ele>527.79998779297</ele>
        <time>2021-09-11T07:15:28.000Z</time>
      </trkpt>
      <trkpt lat="45.20147" lon="5.72462">
        <ele>527.40002441406</ele>
        <time>2021-09-11T07:15:29.000Z</time>
      </trkpt>
      <trkpt lat="45.20145" lon="5.72462">
        <ele>527</ele>
        <time>2021-09-11T07:15:31.000Z</time>
      </trkpt>
      <trkpt lat="45.20144" lon="5.72464">
        <ele>526</ele>
        <time>2021-09-11T07:15:33.000Z</time>
      </trkpt>
      <trkpt lat="45.20143" lon="5.72466">
        <ele>525.59997558594</ele>
        <time>2021-09-11T07:15:34.000Z</time>
      </trkpt>
      <trkpt lat="45.20142" lon="5.72467">
        <ele>524.59997558594</ele>
        <time>2021-09-11T07:15:36.000Z</time>
      </trkpt>
      <trkpt lat="45.20141" lon="5.72466">
        <ele>524</ele>
        <time>2021-09-11T07:15:38.000Z</time>
      </trkpt>
      <trkpt lat="45.20141" lon="5.7247">
        <ele>523.40002441406</ele>
        <time>2021-09-11T07:15:40.000Z</time>
      </trkpt>
      <trkpt lat="45.20139" lon="5.72471">
        <ele>522.79998779297</ele>
        <time>2021-09-11T07:15:42.000Z</time>
      </trkpt>
      <trkpt lat="45.20138" lon="5.72471">
        <ele>522.20001220703</ele>
        <time>2021-09-11T07:15:43.000Z</time>
      </trkpt>
      <trkpt lat="45.20137" lon="5.72473">
        <ele>521.79998779297</ele>
        <time>2021-09-11T07:15:44.000Z</time>
      </trkpt>
      <trkpt lat="45.20137" lon="5.72476">
        <ele>521</ele>
        <time>2021-09-11T07:15:46.000Z</time>
      </trkpt>
      <trkpt lat="45.20134" lon="5.72483">
        <ele>519.79998779297</ele>
        <time>2021-09-11T07:15:50.000Z</time>
      </trkpt>
      <trkpt lat="45.20132" lon="5.72487">
        <ele>519</ele>
        <time>2021-09-11T07:15:52.000Z</time>
      </trkpt>
      <trkpt lat="45.20131" lon="5.72488">
        <ele>518.40002441406</ele>
        <time>2021-09-11T07:15:53.000Z</time>
      </trkpt>
      <trkpt lat="45.20129" lon="5.72495">
        <ele>517</ele>
        <time>2021-09-11T07:15:56.000Z</time>
      </trkpt>
      <trkpt lat="45.20126" lon="5.72499">
        <ele>516</ele>
        <time>2021-09-11T07:15:58.000Z</time>
      </trkpt>
      <trkpt lat="45.20125" lon="5.72501">
        <ele>515.40002441406</ele>
        <time>2021-09-11T07:15:59.000Z</time>
      </trkpt>
      <trkpt lat="45.20123" lon="5.72504">
        <ele>514.59997558594</ele>
        <time>2021-09-11T07:16:01.000Z</time>
      </trkpt>
      <trkpt lat="45.2012" lon="5.7251">
        <ele>514</ele>
        <time>2021-09-11T07:16:03.000Z</time>
      </trkpt>
      <trkpt lat="45.20118" lon="5.72512">
        <ele>513.59997558594</ele>
        <time>2021-09-11T07:16:05.000Z</time>
      </trkpt>
      <trkpt lat="45.20117" lon="5.72514">
        <ele>513</ele>
        <time>2021-09-11T07:16:06.000Z</time>
      </trkpt>
      <trkpt lat="45.20115" lon="5.72518">
        <ele>511.79998779297</ele>
        <time>2021-09-11T07:16:08.000Z</time>
      </trkpt>
      <trkpt lat="45.20116" lon="5.7252">
        <ele>511.39999389648</ele>
        <time>2021-09-11T07:16:09.000Z</time>
      </trkpt>
      <trkpt lat="45.20116" lon="5.72522">
        <ele>510.79998779297</ele>
        <time>2021-09-11T07:16:10.000Z</time>
      </trkpt>
      <trkpt lat="45.20115" lon="5.72525">
        <ele>510.39999389648</ele>
        <time>2021-09-11T07:16:11.000Z</time>
      </trkpt>
      <trkpt lat="45.20115" lon="5.72527">
        <ele>510</ele>
        <time>2021-09-11T07:16:12.000Z</time>
      </trkpt>
      <trkpt lat="45.20115" lon="5.7253">
        <ele>509.60000610352</ele>
        <time>2021-09-11T07:16:13.000Z</time>
      </trkpt>
      <trkpt lat="45.20117" lon="5.72539">
        <ele>508.79998779297</ele>
        <time>2021-09-11T07:16:17.000Z</time>
      </trkpt>
      <trkpt lat="45.20118" lon="5.72541">
        <ele>508.39999389648</ele>
        <time>2021-09-11T07:16:18.000Z</time>
      </trkpt>
      <trkpt lat="45.20127" lon="5.72547">
        <ele>508.20001220703</ele>
        <time>2021-09-11T07:16:23.000Z</time>
      </trkpt>
      <trkpt lat="45.20137" lon="5.72549">
        <ele>509.39999389648</ele>
        <time>2021-09-11T07:16:29.000Z</time>
      </trkpt>
      <trkpt lat="45.20139" lon="5.7255">
        <ele>509.79998779297</ele>
        <time>2021-09-11T07:16:30.000Z</time>
      </trkpt>
      <trkpt lat="45.20144" lon="5.72553">
        <ele>510.60000610352</ele>
        <time>2021-09-11T07:16:33.000Z</time>
      </trkpt>
      <trkpt lat="45.20152" lon="5.72556">
        <ele>511.60000610352</ele>
        <time>2021-09-11T07:16:38.000Z</time>
      </trkpt>
      <trkpt lat="45.20154" lon="5.72557">
        <ele>511.79998779297</ele>
        <time>2021-09-11T07:16:39.000Z</time>
      </trkpt>
      <trkpt lat="45.20158" lon="5.72559">
        <ele>512.20001220703</ele>
        <time>2021-09-11T07:16:41.000Z</time>
      </trkpt>
      <trkpt lat="45.20163" lon="5.72562">
        <ele>513</ele>
        <time>2021-09-11T07:16:44.000Z</time>
      </trkpt>
      <trkpt lat="45.20168" lon="5.72565">
        <ele>513.59997558594</ele>
        <time>2021-09-11T07:16:47.000Z</time>
      </trkpt>
      <trkpt lat="45.20171" lon="5.72567">
        <ele>514</ele>
        <time>2021-09-11T07:16:49.000Z</time>
      </trkpt>
      <trkpt lat="45.20181" lon="5.72572">
        <ele>515.20001220703</ele>
        <time>2021-09-11T07:16:54.000Z</time>
      </trkpt>
      <trkpt lat="45.20187" lon="5.72576">
        <ele>516.40002441406</ele>
        <time>2021-09-11T07:16:58.000Z</time>
      </trkpt>
      <trkpt lat="45.2019" lon="5.72577">
        <ele>516.79998779297</ele>
        <time>2021-09-11T07:17:00.000Z</time>
      </trkpt>
      <trkpt lat="45.20195" lon="5.7258">
        <ele>517.40002441406</ele>
        <time>2021-09-11T07:17:03.000Z</time>
      </trkpt>
      <trkpt lat="45.20201" lon="5.72584">
        <ele>518</ele>
        <time>2021-09-11T07:17:07.000Z</time>
      </trkpt>
      <trkpt lat="45.20203" lon="5.72586">
        <ele>518.20001220703</ele>
        <time>2021-09-11T07:17:08.000Z</time>
      </trkpt>
      <trkpt lat="45.20204" lon="5.72586">
        <ele>518.40002441406</ele>
        <time>2021-09-11T07:17:09.000Z</time>
      </trkpt>
      <trkpt lat="45.2021" lon="5.72589">
        <ele>519.79998779297</ele>
        <time>2021-09-11T07:17:13.000Z</time>
      </trkpt>
      <trkpt lat="45.20211" lon="5.7259">
        <ele>520</ele>
        <time>2021-09-11T07:17:14.000Z</time>
      </trkpt>
      <trkpt lat="45.20216" lon="5.72592">
        <ele>520.79998779297</ele>
        <time>2021-09-11T07:17:17.000Z</time>
      </trkpt>
      <trkpt lat="45.20222" lon="5.72597">
        <ele>521.79998779297</ele>
        <time>2021-09-11T07:17:22.000Z</time>
      </trkpt>
      <trkpt lat="45.20227" lon="5.72601">
        <ele>522.79998779297</ele>
        <time>2021-09-11T07:17:26.000Z</time>
      </trkpt>
      <trkpt lat="45.20234" lon="5.72606">
        <ele>524.20001220703</ele>
        <time>2021-09-11T07:17:31.000Z</time>
      </trkpt>
      <trkpt lat="45.20236" lon="5.72606">
        <ele>524.40002441406</ele>
        <time>2021-09-11T07:17:32.000Z</time>
      </trkpt>
      <trkpt lat="45.2024" lon="5.72606">
        <ele>525.20001220703</ele>
        <time>2021-09-11T07:17:35.000Z</time>
      </trkpt>
      <trkpt lat="45.20243" lon="5.72606">
        <ele>525.79998779297</ele>
        <time>2021-09-11T07:17:37.000Z</time>
      </trkpt>
      <trkpt lat="45.20247" lon="5.72606">
        <ele>526.40002441406</ele>
        <time>2021-09-11T07:17:39.000Z</time>
      </trkpt>
      <trkpt lat="45.20255" lon="5.72607">
        <ele>527.40002441406</ele>
        <time>2021-09-11T07:17:44.000Z</time>
      </trkpt>
      <trkpt lat="45.20259" lon="5.72606">
        <ele>528</ele>
        <time>2021-09-11T07:17:46.000Z</time>
      </trkpt>
      <trkpt lat="45.20264" lon="5.72605">
        <ele>528.40002441406</ele>
        <time>2021-09-11T07:17:49.000Z</time>
      </trkpt>
      <trkpt lat="45.20273" lon="5.72604">
        <ele>529.59997558594</ele>
        <time>2021-09-11T07:17:54.000Z</time>
      </trkpt>
      <trkpt lat="45.20275" lon="5.72603">
        <ele>529.79998779297</ele>
        <time>2021-09-11T07:17:55.000Z</time>
      </trkpt>
      <trkpt lat="45.20281" lon="5.72603">
        <ele>530.79998779297</ele>
        <time>2021-09-11T07:17:59.000Z</time>
      </trkpt>
      <trkpt lat="45.20289" lon="5.72603">
        <ele>532</ele>
        <time>2021-09-11T07:18:03.000Z</time>
      </trkpt>
      <trkpt lat="45.20297" lon="5.72604">
        <ele>533</ele>
        <time>2021-09-11T07:18:08.000Z</time>
      </trkpt>
      <trkpt lat="45.20302" lon="5.72604">
        <ele>533.59997558594</ele>
        <time>2021-09-11T07:18:11.000Z</time>
      </trkpt>
      <trkpt lat="45.20305" lon="5.72604">
        <ele>534.20001220703</ele>
        <time>2021-09-11T07:18:13.000Z</time>
      </trkpt>
      <trkpt lat="45.20311" lon="5.72606">
        <ele>535.20001220703</ele>
        <time>2021-09-11T07:18:17.000Z</time>
      </trkpt>
      <trkpt lat="45.20313" lon="5.72606">
        <ele>535.40002441406</ele>
        <time>2021-09-11T07:18:18.000Z</time>
      </trkpt>
      <trkpt lat="45.2032" lon="5.72609">
        <ele>536.40002441406</ele>
        <time>2021-09-11T07:18:23.000Z</time>
      </trkpt>
      <trkpt lat="45.20327" lon="5.7261">
        <ele>537.59997558594</ele>
        <time>2021-09-11T07:18:28.000Z</time>
      </trkpt>
      <trkpt lat="45.20328" lon="5.72611">
        <ele>537.79998779297</ele>
        <time>2021-09-11T07:18:29.000Z</time>
      </trkpt>
      <trkpt lat="45.20332" lon="5.72614">
        <ele>538.79998779297</ele>
        <time>2021-09-11T07:18:33.000Z</time>
      </trkpt>
      <trkpt lat="45.20334" lon="5.72616">
        <ele>539</ele>
        <time>2021-09-11T07:18:34.000Z</time>
      </trkpt>
      <trkpt lat="45.2034" lon="5.72619">
        <ele>539.79998779297</ele>
        <time>2021-09-11T07:18:37.000Z</time>
      </trkpt>
      <trkpt lat="45.20344" lon="5.72623">
        <ele>541</ele>
        <time>2021-09-11T07:18:41.000Z</time>
      </trkpt>
      <trkpt lat="45.20353" lon="5.7263">
        <ele>542.20001220703</ele>
        <time>2021-09-11T07:18:46.000Z</time>
      </trkpt>
      <trkpt lat="45.20356" lon="5.72631">
        <ele>542.79998779297</ele>
        <time>2021-09-11T07:18:48.000Z</time>
      </trkpt>
      <trkpt lat="45.20359" lon="5.72634">
        <ele>543.20001220703</ele>
        <time>2021-09-11T07:18:50.000Z</time>
      </trkpt>
      <trkpt lat="45.20364" lon="5.72639">
        <ele>544.20001220703</ele>
        <time>2021-09-11T07:18:54.000Z</time>
      </trkpt>
      <trkpt lat="45.20368" lon="5.72641">
        <ele>544.79998779297</ele>
        <time>2021-09-11T07:18:56.000Z</time>
      </trkpt>
      <trkpt lat="45.20371" lon="5.72644">
        <ele>545.40002441406</ele>
        <time>2021-09-11T07:18:58.000Z</time>
      </trkpt>
      <trkpt lat="45.20374" lon="5.72648">
        <ele>545.79998779297</ele>
        <time>2021-09-11T07:19:01.000Z</time>
      </trkpt>
      <trkpt lat="45.20378" lon="5.72652">
        <ele>546.40002441406</ele>
        <time>2021-09-11T07:19:04.000Z</time>
      </trkpt>
      <trkpt lat="45.2038" lon="5.72654">
        <ele>546.59997558594</ele>
        <time>2021-09-11T07:19:05.000Z</time>
      </trkpt>
      <trkpt lat="45.20382" lon="5.72657">
        <ele>546.79998779297</ele>
        <time>2021-09-11T07:19:07.000Z</time>
      </trkpt>
      <trkpt lat="45.20386" lon="5.72659">
        <ele>547.59997558594</ele>
        <time>2021-09-11T07:19:10.000Z</time>
      </trkpt>
      <trkpt lat="45.20388" lon="5.7266">
        <ele>547.79998779297</ele>
        <time>2021-09-11T07:19:11.000Z</time>
      </trkpt>
      <trkpt lat="45.20392" lon="5.72668">
        <ele>548.79998779297</ele>
        <time>2021-09-11T07:19:15.000Z</time>
      </trkpt>
      <trkpt lat="45.20395" lon="5.7267">
        <ele>549.20001220703</ele>
        <time>2021-09-11T07:19:17.000Z</time>
      </trkpt>
      <trkpt lat="45.20399" lon="5.72675">
        <ele>549.79998779297</ele>
        <time>2021-09-11T07:19:19.000Z</time>
      </trkpt>
      <trkpt lat="45.20401" lon="5.72677">
        <ele>550</ele>
        <time>2021-09-11T07:19:20.000Z</time>
      </trkpt>
      <trkpt lat="45.20402" lon="5.72679">
        <ele>550.20001220703</ele>
        <time>2021-09-11T07:19:21.000Z</time>
      </trkpt>
      <trkpt lat="45.20403" lon="5.72681">
        <ele>550.40002441406</ele>
        <time>2021-09-11T07:19:22.000Z</time>
      </trkpt>
      <trkpt lat="45.20404" lon="5.72683">
        <ele>550.79998779297</ele>
        <time>2021-09-11T07:19:23.000Z</time>
      </trkpt>
      <trkpt lat="45.20405" lon="5.72685">
        <ele>551</ele>
        <time>2021-09-11T07:19:24.000Z</time>
      </trkpt>
      <trkpt lat="45.20412" lon="5.7269">
        <ele>552.40002441406</ele>
        <time>2021-09-11T07:19:29.000Z</time>
      </trkpt>
      <trkpt lat="45.20415" lon="5.72693">
        <ele>553.40002441406</ele>
        <time>2021-09-11T07:19:32.000Z</time>
      </trkpt>
      <trkpt lat="45.20421" lon="5.727">
        <ele>554.40002441406</ele>
        <time>2021-09-11T07:19:37.000Z</time>
      </trkpt>
      <trkpt lat="45.20425" lon="5.72702">
        <ele>555.20001220703</ele>
        <time>2021-09-11T07:19:39.000Z</time>
      </trkpt>
      <trkpt lat="45.20427" lon="5.72703">
        <ele>555.40002441406</ele>
        <time>2021-09-11T07:19:40.000Z</time>
      </trkpt>
      <trkpt lat="45.20436" lon="5.72708">
        <ele>556.59997558594</ele>
        <time>2021-09-11T07:19:45.000Z</time>
      </trkpt>
      <trkpt lat="45.20437" lon="5.72708">
        <ele>557.20001220703</ele>
        <time>2021-09-11T07:19:46.000Z</time>
      </trkpt>
      <trkpt lat="45.20442" lon="5.7271">
        <ele>557.40002441406</ele>
        <time>2021-09-11T07:19:48.000Z</time>
      </trkpt>
      <trkpt lat="45.20444" lon="5.7271">
        <ele>557.59997558594</ele>
        <time>2021-09-11T07:19:49.000Z</time>
      </trkpt>
      <trkpt lat="45.20449" lon="5.7271">
        <ele>558.20001220703</ele>
        <time>2021-09-11T07:19:51.000Z</time>
      </trkpt>
      <trkpt lat="45.20451" lon="5.7271">
        <ele>558.40002441406</ele>
        <time>2021-09-11T07:19:52.000Z</time>
      </trkpt>
      <trkpt lat="45.20454" lon="5.7271">
        <ele>558.79998779297</ele>
        <time>2021-09-11T07:19:54.000Z</time>
      </trkpt>
      <trkpt lat="45.20462" lon="5.72712">
        <ele>559.79998779297</ele>
        <time>2021-09-11T07:19:58.000Z</time>
      </trkpt>
      <trkpt lat="45.20467" lon="5.72713">
        <ele>560.20001220703</ele>
        <time>2021-09-11T07:20:00.000Z</time>
      </trkpt>
      <trkpt lat="45.20475" lon="5.72715">
        <ele>561</ele>
        <time>2021-09-11T07:20:04.000Z</time>
      </trkpt>
      <trkpt lat="45.20478" lon="5.72716">
        <ele>561.79998779297</ele>
        <time>2021-09-11T07:20:06.000Z</time>
      </trkpt>
      <trkpt lat="45.20481" lon="5.72718">
        <ele>562</ele>
        <time>2021-09-11T07:20:08.000Z</time>
      </trkpt>
      <trkpt lat="45.20493" lon="5.72721">
        <ele>563.20001220703</ele>
        <time>2021-09-11T07:20:14.000Z</time>
      </trkpt>
      <trkpt lat="45.20506" lon="5.72731">
        <ele>564.20001220703</ele>
        <time>2021-09-11T07:20:20.000Z</time>
      </trkpt>
      <trkpt lat="45.20519" lon="5.7274">
        <ele>565.20001220703</ele>
        <time>2021-09-11T07:20:26.000Z</time>
      </trkpt>
      <trkpt lat="45.20524" lon="5.72742">
        <ele>565.59997558594</ele>
        <time>2021-09-11T07:20:28.000Z</time>
      </trkpt>
      <trkpt lat="45.20539" lon="5.72755">
        <ele>566</ele>
        <time>2021-09-11T07:20:35.000Z</time>
      </trkpt>
      <trkpt lat="45.2055" lon="5.7277">
        <ele>565.40002441406</ele>
        <time>2021-09-11T07:20:41.000Z</time>
      </trkpt>
      <trkpt lat="45.20563" lon="5.7279">
        <ele>565</ele>
        <time>2021-09-11T07:20:48.000Z</time>
      </trkpt>
      <trkpt lat="45.20564" lon="5.72793">
        <ele>565.20001220703</ele>
        <time>2021-09-11T07:20:49.000Z</time>
      </trkpt>
      <trkpt lat="45.20565" lon="5.72795">
        <ele>565.20001220703</ele>
        <time>2021-09-11T07:20:50.000Z</time>
      </trkpt>
      <trkpt lat="45.20567" lon="5.728">
        <ele>565.40002441406</ele>
        <time>2021-09-11T07:20:52.000Z</time>
      </trkpt>
      <trkpt lat="45.20569" lon="5.72803">
        <ele>565.59997558594</ele>
        <time>2021-09-11T07:20:53.000Z</time>
      </trkpt>
      <trkpt lat="45.20582" lon="5.72823">
        <ele>566.20001220703</ele>
        <time>2021-09-11T07:21:00.000Z</time>
      </trkpt>
      <trkpt lat="45.20584" lon="5.72826">
        <ele>566.20001220703</ele>
        <time>2021-09-11T07:21:01.000Z</time>
      </trkpt>
      <trkpt lat="45.20591" lon="5.72833">
        <ele>566.40002441406</ele>
        <time>2021-09-11T07:21:04.000Z</time>
      </trkpt>
      <trkpt lat="45.206" lon="5.72844">
        <ele>565.79998779297</ele>
        <time>2021-09-11T07:21:08.000Z</time>
      </trkpt>
      <trkpt lat="45.20604" lon="5.72849">
        <ele>565.20001220703</ele>
        <time>2021-09-11T07:21:10.000Z</time>
      </trkpt>
      <trkpt lat="45.20619" lon="5.72866">
        <ele>564.59997558594</ele>
        <time>2021-09-11T07:21:17.000Z</time>
      </trkpt>
      <trkpt lat="45.20633" lon="5.72877">
        <ele>565</ele>
        <time>2021-09-11T07:21:24.000Z</time>
      </trkpt>
      <trkpt lat="45.20647" lon="5.72891">
        <ele>565.40002441406</ele>
        <time>2021-09-11T07:21:30.000Z</time>
      </trkpt>
      <trkpt lat="45.20658" lon="5.72908">
        <ele>564</ele>
        <time>2021-09-11T07:21:37.000Z</time>
      </trkpt>
      <trkpt lat="45.20659" lon="5.72911">
        <ele>563.79998779297</ele>
        <time>2021-09-11T07:21:38.000Z</time>
      </trkpt>
      <trkpt lat="45.20664" lon="5.72919">
        <ele>562.59997558594</ele>
        <time>2021-09-11T07:21:41.000Z</time>
      </trkpt>
      <trkpt lat="45.20669" lon="5.72929">
        <ele>561.59997558594</ele>
        <time>2021-09-11T07:21:44.000Z</time>
      </trkpt>
      <trkpt lat="45.20672" lon="5.72936">
        <ele>561.20001220703</ele>
        <time>2021-09-11T07:21:46.000Z</time>
      </trkpt>
      <trkpt lat="45.20677" lon="5.72942">
        <ele>560.59997558594</ele>
        <time>2021-09-11T07:21:48.000Z</time>
      </trkpt>
      <trkpt lat="45.20687" lon="5.72952">
        <ele>559.59997558594</ele>
        <time>2021-09-11T07:21:52.000Z</time>
      </trkpt>
      <trkpt lat="45.20698" lon="5.7296">
        <ele>558.40002441406</ele>
        <time>2021-09-11T07:21:57.000Z</time>
      </trkpt>
      <trkpt lat="45.207" lon="5.72962">
        <ele>558.20001220703</ele>
        <time>2021-09-11T07:21:58.000Z</time>
      </trkpt>
      <trkpt lat="45.2071" lon="5.72968">
        <ele>557.20001220703</ele>
        <time>2021-09-11T07:22:03.000Z</time>
      </trkpt>
      <trkpt lat="45.20712" lon="5.72969">
        <ele>557</ele>
        <time>2021-09-11T07:22:04.000Z</time>
      </trkpt>
      <trkpt lat="45.20713" lon="5.7297">
        <ele>556.59997558594</ele>
        <time>2021-09-11T07:22:05.000Z</time>
      </trkpt>
      <trkpt lat="45.20716" lon="5.72974">
        <ele>556</ele>
        <time>2021-09-11T07:22:07.000Z</time>
      </trkpt>
      <trkpt lat="45.20723" lon="5.72986">
        <ele>555</ele>
        <time>2021-09-11T07:22:12.000Z</time>
      </trkpt>
      <trkpt lat="45.20725" lon="5.7299">
        <ele>554.40002441406</ele>
        <time>2021-09-11T07:22:14.000Z</time>
      </trkpt>
      <trkpt lat="45.20728" lon="5.72995">
        <ele>553.79998779297</ele>
        <time>2021-09-11T07:22:16.000Z</time>
      </trkpt>
      <trkpt lat="45.20731" lon="5.73">
        <ele>553.20001220703</ele>
        <time>2021-09-11T07:22:18.000Z</time>
      </trkpt>
      <trkpt lat="45.20735" lon="5.73005">
        <ele>552.79998779297</ele>
        <time>2021-09-11T07:22:20.000Z</time>
      </trkpt>
      <trkpt lat="45.2074" lon="5.7301">
        <ele>552.20001220703</ele>
        <time>2021-09-11T07:22:22.000Z</time>
      </trkpt>
      <trkpt lat="45.20744" lon="5.73015">
        <ele>552</ele>
        <time>2021-09-11T07:22:24.000Z</time>
      </trkpt>
      <trkpt lat="45.20748" lon="5.73019">
        <ele>551.59997558594</ele>
        <time>2021-09-11T07:22:26.000Z</time>
      </trkpt>
      <trkpt lat="45.20754" lon="5.73025">
        <ele>551.20001220703</ele>
        <time>2021-09-11T07:22:29.000Z</time>
      </trkpt>
      <trkpt lat="45.20756" lon="5.73028">
        <ele>551</ele>
        <time>2021-09-11T07:22:30.000Z</time>
      </trkpt>
      <trkpt lat="45.20762" lon="5.73038">
        <ele>550.40002441406</ele>
        <time>2021-09-11T07:22:34.000Z</time>
      </trkpt>
      <trkpt lat="45.20765" lon="5.73043">
        <ele>549.79998779297</ele>
        <time>2021-09-11T07:22:36.000Z</time>
      </trkpt>
      <trkpt lat="45.20767" lon="5.73047">
        <ele>549.20001220703</ele>
        <time>2021-09-11T07:22:38.000Z</time>
      </trkpt>
      <trkpt lat="45.20768" lon="5.73048">
        <ele>549.20001220703</ele>
        <time>2021-09-11T07:22:39.000Z</time>
      </trkpt>
      <trkpt lat="45.20772" lon="5.73051">
        <ele>548.59997558594</ele>
        <time>2021-09-11T07:22:41.000Z</time>
      </trkpt>
      <trkpt lat="45.20774" lon="5.73053">
        <ele>548.20001220703</ele>
        <time>2021-09-11T07:22:43.000Z</time>
      </trkpt>
      <trkpt lat="45.20775" lon="5.73055">
        <ele>547.79998779297</ele>
        <time>2021-09-11T07:22:44.000Z</time>
      </trkpt>
      <trkpt lat="45.20778" lon="5.7306">
        <ele>546.59997558594</ele>
        <time>2021-09-11T07:22:47.000Z</time>
      </trkpt>
      <trkpt lat="45.2078" lon="5.73061">
        <ele>546</ele>
        <time>2021-09-11T07:22:48.000Z</time>
      </trkpt>
      <trkpt lat="45.20782" lon="5.73064">
        <ele>545.59997558594</ele>
        <time>2021-09-11T07:22:50.000Z</time>
      </trkpt>
      <trkpt lat="45.20782" lon="5.73065">
        <ele>545.40002441406</ele>
        <time>2021-09-11T07:22:51.000Z</time>
      </trkpt>
      <trkpt lat="45.20783" lon="5.73067">
        <ele>545.20001220703</ele>
        <time>2021-09-11T07:22:52.000Z</time>
      </trkpt>
      <trkpt lat="45.20785" lon="5.73074">
        <ele>544.59997558594</ele>
        <time>2021-09-11T07:22:55.000Z</time>
      </trkpt>
      <trkpt lat="45.20786" lon="5.73075">
        <ele>544.40002441406</ele>
        <time>2021-09-11T07:22:56.000Z</time>
      </trkpt>
      <trkpt lat="45.20787" lon="5.73078">
        <ele>544.20001220703</ele>
        <time>2021-09-11T07:22:57.000Z</time>
      </trkpt>
      <trkpt lat="45.20788" lon="5.73082">
        <ele>543.79998779297</ele>
        <time>2021-09-11T07:22:58.000Z</time>
      </trkpt>
      <trkpt lat="45.20789" lon="5.73085">
        <ele>543.40002441406</ele>
        <time>2021-09-11T07:22:59.000Z</time>
      </trkpt>
      <trkpt lat="45.2079" lon="5.73086">
        <ele>542.59997558594</ele>
        <time>2021-09-11T07:23:00.000Z</time>
      </trkpt>
      <trkpt lat="45.20791" lon="5.73088">
        <ele>542.20001220703</ele>
        <time>2021-09-11T07:23:01.000Z</time>
      </trkpt>
      <trkpt lat="45.20792" lon="5.73089">
        <ele>542</ele>
        <time>2021-09-11T07:23:02.000Z</time>
      </trkpt>
      <trkpt lat="45.20795" lon="5.73096">
        <ele>541.20001220703</ele>
        <time>2021-09-11T07:23:06.000Z</time>
      </trkpt>
      <trkpt lat="45.20798" lon="5.73106">
        <ele>540.20001220703</ele>
        <time>2021-09-11T07:23:10.000Z</time>
      </trkpt>
      <trkpt lat="45.20802" lon="5.73115">
        <ele>539</ele>
        <time>2021-09-11T07:23:14.000Z</time>
      </trkpt>
      <trkpt lat="45.20804" lon="5.73122">
        <ele>538.40002441406</ele>
        <time>2021-09-11T07:23:17.000Z</time>
      </trkpt>
      <trkpt lat="45.20807" lon="5.73126">
        <ele>537.79998779297</ele>
        <time>2021-09-11T07:23:19.000Z</time>
      </trkpt>
      <trkpt lat="45.20808" lon="5.73127">
        <ele>537.40002441406</ele>
        <time>2021-09-11T07:23:20.000Z</time>
      </trkpt>
      <trkpt lat="45.2081" lon="5.73129">
        <ele>537</ele>
        <time>2021-09-11T07:23:21.000Z</time>
      </trkpt>
      <trkpt lat="45.20812" lon="5.7313">
        <ele>536.59997558594</ele>
        <time>2021-09-11T07:23:22.000Z</time>
      </trkpt>
      <trkpt lat="45.20813" lon="5.73133">
        <ele>536.20001220703</ele>
        <time>2021-09-11T07:23:23.000Z</time>
      </trkpt>
      <trkpt lat="45.20816" lon="5.73138">
        <ele>535.59997558594</ele>
        <time>2021-09-11T07:23:25.000Z</time>
      </trkpt>
      <trkpt lat="45.20818" lon="5.7314">
        <ele>535.40002441406</ele>
        <time>2021-09-11T07:23:26.000Z</time>
      </trkpt>
      <trkpt lat="45.20819" lon="5.73142">
        <ele>535</ele>
        <time>2021-09-11T07:23:27.000Z</time>
      </trkpt>
      <trkpt lat="45.2082" lon="5.73149">
        <ele>534</ele>
        <time>2021-09-11T07:23:29.000Z</time>
      </trkpt>
      <trkpt lat="45.20822" lon="5.73151">
        <ele>533.59997558594</ele>
        <time>2021-09-11T07:23:31.000Z</time>
      </trkpt>
      <trkpt lat="45.20824" lon="5.73153">
        <ele>533</ele>
        <time>2021-09-11T07:23:33.000Z</time>
      </trkpt>
      <trkpt lat="45.20826" lon="5.73156">
        <ele>532.79998779297</ele>
        <time>2021-09-11T07:23:35.000Z</time>
      </trkpt>
      <trkpt lat="45.20829" lon="5.73161">
        <ele>532</ele>
        <time>2021-09-11T07:23:37.000Z</time>
      </trkpt>
      <trkpt lat="45.20834" lon="5.73174">
        <ele>530.79998779297</ele>
        <time>2021-09-11T07:23:41.000Z</time>
      </trkpt>
      <trkpt lat="45.20837" lon="5.7318">
        <ele>530.20001220703</ele>
        <time>2021-09-11T07:23:43.000Z</time>
      </trkpt>
      <trkpt lat="45.20839" lon="5.73182">
        <ele>529.59997558594</ele>
        <time>2021-09-11T07:23:44.000Z</time>
      </trkpt>
      <trkpt lat="45.20841" lon="5.7319">
        <ele>528.40002441406</ele>
        <time>2021-09-11T07:23:47.000Z</time>
      </trkpt>
      <trkpt lat="45.20848" lon="5.73201">
        <ele>527</ele>
        <time>2021-09-11T07:23:51.000Z</time>
      </trkpt>
      <trkpt lat="45.20853" lon="5.73211">
        <ele>526.20001220703</ele>
        <time>2021-09-11T07:23:56.000Z</time>
      </trkpt>
      <trkpt lat="45.20855" lon="5.73215">
        <ele>526</ele>
        <time>2021-09-11T07:23:58.000Z</time>
      </trkpt>
      <trkpt lat="45.20859" lon="5.73225">
        <ele>525</ele>
        <time>2021-09-11T07:24:02.000Z</time>
      </trkpt>
      <trkpt lat="45.20862" lon="5.73232">
        <ele>524.59997558594</ele>
        <time>2021-09-11T07:24:04.000Z</time>
      </trkpt>
      <trkpt lat="45.20868" lon="5.73244">
        <ele>524</ele>
        <time>2021-09-11T07:24:08.000Z</time>
      </trkpt>
      <trkpt lat="45.2087" lon="5.7325">
        <ele>523.59997558594</ele>
        <time>2021-09-11T07:24:10.000Z</time>
      </trkpt>
      <trkpt lat="45.20874" lon="5.73261">
        <ele>522.59997558594</ele>
        <time>2021-09-11T07:24:14.000Z</time>
      </trkpt>
      <trkpt lat="45.20875" lon="5.73267">
        <ele>521.20001220703</ele>
        <time>2021-09-11T07:24:17.000Z</time>
      </trkpt>
      <trkpt lat="45.20875" lon="5.73274">
        <ele>520.20001220703</ele>
        <time>2021-09-11T07:24:20.000Z</time>
      </trkpt>
      <trkpt lat="45.20875" lon="5.73278">
        <ele>519.20001220703</ele>
        <time>2021-09-11T07:24:22.000Z</time>
      </trkpt>
      <trkpt lat="45.20875" lon="5.73282">
        <ele>518</ele>
        <time>2021-09-11T07:24:24.000Z</time>
      </trkpt>
      <trkpt lat="45.20875" lon="5.73286">
        <ele>517</ele>
        <time>2021-09-11T07:24:26.000Z</time>
      </trkpt>
      <trkpt lat="45.20876" lon="5.73288">
        <ele>516.79998779297</ele>
        <time>2021-09-11T07:24:27.000Z</time>
      </trkpt>
      <trkpt lat="45.20875" lon="5.73293">
        <ele>516</ele>
        <time>2021-09-11T07:24:29.000Z</time>
      </trkpt>
      <trkpt lat="45.20875" lon="5.73293">
        <ele>515.40002441406</ele>
        <time>2021-09-11T07:24:30.000Z</time>
      </trkpt>
      <trkpt lat="45.20873" lon="5.73292">
        <ele>514.79998779297</ele>
        <time>2021-09-11T07:24:31.000Z</time>
      </trkpt>
      <trkpt lat="45.20872" lon="5.73292">
        <ele>514.59997558594</ele>
        <time>2021-09-11T07:24:32.000Z</time>
      </trkpt>
      <trkpt lat="45.2087" lon="5.73292">
        <ele>513.79998779297</ele>
        <time>2021-09-11T07:24:34.000Z</time>
      </trkpt>
      <trkpt lat="45.20868" lon="5.73292">
        <ele>512.79998779297</ele>
        <time>2021-09-11T07:24:36.000Z</time>
      </trkpt>
      <trkpt lat="45.20865" lon="5.73291">
        <ele>511.39999389648</ele>
        <time>2021-09-11T07:24:39.000Z</time>
      </trkpt>
      <trkpt lat="45.20864" lon="5.7329">
        <ele>510.60000610352</ele>
        <time>2021-09-11T07:24:41.000Z</time>
      </trkpt>
      <trkpt lat="45.20862" lon="5.73289">
        <ele>510.20001220703</ele>
        <time>2021-09-11T07:24:42.000Z</time>
      </trkpt>
      <trkpt lat="45.20859" lon="5.73286">
        <ele>509</ele>
        <time>2021-09-11T07:24:45.000Z</time>
      </trkpt>
      <trkpt lat="45.20858" lon="5.73285">
        <ele>508.60000610352</ele>
        <time>2021-09-11T07:24:46.000Z</time>
      </trkpt>
      <trkpt lat="45.20857" lon="5.73284">
        <ele>508</ele>
        <time>2021-09-11T07:24:47.000Z</time>
      </trkpt>
      <trkpt lat="45.20855" lon="5.73283">
        <ele>507</ele>
        <time>2021-09-11T07:24:51.000Z</time>
      </trkpt>
      <trkpt lat="45.20854" lon="5.73283">
        <ele>506.60000610352</ele>
        <time>2021-09-11T07:24:52.000Z</time>
      </trkpt>
      <trkpt lat="45.20855" lon="5.73287">
        <ele>505.20001220703</ele>
        <time>2021-09-11T07:24:55.000Z</time>
      </trkpt>
      <trkpt lat="45.20855" lon="5.73293">
        <ele>504.20001220703</ele>
        <time>2021-09-11T07:24:58.000Z</time>
      </trkpt>
      <trkpt lat="45.20855" lon="5.733">
        <ele>503</ele>
        <time>2021-09-11T07:25:01.000Z</time>
      </trkpt>
      <trkpt lat="45.20858" lon="5.73308">
        <ele>501.60000610352</ele>
        <time>2021-09-11T07:25:04.000Z</time>
      </trkpt>
      <trkpt lat="45.20861" lon="5.73314">
        <ele>500.60000610352</ele>
        <time>2021-09-11T07:25:07.000Z</time>
      </trkpt>
      <trkpt lat="45.20862" lon="5.73316">
        <ele>500.60000610352</ele>
        <time>2021-09-11T07:25:08.000Z</time>
      </trkpt>
      <trkpt lat="45.20865" lon="5.73317">
        <ele>500</ele>
        <time>2021-09-11T07:25:10.000Z</time>
      </trkpt>
      <trkpt lat="45.20866" lon="5.73318">
        <ele>499.60000610352</ele>
        <time>2021-09-11T07:25:11.000Z</time>
      </trkpt>
      <trkpt lat="45.20869" lon="5.7332">
        <ele>499</ele>
        <time>2021-09-11T07:25:13.000Z</time>
      </trkpt>
      <trkpt lat="45.20871" lon="5.7332">
        <ele>498.39999389648</ele>
        <time>2021-09-11T07:25:15.000Z</time>
      </trkpt>
      <trkpt lat="45.20874" lon="5.73321">
        <ele>498</ele>
        <time>2021-09-11T07:25:17.000Z</time>
      </trkpt>
      <trkpt lat="45.20878" lon="5.73323">
        <ele>497</ele>
        <time>2021-09-11T07:25:20.000Z</time>
      </trkpt>
      <trkpt lat="45.20882" lon="5.73326">
        <ele>495.79998779297</ele>
        <time>2021-09-11T07:25:23.000Z</time>
      </trkpt>
      <trkpt lat="45.20886" lon="5.73327">
        <ele>494.79998779297</ele>
        <time>2021-09-11T07:25:25.000Z</time>
      </trkpt>
      <trkpt lat="45.20888" lon="5.73328">
        <ele>494.39999389648</ele>
        <time>2021-09-11T07:25:26.000Z</time>
      </trkpt>
      <trkpt lat="45.20892" lon="5.7333">
        <ele>493.79998779297</ele>
        <time>2021-09-11T07:25:28.000Z</time>
      </trkpt>
      <trkpt lat="45.209" lon="5.73333">
        <ele>492.60000610352</ele>
        <time>2021-09-11T07:25:32.000Z</time>
      </trkpt>
      <trkpt lat="45.20905" lon="5.73335">
        <ele>492</ele>
        <time>2021-09-11T07:25:34.000Z</time>
      </trkpt>
      <trkpt lat="45.20909" lon="5.73336">
        <ele>491.39999389648</ele>
        <time>2021-09-11T07:25:36.000Z</time>
      </trkpt>
      <trkpt lat="45.20924" lon="5.73344">
        <ele>490.39999389648</ele>
        <time>2021-09-11T07:25:42.000Z</time>
      </trkpt>
      <trkpt lat="45.20937" lon="5.7335">
        <ele>489.79998779297</ele>
        <time>2021-09-11T07:25:48.000Z</time>
      </trkpt>
      <trkpt lat="45.20941" lon="5.73352">
        <ele>489.39999389648</ele>
        <time>2021-09-11T07:25:50.000Z</time>
      </trkpt>
      <trkpt lat="45.20958" lon="5.73359">
        <ele>489</ele>
        <time>2021-09-11T07:25:57.000Z</time>
      </trkpt>
      <trkpt lat="45.20962" lon="5.73362">
        <ele>489</ele>
        <time>2021-09-11T07:25:59.000Z</time>
      </trkpt>
      <trkpt lat="45.20972" lon="5.73364">
        <ele>488.20001220703</ele>
        <time>2021-09-11T07:26:03.000Z</time>
      </trkpt>
      <trkpt lat="45.20983" lon="5.73357">
        <ele>487.39999389648</ele>
        <time>2021-09-11T07:26:08.000Z</time>
      </trkpt>
      <trkpt lat="45.20988" lon="5.73356">
        <ele>487</ele>
        <time>2021-09-11T07:26:10.000Z</time>
      </trkpt>
      <trkpt lat="45.20994" lon="5.73355">
        <ele>486.79998779297</ele>
        <time>2021-09-11T07:26:13.000Z</time>
      </trkpt>
      <trkpt lat="45.20996" lon="5.73357">
        <ele>486.79998779297</ele>
        <time>2021-09-11T07:26:14.000Z</time>
      </trkpt>
      <trkpt lat="45.21009" lon="5.73368">
        <ele>486.60000610352</ele>
        <time>2021-09-11T07:26:20.000Z</time>
      </trkpt>
      <trkpt lat="45.21015" lon="5.73373">
        <ele>486.39999389648</ele>
        <time>2021-09-11T07:26:23.000Z</time>
      </trkpt>
      <trkpt lat="45.21023" lon="5.73378">
        <ele>486.60000610352</ele>
        <time>2021-09-11T07:26:25.000Z</time>
      </trkpt>
      <trkpt lat="45.21035" lon="5.73382">
        <ele>486.79998779297</ele>
        <time>2021-09-11T07:26:30.000Z</time>
      </trkpt>
      <trkpt lat="45.21043" lon="5.73379">
        <ele>486.79998779297</ele>
        <time>2021-09-11T07:26:34.000Z</time>
      </trkpt>
      <trkpt lat="45.21043" lon="5.7338">
        <ele>486.79998779297</ele>
        <time>2021-09-11T07:26:35.000Z</time>
      </trkpt>
      <trkpt lat="45.21047" lon="5.73383">
        <ele>486.60000610352</ele>
        <time>2021-09-11T07:26:38.000Z</time>
      </trkpt>
      <trkpt lat="45.21049" lon="5.73387">
        <ele>486.20001220703</ele>
        <time>2021-09-11T07:26:40.000Z</time>
      </trkpt>
      <trkpt lat="45.21052" lon="5.73393">
        <ele>486</ele>
        <time>2021-09-11T07:26:43.000Z</time>
      </trkpt>
      <trkpt lat="45.21054" lon="5.73395">
        <ele>485.79998779297</ele>
        <time>2021-09-11T07:26:44.000Z</time>
      </trkpt>
      <trkpt lat="45.21057" lon="5.73398">
        <ele>485.39999389648</ele>
        <time>2021-09-11T07:26:46.000Z</time>
      </trkpt>
      <trkpt lat="45.21058" lon="5.73399">
        <ele>485</ele>
        <time>2021-09-11T07:26:47.000Z</time>
      </trkpt>
      <trkpt lat="45.21059" lon="5.73402">
        <ele>485</ele>
        <time>2021-09-11T07:26:48.000Z</time>
      </trkpt>
      <trkpt lat="45.21058" lon="5.73404">
        <ele>484.79998779297</ele>
        <time>2021-09-11T07:26:49.000Z</time>
      </trkpt>
      <trkpt lat="45.21058" lon="5.73406">
        <ele>484.60000610352</ele>
        <time>2021-09-11T07:26:50.000Z</time>
      </trkpt>
      <trkpt lat="45.2106" lon="5.73422">
        <ele>484</ele>
        <time>2021-09-11T07:26:55.000Z</time>
      </trkpt>
      <trkpt lat="45.21062" lon="5.73425">
        <ele>483.79998779297</ele>
        <time>2021-09-11T07:26:56.000Z</time>
      </trkpt>
      <trkpt lat="45.21068" lon="5.73434">
        <ele>484</ele>
        <time>2021-09-11T07:27:00.000Z</time>
      </trkpt>
      <trkpt lat="45.21079" lon="5.73446">
        <ele>484.20001220703</ele>
        <time>2021-09-11T07:27:06.000Z</time>
      </trkpt>
      <trkpt lat="45.21081" lon="5.73447">
        <ele>484</ele>
        <time>2021-09-11T07:27:07.000Z</time>
      </trkpt>
      <trkpt lat="45.21091" lon="5.7346">
        <ele>484.20001220703</ele>
        <time>2021-09-11T07:27:12.000Z</time>
      </trkpt>
      <trkpt lat="45.21104" lon="5.73467">
        <ele>484.39999389648</ele>
        <time>2021-09-11T07:27:18.000Z</time>
      </trkpt>
      <trkpt lat="45.21108" lon="5.73469">
        <ele>484.20001220703</ele>
        <time>2021-09-11T07:27:20.000Z</time>
      </trkpt>
      <trkpt lat="45.21109" lon="5.7347">
        <ele>483.79998779297</ele>
        <time>2021-09-11T07:27:22.000Z</time>
      </trkpt>
      <trkpt lat="45.21109" lon="5.73475">
        <ele>483</ele>
        <time>2021-09-11T07:27:25.000Z</time>
      </trkpt>
      <trkpt lat="45.21109" lon="5.73477">
        <ele>482.60000610352</ele>
        <time>2021-09-11T07:27:26.000Z</time>
      </trkpt>
      <trkpt lat="45.21106" lon="5.73485">
        <ele>481.39999389648</ele>
        <time>2021-09-11T07:27:29.000Z</time>
      </trkpt>
      <trkpt lat="45.21106" lon="5.73486">
        <ele>481.20001220703</ele>
        <time>2021-09-11T07:27:30.000Z</time>
      </trkpt>
      <trkpt lat="45.21104" lon="5.73502">
        <ele>480.39999389648</ele>
        <time>2021-09-11T07:27:34.000Z</time>
      </trkpt>
      <trkpt lat="45.21104" lon="5.73505">
        <ele>480.39999389648</ele>
        <time>2021-09-11T07:27:35.000Z</time>
      </trkpt>
      <trkpt lat="45.21101" lon="5.7352">
        <ele>479.39999389648</ele>
        <time>2021-09-11T07:27:39.000Z</time>
      </trkpt>
      <trkpt lat="45.21102" lon="5.73528">
        <ele>479.20001220703</ele>
        <time>2021-09-11T07:27:41.000Z</time>
      </trkpt>
      <trkpt lat="45.21106" lon="5.73539">
        <ele>479.20001220703</ele>
        <time>2021-09-11T07:27:44.000Z</time>
      </trkpt>
      <trkpt lat="45.21114" lon="5.73553">
        <ele>479.39999389648</ele>
        <time>2021-09-11T07:27:49.000Z</time>
      </trkpt>
      <trkpt lat="45.21115" lon="5.73555">
        <ele>479.20001220703</ele>
        <time>2021-09-11T07:27:50.000Z</time>
      </trkpt>
      <trkpt lat="45.21119" lon="5.73558">
        <ele>478.79998779297</ele>
        <time>2021-09-11T07:27:52.000Z</time>
      </trkpt>
      <trkpt lat="45.21124" lon="5.73558">
        <ele>478.39999389648</ele>
        <time>2021-09-11T07:27:54.000Z</time>
      </trkpt>
      <trkpt lat="45.21129" lon="5.73559">
        <ele>478.20001220703</ele>
        <time>2021-09-11T07:27:56.000Z</time>
      </trkpt>
      <trkpt lat="45.21135" lon="5.73561">
        <ele>478</ele>
        <time>2021-09-11T07:27:58.000Z</time>
      </trkpt>
      <trkpt lat="45.21143" lon="5.73565">
        <ele>477.79998779297</ele>
        <time>2021-09-11T07:28:01.000Z</time>
      </trkpt>
      <trkpt lat="45.21156" lon="5.73572">
        <ele>477.60000610352</ele>
        <time>2021-09-11T07:28:06.000Z</time>
      </trkpt>
      <trkpt lat="45.2116" lon="5.73577">
        <ele>477.20001220703</ele>
        <time>2021-09-11T07:28:08.000Z</time>
      </trkpt>
      <trkpt lat="45.21166" lon="5.73582">
        <ele>477.20001220703</ele>
        <time>2021-09-11T07:28:10.000Z</time>
      </trkpt>
      <trkpt lat="45.21173" lon="5.73594">
        <ele>477</ele>
        <time>2021-09-11T07:28:14.000Z</time>
      </trkpt>
      <trkpt lat="45.21181" lon="5.73613">
        <ele>476.39999389648</ele>
        <time>2021-09-11T07:28:20.000Z</time>
      </trkpt>
      <trkpt lat="45.21186" lon="5.7363">
        <ele>476.20001220703</ele>
        <time>2021-09-11T07:28:25.000Z</time>
      </trkpt>
      <trkpt lat="45.21187" lon="5.73634">
        <ele>476.20001220703</ele>
        <time>2021-09-11T07:28:26.000Z</time>
      </trkpt>
      <trkpt lat="45.2119" lon="5.73638">
        <ele>476</ele>
        <time>2021-09-11T07:28:28.000Z</time>
      </trkpt>
      <trkpt lat="45.21195" lon="5.73641">
        <ele>476</ele>
        <time>2021-09-11T07:28:30.000Z</time>
      </trkpt>
      <trkpt lat="45.21196" lon="5.73643">
        <ele>476</ele>
        <time>2021-09-11T07:28:31.000Z</time>
      </trkpt>
      <trkpt lat="45.21197" lon="5.73647">
        <ele>475.60000610352</ele>
        <time>2021-09-11T07:28:33.000Z</time>
      </trkpt>
      <trkpt lat="45.21197" lon="5.73652">
        <ele>475.20001220703</ele>
        <time>2021-09-11T07:28:35.000Z</time>
      </trkpt>
      <trkpt lat="45.21195" lon="5.73661">
        <ele>473.79998779297</ele>
        <time>2021-09-11T07:28:39.000Z</time>
      </trkpt>
      <trkpt lat="45.21195" lon="5.73663">
        <ele>473.39999389648</ele>
        <time>2021-09-11T07:28:40.000Z</time>
      </trkpt>
      <trkpt lat="45.21197" lon="5.7367">
        <ele>472.79998779297</ele>
        <time>2021-09-11T07:28:42.000Z</time>
      </trkpt>
      <trkpt lat="45.21202" lon="5.73677">
        <ele>471.39999389648</ele>
        <time>2021-09-11T07:28:46.000Z</time>
      </trkpt>
      <trkpt lat="45.21203" lon="5.73686">
        <ele>470.20001220703</ele>
        <time>2021-09-11T07:28:49.000Z</time>
      </trkpt>
      <trkpt lat="45.21203" lon="5.73691">
        <ele>469.20001220703</ele>
        <time>2021-09-11T07:28:51.000Z</time>
      </trkpt>
      <trkpt lat="45.21202" lon="5.73693">
        <ele>469</ele>
        <time>2021-09-11T07:28:52.000Z</time>
      </trkpt>
      <trkpt lat="45.21202" lon="5.737">
        <ele>467.79998779297</ele>
        <time>2021-09-11T07:28:55.000Z</time>
      </trkpt>
      <trkpt lat="45.21201" lon="5.73704">
        <ele>466.60000610352</ele>
        <time>2021-09-11T07:28:57.000Z</time>
      </trkpt>
      <trkpt lat="45.21201" lon="5.73707">
        <ele>466.20001220703</ele>
        <time>2021-09-11T07:28:58.000Z</time>
      </trkpt>
      <trkpt lat="45.212" lon="5.73713">
        <ele>465.39999389648</ele>
        <time>2021-09-11T07:29:00.000Z</time>
      </trkpt>
      <trkpt lat="45.212" lon="5.7372">
        <ele>464.60000610352</ele>
        <time>2021-09-11T07:29:02.000Z</time>
      </trkpt>
      <trkpt lat="45.21199" lon="5.73722">
        <ele>464.20001220703</ele>
        <time>2021-09-11T07:29:03.000Z</time>
      </trkpt>
      <trkpt lat="45.21198" lon="5.7373">
        <ele>462.79998779297</ele>
        <time>2021-09-11T07:29:06.000Z</time>
      </trkpt>
      <trkpt lat="45.21197" lon="5.73737">
        <ele>462.39999389648</ele>
        <time>2021-09-11T07:29:08.000Z</time>
      </trkpt>
      <trkpt lat="45.21197" lon="5.73744">
        <ele>461.60000610352</ele>
        <time>2021-09-11T07:29:10.000Z</time>
      </trkpt>
      <trkpt lat="45.21197" lon="5.73746">
        <ele>461.20001220703</ele>
        <time>2021-09-11T07:29:11.000Z</time>
      </trkpt>
      <trkpt lat="45.21196" lon="5.73747">
        <ele>460.60000610352</ele>
        <time>2021-09-11T07:29:13.000Z</time>
      </trkpt>
      <trkpt lat="45.21197" lon="5.73756">
        <ele>460.39999389648</ele>
        <time>2021-09-11T07:29:24.000Z</time>
      </trkpt>
      <trkpt lat="45.21197" lon="5.73755">
        <ele>460.39999389648</ele>
        <time>2021-09-11T07:29:25.000Z</time>
      </trkpt>
      <trkpt lat="45.21195" lon="5.73754">
        <ele>460.39999389648</ele>
        <time>2021-09-11T07:29:30.000Z</time>
      </trkpt>
      <trkpt lat="45.21195" lon="5.73754">
        <ele>460.39999389648</ele>
        <time>2021-09-11T07:29:33.000Z</time>
      </trkpt>
      <trkpt lat="45.21196" lon="5.73757">
        <ele>460.20001220703</ele>
        <time>2021-09-11T07:29:40.000Z</time>
      </trkpt>
      <trkpt lat="45.21197" lon="5.7376">
        <ele>460</ele>
        <time>2021-09-11T07:29:41.000Z</time>
      </trkpt>
      <trkpt lat="45.21197" lon="5.73763">
        <ele>459.39999389648</ele>
        <time>2021-09-11T07:29:42.000Z</time>
      </trkpt>
      <trkpt lat="45.21197" lon="5.73766">
        <ele>459.20001220703</ele>
        <time>2021-09-11T07:29:43.000Z</time>
      </trkpt>
      <trkpt lat="45.21198" lon="5.73772">
        <ele>458.60000610352</ele>
        <time>2021-09-11T07:29:45.000Z</time>
      </trkpt>
      <trkpt lat="45.21198" lon="5.73775">
        <ele>458.39999389648</ele>
        <time>2021-09-11T07:29:46.000Z</time>
      </trkpt>
      <trkpt lat="45.212" lon="5.73782">
        <ele>456.60000610352</ele>
        <time>2021-09-11T07:29:49.000Z</time>
      </trkpt>
      <trkpt lat="45.21201" lon="5.73788">
        <ele>455.39999389648</ele>
        <time>2021-09-11T07:29:51.000Z</time>
      </trkpt>
      <trkpt lat="45.212" lon="5.73792">
        <ele>454.79998779297</ele>
        <time>2021-09-11T07:29:53.000Z</time>
      </trkpt>
      <trkpt lat="45.212" lon="5.73794">
        <ele>454.39999389648</ele>
        <time>2021-09-11T07:29:54.000Z</time>
      </trkpt>
      <trkpt lat="45.21197" lon="5.73801">
        <ele>453.20001220703</ele>
        <time>2021-09-11T07:29:57.000Z</time>
      </trkpt>
      <trkpt lat="45.21196" lon="5.73807">
        <ele>452</ele>
        <time>2021-09-11T07:29:59.000Z</time>
      </trkpt>
      <trkpt lat="45.21196" lon="5.73809">
        <ele>451.20001220703</ele>
        <time>2021-09-11T07:30:00.000Z</time>
      </trkpt>
      <trkpt lat="45.21195" lon="5.73811">
        <ele>450.79998779297</ele>
        <time>2021-09-11T07:30:01.000Z</time>
      </trkpt>
      <trkpt lat="45.21193" lon="5.73816">
        <ele>449.39999389648</ele>
        <time>2021-09-11T07:30:04.000Z</time>
      </trkpt>
      <trkpt lat="45.2119" lon="5.73822">
        <ele>447.79998779297</ele>
        <time>2021-09-11T07:30:08.000Z</time>
      </trkpt>
      <trkpt lat="45.2119" lon="5.73824">
        <ele>447.39999389648</ele>
        <time>2021-09-11T07:30:10.000Z</time>
      </trkpt>
      <trkpt lat="45.2119" lon="5.73825">
        <ele>447.20001220703</ele>
        <time>2021-09-11T07:30:11.000Z</time>
      </trkpt>
      <trkpt lat="45.21189" lon="5.73826">
        <ele>446.79998779297</ele>
        <time>2021-09-11T07:30:12.000Z</time>
      </trkpt>
      <trkpt lat="45.21187" lon="5.7383">
        <ele>445.60000610352</ele>
        <time>2021-09-11T07:30:15.000Z</time>
      </trkpt>
      <trkpt lat="45.21187" lon="5.73831">
        <ele>445.20001220703</ele>
        <time>2021-09-11T07:30:16.000Z</time>
      </trkpt>
      <trkpt lat="45.21186" lon="5.73835">
        <ele>444.20001220703</ele>
        <time>2021-09-11T07:30:18.000Z</time>
      </trkpt>
      <trkpt lat="45.21185" lon="5.73839">
        <ele>443</ele>
        <time>2021-09-11T07:30:21.000Z</time>
      </trkpt>
      <trkpt lat="45.21185" lon="5.73841">
        <ele>442.39999389648</ele>
        <time>2021-09-11T07:30:22.000Z</time>
      </trkpt>
      <trkpt lat="45.21184" lon="5.73843">
        <ele>441.79998779297</ele>
        <time>2021-09-11T07:30:23.000Z</time>
      </trkpt>
      <trkpt lat="45.21183" lon="5.73845">
        <ele>441.39999389648</ele>
        <time>2021-09-11T07:30:24.000Z</time>
      </trkpt>
      <trkpt lat="45.2118" lon="5.73845">
        <ele>440.20001220703</ele>
        <time>2021-09-11T07:30:26.000Z</time>
      </trkpt>
      <trkpt lat="45.21176" lon="5.73844">
        <ele>439</ele>
        <time>2021-09-11T07:30:28.000Z</time>
      </trkpt>
      <trkpt lat="45.21173" lon="5.73843">
        <ele>437.39999389648</ele>
        <time>2021-09-11T07:30:30.000Z</time>
      </trkpt>
      <trkpt lat="45.2117" lon="5.7384">
        <ele>436.60000610352</ele>
        <time>2021-09-11T07:30:33.000Z</time>
      </trkpt>
      <trkpt lat="45.2117" lon="5.73839">
        <ele>435.79998779297</ele>
        <time>2021-09-11T07:30:34.000Z</time>
      </trkpt>
      <trkpt lat="45.21169" lon="5.73838">
        <ele>435.20001220703</ele>
        <time>2021-09-11T07:30:36.000Z</time>
      </trkpt>
      <trkpt lat="45.21168" lon="5.73838">
        <ele>434.60000610352</ele>
        <time>2021-09-11T07:30:37.000Z</time>
      </trkpt>
      <trkpt lat="45.21169" lon="5.7384">
        <ele>434.20001220703</ele>
        <time>2021-09-11T07:30:38.000Z</time>
      </trkpt>
      <trkpt lat="45.21168" lon="5.73842">
        <ele>433.20001220703</ele>
        <time>2021-09-11T07:30:40.000Z</time>
      </trkpt>
      <trkpt lat="45.21167" lon="5.73845">
        <ele>432.20001220703</ele>
        <time>2021-09-11T07:30:43.000Z</time>
      </trkpt>
      <trkpt lat="45.21165" lon="5.73847">
        <ele>431.79998779297</ele>
        <time>2021-09-11T07:30:44.000Z</time>
      </trkpt>
      <trkpt lat="45.21163" lon="5.7385">
        <ele>430.79998779297</ele>
        <time>2021-09-11T07:30:46.000Z</time>
      </trkpt>
      <trkpt lat="45.21163" lon="5.73852">
        <ele>430.39999389648</ele>
        <time>2021-09-11T07:30:47.000Z</time>
      </trkpt>
      <trkpt lat="45.21161" lon="5.73857">
        <ele>429.60000610352</ele>
        <time>2021-09-11T07:30:49.000Z</time>
      </trkpt>
      <trkpt lat="45.21161" lon="5.73861">
        <ele>428.60000610352</ele>
        <time>2021-09-11T07:30:51.000Z</time>
      </trkpt>
      <trkpt lat="45.21161" lon="5.73863">
        <ele>428.20001220703</ele>
        <time>2021-09-11T07:30:52.000Z</time>
      </trkpt>
      <trkpt lat="45.21162" lon="5.73866">
        <ele>427.39999389648</ele>
        <time>2021-09-11T07:30:54.000Z</time>
      </trkpt>
      <trkpt lat="45.21162" lon="5.73868">
        <ele>427</ele>
        <time>2021-09-11T07:30:55.000Z</time>
      </trkpt>
      <trkpt lat="45.21162" lon="5.73873">
        <ele>426</ele>
        <time>2021-09-11T07:30:58.000Z</time>
      </trkpt>
      <trkpt lat="45.21163" lon="5.73878">
        <ele>424.60000610352</ele>
        <time>2021-09-11T07:31:01.000Z</time>
      </trkpt>
      <trkpt lat="45.21163" lon="5.73879">
        <ele>424.39999389648</ele>
        <time>2021-09-11T07:31:02.000Z</time>
      </trkpt>
      <trkpt lat="45.21163" lon="5.73881">
        <ele>423.60000610352</ele>
        <time>2021-09-11T07:31:03.000Z</time>
      </trkpt>
      <trkpt lat="45.21163" lon="5.73881">
        <ele>423.39999389648</ele>
        <time>2021-09-11T07:31:04.000Z</time>
      </trkpt>
      <trkpt lat="45.21163" lon="5.73886">
        <ele>422.20001220703</ele>
        <time>2021-09-11T07:31:07.000Z</time>
      </trkpt>
      <trkpt lat="45.21163" lon="5.73888">
        <ele>422</ele>
        <time>2021-09-11T07:31:08.000Z</time>
      </trkpt>
      <trkpt lat="45.21164" lon="5.73893">
        <ele>421.20001220703</ele>
        <time>2021-09-11T07:31:10.000Z</time>
      </trkpt>
      <trkpt lat="45.21165" lon="5.73895">
        <ele>420.79998779297</ele>
        <time>2021-09-11T07:31:11.000Z</time>
      </trkpt>
      <trkpt lat="45.21166" lon="5.73897">
        <ele>420</ele>
        <time>2021-09-11T07:31:13.000Z</time>
      </trkpt>
      <trkpt lat="45.21164" lon="5.73901">
        <ele>419.39999389648</ele>
        <time>2021-09-11T07:31:15.000Z</time>
      </trkpt>
      <trkpt lat="45.21163" lon="5.73903">
        <ele>419</ele>
        <time>2021-09-11T07:31:16.000Z</time>
      </trkpt>
      <trkpt lat="45.21164" lon="5.73909">
        <ele>417.60000610352</ele>
        <time>2021-09-11T07:31:19.000Z</time>
      </trkpt>
      <trkpt lat="45.21164" lon="5.73914">
        <ele>416.60000610352</ele>
        <time>2021-09-11T07:31:21.000Z</time>
      </trkpt>
      <trkpt lat="45.21164" lon="5.7392">
        <ele>415.20001220703</ele>
        <time>2021-09-11T07:31:24.000Z</time>
      </trkpt>
      <trkpt lat="45.21164" lon="5.73926">
        <ele>414.39999389648</ele>
        <time>2021-09-11T07:31:27.000Z</time>
      </trkpt>
      <trkpt lat="45.21165" lon="5.73927">
        <ele>414</ele>
        <time>2021-09-11T07:31:28.000Z</time>
      </trkpt>
      <trkpt lat="45.21168" lon="5.73929">
        <ele>412.79998779297</ele>
        <time>2021-09-11T07:31:30.000Z</time>
      </trkpt>
      <trkpt lat="45.21169" lon="5.73931">
        <ele>412.39999389648</ele>
        <time>2021-09-11T07:31:31.000Z</time>
      </trkpt>
      <trkpt lat="45.21169" lon="5.73932">
        <ele>412.20001220703</ele>
        <time>2021-09-11T07:31:32.000Z</time>
      </trkpt>
      <trkpt lat="45.21169" lon="5.73934">
        <ele>411.79998779297</ele>
        <time>2021-09-11T07:31:33.000Z</time>
      </trkpt>
      <trkpt lat="45.21171" lon="5.73941">
        <ele>411.20001220703</ele>
        <time>2021-09-11T07:31:35.000Z</time>
      </trkpt>
      <trkpt lat="45.21172" lon="5.73944">
        <ele>410.79998779297</ele>
        <time>2021-09-11T07:31:36.000Z</time>
      </trkpt>
      <trkpt lat="45.21173" lon="5.73949">
        <ele>410.39999389648</ele>
        <time>2021-09-11T07:31:37.000Z</time>
      </trkpt>
      <trkpt lat="45.21175" lon="5.73964">
        <ele>409.39999389648</ele>
        <time>2021-09-11T07:31:41.000Z</time>
      </trkpt>
      <trkpt lat="45.21175" lon="5.73967">
        <ele>409.20001220703</ele>
        <time>2021-09-11T07:31:42.000Z</time>
      </trkpt>
      <trkpt lat="45.21175" lon="5.73983">
        <ele>408.39999389648</ele>
        <time>2021-09-11T07:31:46.000Z</time>
      </trkpt>
      <trkpt lat="45.21177" lon="5.73987">
        <ele>408.20001220703</ele>
        <time>2021-09-11T07:31:47.000Z</time>
      </trkpt>
      <trkpt lat="45.21187" lon="5.74005">
        <ele>408.20001220703</ele>
        <time>2021-09-11T07:31:53.000Z</time>
      </trkpt>
      <trkpt lat="45.21191" lon="5.74017">
        <ele>407.20001220703</ele>
        <time>2021-09-11T07:31:57.000Z</time>
      </trkpt>
      <trkpt lat="45.21192" lon="5.74025">
        <ele>407</ele>
        <time>2021-09-11T07:31:59.000Z</time>
      </trkpt>
      <trkpt lat="45.21192" lon="5.74032">
        <ele>406.20001220703</ele>
        <time>2021-09-11T07:32:02.000Z</time>
      </trkpt>
      <trkpt lat="45.21192" lon="5.74034">
        <ele>405.79998779297</ele>
        <time>2021-09-11T07:32:03.000Z</time>
      </trkpt>
      <trkpt lat="45.21191" lon="5.74038">
        <ele>405.39999389648</ele>
        <time>2021-09-11T07:32:05.000Z</time>
      </trkpt>
      <trkpt lat="45.21191" lon="5.74039">
        <ele>405</ele>
        <time>2021-09-11T07:32:06.000Z</time>
      </trkpt>
      <trkpt lat="45.2119" lon="5.74043">
        <ele>404</ele>
        <time>2021-09-11T07:32:08.000Z</time>
      </trkpt>
      <trkpt lat="45.2119" lon="5.74044">
        <ele>403.39999389648</ele>
        <time>2021-09-11T07:32:09.000Z</time>
      </trkpt>
      <trkpt lat="45.21189" lon="5.74048">
        <ele>402.79998779297</ele>
        <time>2021-09-11T07:32:11.000Z</time>
      </trkpt>
      <trkpt lat="45.2119" lon="5.74061">
        <ele>401.39999389648</ele>
        <time>2021-09-11T07:32:16.000Z</time>
      </trkpt>
      <trkpt lat="45.21189" lon="5.7407">
        <ele>400.20001220703</ele>
        <time>2021-09-11T07:32:19.000Z</time>
      </trkpt>
      <trkpt lat="45.21188" lon="5.74076">
        <ele>398.79998779297</ele>
        <time>2021-09-11T07:32:22.000Z</time>
      </trkpt>
      <trkpt lat="45.21188" lon="5.7408">
        <ele>398.20001220703</ele>
        <time>2021-09-11T07:32:24.000Z</time>
      </trkpt>
      <trkpt lat="45.21188" lon="5.74083">
        <ele>398</ele>
        <time>2021-09-11T07:32:25.000Z</time>
      </trkpt>
      <trkpt lat="45.21188" lon="5.74085">
        <ele>397.39999389648</ele>
        <time>2021-09-11T07:32:26.000Z</time>
      </trkpt>
      <trkpt lat="45.21188" lon="5.74089">
        <ele>396.20001220703</ele>
        <time>2021-09-11T07:32:28.000Z</time>
      </trkpt>
      <trkpt lat="45.21188" lon="5.74092">
        <ele>395.79998779297</ele>
        <time>2021-09-11T07:32:29.000Z</time>
      </trkpt>
      <trkpt lat="45.21187" lon="5.74096">
        <ele>395</ele>
        <time>2021-09-11T07:32:31.000Z</time>
      </trkpt>
      <trkpt lat="45.21186" lon="5.74104">
        <ele>393.79998779297</ele>
        <time>2021-09-11T07:32:35.000Z</time>
      </trkpt>
      <trkpt lat="45.21185" lon="5.74106">
        <ele>393.39999389648</ele>
        <time>2021-09-11T07:32:36.000Z</time>
      </trkpt>
      <trkpt lat="45.21184" lon="5.74111">
        <ele>392.60000610352</ele>
        <time>2021-09-11T07:32:38.000Z</time>
      </trkpt>
      <trkpt lat="45.2118" lon="5.74119">
        <ele>391.20001220703</ele>
        <time>2021-09-11T07:32:41.000Z</time>
      </trkpt>
      <trkpt lat="45.2118" lon="5.74123">
        <ele>391</ele>
        <time>2021-09-11T07:32:42.000Z</time>
      </trkpt>
      <trkpt lat="45.21185" lon="5.74135">
        <ele>390.20001220703</ele>
        <time>2021-09-11T07:32:46.000Z</time>
      </trkpt>
      <trkpt lat="45.21187" lon="5.74138">
        <ele>389.79998779297</ele>
        <time>2021-09-11T07:32:47.000Z</time>
      </trkpt>
      <trkpt lat="45.21198" lon="5.74158">
        <ele>389.20001220703</ele>
        <time>2021-09-11T07:32:54.000Z</time>
      </trkpt>
      <trkpt lat="45.212" lon="5.74161">
        <ele>389</ele>
        <time>2021-09-11T07:32:55.000Z</time>
      </trkpt>
      <trkpt lat="45.21207" lon="5.74169">
        <ele>387.79998779297</ele>
        <time>2021-09-11T07:32:59.000Z</time>
      </trkpt>
      <trkpt lat="45.21213" lon="5.74174">
        <ele>387</ele>
        <time>2021-09-11T07:33:02.000Z</time>
      </trkpt>
      <trkpt lat="45.21218" lon="5.74177">
        <ele>386.39999389648</ele>
        <time>2021-09-11T07:33:04.000Z</time>
      </trkpt>
      <trkpt lat="45.21225" lon="5.74181">
        <ele>385.39999389648</ele>
        <time>2021-09-11T07:33:07.000Z</time>
      </trkpt>
      <trkpt lat="45.21232" lon="5.74185">
        <ele>385</ele>
        <time>2021-09-11T07:33:10.000Z</time>
      </trkpt>
      <trkpt lat="45.21245" lon="5.74191">
        <ele>384.60000610352</ele>
        <time>2021-09-11T07:33:15.000Z</time>
      </trkpt>
      <trkpt lat="45.21265" lon="5.74198">
        <ele>384.79998779297</ele>
        <time>2021-09-11T07:33:22.000Z</time>
      </trkpt>
      <trkpt lat="45.21267" lon="5.742">
        <ele>384.79998779297</ele>
        <time>2021-09-11T07:33:23.000Z</time>
      </trkpt>
      <trkpt lat="45.21283" lon="5.74211">
        <ele>385.20001220703</ele>
        <time>2021-09-11T07:33:29.000Z</time>
      </trkpt>
      <trkpt lat="45.21289" lon="5.74218">
        <ele>385.39999389648</ele>
        <time>2021-09-11T07:33:32.000Z</time>
      </trkpt>
      <trkpt lat="45.21298" lon="5.74228">
        <ele>385.79998779297</ele>
        <time>2021-09-11T07:33:36.000Z</time>
      </trkpt>
      <trkpt lat="45.21302" lon="5.74233">
        <ele>386</ele>
        <time>2021-09-11T07:33:38.000Z</time>
      </trkpt>
      <trkpt lat="45.21304" lon="5.74241">
        <ele>386</ele>
        <time>2021-09-11T07:33:40.000Z</time>
      </trkpt>
      <trkpt lat="45.21304" lon="5.74244">
        <ele>386</ele>
        <time>2021-09-11T07:33:41.000Z</time>
      </trkpt>
      <trkpt lat="45.21305" lon="5.74248">
        <ele>386</ele>
        <time>2021-09-11T07:33:42.000Z</time>
      </trkpt>
      <trkpt lat="45.21309" lon="5.74257">
        <ele>385.60000610352</ele>
        <time>2021-09-11T07:33:45.000Z</time>
      </trkpt>
      <trkpt lat="45.21311" lon="5.74274">
        <ele>385.20001220703</ele>
        <time>2021-09-11T07:33:49.000Z</time>
      </trkpt>
      <trkpt lat="45.21312" lon="5.74284">
        <ele>385.20001220703</ele>
        <time>2021-09-11T07:33:52.000Z</time>
      </trkpt>
      <trkpt lat="45.2132" lon="5.74312">
        <ele>384.79998779297</ele>
        <time>2021-09-11T07:33:59.000Z</time>
      </trkpt>
      <trkpt lat="45.21326" lon="5.74328">
        <ele>384.39999389648</ele>
        <time>2021-09-11T07:34:03.000Z</time>
      </trkpt>
      <trkpt lat="45.21333" lon="5.74346">
        <ele>383.39999389648</ele>
        <time>2021-09-11T07:34:08.000Z</time>
      </trkpt>
      <trkpt lat="45.21334" lon="5.74349">
        <ele>383.20001220703</ele>
        <time>2021-09-11T07:34:09.000Z</time>
      </trkpt>
      <trkpt lat="45.21341" lon="5.74368">
        <ele>382</ele>
        <time>2021-09-11T07:34:14.000Z</time>
      </trkpt>
      <trkpt lat="45.21343" lon="5.74374">
        <ele>381.60000610352</ele>
        <time>2021-09-11T07:34:16.000Z</time>
      </trkpt>
      <trkpt lat="45.21345" lon="5.7438">
        <ele>380.79998779297</ele>
        <time>2021-09-11T07:34:18.000Z</time>
      </trkpt>
      <trkpt lat="45.21346" lon="5.7439">
        <ele>380.20001220703</ele>
        <time>2021-09-11T07:34:22.000Z</time>
      </trkpt>
      <trkpt lat="45.2134" lon="5.74388">
        <ele>380</ele>
        <time>2021-09-11T07:34:25.000Z</time>
      </trkpt>
      <trkpt lat="45.21339" lon="5.74386">
        <ele>379.79998779297</ele>
        <time>2021-09-11T07:34:26.000Z</time>
      </trkpt>
      <trkpt lat="45.21339" lon="5.74381">
        <ele>379.20001220703</ele>
        <time>2021-09-11T07:34:28.000Z</time>
      </trkpt>
      <trkpt lat="45.21339" lon="5.74381">
        <ele>378.79998779297</ele>
        <time>2021-09-11T07:34:30.000Z</time>
      </trkpt>
      <trkpt lat="45.21339" lon="5.74381">
        <ele>378.79998779297</ele>
        <time>2021-09-11T07:34:31.000Z</time>
      </trkpt>
      <trkpt lat="45.21337" lon="5.74383">
        <ele>378.60000610352</ele>
        <time>2021-09-11T07:34:33.000Z</time>
      </trkpt>
      <trkpt lat="45.21337" lon="5.74384">
        <ele>378.60000610352</ele>
        <time>2021-09-11T07:34:35.000Z</time>
      </trkpt>
      <trkpt lat="45.21337" lon="5.74384">
        <ele>378.60000610352</ele>
        <time>2021-09-11T07:34:37.000Z</time>
      </trkpt>
      <trkpt lat="45.21337" lon="5.74384">
        <ele>378.60000610352</ele>
        <time>2021-09-11T07:34:42.000Z</time>
      </trkpt>
      <trkpt lat="45.21339" lon="5.74385">
        <ele>378.79998779297</ele>
        <time>2021-09-11T07:34:45.000Z</time>
      </trkpt>
      <trkpt lat="45.2134" lon="5.74386">
        <ele>379</ele>
        <time>2021-09-11T07:34:46.000Z</time>
      </trkpt>
      <trkpt lat="45.21341" lon="5.74387">
        <ele>379.39999389648</ele>
        <time>2021-09-11T07:34:48.000Z</time>
      </trkpt>
      <trkpt lat="45.21342" lon="5.74383">
        <ele>380</ele>
        <time>2021-09-11T07:34:50.000Z</time>
      </trkpt>
      <trkpt lat="45.2134" lon="5.74375">
        <ele>380.79998779297</ele>
        <time>2021-09-11T07:34:53.000Z</time>
      </trkpt>
      <trkpt lat="45.21338" lon="5.74372">
        <ele>381.20001220703</ele>
        <time>2021-09-11T07:34:54.000Z</time>
      </trkpt>
      <trkpt lat="45.21336" lon="5.74367">
        <ele>381.39999389648</ele>
        <time>2021-09-11T07:34:56.000Z</time>
      </trkpt>
      <trkpt lat="45.21333" lon="5.74355">
        <ele>382.20001220703</ele>
        <time>2021-09-11T07:35:00.000Z</time>
      </trkpt>
      <trkpt lat="45.21328" lon="5.7434">
        <ele>383.39999389648</ele>
        <time>2021-09-11T07:35:05.000Z</time>
      </trkpt>
      <trkpt lat="45.21321" lon="5.74321">
        <ele>384.39999389648</ele>
        <time>2021-09-11T07:35:11.000Z</time>
      </trkpt>
      <trkpt lat="45.2132" lon="5.74317">
        <ele>384.39999389648</ele>
        <time>2021-09-11T07:35:12.000Z</time>
      </trkpt>
      <trkpt lat="45.21318" lon="5.7431">
        <ele>384.60000610352</ele>
        <time>2021-09-11T07:35:14.000Z</time>
      </trkpt>
      <trkpt lat="45.21312" lon="5.74291">
        <ele>384.60000610352</ele>
        <time>2021-09-11T07:35:20.000Z</time>
      </trkpt>
      <trkpt lat="45.21305" lon="5.74271">
        <ele>384.79998779297</ele>
        <time>2021-09-11T07:35:26.000Z</time>
      </trkpt>
      <trkpt lat="45.213" lon="5.74247">
        <ele>385.39999389648</ele>
        <time>2021-09-11T07:35:33.000Z</time>
      </trkpt>
      <trkpt lat="45.21289" lon="5.74226">
        <ele>385.39999389648</ele>
        <time>2021-09-11T07:35:40.000Z</time>
      </trkpt>
      <trkpt lat="45.21273" lon="5.7421">
        <ele>384.79998779297</ele>
        <time>2021-09-11T07:35:47.000Z</time>
      </trkpt>
      <trkpt lat="45.21271" lon="5.74207">
        <ele>384.60000610352</ele>
        <time>2021-09-11T07:35:48.000Z</time>
      </trkpt>
      <trkpt lat="45.21262" lon="5.74203">
        <ele>384.39999389648</ele>
        <time>2021-09-11T07:35:51.000Z</time>
      </trkpt>
      <trkpt lat="45.21251" lon="5.74197">
        <ele>384</ele>
        <time>2021-09-11T07:35:55.000Z</time>
      </trkpt>
      <trkpt lat="45.21231" lon="5.74192">
        <ele>383.79998779297</ele>
        <time>2021-09-11T07:36:02.000Z</time>
      </trkpt>
      <trkpt lat="45.21225" lon="5.7419">
        <ele>384</ele>
        <time>2021-09-11T07:36:04.000Z</time>
      </trkpt>
      <trkpt lat="45.21208" lon="5.74183">
        <ele>385.20001220703</ele>
        <time>2021-09-11T07:36:11.000Z</time>
      </trkpt>
      <trkpt lat="45.21206" lon="5.74181">
        <ele>385.39999389648</ele>
        <time>2021-09-11T07:36:12.000Z</time>
      </trkpt>
      <trkpt lat="45.21197" lon="5.74172">
        <ele>386.39999389648</ele>
        <time>2021-09-11T07:36:16.000Z</time>
      </trkpt>
      <trkpt lat="45.21194" lon="5.74167">
        <ele>387</ele>
        <time>2021-09-11T07:36:18.000Z</time>
      </trkpt>
      <trkpt lat="45.2119" lon="5.7416">
        <ele>387.39999389648</ele>
        <time>2021-09-11T07:36:21.000Z</time>
      </trkpt>
      <trkpt lat="45.21183" lon="5.7415">
        <ele>388</ele>
        <time>2021-09-11T07:36:25.000Z</time>
      </trkpt>
      <trkpt lat="45.21174" lon="5.74132">
        <ele>388.39999389648</ele>
        <time>2021-09-11T07:36:31.000Z</time>
      </trkpt>
      <trkpt lat="45.21172" lon="5.74125">
        <ele>388.60000610352</ele>
        <time>2021-09-11T07:36:33.000Z</time>
      </trkpt>
      <trkpt lat="45.21172" lon="5.7412">
        <ele>388.79998779297</ele>
        <time>2021-09-11T07:36:35.000Z</time>
      </trkpt>
      <trkpt lat="45.21175" lon="5.7411">
        <ele>389.79998779297</ele>
        <time>2021-09-11T07:36:39.000Z</time>
      </trkpt>
      <trkpt lat="45.21176" lon="5.74107">
        <ele>390.20001220703</ele>
        <time>2021-09-11T07:36:41.000Z</time>
      </trkpt>
      <trkpt lat="45.21178" lon="5.74103">
        <ele>391</ele>
        <time>2021-09-11T07:36:43.000Z</time>
      </trkpt>
      <trkpt lat="45.21179" lon="5.74101">
        <ele>391.20001220703</ele>
        <time>2021-09-11T07:36:44.000Z</time>
      </trkpt>
      <trkpt lat="45.2118" lon="5.74098">
        <ele>391.60000610352</ele>
        <time>2021-09-11T07:36:46.000Z</time>
      </trkpt>
      <trkpt lat="45.21181" lon="5.74096">
        <ele>392</ele>
        <time>2021-09-11T07:36:47.000Z</time>
      </trkpt>
      <trkpt lat="45.21183" lon="5.7409">
        <ele>393.39999389648</ele>
        <time>2021-09-11T07:36:51.000Z</time>
      </trkpt>
      <trkpt lat="45.21185" lon="5.74084">
        <ele>394.39999389648</ele>
        <time>2021-09-11T07:36:55.000Z</time>
      </trkpt>
      <trkpt lat="45.21186" lon="5.74078">
        <ele>395.39999389648</ele>
        <time>2021-09-11T07:36:59.000Z</time>
      </trkpt>
      <trkpt lat="45.21186" lon="5.74076">
        <ele>395.39999389648</ele>
        <time>2021-09-11T07:37:00.000Z</time>
      </trkpt>
      <trkpt lat="45.21185" lon="5.74075">
        <ele>395.79998779297</ele>
        <time>2021-09-11T07:37:01.000Z</time>
      </trkpt>
      <trkpt lat="45.21186" lon="5.74074">
        <ele>396.20001220703</ele>
        <time>2021-09-11T07:37:02.000Z</time>
      </trkpt>
      <trkpt lat="45.21186" lon="5.74073">
        <ele>396.60000610352</ele>
        <time>2021-09-11T07:37:03.000Z</time>
      </trkpt>
      <trkpt lat="45.21187" lon="5.74067">
        <ele>397.20001220703</ele>
        <time>2021-09-11T07:37:06.000Z</time>
      </trkpt>
      <trkpt lat="45.21186" lon="5.74065">
        <ele>397.60000610352</ele>
        <time>2021-09-11T07:37:07.000Z</time>
      </trkpt>
      <trkpt lat="45.21186" lon="5.74063">
        <ele>398</ele>
        <time>2021-09-11T07:37:08.000Z</time>
      </trkpt>
      <trkpt lat="45.21186" lon="5.74059">
        <ele>398.39999389648</ele>
        <time>2021-09-11T07:37:10.000Z</time>
      </trkpt>
      <trkpt lat="45.21185" lon="5.74055">
        <ele>398.79998779297</ele>
        <time>2021-09-11T07:37:12.000Z</time>
      </trkpt>
      <trkpt lat="45.21186" lon="5.74054">
        <ele>399.20001220703</ele>
        <time>2021-09-11T07:37:13.000Z</time>
      </trkpt>
      <trkpt lat="45.21188" lon="5.7405">
        <ele>400</ele>
        <time>2021-09-11T07:37:16.000Z</time>
      </trkpt>
      <trkpt lat="45.21191" lon="5.74045">
        <ele>401.20001220703</ele>
        <time>2021-09-11T07:37:19.000Z</time>
      </trkpt>
      <trkpt lat="45.21193" lon="5.74043">
        <ele>401.60000610352</ele>
        <time>2021-09-11T07:37:21.000Z</time>
      </trkpt>
      <trkpt lat="45.21194" lon="5.74039">
        <ele>402.79998779297</ele>
        <time>2021-09-11T07:37:24.000Z</time>
      </trkpt>
      <trkpt lat="45.21194" lon="5.74037">
        <ele>403.39999389648</ele>
        <time>2021-09-11T07:37:26.000Z</time>
      </trkpt>
      <trkpt lat="45.21194" lon="5.74035">
        <ele>403.79998779297</ele>
        <time>2021-09-11T07:37:27.000Z</time>
      </trkpt>
      <trkpt lat="45.21193" lon="5.74033">
        <ele>403.79998779297</ele>
        <time>2021-09-11T07:37:28.000Z</time>
      </trkpt>
      <trkpt lat="45.21189" lon="5.74024">
        <ele>404.39999389648</ele>
        <time>2021-09-11T07:37:34.000Z</time>
      </trkpt>
      <trkpt lat="45.21185" lon="5.74015">
        <ele>404.79998779297</ele>
        <time>2021-09-11T07:37:38.000Z</time>
      </trkpt>
      <trkpt lat="45.21183" lon="5.74013">
        <ele>404.79998779297</ele>
        <time>2021-09-11T07:37:39.000Z</time>
      </trkpt>
      <trkpt lat="45.21182" lon="5.74011">
        <ele>405</ele>
        <time>2021-09-11T07:37:40.000Z</time>
      </trkpt>
      <trkpt lat="45.21175" lon="5.73998">
        <ele>405.60000610352</ele>
        <time>2021-09-11T07:37:45.000Z</time>
      </trkpt>
      <trkpt lat="45.21173" lon="5.73991">
        <ele>406</ele>
        <time>2021-09-11T07:37:48.000Z</time>
      </trkpt>
      <trkpt lat="45.21174" lon="5.7398">
        <ele>406.39999389648</ele>
        <time>2021-09-11T07:37:52.000Z</time>
      </trkpt>
      <trkpt lat="45.21174" lon="5.73968">
        <ele>406.79998779297</ele>
        <time>2021-09-11T07:37:57.000Z</time>
      </trkpt>
      <trkpt lat="45.21173" lon="5.73966">
        <ele>407</ele>
        <time>2021-09-11T07:37:58.000Z</time>
      </trkpt>
      <trkpt lat="45.21171" lon="5.73965">
        <ele>407.20001220703</ele>
        <time>2021-09-11T07:37:59.000Z</time>
      </trkpt>
      <trkpt lat="45.2117" lon="5.73965">
        <ele>407.39999389648</ele>
        <time>2021-09-11T07:38:00.000Z</time>
      </trkpt>
      <trkpt lat="45.21165" lon="5.73959">
        <ele>408.39999389648</ele>
        <time>2021-09-11T07:38:04.000Z</time>
      </trkpt>
      <trkpt lat="45.21164" lon="5.73956">
        <ele>409</ele>
        <time>2021-09-11T07:38:06.000Z</time>
      </trkpt>
      <trkpt lat="45.21162" lon="5.73953">
        <ele>409.60000610352</ele>
        <time>2021-09-11T07:38:08.000Z</time>
      </trkpt>
      <trkpt lat="45.21162" lon="5.73951">
        <ele>410</ele>
        <time>2021-09-11T07:38:09.000Z</time>
      </trkpt>
      <trkpt lat="45.21161" lon="5.73945">
        <ele>410.60000610352</ele>
        <time>2021-09-11T07:38:12.000Z</time>
      </trkpt>
      <trkpt lat="45.21161" lon="5.73944">
        <ele>411</ele>
        <time>2021-09-11T07:38:13.000Z</time>
      </trkpt>
      <trkpt lat="45.21159" lon="5.73942">
        <ele>411.60000610352</ele>
        <time>2021-09-11T07:38:15.000Z</time>
      </trkpt>
      <trkpt lat="45.21159" lon="5.7394">
        <ele>411.60000610352</ele>
        <time>2021-09-11T07:38:16.000Z</time>
      </trkpt>
      <trkpt lat="45.21159" lon="5.73939">
        <ele>411.60000610352</ele>
        <time>2021-09-11T07:38:17.000Z</time>
      </trkpt>
      <trkpt lat="45.21159" lon="5.73931">
        <ele>412.79998779297</ele>
        <time>2021-09-11T07:38:21.000Z</time>
      </trkpt>
      <trkpt lat="45.2116" lon="5.7393">
        <ele>413</ele>
        <time>2021-09-11T07:38:22.000Z</time>
      </trkpt>
      <trkpt lat="45.21159" lon="5.73925">
        <ele>414.20001220703</ele>
        <time>2021-09-11T07:38:25.000Z</time>
      </trkpt>
      <trkpt lat="45.21159" lon="5.73923">
        <ele>414.39999389648</ele>
        <time>2021-09-11T07:38:27.000Z</time>
      </trkpt>
      <trkpt lat="45.21158" lon="5.73921">
        <ele>415.20001220703</ele>
        <time>2021-09-11T07:38:29.000Z</time>
      </trkpt>
      <trkpt lat="45.21157" lon="5.73918">
        <ele>415.79998779297</ele>
        <time>2021-09-11T07:38:31.000Z</time>
      </trkpt>
      <trkpt lat="45.21157" lon="5.73916">
        <ele>416.20001220703</ele>
        <time>2021-09-11T07:38:32.000Z</time>
      </trkpt>
      <trkpt lat="45.21158" lon="5.73915">
        <ele>416.39999389648</ele>
        <time>2021-09-11T07:38:33.000Z</time>
      </trkpt>
      <trkpt lat="45.21158" lon="5.73914">
        <ele>416.79998779297</ele>
        <time>2021-09-11T07:38:34.000Z</time>
      </trkpt>
      <trkpt lat="45.21158" lon="5.7391">
        <ele>417.39999389648</ele>
        <time>2021-09-11T07:38:36.000Z</time>
      </trkpt>
      <trkpt lat="45.21158" lon="5.73904">
        <ele>417.79998779297</ele>
        <time>2021-09-11T07:38:39.000Z</time>
      </trkpt>
      <trkpt lat="45.21158" lon="5.73901">
        <ele>418.39999389648</ele>
        <time>2021-09-11T07:38:41.000Z</time>
      </trkpt>
      <trkpt lat="45.21159" lon="5.73899">
        <ele>418.60000610352</ele>
        <time>2021-09-11T07:38:42.000Z</time>
      </trkpt>
      <trkpt lat="45.21159" lon="5.73898">
        <ele>418.79998779297</ele>
        <time>2021-09-11T07:38:43.000Z</time>
      </trkpt>
      <trkpt lat="45.21159" lon="5.73895">
        <ele>419.60000610352</ele>
        <time>2021-09-11T07:38:46.000Z</time>
      </trkpt>
      <trkpt lat="45.21159" lon="5.73895">
        <ele>420</ele>
        <time>2021-09-11T07:38:47.000Z</time>
      </trkpt>
      <trkpt lat="45.21159" lon="5.73892">
        <ele>420.79998779297</ele>
        <time>2021-09-11T07:38:50.000Z</time>
      </trkpt>
      <trkpt lat="45.21159" lon="5.7389">
        <ele>421</ele>
        <time>2021-09-11T07:38:51.000Z</time>
      </trkpt>
      <trkpt lat="45.21158" lon="5.73888">
        <ele>421.20001220703</ele>
        <time>2021-09-11T07:38:52.000Z</time>
      </trkpt>
      <trkpt lat="45.21157" lon="5.73884">
        <ele>422</ele>
        <time>2021-09-11T07:38:54.000Z</time>
      </trkpt>
      <trkpt lat="45.21158" lon="5.73883">
        <ele>422.20001220703</ele>
        <time>2021-09-11T07:38:55.000Z</time>
      </trkpt>
      <trkpt lat="45.21158" lon="5.73879">
        <ele>422.60000610352</ele>
        <time>2021-09-11T07:38:57.000Z</time>
      </trkpt>
      <trkpt lat="45.21156" lon="5.73873">
        <ele>423.60000610352</ele>
        <time>2021-09-11T07:39:01.000Z</time>
      </trkpt>
      <trkpt lat="45.21156" lon="5.73871">
        <ele>424</ele>
        <time>2021-09-11T07:39:02.000Z</time>
      </trkpt>
      <trkpt lat="45.21155" lon="5.73868">
        <ele>424.20001220703</ele>
        <time>2021-09-11T07:39:04.000Z</time>
      </trkpt>
      <trkpt lat="45.21155" lon="5.73866">
        <ele>424.79998779297</ele>
        <time>2021-09-11T07:39:06.000Z</time>
      </trkpt>
      <trkpt lat="45.21156" lon="5.7386">
        <ele>426</ele>
        <time>2021-09-11T07:39:10.000Z</time>
      </trkpt>
      <trkpt lat="45.21158" lon="5.73854">
        <ele>427</ele>
        <time>2021-09-11T07:39:14.000Z</time>
      </trkpt>
      <trkpt lat="45.21159" lon="5.73852">
        <ele>427.20001220703</ele>
        <time>2021-09-11T07:39:15.000Z</time>
      </trkpt>
      <trkpt lat="45.21161" lon="5.73849">
        <ele>428.20001220703</ele>
        <time>2021-09-11T07:39:18.000Z</time>
      </trkpt>
      <trkpt lat="45.21162" lon="5.73847">
        <ele>429</ele>
        <time>2021-09-11T07:39:20.000Z</time>
      </trkpt>
      <trkpt lat="45.21162" lon="5.73846">
        <ele>429.39999389648</ele>
        <time>2021-09-11T07:39:21.000Z</time>
      </trkpt>
      <trkpt lat="45.21162" lon="5.73844">
        <ele>430</ele>
        <time>2021-09-11T07:39:24.000Z</time>
      </trkpt>
      <trkpt lat="45.21162" lon="5.73843">
        <ele>430.39999389648</ele>
        <time>2021-09-11T07:39:25.000Z</time>
      </trkpt>
      <trkpt lat="45.21163" lon="5.7384">
        <ele>431.20001220703</ele>
        <time>2021-09-11T07:39:28.000Z</time>
      </trkpt>
      <trkpt lat="45.21164" lon="5.7384">
        <ele>431.39999389648</ele>
        <time>2021-09-11T07:39:29.000Z</time>
      </trkpt>
      <trkpt lat="45.21165" lon="5.73841">
        <ele>431.79998779297</ele>
        <time>2021-09-11T07:39:31.000Z</time>
      </trkpt>
      <trkpt lat="45.21165" lon="5.73843">
        <ele>432.20001220703</ele>
        <time>2021-09-11T07:39:32.000Z</time>
      </trkpt>
      <trkpt lat="45.21166" lon="5.73844">
        <ele>432.39999389648</ele>
        <time>2021-09-11T07:39:33.000Z</time>
      </trkpt>
      <trkpt lat="45.21166" lon="5.73844">
        <ele>432.79998779297</ele>
        <time>2021-09-11T07:39:34.000Z</time>
      </trkpt>
      <trkpt lat="45.21168" lon="5.73844">
        <ele>433.60000610352</ele>
        <time>2021-09-11T07:39:36.000Z</time>
      </trkpt>
      <trkpt lat="45.21169" lon="5.73845">
        <ele>433.79998779297</ele>
        <time>2021-09-11T07:39:37.000Z</time>
      </trkpt>
      <trkpt lat="45.2117" lon="5.73845">
        <ele>434</ele>
        <time>2021-09-11T07:39:38.000Z</time>
      </trkpt>
      <trkpt lat="45.21171" lon="5.73846">
        <ele>434.20001220703</ele>
        <time>2021-09-11T07:39:39.000Z</time>
      </trkpt>
      <trkpt lat="45.21172" lon="5.73846">
        <ele>434.79998779297</ele>
        <time>2021-09-11T07:39:42.000Z</time>
      </trkpt>
      <trkpt lat="45.21173" lon="5.73846">
        <ele>435.20001220703</ele>
        <time>2021-09-11T07:39:43.000Z</time>
      </trkpt>
      <trkpt lat="45.21173" lon="5.73846">
        <ele>435.60000610352</ele>
        <time>2021-09-11T07:39:44.000Z</time>
      </trkpt>
      <trkpt lat="45.21174" lon="5.73846">
        <ele>435.79998779297</ele>
        <time>2021-09-11T07:39:45.000Z</time>
      </trkpt>
      <trkpt lat="45.21176" lon="5.73846">
        <ele>436.20001220703</ele>
        <time>2021-09-11T07:39:47.000Z</time>
      </trkpt>
      <trkpt lat="45.21177" lon="5.73846">
        <ele>436.79998779297</ele>
        <time>2021-09-11T07:39:50.000Z</time>
      </trkpt>
      <trkpt lat="45.21177" lon="5.73846">
        <ele>437.20001220703</ele>
        <time>2021-09-11T07:39:51.000Z</time>
      </trkpt>
      <trkpt lat="45.21178" lon="5.73845">
        <ele>437.60000610352</ele>
        <time>2021-09-11T07:39:52.000Z</time>
      </trkpt>
      <trkpt lat="45.21179" lon="5.73844">
        <ele>438.39999389648</ele>
        <time>2021-09-11T07:39:55.000Z</time>
      </trkpt>
      <trkpt lat="45.21179" lon="5.73843">
        <ele>438.79998779297</ele>
        <time>2021-09-11T07:39:56.000Z</time>
      </trkpt>
      <trkpt lat="45.2118" lon="5.73842">
        <ele>439.20001220703</ele>
        <time>2021-09-11T07:39:57.000Z</time>
      </trkpt>
      <trkpt lat="45.21181" lon="5.7384">
        <ele>439.39999389648</ele>
        <time>2021-09-11T07:39:59.000Z</time>
      </trkpt>
      <trkpt lat="45.21182" lon="5.73837">
        <ele>439.79998779297</ele>
        <time>2021-09-11T07:40:01.000Z</time>
      </trkpt>
      <trkpt lat="45.21183" lon="5.73837">
        <ele>440.39999389648</ele>
        <time>2021-09-11T07:40:02.000Z</time>
      </trkpt>
      <trkpt lat="45.21185" lon="5.73833">
        <ele>441.60000610352</ele>
        <time>2021-09-11T07:40:06.000Z</time>
      </trkpt>
      <trkpt lat="45.21188" lon="5.73831">
        <ele>442.20001220703</ele>
        <time>2021-09-11T07:40:10.000Z</time>
      </trkpt>
      <trkpt lat="45.21187" lon="5.7383">
        <ele>442.39999389648</ele>
        <time>2021-09-11T07:40:11.000Z</time>
      </trkpt>
      <trkpt lat="45.21188" lon="5.73829">
        <ele>443</ele>
        <time>2021-09-11T07:40:12.000Z</time>
      </trkpt>
      <trkpt lat="45.2119" lon="5.73828">
        <ele>444</ele>
        <time>2021-09-11T07:40:15.000Z</time>
      </trkpt>
      <trkpt lat="45.21191" lon="5.73827">
        <ele>444.20001220703</ele>
        <time>2021-09-11T07:40:16.000Z</time>
      </trkpt>
      <trkpt lat="45.21191" lon="5.73826">
        <ele>444.39999389648</ele>
        <time>2021-09-11T07:40:17.000Z</time>
      </trkpt>
      <trkpt lat="45.21194" lon="5.73822">
        <ele>445.39999389648</ele>
        <time>2021-09-11T07:40:20.000Z</time>
      </trkpt>
      <trkpt lat="45.21195" lon="5.7382">
        <ele>446</ele>
        <time>2021-09-11T07:40:22.000Z</time>
      </trkpt>
      <trkpt lat="45.21196" lon="5.73816">
        <ele>446.60000610352</ele>
        <time>2021-09-11T07:40:25.000Z</time>
      </trkpt>
      <trkpt lat="45.21196" lon="5.73813">
        <ele>446.79998779297</ele>
        <time>2021-09-11T07:40:27.000Z</time>
      </trkpt>
      <trkpt lat="45.21196" lon="5.7381">
        <ele>447.60000610352</ele>
        <time>2021-09-11T07:40:29.000Z</time>
      </trkpt>
      <trkpt lat="45.21197" lon="5.73807">
        <ele>448.79998779297</ele>
        <time>2021-09-11T07:40:33.000Z</time>
      </trkpt>
      <trkpt lat="45.21197" lon="5.73804">
        <ele>449.39999389648</ele>
        <time>2021-09-11T07:40:36.000Z</time>
      </trkpt>
      <trkpt lat="45.21199" lon="5.73799">
        <ele>449.79998779297</ele>
        <time>2021-09-11T07:40:39.000Z</time>
      </trkpt>
      <trkpt lat="45.21199" lon="5.73796">
        <ele>451</ele>
        <time>2021-09-11T07:40:42.000Z</time>
      </trkpt>
      <trkpt lat="45.212" lon="5.73792">
        <ele>451.79998779297</ele>
        <time>2021-09-11T07:40:45.000Z</time>
      </trkpt>
      <trkpt lat="45.212" lon="5.73791">
        <ele>452</ele>
        <time>2021-09-11T07:40:46.000Z</time>
      </trkpt>
      <trkpt lat="45.212" lon="5.73788">
        <ele>452.60000610352</ele>
        <time>2021-09-11T07:40:48.000Z</time>
      </trkpt>
      <trkpt lat="45.212" lon="5.73785">
        <ele>453.20001220703</ele>
        <time>2021-09-11T07:40:50.000Z</time>
      </trkpt>
      <trkpt lat="45.21198" lon="5.73778">
        <ele>454.20001220703</ele>
        <time>2021-09-11T07:40:54.000Z</time>
      </trkpt>
      <trkpt lat="45.21197" lon="5.73776">
        <ele>454.60000610352</ele>
        <time>2021-09-11T07:40:55.000Z</time>
      </trkpt>
      <trkpt lat="45.21195" lon="5.73772">
        <ele>455.60000610352</ele>
        <time>2021-09-11T07:40:58.000Z</time>
      </trkpt>
      <trkpt lat="45.21194" lon="5.73765">
        <ele>456.39999389648</ele>
        <time>2021-09-11T07:41:02.000Z</time>
      </trkpt>
      <trkpt lat="45.21194" lon="5.73763">
        <ele>456.79998779297</ele>
        <time>2021-09-11T07:41:03.000Z</time>
      </trkpt>
      <trkpt lat="45.21193" lon="5.73751">
        <ele>457.79998779297</ele>
        <time>2021-09-11T07:41:08.000Z</time>
      </trkpt>
      <trkpt lat="45.21193" lon="5.73745">
        <ele>458.20001220703</ele>
        <time>2021-09-11T07:41:10.000Z</time>
      </trkpt>
      <trkpt lat="45.21193" lon="5.73738">
        <ele>458.79998779297</ele>
        <time>2021-09-11T07:41:13.000Z</time>
      </trkpt>
      <trkpt lat="45.21194" lon="5.73737">
        <ele>459.20001220703</ele>
        <time>2021-09-11T07:41:14.000Z</time>
      </trkpt>
      <trkpt lat="45.21195" lon="5.73733">
        <ele>459.79998779297</ele>
        <time>2021-09-11T07:41:16.000Z</time>
      </trkpt>
      <trkpt lat="45.21195" lon="5.73728">
        <ele>460.39999389648</ele>
        <time>2021-09-11T07:41:18.000Z</time>
      </trkpt>
      <trkpt lat="45.21195" lon="5.73724">
        <ele>461</ele>
        <time>2021-09-11T07:41:20.000Z</time>
      </trkpt>
      <trkpt lat="45.21195" lon="5.73722">
        <ele>461.39999389648</ele>
        <time>2021-09-11T07:41:21.000Z</time>
      </trkpt>
      <trkpt lat="45.21195" lon="5.73719">
        <ele>461.79998779297</ele>
        <time>2021-09-11T07:41:23.000Z</time>
      </trkpt>
      <trkpt lat="45.21194" lon="5.73714">
        <ele>462.60000610352</ele>
        <time>2021-09-11T07:41:26.000Z</time>
      </trkpt>
      <trkpt lat="45.21192" lon="5.73707">
        <ele>463.60000610352</ele>
        <time>2021-09-11T07:41:30.000Z</time>
      </trkpt>
      <trkpt lat="45.21192" lon="5.737">
        <ele>464.79998779297</ele>
        <time>2021-09-11T07:41:34.000Z</time>
      </trkpt>
      <trkpt lat="45.21191" lon="5.73697">
        <ele>465.39999389648</ele>
        <time>2021-09-11T07:41:37.000Z</time>
      </trkpt>
      <trkpt lat="45.2119" lon="5.73695">
        <ele>466</ele>
        <time>2021-09-11T07:41:39.000Z</time>
      </trkpt>
      <trkpt lat="45.2119" lon="5.73693">
        <ele>466.20001220703</ele>
        <time>2021-09-11T07:41:40.000Z</time>
      </trkpt>
      <trkpt lat="45.21191" lon="5.73687">
        <ele>467</ele>
        <time>2021-09-11T07:41:43.000Z</time>
      </trkpt>
      <trkpt lat="45.21189" lon="5.73685">
        <ele>467.60000610352</ele>
        <time>2021-09-11T07:41:46.000Z</time>
      </trkpt>
      <trkpt lat="45.21187" lon="5.73682">
        <ele>468.39999389648</ele>
        <time>2021-09-11T07:41:48.000Z</time>
      </trkpt>
      <trkpt lat="45.21187" lon="5.73681">
        <ele>468.39999389648</ele>
        <time>2021-09-11T07:41:49.000Z</time>
      </trkpt>
      <trkpt lat="45.21186" lon="5.73679">
        <ele>468.60000610352</ele>
        <time>2021-09-11T07:41:50.000Z</time>
      </trkpt>
      <trkpt lat="45.21187" lon="5.73676">
        <ele>469.39999389648</ele>
        <time>2021-09-11T07:41:52.000Z</time>
      </trkpt>
      <trkpt lat="45.21189" lon="5.73672">
        <ele>470</ele>
        <time>2021-09-11T07:41:55.000Z</time>
      </trkpt>
      <trkpt lat="45.21191" lon="5.73669">
        <ele>470.39999389648</ele>
        <time>2021-09-11T07:41:57.000Z</time>
      </trkpt>
      <trkpt lat="45.21192" lon="5.73666">
        <ele>470.79998779297</ele>
        <time>2021-09-11T07:41:58.000Z</time>
      </trkpt>
      <trkpt lat="45.21193" lon="5.7366">
        <ele>471.79998779297</ele>
        <time>2021-09-11T07:42:01.000Z</time>
      </trkpt>
      <trkpt lat="45.21194" lon="5.73658">
        <ele>472.20001220703</ele>
        <time>2021-09-11T07:42:02.000Z</time>
      </trkpt>
      <trkpt lat="45.21194" lon="5.73656">
        <ele>472.39999389648</ele>
        <time>2021-09-11T07:42:03.000Z</time>
      </trkpt>
      <trkpt lat="45.21193" lon="5.73655">
        <ele>472.79998779297</ele>
        <time>2021-09-11T07:42:05.000Z</time>
      </trkpt>
      <trkpt lat="45.21191" lon="5.73654">
        <ele>472.79998779297</ele>
        <time>2021-09-11T07:42:06.000Z</time>
      </trkpt>
      <trkpt lat="45.2119" lon="5.73654">
        <ele>472.79998779297</ele>
        <time>2021-09-11T07:42:07.000Z</time>
      </trkpt>
      <trkpt lat="45.21186" lon="5.73653">
        <ele>472.79998779297</ele>
        <time>2021-09-11T07:42:09.000Z</time>
      </trkpt>
      <trkpt lat="45.21182" lon="5.73649">
        <ele>472.60000610352</ele>
        <time>2021-09-11T07:42:12.000Z</time>
      </trkpt>
      <trkpt lat="45.21181" lon="5.73645">
        <ele>472.60000610352</ele>
        <time>2021-09-11T07:42:13.000Z</time>
      </trkpt>
      <trkpt lat="45.21177" lon="5.7363">
        <ele>472.79998779297</ele>
        <time>2021-09-11T07:42:18.000Z</time>
      </trkpt>
      <trkpt lat="45.21176" lon="5.73628">
        <ele>472.79998779297</ele>
        <time>2021-09-11T07:42:19.000Z</time>
      </trkpt>
      <trkpt lat="45.21174" lon="5.73622">
        <ele>473</ele>
        <time>2021-09-11T07:42:21.000Z</time>
      </trkpt>
      <trkpt lat="45.21172" lon="5.73619">
        <ele>473</ele>
        <time>2021-09-11T07:42:22.000Z</time>
      </trkpt>
      <trkpt lat="45.21164" lon="5.73607">
        <ele>473.20001220703</ele>
        <time>2021-09-11T07:42:27.000Z</time>
      </trkpt>
      <trkpt lat="45.21162" lon="5.73606">
        <ele>473.20001220703</ele>
        <time>2021-09-11T07:42:28.000Z</time>
      </trkpt>
      <trkpt lat="45.21153" lon="5.7359">
        <ele>474</ele>
        <time>2021-09-11T07:42:34.000Z</time>
      </trkpt>
      <trkpt lat="45.21137" lon="5.73576">
        <ele>474.20001220703</ele>
        <time>2021-09-11T07:42:42.000Z</time>
      </trkpt>
      <trkpt lat="45.21131" lon="5.73571">
        <ele>474.60000610352</ele>
        <time>2021-09-11T07:42:45.000Z</time>
      </trkpt>
      <trkpt lat="45.21123" lon="5.73568">
        <ele>474.79998779297</ele>
        <time>2021-09-11T07:42:48.000Z</time>
      </trkpt>
      <trkpt lat="45.21121" lon="5.73567">
        <ele>474.79998779297</ele>
        <time>2021-09-11T07:42:49.000Z</time>
      </trkpt>
      <trkpt lat="45.21119" lon="5.73566">
        <ele>475.20001220703</ele>
        <time>2021-09-11T07:42:50.000Z</time>
      </trkpt>
      <trkpt lat="45.21108" lon="5.73553">
        <ele>475.60000610352</ele>
        <time>2021-09-11T07:42:56.000Z</time>
      </trkpt>
      <trkpt lat="45.211" lon="5.73536">
        <ele>475.60000610352</ele>
        <time>2021-09-11T07:43:01.000Z</time>
      </trkpt>
      <trkpt lat="45.211" lon="5.73525">
        <ele>475.79998779297</ele>
        <time>2021-09-11T07:43:04.000Z</time>
      </trkpt>
      <trkpt lat="45.211" lon="5.73521">
        <ele>475.79998779297</ele>
        <time>2021-09-11T07:43:05.000Z</time>
      </trkpt>
      <trkpt lat="45.21102" lon="5.73514">
        <ele>476.20001220703</ele>
        <time>2021-09-11T07:43:07.000Z</time>
      </trkpt>
      <trkpt lat="45.21103" lon="5.73505">
        <ele>476.60000610352</ele>
        <time>2021-09-11T07:43:10.000Z</time>
      </trkpt>
      <trkpt lat="45.21104" lon="5.73501">
        <ele>476.79998779297</ele>
        <time>2021-09-11T07:43:11.000Z</time>
      </trkpt>
      <trkpt lat="45.21108" lon="5.73493">
        <ele>477.20001220703</ele>
        <time>2021-09-11T07:43:14.000Z</time>
      </trkpt>
      <trkpt lat="45.21109" lon="5.73487">
        <ele>478.39999389648</ele>
        <time>2021-09-11T07:43:17.000Z</time>
      </trkpt>
      <trkpt lat="45.2111" lon="5.73484">
        <ele>478.60000610352</ele>
        <time>2021-09-11T07:43:18.000Z</time>
      </trkpt>
      <trkpt lat="45.21111" lon="5.73479">
        <ele>479.39999389648</ele>
        <time>2021-09-11T07:43:20.000Z</time>
      </trkpt>
      <trkpt lat="45.21111" lon="5.73476">
        <ele>480</ele>
        <time>2021-09-11T07:43:22.000Z</time>
      </trkpt>
      <trkpt lat="45.21111" lon="5.73475">
        <ele>480.39999389648</ele>
        <time>2021-09-11T07:43:23.000Z</time>
      </trkpt>
      <trkpt lat="45.21108" lon="5.73475">
        <ele>480.60000610352</ele>
        <time>2021-09-11T07:43:25.000Z</time>
      </trkpt>
      <trkpt lat="45.21102" lon="5.73475">
        <ele>480.60000610352</ele>
        <time>2021-09-11T07:43:27.000Z</time>
      </trkpt>
      <trkpt lat="45.211" lon="5.73474">
        <ele>480.60000610352</ele>
        <time>2021-09-11T07:43:28.000Z</time>
      </trkpt>
      <trkpt lat="45.21094" lon="5.73468">
        <ele>480.39999389648</ele>
        <time>2021-09-11T07:43:31.000Z</time>
      </trkpt>
      <trkpt lat="45.21084" lon="5.73461">
        <ele>480.20001220703</ele>
        <time>2021-09-11T07:43:35.000Z</time>
      </trkpt>
      <trkpt lat="45.2108" lon="5.73457">
        <ele>480.39999389648</ele>
        <time>2021-09-11T07:43:37.000Z</time>
      </trkpt>
      <trkpt lat="45.21067" lon="5.73451">
        <ele>480.79998779297</ele>
        <time>2021-09-11T07:43:42.000Z</time>
      </trkpt>
      <trkpt lat="45.21063" lon="5.73444">
        <ele>480.79998779297</ele>
        <time>2021-09-11T07:43:45.000Z</time>
      </trkpt>
      <trkpt lat="45.21061" lon="5.73441">
        <ele>480.60000610352</ele>
        <time>2021-09-11T07:43:46.000Z</time>
      </trkpt>
      <trkpt lat="45.2106" lon="5.73438">
        <ele>480.39999389648</ele>
        <time>2021-09-11T07:43:47.000Z</time>
      </trkpt>
      <trkpt lat="45.21059" lon="5.7342">
        <ele>480</ele>
        <time>2021-09-11T07:43:51.000Z</time>
      </trkpt>
      <trkpt lat="45.21061" lon="5.73414">
        <ele>480.20001220703</ele>
        <time>2021-09-11T07:43:53.000Z</time>
      </trkpt>
      <trkpt lat="45.21063" lon="5.73405">
        <ele>481</ele>
        <time>2021-09-11T07:43:57.000Z</time>
      </trkpt>
      <trkpt lat="45.21063" lon="5.73404">
        <ele>481.20001220703</ele>
        <time>2021-09-11T07:43:58.000Z</time>
      </trkpt>
      <trkpt lat="45.21062" lon="5.73403">
        <ele>481.20001220703</ele>
        <time>2021-09-11T07:43:59.000Z</time>
      </trkpt>
      <trkpt lat="45.21055" lon="5.73399">
        <ele>482</ele>
        <time>2021-09-11T07:44:03.000Z</time>
      </trkpt>
      <trkpt lat="45.21054" lon="5.73397">
        <ele>482.39999389648</ele>
        <time>2021-09-11T07:44:05.000Z</time>
      </trkpt>
      <trkpt lat="45.21053" lon="5.73394">
        <ele>482.79998779297</ele>
        <time>2021-09-11T07:44:07.000Z</time>
      </trkpt>
      <trkpt lat="45.21053" lon="5.73392">
        <ele>483</ele>
        <time>2021-09-11T07:44:08.000Z</time>
      </trkpt>
      <trkpt lat="45.21052" lon="5.73389">
        <ele>483.39999389648</ele>
        <time>2021-09-11T07:44:10.000Z</time>
      </trkpt>
      <trkpt lat="45.21052" lon="5.73387">
        <ele>483.39999389648</ele>
        <time>2021-09-11T07:44:12.000Z</time>
      </trkpt>
      <trkpt lat="45.21037" lon="5.73381">
        <ele>483.39999389648</ele>
        <time>2021-09-11T07:44:20.000Z</time>
      </trkpt>
      <trkpt lat="45.21035" lon="5.73381">
        <ele>483.20001220703</ele>
        <time>2021-09-11T07:44:21.000Z</time>
      </trkpt>
      <trkpt lat="45.21024" lon="5.73377">
        <ele>483</ele>
        <time>2021-09-11T07:44:25.000Z</time>
      </trkpt>
      <trkpt lat="45.21016" lon="5.73374">
        <ele>483</ele>
        <time>2021-09-11T07:44:28.000Z</time>
      </trkpt>
      <trkpt lat="45.21013" lon="5.73371">
        <ele>483</ele>
        <time>2021-09-11T07:44:30.000Z</time>
      </trkpt>
      <trkpt lat="45.21007" lon="5.73364">
        <ele>483</ele>
        <time>2021-09-11T07:44:33.000Z</time>
      </trkpt>
      <trkpt lat="45.21005" lon="5.73364">
        <ele>483</ele>
        <time>2021-09-11T07:44:34.000Z</time>
      </trkpt>
      <trkpt lat="45.20994" lon="5.73368">
        <ele>484</ele>
        <time>2021-09-11T07:44:41.000Z</time>
      </trkpt>
      <trkpt lat="45.20993" lon="5.73369">
        <ele>484</ele>
        <time>2021-09-11T07:44:42.000Z</time>
      </trkpt>
      <trkpt lat="45.20988" lon="5.73372">
        <ele>484.60000610352</ele>
        <time>2021-09-11T07:44:44.000Z</time>
      </trkpt>
      <trkpt lat="45.20986" lon="5.73372">
        <ele>485</ele>
        <time>2021-09-11T07:44:45.000Z</time>
      </trkpt>
      <trkpt lat="45.20983" lon="5.73372">
        <ele>485.20001220703</ele>
        <time>2021-09-11T07:44:46.000Z</time>
      </trkpt>
      <trkpt lat="45.2098" lon="5.73372">
        <ele>485.39999389648</ele>
        <time>2021-09-11T07:44:47.000Z</time>
      </trkpt>
      <trkpt lat="45.20974" lon="5.73368">
        <ele>485.39999389648</ele>
        <time>2021-09-11T07:44:49.000Z</time>
      </trkpt>
      <trkpt lat="45.2097" lon="5.73363">
        <ele>485.39999389648</ele>
        <time>2021-09-11T07:44:51.000Z</time>
      </trkpt>
      <trkpt lat="45.20964" lon="5.73362">
        <ele>485.60000610352</ele>
        <time>2021-09-11T07:44:53.000Z</time>
      </trkpt>
      <trkpt lat="45.2096" lon="5.73362">
        <ele>485.79998779297</ele>
        <time>2021-09-11T07:44:54.000Z</time>
      </trkpt>
      <trkpt lat="45.20955" lon="5.7336">
        <ele>485.79998779297</ele>
        <time>2021-09-11T07:44:56.000Z</time>
      </trkpt>
      <trkpt lat="45.20949" lon="5.73358">
        <ele>485.79998779297</ele>
        <time>2021-09-11T07:44:58.000Z</time>
      </trkpt>
      <trkpt lat="45.20935" lon="5.73354">
        <ele>486.20001220703</ele>
        <time>2021-09-11T07:45:04.000Z</time>
      </trkpt>
      <trkpt lat="45.20932" lon="5.73354">
        <ele>486.39999389648</ele>
        <time>2021-09-11T07:45:05.000Z</time>
      </trkpt>
      <trkpt lat="45.20924" lon="5.73352">
        <ele>486.79998779297</ele>
        <time>2021-09-11T07:45:08.000Z</time>
      </trkpt>
      <trkpt lat="45.20922" lon="5.73351">
        <ele>487</ele>
        <time>2021-09-11T07:45:09.000Z</time>
      </trkpt>
      <trkpt lat="45.20914" lon="5.73348">
        <ele>487.39999389648</ele>
        <time>2021-09-11T07:45:12.000Z</time>
      </trkpt>
      <trkpt lat="45.20909" lon="5.73347">
        <ele>487.60000610352</ele>
        <time>2021-09-11T07:45:14.000Z</time>
      </trkpt>
      <trkpt lat="45.20907" lon="5.73345">
        <ele>487.79998779297</ele>
        <time>2021-09-11T07:45:15.000Z</time>
      </trkpt>
      <trkpt lat="45.20897" lon="5.7334">
        <ele>488.60000610352</ele>
        <time>2021-09-11T07:45:19.000Z</time>
      </trkpt>
      <trkpt lat="45.20895" lon="5.7334">
        <ele>488.79998779297</ele>
        <time>2021-09-11T07:45:20.000Z</time>
      </trkpt>
      <trkpt lat="45.20894" lon="5.73341">
        <ele>489</ele>
        <time>2021-09-11T07:45:21.000Z</time>
      </trkpt>
      <trkpt lat="45.2089" lon="5.73339">
        <ele>489.60000610352</ele>
        <time>2021-09-11T07:45:23.000Z</time>
      </trkpt>
      <trkpt lat="45.20888" lon="5.73339">
        <ele>490</ele>
        <time>2021-09-11T07:45:24.000Z</time>
      </trkpt>
      <trkpt lat="45.20885" lon="5.73338">
        <ele>490.60000610352</ele>
        <time>2021-09-11T07:45:26.000Z</time>
      </trkpt>
      <trkpt lat="45.20883" lon="5.73338">
        <ele>490.79998779297</ele>
        <time>2021-09-11T07:45:27.000Z</time>
      </trkpt>
      <trkpt lat="45.20879" lon="5.73337">
        <ele>491.79998779297</ele>
        <time>2021-09-11T07:45:30.000Z</time>
      </trkpt>
      <trkpt lat="45.20876" lon="5.73336">
        <ele>492.39999389648</ele>
        <time>2021-09-11T07:45:32.000Z</time>
      </trkpt>
      <trkpt lat="45.20875" lon="5.73336">
        <ele>493</ele>
        <time>2021-09-11T07:45:34.000Z</time>
      </trkpt>
      <trkpt lat="45.20872" lon="5.73335">
        <ele>493.60000610352</ele>
        <time>2021-09-11T07:45:36.000Z</time>
      </trkpt>
      <trkpt lat="45.20871" lon="5.73334">
        <ele>494</ele>
        <time>2021-09-11T07:45:37.000Z</time>
      </trkpt>
      <trkpt lat="45.20866" lon="5.73332">
        <ele>495.39999389648</ele>
        <time>2021-09-11T07:45:42.000Z</time>
      </trkpt>
      <trkpt lat="45.20863" lon="5.73332">
        <ele>496</ele>
        <time>2021-09-11T07:45:44.000Z</time>
      </trkpt>
      <trkpt lat="45.20862" lon="5.73331">
        <ele>496.20001220703</ele>
        <time>2021-09-11T07:45:45.000Z</time>
      </trkpt>
      <trkpt lat="45.20858" lon="5.73329">
        <ele>496.60000610352</ele>
        <time>2021-09-11T07:45:47.000Z</time>
      </trkpt>
      <trkpt lat="45.20856" lon="5.73326">
        <ele>496.79998779297</ele>
        <time>2021-09-11T07:45:49.000Z</time>
      </trkpt>
      <trkpt lat="45.20852" lon="5.73321">
        <ele>497.60000610352</ele>
        <time>2021-09-11T07:45:52.000Z</time>
      </trkpt>
      <trkpt lat="45.20851" lon="5.73319">
        <ele>497.79998779297</ele>
        <time>2021-09-11T07:45:53.000Z</time>
      </trkpt>
      <trkpt lat="45.2085" lon="5.73314">
        <ele>498.39999389648</ele>
        <time>2021-09-11T07:45:55.000Z</time>
      </trkpt>
      <trkpt lat="45.20849" lon="5.73311">
        <ele>498.60000610352</ele>
        <time>2021-09-11T07:45:56.000Z</time>
      </trkpt>
      <trkpt lat="45.20848" lon="5.73306">
        <ele>499</ele>
        <time>2021-09-11T07:45:58.000Z</time>
      </trkpt>
      <trkpt lat="45.20846" lon="5.73302">
        <ele>499.20001220703</ele>
        <time>2021-09-11T07:46:00.000Z</time>
      </trkpt>
      <trkpt lat="45.20845" lon="5.733">
        <ele>499.20001220703</ele>
        <time>2021-09-11T07:46:01.000Z</time>
      </trkpt>
      <trkpt lat="45.20843" lon="5.73299">
        <ele>499.20001220703</ele>
        <time>2021-09-11T07:46:02.000Z</time>
      </trkpt>
      <trkpt lat="45.20835" lon="5.73285">
        <ele>499.39999389648</ele>
        <time>2021-09-11T07:46:08.000Z</time>
      </trkpt>
      <trkpt lat="45.20832" lon="5.73278">
        <ele>499.60000610352</ele>
        <time>2021-09-11T07:46:11.000Z</time>
      </trkpt>
      <trkpt lat="45.20827" lon="5.73271">
        <ele>499.60000610352</ele>
        <time>2021-09-11T07:46:14.000Z</time>
      </trkpt>
      <trkpt lat="45.20825" lon="5.73262">
        <ele>500</ele>
        <time>2021-09-11T07:46:17.000Z</time>
      </trkpt>
      <trkpt lat="45.20824" lon="5.73256">
        <ele>500.39999389648</ele>
        <time>2021-09-11T07:46:19.000Z</time>
      </trkpt>
      <trkpt lat="45.20823" lon="5.73254">
        <ele>500.60000610352</ele>
        <time>2021-09-11T07:46:20.000Z</time>
      </trkpt>
      <trkpt lat="45.20818" lon="5.73239">
        <ele>501.60000610352</ele>
        <time>2021-09-11T07:46:25.000Z</time>
      </trkpt>
      <trkpt lat="45.20816" lon="5.73235">
        <ele>502.39999389648</ele>
        <time>2021-09-11T07:46:27.000Z</time>
      </trkpt>
      <trkpt lat="45.20815" lon="5.73234">
        <ele>502.60000610352</ele>
        <time>2021-09-11T07:46:28.000Z</time>
      </trkpt>
      <trkpt lat="45.20813" lon="5.7323">
        <ele>503</ele>
        <time>2021-09-11T07:46:30.000Z</time>
      </trkpt>
      <trkpt lat="45.20809" lon="5.73224">
        <ele>503.79998779297</ele>
        <time>2021-09-11T07:46:33.000Z</time>
      </trkpt>
      <trkpt lat="45.20808" lon="5.73221">
        <ele>503.79998779297</ele>
        <time>2021-09-11T07:46:34.000Z</time>
      </trkpt>
      <trkpt lat="45.20802" lon="5.73214">
        <ele>504.39999389648</ele>
        <time>2021-09-11T07:46:38.000Z</time>
      </trkpt>
      <trkpt lat="45.20801" lon="5.73211">
        <ele>504.60000610352</ele>
        <time>2021-09-11T07:46:39.000Z</time>
      </trkpt>
      <trkpt lat="45.208" lon="5.73209">
        <ele>504.79998779297</ele>
        <time>2021-09-11T07:46:40.000Z</time>
      </trkpt>
      <trkpt lat="45.20797" lon="5.73206">
        <ele>505.20001220703</ele>
        <time>2021-09-11T07:46:42.000Z</time>
      </trkpt>
      <trkpt lat="45.20796" lon="5.73204">
        <ele>505.39999389648</ele>
        <time>2021-09-11T07:46:43.000Z</time>
      </trkpt>
      <trkpt lat="45.20792" lon="5.73197">
        <ele>505.79998779297</ele>
        <time>2021-09-11T07:46:46.000Z</time>
      </trkpt>
      <trkpt lat="45.2079" lon="5.73192">
        <ele>506.20001220703</ele>
        <time>2021-09-11T07:46:48.000Z</time>
      </trkpt>
      <trkpt lat="45.20788" lon="5.7318">
        <ele>507.39999389648</ele>
        <time>2021-09-11T07:46:52.000Z</time>
      </trkpt>
      <trkpt lat="45.20787" lon="5.73177">
        <ele>507.60000610352</ele>
        <time>2021-09-11T07:46:53.000Z</time>
      </trkpt>
      <trkpt lat="45.20787" lon="5.73171">
        <ele>508.60000610352</ele>
        <time>2021-09-11T07:46:55.000Z</time>
      </trkpt>
      <trkpt lat="45.20787" lon="5.73166">
        <ele>509.60000610352</ele>
        <time>2021-09-11T07:46:57.000Z</time>
      </trkpt>
      <trkpt lat="45.20787" lon="5.73166">
        <ele>510</ele>
        <time>2021-09-11T07:46:58.000Z</time>
      </trkpt>
      <trkpt lat="45.20786" lon="5.73163">
        <ele>510.60000610352</ele>
        <time>2021-09-11T07:47:00.000Z</time>
      </trkpt>
      <trkpt lat="45.20784" lon="5.73159">
        <ele>511.39999389648</ele>
        <time>2021-09-11T07:47:02.000Z</time>
      </trkpt>
      <trkpt lat="45.20784" lon="5.73158">
        <ele>511.79998779297</ele>
        <time>2021-09-11T07:47:03.000Z</time>
      </trkpt>
      <trkpt lat="45.20783" lon="5.73154">
        <ele>513</ele>
        <time>2021-09-11T07:47:06.000Z</time>
      </trkpt>
      <trkpt lat="45.20783" lon="5.73151">
        <ele>513.79998779297</ele>
        <time>2021-09-11T07:47:08.000Z</time>
      </trkpt>
      <trkpt lat="45.20781" lon="5.73148">
        <ele>514.20001220703</ele>
        <time>2021-09-11T07:47:10.000Z</time>
      </trkpt>
      <trkpt lat="45.20778" lon="5.7314">
        <ele>514.59997558594</ele>
        <time>2021-09-11T07:47:13.000Z</time>
      </trkpt>
      <trkpt lat="45.20777" lon="5.73137">
        <ele>514.79998779297</ele>
        <time>2021-09-11T07:47:14.000Z</time>
      </trkpt>
      <trkpt lat="45.20774" lon="5.73136">
        <ele>515.20001220703</ele>
        <time>2021-09-11T07:47:16.000Z</time>
      </trkpt>
      <trkpt lat="45.20773" lon="5.73136">
        <ele>515.40002441406</ele>
        <time>2021-09-11T07:47:17.000Z</time>
      </trkpt>
      <trkpt lat="45.2077" lon="5.73133">
        <ele>516</ele>
        <time>2021-09-11T07:47:20.000Z</time>
      </trkpt>
      <trkpt lat="45.20769" lon="5.7313">
        <ele>516.40002441406</ele>
        <time>2021-09-11T07:47:22.000Z</time>
      </trkpt>
      <trkpt lat="45.20757" lon="5.73124">
        <ele>517</ele>
        <time>2021-09-11T07:47:29.000Z</time>
      </trkpt>
      <trkpt lat="45.20751" lon="5.73117">
        <ele>517.40002441406</ele>
        <time>2021-09-11T07:47:33.000Z</time>
      </trkpt>
      <trkpt lat="45.20748" lon="5.73114">
        <ele>517.40002441406</ele>
        <time>2021-09-11T07:47:35.000Z</time>
      </trkpt>
      <trkpt lat="45.20739" lon="5.73109">
        <ele>517.40002441406</ele>
        <time>2021-09-11T07:47:40.000Z</time>
      </trkpt>
      <trkpt lat="45.2073" lon="5.73098">
        <ele>516.79998779297</ele>
        <time>2021-09-11T07:47:46.000Z</time>
      </trkpt>
      <trkpt lat="45.20726" lon="5.73096">
        <ele>516.79998779297</ele>
        <time>2021-09-11T07:47:49.000Z</time>
      </trkpt>
      <trkpt lat="45.20719" lon="5.73088">
        <ele>517</ele>
        <time>2021-09-11T07:47:53.000Z</time>
      </trkpt>
      <trkpt lat="45.20716" lon="5.73084">
        <ele>517.20001220703</ele>
        <time>2021-09-11T07:47:55.000Z</time>
      </trkpt>
      <trkpt lat="45.2071" lon="5.73079">
        <ele>517.59997558594</ele>
        <time>2021-09-11T07:47:59.000Z</time>
      </trkpt>
      <trkpt lat="45.20703" lon="5.73071">
        <ele>517.59997558594</ele>
        <time>2021-09-11T07:48:04.000Z</time>
      </trkpt>
      <trkpt lat="45.20702" lon="5.73069">
        <ele>517.40002441406</ele>
        <time>2021-09-11T07:48:05.000Z</time>
      </trkpt>
      <trkpt lat="45.20698" lon="5.73064">
        <ele>517.20001220703</ele>
        <time>2021-09-11T07:48:07.000Z</time>
      </trkpt>
      <trkpt lat="45.20693" lon="5.73059">
        <ele>516.59997558594</ele>
        <time>2021-09-11T07:48:10.000Z</time>
      </trkpt>
      <trkpt lat="45.20687" lon="5.73052">
        <ele>516.20001220703</ele>
        <time>2021-09-11T07:48:14.000Z</time>
      </trkpt>
      <trkpt lat="45.20682" lon="5.73048">
        <ele>515.40002441406</ele>
        <time>2021-09-11T07:48:17.000Z</time>
      </trkpt>
      <trkpt lat="45.2068" lon="5.73045">
        <ele>515</ele>
        <time>2021-09-11T07:48:18.000Z</time>
      </trkpt>
      <trkpt lat="45.20678" lon="5.73041">
        <ele>514.59997558594</ele>
        <time>2021-09-11T07:48:20.000Z</time>
      </trkpt>
      <trkpt lat="45.20674" lon="5.73038">
        <ele>514.40002441406</ele>
        <time>2021-09-11T07:48:22.000Z</time>
      </trkpt>
      <trkpt lat="45.20668" lon="5.73033">
        <ele>514</ele>
        <time>2021-09-11T07:48:25.000Z</time>
      </trkpt>
      <trkpt lat="45.20658" lon="5.7302">
        <ele>514.40002441406</ele>
        <time>2021-09-11T07:48:30.000Z</time>
      </trkpt>
      <trkpt lat="45.20642" lon="5.73006">
        <ele>514.20001220703</ele>
        <time>2021-09-11T07:48:38.000Z</time>
      </trkpt>
      <trkpt lat="45.20632" lon="5.72994">
        <ele>513.79998779297</ele>
        <time>2021-09-11T07:48:45.000Z</time>
      </trkpt>
      <trkpt lat="45.20626" lon="5.72989">
        <ele>514</ele>
        <time>2021-09-11T07:48:49.000Z</time>
      </trkpt>
      <trkpt lat="45.20623" lon="5.72986">
        <ele>514</ele>
        <time>2021-09-11T07:48:51.000Z</time>
      </trkpt>
      <trkpt lat="45.2061" lon="5.72977">
        <ele>513.40002441406</ele>
        <time>2021-09-11T07:48:59.000Z</time>
      </trkpt>
      <trkpt lat="45.20604" lon="5.72972">
        <ele>513.40002441406</ele>
        <time>2021-09-11T07:49:02.000Z</time>
      </trkpt>
      <trkpt lat="45.20598" lon="5.72966">
        <ele>513.59997558594</ele>
        <time>2021-09-11T07:49:05.000Z</time>
      </trkpt>
      <trkpt lat="45.20586" lon="5.72952">
        <ele>513.79998779297</ele>
        <time>2021-09-11T07:49:11.000Z</time>
      </trkpt>
      <trkpt lat="45.20581" lon="5.72949">
        <ele>514</ele>
        <time>2021-09-11T07:49:14.000Z</time>
      </trkpt>
      <trkpt lat="45.20574" lon="5.72942">
        <ele>514.20001220703</ele>
        <time>2021-09-11T07:49:18.000Z</time>
      </trkpt>
      <trkpt lat="45.20569" lon="5.72938">
        <ele>514.40002441406</ele>
        <time>2021-09-11T07:49:21.000Z</time>
      </trkpt>
      <trkpt lat="45.20564" lon="5.72933">
        <ele>514.40002441406</ele>
        <time>2021-09-11T07:49:23.000Z</time>
      </trkpt>
      <trkpt lat="45.20557" lon="5.72923">
        <ele>514.79998779297</ele>
        <time>2021-09-11T07:49:27.000Z</time>
      </trkpt>
      <trkpt lat="45.20555" lon="5.72921">
        <ele>514.79998779297</ele>
        <time>2021-09-11T07:49:28.000Z</time>
      </trkpt>
      <trkpt lat="45.20552" lon="5.72919">
        <ele>515</ele>
        <time>2021-09-11T07:49:30.000Z</time>
      </trkpt>
      <trkpt lat="45.2055" lon="5.72917">
        <ele>515.40002441406</ele>
        <time>2021-09-11T07:49:31.000Z</time>
      </trkpt>
      <trkpt lat="45.20546" lon="5.72913">
        <ele>515.59997558594</ele>
        <time>2021-09-11T07:49:33.000Z</time>
      </trkpt>
      <trkpt lat="45.20535" lon="5.72905">
        <ele>515.40002441406</ele>
        <time>2021-09-11T07:49:38.000Z</time>
      </trkpt>
      <trkpt lat="45.20524" lon="5.72899">
        <ele>515.79998779297</ele>
        <time>2021-09-11T07:49:43.000Z</time>
      </trkpt>
      <trkpt lat="45.20523" lon="5.72897">
        <ele>516</ele>
        <time>2021-09-11T07:49:44.000Z</time>
      </trkpt>
      <trkpt lat="45.20519" lon="5.72892">
        <ele>517</ele>
        <time>2021-09-11T07:49:47.000Z</time>
      </trkpt>
      <trkpt lat="45.20515" lon="5.72889">
        <ele>517.59997558594</ele>
        <time>2021-09-11T07:49:49.000Z</time>
      </trkpt>
      <trkpt lat="45.20511" lon="5.72885">
        <ele>518.20001220703</ele>
        <time>2021-09-11T07:49:52.000Z</time>
      </trkpt>
      <trkpt lat="45.20505" lon="5.72883">
        <ele>518.79998779297</ele>
        <time>2021-09-11T07:49:55.000Z</time>
      </trkpt>
      <trkpt lat="45.20495" lon="5.72873">
        <ele>519.20001220703</ele>
        <time>2021-09-11T07:50:00.000Z</time>
      </trkpt>
      <trkpt lat="45.20494" lon="5.7287">
        <ele>519.40002441406</ele>
        <time>2021-09-11T07:50:01.000Z</time>
      </trkpt>
      <trkpt lat="45.20493" lon="5.72869">
        <ele>519.59997558594</ele>
        <time>2021-09-11T07:50:02.000Z</time>
      </trkpt>
      <trkpt lat="45.20485" lon="5.72866">
        <ele>519.79998779297</ele>
        <time>2021-09-11T07:50:05.000Z</time>
      </trkpt>
      <trkpt lat="45.20471" lon="5.72854">
        <ele>519.20001220703</ele>
        <time>2021-09-11T07:50:11.000Z</time>
      </trkpt>
      <trkpt lat="45.20466" lon="5.7285">
        <ele>518.59997558594</ele>
        <time>2021-09-11T07:50:14.000Z</time>
      </trkpt>
      <trkpt lat="45.20465" lon="5.72848">
        <ele>518</ele>
        <time>2021-09-11T07:50:15.000Z</time>
      </trkpt>
      <trkpt lat="45.20456" lon="5.72838">
        <ele>517.20001220703</ele>
        <time>2021-09-11T07:50:21.000Z</time>
      </trkpt>
      <trkpt lat="45.20451" lon="5.72836">
        <ele>516.79998779297</ele>
        <time>2021-09-11T07:50:23.000Z</time>
      </trkpt>
      <trkpt lat="45.20438" lon="5.72826">
        <ele>516.59997558594</ele>
        <time>2021-09-11T07:50:28.000Z</time>
      </trkpt>
      <trkpt lat="45.20426" lon="5.72817">
        <ele>516.20001220703</ele>
        <time>2021-09-11T07:50:33.000Z</time>
      </trkpt>
      <trkpt lat="45.20423" lon="5.72816">
        <ele>515.79998779297</ele>
        <time>2021-09-11T07:50:34.000Z</time>
      </trkpt>
      <trkpt lat="45.20417" lon="5.72812">
        <ele>514.79998779297</ele>
        <time>2021-09-11T07:50:37.000Z</time>
      </trkpt>
      <trkpt lat="45.20416" lon="5.7281">
        <ele>514.59997558594</ele>
        <time>2021-09-11T07:50:38.000Z</time>
      </trkpt>
      <trkpt lat="45.20414" lon="5.72809">
        <ele>514.40002441406</ele>
        <time>2021-09-11T07:50:39.000Z</time>
      </trkpt>
      <trkpt lat="45.2041" lon="5.72806">
        <ele>513.79998779297</ele>
        <time>2021-09-11T07:50:41.000Z</time>
      </trkpt>
      <trkpt lat="45.20404" lon="5.72799">
        <ele>512.59997558594</ele>
        <time>2021-09-11T07:50:44.000Z</time>
      </trkpt>
      <trkpt lat="45.20402" lon="5.72797">
        <ele>512.20001220703</ele>
        <time>2021-09-11T07:50:45.000Z</time>
      </trkpt>
      <trkpt lat="45.204" lon="5.72795">
        <ele>512</ele>
        <time>2021-09-11T07:50:46.000Z</time>
      </trkpt>
      <trkpt lat="45.20396" lon="5.72791">
        <ele>511.60000610352</ele>
        <time>2021-09-11T07:50:48.000Z</time>
      </trkpt>
      <trkpt lat="45.20391" lon="5.72789">
        <ele>511</ele>
        <time>2021-09-11T07:50:50.000Z</time>
      </trkpt>
      <trkpt lat="45.20382" lon="5.72785">
        <ele>510.20001220703</ele>
        <time>2021-09-11T07:50:54.000Z</time>
      </trkpt>
      <trkpt lat="45.20381" lon="5.72784">
        <ele>510</ele>
        <time>2021-09-11T07:50:55.000Z</time>
      </trkpt>
      <trkpt lat="45.20379" lon="5.72783">
        <ele>510</ele>
        <time>2021-09-11T07:50:56.000Z</time>
      </trkpt>
      <trkpt lat="45.20374" lon="5.72778">
        <ele>509.20001220703</ele>
        <time>2021-09-11T07:50:59.000Z</time>
      </trkpt>
      <trkpt lat="45.20372" lon="5.72775">
        <ele>508.79998779297</ele>
        <time>2021-09-11T07:51:00.000Z</time>
      </trkpt>
      <trkpt lat="45.20362" lon="5.7277">
        <ele>508</ele>
        <time>2021-09-11T07:51:04.000Z</time>
      </trkpt>
      <trkpt lat="45.20359" lon="5.72764">
        <ele>507.60000610352</ele>
        <time>2021-09-11T07:51:06.000Z</time>
      </trkpt>
      <trkpt lat="45.20355" lon="5.72757">
        <ele>506.79998779297</ele>
        <time>2021-09-11T07:51:09.000Z</time>
      </trkpt>
      <trkpt lat="45.20353" lon="5.72756">
        <ele>506.39999389648</ele>
        <time>2021-09-11T07:51:10.000Z</time>
      </trkpt>
      <trkpt lat="45.2035" lon="5.72753">
        <ele>506</ele>
        <time>2021-09-11T07:51:12.000Z</time>
      </trkpt>
      <trkpt lat="45.20347" lon="5.72751">
        <ele>505.60000610352</ele>
        <time>2021-09-11T07:51:13.000Z</time>
      </trkpt>
      <trkpt lat="45.20343" lon="5.72748">
        <ele>505.20001220703</ele>
        <time>2021-09-11T07:51:15.000Z</time>
      </trkpt>
      <trkpt lat="45.20336" lon="5.72739">
        <ele>504.79998779297</ele>
        <time>2021-09-11T07:51:18.000Z</time>
      </trkpt>
      <trkpt lat="45.20331" lon="5.72733">
        <ele>504.60000610352</ele>
        <time>2021-09-11T07:51:20.000Z</time>
      </trkpt>
      <trkpt lat="45.20325" lon="5.72729">
        <ele>504.20001220703</ele>
        <time>2021-09-11T07:51:23.000Z</time>
      </trkpt>
      <trkpt lat="45.20315" lon="5.72725">
        <ele>504.20001220703</ele>
        <time>2021-09-11T07:51:28.000Z</time>
      </trkpt>
      <trkpt lat="45.20313" lon="5.72723">
        <ele>504.20001220703</ele>
        <time>2021-09-11T07:51:29.000Z</time>
      </trkpt>
      <trkpt lat="45.20306" lon="5.72713">
        <ele>503.39999389648</ele>
        <time>2021-09-11T07:51:33.000Z</time>
      </trkpt>
      <trkpt lat="45.20294" lon="5.72703">
        <ele>502.20001220703</ele>
        <time>2021-09-11T07:51:38.000Z</time>
      </trkpt>
      <trkpt lat="45.20289" lon="5.727">
        <ele>502</ele>
        <time>2021-09-11T07:51:40.000Z</time>
      </trkpt>
      <trkpt lat="45.20284" lon="5.72697">
        <ele>501.20001220703</ele>
        <time>2021-09-11T07:51:42.000Z</time>
      </trkpt>
      <trkpt lat="45.20279" lon="5.72691">
        <ele>500.39999389648</ele>
        <time>2021-09-11T07:51:44.000Z</time>
      </trkpt>
      <trkpt lat="45.20275" lon="5.72688">
        <ele>500</ele>
        <time>2021-09-11T07:51:46.000Z</time>
      </trkpt>
      <trkpt lat="45.20267" lon="5.72676">
        <ele>500.39999389648</ele>
        <time>2021-09-11T07:51:51.000Z</time>
      </trkpt>
      <trkpt lat="45.20265" lon="5.72673">
        <ele>501</ele>
        <time>2021-09-11T07:51:53.000Z</time>
      </trkpt>
      <trkpt lat="45.20264" lon="5.72671">
        <ele>501.39999389648</ele>
        <time>2021-09-11T07:51:54.000Z</time>
      </trkpt>
      <trkpt lat="45.20263" lon="5.7267">
        <ele>501.60000610352</ele>
        <time>2021-09-11T07:51:55.000Z</time>
      </trkpt>
      <trkpt lat="45.20259" lon="5.72662">
        <ele>502.39999389648</ele>
        <time>2021-09-11T07:51:59.000Z</time>
      </trkpt>
      <trkpt lat="45.20255" lon="5.72656">
        <ele>503.60000610352</ele>
        <time>2021-09-11T07:52:03.000Z</time>
      </trkpt>
      <trkpt lat="45.20253" lon="5.72654">
        <ele>503.79998779297</ele>
        <time>2021-09-11T07:52:04.000Z</time>
      </trkpt>
      <trkpt lat="45.2025" lon="5.72651">
        <ele>504.60000610352</ele>
        <time>2021-09-11T07:52:07.000Z</time>
      </trkpt>
      <trkpt lat="45.20247" lon="5.7265">
        <ele>505.39999389648</ele>
        <time>2021-09-11T07:52:09.000Z</time>
      </trkpt>
      <trkpt lat="45.20244" lon="5.72649">
        <ele>505.79998779297</ele>
        <time>2021-09-11T07:52:11.000Z</time>
      </trkpt>
      <trkpt lat="45.20243" lon="5.72649">
        <ele>506</ele>
        <time>2021-09-11T07:52:12.000Z</time>
      </trkpt>
      <trkpt lat="45.20237" lon="5.72645">
        <ele>507</ele>
        <time>2021-09-11T07:52:16.000Z</time>
      </trkpt>
      <trkpt lat="45.20231" lon="5.72641">
        <ele>507.60000610352</ele>
        <time>2021-09-11T07:52:20.000Z</time>
      </trkpt>
      <trkpt lat="45.2023" lon="5.7264">
        <ele>507.79998779297</ele>
        <time>2021-09-11T07:52:21.000Z</time>
      </trkpt>
      <trkpt lat="45.20224" lon="5.72635">
        <ele>508</ele>
        <time>2021-09-11T07:52:25.000Z</time>
      </trkpt>
      <trkpt lat="45.20219" lon="5.72631">
        <ele>508.39999389648</ele>
        <time>2021-09-11T07:52:29.000Z</time>
      </trkpt>
      <trkpt lat="45.20216" lon="5.72627">
        <ele>509.20001220703</ele>
        <time>2021-09-11T07:52:32.000Z</time>
      </trkpt>
      <trkpt lat="45.20212" lon="5.72623">
        <ele>509.79998779297</ele>
        <time>2021-09-11T07:52:35.000Z</time>
      </trkpt>
      <trkpt lat="45.2021" lon="5.72621">
        <ele>510.20001220703</ele>
        <time>2021-09-11T07:52:37.000Z</time>
      </trkpt>
      <trkpt lat="45.20208" lon="5.7262">
        <ele>510.20001220703</ele>
        <time>2021-09-11T07:52:38.000Z</time>
      </trkpt>
      <trkpt lat="45.20208" lon="5.72619">
        <ele>510.39999389648</ele>
        <time>2021-09-11T07:52:39.000Z</time>
      </trkpt>
      <trkpt lat="45.20202" lon="5.72613">
        <ele>511.39999389648</ele>
        <time>2021-09-11T07:52:44.000Z</time>
      </trkpt>
      <trkpt lat="45.20193" lon="5.72605">
        <ele>512</ele>
        <time>2021-09-11T07:52:51.000Z</time>
      </trkpt>
      <trkpt lat="45.20193" lon="5.72602">
        <ele>512.20001220703</ele>
        <time>2021-09-11T07:52:52.000Z</time>
      </trkpt>
      <trkpt lat="45.20193" lon="5.726">
        <ele>512.59997558594</ele>
        <time>2021-09-11T07:52:53.000Z</time>
      </trkpt>
      <trkpt lat="45.20191" lon="5.72596">
        <ele>512.79998779297</ele>
        <time>2021-09-11T07:52:55.000Z</time>
      </trkpt>
      <trkpt lat="45.20179" lon="5.72581">
        <ele>511.79998779297</ele>
        <time>2021-09-11T07:53:03.000Z</time>
      </trkpt>
      <trkpt lat="45.20177" lon="5.7258">
        <ele>511.60000610352</ele>
        <time>2021-09-11T07:53:04.000Z</time>
      </trkpt>
      <trkpt lat="45.20166" lon="5.72574">
        <ele>510.39999389648</ele>
        <time>2021-09-11T07:53:09.000Z</time>
      </trkpt>
      <trkpt lat="45.20164" lon="5.72572">
        <ele>510.20001220703</ele>
        <time>2021-09-11T07:53:10.000Z</time>
      </trkpt>
      <trkpt lat="45.20157" lon="5.72569">
        <ele>509.20001220703</ele>
        <time>2021-09-11T07:53:13.000Z</time>
      </trkpt>
      <trkpt lat="45.20147" lon="5.72567">
        <ele>508</ele>
        <time>2021-09-11T07:53:17.000Z</time>
      </trkpt>
      <trkpt lat="45.20136" lon="5.72564">
        <ele>507</ele>
        <time>2021-09-11T07:53:21.000Z</time>
      </trkpt>
      <trkpt lat="45.20132" lon="5.72562">
        <ele>506.39999389648</ele>
        <time>2021-09-11T07:53:23.000Z</time>
      </trkpt>
      <trkpt lat="45.20128" lon="5.72561">
        <ele>505.60000610352</ele>
        <time>2021-09-11T07:53:25.000Z</time>
      </trkpt>
      <trkpt lat="45.2012" lon="5.72558">
        <ele>504.20001220703</ele>
        <time>2021-09-11T07:53:29.000Z</time>
      </trkpt>
      <trkpt lat="45.20117" lon="5.72557">
        <ele>503.60000610352</ele>
        <time>2021-09-11T07:53:31.000Z</time>
      </trkpt>
      <trkpt lat="45.20114" lon="5.72555">
        <ele>503</ele>
        <time>2021-09-11T07:53:33.000Z</time>
      </trkpt>
      <trkpt lat="45.20109" lon="5.72554">
        <ele>501.60000610352</ele>
        <time>2021-09-11T07:53:36.000Z</time>
      </trkpt>
      <trkpt lat="45.20107" lon="5.72553">
        <ele>501.20001220703</ele>
        <time>2021-09-11T07:53:37.000Z</time>
      </trkpt>
      <trkpt lat="45.20105" lon="5.72553">
        <ele>500.60000610352</ele>
        <time>2021-09-11T07:53:38.000Z</time>
      </trkpt>
      <trkpt lat="45.20099" lon="5.72552">
        <ele>499.20001220703</ele>
        <time>2021-09-11T07:53:41.000Z</time>
      </trkpt>
      <trkpt lat="45.2009" lon="5.72552">
        <ele>498.20001220703</ele>
        <time>2021-09-11T07:53:45.000Z</time>
      </trkpt>
      <trkpt lat="45.20086" lon="5.72552">
        <ele>496.20001220703</ele>
        <time>2021-09-11T07:53:47.000Z</time>
      </trkpt>
      <trkpt lat="45.20081" lon="5.72554">
        <ele>495.20001220703</ele>
        <time>2021-09-11T07:53:49.000Z</time>
      </trkpt>
      <trkpt lat="45.20077" lon="5.72556">
        <ele>494.60000610352</ele>
        <time>2021-09-11T07:53:51.000Z</time>
      </trkpt>
      <trkpt lat="45.20075" lon="5.72557">
        <ele>494.39999389648</ele>
        <time>2021-09-11T07:53:52.000Z</time>
      </trkpt>
      <trkpt lat="45.20074" lon="5.72558">
        <ele>494.20001220703</ele>
        <time>2021-09-11T07:53:53.000Z</time>
      </trkpt>
      <trkpt lat="45.20071" lon="5.72561">
        <ele>493</ele>
        <time>2021-09-11T07:53:56.000Z</time>
      </trkpt>
      <trkpt lat="45.20071" lon="5.72561">
        <ele>492.79998779297</ele>
        <time>2021-09-11T07:53:57.000Z</time>
      </trkpt>
      <trkpt lat="45.2007" lon="5.72559">
        <ele>492.39999389648</ele>
        <time>2021-09-11T07:54:04.000Z</time>
      </trkpt>
      <trkpt lat="45.2007" lon="5.72556">
        <ele>492.39999389648</ele>
        <time>2021-09-11T07:54:06.000Z</time>
      </trkpt>
      <trkpt lat="45.2007" lon="5.72556">
        <ele>492.39999389648</ele>
        <time>2021-09-11T07:54:11.000Z</time>
      </trkpt>
      <trkpt lat="45.2007" lon="5.72556">
        <ele>492.39999389648</ele>
        <time>2021-09-11T07:54:14.000Z</time>
      </trkpt>
      <trkpt lat="45.2007" lon="5.72556">
        <ele>492.60000610352</ele>
        <time>2021-09-11T07:54:20.000Z</time>
      </trkpt>
      <trkpt lat="45.20069" lon="5.72545">
        <ele>492.79998779297</ele>
        <time>2021-09-11T07:54:24.000Z</time>
      </trkpt>
      <trkpt lat="45.20066" lon="5.72531">
        <ele>493.60000610352</ele>
        <time>2021-09-11T07:54:28.000Z</time>
      </trkpt>
      <trkpt lat="45.20067" lon="5.72526">
        <ele>493.60000610352</ele>
        <time>2021-09-11T07:54:29.000Z</time>
      </trkpt>
      <trkpt lat="45.20067" lon="5.72521">
        <ele>493.60000610352</ele>
        <time>2021-09-11T07:54:30.000Z</time>
      </trkpt>
      <trkpt lat="45.20068" lon="5.72513">
        <ele>493.39999389648</ele>
        <time>2021-09-11T07:54:32.000Z</time>
      </trkpt>
      <trkpt lat="45.20071" lon="5.72498">
        <ele>493</ele>
        <time>2021-09-11T07:54:36.000Z</time>
      </trkpt>
      <trkpt lat="45.20071" lon="5.72494">
        <ele>493</ele>
        <time>2021-09-11T07:54:37.000Z</time>
      </trkpt>
      <trkpt lat="45.20072" lon="5.7249">
        <ele>492.79998779297</ele>
        <time>2021-09-11T07:54:38.000Z</time>
      </trkpt>
      <trkpt lat="45.20073" lon="5.72469">
        <ele>492</ele>
        <time>2021-09-11T07:54:44.000Z</time>
      </trkpt>
      <trkpt lat="45.20072" lon="5.7246">
        <ele>491.60000610352</ele>
        <time>2021-09-11T07:54:47.000Z</time>
      </trkpt>
      <trkpt lat="45.2007" lon="5.72449">
        <ele>491.20001220703</ele>
        <time>2021-09-11T07:54:50.000Z</time>
      </trkpt>
      <trkpt lat="45.20068" lon="5.72445">
        <ele>491</ele>
        <time>2021-09-11T07:54:51.000Z</time>
      </trkpt>
      <trkpt lat="45.2006" lon="5.72438">
        <ele>489.79998779297</ele>
        <time>2021-09-11T07:54:54.000Z</time>
      </trkpt>
      <trkpt lat="45.20054" lon="5.72436">
        <ele>489</ele>
        <time>2021-09-11T07:54:56.000Z</time>
      </trkpt>
      <trkpt lat="45.20052" lon="5.72436">
        <ele>488.60000610352</ele>
        <time>2021-09-11T07:54:57.000Z</time>
      </trkpt>
      <trkpt lat="45.20043" lon="5.72436">
        <ele>487.39999389648</ele>
        <time>2021-09-11T07:55:00.000Z</time>
      </trkpt>
      <trkpt lat="45.20034" lon="5.72435">
        <ele>486.20001220703</ele>
        <time>2021-09-11T07:55:03.000Z</time>
      </trkpt>
      <trkpt lat="45.20031" lon="5.72434">
        <ele>485.79998779297</ele>
        <time>2021-09-11T07:55:04.000Z</time>
      </trkpt>
      <trkpt lat="45.20025" lon="5.72433">
        <ele>485.20001220703</ele>
        <time>2021-09-11T07:55:06.000Z</time>
      </trkpt>
      <trkpt lat="45.20013" lon="5.72435">
        <ele>484</ele>
        <time>2021-09-11T07:55:10.000Z</time>
      </trkpt>
      <trkpt lat="45.2001" lon="5.72434">
        <ele>483.79998779297</ele>
        <time>2021-09-11T07:55:11.000Z</time>
      </trkpt>
      <trkpt lat="45.20002" lon="5.72434">
        <ele>482.79998779297</ele>
        <time>2021-09-11T07:55:14.000Z</time>
      </trkpt>
      <trkpt lat="45.19997" lon="5.72433">
        <ele>482</ele>
        <time>2021-09-11T07:55:16.000Z</time>
      </trkpt>
      <trkpt lat="45.19994" lon="5.72433">
        <ele>481.79998779297</ele>
        <time>2021-09-11T07:55:17.000Z</time>
      </trkpt>
      <trkpt lat="45.19988" lon="5.72433">
        <ele>481</ele>
        <time>2021-09-11T07:55:19.000Z</time>
      </trkpt>
      <trkpt lat="45.19985" lon="5.72433">
        <ele>480.60000610352</ele>
        <time>2021-09-11T07:55:20.000Z</time>
      </trkpt>
      <trkpt lat="45.19971" lon="5.72432">
        <ele>479.60000610352</ele>
        <time>2021-09-11T07:55:25.000Z</time>
      </trkpt>
      <trkpt lat="45.19958" lon="5.72432">
        <ele>478.20001220703</ele>
        <time>2021-09-11T07:55:29.000Z</time>
      </trkpt>
      <trkpt lat="45.19955" lon="5.72432">
        <ele>477.60000610352</ele>
        <time>2021-09-11T07:55:30.000Z</time>
      </trkpt>
      <trkpt lat="45.19946" lon="5.72432">
        <ele>477.20001220703</ele>
        <time>2021-09-11T07:55:33.000Z</time>
      </trkpt>
      <trkpt lat="45.19937" lon="5.72433">
        <ele>476.60000610352</ele>
        <time>2021-09-11T07:55:36.000Z</time>
      </trkpt>
      <trkpt lat="45.19919" lon="5.72434">
        <ele>476.79998779297</ele>
        <time>2021-09-11T07:55:43.000Z</time>
      </trkpt>
      <trkpt lat="45.19906" lon="5.72435">
        <ele>477.60000610352</ele>
        <time>2021-09-11T07:55:48.000Z</time>
      </trkpt>
      <trkpt lat="45.19899" lon="5.72438">
        <ele>478.20001220703</ele>
        <time>2021-09-11T07:55:51.000Z</time>
      </trkpt>
      <trkpt lat="45.19893" lon="5.72441">
        <ele>479</ele>
        <time>2021-09-11T07:55:54.000Z</time>
      </trkpt>
      <trkpt lat="45.19893" lon="5.72442">
        <ele>479.39999389648</ele>
        <time>2021-09-11T07:55:55.000Z</time>
      </trkpt>
      <trkpt lat="45.19892" lon="5.72447">
        <ele>479.79998779297</ele>
        <time>2021-09-11T07:55:57.000Z</time>
      </trkpt>
      <trkpt lat="45.1989" lon="5.72458">
        <ele>480.60000610352</ele>
        <time>2021-09-11T07:56:00.000Z</time>
      </trkpt>
      <trkpt lat="45.19889" lon="5.72462">
        <ele>480.79998779297</ele>
        <time>2021-09-11T07:56:02.000Z</time>
      </trkpt>
      <trkpt lat="45.19885" lon="5.72466">
        <ele>480.79998779297</ele>
        <time>2021-09-11T07:56:04.000Z</time>
      </trkpt>
      <trkpt lat="45.19868" lon="5.7248">
        <ele>480.39999389648</ele>
        <time>2021-09-11T07:56:10.000Z</time>
      </trkpt>
      <trkpt lat="45.19864" lon="5.72482">
        <ele>480.39999389648</ele>
        <time>2021-09-11T07:56:11.000Z</time>
      </trkpt>
      <trkpt lat="45.19857" lon="5.72495">
        <ele>479.60000610352</ele>
        <time>2021-09-11T07:56:15.000Z</time>
      </trkpt>
      <trkpt lat="45.19856" lon="5.725">
        <ele>479.60000610352</ele>
        <time>2021-09-11T07:56:16.000Z</time>
      </trkpt>
      <trkpt lat="45.19856" lon="5.72512">
        <ele>479.39999389648</ele>
        <time>2021-09-11T07:56:18.000Z</time>
      </trkpt>
      <trkpt lat="45.19858" lon="5.7253">
        <ele>478.60000610352</ele>
        <time>2021-09-11T07:56:22.000Z</time>
      </trkpt>
      <trkpt lat="45.19858" lon="5.72534">
        <ele>478.20001220703</ele>
        <time>2021-09-11T07:56:23.000Z</time>
      </trkpt>
      <trkpt lat="45.19862" lon="5.7255">
        <ele>476.79998779297</ele>
        <time>2021-09-11T07:56:27.000Z</time>
      </trkpt>
      <trkpt lat="45.19861" lon="5.72558">
        <ele>476.20001220703</ele>
        <time>2021-09-11T07:56:30.000Z</time>
      </trkpt>
      <trkpt lat="45.19859" lon="5.72557">
        <ele>476</ele>
        <time>2021-09-11T07:56:31.000Z</time>
      </trkpt>
      <trkpt lat="45.19858" lon="5.72554">
        <ele>475.60000610352</ele>
        <time>2021-09-11T07:56:32.000Z</time>
      </trkpt>
      <trkpt lat="45.19857" lon="5.7255">
        <ele>475.60000610352</ele>
        <time>2021-09-11T07:56:33.000Z</time>
      </trkpt>
      <trkpt lat="45.19854" lon="5.72533">
        <ele>474.60000610352</ele>
        <time>2021-09-11T07:56:37.000Z</time>
      </trkpt>
      <trkpt lat="45.19854" lon="5.72528">
        <ele>474.39999389648</ele>
        <time>2021-09-11T07:56:38.000Z</time>
      </trkpt>
      <trkpt lat="45.19852" lon="5.72518">
        <ele>473.60000610352</ele>
        <time>2021-09-11T07:56:40.000Z</time>
      </trkpt>
      <trkpt lat="45.1985" lon="5.72501">
        <ele>472.79998779297</ele>
        <time>2021-09-11T07:56:44.000Z</time>
      </trkpt>
      <trkpt lat="45.1985" lon="5.72497">
        <ele>472.39999389648</ele>
        <time>2021-09-11T07:56:45.000Z</time>
      </trkpt>
      <trkpt lat="45.19849" lon="5.7248">
        <ele>471.20001220703</ele>
        <time>2021-09-11T07:56:49.000Z</time>
      </trkpt>
      <trkpt lat="45.19847" lon="5.72468">
        <ele>470</ele>
        <time>2021-09-11T07:56:52.000Z</time>
      </trkpt>
      <trkpt lat="45.19847" lon="5.72465">
        <ele>469.79998779297</ele>
        <time>2021-09-11T07:56:53.000Z</time>
      </trkpt>
      <trkpt lat="45.19846" lon="5.72454">
        <ele>469</ele>
        <time>2021-09-11T07:56:56.000Z</time>
      </trkpt>
      <trkpt lat="45.19844" lon="5.7245">
        <ele>468.79998779297</ele>
        <time>2021-09-11T07:56:57.000Z</time>
      </trkpt>
      <trkpt lat="45.19842" lon="5.72447">
        <ele>468.39999389648</ele>
        <time>2021-09-11T07:56:58.000Z</time>
      </trkpt>
      <trkpt lat="45.19839" lon="5.72446">
        <ele>468.20001220703</ele>
        <time>2021-09-11T07:56:59.000Z</time>
      </trkpt>
      <trkpt lat="45.19835" lon="5.72451">
        <ele>467.79998779297</ele>
        <time>2021-09-11T07:57:01.000Z</time>
      </trkpt>
      <trkpt lat="45.19835" lon="5.72459">
        <ele>466.39999389648</ele>
        <time>2021-09-11T07:57:04.000Z</time>
      </trkpt>
      <trkpt lat="45.19835" lon="5.72463">
        <ele>466.20001220703</ele>
        <time>2021-09-11T07:57:05.000Z</time>
      </trkpt>
      <trkpt lat="45.19833" lon="5.72473">
        <ele>465.39999389648</ele>
        <time>2021-09-11T07:57:08.000Z</time>
      </trkpt>
      <trkpt lat="45.19832" lon="5.72485">
        <ele>464.39999389648</ele>
        <time>2021-09-11T07:57:11.000Z</time>
      </trkpt>
      <trkpt lat="45.19831" lon="5.72489">
        <ele>464.20001220703</ele>
        <time>2021-09-11T07:57:12.000Z</time>
      </trkpt>
      <trkpt lat="45.1983" lon="5.72502">
        <ele>463.20001220703</ele>
        <time>2021-09-11T07:57:16.000Z</time>
      </trkpt>
      <trkpt lat="45.19829" lon="5.72509">
        <ele>462.20001220703</ele>
        <time>2021-09-11T07:57:18.000Z</time>
      </trkpt>
      <trkpt lat="45.19826" lon="5.7252">
        <ele>461.20001220703</ele>
        <time>2021-09-11T07:57:21.000Z</time>
      </trkpt>
      <trkpt lat="45.19825" lon="5.72528">
        <ele>460.60000610352</ele>
        <time>2021-09-11T07:57:23.000Z</time>
      </trkpt>
      <trkpt lat="45.19824" lon="5.72536">
        <ele>459.79998779297</ele>
        <time>2021-09-11T07:57:25.000Z</time>
      </trkpt>
      <trkpt lat="45.19826" lon="5.72557">
        <ele>458.60000610352</ele>
        <time>2021-09-11T07:57:30.000Z</time>
      </trkpt>
      <trkpt lat="45.19825" lon="5.72565">
        <ele>458</ele>
        <time>2021-09-11T07:57:32.000Z</time>
      </trkpt>
      <trkpt lat="45.19824" lon="5.72573">
        <ele>457.60000610352</ele>
        <time>2021-09-11T07:57:34.000Z</time>
      </trkpt>
      <trkpt lat="45.19825" lon="5.7259">
        <ele>456.39999389648</ele>
        <time>2021-09-11T07:57:38.000Z</time>
      </trkpt>
      <trkpt lat="45.19824" lon="5.72598">
        <ele>455.79998779297</ele>
        <time>2021-09-11T07:57:40.000Z</time>
      </trkpt>
      <trkpt lat="45.19824" lon="5.72605">
        <ele>455.20001220703</ele>
        <time>2021-09-11T07:57:42.000Z</time>
      </trkpt>
      <trkpt lat="45.19826" lon="5.72617">
        <ele>454.20001220703</ele>
        <time>2021-09-11T07:57:45.000Z</time>
      </trkpt>
      <trkpt lat="45.19834" lon="5.72633">
        <ele>453.20001220703</ele>
        <time>2021-09-11T07:57:50.000Z</time>
      </trkpt>
      <trkpt lat="45.19836" lon="5.72638">
        <ele>453</ele>
        <time>2021-09-11T07:57:51.000Z</time>
      </trkpt>
      <trkpt lat="45.19839" lon="5.72651">
        <ele>451.79998779297</ele>
        <time>2021-09-11T07:57:55.000Z</time>
      </trkpt>
      <trkpt lat="45.1984" lon="5.72654">
        <ele>451.60000610352</ele>
        <time>2021-09-11T07:57:56.000Z</time>
      </trkpt>
      <trkpt lat="45.19846" lon="5.72664">
        <ele>450.60000610352</ele>
        <time>2021-09-11T07:58:00.000Z</time>
      </trkpt>
      <trkpt lat="45.19851" lon="5.72674">
        <ele>449.79998779297</ele>
        <time>2021-09-11T07:58:03.000Z</time>
      </trkpt>
      <trkpt lat="45.19854" lon="5.72677">
        <ele>449.39999389648</ele>
        <time>2021-09-11T07:58:04.000Z</time>
      </trkpt>
      <trkpt lat="45.19859" lon="5.72685">
        <ele>448.20001220703</ele>
        <time>2021-09-11T07:58:07.000Z</time>
      </trkpt>
      <trkpt lat="45.19858" lon="5.72687">
        <ele>448</ele>
        <time>2021-09-11T07:58:08.000Z</time>
      </trkpt>
      <trkpt lat="45.19857" lon="5.72687">
        <ele>448</ele>
        <time>2021-09-11T07:58:09.000Z</time>
      </trkpt>
      <trkpt lat="45.19851" lon="5.72684">
        <ele>447.20001220703</ele>
        <time>2021-09-11T07:58:12.000Z</time>
      </trkpt>
      <trkpt lat="45.19848" lon="5.72682">
        <ele>446.79998779297</ele>
        <time>2021-09-11T07:58:13.000Z</time>
      </trkpt>
      <trkpt lat="45.19838" lon="5.72671">
        <ele>446</ele>
        <time>2021-09-11T07:58:17.000Z</time>
      </trkpt>
      <trkpt lat="45.19831" lon="5.72663">
        <ele>445.39999389648</ele>
        <time>2021-09-11T07:58:20.000Z</time>
      </trkpt>
      <trkpt lat="45.19827" lon="5.72658">
        <ele>444.79998779297</ele>
        <time>2021-09-11T07:58:22.000Z</time>
      </trkpt>
      <trkpt lat="45.19815" lon="5.72652">
        <ele>443.39999389648</ele>
        <time>2021-09-11T07:58:26.000Z</time>
      </trkpt>
      <trkpt lat="45.19805" lon="5.72645">
        <ele>442.20001220703</ele>
        <time>2021-09-11T07:58:30.000Z</time>
      </trkpt>
      <trkpt lat="45.19797" lon="5.72637">
        <ele>441.60000610352</ele>
        <time>2021-09-11T07:58:33.000Z</time>
      </trkpt>
      <trkpt lat="45.19796" lon="5.72635">
        <ele>441.20001220703</ele>
        <time>2021-09-11T07:58:34.000Z</time>
      </trkpt>
      <trkpt lat="45.19786" lon="5.72625">
        <ele>440</ele>
        <time>2021-09-11T07:58:38.000Z</time>
      </trkpt>
      <trkpt lat="45.19785" lon="5.72621">
        <ele>439.79998779297</ele>
        <time>2021-09-11T07:58:39.000Z</time>
      </trkpt>
      <trkpt lat="45.19781" lon="5.7261">
        <ele>438.79998779297</ele>
        <time>2021-09-11T07:58:42.000Z</time>
      </trkpt>
      <trkpt lat="45.19781" lon="5.72598">
        <ele>438</ele>
        <time>2021-09-11T07:58:45.000Z</time>
      </trkpt>
      <trkpt lat="45.19781" lon="5.72595">
        <ele>437.60000610352</ele>
        <time>2021-09-11T07:58:46.000Z</time>
      </trkpt>
      <trkpt lat="45.19781" lon="5.72575">
        <ele>436.60000610352</ele>
        <time>2021-09-11T07:58:51.000Z</time>
      </trkpt>
      <trkpt lat="45.19782" lon="5.72559">
        <ele>435.20001220703</ele>
        <time>2021-09-11T07:58:55.000Z</time>
      </trkpt>
      <trkpt lat="45.19783" lon="5.72552">
        <ele>434.39999389648</ele>
        <time>2021-09-11T07:58:57.000Z</time>
      </trkpt>
      <trkpt lat="45.19784" lon="5.72547">
        <ele>434.20001220703</ele>
        <time>2021-09-11T07:58:58.000Z</time>
      </trkpt>
      <trkpt lat="45.19783" lon="5.72536">
        <ele>433.39999389648</ele>
        <time>2021-09-11T07:59:01.000Z</time>
      </trkpt>
      <trkpt lat="45.19782" lon="5.72535">
        <ele>433</ele>
        <time>2021-09-11T07:59:02.000Z</time>
      </trkpt>
      <trkpt lat="45.1978" lon="5.72535">
        <ele>432.79998779297</ele>
        <time>2021-09-11T07:59:03.000Z</time>
      </trkpt>
      <trkpt lat="45.19779" lon="5.72537">
        <ele>432.60000610352</ele>
        <time>2021-09-11T07:59:04.000Z</time>
      </trkpt>
      <trkpt lat="45.19778" lon="5.7254">
        <ele>432.39999389648</ele>
        <time>2021-09-11T07:59:05.000Z</time>
      </trkpt>
      <trkpt lat="45.19776" lon="5.72547">
        <ele>432</ele>
        <time>2021-09-11T07:59:07.000Z</time>
      </trkpt>
      <trkpt lat="45.19775" lon="5.72553">
        <ele>431.20001220703</ele>
        <time>2021-09-11T07:59:09.000Z</time>
      </trkpt>
      <trkpt lat="45.19775" lon="5.72556">
        <ele>430.79998779297</ele>
        <time>2021-09-11T07:59:10.000Z</time>
      </trkpt>
      <trkpt lat="45.19773" lon="5.72571">
        <ele>429.60000610352</ele>
        <time>2021-09-11T07:59:14.000Z</time>
      </trkpt>
      <trkpt lat="45.19769" lon="5.72584">
        <ele>428.60000610352</ele>
        <time>2021-09-11T07:59:19.000Z</time>
      </trkpt>
      <trkpt lat="45.19768" lon="5.72584">
        <ele>428.39999389648</ele>
        <time>2021-09-11T07:59:20.000Z</time>
      </trkpt>
      <trkpt lat="45.19767" lon="5.72578">
        <ele>427.39999389648</ele>
        <time>2021-09-11T07:59:22.000Z</time>
      </trkpt>
      <trkpt lat="45.19766" lon="5.72572">
        <ele>427</ele>
        <time>2021-09-11T07:59:24.000Z</time>
      </trkpt>
      <trkpt lat="45.19765" lon="5.72561">
        <ele>426.20001220703</ele>
        <time>2021-09-11T07:59:27.000Z</time>
      </trkpt>
      <trkpt lat="45.19764" lon="5.72551">
        <ele>425.20001220703</ele>
        <time>2021-09-11T07:59:30.000Z</time>
      </trkpt>
      <trkpt lat="45.19765" lon="5.72539">
        <ele>424</ele>
        <time>2021-09-11T07:59:33.000Z</time>
      </trkpt>
      <trkpt lat="45.19767" lon="5.7253">
        <ele>423.39999389648</ele>
        <time>2021-09-11T07:59:35.000Z</time>
      </trkpt>
      <trkpt lat="45.1977" lon="5.72522">
        <ele>422.79998779297</ele>
        <time>2021-09-11T07:59:37.000Z</time>
      </trkpt>
      <trkpt lat="45.19774" lon="5.72509">
        <ele>421.79998779297</ele>
        <time>2021-09-11T07:59:41.000Z</time>
      </trkpt>
      <trkpt lat="45.19773" lon="5.72509">
        <ele>421.60000610352</ele>
        <time>2021-09-11T07:59:42.000Z</time>
      </trkpt>
      <trkpt lat="45.19768" lon="5.72516">
        <ele>420.79998779297</ele>
        <time>2021-09-11T07:59:45.000Z</time>
      </trkpt>
      <trkpt lat="45.19766" lon="5.72519">
        <ele>420.60000610352</ele>
        <time>2021-09-11T07:59:46.000Z</time>
      </trkpt>
      <trkpt lat="45.1976" lon="5.72529">
        <ele>419.39999389648</ele>
        <time>2021-09-11T07:59:49.000Z</time>
      </trkpt>
      <trkpt lat="45.19758" lon="5.72536">
        <ele>419.20001220703</ele>
        <time>2021-09-11T07:59:51.000Z</time>
      </trkpt>
      <trkpt lat="45.19751" lon="5.72559">
        <ele>418.60000610352</ele>
        <time>2021-09-11T07:59:58.000Z</time>
      </trkpt>
      <trkpt lat="45.19751" lon="5.72563">
        <ele>418.60000610352</ele>
        <time>2021-09-11T07:59:59.000Z</time>
      </trkpt>
      <trkpt lat="45.19748" lon="5.72583">
        <ele>418.79998779297</ele>
        <time>2021-09-11T08:00:04.000Z</time>
      </trkpt>
      <trkpt lat="45.19751" lon="5.72602">
        <ele>418.79998779297</ele>
        <time>2021-09-11T08:00:09.000Z</time>
      </trkpt>
      <trkpt lat="45.19755" lon="5.72617">
        <ele>419</ele>
        <time>2021-09-11T08:00:13.000Z</time>
      </trkpt>
      <trkpt lat="45.19755" lon="5.72621">
        <ele>419</ele>
        <time>2021-09-11T08:00:14.000Z</time>
      </trkpt>
      <trkpt lat="45.19759" lon="5.72644">
        <ele>419.20001220703</ele>
        <time>2021-09-11T08:00:20.000Z</time>
      </trkpt>
      <trkpt lat="45.19772" lon="5.72664">
        <ele>419</ele>
        <time>2021-09-11T08:00:26.000Z</time>
      </trkpt>
      <trkpt lat="45.19774" lon="5.72667">
        <ele>419</ele>
        <time>2021-09-11T08:00:27.000Z</time>
      </trkpt>
      <trkpt lat="45.1978" lon="5.72676">
        <ele>419</ele>
        <time>2021-09-11T08:00:30.000Z</time>
      </trkpt>
      <trkpt lat="45.19783" lon="5.72679">
        <ele>419</ele>
        <time>2021-09-11T08:00:31.000Z</time>
      </trkpt>
      <trkpt lat="45.19791" lon="5.72689">
        <ele>419.20001220703</ele>
        <time>2021-09-11T08:00:35.000Z</time>
      </trkpt>
      <trkpt lat="45.19793" lon="5.72691">
        <ele>419.20001220703</ele>
        <time>2021-09-11T08:00:36.000Z</time>
      </trkpt>
      <trkpt lat="45.19808" lon="5.72707">
        <ele>419.60000610352</ele>
        <time>2021-09-11T08:00:42.000Z</time>
      </trkpt>
      <trkpt lat="45.19813" lon="5.72712">
        <ele>419.79998779297</ele>
        <time>2021-09-11T08:00:44.000Z</time>
      </trkpt>
      <trkpt lat="45.19826" lon="5.7273">
        <ele>420</ele>
        <time>2021-09-11T08:00:49.000Z</time>
      </trkpt>
      <trkpt lat="45.1984" lon="5.72742">
        <ele>420</ele>
        <time>2021-09-11T08:00:54.000Z</time>
      </trkpt>
      <trkpt lat="45.19858" lon="5.72746">
        <ele>416.20001220703</ele>
        <time>2021-09-11T08:01:09.000Z</time>
      </trkpt>
      <trkpt lat="45.19857" lon="5.72765">
        <ele>414.79998779297</ele>
        <time>2021-09-11T08:01:14.000Z</time>
      </trkpt>
      <trkpt lat="45.19857" lon="5.72765">
        <ele>414.39999389648</ele>
        <time>2021-09-11T08:01:15.000Z</time>
      </trkpt>
      <trkpt lat="45.19856" lon="5.7276">
        <ele>413.39999389648</ele>
        <time>2021-09-11T08:01:18.000Z</time>
      </trkpt>
      <trkpt lat="45.19855" lon="5.72755">
        <ele>412.39999389648</ele>
        <time>2021-09-11T08:01:20.000Z</time>
      </trkpt>
      <trkpt lat="45.19856" lon="5.72754">
        <ele>411.39999389648</ele>
        <time>2021-09-11T08:01:22.000Z</time>
      </trkpt>
      <trkpt lat="45.19855" lon="5.72753">
        <ele>411.20001220703</ele>
        <time>2021-09-11T08:01:23.000Z</time>
      </trkpt>
      <trkpt lat="45.19854" lon="5.72753">
        <ele>410.60000610352</ele>
        <time>2021-09-11T08:01:24.000Z</time>
      </trkpt>
      <trkpt lat="45.19855" lon="5.72757">
        <ele>409.79998779297</ele>
        <time>2021-09-11T08:01:26.000Z</time>
      </trkpt>
      <trkpt lat="45.19852" lon="5.72777">
        <ele>396.20001220703</ele>
        <time>2021-09-11T08:01:55.000Z</time>
      </trkpt>
      <trkpt lat="45.19851" lon="5.72777">
        <ele>395.79998779297</ele>
        <time>2021-09-11T08:01:56.000Z</time>
      </trkpt>
      <trkpt lat="45.1985" lon="5.72777">
        <ele>394.60000610352</ele>
        <time>2021-09-11T08:01:58.000Z</time>
      </trkpt>
      <trkpt lat="45.19848" lon="5.72775">
        <ele>393.20001220703</ele>
        <time>2021-09-11T08:02:00.000Z</time>
      </trkpt>
      <trkpt lat="45.19849" lon="5.72776">
        <ele>392.20001220703</ele>
        <time>2021-09-11T08:02:02.000Z</time>
      </trkpt>
      <trkpt lat="45.1985" lon="5.72778">
        <ele>392</ele>
        <time>2021-09-11T08:02:03.000Z</time>
      </trkpt>
      <trkpt lat="45.19853" lon="5.72781">
        <ele>391.60000610352</ele>
        <time>2021-09-11T08:02:05.000Z</time>
      </trkpt>
      <trkpt lat="45.1985" lon="5.72782">
        <ele>391.20001220703</ele>
        <time>2021-09-11T08:02:07.000Z</time>
      </trkpt>
      <trkpt lat="45.19848" lon="5.72781">
        <ele>390.79998779297</ele>
        <time>2021-09-11T08:02:08.000Z</time>
      </trkpt>
      <trkpt lat="45.1984" lon="5.72777">
        <ele>390</ele>
        <time>2021-09-11T08:02:11.000Z</time>
      </trkpt>
      <trkpt lat="45.19838" lon="5.72774">
        <ele>389.79998779297</ele>
        <time>2021-09-11T08:02:12.000Z</time>
      </trkpt>
      <trkpt lat="45.19827" lon="5.72767">
        <ele>388.79998779297</ele>
        <time>2021-09-11T08:02:16.000Z</time>
      </trkpt>
      <trkpt lat="45.19824" lon="5.72766">
        <ele>388.60000610352</ele>
        <time>2021-09-11T08:02:17.000Z</time>
      </trkpt>
      <trkpt lat="45.19818" lon="5.72763">
        <ele>387.79998779297</ele>
        <time>2021-09-11T08:02:19.000Z</time>
      </trkpt>
      <trkpt lat="45.1981" lon="5.72754">
        <ele>387</ele>
        <time>2021-09-11T08:02:23.000Z</time>
      </trkpt>
      <trkpt lat="45.19805" lon="5.7275">
        <ele>386.60000610352</ele>
        <time>2021-09-11T08:02:25.000Z</time>
      </trkpt>
      <trkpt lat="45.198" lon="5.72747">
        <ele>386.20001220703</ele>
        <time>2021-09-11T08:02:27.000Z</time>
      </trkpt>
      <trkpt lat="45.19795" lon="5.72743">
        <ele>385.79998779297</ele>
        <time>2021-09-11T08:02:29.000Z</time>
      </trkpt>
      <trkpt lat="45.19792" lon="5.72742">
        <ele>385.39999389648</ele>
        <time>2021-09-11T08:02:30.000Z</time>
      </trkpt>
      <trkpt lat="45.19791" lon="5.72741">
        <ele>384.60000610352</ele>
        <time>2021-09-11T08:02:32.000Z</time>
      </trkpt>
      <trkpt lat="45.19792" lon="5.72743">
        <ele>384.39999389648</ele>
        <time>2021-09-11T08:02:33.000Z</time>
      </trkpt>
      <trkpt lat="45.19797" lon="5.72751">
        <ele>383.20001220703</ele>
        <time>2021-09-11T08:02:37.000Z</time>
      </trkpt>
      <trkpt lat="45.19804" lon="5.72759">
        <ele>382</ele>
        <time>2021-09-11T08:02:41.000Z</time>
      </trkpt>
      <trkpt lat="45.19805" lon="5.72762">
        <ele>381.60000610352</ele>
        <time>2021-09-11T08:02:42.000Z</time>
      </trkpt>
      <trkpt lat="45.19808" lon="5.72768">
        <ele>380.79998779297</ele>
        <time>2021-09-11T08:02:44.000Z</time>
      </trkpt>
      <trkpt lat="45.19816" lon="5.72779">
        <ele>379.39999389648</ele>
        <time>2021-09-11T08:02:48.000Z</time>
      </trkpt>
      <trkpt lat="45.19821" lon="5.72786">
        <ele>378</ele>
        <time>2021-09-11T08:02:51.000Z</time>
      </trkpt>
      <trkpt lat="45.19824" lon="5.7279">
        <ele>377.39999389648</ele>
        <time>2021-09-11T08:02:53.000Z</time>
      </trkpt>
      <trkpt lat="45.19826" lon="5.72793">
        <ele>377</ele>
        <time>2021-09-11T08:02:54.000Z</time>
      </trkpt>
      <trkpt lat="45.19832" lon="5.728">
        <ele>376</ele>
        <time>2021-09-11T08:02:57.000Z</time>
      </trkpt>
      <trkpt lat="45.19835" lon="5.72803">
        <ele>375.79998779297</ele>
        <time>2021-09-11T08:02:58.000Z</time>
      </trkpt>
      <trkpt lat="45.19836" lon="5.72806">
        <ele>375.39999389648</ele>
        <time>2021-09-11T08:02:59.000Z</time>
      </trkpt>
      <trkpt lat="45.19834" lon="5.72809">
        <ele>374.79998779297</ele>
        <time>2021-09-11T08:03:01.000Z</time>
      </trkpt>
      <trkpt lat="45.19827" lon="5.72807">
        <ele>373.79998779297</ele>
        <time>2021-09-11T08:03:04.000Z</time>
      </trkpt>
      <trkpt lat="45.19825" lon="5.72805">
        <ele>373.39999389648</ele>
        <time>2021-09-11T08:03:05.000Z</time>
      </trkpt>
      <trkpt lat="45.19818" lon="5.72801">
        <ele>372.60000610352</ele>
        <time>2021-09-11T08:03:08.000Z</time>
      </trkpt>
      <trkpt lat="45.19813" lon="5.72797">
        <ele>371.79998779297</ele>
        <time>2021-09-11T08:03:10.000Z</time>
      </trkpt>
      <trkpt lat="45.19811" lon="5.72795">
        <ele>371.39999389648</ele>
        <time>2021-09-11T08:03:11.000Z</time>
      </trkpt>
      <trkpt lat="45.19802" lon="5.7279">
        <ele>370.20001220703</ele>
        <time>2021-09-11T08:03:15.000Z</time>
      </trkpt>
      <trkpt lat="45.19798" lon="5.72789">
        <ele>369.60000610352</ele>
        <time>2021-09-11T08:03:17.000Z</time>
      </trkpt>
      <trkpt lat="45.19796" lon="5.72789">
        <ele>369.39999389648</ele>
        <time>2021-09-11T08:03:18.000Z</time>
      </trkpt>
      <trkpt lat="45.19795" lon="5.72791">
        <ele>369.20001220703</ele>
        <time>2021-09-11T08:03:19.000Z</time>
      </trkpt>
      <trkpt lat="45.19796" lon="5.72793">
        <ele>369</ele>
        <time>2021-09-11T08:03:20.000Z</time>
      </trkpt>
      <trkpt lat="45.19797" lon="5.72795">
        <ele>368.60000610352</ele>
        <time>2021-09-11T08:03:21.000Z</time>
      </trkpt>
      <trkpt lat="45.19801" lon="5.72799">
        <ele>368</ele>
        <time>2021-09-11T08:03:23.000Z</time>
      </trkpt>
      <trkpt lat="45.19803" lon="5.728">
        <ele>367.60000610352</ele>
        <time>2021-09-11T08:03:24.000Z</time>
      </trkpt>
      <trkpt lat="45.19813" lon="5.72808">
        <ele>366.79998779297</ele>
        <time>2021-09-11T08:03:28.000Z</time>
      </trkpt>
      <trkpt lat="45.1982" lon="5.72815">
        <ele>366</ele>
        <time>2021-09-11T08:03:31.000Z</time>
      </trkpt>
      <trkpt lat="45.19823" lon="5.72817">
        <ele>365.39999389648</ele>
        <time>2021-09-11T08:03:32.000Z</time>
      </trkpt>
      <trkpt lat="45.19828" lon="5.7282">
        <ele>364.20001220703</ele>
        <time>2021-09-11T08:03:34.000Z</time>
      </trkpt>
      <trkpt lat="45.19834" lon="5.72827">
        <ele>362.79998779297</ele>
        <time>2021-09-11T08:03:37.000Z</time>
      </trkpt>
      <trkpt lat="45.19836" lon="5.72829">
        <ele>362.20001220703</ele>
        <time>2021-09-11T08:03:38.000Z</time>
      </trkpt>
      <trkpt lat="45.19838" lon="5.72832">
        <ele>361.60000610352</ele>
        <time>2021-09-11T08:03:40.000Z</time>
      </trkpt>
      <trkpt lat="45.19838" lon="5.72834">
        <ele>361.39999389648</ele>
        <time>2021-09-11T08:03:41.000Z</time>
      </trkpt>
      <trkpt lat="45.19837" lon="5.72835">
        <ele>361.20001220703</ele>
        <time>2021-09-11T08:03:42.000Z</time>
      </trkpt>
      <trkpt lat="45.19829" lon="5.72833">
        <ele>360.39999389648</ele>
        <time>2021-09-11T08:03:45.000Z</time>
      </trkpt>
      <trkpt lat="45.19823" lon="5.72828">
        <ele>359.79998779297</ele>
        <time>2021-09-11T08:03:48.000Z</time>
      </trkpt>
      <trkpt lat="45.19821" lon="5.72828">
        <ele>359.39999389648</ele>
        <time>2021-09-11T08:03:49.000Z</time>
      </trkpt>
      <trkpt lat="45.19819" lon="5.72827">
        <ele>359</ele>
        <time>2021-09-11T08:03:50.000Z</time>
      </trkpt>
      <trkpt lat="45.19815" lon="5.72826">
        <ele>358.20001220703</ele>
        <time>2021-09-11T08:03:52.000Z</time>
      </trkpt>
      <trkpt lat="45.19815" lon="5.72825">
        <ele>357.60000610352</ele>
        <time>2021-09-11T08:03:54.000Z</time>
      </trkpt>
      <trkpt lat="45.19818" lon="5.72828">
        <ele>357</ele>
        <time>2021-09-11T08:03:56.000Z</time>
      </trkpt>
      <trkpt lat="45.19821" lon="5.72829">
        <ele>356.79998779297</ele>
        <time>2021-09-11T08:03:57.000Z</time>
      </trkpt>
      <trkpt lat="45.19829" lon="5.72834">
        <ele>355.79998779297</ele>
        <time>2021-09-11T08:04:00.000Z</time>
      </trkpt>
      <trkpt lat="45.19832" lon="5.72838">
        <ele>355.60000610352</ele>
        <time>2021-09-11T08:04:02.000Z</time>
      </trkpt>
      <trkpt lat="45.19831" lon="5.7284">
        <ele>355</ele>
        <time>2021-09-11T08:04:03.000Z</time>
      </trkpt>
      <trkpt lat="45.19829" lon="5.72841">
        <ele>354.79998779297</ele>
        <time>2021-09-11T08:04:04.000Z</time>
      </trkpt>
      <trkpt lat="45.19827" lon="5.7284">
        <ele>354.39999389648</ele>
        <time>2021-09-11T08:04:05.000Z</time>
      </trkpt>
      <trkpt lat="45.19822" lon="5.72839">
        <ele>353.79998779297</ele>
        <time>2021-09-11T08:04:07.000Z</time>
      </trkpt>
      <trkpt lat="45.1982" lon="5.72838">
        <ele>353.60000610352</ele>
        <time>2021-09-11T08:04:08.000Z</time>
      </trkpt>
      <trkpt lat="45.19809" lon="5.72832">
        <ele>352.39999389648</ele>
        <time>2021-09-11T08:04:12.000Z</time>
      </trkpt>
      <trkpt lat="45.19807" lon="5.72831">
        <ele>352</ele>
        <time>2021-09-11T08:04:13.000Z</time>
      </trkpt>
      <trkpt lat="45.19802" lon="5.72829">
        <ele>351.39999389648</ele>
        <time>2021-09-11T08:04:15.000Z</time>
      </trkpt>
      <trkpt lat="45.19794" lon="5.72824">
        <ele>350</ele>
        <time>2021-09-11T08:04:18.000Z</time>
      </trkpt>
      <trkpt lat="45.19793" lon="5.72823">
        <ele>349.79998779297</ele>
        <time>2021-09-11T08:04:19.000Z</time>
      </trkpt>
      <trkpt lat="45.1979" lon="5.72823">
        <ele>349.39999389648</ele>
        <time>2021-09-11T08:04:21.000Z</time>
      </trkpt>
      <trkpt lat="45.19789" lon="5.72824">
        <ele>349.20001220703</ele>
        <time>2021-09-11T08:04:22.000Z</time>
      </trkpt>
      <trkpt lat="45.19789" lon="5.72825">
        <ele>349</ele>
        <time>2021-09-11T08:04:24.000Z</time>
      </trkpt>
      <trkpt lat="45.19789" lon="5.72826">
        <ele>348.79998779297</ele>
        <time>2021-09-11T08:04:25.000Z</time>
      </trkpt>
      <trkpt lat="45.19802" lon="5.72833">
        <ele>348.39999389648</ele>
        <time>2021-09-11T08:04:29.000Z</time>
      </trkpt>
      <trkpt lat="45.19805" lon="5.72835">
        <ele>348</ele>
        <time>2021-09-11T08:04:30.000Z</time>
      </trkpt>
      <trkpt lat="45.19816" lon="5.72843">
        <ele>347</ele>
        <time>2021-09-11T08:04:34.000Z</time>
      </trkpt>
      <trkpt lat="45.19819" lon="5.72845">
        <ele>346.79998779297</ele>
        <time>2021-09-11T08:04:35.000Z</time>
      </trkpt>
      <trkpt lat="45.19821" lon="5.72848">
        <ele>346.60000610352</ele>
        <time>2021-09-11T08:04:36.000Z</time>
      </trkpt>
      <trkpt lat="45.1982" lon="5.7285">
        <ele>346.20001220703</ele>
        <time>2021-09-11T08:04:38.000Z</time>
      </trkpt>
      <trkpt lat="45.19813" lon="5.72848">
        <ele>345.39999389648</ele>
        <time>2021-09-11T08:04:41.000Z</time>
      </trkpt>
      <trkpt lat="45.19804" lon="5.72845">
        <ele>344.79998779297</ele>
        <time>2021-09-11T08:04:44.000Z</time>
      </trkpt>
      <trkpt lat="45.19801" lon="5.72844">
        <ele>344.20001220703</ele>
        <time>2021-09-11T08:04:45.000Z</time>
      </trkpt>
      <trkpt lat="45.19792" lon="5.72842">
        <ele>343</ele>
        <time>2021-09-11T08:04:48.000Z</time>
      </trkpt>
      <trkpt lat="45.19789" lon="5.7284">
        <ele>342.60000610352</ele>
        <time>2021-09-11T08:04:49.000Z</time>
      </trkpt>
      <trkpt lat="45.1978" lon="5.72837">
        <ele>341.60000610352</ele>
        <time>2021-09-11T08:04:52.000Z</time>
      </trkpt>
      <trkpt lat="45.19772" lon="5.72833">
        <ele>340.79998779297</ele>
        <time>2021-09-11T08:04:55.000Z</time>
      </trkpt>
      <trkpt lat="45.19769" lon="5.72831">
        <ele>340.20001220703</ele>
        <time>2021-09-11T08:04:56.000Z</time>
      </trkpt>
      <trkpt lat="45.19762" lon="5.72824">
        <ele>339</ele>
        <time>2021-09-11T08:04:59.000Z</time>
      </trkpt>
      <trkpt lat="45.19757" lon="5.7282">
        <ele>338.60000610352</ele>
        <time>2021-09-11T08:05:01.000Z</time>
      </trkpt>
      <trkpt lat="45.19754" lon="5.7282">
        <ele>337.79998779297</ele>
        <time>2021-09-11T08:05:03.000Z</time>
      </trkpt>
      <trkpt lat="45.19754" lon="5.72822">
        <ele>337.39999389648</ele>
        <time>2021-09-11T08:05:04.000Z</time>
      </trkpt>
      <trkpt lat="45.19759" lon="5.72829">
        <ele>336.79998779297</ele>
        <time>2021-09-11T08:05:07.000Z</time>
      </trkpt>
      <trkpt lat="45.19761" lon="5.72832">
        <ele>336.20001220703</ele>
        <time>2021-09-11T08:05:08.000Z</time>
      </trkpt>
      <trkpt lat="45.19764" lon="5.72837">
        <ele>335.60000610352</ele>
        <time>2021-09-11T08:05:10.000Z</time>
      </trkpt>
      <trkpt lat="45.19769" lon="5.72842">
        <ele>334.39999389648</ele>
        <time>2021-09-11T08:05:12.000Z</time>
      </trkpt>
      <trkpt lat="45.19776" lon="5.7285">
        <ele>333.39999389648</ele>
        <time>2021-09-11T08:05:15.000Z</time>
      </trkpt>
      <trkpt lat="45.19785" lon="5.72855">
        <ele>332.39999389648</ele>
        <time>2021-09-11T08:05:18.000Z</time>
      </trkpt>
      <trkpt lat="45.19788" lon="5.7286">
        <ele>331.39999389648</ele>
        <time>2021-09-11T08:05:20.000Z</time>
      </trkpt>
      <trkpt lat="45.19791" lon="5.72863">
        <ele>331</ele>
        <time>2021-09-11T08:05:21.000Z</time>
      </trkpt>
      <trkpt lat="45.198" lon="5.72872">
        <ele>329.79998779297</ele>
        <time>2021-09-11T08:05:25.000Z</time>
      </trkpt>
      <trkpt lat="45.19802" lon="5.72875">
        <ele>329.20001220703</ele>
        <time>2021-09-11T08:05:26.000Z</time>
      </trkpt>
      <trkpt lat="45.19806" lon="5.7288">
        <ele>328.39999389648</ele>
        <time>2021-09-11T08:05:28.000Z</time>
      </trkpt>
      <trkpt lat="45.19807" lon="5.72883">
        <ele>328.20001220703</ele>
        <time>2021-09-11T08:05:29.000Z</time>
      </trkpt>
      <trkpt lat="45.19807" lon="5.72884">
        <ele>328</ele>
        <time>2021-09-11T08:05:30.000Z</time>
      </trkpt>
      <trkpt lat="45.19802" lon="5.72884">
        <ele>327.20001220703</ele>
        <time>2021-09-11T08:05:32.000Z</time>
      </trkpt>
      <trkpt lat="45.19799" lon="5.72883">
        <ele>326.79998779297</ele>
        <time>2021-09-11T08:05:33.000Z</time>
      </trkpt>
      <trkpt lat="45.19794" lon="5.72882">
        <ele>326</ele>
        <time>2021-09-11T08:05:35.000Z</time>
      </trkpt>
      <trkpt lat="45.19784" lon="5.72878">
        <ele>325</ele>
        <time>2021-09-11T08:05:38.000Z</time>
      </trkpt>
      <trkpt lat="45.19779" lon="5.72875">
        <ele>324</ele>
        <time>2021-09-11T08:05:40.000Z</time>
      </trkpt>
      <trkpt lat="45.19768" lon="5.72871">
        <ele>323</ele>
        <time>2021-09-11T08:05:43.000Z</time>
      </trkpt>
      <trkpt lat="45.19765" lon="5.7287">
        <ele>322.39999389648</ele>
        <time>2021-09-11T08:05:44.000Z</time>
      </trkpt>
      <trkpt lat="45.19755" lon="5.72864">
        <ele>321.39999389648</ele>
        <time>2021-09-11T08:05:47.000Z</time>
      </trkpt>
      <trkpt lat="45.19752" lon="5.72861">
        <ele>321</ele>
        <time>2021-09-11T08:05:48.000Z</time>
      </trkpt>
      <trkpt lat="45.19747" lon="5.72856">
        <ele>320.39999389648</ele>
        <time>2021-09-11T08:05:50.000Z</time>
      </trkpt>
      <trkpt lat="45.19745" lon="5.72852">
        <ele>319.60000610352</ele>
        <time>2021-09-11T08:05:52.000Z</time>
      </trkpt>
      <trkpt lat="45.19745" lon="5.72851">
        <ele>319</ele>
        <time>2021-09-11T08:05:53.000Z</time>
      </trkpt>
      <trkpt lat="45.19748" lon="5.72855">
        <ele>318.39999389648</ele>
        <time>2021-09-11T08:05:55.000Z</time>
      </trkpt>
      <trkpt lat="45.19752" lon="5.7286">
        <ele>318</ele>
        <time>2021-09-11T08:05:57.000Z</time>
      </trkpt>
      <trkpt lat="45.19757" lon="5.72869">
        <ele>316.60000610352</ele>
        <time>2021-09-11T08:06:00.000Z</time>
      </trkpt>
      <trkpt lat="45.19759" lon="5.72873">
        <ele>316.20001220703</ele>
        <time>2021-09-11T08:06:01.000Z</time>
      </trkpt>
      <trkpt lat="45.19763" lon="5.72879">
        <ele>315.60000610352</ele>
        <time>2021-09-11T08:06:03.000Z</time>
      </trkpt>
      <trkpt lat="45.1977" lon="5.72888">
        <ele>314.20001220703</ele>
        <time>2021-09-11T08:06:06.000Z</time>
      </trkpt>
      <trkpt lat="45.19772" lon="5.72891">
        <ele>313.79998779297</ele>
        <time>2021-09-11T08:06:07.000Z</time>
      </trkpt>
      <trkpt lat="45.19775" lon="5.72897">
        <ele>312.79998779297</ele>
        <time>2021-09-11T08:06:09.000Z</time>
      </trkpt>
      <trkpt lat="45.1978" lon="5.72905">
        <ele>311.79998779297</ele>
        <time>2021-09-11T08:06:11.000Z</time>
      </trkpt>
      <trkpt lat="45.19785" lon="5.72912">
        <ele>311.20001220703</ele>
        <time>2021-09-11T08:06:13.000Z</time>
      </trkpt>
      <trkpt lat="45.1979" lon="5.72917">
        <ele>310.79998779297</ele>
        <time>2021-09-11T08:06:15.000Z</time>
      </trkpt>
      <trkpt lat="45.19792" lon="5.7292">
        <ele>310.39999389648</ele>
        <time>2021-09-11T08:06:16.000Z</time>
      </trkpt>
      <trkpt lat="45.19791" lon="5.72923">
        <ele>310.20001220703</ele>
        <time>2021-09-11T08:06:17.000Z</time>
      </trkpt>
      <trkpt lat="45.1979" lon="5.72925">
        <ele>309.60000610352</ele>
        <time>2021-09-11T08:06:18.000Z</time>
      </trkpt>
      <trkpt lat="45.19788" lon="5.72925">
        <ele>309.20001220703</ele>
        <time>2021-09-11T08:06:19.000Z</time>
      </trkpt>
      <trkpt lat="45.19782" lon="5.72925">
        <ele>308.20001220703</ele>
        <time>2021-09-11T08:06:21.000Z</time>
      </trkpt>
      <trkpt lat="45.19779" lon="5.72924">
        <ele>307.79998779297</ele>
        <time>2021-09-11T08:06:22.000Z</time>
      </trkpt>
      <trkpt lat="45.19776" lon="5.72922">
        <ele>307.20001220703</ele>
        <time>2021-09-11T08:06:23.000Z</time>
      </trkpt>
      <trkpt lat="45.19767" lon="5.72918">
        <ele>306.20001220703</ele>
        <time>2021-09-11T08:06:26.000Z</time>
      </trkpt>
      <trkpt lat="45.19764" lon="5.72916">
        <ele>305.79998779297</ele>
        <time>2021-09-11T08:06:27.000Z</time>
      </trkpt>
      <trkpt lat="45.19758" lon="5.72913">
        <ele>304.79998779297</ele>
        <time>2021-09-11T08:06:29.000Z</time>
      </trkpt>
      <trkpt lat="45.19752" lon="5.72909">
        <ele>304</ele>
        <time>2021-09-11T08:06:31.000Z</time>
      </trkpt>
      <trkpt lat="45.19749" lon="5.72905">
        <ele>303.39999389648</ele>
        <time>2021-09-11T08:06:32.000Z</time>
      </trkpt>
      <trkpt lat="45.19742" lon="5.72902">
        <ele>302.79998779297</ele>
        <time>2021-09-11T08:06:34.000Z</time>
      </trkpt>
      <trkpt lat="45.19739" lon="5.729">
        <ele>302.39999389648</ele>
        <time>2021-09-11T08:06:35.000Z</time>
      </trkpt>
      <trkpt lat="45.19733" lon="5.72896">
        <ele>301.39999389648</ele>
        <time>2021-09-11T08:06:37.000Z</time>
      </trkpt>
      <trkpt lat="45.19726" lon="5.72888">
        <ele>299.79998779297</ele>
        <time>2021-09-11T08:06:40.000Z</time>
      </trkpt>
      <trkpt lat="45.19721" lon="5.72885">
        <ele>299.20001220703</ele>
        <time>2021-09-11T08:06:42.000Z</time>
      </trkpt>
      <trkpt lat="45.19715" lon="5.7288">
        <ele>298.20001220703</ele>
        <time>2021-09-11T08:06:44.000Z</time>
      </trkpt>
      <trkpt lat="45.19704" lon="5.7287">
        <ele>297</ele>
        <time>2021-09-11T08:06:47.000Z</time>
      </trkpt>
      <trkpt lat="45.19693" lon="5.72858">
        <ele>295.79998779297</ele>
        <time>2021-09-11T08:06:51.000Z</time>
      </trkpt>
      <trkpt lat="45.19693" lon="5.72858">
        <ele>295.20001220703</ele>
        <time>2021-09-11T08:06:53.000Z</time>
      </trkpt>
      <trkpt lat="45.19694" lon="5.72861">
        <ele>294.39999389648</ele>
        <time>2021-09-11T08:06:55.000Z</time>
      </trkpt>
      <trkpt lat="45.19695" lon="5.72864">
        <ele>294</ele>
        <time>2021-09-11T08:06:56.000Z</time>
      </trkpt>
      <trkpt lat="45.19697" lon="5.72867">
        <ele>293.79998779297</ele>
        <time>2021-09-11T08:06:57.000Z</time>
      </trkpt>
      <trkpt lat="45.19699" lon="5.72869">
        <ele>293.20001220703</ele>
        <time>2021-09-11T08:06:58.000Z</time>
      </trkpt>
      <trkpt lat="45.19706" lon="5.72879">
        <ele>292</ele>
        <time>2021-09-11T08:07:01.000Z</time>
      </trkpt>
      <trkpt lat="45.19709" lon="5.72882">
        <ele>291.39999389648</ele>
        <time>2021-09-11T08:07:02.000Z</time>
      </trkpt>
      <trkpt lat="45.19715" lon="5.72889">
        <ele>290.79998779297</ele>
        <time>2021-09-11T08:07:04.000Z</time>
      </trkpt>
      <trkpt lat="45.19722" lon="5.72902">
        <ele>289.39999389648</ele>
        <time>2021-09-11T08:07:07.000Z</time>
      </trkpt>
      <trkpt lat="45.19729" lon="5.72914">
        <ele>288.60000610352</ele>
        <time>2021-09-11T08:07:09.000Z</time>
      </trkpt>
      <trkpt lat="45.19732" lon="5.72919">
        <ele>288</ele>
        <time>2021-09-11T08:07:10.000Z</time>
      </trkpt>
      <trkpt lat="45.19739" lon="5.72932">
        <ele>286.79998779297</ele>
        <time>2021-09-11T08:07:13.000Z</time>
      </trkpt>
      <trkpt lat="45.19744" lon="5.72941">
        <ele>286</ele>
        <time>2021-09-11T08:07:15.000Z</time>
      </trkpt>
      <trkpt lat="45.19746" lon="5.72945">
        <ele>285.39999389648</ele>
        <time>2021-09-11T08:07:16.000Z</time>
      </trkpt>
      <trkpt lat="45.19756" lon="5.7296">
        <ele>284</ele>
        <time>2021-09-11T08:07:20.000Z</time>
      </trkpt>
      <trkpt lat="45.19761" lon="5.72967">
        <ele>283</ele>
        <time>2021-09-11T08:07:22.000Z</time>
      </trkpt>
      <trkpt lat="45.19765" lon="5.72972">
        <ele>282.79998779297</ele>
        <time>2021-09-11T08:07:23.000Z</time>
      </trkpt>
      <trkpt lat="45.19777" lon="5.72985">
        <ele>281.39999389648</ele>
        <time>2021-09-11T08:07:26.000Z</time>
      </trkpt>
      <trkpt lat="45.19786" lon="5.72996">
        <ele>280.20001220703</ele>
        <time>2021-09-11T08:07:29.000Z</time>
      </trkpt>
      <trkpt lat="45.19794" lon="5.73005">
        <ele>279.20001220703</ele>
        <time>2021-09-11T08:07:32.000Z</time>
      </trkpt>
      <trkpt lat="45.19799" lon="5.73009">
        <ele>278.39999389648</ele>
        <time>2021-09-11T08:07:34.000Z</time>
      </trkpt>
      <trkpt lat="45.19801" lon="5.73011">
        <ele>278.20001220703</ele>
        <time>2021-09-11T08:07:35.000Z</time>
      </trkpt>
      <trkpt lat="45.19809" lon="5.7302">
        <ele>277.20001220703</ele>
        <time>2021-09-11T08:07:38.000Z</time>
      </trkpt>
      <trkpt lat="45.19808" lon="5.73023">
        <ele>276.79998779297</ele>
        <time>2021-09-11T08:07:39.000Z</time>
      </trkpt>
      <trkpt lat="45.19803" lon="5.73023">
        <ele>275.39999389648</ele>
        <time>2021-09-11T08:07:41.000Z</time>
      </trkpt>
      <trkpt lat="45.19796" lon="5.73022">
        <ele>274.79998779297</ele>
        <time>2021-09-11T08:07:43.000Z</time>
      </trkpt>
      <trkpt lat="45.19792" lon="5.73022">
        <ele>274.39999389648</ele>
        <time>2021-09-11T08:07:44.000Z</time>
      </trkpt>
      <trkpt lat="45.19785" lon="5.7302">
        <ele>273.39999389648</ele>
        <time>2021-09-11T08:07:46.000Z</time>
      </trkpt>
      <trkpt lat="45.19774" lon="5.73018">
        <ele>272.20001220703</ele>
        <time>2021-09-11T08:07:49.000Z</time>
      </trkpt>
      <trkpt lat="45.19768" lon="5.73016">
        <ele>271.60000610352</ele>
        <time>2021-09-11T08:07:51.000Z</time>
      </trkpt>
      <trkpt lat="45.19766" lon="5.73016">
        <ele>271.20001220703</ele>
        <time>2021-09-11T08:07:52.000Z</time>
      </trkpt>
      <trkpt lat="45.19763" lon="5.73019">
        <ele>270.20001220703</ele>
        <time>2021-09-11T08:07:55.000Z</time>
      </trkpt>
      <trkpt lat="45.19763" lon="5.73021">
        <ele>270</ele>
        <time>2021-09-11T08:07:56.000Z</time>
      </trkpt>
      <trkpt lat="45.19768" lon="5.73023">
        <ele>269.20001220703</ele>
        <time>2021-09-11T08:07:58.000Z</time>
      </trkpt>
      <trkpt lat="45.19771" lon="5.73024">
        <ele>268.79998779297</ele>
        <time>2021-09-11T08:07:59.000Z</time>
      </trkpt>
      <trkpt lat="45.19782" lon="5.73028">
        <ele>268</ele>
        <time>2021-09-11T08:08:02.000Z</time>
      </trkpt>
      <trkpt lat="45.19786" lon="5.7303">
        <ele>267.39999389648</ele>
        <time>2021-09-11T08:08:03.000Z</time>
      </trkpt>
      <trkpt lat="45.19796" lon="5.73042">
        <ele>266</ele>
        <time>2021-09-11T08:08:07.000Z</time>
      </trkpt>
      <trkpt lat="45.19796" lon="5.73045">
        <ele>265.60000610352</ele>
        <time>2021-09-11T08:08:08.000Z</time>
      </trkpt>
      <trkpt lat="45.19794" lon="5.73046">
        <ele>265</ele>
        <time>2021-09-11T08:08:09.000Z</time>
      </trkpt>
      <trkpt lat="45.19786" lon="5.73046">
        <ele>263.60000610352</ele>
        <time>2021-09-11T08:08:12.000Z</time>
      </trkpt>
      <trkpt lat="45.19776" lon="5.73044">
        <ele>262.39999389648</ele>
        <time>2021-09-11T08:08:15.000Z</time>
      </trkpt>
      <trkpt lat="45.19767" lon="5.73043">
        <ele>261.20001220703</ele>
        <time>2021-09-11T08:08:18.000Z</time>
      </trkpt>
      <trkpt lat="45.19757" lon="5.73041">
        <ele>259.79998779297</ele>
        <time>2021-09-11T08:08:21.000Z</time>
      </trkpt>
      <trkpt lat="45.19753" lon="5.73041">
        <ele>258.79998779297</ele>
        <time>2021-09-11T08:08:23.000Z</time>
      </trkpt>
      <trkpt lat="45.19753" lon="5.73042">
        <ele>258.39999389648</ele>
        <time>2021-09-11T08:08:24.000Z</time>
      </trkpt>
      <trkpt lat="45.1976" lon="5.73046">
        <ele>257.60000610352</ele>
        <time>2021-09-11T08:08:27.000Z</time>
      </trkpt>
      <trkpt lat="45.19762" lon="5.73048">
        <ele>257.60000610352</ele>
        <time>2021-09-11T08:08:28.000Z</time>
      </trkpt>
      <trkpt lat="45.19767" lon="5.73051">
        <ele>256.79998779297</ele>
        <time>2021-09-11T08:08:30.000Z</time>
      </trkpt>
      <trkpt lat="45.1977" lon="5.73053">
        <ele>256.39999389648</ele>
        <time>2021-09-11T08:08:31.000Z</time>
      </trkpt>
      <trkpt lat="45.19773" lon="5.73055">
        <ele>256</ele>
        <time>2021-09-11T08:08:32.000Z</time>
      </trkpt>
      <trkpt lat="45.19778" lon="5.73058">
        <ele>255.19999694824</ele>
        <time>2021-09-11T08:08:34.000Z</time>
      </trkpt>
      <trkpt lat="45.19784" lon="5.73062">
        <ele>254.39999389648</ele>
        <time>2021-09-11T08:08:36.000Z</time>
      </trkpt>
      <trkpt lat="45.19786" lon="5.73064">
        <ele>254</ele>
        <time>2021-09-11T08:08:37.000Z</time>
      </trkpt>
      <trkpt lat="45.19788" lon="5.73065">
        <ele>253.60000610352</ele>
        <time>2021-09-11T08:08:38.000Z</time>
      </trkpt>
      <trkpt lat="45.19788" lon="5.73068">
        <ele>253</ele>
        <time>2021-09-11T08:08:39.000Z</time>
      </trkpt>
      <trkpt lat="45.19787" lon="5.73069">
        <ele>252.60000610352</ele>
        <time>2021-09-11T08:08:40.000Z</time>
      </trkpt>
      <trkpt lat="45.19784" lon="5.73068">
        <ele>251.80000305176</ele>
        <time>2021-09-11T08:08:42.000Z</time>
      </trkpt>
      <trkpt lat="45.19778" lon="5.73065">
        <ele>250.60000610352</ele>
        <time>2021-09-11T08:08:45.000Z</time>
      </trkpt>
      <trkpt lat="45.19771" lon="5.73062">
        <ele>249.39999389648</ele>
        <time>2021-09-11T08:08:48.000Z</time>
      </trkpt>
      <trkpt lat="45.19765" lon="5.7306">
        <ele>248.60000610352</ele>
        <time>2021-09-11T08:08:50.000Z</time>
      </trkpt>
      <trkpt lat="45.19762" lon="5.7306">
        <ele>248.19999694824</ele>
        <time>2021-09-11T08:08:51.000Z</time>
      </trkpt>
      <trkpt lat="45.19755" lon="5.73061">
        <ele>247.19999694824</ele>
        <time>2021-09-11T08:08:54.000Z</time>
      </trkpt>
      <trkpt lat="45.19758" lon="5.73063">
        <ele>246.39999389648</ele>
        <time>2021-09-11T08:08:57.000Z</time>
      </trkpt>
      <trkpt lat="45.19764" lon="5.73065">
        <ele>245.80000305176</ele>
        <time>2021-09-11T08:08:59.000Z</time>
      </trkpt>
      <trkpt lat="45.19769" lon="5.73068">
        <ele>244.80000305176</ele>
        <time>2021-09-11T08:09:01.000Z</time>
      </trkpt>
      <trkpt lat="45.19771" lon="5.7307">
        <ele>244.39999389648</ele>
        <time>2021-09-11T08:09:02.000Z</time>
      </trkpt>
      <trkpt lat="45.1978" lon="5.73076">
        <ele>243.19999694824</ele>
        <time>2021-09-11T08:09:06.000Z</time>
      </trkpt>
      <trkpt lat="45.19785" lon="5.7308">
        <ele>242.19999694824</ele>
        <time>2021-09-11T08:09:08.000Z</time>
      </trkpt>
      <trkpt lat="45.19788" lon="5.73081">
        <ele>241.80000305176</ele>
        <time>2021-09-11T08:09:09.000Z</time>
      </trkpt>
      <trkpt lat="45.19799" lon="5.7309">
        <ele>240.39999389648</ele>
        <time>2021-09-11T08:09:13.000Z</time>
      </trkpt>
      <trkpt lat="45.19799" lon="5.73092">
        <ele>240</ele>
        <time>2021-09-11T08:09:14.000Z</time>
      </trkpt>
      <trkpt lat="45.19798" lon="5.73094">
        <ele>239.80000305176</ele>
        <time>2021-09-11T08:09:15.000Z</time>
      </trkpt>
      <trkpt lat="45.19791" lon="5.73094">
        <ele>239.19999694824</ele>
        <time>2021-09-11T08:09:18.000Z</time>
      </trkpt>
      <trkpt lat="45.19787" lon="5.73094">
        <ele>238</ele>
        <time>2021-09-11T08:09:20.000Z</time>
      </trkpt>
      <trkpt lat="45.19784" lon="5.73095">
        <ele>237.60000610352</ele>
        <time>2021-09-11T08:09:21.000Z</time>
      </trkpt>
      <trkpt lat="45.19777" lon="5.73095">
        <ele>237</ele>
        <time>2021-09-11T08:09:23.000Z</time>
      </trkpt>
      <trkpt lat="45.19768" lon="5.73094">
        <ele>236.19999694824</ele>
        <time>2021-09-11T08:09:26.000Z</time>
      </trkpt>
      <trkpt lat="45.19766" lon="5.73094">
        <ele>235.80000305176</ele>
        <time>2021-09-11T08:09:27.000Z</time>
      </trkpt>
      <trkpt lat="45.19761" lon="5.73096">
        <ele>234.60000610352</ele>
        <time>2021-09-11T08:09:31.000Z</time>
      </trkpt>
      <trkpt lat="45.19769" lon="5.73102">
        <ele>233.39999389648</ele>
        <time>2021-09-11T08:09:35.000Z</time>
      </trkpt>
      <trkpt lat="45.19774" lon="5.73105">
        <ele>232.19999694824</ele>
        <time>2021-09-11T08:09:38.000Z</time>
      </trkpt>
      <trkpt lat="45.19783" lon="5.73116">
        <ele>231</ele>
        <time>2021-09-11T08:09:43.000Z</time>
      </trkpt>
      <trkpt lat="45.19786" lon="5.73118">
        <ele>230</ele>
        <time>2021-09-11T08:09:44.000Z</time>
      </trkpt>
      <trkpt lat="45.19787" lon="5.7312">
        <ele>229.39999389648</ele>
        <time>2021-09-11T08:09:45.000Z</time>
      </trkpt>
      <trkpt lat="45.19791" lon="5.73118">
        <ele>228.60000610352</ele>
        <time>2021-09-11T08:09:48.000Z</time>
      </trkpt>
      <trkpt lat="45.19792" lon="5.73119">
        <ele>228.19999694824</ele>
        <time>2021-09-11T08:09:49.000Z</time>
      </trkpt>
      <trkpt lat="45.19789" lon="5.7312">
        <ele>227.80000305176</ele>
        <time>2021-09-11T08:09:51.000Z</time>
      </trkpt>
      <trkpt lat="45.19786" lon="5.73121">
        <ele>227.60000610352</ele>
        <time>2021-09-11T08:09:52.000Z</time>
      </trkpt>
      <trkpt lat="45.19782" lon="5.73124">
        <ele>227.19999694824</ele>
        <time>2021-09-11T08:09:54.000Z</time>
      </trkpt>
      <trkpt lat="45.19779" lon="5.73127">
        <ele>227</ele>
        <time>2021-09-11T08:09:55.000Z</time>
      </trkpt>
      <trkpt lat="45.19777" lon="5.73135">
        <ele>226</ele>
        <time>2021-09-11T08:09:57.000Z</time>
      </trkpt>
      <trkpt lat="45.19775" lon="5.73149">
        <ele>224.80000305176</ele>
        <time>2021-09-11T08:10:00.000Z</time>
      </trkpt>
      <trkpt lat="45.19773" lon="5.73162">
        <ele>223.60000610352</ele>
        <time>2021-09-11T08:10:03.000Z</time>
      </trkpt>
      <trkpt lat="45.19774" lon="5.73172">
        <ele>222.39999389648</ele>
        <time>2021-09-11T08:10:05.000Z</time>
      </trkpt>
      <trkpt lat="45.19776" lon="5.73175">
        <ele>221.80000305176</ele>
        <time>2021-09-11T08:10:06.000Z</time>
      </trkpt>
      <trkpt lat="45.19779" lon="5.73183">
        <ele>221.39999389648</ele>
        <time>2021-09-11T08:10:08.000Z</time>
      </trkpt>
      <trkpt lat="45.1978" lon="5.73187">
        <ele>221.19999694824</ele>
        <time>2021-09-11T08:10:09.000Z</time>
      </trkpt>
      <trkpt lat="45.19781" lon="5.73203">
        <ele>221.19999694824</ele>
        <time>2021-09-11T08:10:13.000Z</time>
      </trkpt>
      <trkpt lat="45.19779" lon="5.73223">
        <ele>221.60000610352</ele>
        <time>2021-09-11T08:10:18.000Z</time>
      </trkpt>
      <trkpt lat="45.19772" lon="5.73249">
        <ele>221.80000305176</ele>
        <time>2021-09-11T08:10:24.000Z</time>
      </trkpt>
      <trkpt lat="45.19771" lon="5.73253">
        <ele>221.80000305176</ele>
        <time>2021-09-11T08:10:25.000Z</time>
      </trkpt>
      <trkpt lat="45.19766" lon="5.73264">
        <ele>222.39999389648</ele>
        <time>2021-09-11T08:10:28.000Z</time>
      </trkpt>
      <trkpt lat="45.19764" lon="5.73267">
        <ele>222.60000610352</ele>
        <time>2021-09-11T08:10:29.000Z</time>
      </trkpt>
      <trkpt lat="45.19756" lon="5.73294">
        <ele>223</ele>
        <time>2021-09-11T08:10:36.000Z</time>
      </trkpt>
      <trkpt lat="45.19752" lon="5.73306">
        <ele>223</ele>
        <time>2021-09-11T08:10:39.000Z</time>
      </trkpt>
      <trkpt lat="45.19746" lon="5.73326">
        <ele>223</ele>
        <time>2021-09-11T08:10:44.000Z</time>
      </trkpt>
      <trkpt lat="45.19745" lon="5.7333">
        <ele>223.19999694824</ele>
        <time>2021-09-11T08:10:45.000Z</time>
      </trkpt>
      <trkpt lat="45.19737" lon="5.73356">
        <ele>222.80000305176</ele>
        <time>2021-09-11T08:10:51.000Z</time>
      </trkpt>
      <trkpt lat="45.19734" lon="5.73365">
        <ele>222.39999389648</ele>
        <time>2021-09-11T08:10:53.000Z</time>
      </trkpt>
      <trkpt lat="45.19726" lon="5.73386">
        <ele>221.80000305176</ele>
        <time>2021-09-11T08:10:58.000Z</time>
      </trkpt>
      <trkpt lat="45.19721" lon="5.73397">
        <ele>221.19999694824</ele>
        <time>2021-09-11T08:11:01.000Z</time>
      </trkpt>
      <trkpt lat="45.19719" lon="5.73401">
        <ele>221</ele>
        <time>2021-09-11T08:11:02.000Z</time>
      </trkpt>
      <trkpt lat="45.19709" lon="5.73419">
        <ele>220.19999694824</ele>
        <time>2021-09-11T08:11:07.000Z</time>
      </trkpt>
      <trkpt lat="45.19703" lon="5.73425">
        <ele>220</ele>
        <time>2021-09-11T08:11:09.000Z</time>
      </trkpt>
      <trkpt lat="45.19692" lon="5.73427">
        <ele>219.19999694824</ele>
        <time>2021-09-11T08:11:13.000Z</time>
      </trkpt>
      <trkpt lat="45.19689" lon="5.73426">
        <ele>219.19999694824</ele>
        <time>2021-09-11T08:11:14.000Z</time>
      </trkpt>
      <trkpt lat="45.19687" lon="5.73426">
        <ele>219.19999694824</ele>
        <time>2021-09-11T08:11:15.000Z</time>
      </trkpt>
      <trkpt lat="45.19678" lon="5.73428">
        <ele>219</ele>
        <time>2021-09-11T08:11:18.000Z</time>
      </trkpt>
      <trkpt lat="45.19667" lon="5.7343">
        <ele>219</ele>
        <time>2021-09-11T08:11:21.000Z</time>
      </trkpt>
      <trkpt lat="45.19658" lon="5.73433">
        <ele>219</ele>
        <time>2021-09-11T08:11:23.000Z</time>
      </trkpt>
      <trkpt lat="45.19641" lon="5.73439">
        <ele>219.19999694824</ele>
        <time>2021-09-11T08:11:28.000Z</time>
      </trkpt>
      <trkpt lat="45.19641" lon="5.73441">
        <ele>219.39999389648</ele>
        <time>2021-09-11T08:11:29.000Z</time>
      </trkpt>
      <trkpt lat="45.19633" lon="5.73445">
        <ele>219.19999694824</ele>
        <time>2021-09-11T08:11:34.000Z</time>
      </trkpt>
      <trkpt lat="45.19621" lon="5.73446">
        <ele>219.39999389648</ele>
        <time>2021-09-11T08:11:39.000Z</time>
      </trkpt>
      <trkpt lat="45.19609" lon="5.73453">
        <ele>219.60000610352</ele>
        <time>2021-09-11T08:11:44.000Z</time>
      </trkpt>
      <trkpt lat="45.19608" lon="5.73456">
        <ele>219.80000305176</ele>
        <time>2021-09-11T08:11:45.000Z</time>
      </trkpt>
      <trkpt lat="45.19603" lon="5.73472">
        <ele>219.80000305176</ele>
        <time>2021-09-11T08:11:49.000Z</time>
      </trkpt>
      <trkpt lat="45.1959" lon="5.73482">
        <ele>219.80000305176</ele>
        <time>2021-09-11T08:11:54.000Z</time>
      </trkpt>
      <trkpt lat="45.19576" lon="5.73488">
        <ele>220</ele>
        <time>2021-09-11T08:11:59.000Z</time>
      </trkpt>
      <trkpt lat="45.19561" lon="5.73496">
        <ele>220.39999389648</ele>
        <time>2021-09-11T08:12:04.000Z</time>
      </trkpt>
      <trkpt lat="45.19557" lon="5.73499">
        <ele>220.60000610352</ele>
        <time>2021-09-11T08:12:05.000Z</time>
      </trkpt>
      <trkpt lat="45.19539" lon="5.73506">
        <ele>220.60000610352</ele>
        <time>2021-09-11T08:12:10.000Z</time>
      </trkpt>
      <trkpt lat="45.19535" lon="5.73507">
        <ele>220.60000610352</ele>
        <time>2021-09-11T08:12:11.000Z</time>
      </trkpt>
      <trkpt lat="45.1952" lon="5.73515">
        <ele>220.19999694824</ele>
        <time>2021-09-11T08:12:17.000Z</time>
      </trkpt>
      <trkpt lat="45.19504" lon="5.73526">
        <ele>220.39999389648</ele>
        <time>2021-09-11T08:12:23.000Z</time>
      </trkpt>
      <trkpt lat="45.19501" lon="5.73529">
        <ele>220.39999389648</ele>
        <time>2021-09-11T08:12:24.000Z</time>
      </trkpt>
      <trkpt lat="45.19485" lon="5.7354">
        <ele>220.60000610352</ele>
        <time>2021-09-11T08:12:30.000Z</time>
      </trkpt>
      <trkpt lat="45.19471" lon="5.73546">
        <ele>220.60000610352</ele>
        <time>2021-09-11T08:12:35.000Z</time>
      </trkpt>
      <trkpt lat="45.19454" lon="5.73559">
        <ele>220.80000305176</ele>
        <time>2021-09-11T08:12:43.000Z</time>
      </trkpt>
      <trkpt lat="45.19445" lon="5.73567">
        <ele>221</ele>
        <time>2021-09-11T08:12:48.000Z</time>
      </trkpt>
      <trkpt lat="45.19444" lon="5.73567">
        <ele>221</ele>
        <time>2021-09-11T08:12:49.000Z</time>
      </trkpt>
      <trkpt lat="45.19439" lon="5.73569">
        <ele>221.19999694824</ele>
        <time>2021-09-11T08:12:53.000Z</time>
      </trkpt>
      <trkpt lat="45.19438" lon="5.73568">
        <ele>221</ele>
        <time>2021-09-11T08:12:54.000Z</time>
      </trkpt>
      <trkpt lat="45.19425" lon="5.73568">
        <ele>221</ele>
        <time>2021-09-11T08:12:59.000Z</time>
      </trkpt>
      <trkpt lat="45.19417" lon="5.73583">
        <ele>221</ele>
        <time>2021-09-11T08:13:04.000Z</time>
      </trkpt>
      <trkpt lat="45.19413" lon="5.736">
        <ele>220.80000305176</ele>
        <time>2021-09-11T08:13:08.000Z</time>
      </trkpt>
      <trkpt lat="45.19418" lon="5.73613">
        <ele>220.60000610352</ele>
        <time>2021-09-11T08:13:12.000Z</time>
      </trkpt>
      <trkpt lat="45.19423" lon="5.73625">
        <ele>220.80000305176</ele>
        <time>2021-09-11T08:13:16.000Z</time>
      </trkpt>
      <trkpt lat="45.19425" lon="5.73628">
        <ele>220.80000305176</ele>
        <time>2021-09-11T08:13:17.000Z</time>
      </trkpt>
      <trkpt lat="45.19429" lon="5.7364">
        <ele>221</ele>
        <time>2021-09-11T08:13:20.000Z</time>
      </trkpt>
      <trkpt lat="45.19433" lon="5.73651">
        <ele>220.80000305176</ele>
        <time>2021-09-11T08:13:23.000Z</time>
      </trkpt>
      <trkpt lat="45.19446" lon="5.73662">
        <ele>220.39999389648</ele>
        <time>2021-09-11T08:13:29.000Z</time>
      </trkpt>
      <trkpt lat="45.19455" lon="5.73672">
        <ele>220.39999389648</ele>
        <time>2021-09-11T08:13:34.000Z</time>
      </trkpt>
      <trkpt lat="45.19462" lon="5.7369">
        <ele>220</ele>
        <time>2021-09-11T08:13:40.000Z</time>
      </trkpt>
      <trkpt lat="45.19467" lon="5.73693">
        <ele>220</ele>
        <time>2021-09-11T08:13:42.000Z</time>
      </trkpt>
      <trkpt lat="45.19476" lon="5.73697">
        <ele>220</ele>
        <time>2021-09-11T08:13:45.000Z</time>
      </trkpt>
      <trkpt lat="45.19493" lon="5.73699">
        <ele>220.60000610352</ele>
        <time>2021-09-11T08:13:51.000Z</time>
      </trkpt>
      <trkpt lat="45.19513" lon="5.73693">
        <ele>220.60000610352</ele>
        <time>2021-09-11T08:13:58.000Z</time>
      </trkpt>
      <trkpt lat="45.19532" lon="5.73689">
        <ele>220.39999389648</ele>
        <time>2021-09-11T08:14:04.000Z</time>
      </trkpt>
      <trkpt lat="45.1955" lon="5.73686">
        <ele>220.39999389648</ele>
        <time>2021-09-11T08:14:09.000Z</time>
      </trkpt>
      <trkpt lat="45.19558" lon="5.73685">
        <ele>220.39999389648</ele>
        <time>2021-09-11T08:14:11.000Z</time>
      </trkpt>
      <trkpt lat="45.19567" lon="5.73684">
        <ele>220.60000610352</ele>
        <time>2021-09-11T08:14:14.000Z</time>
      </trkpt>
      <trkpt lat="45.19578" lon="5.73684">
        <ele>220.60000610352</ele>
        <time>2021-09-11T08:14:18.000Z</time>
      </trkpt>
      <trkpt lat="45.19597" lon="5.73685">
        <ele>220.39999389648</ele>
        <time>2021-09-11T08:14:23.000Z</time>
      </trkpt>
      <trkpt lat="45.19608" lon="5.73684">
        <ele>220.19999694824</ele>
        <time>2021-09-11T08:14:26.000Z</time>
      </trkpt>
      <trkpt lat="45.19624" lon="5.73688">
        <ele>220.19999694824</ele>
        <time>2021-09-11T08:14:30.000Z</time>
      </trkpt>
      <trkpt lat="45.19625" lon="5.73692">
        <ele>220.19999694824</ele>
        <time>2021-09-11T08:14:31.000Z</time>
      </trkpt>
      <trkpt lat="45.19629" lon="5.73706">
        <ele>220</ele>
        <time>2021-09-11T08:14:35.000Z</time>
      </trkpt>
      <trkpt lat="45.19635" lon="5.73731">
        <ele>220</ele>
        <time>2021-09-11T08:14:41.000Z</time>
      </trkpt>
      <trkpt lat="45.19636" lon="5.73735">
        <ele>220</ele>
        <time>2021-09-11T08:14:42.000Z</time>
      </trkpt>
      <trkpt lat="45.19642" lon="5.73761">
        <ele>219.80000305176</ele>
        <time>2021-09-11T08:14:48.000Z</time>
      </trkpt>
      <trkpt lat="45.19649" lon="5.73782">
        <ele>219.80000305176</ele>
        <time>2021-09-11T08:14:53.000Z</time>
      </trkpt>
      <trkpt lat="45.19649" lon="5.73785">
        <ele>219.80000305176</ele>
        <time>2021-09-11T08:14:54.000Z</time>
      </trkpt>
      <trkpt lat="45.19651" lon="5.73811">
        <ele>219.80000305176</ele>
        <time>2021-09-11T08:15:00.000Z</time>
      </trkpt>
      <trkpt lat="45.19654" lon="5.73819">
        <ele>220</ele>
        <time>2021-09-11T08:15:02.000Z</time>
      </trkpt>
      <trkpt lat="45.19656" lon="5.73834">
        <ele>220</ele>
        <time>2021-09-11T08:15:05.000Z</time>
      </trkpt>
      <trkpt lat="45.19655" lon="5.73838">
        <ele>220</ele>
        <time>2021-09-11T08:15:06.000Z</time>
      </trkpt>
      <trkpt lat="45.19657" lon="5.73854">
        <ele>220</ele>
        <time>2021-09-11T08:15:10.000Z</time>
      </trkpt>
      <trkpt lat="45.19663" lon="5.73879">
        <ele>219.80000305176</ele>
        <time>2021-09-11T08:15:17.000Z</time>
      </trkpt>
      <trkpt lat="45.19669" lon="5.73909">
        <ele>219.80000305176</ele>
        <time>2021-09-11T08:15:23.000Z</time>
      </trkpt>
      <trkpt lat="45.19677" lon="5.73923">
        <ele>219.80000305176</ele>
        <time>2021-09-11T08:15:27.000Z</time>
      </trkpt>
      <trkpt lat="45.19684" lon="5.73945">
        <ele>219.80000305176</ele>
        <time>2021-09-11T08:15:32.000Z</time>
      </trkpt>
      <trkpt lat="45.19688" lon="5.73961">
        <ele>220</ele>
        <time>2021-09-11T08:15:36.000Z</time>
      </trkpt>
      <trkpt lat="45.1969" lon="5.73965">
        <ele>220</ele>
        <time>2021-09-11T08:15:37.000Z</time>
      </trkpt>
      <trkpt lat="45.19692" lon="5.73987">
        <ele>220</ele>
        <time>2021-09-11T08:15:42.000Z</time>
      </trkpt>
      <trkpt lat="45.19689" lon="5.74004">
        <ele>219.39999389648</ele>
        <time>2021-09-11T08:15:46.000Z</time>
      </trkpt>
      <trkpt lat="45.19685" lon="5.74006">
        <ele>219.60000610352</ele>
        <time>2021-09-11T08:15:47.000Z</time>
      </trkpt>
      <trkpt lat="45.19681" lon="5.74008">
        <ele>219.60000610352</ele>
        <time>2021-09-11T08:15:48.000Z</time>
      </trkpt>
      <trkpt lat="45.19675" lon="5.74011">
        <ele>219.39999389648</ele>
        <time>2021-09-11T08:15:50.000Z</time>
      </trkpt>
      <trkpt lat="45.19671" lon="5.74012">
        <ele>219.39999389648</ele>
        <time>2021-09-11T08:15:51.000Z</time>
      </trkpt>
      <trkpt lat="45.19652" lon="5.7401">
        <ele>219.39999389648</ele>
        <time>2021-09-11T08:15:57.000Z</time>
      </trkpt>
      <trkpt lat="45.19631" lon="5.74012">
        <ele>219.19999694824</ele>
        <time>2021-09-11T08:16:03.000Z</time>
      </trkpt>
      <trkpt lat="45.19617" lon="5.74007">
        <ele>219.19999694824</ele>
        <time>2021-09-11T08:16:08.000Z</time>
      </trkpt>
      <trkpt lat="45.19614" lon="5.73999">
        <ele>219.19999694824</ele>
        <time>2021-09-11T08:16:10.000Z</time>
      </trkpt>
      <trkpt lat="45.19613" lon="5.73992">
        <ele>219.19999694824</ele>
        <time>2021-09-11T08:16:11.000Z</time>
      </trkpt>
      <trkpt lat="45.19613" lon="5.73972">
        <ele>219.19999694824</ele>
        <time>2021-09-11T08:16:15.000Z</time>
      </trkpt>
      <trkpt lat="45.19615" lon="5.73969">
        <ele>219.19999694824</ele>
        <time>2021-09-11T08:16:16.000Z</time>
      </trkpt>
      <trkpt lat="45.1962" lon="5.73964">
        <ele>219.19999694824</ele>
        <time>2021-09-11T08:16:18.000Z</time>
      </trkpt>
      <trkpt lat="45.19626" lon="5.73963">
        <ele>219.19999694824</ele>
        <time>2021-09-11T08:16:20.000Z</time>
      </trkpt>
      <trkpt lat="45.19634" lon="5.73966">
        <ele>219.19999694824</ele>
        <time>2021-09-11T08:16:24.000Z</time>
      </trkpt>
      <trkpt lat="45.19635" lon="5.73967">
        <ele>219.19999694824</ele>
        <time>2021-09-11T08:16:25.000Z</time>
      </trkpt>
      <trkpt lat="45.19636" lon="5.73967">
        <ele>219</ele>
        <time>2021-09-11T08:16:26.000Z</time>
      </trkpt>
      <trkpt lat="45.19635" lon="5.73968">
        <ele>219.19999694824</ele>
        <time>2021-09-11T08:16:28.000Z</time>
      </trkpt>
      <trkpt lat="45.19634" lon="5.73969">
        <ele>219.19999694824</ele>
        <time>2021-09-11T08:16:29.000Z</time>
      </trkpt>
      <trkpt lat="45.19634" lon="5.73971">
        <ele>219.19999694824</ele>
        <time>2021-09-11T08:16:30.000Z</time>
      </trkpt>
      <trkpt lat="45.19637" lon="5.7397">
        <ele>219.19999694824</ele>
        <time>2021-09-11T08:16:32.000Z</time>
      </trkpt>
      <trkpt lat="45.19642" lon="5.73985">
        <ele>221.80000305176</ele>
        <time>2021-09-11T08:16:50.000Z</time>
      </trkpt>
      <trkpt lat="45.19644" lon="5.73988">
        <ele>222</ele>
        <time>2021-09-11T08:16:52.000Z</time>
      </trkpt>
      <trkpt lat="45.19646" lon="5.73986">
        <ele>222.60000610352</ele>
        <time>2021-09-11T08:16:54.000Z</time>
      </trkpt>
      <trkpt lat="45.19643" lon="5.73984">
        <ele>223</ele>
        <time>2021-09-11T08:16:55.000Z</time>
      </trkpt>
      <trkpt lat="45.19642" lon="5.73982">
        <ele>223.80000305176</ele>
        <time>2021-09-11T08:16:58.000Z</time>
      </trkpt>
      <trkpt lat="45.19642" lon="5.73983">
        <ele>224.19999694824</ele>
        <time>2021-09-11T08:16:59.000Z</time>
      </trkpt>
      <trkpt lat="45.19641" lon="5.73986">
        <ele>224.19999694824</ele>
        <time>2021-09-11T08:17:00.000Z</time>
      </trkpt>
      <trkpt lat="45.1964" lon="5.73986">
        <ele>224.39999389648</ele>
        <time>2021-09-11T08:17:02.000Z</time>
      </trkpt>
      <trkpt lat="45.19641" lon="5.73982">
        <ele>225</ele>
        <time>2021-09-11T08:17:04.000Z</time>
      </trkpt>
      <trkpt lat="45.19642" lon="5.73982">
        <ele>225.39999389648</ele>
        <time>2021-09-11T08:17:05.000Z</time>
      </trkpt>
      <trkpt lat="45.19642" lon="5.73981">
        <ele>225.60000610352</ele>
        <time>2021-09-11T08:17:06.000Z</time>
      </trkpt>
      <trkpt lat="45.19643" lon="5.73978">
        <ele>226.39999389648</ele>
        <time>2021-09-11T08:17:08.000Z</time>
      </trkpt>
      <trkpt lat="45.19643" lon="5.73977">
        <ele>226.60000610352</ele>
        <time>2021-09-11T08:17:09.000Z</time>
      </trkpt>
      <trkpt lat="45.19643" lon="5.73977">
        <ele>226.80000305176</ele>
        <time>2021-09-11T08:17:10.000Z</time>
      </trkpt>
      <trkpt lat="45.19642" lon="5.73976">
        <ele>227</ele>
        <time>2021-09-11T08:17:12.000Z</time>
      </trkpt>
      <trkpt lat="45.19642" lon="5.73976">
        <ele>227</ele>
        <time>2021-09-11T08:17:13.000Z</time>
      </trkpt>
      <trkpt lat="45.19644" lon="5.73975">
        <ele>227</ele>
        <time>2021-09-11T08:17:15.000Z</time>
      </trkpt>
      <trkpt lat="45.19647" lon="5.73975">
        <ele>227</ele>
        <time>2021-09-11T08:17:18.000Z</time>
      </trkpt>
      <trkpt lat="45.19649" lon="5.73975">
        <ele>227</ele>
        <time>2021-09-11T08:17:21.000Z</time>
      </trkpt>
      <trkpt lat="45.1965" lon="5.73975">
        <ele>227</ele>
        <time>2021-09-11T08:17:22.000Z</time>
      </trkpt>
    </trkseg>
  </trk>
</gpx>